<?xml version="1.0" encoding="UTF-8" standalone="no" ?>
<gpx xmlns="http://www.topografix.com/GPX/1/1" xmlns:xsi="http://www.w3.org/2001/XMLSchema-instance" xsi:schemaLocation="http://www.topografix.com/GPX/1/1 http://www.topografix.com/GPX/1/1/gpx.xsd" version="1.1" creator="VisuGPX - https://www.visugpx.com">
  <metadata>
    <name>Running</name>
  </metadata>
  <trk>
    <name><![CDATA[Running]]></name>
    <extensions>
      <line xmlns="http://www.topografix.com/GPX/gpx_style/0/2">
        <color>0000FF</color>
        <width>4</width>
      </line>
    </extensions>
    <trkseg>
      <trkpt lat="45.36561" lon="2.3937">
        <ele>612</ele>
        <time>2022-06-14T07:32:32.000Z</time>
      </trkpt>
      <trkpt lat="45.36563" lon="2.39375">
        <ele>612.2</ele>
        <time>2022-06-14T07:32:36.000Z</time>
      </trkpt>
      <trkpt lat="45.36565" lon="2.39381">
        <ele>612.5</ele>
        <time>2022-06-14T07:32:40.000Z</time>
      </trkpt>
      <trkpt lat="45.36569" lon="2.39387">
        <ele>612.7</ele>
        <time>2022-06-14T07:32:44.000Z</time>
      </trkpt>
      <trkpt lat="45.36572" lon="2.39391">
        <ele>612.9</ele>
        <time>2022-06-14T07:32:47.000Z</time>
      </trkpt>
      <trkpt lat="45.36574" lon="2.39394">
        <ele>613</ele>
        <time>2022-06-14T07:32:49.000Z</time>
      </trkpt>
      <trkpt lat="45.36575" lon="2.39395">
        <ele>613</ele>
        <time>2022-06-14T07:32:50.000Z</time>
      </trkpt>
      <trkpt lat="45.36576" lon="2.39397">
        <ele>613.1</ele>
        <time>2022-06-14T07:32:51.000Z</time>
      </trkpt>
      <trkpt lat="45.36577" lon="2.39398">
        <ele>613.2</ele>
        <time>2022-06-14T07:32:52.000Z</time>
      </trkpt>
      <trkpt lat="45.36578" lon="2.394">
        <ele>613.2</ele>
        <time>2022-06-14T07:32:53.000Z</time>
      </trkpt>
      <trkpt lat="45.36579" lon="2.39402">
        <ele>613.3</ele>
        <time>2022-06-14T07:32:54.000Z</time>
      </trkpt>
      <trkpt lat="45.36579" lon="2.39403">
        <ele>613.4</ele>
        <time>2022-06-14T07:32:55.000Z</time>
      </trkpt>
      <trkpt lat="45.3658" lon="2.39405">
        <ele>613.5</ele>
        <time>2022-06-14T07:32:56.000Z</time>
      </trkpt>
      <trkpt lat="45.36581" lon="2.39407">
        <ele>613.5</ele>
        <time>2022-06-14T07:32:57.000Z</time>
      </trkpt>
      <trkpt lat="45.36581" lon="2.39409">
        <ele>613.6</ele>
        <time>2022-06-14T07:32:58.000Z</time>
      </trkpt>
      <trkpt lat="45.36582" lon="2.39411">
        <ele>613.7</ele>
        <time>2022-06-14T07:32:59.000Z</time>
      </trkpt>
      <trkpt lat="45.36582" lon="2.39413">
        <ele>613.8</ele>
        <time>2022-06-14T07:33:00.000Z</time>
      </trkpt>
      <trkpt lat="45.36583" lon="2.39414">
        <ele>613.9</ele>
        <time>2022-06-14T07:33:01.000Z</time>
      </trkpt>
      <trkpt lat="45.36583" lon="2.39416">
        <ele>614</ele>
        <time>2022-06-14T07:33:02.000Z</time>
      </trkpt>
      <trkpt lat="45.36583" lon="2.39418">
        <ele>614.1</ele>
        <time>2022-06-14T07:33:03.000Z</time>
      </trkpt>
      <trkpt lat="45.36583" lon="2.3942">
        <ele>614.1</ele>
        <time>2022-06-14T07:33:04.000Z</time>
      </trkpt>
      <trkpt lat="45.36583" lon="2.39422">
        <ele>614.2</ele>
        <time>2022-06-14T07:33:05.000Z</time>
      </trkpt>
      <trkpt lat="45.36583" lon="2.39424">
        <ele>614.3</ele>
        <time>2022-06-14T07:33:06.000Z</time>
      </trkpt>
      <trkpt lat="45.36584" lon="2.39426">
        <ele>614.3</ele>
        <time>2022-06-14T07:33:07.000Z</time>
      </trkpt>
      <trkpt lat="45.36583" lon="2.39428">
        <ele>614.4</ele>
        <time>2022-06-14T07:33:08.000Z</time>
      </trkpt>
      <trkpt lat="45.36583" lon="2.39429">
        <ele>614.4</ele>
        <time>2022-06-14T07:33:09.000Z</time>
      </trkpt>
      <trkpt lat="45.36583" lon="2.39431">
        <ele>614.5</ele>
        <time>2022-06-14T07:33:10.000Z</time>
      </trkpt>
      <trkpt lat="45.36583" lon="2.39433">
        <ele>614.6</ele>
        <time>2022-06-14T07:33:11.000Z</time>
      </trkpt>
      <trkpt lat="45.36583" lon="2.39435">
        <ele>614.6</ele>
        <time>2022-06-14T07:33:12.000Z</time>
      </trkpt>
      <trkpt lat="45.36583" lon="2.39436">
        <ele>614.7</ele>
        <time>2022-06-14T07:33:13.000Z</time>
      </trkpt>
      <trkpt lat="45.36583" lon="2.39438">
        <ele>614.8</ele>
        <time>2022-06-14T07:33:14.000Z</time>
      </trkpt>
      <trkpt lat="45.36584" lon="2.3944">
        <ele>614.8</ele>
        <time>2022-06-14T07:33:15.000Z</time>
      </trkpt>
      <trkpt lat="45.36584" lon="2.39442">
        <ele>614.9</ele>
        <time>2022-06-14T07:33:16.000Z</time>
      </trkpt>
      <trkpt lat="45.36584" lon="2.39444">
        <ele>614.9</ele>
        <time>2022-06-14T07:33:17.000Z</time>
      </trkpt>
      <trkpt lat="45.36584" lon="2.39445">
        <ele>615</ele>
        <time>2022-06-14T07:33:18.000Z</time>
      </trkpt>
      <trkpt lat="45.36584" lon="2.39447">
        <ele>615.1</ele>
        <time>2022-06-14T07:33:19.000Z</time>
      </trkpt>
      <trkpt lat="45.36584" lon="2.39449">
        <ele>615.1</ele>
        <time>2022-06-14T07:33:20.000Z</time>
      </trkpt>
      <trkpt lat="45.36584" lon="2.39451">
        <ele>615.2</ele>
        <time>2022-06-14T07:33:21.000Z</time>
      </trkpt>
      <trkpt lat="45.36584" lon="2.39453">
        <ele>615.2</ele>
        <time>2022-06-14T07:33:22.000Z</time>
      </trkpt>
      <trkpt lat="45.36584" lon="2.39454">
        <ele>615.3</ele>
        <time>2022-06-14T07:33:23.000Z</time>
      </trkpt>
      <trkpt lat="45.36584" lon="2.39456">
        <ele>615.4</ele>
        <time>2022-06-14T07:33:24.000Z</time>
      </trkpt>
      <trkpt lat="45.36584" lon="2.39458">
        <ele>615.4</ele>
        <time>2022-06-14T07:33:25.000Z</time>
      </trkpt>
      <trkpt lat="45.36584" lon="2.3946">
        <ele>615.5</ele>
        <time>2022-06-14T07:33:26.000Z</time>
      </trkpt>
      <trkpt lat="45.36584" lon="2.39461">
        <ele>615.5</ele>
        <time>2022-06-14T07:33:27.000Z</time>
      </trkpt>
      <trkpt lat="45.36584" lon="2.39463">
        <ele>615.6</ele>
        <time>2022-06-14T07:33:28.000Z</time>
      </trkpt>
      <trkpt lat="45.36584" lon="2.39465">
        <ele>615.7</ele>
        <time>2022-06-14T07:33:29.000Z</time>
      </trkpt>
      <trkpt lat="45.36584" lon="2.39467">
        <ele>615.7</ele>
        <time>2022-06-14T07:33:30.000Z</time>
      </trkpt>
      <trkpt lat="45.36584" lon="2.39468">
        <ele>615.8</ele>
        <time>2022-06-14T07:33:31.000Z</time>
      </trkpt>
      <trkpt lat="45.36584" lon="2.3947">
        <ele>615.9</ele>
        <time>2022-06-14T07:33:32.000Z</time>
      </trkpt>
      <trkpt lat="45.36584" lon="2.39472">
        <ele>615.9</ele>
        <time>2022-06-14T07:33:33.000Z</time>
      </trkpt>
      <trkpt lat="45.36584" lon="2.39473">
        <ele>616</ele>
        <time>2022-06-14T07:33:34.000Z</time>
      </trkpt>
      <trkpt lat="45.36584" lon="2.39475">
        <ele>616</ele>
        <time>2022-06-14T07:33:35.000Z</time>
      </trkpt>
      <trkpt lat="45.36584" lon="2.39477">
        <ele>616.1</ele>
        <time>2022-06-14T07:33:36.000Z</time>
      </trkpt>
      <trkpt lat="45.36584" lon="2.39478">
        <ele>616.1</ele>
        <time>2022-06-14T07:33:37.000Z</time>
      </trkpt>
      <trkpt lat="45.36585" lon="2.3948">
        <ele>616.2</ele>
        <time>2022-06-14T07:33:38.000Z</time>
      </trkpt>
      <trkpt lat="45.36585" lon="2.39482">
        <ele>616.2</ele>
        <time>2022-06-14T07:33:39.000Z</time>
      </trkpt>
      <trkpt lat="45.36585" lon="2.39483">
        <ele>616.3</ele>
        <time>2022-06-14T07:33:40.000Z</time>
      </trkpt>
      <trkpt lat="45.36585" lon="2.39485">
        <ele>616.3</ele>
        <time>2022-06-14T07:33:41.000Z</time>
      </trkpt>
      <trkpt lat="45.36586" lon="2.39487">
        <ele>616.3</ele>
        <time>2022-06-14T07:33:42.000Z</time>
      </trkpt>
      <trkpt lat="45.36586" lon="2.39488">
        <ele>616.3</ele>
        <time>2022-06-14T07:33:43.000Z</time>
      </trkpt>
      <trkpt lat="45.36587" lon="2.3949">
        <ele>616.4</ele>
        <time>2022-06-14T07:33:44.000Z</time>
      </trkpt>
      <trkpt lat="45.36587" lon="2.39492">
        <ele>616.4</ele>
        <time>2022-06-14T07:33:45.000Z</time>
      </trkpt>
      <trkpt lat="45.36588" lon="2.39494">
        <ele>616.4</ele>
        <time>2022-06-14T07:33:46.000Z</time>
      </trkpt>
      <trkpt lat="45.36589" lon="2.39495">
        <ele>616.4</ele>
        <time>2022-06-14T07:33:47.000Z</time>
      </trkpt>
      <trkpt lat="45.36589" lon="2.39497">
        <ele>616.4</ele>
        <time>2022-06-14T07:33:48.000Z</time>
      </trkpt>
      <trkpt lat="45.3659" lon="2.39499">
        <ele>616.4</ele>
        <time>2022-06-14T07:33:49.000Z</time>
      </trkpt>
      <trkpt lat="45.36591" lon="2.395">
        <ele>616.3</ele>
        <time>2022-06-14T07:33:50.000Z</time>
      </trkpt>
      <trkpt lat="45.36592" lon="2.39502">
        <ele>616.3</ele>
        <time>2022-06-14T07:33:51.000Z</time>
      </trkpt>
      <trkpt lat="45.36593" lon="2.39503">
        <ele>616.2</ele>
        <time>2022-06-14T07:33:52.000Z</time>
      </trkpt>
      <trkpt lat="45.36594" lon="2.39504">
        <ele>616.2</ele>
        <time>2022-06-14T07:33:53.000Z</time>
      </trkpt>
      <trkpt lat="45.36595" lon="2.39506">
        <ele>616.1</ele>
        <time>2022-06-14T07:33:54.000Z</time>
      </trkpt>
      <trkpt lat="45.36596" lon="2.39507">
        <ele>616.1</ele>
        <time>2022-06-14T07:33:55.000Z</time>
      </trkpt>
      <trkpt lat="45.36597" lon="2.39508">
        <ele>616</ele>
        <time>2022-06-14T07:33:56.000Z</time>
      </trkpt>
      <trkpt lat="45.36598" lon="2.3951">
        <ele>616</ele>
        <time>2022-06-14T07:33:57.000Z</time>
      </trkpt>
      <trkpt lat="45.36599" lon="2.39511">
        <ele>615.9</ele>
        <time>2022-06-14T07:33:58.000Z</time>
      </trkpt>
      <trkpt lat="45.366" lon="2.39512">
        <ele>615.9</ele>
        <time>2022-06-14T07:33:59.000Z</time>
      </trkpt>
      <trkpt lat="45.36601" lon="2.39513">
        <ele>615.8</ele>
        <time>2022-06-14T07:34:00.000Z</time>
      </trkpt>
      <trkpt lat="45.36602" lon="2.39515">
        <ele>615.8</ele>
        <time>2022-06-14T07:34:01.000Z</time>
      </trkpt>
      <trkpt lat="45.36603" lon="2.39516">
        <ele>615.7</ele>
        <time>2022-06-14T07:34:02.000Z</time>
      </trkpt>
      <trkpt lat="45.36604" lon="2.39517">
        <ele>615.7</ele>
        <time>2022-06-14T07:34:03.000Z</time>
      </trkpt>
      <trkpt lat="45.36605" lon="2.39519">
        <ele>615.7</ele>
        <time>2022-06-14T07:34:04.000Z</time>
      </trkpt>
      <trkpt lat="45.36606" lon="2.3952">
        <ele>615.6</ele>
        <time>2022-06-14T07:34:05.000Z</time>
      </trkpt>
      <trkpt lat="45.36607" lon="2.39521">
        <ele>615.6</ele>
        <time>2022-06-14T07:34:06.000Z</time>
      </trkpt>
      <trkpt lat="45.36608" lon="2.39522">
        <ele>615.6</ele>
        <time>2022-06-14T07:34:07.000Z</time>
      </trkpt>
      <trkpt lat="45.36609" lon="2.39524">
        <ele>615.5</ele>
        <time>2022-06-14T07:34:08.000Z</time>
      </trkpt>
      <trkpt lat="45.3661" lon="2.39525">
        <ele>615.5</ele>
        <time>2022-06-14T07:34:09.000Z</time>
      </trkpt>
      <trkpt lat="45.36611" lon="2.39526">
        <ele>615.5</ele>
        <time>2022-06-14T07:34:10.000Z</time>
      </trkpt>
      <trkpt lat="45.36612" lon="2.39527">
        <ele>615.5</ele>
        <time>2022-06-14T07:34:11.000Z</time>
      </trkpt>
      <trkpt lat="45.36613" lon="2.39529">
        <ele>615.4</ele>
        <time>2022-06-14T07:34:12.000Z</time>
      </trkpt>
      <trkpt lat="45.36614" lon="2.3953">
        <ele>615.4</ele>
        <time>2022-06-14T07:34:13.000Z</time>
      </trkpt>
      <trkpt lat="45.36615" lon="2.39531">
        <ele>615.4</ele>
        <time>2022-06-14T07:34:14.000Z</time>
      </trkpt>
      <trkpt lat="45.36616" lon="2.39532">
        <ele>615.4</ele>
        <time>2022-06-14T07:34:15.000Z</time>
      </trkpt>
      <trkpt lat="45.36617" lon="2.39534">
        <ele>615.4</ele>
        <time>2022-06-14T07:34:16.000Z</time>
      </trkpt>
      <trkpt lat="45.36618" lon="2.39535">
        <ele>615.4</ele>
        <time>2022-06-14T07:34:17.000Z</time>
      </trkpt>
      <trkpt lat="45.36619" lon="2.39536">
        <ele>615.4</ele>
        <time>2022-06-14T07:34:18.000Z</time>
      </trkpt>
      <trkpt lat="45.3662" lon="2.39538">
        <ele>615.4</ele>
        <time>2022-06-14T07:34:19.000Z</time>
      </trkpt>
      <trkpt lat="45.36621" lon="2.39539">
        <ele>615.4</ele>
        <time>2022-06-14T07:34:20.000Z</time>
      </trkpt>
      <trkpt lat="45.36622" lon="2.3954">
        <ele>615.4</ele>
        <time>2022-06-14T07:34:21.000Z</time>
      </trkpt>
      <trkpt lat="45.36623" lon="2.39542">
        <ele>615.4</ele>
        <time>2022-06-14T07:34:22.000Z</time>
      </trkpt>
      <trkpt lat="45.36623" lon="2.39543">
        <ele>615.4</ele>
        <time>2022-06-14T07:34:23.000Z</time>
      </trkpt>
      <trkpt lat="45.36624" lon="2.39545">
        <ele>615.4</ele>
        <time>2022-06-14T07:34:24.000Z</time>
      </trkpt>
      <trkpt lat="45.36625" lon="2.39546">
        <ele>615.4</ele>
        <time>2022-06-14T07:34:25.000Z</time>
      </trkpt>
      <trkpt lat="45.36626" lon="2.39547">
        <ele>615.4</ele>
        <time>2022-06-14T07:34:26.000Z</time>
      </trkpt>
      <trkpt lat="45.36627" lon="2.39548">
        <ele>615.4</ele>
        <time>2022-06-14T07:34:27.000Z</time>
      </trkpt>
      <trkpt lat="45.36628" lon="2.39548">
        <ele>615.4</ele>
        <time>2022-06-14T07:34:28.000Z</time>
      </trkpt>
      <trkpt lat="45.36629" lon="2.39549">
        <ele>615.4</ele>
        <time>2022-06-14T07:34:29.000Z</time>
      </trkpt>
      <trkpt lat="45.3663" lon="2.39549">
        <ele>615.3</ele>
        <time>2022-06-14T07:34:30.000Z</time>
      </trkpt>
      <trkpt lat="45.36631" lon="2.3955">
        <ele>615.3</ele>
        <time>2022-06-14T07:34:31.000Z</time>
      </trkpt>
      <trkpt lat="45.36632" lon="2.3955">
        <ele>615.2</ele>
        <time>2022-06-14T07:34:32.000Z</time>
      </trkpt>
      <trkpt lat="45.36634" lon="2.3955">
        <ele>615.2</ele>
        <time>2022-06-14T07:34:33.000Z</time>
      </trkpt>
      <trkpt lat="45.36635" lon="2.3955">
        <ele>615.1</ele>
        <time>2022-06-14T07:34:34.000Z</time>
      </trkpt>
      <trkpt lat="45.36636" lon="2.3955">
        <ele>615.1</ele>
        <time>2022-06-14T07:34:35.000Z</time>
      </trkpt>
      <trkpt lat="45.36637" lon="2.39551">
        <ele>615</ele>
        <time>2022-06-14T07:34:36.000Z</time>
      </trkpt>
      <trkpt lat="45.36638" lon="2.39551">
        <ele>615</ele>
        <time>2022-06-14T07:34:37.000Z</time>
      </trkpt>
      <trkpt lat="45.3664" lon="2.39551">
        <ele>615</ele>
        <time>2022-06-14T07:34:38.000Z</time>
      </trkpt>
      <trkpt lat="45.36641" lon="2.39551">
        <ele>614.9</ele>
        <time>2022-06-14T07:34:39.000Z</time>
      </trkpt>
      <trkpt lat="45.36642" lon="2.39552">
        <ele>614.9</ele>
        <time>2022-06-14T07:34:40.000Z</time>
      </trkpt>
      <trkpt lat="45.36643" lon="2.39552">
        <ele>614.8</ele>
        <time>2022-06-14T07:34:41.000Z</time>
      </trkpt>
      <trkpt lat="45.36645" lon="2.39552">
        <ele>614.8</ele>
        <time>2022-06-14T07:34:42.000Z</time>
      </trkpt>
      <trkpt lat="45.36646" lon="2.39553">
        <ele>614.8</ele>
        <time>2022-06-14T07:34:43.000Z</time>
      </trkpt>
      <trkpt lat="45.36647" lon="2.39553">
        <ele>614.7</ele>
        <time>2022-06-14T07:34:44.000Z</time>
      </trkpt>
      <trkpt lat="45.36648" lon="2.39554">
        <ele>614.7</ele>
        <time>2022-06-14T07:34:45.000Z</time>
      </trkpt>
      <trkpt lat="45.3665" lon="2.39554">
        <ele>614.7</ele>
        <time>2022-06-14T07:34:46.000Z</time>
      </trkpt>
      <trkpt lat="45.36651" lon="2.39555">
        <ele>614.6</ele>
        <time>2022-06-14T07:34:47.000Z</time>
      </trkpt>
      <trkpt lat="45.36652" lon="2.39555">
        <ele>614.6</ele>
        <time>2022-06-14T07:34:48.000Z</time>
      </trkpt>
      <trkpt lat="45.36654" lon="2.39556">
        <ele>614.6</ele>
        <time>2022-06-14T07:34:49.000Z</time>
      </trkpt>
      <trkpt lat="45.36655" lon="2.39556">
        <ele>614.5</ele>
        <time>2022-06-14T07:34:50.000Z</time>
      </trkpt>
      <trkpt lat="45.36656" lon="2.39557">
        <ele>614.5</ele>
        <time>2022-06-14T07:34:51.000Z</time>
      </trkpt>
      <trkpt lat="45.36657" lon="2.39557">
        <ele>614.5</ele>
        <time>2022-06-14T07:34:52.000Z</time>
      </trkpt>
      <trkpt lat="45.36659" lon="2.39558">
        <ele>614.5</ele>
        <time>2022-06-14T07:34:53.000Z</time>
      </trkpt>
      <trkpt lat="45.3666" lon="2.39558">
        <ele>614.5</ele>
        <time>2022-06-14T07:34:54.000Z</time>
      </trkpt>
      <trkpt lat="45.36661" lon="2.39559">
        <ele>614.5</ele>
        <time>2022-06-14T07:34:55.000Z</time>
      </trkpt>
      <trkpt lat="45.36662" lon="2.39559">
        <ele>614.5</ele>
        <time>2022-06-14T07:34:56.000Z</time>
      </trkpt>
      <trkpt lat="45.36664" lon="2.3956">
        <ele>614.4</ele>
        <time>2022-06-14T07:34:57.000Z</time>
      </trkpt>
      <trkpt lat="45.36665" lon="2.39561">
        <ele>614.4</ele>
        <time>2022-06-14T07:34:58.000Z</time>
      </trkpt>
      <trkpt lat="45.36666" lon="2.39561">
        <ele>614.4</ele>
        <time>2022-06-14T07:34:59.000Z</time>
      </trkpt>
      <trkpt lat="45.36667" lon="2.39562">
        <ele>614.4</ele>
        <time>2022-06-14T07:35:00.000Z</time>
      </trkpt>
      <trkpt lat="45.36668" lon="2.39563">
        <ele>614.4</ele>
        <time>2022-06-14T07:35:01.000Z</time>
      </trkpt>
      <trkpt lat="45.36669" lon="2.39563">
        <ele>614.4</ele>
        <time>2022-06-14T07:35:02.000Z</time>
      </trkpt>
      <trkpt lat="45.3667" lon="2.39564">
        <ele>614.4</ele>
        <time>2022-06-14T07:35:03.000Z</time>
      </trkpt>
      <trkpt lat="45.36672" lon="2.39565">
        <ele>614.4</ele>
        <time>2022-06-14T07:35:04.000Z</time>
      </trkpt>
      <trkpt lat="45.36673" lon="2.39565">
        <ele>614.4</ele>
        <time>2022-06-14T07:35:07.000Z</time>
      </trkpt>
      <trkpt lat="45.36674" lon="2.39566">
        <ele>614.4</ele>
        <time>2022-06-14T07:35:09.000Z</time>
      </trkpt>
      <trkpt lat="45.36675" lon="2.39566">
        <ele>614.3</ele>
        <time>2022-06-14T07:35:10.000Z</time>
      </trkpt>
      <trkpt lat="45.36676" lon="2.39567">
        <ele>614.3</ele>
        <time>2022-06-14T07:35:11.000Z</time>
      </trkpt>
      <trkpt lat="45.36677" lon="2.39568">
        <ele>614.3</ele>
        <time>2022-06-14T07:35:12.000Z</time>
      </trkpt>
      <trkpt lat="45.36679" lon="2.39569">
        <ele>614.3</ele>
        <time>2022-06-14T07:35:13.000Z</time>
      </trkpt>
      <trkpt lat="45.3668" lon="2.3957">
        <ele>614.3</ele>
        <time>2022-06-14T07:35:14.000Z</time>
      </trkpt>
      <trkpt lat="45.36681" lon="2.39571">
        <ele>614.4</ele>
        <time>2022-06-14T07:35:15.000Z</time>
      </trkpt>
      <trkpt lat="45.36682" lon="2.39573">
        <ele>614.4</ele>
        <time>2022-06-14T07:35:16.000Z</time>
      </trkpt>
      <trkpt lat="45.36683" lon="2.39574">
        <ele>614.4</ele>
        <time>2022-06-14T07:35:17.000Z</time>
      </trkpt>
      <trkpt lat="45.36684" lon="2.39575">
        <ele>614.4</ele>
        <time>2022-06-14T07:35:18.000Z</time>
      </trkpt>
      <trkpt lat="45.36685" lon="2.39576">
        <ele>614.4</ele>
        <time>2022-06-14T07:35:19.000Z</time>
      </trkpt>
      <trkpt lat="45.36686" lon="2.39577">
        <ele>614.5</ele>
        <time>2022-06-14T07:35:20.000Z</time>
      </trkpt>
      <trkpt lat="45.36687" lon="2.39578">
        <ele>614.5</ele>
        <time>2022-06-14T07:35:21.000Z</time>
      </trkpt>
      <trkpt lat="45.36688" lon="2.39579">
        <ele>614.5</ele>
        <time>2022-06-14T07:35:22.000Z</time>
      </trkpt>
      <trkpt lat="45.36689" lon="2.3958">
        <ele>614.5</ele>
        <time>2022-06-14T07:35:23.000Z</time>
      </trkpt>
      <trkpt lat="45.3669" lon="2.39581">
        <ele>614.4</ele>
        <time>2022-06-14T07:35:25.000Z</time>
      </trkpt>
      <trkpt lat="45.36691" lon="2.39582">
        <ele>614.4</ele>
        <time>2022-06-14T07:35:26.000Z</time>
      </trkpt>
      <trkpt lat="45.36692" lon="2.39582">
        <ele>614.4</ele>
        <time>2022-06-14T07:35:27.000Z</time>
      </trkpt>
      <trkpt lat="45.36693" lon="2.39583">
        <ele>614.4</ele>
        <time>2022-06-14T07:35:28.000Z</time>
      </trkpt>
      <trkpt lat="45.36694" lon="2.39584">
        <ele>614.3</ele>
        <time>2022-06-14T07:35:29.000Z</time>
      </trkpt>
      <trkpt lat="45.36695" lon="2.39584">
        <ele>614.3</ele>
        <time>2022-06-14T07:35:30.000Z</time>
      </trkpt>
      <trkpt lat="45.36696" lon="2.39585">
        <ele>614.2</ele>
        <time>2022-06-14T07:35:31.000Z</time>
      </trkpt>
      <trkpt lat="45.36697" lon="2.39586">
        <ele>614.2</ele>
        <time>2022-06-14T07:35:32.000Z</time>
      </trkpt>
      <trkpt lat="45.36698" lon="2.39586">
        <ele>614.1</ele>
        <time>2022-06-14T07:35:33.000Z</time>
      </trkpt>
      <trkpt lat="45.36699" lon="2.39587">
        <ele>614.1</ele>
        <time>2022-06-14T07:35:34.000Z</time>
      </trkpt>
      <trkpt lat="45.367" lon="2.39588">
        <ele>614</ele>
        <time>2022-06-14T07:35:35.000Z</time>
      </trkpt>
      <trkpt lat="45.36701" lon="2.39589">
        <ele>614</ele>
        <time>2022-06-14T07:35:36.000Z</time>
      </trkpt>
      <trkpt lat="45.36702" lon="2.3959">
        <ele>614</ele>
        <time>2022-06-14T07:35:37.000Z</time>
      </trkpt>
      <trkpt lat="45.36703" lon="2.3959">
        <ele>613.9</ele>
        <time>2022-06-14T07:35:38.000Z</time>
      </trkpt>
      <trkpt lat="45.36703" lon="2.39591">
        <ele>613.9</ele>
        <time>2022-06-14T07:35:39.000Z</time>
      </trkpt>
      <trkpt lat="45.36704" lon="2.39592">
        <ele>613.9</ele>
        <time>2022-06-14T07:35:40.000Z</time>
      </trkpt>
      <trkpt lat="45.36705" lon="2.39594">
        <ele>613.8</ele>
        <time>2022-06-14T07:35:41.000Z</time>
      </trkpt>
      <trkpt lat="45.36706" lon="2.39595">
        <ele>613.8</ele>
        <time>2022-06-14T07:35:42.000Z</time>
      </trkpt>
      <trkpt lat="45.36707" lon="2.39596">
        <ele>613.8</ele>
        <time>2022-06-14T07:35:43.000Z</time>
      </trkpt>
      <trkpt lat="45.36707" lon="2.39597">
        <ele>613.7</ele>
        <time>2022-06-14T07:35:44.000Z</time>
      </trkpt>
      <trkpt lat="45.36708" lon="2.39598">
        <ele>613.7</ele>
        <time>2022-06-14T07:35:45.000Z</time>
      </trkpt>
      <trkpt lat="45.36709" lon="2.39599">
        <ele>613.7</ele>
        <time>2022-06-14T07:35:46.000Z</time>
      </trkpt>
      <trkpt lat="45.36709" lon="2.396">
        <ele>613.6</ele>
        <time>2022-06-14T07:35:47.000Z</time>
      </trkpt>
      <trkpt lat="45.3671" lon="2.39601">
        <ele>613.6</ele>
        <time>2022-06-14T07:35:48.000Z</time>
      </trkpt>
      <trkpt lat="45.36711" lon="2.39601">
        <ele>613.6</ele>
        <time>2022-06-14T07:35:49.000Z</time>
      </trkpt>
      <trkpt lat="45.36711" lon="2.39602">
        <ele>613.6</ele>
        <time>2022-06-14T07:35:50.000Z</time>
      </trkpt>
      <trkpt lat="45.36712" lon="2.39603">
        <ele>613.5</ele>
        <time>2022-06-14T07:35:51.000Z</time>
      </trkpt>
      <trkpt lat="45.36712" lon="2.39604">
        <ele>613.5</ele>
        <time>2022-06-14T07:35:52.000Z</time>
      </trkpt>
      <trkpt lat="45.36713" lon="2.39604">
        <ele>613.5</ele>
        <time>2022-06-14T07:35:53.000Z</time>
      </trkpt>
      <trkpt lat="45.36713" lon="2.39605">
        <ele>613.5</ele>
        <time>2022-06-14T07:35:54.000Z</time>
      </trkpt>
      <trkpt lat="45.36714" lon="2.39606">
        <ele>613.5</ele>
        <time>2022-06-14T07:35:55.000Z</time>
      </trkpt>
      <trkpt lat="45.36715" lon="2.39607">
        <ele>613.4</ele>
        <time>2022-06-14T07:35:56.000Z</time>
      </trkpt>
      <trkpt lat="45.36716" lon="2.39608">
        <ele>613.4</ele>
        <time>2022-06-14T07:35:58.000Z</time>
      </trkpt>
      <trkpt lat="45.36716" lon="2.39609">
        <ele>613.4</ele>
        <time>2022-06-14T07:35:59.000Z</time>
      </trkpt>
      <trkpt lat="45.36717" lon="2.39609">
        <ele>613.4</ele>
        <time>2022-06-14T07:36:00.000Z</time>
      </trkpt>
      <trkpt lat="45.36718" lon="2.3961">
        <ele>613.3</ele>
        <time>2022-06-14T07:36:01.000Z</time>
      </trkpt>
      <trkpt lat="45.36719" lon="2.39611">
        <ele>613.3</ele>
        <time>2022-06-14T07:36:02.000Z</time>
      </trkpt>
      <trkpt lat="45.3672" lon="2.39612">
        <ele>613.3</ele>
        <time>2022-06-14T07:36:03.000Z</time>
      </trkpt>
      <trkpt lat="45.36721" lon="2.39612">
        <ele>613.2</ele>
        <time>2022-06-14T07:36:04.000Z</time>
      </trkpt>
      <trkpt lat="45.36722" lon="2.39613">
        <ele>613.2</ele>
        <time>2022-06-14T07:36:05.000Z</time>
      </trkpt>
      <trkpt lat="45.36723" lon="2.39614">
        <ele>613.1</ele>
        <time>2022-06-14T07:36:06.000Z</time>
      </trkpt>
      <trkpt lat="45.36724" lon="2.39615">
        <ele>613.1</ele>
        <time>2022-06-14T07:36:07.000Z</time>
      </trkpt>
      <trkpt lat="45.36725" lon="2.39615">
        <ele>613.1</ele>
        <time>2022-06-14T07:36:08.000Z</time>
      </trkpt>
      <trkpt lat="45.36726" lon="2.39616">
        <ele>613</ele>
        <time>2022-06-14T07:36:09.000Z</time>
      </trkpt>
      <trkpt lat="45.36727" lon="2.39616">
        <ele>613</ele>
        <time>2022-06-14T07:36:10.000Z</time>
      </trkpt>
      <trkpt lat="45.36727" lon="2.39617">
        <ele>612.9</ele>
        <time>2022-06-14T07:36:11.000Z</time>
      </trkpt>
      <trkpt lat="45.36728" lon="2.39618">
        <ele>612.9</ele>
        <time>2022-06-14T07:36:12.000Z</time>
      </trkpt>
      <trkpt lat="45.36729" lon="2.39618">
        <ele>612.9</ele>
        <time>2022-06-14T07:36:13.000Z</time>
      </trkpt>
      <trkpt lat="45.3673" lon="2.39619">
        <ele>612.9</ele>
        <time>2022-06-14T07:36:14.000Z</time>
      </trkpt>
      <trkpt lat="45.36731" lon="2.39619">
        <ele>612.8</ele>
        <time>2022-06-14T07:36:16.000Z</time>
      </trkpt>
      <trkpt lat="45.36731" lon="2.3962">
        <ele>612.8</ele>
        <time>2022-06-14T07:36:17.000Z</time>
      </trkpt>
      <trkpt lat="45.36732" lon="2.3962">
        <ele>612.8</ele>
        <time>2022-06-14T07:36:18.000Z</time>
      </trkpt>
      <trkpt lat="45.36733" lon="2.3962">
        <ele>612.7</ele>
        <time>2022-06-14T07:36:21.000Z</time>
      </trkpt>
      <trkpt lat="45.36734" lon="2.39621">
        <ele>612.7</ele>
        <time>2022-06-14T07:36:24.000Z</time>
      </trkpt>
      <trkpt lat="45.36734" lon="2.3962">
        <ele>612.7</ele>
        <time>2022-06-14T07:36:25.000Z</time>
      </trkpt>
      <trkpt lat="45.36735" lon="2.3962">
        <ele>612.6</ele>
        <time>2022-06-14T07:36:26.000Z</time>
      </trkpt>
      <trkpt lat="45.36736" lon="2.3962">
        <ele>612.6</ele>
        <time>2022-06-14T07:36:27.000Z</time>
      </trkpt>
      <trkpt lat="45.36736" lon="2.39619">
        <ele>612.5</ele>
        <time>2022-06-14T07:36:28.000Z</time>
      </trkpt>
      <trkpt lat="45.36737" lon="2.39619">
        <ele>612.5</ele>
        <time>2022-06-14T07:36:29.000Z</time>
      </trkpt>
      <trkpt lat="45.36738" lon="2.39619">
        <ele>612.5</ele>
        <time>2022-06-14T07:36:30.000Z</time>
      </trkpt>
      <trkpt lat="45.36739" lon="2.39619">
        <ele>612.4</ele>
        <time>2022-06-14T07:36:31.000Z</time>
      </trkpt>
      <trkpt lat="45.36741" lon="2.39618">
        <ele>612.3</ele>
        <time>2022-06-14T07:36:32.000Z</time>
      </trkpt>
      <trkpt lat="45.36742" lon="2.39617">
        <ele>612.2</ele>
        <time>2022-06-14T07:36:33.000Z</time>
      </trkpt>
      <trkpt lat="45.36743" lon="2.39616">
        <ele>612.1</ele>
        <time>2022-06-14T07:36:34.000Z</time>
      </trkpt>
      <trkpt lat="45.36745" lon="2.39616">
        <ele>612.1</ele>
        <time>2022-06-14T07:36:35.000Z</time>
      </trkpt>
      <trkpt lat="45.36746" lon="2.39615">
        <ele>612</ele>
        <time>2022-06-14T07:36:36.000Z</time>
      </trkpt>
      <trkpt lat="45.36747" lon="2.39614">
        <ele>611.9</ele>
        <time>2022-06-14T07:36:37.000Z</time>
      </trkpt>
      <trkpt lat="45.36749" lon="2.39613">
        <ele>611.8</ele>
        <time>2022-06-14T07:36:38.000Z</time>
      </trkpt>
      <trkpt lat="45.3675" lon="2.39613">
        <ele>611.7</ele>
        <time>2022-06-14T07:36:39.000Z</time>
      </trkpt>
      <trkpt lat="45.36751" lon="2.39612">
        <ele>611.6</ele>
        <time>2022-06-14T07:36:40.000Z</time>
      </trkpt>
      <trkpt lat="45.36753" lon="2.39611">
        <ele>611.6</ele>
        <time>2022-06-14T07:36:41.000Z</time>
      </trkpt>
      <trkpt lat="45.36754" lon="2.3961">
        <ele>611.5</ele>
        <time>2022-06-14T07:36:42.000Z</time>
      </trkpt>
      <trkpt lat="45.36755" lon="2.39609">
        <ele>611.4</ele>
        <time>2022-06-14T07:36:43.000Z</time>
      </trkpt>
      <trkpt lat="45.36756" lon="2.39608">
        <ele>611.4</ele>
        <time>2022-06-14T07:36:44.000Z</time>
      </trkpt>
      <trkpt lat="45.36757" lon="2.39607">
        <ele>611.3</ele>
        <time>2022-06-14T07:36:45.000Z</time>
      </trkpt>
      <trkpt lat="45.36758" lon="2.39606">
        <ele>611.3</ele>
        <time>2022-06-14T07:36:46.000Z</time>
      </trkpt>
      <trkpt lat="45.36759" lon="2.39605">
        <ele>611.2</ele>
        <time>2022-06-14T07:36:47.000Z</time>
      </trkpt>
      <trkpt lat="45.3676" lon="2.39604">
        <ele>611.2</ele>
        <time>2022-06-14T07:36:48.000Z</time>
      </trkpt>
      <trkpt lat="45.36761" lon="2.39603">
        <ele>611.1</ele>
        <time>2022-06-14T07:36:49.000Z</time>
      </trkpt>
      <trkpt lat="45.36762" lon="2.39602">
        <ele>611.1</ele>
        <time>2022-06-14T07:36:50.000Z</time>
      </trkpt>
      <trkpt lat="45.36763" lon="2.39601">
        <ele>611</ele>
        <time>2022-06-14T07:36:51.000Z</time>
      </trkpt>
      <trkpt lat="45.36764" lon="2.396">
        <ele>611</ele>
        <time>2022-06-14T07:36:52.000Z</time>
      </trkpt>
      <trkpt lat="45.36765" lon="2.39599">
        <ele>610.9</ele>
        <time>2022-06-14T07:36:53.000Z</time>
      </trkpt>
      <trkpt lat="45.36766" lon="2.39598">
        <ele>610.9</ele>
        <time>2022-06-14T07:36:54.000Z</time>
      </trkpt>
      <trkpt lat="45.36767" lon="2.39597">
        <ele>610.8</ele>
        <time>2022-06-14T07:36:55.000Z</time>
      </trkpt>
      <trkpt lat="45.36768" lon="2.39596">
        <ele>610.8</ele>
        <time>2022-06-14T07:36:56.000Z</time>
      </trkpt>
      <trkpt lat="45.36769" lon="2.39595">
        <ele>610.7</ele>
        <time>2022-06-14T07:36:57.000Z</time>
      </trkpt>
      <trkpt lat="45.3677" lon="2.39594">
        <ele>610.7</ele>
        <time>2022-06-14T07:36:58.000Z</time>
      </trkpt>
      <trkpt lat="45.36772" lon="2.39593">
        <ele>610.6</ele>
        <time>2022-06-14T07:36:59.000Z</time>
      </trkpt>
      <trkpt lat="45.36773" lon="2.39592">
        <ele>610.6</ele>
        <time>2022-06-14T07:37:00.000Z</time>
      </trkpt>
      <trkpt lat="45.36774" lon="2.39591">
        <ele>610.5</ele>
        <time>2022-06-14T07:37:01.000Z</time>
      </trkpt>
      <trkpt lat="45.36775" lon="2.3959">
        <ele>610.5</ele>
        <time>2022-06-14T07:37:02.000Z</time>
      </trkpt>
      <trkpt lat="45.36777" lon="2.39589">
        <ele>610.4</ele>
        <time>2022-06-14T07:37:03.000Z</time>
      </trkpt>
      <trkpt lat="45.36778" lon="2.39588">
        <ele>610.4</ele>
        <time>2022-06-14T07:37:04.000Z</time>
      </trkpt>
      <trkpt lat="45.36779" lon="2.39587">
        <ele>610.4</ele>
        <time>2022-06-14T07:37:05.000Z</time>
      </trkpt>
      <trkpt lat="45.3678" lon="2.39585">
        <ele>610.3</ele>
        <time>2022-06-14T07:37:06.000Z</time>
      </trkpt>
      <trkpt lat="45.36781" lon="2.39584">
        <ele>610.3</ele>
        <time>2022-06-14T07:37:07.000Z</time>
      </trkpt>
      <trkpt lat="45.36782" lon="2.39583">
        <ele>610.2</ele>
        <time>2022-06-14T07:37:08.000Z</time>
      </trkpt>
      <trkpt lat="45.36782" lon="2.39582">
        <ele>610.2</ele>
        <time>2022-06-14T07:37:09.000Z</time>
      </trkpt>
      <trkpt lat="45.36783" lon="2.39581">
        <ele>610.2</ele>
        <time>2022-06-14T07:37:10.000Z</time>
      </trkpt>
      <trkpt lat="45.36784" lon="2.3958">
        <ele>610.1</ele>
        <time>2022-06-14T07:37:11.000Z</time>
      </trkpt>
      <trkpt lat="45.36785" lon="2.39579">
        <ele>610.1</ele>
        <time>2022-06-14T07:37:12.000Z</time>
      </trkpt>
      <trkpt lat="45.36786" lon="2.39578">
        <ele>610</ele>
        <time>2022-06-14T07:37:13.000Z</time>
      </trkpt>
      <trkpt lat="45.36787" lon="2.39576">
        <ele>610</ele>
        <time>2022-06-14T07:37:14.000Z</time>
      </trkpt>
      <trkpt lat="45.36788" lon="2.39575">
        <ele>609.9</ele>
        <time>2022-06-14T07:37:15.000Z</time>
      </trkpt>
      <trkpt lat="45.36789" lon="2.39574">
        <ele>609.9</ele>
        <time>2022-06-14T07:37:16.000Z</time>
      </trkpt>
      <trkpt lat="45.3679" lon="2.39573">
        <ele>609.9</ele>
        <time>2022-06-14T07:37:17.000Z</time>
      </trkpt>
      <trkpt lat="45.3679" lon="2.39572">
        <ele>609.8</ele>
        <time>2022-06-14T07:37:18.000Z</time>
      </trkpt>
      <trkpt lat="45.36791" lon="2.39571">
        <ele>609.8</ele>
        <time>2022-06-14T07:37:19.000Z</time>
      </trkpt>
      <trkpt lat="45.36792" lon="2.3957">
        <ele>609.7</ele>
        <time>2022-06-14T07:37:20.000Z</time>
      </trkpt>
      <trkpt lat="45.36793" lon="2.39568">
        <ele>609.7</ele>
        <time>2022-06-14T07:37:21.000Z</time>
      </trkpt>
      <trkpt lat="45.36794" lon="2.39567">
        <ele>609.7</ele>
        <time>2022-06-14T07:37:22.000Z</time>
      </trkpt>
      <trkpt lat="45.36795" lon="2.39566">
        <ele>609.6</ele>
        <time>2022-06-14T07:37:23.000Z</time>
      </trkpt>
      <trkpt lat="45.36796" lon="2.39565">
        <ele>609.6</ele>
        <time>2022-06-14T07:37:24.000Z</time>
      </trkpt>
      <trkpt lat="45.36797" lon="2.39564">
        <ele>609.6</ele>
        <time>2022-06-14T07:37:25.000Z</time>
      </trkpt>
      <trkpt lat="45.36798" lon="2.39563">
        <ele>609.5</ele>
        <time>2022-06-14T07:37:26.000Z</time>
      </trkpt>
      <trkpt lat="45.36798" lon="2.39561">
        <ele>609.5</ele>
        <time>2022-06-14T07:37:27.000Z</time>
      </trkpt>
      <trkpt lat="45.36799" lon="2.3956">
        <ele>609.5</ele>
        <time>2022-06-14T07:37:28.000Z</time>
      </trkpt>
      <trkpt lat="45.368" lon="2.39559">
        <ele>609.5</ele>
        <time>2022-06-14T07:37:29.000Z</time>
      </trkpt>
      <trkpt lat="45.368" lon="2.39558">
        <ele>609.4</ele>
        <time>2022-06-14T07:37:30.000Z</time>
      </trkpt>
      <trkpt lat="45.36801" lon="2.39557">
        <ele>609.4</ele>
        <time>2022-06-14T07:37:31.000Z</time>
      </trkpt>
      <trkpt lat="45.36802" lon="2.39556">
        <ele>609.4</ele>
        <time>2022-06-14T07:37:32.000Z</time>
      </trkpt>
      <trkpt lat="45.36802" lon="2.39555">
        <ele>609.4</ele>
        <time>2022-06-14T07:37:33.000Z</time>
      </trkpt>
      <trkpt lat="45.36803" lon="2.39554">
        <ele>609.3</ele>
        <time>2022-06-14T07:37:34.000Z</time>
      </trkpt>
      <trkpt lat="45.36804" lon="2.39553">
        <ele>609.3</ele>
        <time>2022-06-14T07:37:35.000Z</time>
      </trkpt>
      <trkpt lat="45.36805" lon="2.39552">
        <ele>609.3</ele>
        <time>2022-06-14T07:37:36.000Z</time>
      </trkpt>
      <trkpt lat="45.36806" lon="2.39551">
        <ele>609.3</ele>
        <time>2022-06-14T07:37:37.000Z</time>
      </trkpt>
      <trkpt lat="45.36807" lon="2.3955">
        <ele>609.3</ele>
        <time>2022-06-14T07:37:38.000Z</time>
      </trkpt>
      <trkpt lat="45.36808" lon="2.3955">
        <ele>609.2</ele>
        <time>2022-06-14T07:37:39.000Z</time>
      </trkpt>
      <trkpt lat="45.3681" lon="2.39549">
        <ele>609.2</ele>
        <time>2022-06-14T07:37:40.000Z</time>
      </trkpt>
      <trkpt lat="45.36811" lon="2.39549">
        <ele>609.2</ele>
        <time>2022-06-14T07:37:41.000Z</time>
      </trkpt>
      <trkpt lat="45.36812" lon="2.39548">
        <ele>609.2</ele>
        <time>2022-06-14T07:37:42.000Z</time>
      </trkpt>
      <trkpt lat="45.36813" lon="2.39548">
        <ele>609.2</ele>
        <time>2022-06-14T07:37:43.000Z</time>
      </trkpt>
      <trkpt lat="45.36814" lon="2.39547">
        <ele>609.2</ele>
        <time>2022-06-14T07:37:44.000Z</time>
      </trkpt>
      <trkpt lat="45.36815" lon="2.39547">
        <ele>609.1</ele>
        <time>2022-06-14T07:37:45.000Z</time>
      </trkpt>
      <trkpt lat="45.36816" lon="2.39546">
        <ele>609.1</ele>
        <time>2022-06-14T07:37:46.000Z</time>
      </trkpt>
      <trkpt lat="45.36817" lon="2.39545">
        <ele>609.1</ele>
        <time>2022-06-14T07:37:47.000Z</time>
      </trkpt>
      <trkpt lat="45.36818" lon="2.39544">
        <ele>609.1</ele>
        <time>2022-06-14T07:37:48.000Z</time>
      </trkpt>
      <trkpt lat="45.36818" lon="2.39542">
        <ele>609.1</ele>
        <time>2022-06-14T07:37:49.000Z</time>
      </trkpt>
      <trkpt lat="45.36819" lon="2.39541">
        <ele>609.1</ele>
        <time>2022-06-14T07:37:50.000Z</time>
      </trkpt>
      <trkpt lat="45.3682" lon="2.3954">
        <ele>609.1</ele>
        <time>2022-06-14T07:37:51.000Z</time>
      </trkpt>
      <trkpt lat="45.36821" lon="2.39538">
        <ele>609.1</ele>
        <time>2022-06-14T07:37:52.000Z</time>
      </trkpt>
      <trkpt lat="45.36821" lon="2.39537">
        <ele>609</ele>
        <time>2022-06-14T07:37:53.000Z</time>
      </trkpt>
      <trkpt lat="45.36822" lon="2.39535">
        <ele>609</ele>
        <time>2022-06-14T07:37:54.000Z</time>
      </trkpt>
      <trkpt lat="45.36823" lon="2.39534">
        <ele>609</ele>
        <time>2022-06-14T07:37:55.000Z</time>
      </trkpt>
      <trkpt lat="45.36824" lon="2.39533">
        <ele>609</ele>
        <time>2022-06-14T07:37:56.000Z</time>
      </trkpt>
      <trkpt lat="45.36825" lon="2.39531">
        <ele>609</ele>
        <time>2022-06-14T07:37:57.000Z</time>
      </trkpt>
      <trkpt lat="45.36825" lon="2.3953">
        <ele>609</ele>
        <time>2022-06-14T07:37:58.000Z</time>
      </trkpt>
      <trkpt lat="45.36826" lon="2.39528">
        <ele>609</ele>
        <time>2022-06-14T07:37:59.000Z</time>
      </trkpt>
      <trkpt lat="45.36827" lon="2.39527">
        <ele>609</ele>
        <time>2022-06-14T07:38:00.000Z</time>
      </trkpt>
      <trkpt lat="45.36828" lon="2.39526">
        <ele>609</ele>
        <time>2022-06-14T07:38:01.000Z</time>
      </trkpt>
      <trkpt lat="45.36829" lon="2.39524">
        <ele>609</ele>
        <time>2022-06-14T07:38:02.000Z</time>
      </trkpt>
      <trkpt lat="45.3683" lon="2.39523">
        <ele>609</ele>
        <time>2022-06-14T07:38:03.000Z</time>
      </trkpt>
      <trkpt lat="45.36832" lon="2.39522">
        <ele>609</ele>
        <time>2022-06-14T07:38:04.000Z</time>
      </trkpt>
      <trkpt lat="45.36833" lon="2.3952">
        <ele>609</ele>
        <time>2022-06-14T07:38:05.000Z</time>
      </trkpt>
      <trkpt lat="45.36834" lon="2.39519">
        <ele>609</ele>
        <time>2022-06-14T07:38:06.000Z</time>
      </trkpt>
      <trkpt lat="45.36835" lon="2.39518">
        <ele>609.1</ele>
        <time>2022-06-14T07:38:07.000Z</time>
      </trkpt>
      <trkpt lat="45.36836" lon="2.39516">
        <ele>609.2</ele>
        <time>2022-06-14T07:38:08.000Z</time>
      </trkpt>
      <trkpt lat="45.36838" lon="2.39515">
        <ele>609.2</ele>
        <time>2022-06-14T07:38:09.000Z</time>
      </trkpt>
      <trkpt lat="45.36839" lon="2.39514">
        <ele>609.3</ele>
        <time>2022-06-14T07:38:10.000Z</time>
      </trkpt>
      <trkpt lat="45.3684" lon="2.39513">
        <ele>609.4</ele>
        <time>2022-06-14T07:38:11.000Z</time>
      </trkpt>
      <trkpt lat="45.36841" lon="2.39512">
        <ele>609.4</ele>
        <time>2022-06-14T07:38:12.000Z</time>
      </trkpt>
      <trkpt lat="45.36842" lon="2.3951">
        <ele>609.5</ele>
        <time>2022-06-14T07:38:13.000Z</time>
      </trkpt>
      <trkpt lat="45.36842" lon="2.39509">
        <ele>609.5</ele>
        <time>2022-06-14T07:38:14.000Z</time>
      </trkpt>
      <trkpt lat="45.36843" lon="2.39508">
        <ele>609.6</ele>
        <time>2022-06-14T07:38:15.000Z</time>
      </trkpt>
      <trkpt lat="45.36844" lon="2.39507">
        <ele>609.6</ele>
        <time>2022-06-14T07:38:16.000Z</time>
      </trkpt>
      <trkpt lat="45.36845" lon="2.39506">
        <ele>609.7</ele>
        <time>2022-06-14T07:38:17.000Z</time>
      </trkpt>
      <trkpt lat="45.36846" lon="2.39505">
        <ele>609.7</ele>
        <time>2022-06-14T07:38:18.000Z</time>
      </trkpt>
      <trkpt lat="45.36847" lon="2.39504">
        <ele>609.8</ele>
        <time>2022-06-14T07:38:19.000Z</time>
      </trkpt>
      <trkpt lat="45.36848" lon="2.39503">
        <ele>609.9</ele>
        <time>2022-06-14T07:38:20.000Z</time>
      </trkpt>
      <trkpt lat="45.36849" lon="2.39503">
        <ele>609.9</ele>
        <time>2022-06-14T07:38:21.000Z</time>
      </trkpt>
      <trkpt lat="45.36849" lon="2.39502">
        <ele>609.9</ele>
        <time>2022-06-14T07:38:22.000Z</time>
      </trkpt>
      <trkpt lat="45.3685" lon="2.39502">
        <ele>610</ele>
        <time>2022-06-14T07:38:23.000Z</time>
      </trkpt>
      <trkpt lat="45.3685" lon="2.39501">
        <ele>610</ele>
        <time>2022-06-14T07:38:24.000Z</time>
      </trkpt>
      <trkpt lat="45.36851" lon="2.39501">
        <ele>610.1</ele>
        <time>2022-06-14T07:38:25.000Z</time>
      </trkpt>
      <trkpt lat="45.36853" lon="2.395">
        <ele>610.1</ele>
        <time>2022-06-14T07:38:26.000Z</time>
      </trkpt>
      <trkpt lat="45.36854" lon="2.395">
        <ele>610.2</ele>
        <time>2022-06-14T07:38:27.000Z</time>
      </trkpt>
      <trkpt lat="45.36855" lon="2.39499">
        <ele>610.3</ele>
        <time>2022-06-14T07:38:28.000Z</time>
      </trkpt>
      <trkpt lat="45.36857" lon="2.39498">
        <ele>610.4</ele>
        <time>2022-06-14T07:38:29.000Z</time>
      </trkpt>
      <trkpt lat="45.36858" lon="2.39498">
        <ele>610.5</ele>
        <time>2022-06-14T07:38:30.000Z</time>
      </trkpt>
      <trkpt lat="45.36859" lon="2.39497">
        <ele>610.5</ele>
        <time>2022-06-14T07:38:31.000Z</time>
      </trkpt>
      <trkpt lat="45.36861" lon="2.39496">
        <ele>610.6</ele>
        <time>2022-06-14T07:38:32.000Z</time>
      </trkpt>
      <trkpt lat="45.36862" lon="2.39495">
        <ele>610.6</ele>
        <time>2022-06-14T07:38:33.000Z</time>
      </trkpt>
      <trkpt lat="45.36863" lon="2.39494">
        <ele>610.7</ele>
        <time>2022-06-14T07:38:34.000Z</time>
      </trkpt>
      <trkpt lat="45.36864" lon="2.39492">
        <ele>610.7</ele>
        <time>2022-06-14T07:38:35.000Z</time>
      </trkpt>
      <trkpt lat="45.36864" lon="2.39491">
        <ele>610.8</ele>
        <time>2022-06-14T07:38:36.000Z</time>
      </trkpt>
      <trkpt lat="45.36865" lon="2.3949">
        <ele>610.8</ele>
        <time>2022-06-14T07:38:37.000Z</time>
      </trkpt>
      <trkpt lat="45.36866" lon="2.3949">
        <ele>610.8</ele>
        <time>2022-06-14T07:38:38.000Z</time>
      </trkpt>
      <trkpt lat="45.36866" lon="2.39489">
        <ele>610.8</ele>
        <time>2022-06-14T07:38:39.000Z</time>
      </trkpt>
      <trkpt lat="45.36867" lon="2.39489">
        <ele>610.9</ele>
        <time>2022-06-14T07:38:45.000Z</time>
      </trkpt>
      <trkpt lat="45.36867" lon="2.39488">
        <ele>610.9</ele>
        <time>2022-06-14T07:38:48.000Z</time>
      </trkpt>
      <trkpt lat="45.36869" lon="2.39487">
        <ele>611</ele>
        <time>2022-06-14T07:38:49.000Z</time>
      </trkpt>
      <trkpt lat="45.3687" lon="2.39486">
        <ele>611</ele>
        <time>2022-06-14T07:38:50.000Z</time>
      </trkpt>
      <trkpt lat="45.36871" lon="2.39485">
        <ele>611.1</ele>
        <time>2022-06-14T07:38:51.000Z</time>
      </trkpt>
      <trkpt lat="45.36873" lon="2.39484">
        <ele>611.2</ele>
        <time>2022-06-14T07:38:52.000Z</time>
      </trkpt>
      <trkpt lat="45.36874" lon="2.39483">
        <ele>611.2</ele>
        <time>2022-06-14T07:38:53.000Z</time>
      </trkpt>
      <trkpt lat="45.36875" lon="2.39482">
        <ele>611.3</ele>
        <time>2022-06-14T07:38:54.000Z</time>
      </trkpt>
      <trkpt lat="45.36876" lon="2.39481">
        <ele>611.3</ele>
        <time>2022-06-14T07:38:55.000Z</time>
      </trkpt>
      <trkpt lat="45.36877" lon="2.3948">
        <ele>611.4</ele>
        <time>2022-06-14T07:38:56.000Z</time>
      </trkpt>
      <trkpt lat="45.36878" lon="2.39479">
        <ele>611.4</ele>
        <time>2022-06-14T07:38:57.000Z</time>
      </trkpt>
      <trkpt lat="45.36879" lon="2.39478">
        <ele>611.5</ele>
        <time>2022-06-14T07:38:58.000Z</time>
      </trkpt>
      <trkpt lat="45.3688" lon="2.39477">
        <ele>611.5</ele>
        <time>2022-06-14T07:38:59.000Z</time>
      </trkpt>
      <trkpt lat="45.36881" lon="2.39476">
        <ele>611.6</ele>
        <time>2022-06-14T07:39:00.000Z</time>
      </trkpt>
      <trkpt lat="45.36883" lon="2.39475">
        <ele>611.6</ele>
        <time>2022-06-14T07:39:01.000Z</time>
      </trkpt>
      <trkpt lat="45.36884" lon="2.39474">
        <ele>611.7</ele>
        <time>2022-06-14T07:39:02.000Z</time>
      </trkpt>
      <trkpt lat="45.36885" lon="2.39473">
        <ele>611.7</ele>
        <time>2022-06-14T07:39:03.000Z</time>
      </trkpt>
      <trkpt lat="45.36886" lon="2.39472">
        <ele>611.8</ele>
        <time>2022-06-14T07:39:04.000Z</time>
      </trkpt>
      <trkpt lat="45.36887" lon="2.39471">
        <ele>611.9</ele>
        <time>2022-06-14T07:39:05.000Z</time>
      </trkpt>
      <trkpt lat="45.36888" lon="2.3947">
        <ele>611.9</ele>
        <time>2022-06-14T07:39:06.000Z</time>
      </trkpt>
      <trkpt lat="45.36889" lon="2.39469">
        <ele>612</ele>
        <time>2022-06-14T07:39:07.000Z</time>
      </trkpt>
      <trkpt lat="45.3689" lon="2.39468">
        <ele>612</ele>
        <time>2022-06-14T07:39:08.000Z</time>
      </trkpt>
      <trkpt lat="45.36891" lon="2.39467">
        <ele>612.1</ele>
        <time>2022-06-14T07:39:09.000Z</time>
      </trkpt>
      <trkpt lat="45.36892" lon="2.39466">
        <ele>612.1</ele>
        <time>2022-06-14T07:39:10.000Z</time>
      </trkpt>
      <trkpt lat="45.36893" lon="2.39465">
        <ele>612.2</ele>
        <time>2022-06-14T07:39:11.000Z</time>
      </trkpt>
      <trkpt lat="45.36894" lon="2.39464">
        <ele>612.2</ele>
        <time>2022-06-14T07:39:12.000Z</time>
      </trkpt>
      <trkpt lat="45.36895" lon="2.39463">
        <ele>612.3</ele>
        <time>2022-06-14T07:39:13.000Z</time>
      </trkpt>
      <trkpt lat="45.36896" lon="2.39462">
        <ele>612.3</ele>
        <time>2022-06-14T07:39:14.000Z</time>
      </trkpt>
      <trkpt lat="45.36897" lon="2.39461">
        <ele>612.4</ele>
        <time>2022-06-14T07:39:15.000Z</time>
      </trkpt>
      <trkpt lat="45.36898" lon="2.39461">
        <ele>612.4</ele>
        <time>2022-06-14T07:39:16.000Z</time>
      </trkpt>
      <trkpt lat="45.36899" lon="2.3946">
        <ele>612.5</ele>
        <time>2022-06-14T07:39:17.000Z</time>
      </trkpt>
      <trkpt lat="45.36901" lon="2.39459">
        <ele>612.5</ele>
        <time>2022-06-14T07:39:18.000Z</time>
      </trkpt>
      <trkpt lat="45.36902" lon="2.39458">
        <ele>612.6</ele>
        <time>2022-06-14T07:39:19.000Z</time>
      </trkpt>
      <trkpt lat="45.36903" lon="2.39458">
        <ele>612.7</ele>
        <time>2022-06-14T07:39:20.000Z</time>
      </trkpt>
      <trkpt lat="45.36904" lon="2.39457">
        <ele>612.7</ele>
        <time>2022-06-14T07:39:21.000Z</time>
      </trkpt>
      <trkpt lat="45.36905" lon="2.39456">
        <ele>612.8</ele>
        <time>2022-06-14T07:39:22.000Z</time>
      </trkpt>
      <trkpt lat="45.36906" lon="2.39456">
        <ele>612.8</ele>
        <time>2022-06-14T07:39:23.000Z</time>
      </trkpt>
      <trkpt lat="45.36907" lon="2.39455">
        <ele>612.9</ele>
        <time>2022-06-14T07:39:24.000Z</time>
      </trkpt>
      <trkpt lat="45.36909" lon="2.39454">
        <ele>613</ele>
        <time>2022-06-14T07:39:25.000Z</time>
      </trkpt>
      <trkpt lat="45.3691" lon="2.39454">
        <ele>613</ele>
        <time>2022-06-14T07:39:26.000Z</time>
      </trkpt>
      <trkpt lat="45.36911" lon="2.39453">
        <ele>613.1</ele>
        <time>2022-06-14T07:39:27.000Z</time>
      </trkpt>
      <trkpt lat="45.36912" lon="2.39453">
        <ele>613.2</ele>
        <time>2022-06-14T07:39:28.000Z</time>
      </trkpt>
      <trkpt lat="45.36913" lon="2.39452">
        <ele>613.2</ele>
        <time>2022-06-14T07:39:29.000Z</time>
      </trkpt>
      <trkpt lat="45.36914" lon="2.39451">
        <ele>613.3</ele>
        <time>2022-06-14T07:39:30.000Z</time>
      </trkpt>
      <trkpt lat="45.36916" lon="2.39451">
        <ele>613.3</ele>
        <time>2022-06-14T07:39:31.000Z</time>
      </trkpt>
      <trkpt lat="45.36917" lon="2.3945">
        <ele>613.4</ele>
        <time>2022-06-14T07:39:32.000Z</time>
      </trkpt>
      <trkpt lat="45.36918" lon="2.3945">
        <ele>613.5</ele>
        <time>2022-06-14T07:39:33.000Z</time>
      </trkpt>
      <trkpt lat="45.36919" lon="2.39449">
        <ele>613.6</ele>
        <time>2022-06-14T07:39:34.000Z</time>
      </trkpt>
      <trkpt lat="45.3692" lon="2.39449">
        <ele>613.6</ele>
        <time>2022-06-14T07:39:35.000Z</time>
      </trkpt>
      <trkpt lat="45.36921" lon="2.39448">
        <ele>613.7</ele>
        <time>2022-06-14T07:39:36.000Z</time>
      </trkpt>
      <trkpt lat="45.36922" lon="2.39447">
        <ele>613.8</ele>
        <time>2022-06-14T07:39:37.000Z</time>
      </trkpt>
      <trkpt lat="45.36923" lon="2.39447">
        <ele>613.8</ele>
        <time>2022-06-14T07:39:38.000Z</time>
      </trkpt>
      <trkpt lat="45.36925" lon="2.39446">
        <ele>613.9</ele>
        <time>2022-06-14T07:39:39.000Z</time>
      </trkpt>
      <trkpt lat="45.36926" lon="2.39445">
        <ele>614</ele>
        <time>2022-06-14T07:39:40.000Z</time>
      </trkpt>
      <trkpt lat="45.36927" lon="2.39444">
        <ele>614.1</ele>
        <time>2022-06-14T07:39:41.000Z</time>
      </trkpt>
      <trkpt lat="45.36928" lon="2.39443">
        <ele>614.1</ele>
        <time>2022-06-14T07:39:42.000Z</time>
      </trkpt>
      <trkpt lat="45.36929" lon="2.39442">
        <ele>614.2</ele>
        <time>2022-06-14T07:39:43.000Z</time>
      </trkpt>
      <trkpt lat="45.3693" lon="2.39441">
        <ele>614.3</ele>
        <time>2022-06-14T07:39:44.000Z</time>
      </trkpt>
      <trkpt lat="45.36931" lon="2.3944">
        <ele>614.3</ele>
        <time>2022-06-14T07:39:45.000Z</time>
      </trkpt>
      <trkpt lat="45.36932" lon="2.39439">
        <ele>614.4</ele>
        <time>2022-06-14T07:39:46.000Z</time>
      </trkpt>
      <trkpt lat="45.36933" lon="2.39438">
        <ele>614.4</ele>
        <time>2022-06-14T07:39:47.000Z</time>
      </trkpt>
      <trkpt lat="45.36934" lon="2.39437">
        <ele>614.5</ele>
        <time>2022-06-14T07:39:48.000Z</time>
      </trkpt>
      <trkpt lat="45.36935" lon="2.39436">
        <ele>614.5</ele>
        <time>2022-06-14T07:39:49.000Z</time>
      </trkpt>
      <trkpt lat="45.36936" lon="2.39435">
        <ele>614.6</ele>
        <time>2022-06-14T07:39:50.000Z</time>
      </trkpt>
      <trkpt lat="45.36936" lon="2.39434">
        <ele>614.6</ele>
        <time>2022-06-14T07:39:51.000Z</time>
      </trkpt>
      <trkpt lat="45.36937" lon="2.39434">
        <ele>614.7</ele>
        <time>2022-06-14T07:39:52.000Z</time>
      </trkpt>
      <trkpt lat="45.36937" lon="2.39433">
        <ele>614.7</ele>
        <time>2022-06-14T07:39:53.000Z</time>
      </trkpt>
      <trkpt lat="45.36938" lon="2.39433">
        <ele>614.7</ele>
        <time>2022-06-14T07:39:54.000Z</time>
      </trkpt>
      <trkpt lat="45.36939" lon="2.39433">
        <ele>614.8</ele>
        <time>2022-06-14T07:39:55.000Z</time>
      </trkpt>
      <trkpt lat="45.36939" lon="2.39432">
        <ele>614.8</ele>
        <time>2022-06-14T07:39:56.000Z</time>
      </trkpt>
      <trkpt lat="45.3694" lon="2.39432">
        <ele>614.8</ele>
        <time>2022-06-14T07:39:57.000Z</time>
      </trkpt>
      <trkpt lat="45.3694" lon="2.39431">
        <ele>614.9</ele>
        <time>2022-06-14T07:39:58.000Z</time>
      </trkpt>
      <trkpt lat="45.36941" lon="2.3943">
        <ele>614.9</ele>
        <time>2022-06-14T07:39:59.000Z</time>
      </trkpt>
      <trkpt lat="45.36942" lon="2.3943">
        <ele>615</ele>
        <time>2022-06-14T07:40:00.000Z</time>
      </trkpt>
      <trkpt lat="45.36943" lon="2.39429">
        <ele>615</ele>
        <time>2022-06-14T07:40:01.000Z</time>
      </trkpt>
      <trkpt lat="45.36944" lon="2.39428">
        <ele>615.1</ele>
        <time>2022-06-14T07:40:02.000Z</time>
      </trkpt>
      <trkpt lat="45.36945" lon="2.39427">
        <ele>615.2</ele>
        <time>2022-06-14T07:40:03.000Z</time>
      </trkpt>
      <trkpt lat="45.36946" lon="2.39426">
        <ele>615.2</ele>
        <time>2022-06-14T07:40:04.000Z</time>
      </trkpt>
      <trkpt lat="45.36947" lon="2.39425">
        <ele>615.3</ele>
        <time>2022-06-14T07:40:05.000Z</time>
      </trkpt>
      <trkpt lat="45.36948" lon="2.39425">
        <ele>615.3</ele>
        <time>2022-06-14T07:40:06.000Z</time>
      </trkpt>
      <trkpt lat="45.36949" lon="2.39424">
        <ele>615.4</ele>
        <time>2022-06-14T07:40:07.000Z</time>
      </trkpt>
      <trkpt lat="45.3695" lon="2.39423">
        <ele>615.5</ele>
        <time>2022-06-14T07:40:08.000Z</time>
      </trkpt>
      <trkpt lat="45.36951" lon="2.39422">
        <ele>615.5</ele>
        <time>2022-06-14T07:40:09.000Z</time>
      </trkpt>
      <trkpt lat="45.36952" lon="2.39421">
        <ele>615.6</ele>
        <time>2022-06-14T07:40:10.000Z</time>
      </trkpt>
      <trkpt lat="45.36953" lon="2.39421">
        <ele>615.7</ele>
        <time>2022-06-14T07:40:11.000Z</time>
      </trkpt>
      <trkpt lat="45.36954" lon="2.3942">
        <ele>615.7</ele>
        <time>2022-06-14T07:40:12.000Z</time>
      </trkpt>
      <trkpt lat="45.36955" lon="2.39419">
        <ele>615.8</ele>
        <time>2022-06-14T07:40:13.000Z</time>
      </trkpt>
      <trkpt lat="45.36956" lon="2.39419">
        <ele>615.9</ele>
        <time>2022-06-14T07:40:14.000Z</time>
      </trkpt>
      <trkpt lat="45.36957" lon="2.39418">
        <ele>615.9</ele>
        <time>2022-06-14T07:40:15.000Z</time>
      </trkpt>
      <trkpt lat="45.36958" lon="2.39417">
        <ele>616</ele>
        <time>2022-06-14T07:40:16.000Z</time>
      </trkpt>
      <trkpt lat="45.36959" lon="2.39416">
        <ele>616.1</ele>
        <time>2022-06-14T07:40:17.000Z</time>
      </trkpt>
      <trkpt lat="45.3696" lon="2.39415">
        <ele>616.1</ele>
        <time>2022-06-14T07:40:18.000Z</time>
      </trkpt>
      <trkpt lat="45.36961" lon="2.39414">
        <ele>616.2</ele>
        <time>2022-06-14T07:40:19.000Z</time>
      </trkpt>
      <trkpt lat="45.36962" lon="2.39413">
        <ele>616.3</ele>
        <time>2022-06-14T07:40:20.000Z</time>
      </trkpt>
      <trkpt lat="45.36963" lon="2.39412">
        <ele>616.3</ele>
        <time>2022-06-14T07:40:21.000Z</time>
      </trkpt>
      <trkpt lat="45.36964" lon="2.3941">
        <ele>616.4</ele>
        <time>2022-06-14T07:40:22.000Z</time>
      </trkpt>
      <trkpt lat="45.36964" lon="2.39409">
        <ele>616.4</ele>
        <time>2022-06-14T07:40:23.000Z</time>
      </trkpt>
      <trkpt lat="45.36965" lon="2.39407">
        <ele>616.5</ele>
        <time>2022-06-14T07:40:24.000Z</time>
      </trkpt>
      <trkpt lat="45.36966" lon="2.39405">
        <ele>616.5</ele>
        <time>2022-06-14T07:40:25.000Z</time>
      </trkpt>
      <trkpt lat="45.36967" lon="2.39404">
        <ele>616.6</ele>
        <time>2022-06-14T07:40:26.000Z</time>
      </trkpt>
      <trkpt lat="45.36968" lon="2.39402">
        <ele>616.6</ele>
        <time>2022-06-14T07:40:27.000Z</time>
      </trkpt>
      <trkpt lat="45.36969" lon="2.39401">
        <ele>616.7</ele>
        <time>2022-06-14T07:40:28.000Z</time>
      </trkpt>
      <trkpt lat="45.3697" lon="2.394">
        <ele>616.8</ele>
        <time>2022-06-14T07:40:29.000Z</time>
      </trkpt>
      <trkpt lat="45.36971" lon="2.39399">
        <ele>616.8</ele>
        <time>2022-06-14T07:40:30.000Z</time>
      </trkpt>
      <trkpt lat="45.36972" lon="2.39398">
        <ele>616.9</ele>
        <time>2022-06-14T07:40:31.000Z</time>
      </trkpt>
      <trkpt lat="45.36973" lon="2.39397">
        <ele>617</ele>
        <time>2022-06-14T07:40:32.000Z</time>
      </trkpt>
      <trkpt lat="45.36974" lon="2.39396">
        <ele>617.1</ele>
        <time>2022-06-14T07:40:33.000Z</time>
      </trkpt>
      <trkpt lat="45.36976" lon="2.39396">
        <ele>617.1</ele>
        <time>2022-06-14T07:40:34.000Z</time>
      </trkpt>
      <trkpt lat="45.36977" lon="2.39396">
        <ele>617.2</ele>
        <time>2022-06-14T07:40:35.000Z</time>
      </trkpt>
      <trkpt lat="45.36978" lon="2.39395">
        <ele>617.3</ele>
        <time>2022-06-14T07:40:36.000Z</time>
      </trkpt>
      <trkpt lat="45.36979" lon="2.39395">
        <ele>617.4</ele>
        <time>2022-06-14T07:40:37.000Z</time>
      </trkpt>
      <trkpt lat="45.3698" lon="2.39394">
        <ele>617.4</ele>
        <time>2022-06-14T07:40:38.000Z</time>
      </trkpt>
      <trkpt lat="45.36981" lon="2.39394">
        <ele>617.5</ele>
        <time>2022-06-14T07:40:39.000Z</time>
      </trkpt>
      <trkpt lat="45.36983" lon="2.39394">
        <ele>617.6</ele>
        <time>2022-06-14T07:40:40.000Z</time>
      </trkpt>
      <trkpt lat="45.36984" lon="2.39393">
        <ele>617.6</ele>
        <time>2022-06-14T07:40:41.000Z</time>
      </trkpt>
      <trkpt lat="45.36985" lon="2.39392">
        <ele>617.7</ele>
        <time>2022-06-14T07:40:42.000Z</time>
      </trkpt>
      <trkpt lat="45.36986" lon="2.39392">
        <ele>617.8</ele>
        <time>2022-06-14T07:40:43.000Z</time>
      </trkpt>
      <trkpt lat="45.36987" lon="2.39391">
        <ele>617.8</ele>
        <time>2022-06-14T07:40:44.000Z</time>
      </trkpt>
      <trkpt lat="45.36988" lon="2.39391">
        <ele>617.9</ele>
        <time>2022-06-14T07:40:45.000Z</time>
      </trkpt>
      <trkpt lat="45.36989" lon="2.3939">
        <ele>617.9</ele>
        <time>2022-06-14T07:40:46.000Z</time>
      </trkpt>
      <trkpt lat="45.3699" lon="2.3939">
        <ele>618</ele>
        <time>2022-06-14T07:40:47.000Z</time>
      </trkpt>
      <trkpt lat="45.36991" lon="2.3939">
        <ele>618.1</ele>
        <time>2022-06-14T07:40:48.000Z</time>
      </trkpt>
      <trkpt lat="45.36992" lon="2.39391">
        <ele>618.2</ele>
        <time>2022-06-14T07:40:49.000Z</time>
      </trkpt>
      <trkpt lat="45.36993" lon="2.39391">
        <ele>618.3</ele>
        <time>2022-06-14T07:40:50.000Z</time>
      </trkpt>
      <trkpt lat="45.36994" lon="2.39391">
        <ele>618.3</ele>
        <time>2022-06-14T07:40:51.000Z</time>
      </trkpt>
      <trkpt lat="45.36996" lon="2.39392">
        <ele>618.4</ele>
        <time>2022-06-14T07:40:52.000Z</time>
      </trkpt>
      <trkpt lat="45.36997" lon="2.39392">
        <ele>618.5</ele>
        <time>2022-06-14T07:40:53.000Z</time>
      </trkpt>
      <trkpt lat="45.36998" lon="2.39393">
        <ele>618.6</ele>
        <time>2022-06-14T07:40:54.000Z</time>
      </trkpt>
      <trkpt lat="45.36999" lon="2.39393">
        <ele>618.7</ele>
        <time>2022-06-14T07:40:55.000Z</time>
      </trkpt>
      <trkpt lat="45.37001" lon="2.39393">
        <ele>618.7</ele>
        <time>2022-06-14T07:40:56.000Z</time>
      </trkpt>
      <trkpt lat="45.37002" lon="2.39393">
        <ele>618.7</ele>
        <time>2022-06-14T07:40:57.000Z</time>
      </trkpt>
      <trkpt lat="45.37003" lon="2.39393">
        <ele>618.6</ele>
        <time>2022-06-14T07:40:58.000Z</time>
      </trkpt>
      <trkpt lat="45.37004" lon="2.39393">
        <ele>618.6</ele>
        <time>2022-06-14T07:40:59.000Z</time>
      </trkpt>
      <trkpt lat="45.37005" lon="2.39392">
        <ele>618.6</ele>
        <time>2022-06-14T07:41:01.000Z</time>
      </trkpt>
      <trkpt lat="45.37005" lon="2.39391">
        <ele>618.5</ele>
        <time>2022-06-14T07:41:03.000Z</time>
      </trkpt>
      <trkpt lat="45.37006" lon="2.39391">
        <ele>618.5</ele>
        <time>2022-06-14T07:41:04.000Z</time>
      </trkpt>
      <trkpt lat="45.37006" lon="2.3939">
        <ele>618.5</ele>
        <time>2022-06-14T07:41:05.000Z</time>
      </trkpt>
      <trkpt lat="45.37006" lon="2.39389">
        <ele>618.5</ele>
        <time>2022-06-14T07:41:08.000Z</time>
      </trkpt>
      <trkpt lat="45.37007" lon="2.39389">
        <ele>618.5</ele>
        <time>2022-06-14T07:41:10.000Z</time>
      </trkpt>
      <trkpt lat="45.37007" lon="2.39388">
        <ele>618.4</ele>
        <time>2022-06-14T07:41:14.000Z</time>
      </trkpt>
      <trkpt lat="45.37007" lon="2.39388">
        <ele>618.4</ele>
        <time>2022-06-14T07:41:19.000Z</time>
      </trkpt>
      <trkpt lat="45.37008" lon="2.39387">
        <ele>618.4</ele>
        <time>2022-06-14T07:41:20.000Z</time>
      </trkpt>
      <trkpt lat="45.37008" lon="2.39386">
        <ele>618.4</ele>
        <time>2022-06-14T07:41:25.000Z</time>
      </trkpt>
      <trkpt lat="45.37008" lon="2.39386">
        <ele>618.4</ele>
        <time>2022-06-14T07:41:30.000Z</time>
      </trkpt>
      <trkpt lat="45.37009" lon="2.39386">
        <ele>618.4</ele>
        <time>2022-06-14T07:42:37.000Z</time>
      </trkpt>
      <trkpt lat="45.3701" lon="2.39385">
        <ele>618.3</ele>
        <time>2022-06-14T07:42:39.000Z</time>
      </trkpt>
      <trkpt lat="45.37011" lon="2.39385">
        <ele>618.3</ele>
        <time>2022-06-14T07:42:40.000Z</time>
      </trkpt>
      <trkpt lat="45.37012" lon="2.39385">
        <ele>618.2</ele>
        <time>2022-06-14T07:42:41.000Z</time>
      </trkpt>
      <trkpt lat="45.37013" lon="2.39384">
        <ele>618.2</ele>
        <time>2022-06-14T07:42:42.000Z</time>
      </trkpt>
      <trkpt lat="45.37015" lon="2.39384">
        <ele>618.1</ele>
        <time>2022-06-14T07:42:43.000Z</time>
      </trkpt>
      <trkpt lat="45.37016" lon="2.39383">
        <ele>618.1</ele>
        <time>2022-06-14T07:42:44.000Z</time>
      </trkpt>
      <trkpt lat="45.37017" lon="2.39383">
        <ele>618.1</ele>
        <time>2022-06-14T07:42:45.000Z</time>
      </trkpt>
      <trkpt lat="45.37018" lon="2.39382">
        <ele>618</ele>
        <time>2022-06-14T07:42:46.000Z</time>
      </trkpt>
      <trkpt lat="45.37019" lon="2.39381">
        <ele>618</ele>
        <time>2022-06-14T07:42:47.000Z</time>
      </trkpt>
      <trkpt lat="45.3702" lon="2.3938">
        <ele>617.9</ele>
        <time>2022-06-14T07:42:48.000Z</time>
      </trkpt>
      <trkpt lat="45.37021" lon="2.39379">
        <ele>617.9</ele>
        <time>2022-06-14T07:42:49.000Z</time>
      </trkpt>
      <trkpt lat="45.37021" lon="2.39378">
        <ele>617.9</ele>
        <time>2022-06-14T07:42:50.000Z</time>
      </trkpt>
      <trkpt lat="45.37022" lon="2.39377">
        <ele>617.9</ele>
        <time>2022-06-14T07:42:51.000Z</time>
      </trkpt>
      <trkpt lat="45.37023" lon="2.39376">
        <ele>617.8</ele>
        <time>2022-06-14T07:42:52.000Z</time>
      </trkpt>
      <trkpt lat="45.37024" lon="2.39375">
        <ele>617.8</ele>
        <time>2022-06-14T07:42:53.000Z</time>
      </trkpt>
      <trkpt lat="45.37024" lon="2.39374">
        <ele>617.8</ele>
        <time>2022-06-14T07:42:54.000Z</time>
      </trkpt>
      <trkpt lat="45.37025" lon="2.39372">
        <ele>617.7</ele>
        <time>2022-06-14T07:42:55.000Z</time>
      </trkpt>
      <trkpt lat="45.37026" lon="2.39371">
        <ele>617.7</ele>
        <time>2022-06-14T07:42:56.000Z</time>
      </trkpt>
      <trkpt lat="45.37026" lon="2.3937">
        <ele>617.7</ele>
        <time>2022-06-14T07:42:57.000Z</time>
      </trkpt>
      <trkpt lat="45.37027" lon="2.39369">
        <ele>617.6</ele>
        <time>2022-06-14T07:42:58.000Z</time>
      </trkpt>
      <trkpt lat="45.37028" lon="2.39367">
        <ele>617.6</ele>
        <time>2022-06-14T07:42:59.000Z</time>
      </trkpt>
      <trkpt lat="45.37029" lon="2.39366">
        <ele>617.6</ele>
        <time>2022-06-14T07:43:00.000Z</time>
      </trkpt>
      <trkpt lat="45.37029" lon="2.39364">
        <ele>617.5</ele>
        <time>2022-06-14T07:43:01.000Z</time>
      </trkpt>
      <trkpt lat="45.3703" lon="2.39363">
        <ele>617.5</ele>
        <time>2022-06-14T07:43:02.000Z</time>
      </trkpt>
      <trkpt lat="45.3703" lon="2.39362">
        <ele>617.5</ele>
        <time>2022-06-14T07:43:03.000Z</time>
      </trkpt>
      <trkpt lat="45.37031" lon="2.39361">
        <ele>617.5</ele>
        <time>2022-06-14T07:43:04.000Z</time>
      </trkpt>
      <trkpt lat="45.37032" lon="2.3936">
        <ele>617.4</ele>
        <time>2022-06-14T07:43:05.000Z</time>
      </trkpt>
      <trkpt lat="45.37032" lon="2.39359">
        <ele>617.4</ele>
        <time>2022-06-14T07:43:06.000Z</time>
      </trkpt>
      <trkpt lat="45.37033" lon="2.39358">
        <ele>617.4</ele>
        <time>2022-06-14T07:43:07.000Z</time>
      </trkpt>
      <trkpt lat="45.37033" lon="2.39357">
        <ele>617.4</ele>
        <time>2022-06-14T07:43:08.000Z</time>
      </trkpt>
      <trkpt lat="45.37034" lon="2.39357">
        <ele>617.4</ele>
        <time>2022-06-14T07:43:10.000Z</time>
      </trkpt>
      <trkpt lat="45.37034" lon="2.39356">
        <ele>617.3</ele>
        <time>2022-06-14T07:43:11.000Z</time>
      </trkpt>
      <trkpt lat="45.37034" lon="2.39356">
        <ele>617.3</ele>
        <time>2022-06-14T07:45:14.000Z</time>
      </trkpt>
      <trkpt lat="45.37035" lon="2.39355">
        <ele>617.3</ele>
        <time>2022-06-14T07:45:16.000Z</time>
      </trkpt>
      <trkpt lat="45.37036" lon="2.39352">
        <ele>617.3</ele>
        <time>2022-06-14T07:45:17.000Z</time>
      </trkpt>
      <trkpt lat="45.37037" lon="2.39351">
        <ele>617.2</ele>
        <time>2022-06-14T07:45:18.000Z</time>
      </trkpt>
      <trkpt lat="45.37037" lon="2.3935">
        <ele>617.2</ele>
        <time>2022-06-14T07:45:19.000Z</time>
      </trkpt>
      <trkpt lat="45.37038" lon="2.39349">
        <ele>617.2</ele>
        <time>2022-06-14T07:45:20.000Z</time>
      </trkpt>
      <trkpt lat="45.37038" lon="2.39348">
        <ele>617.2</ele>
        <time>2022-06-14T07:45:21.000Z</time>
      </trkpt>
      <trkpt lat="45.37038" lon="2.39346">
        <ele>617.2</ele>
        <time>2022-06-14T07:45:22.000Z</time>
      </trkpt>
      <trkpt lat="45.37039" lon="2.39345">
        <ele>617.1</ele>
        <time>2022-06-14T07:45:23.000Z</time>
      </trkpt>
      <trkpt lat="45.37039" lon="2.39343">
        <ele>617.1</ele>
        <time>2022-06-14T07:45:24.000Z</time>
      </trkpt>
      <trkpt lat="45.37039" lon="2.39341">
        <ele>617.1</ele>
        <time>2022-06-14T07:45:25.000Z</time>
      </trkpt>
      <trkpt lat="45.3704" lon="2.3934">
        <ele>617.1</ele>
        <time>2022-06-14T07:45:26.000Z</time>
      </trkpt>
      <trkpt lat="45.3704" lon="2.39338">
        <ele>617.1</ele>
        <time>2022-06-14T07:45:27.000Z</time>
      </trkpt>
      <trkpt lat="45.3704" lon="2.39336">
        <ele>617.1</ele>
        <time>2022-06-14T07:45:28.000Z</time>
      </trkpt>
      <trkpt lat="45.37041" lon="2.39335">
        <ele>617</ele>
        <time>2022-06-14T07:45:29.000Z</time>
      </trkpt>
      <trkpt lat="45.37041" lon="2.39333">
        <ele>617</ele>
        <time>2022-06-14T07:45:30.000Z</time>
      </trkpt>
      <trkpt lat="45.37041" lon="2.39331">
        <ele>616.9</ele>
        <time>2022-06-14T07:45:31.000Z</time>
      </trkpt>
      <trkpt lat="45.37042" lon="2.39329">
        <ele>616.9</ele>
        <time>2022-06-14T07:45:32.000Z</time>
      </trkpt>
      <trkpt lat="45.37042" lon="2.39328">
        <ele>616.8</ele>
        <time>2022-06-14T07:45:33.000Z</time>
      </trkpt>
      <trkpt lat="45.37042" lon="2.39326">
        <ele>616.7</ele>
        <time>2022-06-14T07:45:34.000Z</time>
      </trkpt>
      <trkpt lat="45.37043" lon="2.39324">
        <ele>616.7</ele>
        <time>2022-06-14T07:45:35.000Z</time>
      </trkpt>
      <trkpt lat="45.37043" lon="2.39322">
        <ele>616.6</ele>
        <time>2022-06-14T07:45:36.000Z</time>
      </trkpt>
      <trkpt lat="45.37043" lon="2.39321">
        <ele>616.5</ele>
        <time>2022-06-14T07:45:37.000Z</time>
      </trkpt>
      <trkpt lat="45.37044" lon="2.39319">
        <ele>616.5</ele>
        <time>2022-06-14T07:45:38.000Z</time>
      </trkpt>
      <trkpt lat="45.37044" lon="2.39318">
        <ele>616.4</ele>
        <time>2022-06-14T07:45:39.000Z</time>
      </trkpt>
      <trkpt lat="45.37045" lon="2.39316">
        <ele>616.3</ele>
        <time>2022-06-14T07:45:40.000Z</time>
      </trkpt>
      <trkpt lat="45.37045" lon="2.39314">
        <ele>616.3</ele>
        <time>2022-06-14T07:45:41.000Z</time>
      </trkpt>
      <trkpt lat="45.37045" lon="2.39313">
        <ele>616.2</ele>
        <time>2022-06-14T07:45:42.000Z</time>
      </trkpt>
      <trkpt lat="45.37046" lon="2.39311">
        <ele>616.2</ele>
        <time>2022-06-14T07:45:43.000Z</time>
      </trkpt>
      <trkpt lat="45.37046" lon="2.39309">
        <ele>616.1</ele>
        <time>2022-06-14T07:45:44.000Z</time>
      </trkpt>
      <trkpt lat="45.37047" lon="2.39308">
        <ele>616.1</ele>
        <time>2022-06-14T07:45:45.000Z</time>
      </trkpt>
      <trkpt lat="45.37047" lon="2.39306">
        <ele>616</ele>
        <time>2022-06-14T07:45:46.000Z</time>
      </trkpt>
      <trkpt lat="45.37047" lon="2.39304">
        <ele>616</ele>
        <time>2022-06-14T07:45:47.000Z</time>
      </trkpt>
      <trkpt lat="45.37048" lon="2.39302">
        <ele>615.9</ele>
        <time>2022-06-14T07:45:48.000Z</time>
      </trkpt>
      <trkpt lat="45.37048" lon="2.39301">
        <ele>615.8</ele>
        <time>2022-06-14T07:45:49.000Z</time>
      </trkpt>
      <trkpt lat="45.37048" lon="2.39299">
        <ele>615.8</ele>
        <time>2022-06-14T07:45:50.000Z</time>
      </trkpt>
      <trkpt lat="45.37048" lon="2.39297">
        <ele>615.7</ele>
        <time>2022-06-14T07:45:51.000Z</time>
      </trkpt>
      <trkpt lat="45.37049" lon="2.39295">
        <ele>615.7</ele>
        <time>2022-06-14T07:45:52.000Z</time>
      </trkpt>
      <trkpt lat="45.37049" lon="2.39293">
        <ele>615.6</ele>
        <time>2022-06-14T07:45:53.000Z</time>
      </trkpt>
      <trkpt lat="45.37049" lon="2.39291">
        <ele>615.6</ele>
        <time>2022-06-14T07:45:54.000Z</time>
      </trkpt>
      <trkpt lat="45.37049" lon="2.3929">
        <ele>615.5</ele>
        <time>2022-06-14T07:45:55.000Z</time>
      </trkpt>
      <trkpt lat="45.3705" lon="2.39288">
        <ele>615.5</ele>
        <time>2022-06-14T07:45:56.000Z</time>
      </trkpt>
      <trkpt lat="45.3705" lon="2.39286">
        <ele>615.4</ele>
        <time>2022-06-14T07:45:57.000Z</time>
      </trkpt>
      <trkpt lat="45.3705" lon="2.39284">
        <ele>615.4</ele>
        <time>2022-06-14T07:45:58.000Z</time>
      </trkpt>
      <trkpt lat="45.3705" lon="2.39282">
        <ele>615.3</ele>
        <time>2022-06-14T07:45:59.000Z</time>
      </trkpt>
      <trkpt lat="45.3705" lon="2.3928">
        <ele>615.3</ele>
        <time>2022-06-14T07:46:00.000Z</time>
      </trkpt>
      <trkpt lat="45.37051" lon="2.39278">
        <ele>615.2</ele>
        <time>2022-06-14T07:46:01.000Z</time>
      </trkpt>
      <trkpt lat="45.37051" lon="2.39276">
        <ele>615.2</ele>
        <time>2022-06-14T07:46:02.000Z</time>
      </trkpt>
      <trkpt lat="45.37051" lon="2.39274">
        <ele>615.1</ele>
        <time>2022-06-14T07:46:03.000Z</time>
      </trkpt>
      <trkpt lat="45.37051" lon="2.39273">
        <ele>615.1</ele>
        <time>2022-06-14T07:46:04.000Z</time>
      </trkpt>
      <trkpt lat="45.37052" lon="2.39271">
        <ele>615</ele>
        <time>2022-06-14T07:46:05.000Z</time>
      </trkpt>
      <trkpt lat="45.37052" lon="2.39269">
        <ele>615</ele>
        <time>2022-06-14T07:46:06.000Z</time>
      </trkpt>
      <trkpt lat="45.37052" lon="2.39267">
        <ele>615</ele>
        <time>2022-06-14T07:46:07.000Z</time>
      </trkpt>
      <trkpt lat="45.37052" lon="2.39265">
        <ele>614.9</ele>
        <time>2022-06-14T07:46:08.000Z</time>
      </trkpt>
      <trkpt lat="45.37053" lon="2.39263">
        <ele>614.9</ele>
        <time>2022-06-14T07:46:09.000Z</time>
      </trkpt>
      <trkpt lat="45.37053" lon="2.39261">
        <ele>614.8</ele>
        <time>2022-06-14T07:46:10.000Z</time>
      </trkpt>
      <trkpt lat="45.37053" lon="2.39259">
        <ele>614.8</ele>
        <time>2022-06-14T07:46:11.000Z</time>
      </trkpt>
      <trkpt lat="45.37054" lon="2.39258">
        <ele>614.8</ele>
        <time>2022-06-14T07:46:12.000Z</time>
      </trkpt>
      <trkpt lat="45.37054" lon="2.39256">
        <ele>614.7</ele>
        <time>2022-06-14T07:46:13.000Z</time>
      </trkpt>
      <trkpt lat="45.37054" lon="2.39254">
        <ele>614.7</ele>
        <time>2022-06-14T07:46:14.000Z</time>
      </trkpt>
      <trkpt lat="45.37055" lon="2.39252">
        <ele>614.7</ele>
        <time>2022-06-14T07:46:15.000Z</time>
      </trkpt>
      <trkpt lat="45.37055" lon="2.3925">
        <ele>614.7</ele>
        <time>2022-06-14T07:46:16.000Z</time>
      </trkpt>
      <trkpt lat="45.37056" lon="2.39248">
        <ele>614.7</ele>
        <time>2022-06-14T07:46:17.000Z</time>
      </trkpt>
      <trkpt lat="45.37056" lon="2.39247">
        <ele>614.8</ele>
        <time>2022-06-14T07:46:18.000Z</time>
      </trkpt>
      <trkpt lat="45.37057" lon="2.39245">
        <ele>614.8</ele>
        <time>2022-06-14T07:46:19.000Z</time>
      </trkpt>
      <trkpt lat="45.37057" lon="2.39243">
        <ele>614.9</ele>
        <time>2022-06-14T07:46:20.000Z</time>
      </trkpt>
      <trkpt lat="45.37058" lon="2.39241">
        <ele>614.9</ele>
        <time>2022-06-14T07:46:21.000Z</time>
      </trkpt>
      <trkpt lat="45.37058" lon="2.3924">
        <ele>615</ele>
        <time>2022-06-14T07:46:22.000Z</time>
      </trkpt>
      <trkpt lat="45.37059" lon="2.39238">
        <ele>615.1</ele>
        <time>2022-06-14T07:46:23.000Z</time>
      </trkpt>
      <trkpt lat="45.37059" lon="2.39236">
        <ele>615.1</ele>
        <time>2022-06-14T07:46:24.000Z</time>
      </trkpt>
      <trkpt lat="45.3706" lon="2.39234">
        <ele>615.2</ele>
        <time>2022-06-14T07:46:25.000Z</time>
      </trkpt>
      <trkpt lat="45.3706" lon="2.39233">
        <ele>615.3</ele>
        <time>2022-06-14T07:46:26.000Z</time>
      </trkpt>
      <trkpt lat="45.37061" lon="2.39231">
        <ele>615.3</ele>
        <time>2022-06-14T07:46:27.000Z</time>
      </trkpt>
      <trkpt lat="45.37061" lon="2.39229">
        <ele>615.4</ele>
        <time>2022-06-14T07:46:28.000Z</time>
      </trkpt>
      <trkpt lat="45.37062" lon="2.39228">
        <ele>615.5</ele>
        <time>2022-06-14T07:46:29.000Z</time>
      </trkpt>
      <trkpt lat="45.37062" lon="2.39226">
        <ele>615.6</ele>
        <time>2022-06-14T07:46:30.000Z</time>
      </trkpt>
      <trkpt lat="45.37063" lon="2.39224">
        <ele>615.7</ele>
        <time>2022-06-14T07:46:31.000Z</time>
      </trkpt>
      <trkpt lat="45.37064" lon="2.39223">
        <ele>615.7</ele>
        <time>2022-06-14T07:46:32.000Z</time>
      </trkpt>
      <trkpt lat="45.37064" lon="2.39221">
        <ele>615.8</ele>
        <time>2022-06-14T07:46:33.000Z</time>
      </trkpt>
      <trkpt lat="45.37065" lon="2.39219">
        <ele>615.9</ele>
        <time>2022-06-14T07:46:34.000Z</time>
      </trkpt>
      <trkpt lat="45.37065" lon="2.39217">
        <ele>616</ele>
        <time>2022-06-14T07:46:35.000Z</time>
      </trkpt>
      <trkpt lat="45.37066" lon="2.39216">
        <ele>616.1</ele>
        <time>2022-06-14T07:46:36.000Z</time>
      </trkpt>
      <trkpt lat="45.37067" lon="2.39214">
        <ele>616.2</ele>
        <time>2022-06-14T07:46:37.000Z</time>
      </trkpt>
      <trkpt lat="45.37067" lon="2.39212">
        <ele>616.2</ele>
        <time>2022-06-14T07:46:38.000Z</time>
      </trkpt>
      <trkpt lat="45.37068" lon="2.39211">
        <ele>616.3</ele>
        <time>2022-06-14T07:46:39.000Z</time>
      </trkpt>
      <trkpt lat="45.37069" lon="2.39209">
        <ele>616.4</ele>
        <time>2022-06-14T07:46:40.000Z</time>
      </trkpt>
      <trkpt lat="45.37069" lon="2.39207">
        <ele>616.5</ele>
        <time>2022-06-14T07:46:41.000Z</time>
      </trkpt>
      <trkpt lat="45.3707" lon="2.39206">
        <ele>616.6</ele>
        <time>2022-06-14T07:46:42.000Z</time>
      </trkpt>
      <trkpt lat="45.3707" lon="2.39204">
        <ele>616.7</ele>
        <time>2022-06-14T07:46:43.000Z</time>
      </trkpt>
      <trkpt lat="45.37071" lon="2.39202">
        <ele>616.7</ele>
        <time>2022-06-14T07:46:44.000Z</time>
      </trkpt>
      <trkpt lat="45.37071" lon="2.39201">
        <ele>616.8</ele>
        <time>2022-06-14T07:46:45.000Z</time>
      </trkpt>
      <trkpt lat="45.37071" lon="2.39199">
        <ele>616.9</ele>
        <time>2022-06-14T07:46:46.000Z</time>
      </trkpt>
      <trkpt lat="45.37072" lon="2.39197">
        <ele>617</ele>
        <time>2022-06-14T07:46:47.000Z</time>
      </trkpt>
      <trkpt lat="45.37072" lon="2.39196">
        <ele>617.1</ele>
        <time>2022-06-14T07:46:48.000Z</time>
      </trkpt>
      <trkpt lat="45.37073" lon="2.39194">
        <ele>617.2</ele>
        <time>2022-06-14T07:46:49.000Z</time>
      </trkpt>
      <trkpt lat="45.37074" lon="2.39193">
        <ele>617.3</ele>
        <time>2022-06-14T07:46:50.000Z</time>
      </trkpt>
      <trkpt lat="45.37074" lon="2.39191">
        <ele>617.4</ele>
        <time>2022-06-14T07:46:51.000Z</time>
      </trkpt>
      <trkpt lat="45.37075" lon="2.3919">
        <ele>617.5</ele>
        <time>2022-06-14T07:46:52.000Z</time>
      </trkpt>
      <trkpt lat="45.37076" lon="2.39188">
        <ele>617.6</ele>
        <time>2022-06-14T07:46:53.000Z</time>
      </trkpt>
      <trkpt lat="45.37076" lon="2.39186">
        <ele>617.7</ele>
        <time>2022-06-14T07:46:54.000Z</time>
      </trkpt>
      <trkpt lat="45.37077" lon="2.39185">
        <ele>617.8</ele>
        <time>2022-06-14T07:46:55.000Z</time>
      </trkpt>
      <trkpt lat="45.37078" lon="2.39183">
        <ele>617.9</ele>
        <time>2022-06-14T07:46:56.000Z</time>
      </trkpt>
      <trkpt lat="45.37078" lon="2.39182">
        <ele>618</ele>
        <time>2022-06-14T07:46:57.000Z</time>
      </trkpt>
      <trkpt lat="45.37079" lon="2.3918">
        <ele>618.1</ele>
        <time>2022-06-14T07:46:58.000Z</time>
      </trkpt>
      <trkpt lat="45.3708" lon="2.39179">
        <ele>618.2</ele>
        <time>2022-06-14T07:46:59.000Z</time>
      </trkpt>
      <trkpt lat="45.3708" lon="2.39177">
        <ele>618.3</ele>
        <time>2022-06-14T07:47:00.000Z</time>
      </trkpt>
      <trkpt lat="45.3708" lon="2.39176">
        <ele>618.4</ele>
        <time>2022-06-14T07:47:01.000Z</time>
      </trkpt>
      <trkpt lat="45.37081" lon="2.39174">
        <ele>618.5</ele>
        <time>2022-06-14T07:47:02.000Z</time>
      </trkpt>
      <trkpt lat="45.37081" lon="2.39173">
        <ele>618.5</ele>
        <time>2022-06-14T07:47:03.000Z</time>
      </trkpt>
      <trkpt lat="45.37081" lon="2.39172">
        <ele>618.6</ele>
        <time>2022-06-14T07:47:04.000Z</time>
      </trkpt>
      <trkpt lat="45.37081" lon="2.39171">
        <ele>618.6</ele>
        <time>2022-06-14T07:47:19.000Z</time>
      </trkpt>
      <trkpt lat="45.37081" lon="2.3917">
        <ele>618.6</ele>
        <time>2022-06-14T07:47:22.000Z</time>
      </trkpt>
      <trkpt lat="45.37081" lon="2.39169">
        <ele>618.7</ele>
        <time>2022-06-14T07:47:23.000Z</time>
      </trkpt>
      <trkpt lat="45.37081" lon="2.39167">
        <ele>618.8</ele>
        <time>2022-06-14T07:47:24.000Z</time>
      </trkpt>
      <trkpt lat="45.37082" lon="2.39166">
        <ele>618.8</ele>
        <time>2022-06-14T07:47:25.000Z</time>
      </trkpt>
      <trkpt lat="45.37082" lon="2.39164">
        <ele>618.9</ele>
        <time>2022-06-14T07:47:26.000Z</time>
      </trkpt>
      <trkpt lat="45.37082" lon="2.39162">
        <ele>618.9</ele>
        <time>2022-06-14T07:47:27.000Z</time>
      </trkpt>
      <trkpt lat="45.37083" lon="2.3916">
        <ele>618.9</ele>
        <time>2022-06-14T07:47:28.000Z</time>
      </trkpt>
      <trkpt lat="45.37083" lon="2.39159">
        <ele>619</ele>
        <time>2022-06-14T07:47:29.000Z</time>
      </trkpt>
      <trkpt lat="45.37083" lon="2.39157">
        <ele>619</ele>
        <time>2022-06-14T07:47:30.000Z</time>
      </trkpt>
      <trkpt lat="45.37084" lon="2.39155">
        <ele>619</ele>
        <time>2022-06-14T07:47:31.000Z</time>
      </trkpt>
      <trkpt lat="45.37084" lon="2.39153">
        <ele>619</ele>
        <time>2022-06-14T07:47:32.000Z</time>
      </trkpt>
      <trkpt lat="45.37084" lon="2.39151">
        <ele>619</ele>
        <time>2022-06-14T07:47:33.000Z</time>
      </trkpt>
      <trkpt lat="45.37085" lon="2.3915">
        <ele>619</ele>
        <time>2022-06-14T07:47:34.000Z</time>
      </trkpt>
      <trkpt lat="45.37085" lon="2.39148">
        <ele>619</ele>
        <time>2022-06-14T07:47:35.000Z</time>
      </trkpt>
      <trkpt lat="45.37085" lon="2.39146">
        <ele>619</ele>
        <time>2022-06-14T07:47:36.000Z</time>
      </trkpt>
      <trkpt lat="45.37086" lon="2.39144">
        <ele>619</ele>
        <time>2022-06-14T07:47:37.000Z</time>
      </trkpt>
      <trkpt lat="45.37086" lon="2.39142">
        <ele>619</ele>
        <time>2022-06-14T07:47:38.000Z</time>
      </trkpt>
      <trkpt lat="45.37086" lon="2.3914">
        <ele>619</ele>
        <time>2022-06-14T07:47:39.000Z</time>
      </trkpt>
      <trkpt lat="45.37086" lon="2.39138">
        <ele>619</ele>
        <time>2022-06-14T07:47:40.000Z</time>
      </trkpt>
      <trkpt lat="45.37086" lon="2.39137">
        <ele>619</ele>
        <time>2022-06-14T07:47:41.000Z</time>
      </trkpt>
      <trkpt lat="45.37086" lon="2.39135">
        <ele>619</ele>
        <time>2022-06-14T07:47:42.000Z</time>
      </trkpt>
      <trkpt lat="45.37086" lon="2.39133">
        <ele>619</ele>
        <time>2022-06-14T07:47:43.000Z</time>
      </trkpt>
      <trkpt lat="45.37086" lon="2.39131">
        <ele>619</ele>
        <time>2022-06-14T07:47:44.000Z</time>
      </trkpt>
      <trkpt lat="45.37086" lon="2.39129">
        <ele>619</ele>
        <time>2022-06-14T07:47:45.000Z</time>
      </trkpt>
      <trkpt lat="45.37086" lon="2.39127">
        <ele>619</ele>
        <time>2022-06-14T07:47:46.000Z</time>
      </trkpt>
      <trkpt lat="45.37086" lon="2.39125">
        <ele>619</ele>
        <time>2022-06-14T07:47:47.000Z</time>
      </trkpt>
      <trkpt lat="45.37086" lon="2.39123">
        <ele>619</ele>
        <time>2022-06-14T07:47:48.000Z</time>
      </trkpt>
      <trkpt lat="45.37086" lon="2.39121">
        <ele>619</ele>
        <time>2022-06-14T07:47:49.000Z</time>
      </trkpt>
      <trkpt lat="45.37086" lon="2.39119">
        <ele>619</ele>
        <time>2022-06-14T07:47:50.000Z</time>
      </trkpt>
      <trkpt lat="45.37086" lon="2.39117">
        <ele>619</ele>
        <time>2022-06-14T07:47:51.000Z</time>
      </trkpt>
      <trkpt lat="45.37086" lon="2.39115">
        <ele>619</ele>
        <time>2022-06-14T07:47:52.000Z</time>
      </trkpt>
      <trkpt lat="45.37086" lon="2.39113">
        <ele>619</ele>
        <time>2022-06-14T07:47:53.000Z</time>
      </trkpt>
      <trkpt lat="45.37086" lon="2.39111">
        <ele>619</ele>
        <time>2022-06-14T07:47:54.000Z</time>
      </trkpt>
      <trkpt lat="45.37085" lon="2.39109">
        <ele>619</ele>
        <time>2022-06-14T07:47:55.000Z</time>
      </trkpt>
      <trkpt lat="45.37085" lon="2.39107">
        <ele>619</ele>
        <time>2022-06-14T07:47:56.000Z</time>
      </trkpt>
      <trkpt lat="45.37085" lon="2.39106">
        <ele>619</ele>
        <time>2022-06-14T07:47:57.000Z</time>
      </trkpt>
      <trkpt lat="45.37085" lon="2.39104">
        <ele>619</ele>
        <time>2022-06-14T07:47:58.000Z</time>
      </trkpt>
      <trkpt lat="45.37084" lon="2.39102">
        <ele>619</ele>
        <time>2022-06-14T07:47:59.000Z</time>
      </trkpt>
      <trkpt lat="45.37084" lon="2.391">
        <ele>619</ele>
        <time>2022-06-14T07:48:00.000Z</time>
      </trkpt>
      <trkpt lat="45.37084" lon="2.39098">
        <ele>619</ele>
        <time>2022-06-14T07:48:01.000Z</time>
      </trkpt>
      <trkpt lat="45.37083" lon="2.39096">
        <ele>619</ele>
        <time>2022-06-14T07:48:02.000Z</time>
      </trkpt>
      <trkpt lat="45.37083" lon="2.39095">
        <ele>618.9</ele>
        <time>2022-06-14T07:48:03.000Z</time>
      </trkpt>
      <trkpt lat="45.37082" lon="2.39093">
        <ele>618.9</ele>
        <time>2022-06-14T07:48:04.000Z</time>
      </trkpt>
      <trkpt lat="45.37082" lon="2.39091">
        <ele>618.8</ele>
        <time>2022-06-14T07:48:05.000Z</time>
      </trkpt>
      <trkpt lat="45.37081" lon="2.39089">
        <ele>618.7</ele>
        <time>2022-06-14T07:48:06.000Z</time>
      </trkpt>
      <trkpt lat="45.37081" lon="2.39087">
        <ele>618.7</ele>
        <time>2022-06-14T07:48:07.000Z</time>
      </trkpt>
      <trkpt lat="45.3708" lon="2.39085">
        <ele>618.6</ele>
        <time>2022-06-14T07:48:08.000Z</time>
      </trkpt>
      <trkpt lat="45.37079" lon="2.39083">
        <ele>618.5</ele>
        <time>2022-06-14T07:48:09.000Z</time>
      </trkpt>
      <trkpt lat="45.37079" lon="2.39082">
        <ele>618.4</ele>
        <time>2022-06-14T07:48:10.000Z</time>
      </trkpt>
      <trkpt lat="45.37078" lon="2.3908">
        <ele>618.3</ele>
        <time>2022-06-14T07:48:11.000Z</time>
      </trkpt>
      <trkpt lat="45.37078" lon="2.39078">
        <ele>618.1</ele>
        <time>2022-06-14T07:48:12.000Z</time>
      </trkpt>
      <trkpt lat="45.37077" lon="2.39076">
        <ele>618</ele>
        <time>2022-06-14T07:48:13.000Z</time>
      </trkpt>
      <trkpt lat="45.37077" lon="2.39074">
        <ele>617.9</ele>
        <time>2022-06-14T07:48:14.000Z</time>
      </trkpt>
      <trkpt lat="45.37077" lon="2.39072">
        <ele>617.8</ele>
        <time>2022-06-14T07:48:15.000Z</time>
      </trkpt>
      <trkpt lat="45.37076" lon="2.3907">
        <ele>617.7</ele>
        <time>2022-06-14T07:48:16.000Z</time>
      </trkpt>
      <trkpt lat="45.37076" lon="2.39068">
        <ele>617.6</ele>
        <time>2022-06-14T07:48:17.000Z</time>
      </trkpt>
      <trkpt lat="45.37076" lon="2.39066">
        <ele>617.5</ele>
        <time>2022-06-14T07:48:18.000Z</time>
      </trkpt>
      <trkpt lat="45.37076" lon="2.39064">
        <ele>617.4</ele>
        <time>2022-06-14T07:48:19.000Z</time>
      </trkpt>
      <trkpt lat="45.37075" lon="2.39063">
        <ele>617.3</ele>
        <time>2022-06-14T07:48:20.000Z</time>
      </trkpt>
      <trkpt lat="45.37075" lon="2.39061">
        <ele>617.3</ele>
        <time>2022-06-14T07:48:21.000Z</time>
      </trkpt>
      <trkpt lat="45.37075" lon="2.39059">
        <ele>617.2</ele>
        <time>2022-06-14T07:48:22.000Z</time>
      </trkpt>
      <trkpt lat="45.37075" lon="2.39057">
        <ele>617.1</ele>
        <time>2022-06-14T07:48:23.000Z</time>
      </trkpt>
      <trkpt lat="45.37075" lon="2.39055">
        <ele>617.1</ele>
        <time>2022-06-14T07:48:24.000Z</time>
      </trkpt>
      <trkpt lat="45.37075" lon="2.39053">
        <ele>617</ele>
        <time>2022-06-14T07:48:25.000Z</time>
      </trkpt>
      <trkpt lat="45.37075" lon="2.39051">
        <ele>616.9</ele>
        <time>2022-06-14T07:48:26.000Z</time>
      </trkpt>
      <trkpt lat="45.37076" lon="2.39049">
        <ele>616.9</ele>
        <time>2022-06-14T07:48:27.000Z</time>
      </trkpt>
      <trkpt lat="45.37076" lon="2.39047">
        <ele>616.8</ele>
        <time>2022-06-14T07:48:28.000Z</time>
      </trkpt>
      <trkpt lat="45.37076" lon="2.39045">
        <ele>616.8</ele>
        <time>2022-06-14T07:48:29.000Z</time>
      </trkpt>
      <trkpt lat="45.37076" lon="2.39043">
        <ele>616.8</ele>
        <time>2022-06-14T07:48:30.000Z</time>
      </trkpt>
      <trkpt lat="45.37076" lon="2.39041">
        <ele>616.7</ele>
        <time>2022-06-14T07:48:31.000Z</time>
      </trkpt>
      <trkpt lat="45.37077" lon="2.39039">
        <ele>616.7</ele>
        <time>2022-06-14T07:48:32.000Z</time>
      </trkpt>
      <trkpt lat="45.37077" lon="2.39037">
        <ele>616.6</ele>
        <time>2022-06-14T07:48:33.000Z</time>
      </trkpt>
      <trkpt lat="45.37077" lon="2.39035">
        <ele>616.6</ele>
        <time>2022-06-14T07:48:34.000Z</time>
      </trkpt>
      <trkpt lat="45.37077" lon="2.39033">
        <ele>616.6</ele>
        <time>2022-06-14T07:48:35.000Z</time>
      </trkpt>
      <trkpt lat="45.37078" lon="2.39031">
        <ele>616.5</ele>
        <time>2022-06-14T07:48:36.000Z</time>
      </trkpt>
      <trkpt lat="45.37078" lon="2.39029">
        <ele>616.5</ele>
        <time>2022-06-14T07:48:37.000Z</time>
      </trkpt>
      <trkpt lat="45.37078" lon="2.39027">
        <ele>616.5</ele>
        <time>2022-06-14T07:48:38.000Z</time>
      </trkpt>
      <trkpt lat="45.37079" lon="2.39025">
        <ele>616.4</ele>
        <time>2022-06-14T07:48:39.000Z</time>
      </trkpt>
      <trkpt lat="45.37079" lon="2.39023">
        <ele>616.4</ele>
        <time>2022-06-14T07:48:40.000Z</time>
      </trkpt>
      <trkpt lat="45.3708" lon="2.39022">
        <ele>616.4</ele>
        <time>2022-06-14T07:48:41.000Z</time>
      </trkpt>
      <trkpt lat="45.3708" lon="2.3902">
        <ele>616.4</ele>
        <time>2022-06-14T07:48:42.000Z</time>
      </trkpt>
      <trkpt lat="45.3708" lon="2.39018">
        <ele>616.3</ele>
        <time>2022-06-14T07:48:43.000Z</time>
      </trkpt>
      <trkpt lat="45.37081" lon="2.39016">
        <ele>616.3</ele>
        <time>2022-06-14T07:48:44.000Z</time>
      </trkpt>
      <trkpt lat="45.37081" lon="2.39014">
        <ele>616.3</ele>
        <time>2022-06-14T07:48:45.000Z</time>
      </trkpt>
      <trkpt lat="45.37082" lon="2.39012">
        <ele>616.3</ele>
        <time>2022-06-14T07:48:46.000Z</time>
      </trkpt>
      <trkpt lat="45.37082" lon="2.3901">
        <ele>616.3</ele>
        <time>2022-06-14T07:48:47.000Z</time>
      </trkpt>
      <trkpt lat="45.37083" lon="2.39008">
        <ele>616.2</ele>
        <time>2022-06-14T07:48:48.000Z</time>
      </trkpt>
      <trkpt lat="45.37083" lon="2.39007">
        <ele>616.2</ele>
        <time>2022-06-14T07:48:49.000Z</time>
      </trkpt>
      <trkpt lat="45.37084" lon="2.39005">
        <ele>616.2</ele>
        <time>2022-06-14T07:48:50.000Z</time>
      </trkpt>
      <trkpt lat="45.37084" lon="2.39003">
        <ele>616.1</ele>
        <time>2022-06-14T07:48:51.000Z</time>
      </trkpt>
      <trkpt lat="45.37085" lon="2.39001">
        <ele>616</ele>
        <time>2022-06-14T07:48:52.000Z</time>
      </trkpt>
      <trkpt lat="45.37085" lon="2.39">
        <ele>615.9</ele>
        <time>2022-06-14T07:48:53.000Z</time>
      </trkpt>
      <trkpt lat="45.37086" lon="2.38998">
        <ele>615.9</ele>
        <time>2022-06-14T07:48:54.000Z</time>
      </trkpt>
      <trkpt lat="45.37086" lon="2.38996">
        <ele>615.9</ele>
        <time>2022-06-14T07:48:55.000Z</time>
      </trkpt>
      <trkpt lat="45.37087" lon="2.38995">
        <ele>615.9</ele>
        <time>2022-06-14T07:48:56.000Z</time>
      </trkpt>
      <trkpt lat="45.37087" lon="2.38993">
        <ele>615.8</ele>
        <time>2022-06-14T07:48:57.000Z</time>
      </trkpt>
      <trkpt lat="45.37088" lon="2.38991">
        <ele>615.8</ele>
        <time>2022-06-14T07:48:58.000Z</time>
      </trkpt>
      <trkpt lat="45.37088" lon="2.3899">
        <ele>615.8</ele>
        <time>2022-06-14T07:48:59.000Z</time>
      </trkpt>
      <trkpt lat="45.37089" lon="2.38988">
        <ele>615.8</ele>
        <time>2022-06-14T07:49:00.000Z</time>
      </trkpt>
      <trkpt lat="45.37089" lon="2.38986">
        <ele>615.7</ele>
        <time>2022-06-14T07:49:01.000Z</time>
      </trkpt>
      <trkpt lat="45.3709" lon="2.38985">
        <ele>615.7</ele>
        <time>2022-06-14T07:49:02.000Z</time>
      </trkpt>
      <trkpt lat="45.3709" lon="2.38983">
        <ele>615.7</ele>
        <time>2022-06-14T07:49:03.000Z</time>
      </trkpt>
      <trkpt lat="45.37091" lon="2.38981">
        <ele>615.7</ele>
        <time>2022-06-14T07:49:04.000Z</time>
      </trkpt>
      <trkpt lat="45.37091" lon="2.3898">
        <ele>615.6</ele>
        <time>2022-06-14T07:49:05.000Z</time>
      </trkpt>
      <trkpt lat="45.37092" lon="2.38978">
        <ele>615.6</ele>
        <time>2022-06-14T07:49:06.000Z</time>
      </trkpt>
      <trkpt lat="45.37092" lon="2.38976">
        <ele>615.6</ele>
        <time>2022-06-14T07:49:07.000Z</time>
      </trkpt>
      <trkpt lat="45.37093" lon="2.38974">
        <ele>615.5</ele>
        <time>2022-06-14T07:49:08.000Z</time>
      </trkpt>
      <trkpt lat="45.37093" lon="2.38973">
        <ele>615.5</ele>
        <time>2022-06-14T07:49:09.000Z</time>
      </trkpt>
      <trkpt lat="45.37094" lon="2.38971">
        <ele>615.4</ele>
        <time>2022-06-14T07:49:10.000Z</time>
      </trkpt>
      <trkpt lat="45.37094" lon="2.38969">
        <ele>615.4</ele>
        <time>2022-06-14T07:49:11.000Z</time>
      </trkpt>
      <trkpt lat="45.37095" lon="2.38967">
        <ele>615.4</ele>
        <time>2022-06-14T07:49:12.000Z</time>
      </trkpt>
      <trkpt lat="45.37095" lon="2.38965">
        <ele>615.3</ele>
        <time>2022-06-14T07:49:13.000Z</time>
      </trkpt>
      <trkpt lat="45.37096" lon="2.38964">
        <ele>615.3</ele>
        <time>2022-06-14T07:49:14.000Z</time>
      </trkpt>
      <trkpt lat="45.37096" lon="2.38962">
        <ele>615.3</ele>
        <time>2022-06-14T07:49:15.000Z</time>
      </trkpt>
      <trkpt lat="45.37097" lon="2.3896">
        <ele>615.2</ele>
        <time>2022-06-14T07:49:16.000Z</time>
      </trkpt>
      <trkpt lat="45.37097" lon="2.38958">
        <ele>615.2</ele>
        <time>2022-06-14T07:49:17.000Z</time>
      </trkpt>
      <trkpt lat="45.37098" lon="2.38956">
        <ele>615.1</ele>
        <time>2022-06-14T07:49:18.000Z</time>
      </trkpt>
      <trkpt lat="45.37098" lon="2.38954">
        <ele>615.1</ele>
        <time>2022-06-14T07:49:19.000Z</time>
      </trkpt>
      <trkpt lat="45.37098" lon="2.38953">
        <ele>615.1</ele>
        <time>2022-06-14T07:49:20.000Z</time>
      </trkpt>
      <trkpt lat="45.37099" lon="2.38951">
        <ele>615</ele>
        <time>2022-06-14T07:49:21.000Z</time>
      </trkpt>
      <trkpt lat="45.37099" lon="2.38949">
        <ele>615</ele>
        <time>2022-06-14T07:49:22.000Z</time>
      </trkpt>
      <trkpt lat="45.37099" lon="2.38947">
        <ele>614.9</ele>
        <time>2022-06-14T07:49:23.000Z</time>
      </trkpt>
      <trkpt lat="45.37099" lon="2.38945">
        <ele>614.9</ele>
        <time>2022-06-14T07:49:24.000Z</time>
      </trkpt>
      <trkpt lat="45.371" lon="2.38943">
        <ele>614.9</ele>
        <time>2022-06-14T07:49:25.000Z</time>
      </trkpt>
      <trkpt lat="45.371" lon="2.38942">
        <ele>614.9</ele>
        <time>2022-06-14T07:49:26.000Z</time>
      </trkpt>
      <trkpt lat="45.371" lon="2.3894">
        <ele>614.8</ele>
        <time>2022-06-14T07:49:27.000Z</time>
      </trkpt>
      <trkpt lat="45.371" lon="2.38938">
        <ele>614.8</ele>
        <time>2022-06-14T07:49:28.000Z</time>
      </trkpt>
      <trkpt lat="45.371" lon="2.38936">
        <ele>614.8</ele>
        <time>2022-06-14T07:49:29.000Z</time>
      </trkpt>
      <trkpt lat="45.371" lon="2.38935">
        <ele>614.8</ele>
        <time>2022-06-14T07:49:30.000Z</time>
      </trkpt>
      <trkpt lat="45.371" lon="2.38933">
        <ele>614.8</ele>
        <time>2022-06-14T07:49:31.000Z</time>
      </trkpt>
      <trkpt lat="45.371" lon="2.38931">
        <ele>614.7</ele>
        <time>2022-06-14T07:49:32.000Z</time>
      </trkpt>
      <trkpt lat="45.371" lon="2.3893">
        <ele>614.7</ele>
        <time>2022-06-14T07:49:33.000Z</time>
      </trkpt>
      <trkpt lat="45.371" lon="2.38928">
        <ele>614.7</ele>
        <time>2022-06-14T07:49:34.000Z</time>
      </trkpt>
      <trkpt lat="45.371" lon="2.38926">
        <ele>614.7</ele>
        <time>2022-06-14T07:49:35.000Z</time>
      </trkpt>
      <trkpt lat="45.371" lon="2.38924">
        <ele>614.7</ele>
        <time>2022-06-14T07:49:36.000Z</time>
      </trkpt>
      <trkpt lat="45.37099" lon="2.38923">
        <ele>614.7</ele>
        <time>2022-06-14T07:49:37.000Z</time>
      </trkpt>
      <trkpt lat="45.37099" lon="2.38921">
        <ele>614.7</ele>
        <time>2022-06-14T07:49:38.000Z</time>
      </trkpt>
      <trkpt lat="45.37099" lon="2.38919">
        <ele>614.7</ele>
        <time>2022-06-14T07:49:39.000Z</time>
      </trkpt>
      <trkpt lat="45.37099" lon="2.38917">
        <ele>614.7</ele>
        <time>2022-06-14T07:49:40.000Z</time>
      </trkpt>
      <trkpt lat="45.37099" lon="2.38915">
        <ele>614.6</ele>
        <time>2022-06-14T07:49:41.000Z</time>
      </trkpt>
      <trkpt lat="45.37099" lon="2.38913">
        <ele>614.6</ele>
        <time>2022-06-14T07:49:42.000Z</time>
      </trkpt>
      <trkpt lat="45.37098" lon="2.38912">
        <ele>614.5</ele>
        <time>2022-06-14T07:49:43.000Z</time>
      </trkpt>
      <trkpt lat="45.37098" lon="2.3891">
        <ele>614.5</ele>
        <time>2022-06-14T07:49:44.000Z</time>
      </trkpt>
      <trkpt lat="45.37098" lon="2.38908">
        <ele>614.4</ele>
        <time>2022-06-14T07:49:45.000Z</time>
      </trkpt>
      <trkpt lat="45.37098" lon="2.38907">
        <ele>614.4</ele>
        <time>2022-06-14T07:49:46.000Z</time>
      </trkpt>
      <trkpt lat="45.37097" lon="2.38905">
        <ele>614.3</ele>
        <time>2022-06-14T07:49:47.000Z</time>
      </trkpt>
      <trkpt lat="45.37097" lon="2.38903">
        <ele>614.2</ele>
        <time>2022-06-14T07:49:48.000Z</time>
      </trkpt>
      <trkpt lat="45.37097" lon="2.38902">
        <ele>614.2</ele>
        <time>2022-06-14T07:49:49.000Z</time>
      </trkpt>
      <trkpt lat="45.37096" lon="2.389">
        <ele>614.1</ele>
        <time>2022-06-14T07:49:50.000Z</time>
      </trkpt>
      <trkpt lat="45.37096" lon="2.38899">
        <ele>614.1</ele>
        <time>2022-06-14T07:49:51.000Z</time>
      </trkpt>
      <trkpt lat="45.37096" lon="2.38897">
        <ele>614</ele>
        <time>2022-06-14T07:49:52.000Z</time>
      </trkpt>
      <trkpt lat="45.37095" lon="2.38895">
        <ele>614</ele>
        <time>2022-06-14T07:49:53.000Z</time>
      </trkpt>
      <trkpt lat="45.37095" lon="2.38893">
        <ele>613.9</ele>
        <time>2022-06-14T07:49:54.000Z</time>
      </trkpt>
      <trkpt lat="45.37095" lon="2.38891">
        <ele>613.8</ele>
        <time>2022-06-14T07:49:55.000Z</time>
      </trkpt>
      <trkpt lat="45.37094" lon="2.3889">
        <ele>613.7</ele>
        <time>2022-06-14T07:49:56.000Z</time>
      </trkpt>
      <trkpt lat="45.37094" lon="2.38888">
        <ele>613.7</ele>
        <time>2022-06-14T07:49:57.000Z</time>
      </trkpt>
      <trkpt lat="45.37094" lon="2.38886">
        <ele>613.6</ele>
        <time>2022-06-14T07:49:58.000Z</time>
      </trkpt>
      <trkpt lat="45.37094" lon="2.38884">
        <ele>613.5</ele>
        <time>2022-06-14T07:49:59.000Z</time>
      </trkpt>
      <trkpt lat="45.37093" lon="2.38882">
        <ele>613.4</ele>
        <time>2022-06-14T07:50:00.000Z</time>
      </trkpt>
      <trkpt lat="45.37093" lon="2.3888">
        <ele>613.3</ele>
        <time>2022-06-14T07:50:01.000Z</time>
      </trkpt>
      <trkpt lat="45.37093" lon="2.38878">
        <ele>613.3</ele>
        <time>2022-06-14T07:50:02.000Z</time>
      </trkpt>
      <trkpt lat="45.37092" lon="2.38877">
        <ele>613.2</ele>
        <time>2022-06-14T07:50:03.000Z</time>
      </trkpt>
      <trkpt lat="45.37092" lon="2.38875">
        <ele>613.1</ele>
        <time>2022-06-14T07:50:04.000Z</time>
      </trkpt>
      <trkpt lat="45.37091" lon="2.38873">
        <ele>613.1</ele>
        <time>2022-06-14T07:50:05.000Z</time>
      </trkpt>
      <trkpt lat="45.37091" lon="2.38872">
        <ele>613</ele>
        <time>2022-06-14T07:50:06.000Z</time>
      </trkpt>
      <trkpt lat="45.3709" lon="2.3887">
        <ele>613</ele>
        <time>2022-06-14T07:50:07.000Z</time>
      </trkpt>
      <trkpt lat="45.3709" lon="2.38868">
        <ele>612.9</ele>
        <time>2022-06-14T07:50:08.000Z</time>
      </trkpt>
      <trkpt lat="45.37089" lon="2.38867">
        <ele>612.8</ele>
        <time>2022-06-14T07:50:09.000Z</time>
      </trkpt>
      <trkpt lat="45.37088" lon="2.38865">
        <ele>612.7</ele>
        <time>2022-06-14T07:50:10.000Z</time>
      </trkpt>
      <trkpt lat="45.37088" lon="2.38863">
        <ele>612.7</ele>
        <time>2022-06-14T07:50:11.000Z</time>
      </trkpt>
      <trkpt lat="45.37088" lon="2.38862">
        <ele>612.6</ele>
        <time>2022-06-14T07:50:12.000Z</time>
      </trkpt>
      <trkpt lat="45.37087" lon="2.3886">
        <ele>612.5</ele>
        <time>2022-06-14T07:50:13.000Z</time>
      </trkpt>
      <trkpt lat="45.37087" lon="2.38858">
        <ele>612.4</ele>
        <time>2022-06-14T07:50:14.000Z</time>
      </trkpt>
      <trkpt lat="45.37087" lon="2.38856">
        <ele>612.3</ele>
        <time>2022-06-14T07:50:15.000Z</time>
      </trkpt>
      <trkpt lat="45.37087" lon="2.38855">
        <ele>612.2</ele>
        <time>2022-06-14T07:50:16.000Z</time>
      </trkpt>
      <trkpt lat="45.37086" lon="2.38853">
        <ele>612.1</ele>
        <time>2022-06-14T07:50:17.000Z</time>
      </trkpt>
      <trkpt lat="45.37086" lon="2.38852">
        <ele>612.1</ele>
        <time>2022-06-14T07:50:18.000Z</time>
      </trkpt>
      <trkpt lat="45.37085" lon="2.38851">
        <ele>612</ele>
        <time>2022-06-14T07:50:19.000Z</time>
      </trkpt>
      <trkpt lat="45.37084" lon="2.3885">
        <ele>612</ele>
        <time>2022-06-14T07:50:20.000Z</time>
      </trkpt>
      <trkpt lat="45.37083" lon="2.3885">
        <ele>612</ele>
        <time>2022-06-14T07:50:21.000Z</time>
      </trkpt>
      <trkpt lat="45.37082" lon="2.38849">
        <ele>611.9</ele>
        <time>2022-06-14T07:50:22.000Z</time>
      </trkpt>
      <trkpt lat="45.37081" lon="2.38849">
        <ele>611.8</ele>
        <time>2022-06-14T07:50:23.000Z</time>
      </trkpt>
      <trkpt lat="45.3708" lon="2.38848">
        <ele>611.7</ele>
        <time>2022-06-14T07:50:24.000Z</time>
      </trkpt>
      <trkpt lat="45.37079" lon="2.38847">
        <ele>611.6</ele>
        <time>2022-06-14T07:50:25.000Z</time>
      </trkpt>
      <trkpt lat="45.37078" lon="2.38846">
        <ele>611.5</ele>
        <time>2022-06-14T07:50:26.000Z</time>
      </trkpt>
      <trkpt lat="45.37077" lon="2.38845">
        <ele>611.4</ele>
        <time>2022-06-14T07:50:27.000Z</time>
      </trkpt>
      <trkpt lat="45.37076" lon="2.38844">
        <ele>611.3</ele>
        <time>2022-06-14T07:50:28.000Z</time>
      </trkpt>
      <trkpt lat="45.37076" lon="2.38842">
        <ele>611.2</ele>
        <time>2022-06-14T07:50:29.000Z</time>
      </trkpt>
      <trkpt lat="45.37075" lon="2.3884">
        <ele>611.1</ele>
        <time>2022-06-14T07:50:30.000Z</time>
      </trkpt>
      <trkpt lat="45.37074" lon="2.38839">
        <ele>611</ele>
        <time>2022-06-14T07:50:31.000Z</time>
      </trkpt>
      <trkpt lat="45.37074" lon="2.38837">
        <ele>610.9</ele>
        <time>2022-06-14T07:50:32.000Z</time>
      </trkpt>
      <trkpt lat="45.37073" lon="2.38836">
        <ele>610.7</ele>
        <time>2022-06-14T07:50:33.000Z</time>
      </trkpt>
      <trkpt lat="45.37073" lon="2.38834">
        <ele>610.6</ele>
        <time>2022-06-14T07:50:34.000Z</time>
      </trkpt>
      <trkpt lat="45.37072" lon="2.38832">
        <ele>610.5</ele>
        <time>2022-06-14T07:50:35.000Z</time>
      </trkpt>
      <trkpt lat="45.37072" lon="2.38831">
        <ele>610.5</ele>
        <time>2022-06-14T07:50:36.000Z</time>
      </trkpt>
      <trkpt lat="45.37071" lon="2.38829">
        <ele>610.4</ele>
        <time>2022-06-14T07:50:37.000Z</time>
      </trkpt>
      <trkpt lat="45.37071" lon="2.38827">
        <ele>610.3</ele>
        <time>2022-06-14T07:50:38.000Z</time>
      </trkpt>
      <trkpt lat="45.3707" lon="2.38825">
        <ele>610.2</ele>
        <time>2022-06-14T07:50:39.000Z</time>
      </trkpt>
      <trkpt lat="45.3707" lon="2.38824">
        <ele>610.1</ele>
        <time>2022-06-14T07:50:40.000Z</time>
      </trkpt>
      <trkpt lat="45.37069" lon="2.38822">
        <ele>610</ele>
        <time>2022-06-14T07:50:41.000Z</time>
      </trkpt>
      <trkpt lat="45.37069" lon="2.3882">
        <ele>610</ele>
        <time>2022-06-14T07:50:42.000Z</time>
      </trkpt>
      <trkpt lat="45.37068" lon="2.38819">
        <ele>609.9</ele>
        <time>2022-06-14T07:50:43.000Z</time>
      </trkpt>
      <trkpt lat="45.37068" lon="2.38817">
        <ele>609.8</ele>
        <time>2022-06-14T07:50:44.000Z</time>
      </trkpt>
      <trkpt lat="45.37068" lon="2.38815">
        <ele>609.7</ele>
        <time>2022-06-14T07:50:45.000Z</time>
      </trkpt>
      <trkpt lat="45.37068" lon="2.38813">
        <ele>609.6</ele>
        <time>2022-06-14T07:50:46.000Z</time>
      </trkpt>
      <trkpt lat="45.37067" lon="2.38811">
        <ele>609.5</ele>
        <time>2022-06-14T07:50:47.000Z</time>
      </trkpt>
      <trkpt lat="45.37067" lon="2.3881">
        <ele>609.4</ele>
        <time>2022-06-14T07:50:48.000Z</time>
      </trkpt>
      <trkpt lat="45.37067" lon="2.38808">
        <ele>609.4</ele>
        <time>2022-06-14T07:50:49.000Z</time>
      </trkpt>
      <trkpt lat="45.37067" lon="2.38806">
        <ele>609.3</ele>
        <time>2022-06-14T07:50:50.000Z</time>
      </trkpt>
      <trkpt lat="45.37066" lon="2.38804">
        <ele>609.2</ele>
        <time>2022-06-14T07:50:51.000Z</time>
      </trkpt>
      <trkpt lat="45.37066" lon="2.38802">
        <ele>609.1</ele>
        <time>2022-06-14T07:50:52.000Z</time>
      </trkpt>
      <trkpt lat="45.37066" lon="2.388">
        <ele>609</ele>
        <time>2022-06-14T07:50:53.000Z</time>
      </trkpt>
      <trkpt lat="45.37066" lon="2.38798">
        <ele>608.9</ele>
        <time>2022-06-14T07:50:54.000Z</time>
      </trkpt>
      <trkpt lat="45.37066" lon="2.38796">
        <ele>608.8</ele>
        <time>2022-06-14T07:50:55.000Z</time>
      </trkpt>
      <trkpt lat="45.37066" lon="2.38794">
        <ele>608.8</ele>
        <time>2022-06-14T07:50:56.000Z</time>
      </trkpt>
      <trkpt lat="45.37065" lon="2.38792">
        <ele>608.7</ele>
        <time>2022-06-14T07:50:57.000Z</time>
      </trkpt>
      <trkpt lat="45.37065" lon="2.38791">
        <ele>608.6</ele>
        <time>2022-06-14T07:50:58.000Z</time>
      </trkpt>
      <trkpt lat="45.37065" lon="2.38789">
        <ele>608.5</ele>
        <time>2022-06-14T07:50:59.000Z</time>
      </trkpt>
      <trkpt lat="45.37065" lon="2.38787">
        <ele>608.4</ele>
        <time>2022-06-14T07:51:00.000Z</time>
      </trkpt>
      <trkpt lat="45.37065" lon="2.38785">
        <ele>608.3</ele>
        <time>2022-06-14T07:51:01.000Z</time>
      </trkpt>
      <trkpt lat="45.37064" lon="2.38784">
        <ele>608.3</ele>
        <time>2022-06-14T07:51:02.000Z</time>
      </trkpt>
      <trkpt lat="45.37064" lon="2.38783">
        <ele>608.2</ele>
        <time>2022-06-14T07:51:03.000Z</time>
      </trkpt>
      <trkpt lat="45.37064" lon="2.38782">
        <ele>608.2</ele>
        <time>2022-06-14T07:51:04.000Z</time>
      </trkpt>
      <trkpt lat="45.37064" lon="2.38781">
        <ele>608.1</ele>
        <time>2022-06-14T07:51:05.000Z</time>
      </trkpt>
      <trkpt lat="45.37064" lon="2.3878">
        <ele>608.1</ele>
        <time>2022-06-14T07:51:13.000Z</time>
      </trkpt>
      <trkpt lat="45.37064" lon="2.38779">
        <ele>608</ele>
        <time>2022-06-14T07:51:14.000Z</time>
      </trkpt>
      <trkpt lat="45.37064" lon="2.38777">
        <ele>608</ele>
        <time>2022-06-14T07:51:15.000Z</time>
      </trkpt>
      <trkpt lat="45.37064" lon="2.38776">
        <ele>607.9</ele>
        <time>2022-06-14T07:51:16.000Z</time>
      </trkpt>
      <trkpt lat="45.37064" lon="2.38774">
        <ele>607.8</ele>
        <time>2022-06-14T07:51:17.000Z</time>
      </trkpt>
      <trkpt lat="45.37064" lon="2.38773">
        <ele>607.8</ele>
        <time>2022-06-14T07:51:18.000Z</time>
      </trkpt>
      <trkpt lat="45.37063" lon="2.38771">
        <ele>607.7</ele>
        <time>2022-06-14T07:51:19.000Z</time>
      </trkpt>
      <trkpt lat="45.37063" lon="2.3877">
        <ele>607.6</ele>
        <time>2022-06-14T07:51:20.000Z</time>
      </trkpt>
      <trkpt lat="45.37063" lon="2.38768">
        <ele>607.5</ele>
        <time>2022-06-14T07:51:21.000Z</time>
      </trkpt>
      <trkpt lat="45.37063" lon="2.38766">
        <ele>607.5</ele>
        <time>2022-06-14T07:51:22.000Z</time>
      </trkpt>
      <trkpt lat="45.37063" lon="2.38764">
        <ele>607.4</ele>
        <time>2022-06-14T07:51:23.000Z</time>
      </trkpt>
      <trkpt lat="45.37063" lon="2.38763">
        <ele>607.3</ele>
        <time>2022-06-14T07:51:24.000Z</time>
      </trkpt>
      <trkpt lat="45.37062" lon="2.38761">
        <ele>607.2</ele>
        <time>2022-06-14T07:51:25.000Z</time>
      </trkpt>
      <trkpt lat="45.37062" lon="2.38759">
        <ele>607.1</ele>
        <time>2022-06-14T07:51:26.000Z</time>
      </trkpt>
      <trkpt lat="45.37062" lon="2.38757">
        <ele>607</ele>
        <time>2022-06-14T07:51:27.000Z</time>
      </trkpt>
      <trkpt lat="45.37062" lon="2.38755">
        <ele>606.9</ele>
        <time>2022-06-14T07:51:28.000Z</time>
      </trkpt>
      <trkpt lat="45.37062" lon="2.38753">
        <ele>606.8</ele>
        <time>2022-06-14T07:51:29.000Z</time>
      </trkpt>
      <trkpt lat="45.37062" lon="2.38751">
        <ele>606.7</ele>
        <time>2022-06-14T07:51:30.000Z</time>
      </trkpt>
      <trkpt lat="45.37061" lon="2.38749">
        <ele>606.6</ele>
        <time>2022-06-14T07:51:31.000Z</time>
      </trkpt>
      <trkpt lat="45.37061" lon="2.38747">
        <ele>606.4</ele>
        <time>2022-06-14T07:51:32.000Z</time>
      </trkpt>
      <trkpt lat="45.37061" lon="2.38745">
        <ele>606.3</ele>
        <time>2022-06-14T07:51:33.000Z</time>
      </trkpt>
      <trkpt lat="45.3706" lon="2.38743">
        <ele>606.1</ele>
        <time>2022-06-14T07:51:34.000Z</time>
      </trkpt>
      <trkpt lat="45.3706" lon="2.38741">
        <ele>605.9</ele>
        <time>2022-06-14T07:51:35.000Z</time>
      </trkpt>
      <trkpt lat="45.37059" lon="2.38739">
        <ele>605.8</ele>
        <time>2022-06-14T07:51:36.000Z</time>
      </trkpt>
      <trkpt lat="45.37059" lon="2.38738">
        <ele>605.6</ele>
        <time>2022-06-14T07:51:37.000Z</time>
      </trkpt>
      <trkpt lat="45.37058" lon="2.38736">
        <ele>605.5</ele>
        <time>2022-06-14T07:51:38.000Z</time>
      </trkpt>
      <trkpt lat="45.37058" lon="2.38734">
        <ele>605.3</ele>
        <time>2022-06-14T07:51:39.000Z</time>
      </trkpt>
      <trkpt lat="45.37057" lon="2.38733">
        <ele>605.2</ele>
        <time>2022-06-14T07:51:40.000Z</time>
      </trkpt>
      <trkpt lat="45.37057" lon="2.38731">
        <ele>605</ele>
        <time>2022-06-14T07:51:41.000Z</time>
      </trkpt>
      <trkpt lat="45.37056" lon="2.38729">
        <ele>604.8</ele>
        <time>2022-06-14T07:51:42.000Z</time>
      </trkpt>
      <trkpt lat="45.37055" lon="2.38728">
        <ele>604.7</ele>
        <time>2022-06-14T07:51:43.000Z</time>
      </trkpt>
      <trkpt lat="45.37054" lon="2.38726">
        <ele>604.5</ele>
        <time>2022-06-14T07:51:44.000Z</time>
      </trkpt>
      <trkpt lat="45.37054" lon="2.38725">
        <ele>604.4</ele>
        <time>2022-06-14T07:51:45.000Z</time>
      </trkpt>
      <trkpt lat="45.37053" lon="2.38723">
        <ele>604.3</ele>
        <time>2022-06-14T07:51:46.000Z</time>
      </trkpt>
      <trkpt lat="45.37052" lon="2.38722">
        <ele>604.1</ele>
        <time>2022-06-14T07:51:47.000Z</time>
      </trkpt>
      <trkpt lat="45.37051" lon="2.3872">
        <ele>604</ele>
        <time>2022-06-14T07:51:48.000Z</time>
      </trkpt>
      <trkpt lat="45.3705" lon="2.38719">
        <ele>603.8</ele>
        <time>2022-06-14T07:51:49.000Z</time>
      </trkpt>
      <trkpt lat="45.37049" lon="2.38717">
        <ele>603.7</ele>
        <time>2022-06-14T07:51:50.000Z</time>
      </trkpt>
      <trkpt lat="45.37048" lon="2.38716">
        <ele>603.5</ele>
        <time>2022-06-14T07:51:51.000Z</time>
      </trkpt>
      <trkpt lat="45.37048" lon="2.38714">
        <ele>603.4</ele>
        <time>2022-06-14T07:51:52.000Z</time>
      </trkpt>
      <trkpt lat="45.37047" lon="2.38713">
        <ele>603.3</ele>
        <time>2022-06-14T07:51:53.000Z</time>
      </trkpt>
      <trkpt lat="45.37046" lon="2.38712">
        <ele>603.1</ele>
        <time>2022-06-14T07:51:54.000Z</time>
      </trkpt>
      <trkpt lat="45.37045" lon="2.3871">
        <ele>603</ele>
        <time>2022-06-14T07:51:55.000Z</time>
      </trkpt>
      <trkpt lat="45.37044" lon="2.38709">
        <ele>602.9</ele>
        <time>2022-06-14T07:51:56.000Z</time>
      </trkpt>
      <trkpt lat="45.37043" lon="2.38707">
        <ele>602.7</ele>
        <time>2022-06-14T07:51:57.000Z</time>
      </trkpt>
      <trkpt lat="45.37042" lon="2.38706">
        <ele>602.6</ele>
        <time>2022-06-14T07:51:58.000Z</time>
      </trkpt>
      <trkpt lat="45.37041" lon="2.38705">
        <ele>602.5</ele>
        <time>2022-06-14T07:51:59.000Z</time>
      </trkpt>
      <trkpt lat="45.3704" lon="2.38703">
        <ele>602.3</ele>
        <time>2022-06-14T07:52:00.000Z</time>
      </trkpt>
      <trkpt lat="45.37039" lon="2.38702">
        <ele>602.2</ele>
        <time>2022-06-14T07:52:01.000Z</time>
      </trkpt>
      <trkpt lat="45.37038" lon="2.38701">
        <ele>602.1</ele>
        <time>2022-06-14T07:52:02.000Z</time>
      </trkpt>
      <trkpt lat="45.37037" lon="2.38699">
        <ele>602</ele>
        <time>2022-06-14T07:52:03.000Z</time>
      </trkpt>
      <trkpt lat="45.37036" lon="2.38698">
        <ele>601.9</ele>
        <time>2022-06-14T07:52:04.000Z</time>
      </trkpt>
      <trkpt lat="45.37035" lon="2.38697">
        <ele>601.7</ele>
        <time>2022-06-14T07:52:05.000Z</time>
      </trkpt>
      <trkpt lat="45.37034" lon="2.38695">
        <ele>601.6</ele>
        <time>2022-06-14T07:52:06.000Z</time>
      </trkpt>
      <trkpt lat="45.37033" lon="2.38694">
        <ele>601.5</ele>
        <time>2022-06-14T07:52:07.000Z</time>
      </trkpt>
      <trkpt lat="45.37033" lon="2.38692">
        <ele>601.4</ele>
        <time>2022-06-14T07:52:08.000Z</time>
      </trkpt>
      <trkpt lat="45.37032" lon="2.38691">
        <ele>601.3</ele>
        <time>2022-06-14T07:52:09.000Z</time>
      </trkpt>
      <trkpt lat="45.37031" lon="2.3869">
        <ele>601.1</ele>
        <time>2022-06-14T07:52:10.000Z</time>
      </trkpt>
      <trkpt lat="45.3703" lon="2.38688">
        <ele>601</ele>
        <time>2022-06-14T07:52:11.000Z</time>
      </trkpt>
      <trkpt lat="45.37029" lon="2.38687">
        <ele>600.9</ele>
        <time>2022-06-14T07:52:12.000Z</time>
      </trkpt>
      <trkpt lat="45.37029" lon="2.38685">
        <ele>600.8</ele>
        <time>2022-06-14T07:52:13.000Z</time>
      </trkpt>
      <trkpt lat="45.37028" lon="2.38684">
        <ele>600.7</ele>
        <time>2022-06-14T07:52:14.000Z</time>
      </trkpt>
      <trkpt lat="45.37027" lon="2.38682">
        <ele>600.6</ele>
        <time>2022-06-14T07:52:15.000Z</time>
      </trkpt>
      <trkpt lat="45.37026" lon="2.3868">
        <ele>600.4</ele>
        <time>2022-06-14T07:52:16.000Z</time>
      </trkpt>
      <trkpt lat="45.37026" lon="2.38679">
        <ele>600.3</ele>
        <time>2022-06-14T07:52:17.000Z</time>
      </trkpt>
      <trkpt lat="45.37025" lon="2.38677">
        <ele>600.2</ele>
        <time>2022-06-14T07:52:18.000Z</time>
      </trkpt>
      <trkpt lat="45.37024" lon="2.38676">
        <ele>600.1</ele>
        <time>2022-06-14T07:52:19.000Z</time>
      </trkpt>
      <trkpt lat="45.37024" lon="2.38674">
        <ele>600</ele>
        <time>2022-06-14T07:52:20.000Z</time>
      </trkpt>
      <trkpt lat="45.37023" lon="2.38672">
        <ele>599.9</ele>
        <time>2022-06-14T07:52:21.000Z</time>
      </trkpt>
      <trkpt lat="45.37022" lon="2.38671">
        <ele>599.8</ele>
        <time>2022-06-14T07:52:22.000Z</time>
      </trkpt>
      <trkpt lat="45.37022" lon="2.38669">
        <ele>599.7</ele>
        <time>2022-06-14T07:52:23.000Z</time>
      </trkpt>
      <trkpt lat="45.37021" lon="2.38667">
        <ele>599.5</ele>
        <time>2022-06-14T07:52:24.000Z</time>
      </trkpt>
      <trkpt lat="45.37021" lon="2.38666">
        <ele>599.5</ele>
        <time>2022-06-14T07:52:25.000Z</time>
      </trkpt>
      <trkpt lat="45.3702" lon="2.38664">
        <ele>599.4</ele>
        <time>2022-06-14T07:52:26.000Z</time>
      </trkpt>
      <trkpt lat="45.37019" lon="2.38662">
        <ele>599.3</ele>
        <time>2022-06-14T07:52:27.000Z</time>
      </trkpt>
      <trkpt lat="45.37019" lon="2.38661">
        <ele>599.3</ele>
        <time>2022-06-14T07:52:28.000Z</time>
      </trkpt>
      <trkpt lat="45.37018" lon="2.38659">
        <ele>599.2</ele>
        <time>2022-06-14T07:52:29.000Z</time>
      </trkpt>
      <trkpt lat="45.37018" lon="2.38657">
        <ele>599.1</ele>
        <time>2022-06-14T07:52:30.000Z</time>
      </trkpt>
      <trkpt lat="45.37017" lon="2.38656">
        <ele>599.1</ele>
        <time>2022-06-14T07:52:31.000Z</time>
      </trkpt>
      <trkpt lat="45.37017" lon="2.38654">
        <ele>599</ele>
        <time>2022-06-14T07:52:32.000Z</time>
      </trkpt>
      <trkpt lat="45.37016" lon="2.38652">
        <ele>598.9</ele>
        <time>2022-06-14T07:52:33.000Z</time>
      </trkpt>
      <trkpt lat="45.37016" lon="2.38651">
        <ele>598.9</ele>
        <time>2022-06-14T07:52:34.000Z</time>
      </trkpt>
      <trkpt lat="45.37015" lon="2.38649">
        <ele>598.8</ele>
        <time>2022-06-14T07:52:35.000Z</time>
      </trkpt>
      <trkpt lat="45.37015" lon="2.38647">
        <ele>598.8</ele>
        <time>2022-06-14T07:52:36.000Z</time>
      </trkpt>
      <trkpt lat="45.37014" lon="2.38646">
        <ele>598.7</ele>
        <time>2022-06-14T07:52:37.000Z</time>
      </trkpt>
      <trkpt lat="45.37013" lon="2.38644">
        <ele>598.6</ele>
        <time>2022-06-14T07:52:38.000Z</time>
      </trkpt>
      <trkpt lat="45.37013" lon="2.38642">
        <ele>598.6</ele>
        <time>2022-06-14T07:52:39.000Z</time>
      </trkpt>
      <trkpt lat="45.37012" lon="2.3864">
        <ele>598.5</ele>
        <time>2022-06-14T07:52:40.000Z</time>
      </trkpt>
      <trkpt lat="45.37012" lon="2.38639">
        <ele>598.5</ele>
        <time>2022-06-14T07:52:41.000Z</time>
      </trkpt>
      <trkpt lat="45.37011" lon="2.38637">
        <ele>598.4</ele>
        <time>2022-06-14T07:52:42.000Z</time>
      </trkpt>
      <trkpt lat="45.37011" lon="2.38635">
        <ele>598.4</ele>
        <time>2022-06-14T07:52:43.000Z</time>
      </trkpt>
      <trkpt lat="45.3701" lon="2.38634">
        <ele>598.3</ele>
        <time>2022-06-14T07:52:44.000Z</time>
      </trkpt>
      <trkpt lat="45.3701" lon="2.38632">
        <ele>598.2</ele>
        <time>2022-06-14T07:52:45.000Z</time>
      </trkpt>
      <trkpt lat="45.37009" lon="2.3863">
        <ele>598.2</ele>
        <time>2022-06-14T07:52:46.000Z</time>
      </trkpt>
      <trkpt lat="45.37009" lon="2.38628">
        <ele>598.1</ele>
        <time>2022-06-14T07:52:47.000Z</time>
      </trkpt>
      <trkpt lat="45.37008" lon="2.38627">
        <ele>598.1</ele>
        <time>2022-06-14T07:52:48.000Z</time>
      </trkpt>
      <trkpt lat="45.37008" lon="2.38625">
        <ele>598</ele>
        <time>2022-06-14T07:52:49.000Z</time>
      </trkpt>
      <trkpt lat="45.37007" lon="2.38623">
        <ele>598</ele>
        <time>2022-06-14T07:52:50.000Z</time>
      </trkpt>
      <trkpt lat="45.37007" lon="2.38621">
        <ele>597.9</ele>
        <time>2022-06-14T07:52:51.000Z</time>
      </trkpt>
      <trkpt lat="45.37006" lon="2.3862">
        <ele>597.9</ele>
        <time>2022-06-14T07:52:52.000Z</time>
      </trkpt>
      <trkpt lat="45.37005" lon="2.38618">
        <ele>597.8</ele>
        <time>2022-06-14T07:52:53.000Z</time>
      </trkpt>
      <trkpt lat="45.37005" lon="2.38616">
        <ele>597.8</ele>
        <time>2022-06-14T07:52:54.000Z</time>
      </trkpt>
      <trkpt lat="45.37004" lon="2.38614">
        <ele>597.7</ele>
        <time>2022-06-14T07:52:55.000Z</time>
      </trkpt>
      <trkpt lat="45.37004" lon="2.38613">
        <ele>597.7</ele>
        <time>2022-06-14T07:52:56.000Z</time>
      </trkpt>
      <trkpt lat="45.37003" lon="2.38611">
        <ele>597.7</ele>
        <time>2022-06-14T07:52:57.000Z</time>
      </trkpt>
      <trkpt lat="45.37003" lon="2.38609">
        <ele>597.6</ele>
        <time>2022-06-14T07:52:58.000Z</time>
      </trkpt>
      <trkpt lat="45.37002" lon="2.38607">
        <ele>597.6</ele>
        <time>2022-06-14T07:52:59.000Z</time>
      </trkpt>
      <trkpt lat="45.37001" lon="2.38605">
        <ele>597.5</ele>
        <time>2022-06-14T07:53:00.000Z</time>
      </trkpt>
      <trkpt lat="45.37001" lon="2.38604">
        <ele>597.5</ele>
        <time>2022-06-14T07:53:01.000Z</time>
      </trkpt>
      <trkpt lat="45.37" lon="2.38602">
        <ele>597.4</ele>
        <time>2022-06-14T07:53:02.000Z</time>
      </trkpt>
      <trkpt lat="45.37" lon="2.386">
        <ele>597.4</ele>
        <time>2022-06-14T07:53:03.000Z</time>
      </trkpt>
      <trkpt lat="45.36999" lon="2.38598">
        <ele>597.3</ele>
        <time>2022-06-14T07:53:04.000Z</time>
      </trkpt>
      <trkpt lat="45.36998" lon="2.38596">
        <ele>597.2</ele>
        <time>2022-06-14T07:53:05.000Z</time>
      </trkpt>
      <trkpt lat="45.36998" lon="2.38595">
        <ele>597.1</ele>
        <time>2022-06-14T07:53:06.000Z</time>
      </trkpt>
      <trkpt lat="45.36997" lon="2.38593">
        <ele>597</ele>
        <time>2022-06-14T07:53:07.000Z</time>
      </trkpt>
      <trkpt lat="45.36997" lon="2.38591">
        <ele>596.9</ele>
        <time>2022-06-14T07:53:08.000Z</time>
      </trkpt>
      <trkpt lat="45.36996" lon="2.38589">
        <ele>596.8</ele>
        <time>2022-06-14T07:53:09.000Z</time>
      </trkpt>
      <trkpt lat="45.36996" lon="2.38587">
        <ele>596.7</ele>
        <time>2022-06-14T07:53:10.000Z</time>
      </trkpt>
      <trkpt lat="45.36995" lon="2.38586">
        <ele>596.6</ele>
        <time>2022-06-14T07:53:11.000Z</time>
      </trkpt>
      <trkpt lat="45.36994" lon="2.38584">
        <ele>596.5</ele>
        <time>2022-06-14T07:53:12.000Z</time>
      </trkpt>
      <trkpt lat="45.36994" lon="2.38582">
        <ele>596.4</ele>
        <time>2022-06-14T07:53:13.000Z</time>
      </trkpt>
      <trkpt lat="45.36993" lon="2.3858">
        <ele>596.3</ele>
        <time>2022-06-14T07:53:14.000Z</time>
      </trkpt>
      <trkpt lat="45.36993" lon="2.38578">
        <ele>596.2</ele>
        <time>2022-06-14T07:53:15.000Z</time>
      </trkpt>
      <trkpt lat="45.36992" lon="2.38577">
        <ele>596.1</ele>
        <time>2022-06-14T07:53:16.000Z</time>
      </trkpt>
      <trkpt lat="45.36992" lon="2.38575">
        <ele>596</ele>
        <time>2022-06-14T07:53:17.000Z</time>
      </trkpt>
      <trkpt lat="45.36991" lon="2.38573">
        <ele>595.9</ele>
        <time>2022-06-14T07:53:18.000Z</time>
      </trkpt>
      <trkpt lat="45.3699" lon="2.38571">
        <ele>595.8</ele>
        <time>2022-06-14T07:53:19.000Z</time>
      </trkpt>
      <trkpt lat="45.3699" lon="2.38569">
        <ele>595.7</ele>
        <time>2022-06-14T07:53:20.000Z</time>
      </trkpt>
      <trkpt lat="45.36989" lon="2.38568">
        <ele>595.6</ele>
        <time>2022-06-14T07:53:21.000Z</time>
      </trkpt>
      <trkpt lat="45.36989" lon="2.38566">
        <ele>595.5</ele>
        <time>2022-06-14T07:53:22.000Z</time>
      </trkpt>
      <trkpt lat="45.36988" lon="2.38564">
        <ele>595.4</ele>
        <time>2022-06-14T07:53:23.000Z</time>
      </trkpt>
      <trkpt lat="45.36988" lon="2.38562">
        <ele>595.3</ele>
        <time>2022-06-14T07:53:24.000Z</time>
      </trkpt>
      <trkpt lat="45.36987" lon="2.3856">
        <ele>595.2</ele>
        <time>2022-06-14T07:53:25.000Z</time>
      </trkpt>
      <trkpt lat="45.36987" lon="2.38559">
        <ele>595.1</ele>
        <time>2022-06-14T07:53:26.000Z</time>
      </trkpt>
      <trkpt lat="45.36986" lon="2.38557">
        <ele>595</ele>
        <time>2022-06-14T07:53:27.000Z</time>
      </trkpt>
      <trkpt lat="45.36985" lon="2.38555">
        <ele>594.9</ele>
        <time>2022-06-14T07:53:28.000Z</time>
      </trkpt>
      <trkpt lat="45.36985" lon="2.38553">
        <ele>594.8</ele>
        <time>2022-06-14T07:53:29.000Z</time>
      </trkpt>
      <trkpt lat="45.36984" lon="2.38551">
        <ele>594.7</ele>
        <time>2022-06-14T07:53:30.000Z</time>
      </trkpt>
      <trkpt lat="45.36984" lon="2.3855">
        <ele>594.7</ele>
        <time>2022-06-14T07:53:31.000Z</time>
      </trkpt>
      <trkpt lat="45.36983" lon="2.38548">
        <ele>594.6</ele>
        <time>2022-06-14T07:53:32.000Z</time>
      </trkpt>
      <trkpt lat="45.36983" lon="2.38546">
        <ele>594.5</ele>
        <time>2022-06-14T07:53:33.000Z</time>
      </trkpt>
      <trkpt lat="45.36982" lon="2.38544">
        <ele>594.4</ele>
        <time>2022-06-14T07:53:34.000Z</time>
      </trkpt>
      <trkpt lat="45.36981" lon="2.38543">
        <ele>594.3</ele>
        <time>2022-06-14T07:53:35.000Z</time>
      </trkpt>
      <trkpt lat="45.36981" lon="2.38541">
        <ele>594.2</ele>
        <time>2022-06-14T07:53:36.000Z</time>
      </trkpt>
      <trkpt lat="45.3698" lon="2.38539">
        <ele>594.1</ele>
        <time>2022-06-14T07:53:37.000Z</time>
      </trkpt>
      <trkpt lat="45.3698" lon="2.38538">
        <ele>594</ele>
        <time>2022-06-14T07:53:38.000Z</time>
      </trkpt>
      <trkpt lat="45.36979" lon="2.38536">
        <ele>594</ele>
        <time>2022-06-14T07:53:39.000Z</time>
      </trkpt>
      <trkpt lat="45.36979" lon="2.38534">
        <ele>593.9</ele>
        <time>2022-06-14T07:53:40.000Z</time>
      </trkpt>
      <trkpt lat="45.36978" lon="2.38533">
        <ele>593.8</ele>
        <time>2022-06-14T07:53:41.000Z</time>
      </trkpt>
      <trkpt lat="45.36977" lon="2.38531">
        <ele>593.7</ele>
        <time>2022-06-14T07:53:42.000Z</time>
      </trkpt>
      <trkpt lat="45.36977" lon="2.38529">
        <ele>593.6</ele>
        <time>2022-06-14T07:53:43.000Z</time>
      </trkpt>
      <trkpt lat="45.36976" lon="2.38527">
        <ele>593.6</ele>
        <time>2022-06-14T07:53:44.000Z</time>
      </trkpt>
      <trkpt lat="45.36976" lon="2.38526">
        <ele>593.5</ele>
        <time>2022-06-14T07:53:45.000Z</time>
      </trkpt>
      <trkpt lat="45.36975" lon="2.38524">
        <ele>593.4</ele>
        <time>2022-06-14T07:53:46.000Z</time>
      </trkpt>
      <trkpt lat="45.36974" lon="2.38522">
        <ele>593.3</ele>
        <time>2022-06-14T07:53:47.000Z</time>
      </trkpt>
      <trkpt lat="45.36974" lon="2.38521">
        <ele>593.3</ele>
        <time>2022-06-14T07:53:48.000Z</time>
      </trkpt>
      <trkpt lat="45.36974" lon="2.3852">
        <ele>593.2</ele>
        <time>2022-06-14T07:53:49.000Z</time>
      </trkpt>
      <trkpt lat="45.36973" lon="2.38519">
        <ele>593.2</ele>
        <time>2022-06-14T07:53:54.000Z</time>
      </trkpt>
      <trkpt lat="45.36973" lon="2.38518">
        <ele>593.1</ele>
        <time>2022-06-14T07:53:55.000Z</time>
      </trkpt>
      <trkpt lat="45.36972" lon="2.38517">
        <ele>593.1</ele>
        <time>2022-06-14T07:53:56.000Z</time>
      </trkpt>
      <trkpt lat="45.36972" lon="2.38515">
        <ele>593</ele>
        <time>2022-06-14T07:53:57.000Z</time>
      </trkpt>
      <trkpt lat="45.36971" lon="2.38514">
        <ele>592.9</ele>
        <time>2022-06-14T07:53:58.000Z</time>
      </trkpt>
      <trkpt lat="45.36971" lon="2.38513">
        <ele>592.9</ele>
        <time>2022-06-14T07:53:59.000Z</time>
      </trkpt>
      <trkpt lat="45.3697" lon="2.38512">
        <ele>592.8</ele>
        <time>2022-06-14T07:54:00.000Z</time>
      </trkpt>
      <trkpt lat="45.3697" lon="2.3851">
        <ele>592.8</ele>
        <time>2022-06-14T07:54:01.000Z</time>
      </trkpt>
      <trkpt lat="45.36969" lon="2.38509">
        <ele>592.7</ele>
        <time>2022-06-14T07:54:02.000Z</time>
      </trkpt>
      <trkpt lat="45.36969" lon="2.38508">
        <ele>592.7</ele>
        <time>2022-06-14T07:54:03.000Z</time>
      </trkpt>
      <trkpt lat="45.36968" lon="2.38507">
        <ele>592.6</ele>
        <time>2022-06-14T07:54:04.000Z</time>
      </trkpt>
      <trkpt lat="45.36968" lon="2.38506">
        <ele>592.6</ele>
        <time>2022-06-14T07:54:05.000Z</time>
      </trkpt>
      <trkpt lat="45.36967" lon="2.38505">
        <ele>592.5</ele>
        <time>2022-06-14T07:54:06.000Z</time>
      </trkpt>
      <trkpt lat="45.36967" lon="2.38503">
        <ele>592.5</ele>
        <time>2022-06-14T07:54:07.000Z</time>
      </trkpt>
      <trkpt lat="45.36966" lon="2.38502">
        <ele>592.4</ele>
        <time>2022-06-14T07:54:08.000Z</time>
      </trkpt>
      <trkpt lat="45.36966" lon="2.385">
        <ele>592.4</ele>
        <time>2022-06-14T07:54:09.000Z</time>
      </trkpt>
      <trkpt lat="45.36965" lon="2.38498">
        <ele>592.3</ele>
        <time>2022-06-14T07:54:10.000Z</time>
      </trkpt>
      <trkpt lat="45.36965" lon="2.38497">
        <ele>592.3</ele>
        <time>2022-06-14T07:54:11.000Z</time>
      </trkpt>
      <trkpt lat="45.36965" lon="2.38495">
        <ele>592.2</ele>
        <time>2022-06-14T07:54:12.000Z</time>
      </trkpt>
      <trkpt lat="45.36964" lon="2.38494">
        <ele>592.2</ele>
        <time>2022-06-14T07:54:13.000Z</time>
      </trkpt>
      <trkpt lat="45.36964" lon="2.38492">
        <ele>592.2</ele>
        <time>2022-06-14T07:54:14.000Z</time>
      </trkpt>
      <trkpt lat="45.36964" lon="2.38491">
        <ele>592.2</ele>
        <time>2022-06-14T07:54:15.000Z</time>
      </trkpt>
      <trkpt lat="45.36965" lon="2.38491">
        <ele>592.2</ele>
        <time>2022-06-14T07:54:16.000Z</time>
      </trkpt>
      <trkpt lat="45.36965" lon="2.3849">
        <ele>592.2</ele>
        <time>2022-06-14T07:54:17.000Z</time>
      </trkpt>
      <trkpt lat="45.36965" lon="2.3849">
        <ele>592.2</ele>
        <time>2022-06-14T07:54:37.000Z</time>
      </trkpt>
      <trkpt lat="45.36965" lon="2.38489">
        <ele>592.2</ele>
        <time>2022-06-14T07:54:38.000Z</time>
      </trkpt>
      <trkpt lat="45.36965" lon="2.38488">
        <ele>592.1</ele>
        <time>2022-06-14T07:54:39.000Z</time>
      </trkpt>
      <trkpt lat="45.36965" lon="2.38487">
        <ele>592.1</ele>
        <time>2022-06-14T07:54:40.000Z</time>
      </trkpt>
      <trkpt lat="45.36965" lon="2.38486">
        <ele>592.1</ele>
        <time>2022-06-14T07:54:41.000Z</time>
      </trkpt>
      <trkpt lat="45.36966" lon="2.38484">
        <ele>592.1</ele>
        <time>2022-06-14T07:54:42.000Z</time>
      </trkpt>
      <trkpt lat="45.36966" lon="2.38483">
        <ele>592.1</ele>
        <time>2022-06-14T07:54:43.000Z</time>
      </trkpt>
      <trkpt lat="45.36967" lon="2.38482">
        <ele>592.1</ele>
        <time>2022-06-14T07:54:44.000Z</time>
      </trkpt>
      <trkpt lat="45.36968" lon="2.38481">
        <ele>592.2</ele>
        <time>2022-06-14T07:54:45.000Z</time>
      </trkpt>
      <trkpt lat="45.36969" lon="2.3848">
        <ele>592.2</ele>
        <time>2022-06-14T07:54:46.000Z</time>
      </trkpt>
      <trkpt lat="45.3697" lon="2.38479">
        <ele>592.2</ele>
        <time>2022-06-14T07:54:47.000Z</time>
      </trkpt>
      <trkpt lat="45.36971" lon="2.38478">
        <ele>592.2</ele>
        <time>2022-06-14T07:54:48.000Z</time>
      </trkpt>
      <trkpt lat="45.36972" lon="2.38477">
        <ele>592.3</ele>
        <time>2022-06-14T07:54:49.000Z</time>
      </trkpt>
      <trkpt lat="45.36973" lon="2.38477">
        <ele>592.3</ele>
        <time>2022-06-14T07:54:50.000Z</time>
      </trkpt>
      <trkpt lat="45.36974" lon="2.38476">
        <ele>592.4</ele>
        <time>2022-06-14T07:54:51.000Z</time>
      </trkpt>
      <trkpt lat="45.36975" lon="2.38475">
        <ele>592.4</ele>
        <time>2022-06-14T07:54:52.000Z</time>
      </trkpt>
      <trkpt lat="45.36976" lon="2.38474">
        <ele>592.4</ele>
        <time>2022-06-14T07:54:53.000Z</time>
      </trkpt>
      <trkpt lat="45.36978" lon="2.38474">
        <ele>592.5</ele>
        <time>2022-06-14T07:54:54.000Z</time>
      </trkpt>
      <trkpt lat="45.36979" lon="2.38473">
        <ele>592.5</ele>
        <time>2022-06-14T07:54:55.000Z</time>
      </trkpt>
      <trkpt lat="45.3698" lon="2.38472">
        <ele>592.5</ele>
        <time>2022-06-14T07:54:56.000Z</time>
      </trkpt>
      <trkpt lat="45.36981" lon="2.38472">
        <ele>592.6</ele>
        <time>2022-06-14T07:54:57.000Z</time>
      </trkpt>
      <trkpt lat="45.36983" lon="2.38471">
        <ele>592.6</ele>
        <time>2022-06-14T07:54:58.000Z</time>
      </trkpt>
      <trkpt lat="45.36984" lon="2.3847">
        <ele>592.6</ele>
        <time>2022-06-14T07:54:59.000Z</time>
      </trkpt>
      <trkpt lat="45.36985" lon="2.38469">
        <ele>592.7</ele>
        <time>2022-06-14T07:55:00.000Z</time>
      </trkpt>
      <trkpt lat="45.36986" lon="2.38468">
        <ele>592.7</ele>
        <time>2022-06-14T07:55:01.000Z</time>
      </trkpt>
      <trkpt lat="45.36988" lon="2.38468">
        <ele>592.7</ele>
        <time>2022-06-14T07:55:02.000Z</time>
      </trkpt>
      <trkpt lat="45.36989" lon="2.38467">
        <ele>592.8</ele>
        <time>2022-06-14T07:55:03.000Z</time>
      </trkpt>
      <trkpt lat="45.3699" lon="2.38466">
        <ele>592.8</ele>
        <time>2022-06-14T07:55:04.000Z</time>
      </trkpt>
      <trkpt lat="45.36991" lon="2.38465">
        <ele>592.8</ele>
        <time>2022-06-14T07:55:05.000Z</time>
      </trkpt>
      <trkpt lat="45.36993" lon="2.38465">
        <ele>592.9</ele>
        <time>2022-06-14T07:55:06.000Z</time>
      </trkpt>
      <trkpt lat="45.36994" lon="2.38464">
        <ele>592.9</ele>
        <time>2022-06-14T07:55:07.000Z</time>
      </trkpt>
      <trkpt lat="45.36995" lon="2.38463">
        <ele>592.9</ele>
        <time>2022-06-14T07:55:08.000Z</time>
      </trkpt>
      <trkpt lat="45.36996" lon="2.38462">
        <ele>593</ele>
        <time>2022-06-14T07:55:09.000Z</time>
      </trkpt>
      <trkpt lat="45.36998" lon="2.38461">
        <ele>593</ele>
        <time>2022-06-14T07:55:10.000Z</time>
      </trkpt>
      <trkpt lat="45.36999" lon="2.38461">
        <ele>593</ele>
        <time>2022-06-14T07:55:11.000Z</time>
      </trkpt>
      <trkpt lat="45.37" lon="2.3846">
        <ele>593</ele>
        <time>2022-06-14T07:55:12.000Z</time>
      </trkpt>
      <trkpt lat="45.37001" lon="2.38459">
        <ele>593</ele>
        <time>2022-06-14T07:55:13.000Z</time>
      </trkpt>
      <trkpt lat="45.37003" lon="2.38458">
        <ele>592.9</ele>
        <time>2022-06-14T07:55:14.000Z</time>
      </trkpt>
      <trkpt lat="45.37004" lon="2.38458">
        <ele>592.8</ele>
        <time>2022-06-14T07:55:15.000Z</time>
      </trkpt>
      <trkpt lat="45.37005" lon="2.38457">
        <ele>592.8</ele>
        <time>2022-06-14T07:55:16.000Z</time>
      </trkpt>
      <trkpt lat="45.37006" lon="2.38456">
        <ele>592.7</ele>
        <time>2022-06-14T07:55:17.000Z</time>
      </trkpt>
      <trkpt lat="45.37008" lon="2.38455">
        <ele>592.6</ele>
        <time>2022-06-14T07:55:18.000Z</time>
      </trkpt>
      <trkpt lat="45.37009" lon="2.38454">
        <ele>592.6</ele>
        <time>2022-06-14T07:55:19.000Z</time>
      </trkpt>
      <trkpt lat="45.3701" lon="2.38454">
        <ele>592.5</ele>
        <time>2022-06-14T07:55:20.000Z</time>
      </trkpt>
      <trkpt lat="45.37011" lon="2.38453">
        <ele>592.4</ele>
        <time>2022-06-14T07:55:21.000Z</time>
      </trkpt>
      <trkpt lat="45.37013" lon="2.38452">
        <ele>592.4</ele>
        <time>2022-06-14T07:55:22.000Z</time>
      </trkpt>
      <trkpt lat="45.37014" lon="2.38451">
        <ele>592.3</ele>
        <time>2022-06-14T07:55:23.000Z</time>
      </trkpt>
      <trkpt lat="45.37015" lon="2.3845">
        <ele>592.2</ele>
        <time>2022-06-14T07:55:24.000Z</time>
      </trkpt>
      <trkpt lat="45.37016" lon="2.3845">
        <ele>592.2</ele>
        <time>2022-06-14T07:55:25.000Z</time>
      </trkpt>
      <trkpt lat="45.37018" lon="2.38449">
        <ele>592.1</ele>
        <time>2022-06-14T07:55:26.000Z</time>
      </trkpt>
      <trkpt lat="45.37019" lon="2.38448">
        <ele>592</ele>
        <time>2022-06-14T07:55:27.000Z</time>
      </trkpt>
      <trkpt lat="45.3702" lon="2.38447">
        <ele>591.9</ele>
        <time>2022-06-14T07:55:28.000Z</time>
      </trkpt>
      <trkpt lat="45.37021" lon="2.38446">
        <ele>591.9</ele>
        <time>2022-06-14T07:55:29.000Z</time>
      </trkpt>
      <trkpt lat="45.37022" lon="2.38445">
        <ele>591.8</ele>
        <time>2022-06-14T07:55:30.000Z</time>
      </trkpt>
      <trkpt lat="45.37024" lon="2.38445">
        <ele>591.7</ele>
        <time>2022-06-14T07:55:31.000Z</time>
      </trkpt>
      <trkpt lat="45.37025" lon="2.38444">
        <ele>591.6</ele>
        <time>2022-06-14T07:55:32.000Z</time>
      </trkpt>
      <trkpt lat="45.37026" lon="2.38443">
        <ele>591.6</ele>
        <time>2022-06-14T07:55:33.000Z</time>
      </trkpt>
      <trkpt lat="45.37027" lon="2.38442">
        <ele>591.5</ele>
        <time>2022-06-14T07:55:34.000Z</time>
      </trkpt>
      <trkpt lat="45.37029" lon="2.38441">
        <ele>591.4</ele>
        <time>2022-06-14T07:55:35.000Z</time>
      </trkpt>
      <trkpt lat="45.3703" lon="2.3844">
        <ele>591.3</ele>
        <time>2022-06-14T07:55:36.000Z</time>
      </trkpt>
      <trkpt lat="45.37031" lon="2.3844">
        <ele>591.3</ele>
        <time>2022-06-14T07:55:37.000Z</time>
      </trkpt>
      <trkpt lat="45.37032" lon="2.38439">
        <ele>591.2</ele>
        <time>2022-06-14T07:55:38.000Z</time>
      </trkpt>
      <trkpt lat="45.37033" lon="2.38438">
        <ele>591.1</ele>
        <time>2022-06-14T07:55:39.000Z</time>
      </trkpt>
      <trkpt lat="45.37034" lon="2.38437">
        <ele>591</ele>
        <time>2022-06-14T07:55:40.000Z</time>
      </trkpt>
      <trkpt lat="45.37036" lon="2.38436">
        <ele>591</ele>
        <time>2022-06-14T07:55:41.000Z</time>
      </trkpt>
      <trkpt lat="45.37037" lon="2.38435">
        <ele>590.9</ele>
        <time>2022-06-14T07:55:42.000Z</time>
      </trkpt>
      <trkpt lat="45.37038" lon="2.38435">
        <ele>590.8</ele>
        <time>2022-06-14T07:55:43.000Z</time>
      </trkpt>
      <trkpt lat="45.37039" lon="2.38434">
        <ele>590.7</ele>
        <time>2022-06-14T07:55:44.000Z</time>
      </trkpt>
      <trkpt lat="45.3704" lon="2.38433">
        <ele>590.6</ele>
        <time>2022-06-14T07:55:45.000Z</time>
      </trkpt>
      <trkpt lat="45.37042" lon="2.38432">
        <ele>590.6</ele>
        <time>2022-06-14T07:55:46.000Z</time>
      </trkpt>
      <trkpt lat="45.37043" lon="2.38431">
        <ele>590.5</ele>
        <time>2022-06-14T07:55:47.000Z</time>
      </trkpt>
      <trkpt lat="45.37044" lon="2.3843">
        <ele>590.4</ele>
        <time>2022-06-14T07:55:48.000Z</time>
      </trkpt>
      <trkpt lat="45.37045" lon="2.3843">
        <ele>590.3</ele>
        <time>2022-06-14T07:55:49.000Z</time>
      </trkpt>
      <trkpt lat="45.37046" lon="2.38429">
        <ele>590.2</ele>
        <time>2022-06-14T07:55:50.000Z</time>
      </trkpt>
      <trkpt lat="45.37048" lon="2.38428">
        <ele>590.1</ele>
        <time>2022-06-14T07:55:51.000Z</time>
      </trkpt>
      <trkpt lat="45.37049" lon="2.38427">
        <ele>590.1</ele>
        <time>2022-06-14T07:55:52.000Z</time>
      </trkpt>
      <trkpt lat="45.3705" lon="2.38426">
        <ele>590</ele>
        <time>2022-06-14T07:55:53.000Z</time>
      </trkpt>
      <trkpt lat="45.37051" lon="2.38426">
        <ele>589.9</ele>
        <time>2022-06-14T07:55:54.000Z</time>
      </trkpt>
      <trkpt lat="45.37052" lon="2.38425">
        <ele>589.8</ele>
        <time>2022-06-14T07:55:55.000Z</time>
      </trkpt>
      <trkpt lat="45.37053" lon="2.38424">
        <ele>589.7</ele>
        <time>2022-06-14T07:55:56.000Z</time>
      </trkpt>
      <trkpt lat="45.37055" lon="2.38423">
        <ele>589.6</ele>
        <time>2022-06-14T07:55:57.000Z</time>
      </trkpt>
      <trkpt lat="45.37056" lon="2.38422">
        <ele>589.5</ele>
        <time>2022-06-14T07:55:58.000Z</time>
      </trkpt>
      <trkpt lat="45.37057" lon="2.38421">
        <ele>589.5</ele>
        <time>2022-06-14T07:55:59.000Z</time>
      </trkpt>
      <trkpt lat="45.37058" lon="2.38421">
        <ele>589.4</ele>
        <time>2022-06-14T07:56:00.000Z</time>
      </trkpt>
      <trkpt lat="45.37059" lon="2.3842">
        <ele>589.3</ele>
        <time>2022-06-14T07:56:01.000Z</time>
      </trkpt>
      <trkpt lat="45.3706" lon="2.38419">
        <ele>589.2</ele>
        <time>2022-06-14T07:56:02.000Z</time>
      </trkpt>
      <trkpt lat="45.37062" lon="2.38418">
        <ele>589.1</ele>
        <time>2022-06-14T07:56:03.000Z</time>
      </trkpt>
      <trkpt lat="45.37063" lon="2.38417">
        <ele>589</ele>
        <time>2022-06-14T07:56:04.000Z</time>
      </trkpt>
      <trkpt lat="45.37064" lon="2.38416">
        <ele>588.9</ele>
        <time>2022-06-14T07:56:05.000Z</time>
      </trkpt>
      <trkpt lat="45.37065" lon="2.38415">
        <ele>588.9</ele>
        <time>2022-06-14T07:56:06.000Z</time>
      </trkpt>
      <trkpt lat="45.37066" lon="2.38414">
        <ele>588.8</ele>
        <time>2022-06-14T07:56:07.000Z</time>
      </trkpt>
      <trkpt lat="45.37067" lon="2.38414">
        <ele>588.7</ele>
        <time>2022-06-14T07:56:08.000Z</time>
      </trkpt>
      <trkpt lat="45.37069" lon="2.38413">
        <ele>588.6</ele>
        <time>2022-06-14T07:56:09.000Z</time>
      </trkpt>
      <trkpt lat="45.3707" lon="2.38412">
        <ele>588.6</ele>
        <time>2022-06-14T07:56:10.000Z</time>
      </trkpt>
      <trkpt lat="45.37071" lon="2.38411">
        <ele>588.5</ele>
        <time>2022-06-14T07:56:11.000Z</time>
      </trkpt>
      <trkpt lat="45.37072" lon="2.3841">
        <ele>588.4</ele>
        <time>2022-06-14T07:56:12.000Z</time>
      </trkpt>
      <trkpt lat="45.37073" lon="2.38409">
        <ele>588.4</ele>
        <time>2022-06-14T07:56:13.000Z</time>
      </trkpt>
      <trkpt lat="45.37074" lon="2.38408">
        <ele>588.3</ele>
        <time>2022-06-14T07:56:14.000Z</time>
      </trkpt>
      <trkpt lat="45.37075" lon="2.38407">
        <ele>588.2</ele>
        <time>2022-06-14T07:56:15.000Z</time>
      </trkpt>
      <trkpt lat="45.37077" lon="2.38406">
        <ele>588.2</ele>
        <time>2022-06-14T07:56:16.000Z</time>
      </trkpt>
      <trkpt lat="45.37078" lon="2.38405">
        <ele>588.1</ele>
        <time>2022-06-14T07:56:17.000Z</time>
      </trkpt>
      <trkpt lat="45.37079" lon="2.38404">
        <ele>588</ele>
        <time>2022-06-14T07:56:18.000Z</time>
      </trkpt>
      <trkpt lat="45.3708" lon="2.38403">
        <ele>588</ele>
        <time>2022-06-14T07:56:19.000Z</time>
      </trkpt>
      <trkpt lat="45.37081" lon="2.38402">
        <ele>587.9</ele>
        <time>2022-06-14T07:56:20.000Z</time>
      </trkpt>
      <trkpt lat="45.37082" lon="2.38402">
        <ele>587.9</ele>
        <time>2022-06-14T07:56:21.000Z</time>
      </trkpt>
      <trkpt lat="45.37083" lon="2.38401">
        <ele>587.8</ele>
        <time>2022-06-14T07:56:22.000Z</time>
      </trkpt>
      <trkpt lat="45.37085" lon="2.384">
        <ele>587.8</ele>
        <time>2022-06-14T07:56:23.000Z</time>
      </trkpt>
      <trkpt lat="45.37086" lon="2.38399">
        <ele>587.8</ele>
        <time>2022-06-14T07:56:24.000Z</time>
      </trkpt>
      <trkpt lat="45.37087" lon="2.38398">
        <ele>587.8</ele>
        <time>2022-06-14T07:56:25.000Z</time>
      </trkpt>
      <trkpt lat="45.37088" lon="2.38397">
        <ele>587.8</ele>
        <time>2022-06-14T07:56:26.000Z</time>
      </trkpt>
      <trkpt lat="45.37089" lon="2.38396">
        <ele>587.8</ele>
        <time>2022-06-14T07:56:27.000Z</time>
      </trkpt>
      <trkpt lat="45.3709" lon="2.38395">
        <ele>587.8</ele>
        <time>2022-06-14T07:56:28.000Z</time>
      </trkpt>
      <trkpt lat="45.37092" lon="2.38395">
        <ele>587.8</ele>
        <time>2022-06-14T07:56:29.000Z</time>
      </trkpt>
      <trkpt lat="45.37093" lon="2.38394">
        <ele>587.8</ele>
        <time>2022-06-14T07:56:30.000Z</time>
      </trkpt>
      <trkpt lat="45.37094" lon="2.38393">
        <ele>587.8</ele>
        <time>2022-06-14T07:56:31.000Z</time>
      </trkpt>
      <trkpt lat="45.37095" lon="2.38392">
        <ele>587.8</ele>
        <time>2022-06-14T07:56:32.000Z</time>
      </trkpt>
      <trkpt lat="45.37096" lon="2.38391">
        <ele>587.8</ele>
        <time>2022-06-14T07:56:33.000Z</time>
      </trkpt>
      <trkpt lat="45.37098" lon="2.3839">
        <ele>587.7</ele>
        <time>2022-06-14T07:56:34.000Z</time>
      </trkpt>
      <trkpt lat="45.37099" lon="2.38389">
        <ele>587.7</ele>
        <time>2022-06-14T07:56:35.000Z</time>
      </trkpt>
      <trkpt lat="45.371" lon="2.38388">
        <ele>587.7</ele>
        <time>2022-06-14T07:56:36.000Z</time>
      </trkpt>
      <trkpt lat="45.37102" lon="2.38388">
        <ele>587.7</ele>
        <time>2022-06-14T07:56:37.000Z</time>
      </trkpt>
      <trkpt lat="45.37103" lon="2.38387">
        <ele>587.7</ele>
        <time>2022-06-14T07:56:38.000Z</time>
      </trkpt>
      <trkpt lat="45.37104" lon="2.38386">
        <ele>587.7</ele>
        <time>2022-06-14T07:56:39.000Z</time>
      </trkpt>
      <trkpt lat="45.37105" lon="2.38385">
        <ele>587.7</ele>
        <time>2022-06-14T07:56:40.000Z</time>
      </trkpt>
      <trkpt lat="45.37107" lon="2.38384">
        <ele>587.7</ele>
        <time>2022-06-14T07:56:41.000Z</time>
      </trkpt>
      <trkpt lat="45.37108" lon="2.38383">
        <ele>587.7</ele>
        <time>2022-06-14T07:56:42.000Z</time>
      </trkpt>
      <trkpt lat="45.37109" lon="2.38382">
        <ele>587.6</ele>
        <time>2022-06-14T07:56:43.000Z</time>
      </trkpt>
      <trkpt lat="45.3711" lon="2.38381">
        <ele>587.6</ele>
        <time>2022-06-14T07:56:44.000Z</time>
      </trkpt>
      <trkpt lat="45.37112" lon="2.38381">
        <ele>587.6</ele>
        <time>2022-06-14T07:56:45.000Z</time>
      </trkpt>
      <trkpt lat="45.37113" lon="2.3838">
        <ele>587.6</ele>
        <time>2022-06-14T07:56:46.000Z</time>
      </trkpt>
      <trkpt lat="45.37114" lon="2.38379">
        <ele>587.6</ele>
        <time>2022-06-14T07:56:47.000Z</time>
      </trkpt>
      <trkpt lat="45.37115" lon="2.38378">
        <ele>587.6</ele>
        <time>2022-06-14T07:56:48.000Z</time>
      </trkpt>
      <trkpt lat="45.37116" lon="2.38377">
        <ele>587.5</ele>
        <time>2022-06-14T07:56:49.000Z</time>
      </trkpt>
      <trkpt lat="45.37117" lon="2.38377">
        <ele>587.5</ele>
        <time>2022-06-14T07:56:50.000Z</time>
      </trkpt>
      <trkpt lat="45.37118" lon="2.38376">
        <ele>587.5</ele>
        <time>2022-06-14T07:56:51.000Z</time>
      </trkpt>
      <trkpt lat="45.37119" lon="2.38375">
        <ele>587.5</ele>
        <time>2022-06-14T07:56:52.000Z</time>
      </trkpt>
      <trkpt lat="45.3712" lon="2.38374">
        <ele>587.5</ele>
        <time>2022-06-14T07:56:53.000Z</time>
      </trkpt>
      <trkpt lat="45.37121" lon="2.38374">
        <ele>587.5</ele>
        <time>2022-06-14T07:56:54.000Z</time>
      </trkpt>
      <trkpt lat="45.37122" lon="2.38373">
        <ele>587.5</ele>
        <time>2022-06-14T07:56:55.000Z</time>
      </trkpt>
      <trkpt lat="45.37123" lon="2.38372">
        <ele>587.4</ele>
        <time>2022-06-14T07:56:56.000Z</time>
      </trkpt>
      <trkpt lat="45.37124" lon="2.38372">
        <ele>587.4</ele>
        <time>2022-06-14T07:56:57.000Z</time>
      </trkpt>
      <trkpt lat="45.37125" lon="2.38371">
        <ele>587.4</ele>
        <time>2022-06-14T07:56:58.000Z</time>
      </trkpt>
      <trkpt lat="45.37127" lon="2.3837">
        <ele>587.4</ele>
        <time>2022-06-14T07:56:59.000Z</time>
      </trkpt>
      <trkpt lat="45.37128" lon="2.3837">
        <ele>587.4</ele>
        <time>2022-06-14T07:57:00.000Z</time>
      </trkpt>
      <trkpt lat="45.37129" lon="2.38369">
        <ele>587.3</ele>
        <time>2022-06-14T07:57:01.000Z</time>
      </trkpt>
      <trkpt lat="45.3713" lon="2.38368">
        <ele>587.3</ele>
        <time>2022-06-14T07:57:02.000Z</time>
      </trkpt>
      <trkpt lat="45.37131" lon="2.38368">
        <ele>587.3</ele>
        <time>2022-06-14T07:57:03.000Z</time>
      </trkpt>
      <trkpt lat="45.37133" lon="2.38367">
        <ele>587.3</ele>
        <time>2022-06-14T07:57:04.000Z</time>
      </trkpt>
      <trkpt lat="45.37134" lon="2.38366">
        <ele>587.3</ele>
        <time>2022-06-14T07:57:05.000Z</time>
      </trkpt>
      <trkpt lat="45.37135" lon="2.38366">
        <ele>587.2</ele>
        <time>2022-06-14T07:57:06.000Z</time>
      </trkpt>
      <trkpt lat="45.37136" lon="2.38365">
        <ele>587.2</ele>
        <time>2022-06-14T07:57:07.000Z</time>
      </trkpt>
      <trkpt lat="45.37137" lon="2.38364">
        <ele>587.2</ele>
        <time>2022-06-14T07:57:08.000Z</time>
      </trkpt>
      <trkpt lat="45.37139" lon="2.38364">
        <ele>587.2</ele>
        <time>2022-06-14T07:57:09.000Z</time>
      </trkpt>
      <trkpt lat="45.3714" lon="2.38363">
        <ele>587.2</ele>
        <time>2022-06-14T07:57:10.000Z</time>
      </trkpt>
      <trkpt lat="45.37141" lon="2.38363">
        <ele>587.1</ele>
        <time>2022-06-14T07:57:11.000Z</time>
      </trkpt>
      <trkpt lat="45.37142" lon="2.38362">
        <ele>587.1</ele>
        <time>2022-06-14T07:57:12.000Z</time>
      </trkpt>
      <trkpt lat="45.37143" lon="2.38361">
        <ele>587.1</ele>
        <time>2022-06-14T07:57:13.000Z</time>
      </trkpt>
      <trkpt lat="45.37144" lon="2.38361">
        <ele>587.1</ele>
        <time>2022-06-14T07:57:14.000Z</time>
      </trkpt>
      <trkpt lat="45.37145" lon="2.3836">
        <ele>587.1</ele>
        <time>2022-06-14T07:57:15.000Z</time>
      </trkpt>
      <trkpt lat="45.37147" lon="2.3836">
        <ele>587</ele>
        <time>2022-06-14T07:57:16.000Z</time>
      </trkpt>
      <trkpt lat="45.37148" lon="2.38359">
        <ele>587</ele>
        <time>2022-06-14T07:57:17.000Z</time>
      </trkpt>
      <trkpt lat="45.3715" lon="2.38358">
        <ele>587</ele>
        <time>2022-06-14T07:57:18.000Z</time>
      </trkpt>
      <trkpt lat="45.37151" lon="2.38358">
        <ele>587</ele>
        <time>2022-06-14T07:57:19.000Z</time>
      </trkpt>
      <trkpt lat="45.37153" lon="2.38357">
        <ele>586.9</ele>
        <time>2022-06-14T07:57:20.000Z</time>
      </trkpt>
      <trkpt lat="45.37154" lon="2.38357">
        <ele>586.9</ele>
        <time>2022-06-14T07:57:22.000Z</time>
      </trkpt>
      <trkpt lat="45.37154" lon="2.38356">
        <ele>586.9</ele>
        <time>2022-06-14T07:57:52.000Z</time>
      </trkpt>
      <trkpt lat="45.37155" lon="2.38355">
        <ele>586.9</ele>
        <time>2022-06-14T07:57:56.000Z</time>
      </trkpt>
      <trkpt lat="45.37156" lon="2.38354">
        <ele>586.8</ele>
        <time>2022-06-14T07:57:58.000Z</time>
      </trkpt>
      <trkpt lat="45.37157" lon="2.38353">
        <ele>586.8</ele>
        <time>2022-06-14T07:57:59.000Z</time>
      </trkpt>
      <trkpt lat="45.37158" lon="2.38352">
        <ele>586.7</ele>
        <time>2022-06-14T07:58:00.000Z</time>
      </trkpt>
      <trkpt lat="45.37159" lon="2.38352">
        <ele>586.7</ele>
        <time>2022-06-14T07:58:01.000Z</time>
      </trkpt>
      <trkpt lat="45.3716" lon="2.38351">
        <ele>586.7</ele>
        <time>2022-06-14T07:58:02.000Z</time>
      </trkpt>
      <trkpt lat="45.37161" lon="2.3835">
        <ele>586.6</ele>
        <time>2022-06-14T07:58:03.000Z</time>
      </trkpt>
      <trkpt lat="45.37162" lon="2.38349">
        <ele>586.6</ele>
        <time>2022-06-14T07:58:04.000Z</time>
      </trkpt>
      <trkpt lat="45.37163" lon="2.38349">
        <ele>586.6</ele>
        <time>2022-06-14T07:58:05.000Z</time>
      </trkpt>
      <trkpt lat="45.37165" lon="2.38348">
        <ele>586.5</ele>
        <time>2022-06-14T07:58:06.000Z</time>
      </trkpt>
      <trkpt lat="45.37166" lon="2.38347">
        <ele>586.5</ele>
        <time>2022-06-14T07:58:07.000Z</time>
      </trkpt>
      <trkpt lat="45.37167" lon="2.38346">
        <ele>586.5</ele>
        <time>2022-06-14T07:58:08.000Z</time>
      </trkpt>
      <trkpt lat="45.37169" lon="2.38345">
        <ele>586.5</ele>
        <time>2022-06-14T07:58:09.000Z</time>
      </trkpt>
      <trkpt lat="45.3717" lon="2.38344">
        <ele>586.5</ele>
        <time>2022-06-14T07:58:10.000Z</time>
      </trkpt>
      <trkpt lat="45.37171" lon="2.38344">
        <ele>586.5</ele>
        <time>2022-06-14T07:58:11.000Z</time>
      </trkpt>
      <trkpt lat="45.37171" lon="2.38343">
        <ele>586.5</ele>
        <time>2022-06-14T07:58:16.000Z</time>
      </trkpt>
      <trkpt lat="45.37171" lon="2.38344">
        <ele>586.5</ele>
        <time>2022-06-14T07:58:30.000Z</time>
      </trkpt>
      <trkpt lat="45.37172" lon="2.38343">
        <ele>586.5</ele>
        <time>2022-06-14T07:58:33.000Z</time>
      </trkpt>
      <trkpt lat="45.37174" lon="2.38342">
        <ele>586.5</ele>
        <time>2022-06-14T07:58:35.000Z</time>
      </trkpt>
      <trkpt lat="45.37175" lon="2.38341">
        <ele>586.5</ele>
        <time>2022-06-14T07:58:36.000Z</time>
      </trkpt>
      <trkpt lat="45.37176" lon="2.3834">
        <ele>586.5</ele>
        <time>2022-06-14T07:58:37.000Z</time>
      </trkpt>
      <trkpt lat="45.37177" lon="2.38339">
        <ele>586.5</ele>
        <time>2022-06-14T07:58:38.000Z</time>
      </trkpt>
      <trkpt lat="45.37179" lon="2.38339">
        <ele>586.5</ele>
        <time>2022-06-14T07:58:39.000Z</time>
      </trkpt>
      <trkpt lat="45.3718" lon="2.38338">
        <ele>586.5</ele>
        <time>2022-06-14T07:58:40.000Z</time>
      </trkpt>
      <trkpt lat="45.37182" lon="2.38337">
        <ele>586.5</ele>
        <time>2022-06-14T07:58:41.000Z</time>
      </trkpt>
      <trkpt lat="45.37183" lon="2.38336">
        <ele>586.5</ele>
        <time>2022-06-14T07:58:42.000Z</time>
      </trkpt>
      <trkpt lat="45.37185" lon="2.38335">
        <ele>586.5</ele>
        <time>2022-06-14T07:58:43.000Z</time>
      </trkpt>
      <trkpt lat="45.37186" lon="2.38335">
        <ele>586.5</ele>
        <time>2022-06-14T07:58:44.000Z</time>
      </trkpt>
      <trkpt lat="45.37187" lon="2.38334">
        <ele>586.5</ele>
        <time>2022-06-14T07:58:45.000Z</time>
      </trkpt>
      <trkpt lat="45.37189" lon="2.38333">
        <ele>586.5</ele>
        <time>2022-06-14T07:58:46.000Z</time>
      </trkpt>
      <trkpt lat="45.3719" lon="2.38332">
        <ele>586.5</ele>
        <time>2022-06-14T07:58:47.000Z</time>
      </trkpt>
      <trkpt lat="45.37191" lon="2.38332">
        <ele>586.5</ele>
        <time>2022-06-14T07:58:48.000Z</time>
      </trkpt>
      <trkpt lat="45.37192" lon="2.38331">
        <ele>586.5</ele>
        <time>2022-06-14T07:58:49.000Z</time>
      </trkpt>
      <trkpt lat="45.37194" lon="2.38331">
        <ele>586.5</ele>
        <time>2022-06-14T07:58:50.000Z</time>
      </trkpt>
      <trkpt lat="45.37195" lon="2.3833">
        <ele>586.5</ele>
        <time>2022-06-14T07:58:51.000Z</time>
      </trkpt>
      <trkpt lat="45.37196" lon="2.3833">
        <ele>586.5</ele>
        <time>2022-06-14T07:58:52.000Z</time>
      </trkpt>
      <trkpt lat="45.37197" lon="2.38329">
        <ele>586.5</ele>
        <time>2022-06-14T07:58:53.000Z</time>
      </trkpt>
      <trkpt lat="45.37198" lon="2.38329">
        <ele>586.5</ele>
        <time>2022-06-14T07:58:54.000Z</time>
      </trkpt>
      <trkpt lat="45.37199" lon="2.38328">
        <ele>586.5</ele>
        <time>2022-06-14T07:58:55.000Z</time>
      </trkpt>
      <trkpt lat="45.372" lon="2.38328">
        <ele>586.5</ele>
        <time>2022-06-14T07:58:56.000Z</time>
      </trkpt>
      <trkpt lat="45.37201" lon="2.38328">
        <ele>586.5</ele>
        <time>2022-06-14T07:58:57.000Z</time>
      </trkpt>
      <trkpt lat="45.37203" lon="2.38327">
        <ele>586.5</ele>
        <time>2022-06-14T07:58:58.000Z</time>
      </trkpt>
      <trkpt lat="45.37204" lon="2.38326">
        <ele>586.5</ele>
        <time>2022-06-14T07:58:59.000Z</time>
      </trkpt>
      <trkpt lat="45.37205" lon="2.38326">
        <ele>586.5</ele>
        <time>2022-06-14T07:59:00.000Z</time>
      </trkpt>
      <trkpt lat="45.37206" lon="2.38325">
        <ele>586.5</ele>
        <time>2022-06-14T07:59:01.000Z</time>
      </trkpt>
      <trkpt lat="45.37208" lon="2.38324">
        <ele>586.4</ele>
        <time>2022-06-14T07:59:02.000Z</time>
      </trkpt>
      <trkpt lat="45.37209" lon="2.38324">
        <ele>586.4</ele>
        <time>2022-06-14T07:59:03.000Z</time>
      </trkpt>
      <trkpt lat="45.3721" lon="2.38323">
        <ele>586.4</ele>
        <time>2022-06-14T07:59:04.000Z</time>
      </trkpt>
      <trkpt lat="45.37211" lon="2.38322">
        <ele>586.4</ele>
        <time>2022-06-14T07:59:05.000Z</time>
      </trkpt>
      <trkpt lat="45.37212" lon="2.38322">
        <ele>586.4</ele>
        <time>2022-06-14T07:59:06.000Z</time>
      </trkpt>
      <trkpt lat="45.37214" lon="2.38321">
        <ele>586.4</ele>
        <time>2022-06-14T07:59:07.000Z</time>
      </trkpt>
      <trkpt lat="45.37215" lon="2.38321">
        <ele>586.4</ele>
        <time>2022-06-14T07:59:08.000Z</time>
      </trkpt>
      <trkpt lat="45.37216" lon="2.3832">
        <ele>586.4</ele>
        <time>2022-06-14T07:59:09.000Z</time>
      </trkpt>
      <trkpt lat="45.37217" lon="2.38319">
        <ele>586.4</ele>
        <time>2022-06-14T07:59:10.000Z</time>
      </trkpt>
      <trkpt lat="45.37218" lon="2.38319">
        <ele>586.4</ele>
        <time>2022-06-14T07:59:11.000Z</time>
      </trkpt>
      <trkpt lat="45.37219" lon="2.38318">
        <ele>586.3</ele>
        <time>2022-06-14T07:59:12.000Z</time>
      </trkpt>
      <trkpt lat="45.37221" lon="2.38318">
        <ele>586.3</ele>
        <time>2022-06-14T07:59:13.000Z</time>
      </trkpt>
      <trkpt lat="45.37222" lon="2.38317">
        <ele>586.3</ele>
        <time>2022-06-14T07:59:14.000Z</time>
      </trkpt>
      <trkpt lat="45.37223" lon="2.38316">
        <ele>586.3</ele>
        <time>2022-06-14T07:59:15.000Z</time>
      </trkpt>
      <trkpt lat="45.37224" lon="2.38316">
        <ele>586.3</ele>
        <time>2022-06-14T07:59:16.000Z</time>
      </trkpt>
      <trkpt lat="45.37225" lon="2.38315">
        <ele>586.3</ele>
        <time>2022-06-14T07:59:17.000Z</time>
      </trkpt>
      <trkpt lat="45.37227" lon="2.38315">
        <ele>586.3</ele>
        <time>2022-06-14T07:59:18.000Z</time>
      </trkpt>
      <trkpt lat="45.37228" lon="2.38314">
        <ele>586.3</ele>
        <time>2022-06-14T07:59:19.000Z</time>
      </trkpt>
      <trkpt lat="45.37229" lon="2.38314">
        <ele>586.3</ele>
        <time>2022-06-14T07:59:20.000Z</time>
      </trkpt>
      <trkpt lat="45.37231" lon="2.38313">
        <ele>586.3</ele>
        <time>2022-06-14T07:59:21.000Z</time>
      </trkpt>
      <trkpt lat="45.37232" lon="2.38312">
        <ele>586.3</ele>
        <time>2022-06-14T07:59:22.000Z</time>
      </trkpt>
      <trkpt lat="45.37233" lon="2.38312">
        <ele>586.3</ele>
        <time>2022-06-14T07:59:23.000Z</time>
      </trkpt>
      <trkpt lat="45.37235" lon="2.38311">
        <ele>586.3</ele>
        <time>2022-06-14T07:59:24.000Z</time>
      </trkpt>
      <trkpt lat="45.37236" lon="2.38311">
        <ele>586.3</ele>
        <time>2022-06-14T07:59:25.000Z</time>
      </trkpt>
      <trkpt lat="45.37237" lon="2.38311">
        <ele>586.3</ele>
        <time>2022-06-14T07:59:26.000Z</time>
      </trkpt>
      <trkpt lat="45.37239" lon="2.3831">
        <ele>586.3</ele>
        <time>2022-06-14T07:59:27.000Z</time>
      </trkpt>
      <trkpt lat="45.3724" lon="2.3831">
        <ele>586.3</ele>
        <time>2022-06-14T07:59:28.000Z</time>
      </trkpt>
      <trkpt lat="45.37241" lon="2.3831">
        <ele>586.4</ele>
        <time>2022-06-14T07:59:29.000Z</time>
      </trkpt>
      <trkpt lat="45.37243" lon="2.38309">
        <ele>586.4</ele>
        <time>2022-06-14T07:59:30.000Z</time>
      </trkpt>
      <trkpt lat="45.37244" lon="2.38309">
        <ele>586.4</ele>
        <time>2022-06-14T07:59:31.000Z</time>
      </trkpt>
      <trkpt lat="45.37245" lon="2.38309">
        <ele>586.4</ele>
        <time>2022-06-14T07:59:32.000Z</time>
      </trkpt>
      <trkpt lat="45.37246" lon="2.38309">
        <ele>586.4</ele>
        <time>2022-06-14T07:59:33.000Z</time>
      </trkpt>
      <trkpt lat="45.37248" lon="2.38308">
        <ele>586.4</ele>
        <time>2022-06-14T07:59:34.000Z</time>
      </trkpt>
      <trkpt lat="45.37249" lon="2.38308">
        <ele>586.5</ele>
        <time>2022-06-14T07:59:35.000Z</time>
      </trkpt>
      <trkpt lat="45.3725" lon="2.38308">
        <ele>586.5</ele>
        <time>2022-06-14T07:59:36.000Z</time>
      </trkpt>
      <trkpt lat="45.37252" lon="2.38308">
        <ele>586.6</ele>
        <time>2022-06-14T07:59:37.000Z</time>
      </trkpt>
      <trkpt lat="45.37253" lon="2.38308">
        <ele>586.6</ele>
        <time>2022-06-14T07:59:38.000Z</time>
      </trkpt>
      <trkpt lat="45.37254" lon="2.38308">
        <ele>586.7</ele>
        <time>2022-06-14T07:59:39.000Z</time>
      </trkpt>
      <trkpt lat="45.37255" lon="2.38308">
        <ele>586.8</ele>
        <time>2022-06-14T07:59:40.000Z</time>
      </trkpt>
      <trkpt lat="45.37257" lon="2.38308">
        <ele>586.9</ele>
        <time>2022-06-14T07:59:41.000Z</time>
      </trkpt>
      <trkpt lat="45.37258" lon="2.38308">
        <ele>586.9</ele>
        <time>2022-06-14T07:59:42.000Z</time>
      </trkpt>
      <trkpt lat="45.3726" lon="2.38308">
        <ele>587</ele>
        <time>2022-06-14T07:59:43.000Z</time>
      </trkpt>
      <trkpt lat="45.37261" lon="2.38308">
        <ele>587.1</ele>
        <time>2022-06-14T07:59:44.000Z</time>
      </trkpt>
      <trkpt lat="45.37262" lon="2.38308">
        <ele>587.2</ele>
        <time>2022-06-14T07:59:45.000Z</time>
      </trkpt>
      <trkpt lat="45.37264" lon="2.38308">
        <ele>587.3</ele>
        <time>2022-06-14T07:59:46.000Z</time>
      </trkpt>
      <trkpt lat="45.37265" lon="2.38308">
        <ele>587.4</ele>
        <time>2022-06-14T07:59:47.000Z</time>
      </trkpt>
      <trkpt lat="45.37266" lon="2.38308">
        <ele>587.4</ele>
        <time>2022-06-14T07:59:48.000Z</time>
      </trkpt>
      <trkpt lat="45.37268" lon="2.38308">
        <ele>587.5</ele>
        <time>2022-06-14T07:59:49.000Z</time>
      </trkpt>
      <trkpt lat="45.37269" lon="2.38308">
        <ele>587.6</ele>
        <time>2022-06-14T07:59:50.000Z</time>
      </trkpt>
      <trkpt lat="45.3727" lon="2.38308">
        <ele>587.7</ele>
        <time>2022-06-14T07:59:51.000Z</time>
      </trkpt>
      <trkpt lat="45.37272" lon="2.38308">
        <ele>587.8</ele>
        <time>2022-06-14T07:59:52.000Z</time>
      </trkpt>
      <trkpt lat="45.37273" lon="2.38309">
        <ele>587.8</ele>
        <time>2022-06-14T07:59:53.000Z</time>
      </trkpt>
      <trkpt lat="45.37274" lon="2.38309">
        <ele>587.9</ele>
        <time>2022-06-14T07:59:54.000Z</time>
      </trkpt>
      <trkpt lat="45.37275" lon="2.38309">
        <ele>588</ele>
        <time>2022-06-14T07:59:55.000Z</time>
      </trkpt>
      <trkpt lat="45.37276" lon="2.38309">
        <ele>588.1</ele>
        <time>2022-06-14T07:59:56.000Z</time>
      </trkpt>
      <trkpt lat="45.37277" lon="2.38309">
        <ele>588.1</ele>
        <time>2022-06-14T07:59:57.000Z</time>
      </trkpt>
      <trkpt lat="45.37279" lon="2.38309">
        <ele>588.2</ele>
        <time>2022-06-14T07:59:58.000Z</time>
      </trkpt>
      <trkpt lat="45.3728" lon="2.38309">
        <ele>588.3</ele>
        <time>2022-06-14T07:59:59.000Z</time>
      </trkpt>
      <trkpt lat="45.37281" lon="2.38309">
        <ele>588.4</ele>
        <time>2022-06-14T08:00:00.000Z</time>
      </trkpt>
      <trkpt lat="45.37282" lon="2.38309">
        <ele>588.4</ele>
        <time>2022-06-14T08:00:01.000Z</time>
      </trkpt>
      <trkpt lat="45.37283" lon="2.38309">
        <ele>588.5</ele>
        <time>2022-06-14T08:00:02.000Z</time>
      </trkpt>
      <trkpt lat="45.37284" lon="2.38309">
        <ele>588.6</ele>
        <time>2022-06-14T08:00:03.000Z</time>
      </trkpt>
      <trkpt lat="45.37286" lon="2.38309">
        <ele>588.6</ele>
        <time>2022-06-14T08:00:04.000Z</time>
      </trkpt>
      <trkpt lat="45.37287" lon="2.38309">
        <ele>588.7</ele>
        <time>2022-06-14T08:00:05.000Z</time>
      </trkpt>
      <trkpt lat="45.37288" lon="2.3831">
        <ele>588.8</ele>
        <time>2022-06-14T08:00:06.000Z</time>
      </trkpt>
      <trkpt lat="45.3729" lon="2.3831">
        <ele>588.9</ele>
        <time>2022-06-14T08:00:07.000Z</time>
      </trkpt>
      <trkpt lat="45.37291" lon="2.3831">
        <ele>589</ele>
        <time>2022-06-14T08:00:08.000Z</time>
      </trkpt>
      <trkpt lat="45.37292" lon="2.3831">
        <ele>589</ele>
        <time>2022-06-14T08:00:09.000Z</time>
      </trkpt>
      <trkpt lat="45.37294" lon="2.3831">
        <ele>589.1</ele>
        <time>2022-06-14T08:00:10.000Z</time>
      </trkpt>
      <trkpt lat="45.37295" lon="2.3831">
        <ele>589.2</ele>
        <time>2022-06-14T08:00:11.000Z</time>
      </trkpt>
      <trkpt lat="45.37296" lon="2.3831">
        <ele>589.3</ele>
        <time>2022-06-14T08:00:12.000Z</time>
      </trkpt>
      <trkpt lat="45.37298" lon="2.3831">
        <ele>589.4</ele>
        <time>2022-06-14T08:00:13.000Z</time>
      </trkpt>
      <trkpt lat="45.37299" lon="2.3831">
        <ele>589.5</ele>
        <time>2022-06-14T08:00:14.000Z</time>
      </trkpt>
      <trkpt lat="45.37301" lon="2.3831">
        <ele>589.5</ele>
        <time>2022-06-14T08:00:15.000Z</time>
      </trkpt>
      <trkpt lat="45.37302" lon="2.3831">
        <ele>589.6</ele>
        <time>2022-06-14T08:00:16.000Z</time>
      </trkpt>
      <trkpt lat="45.37303" lon="2.38311">
        <ele>589.7</ele>
        <time>2022-06-14T08:00:17.000Z</time>
      </trkpt>
      <trkpt lat="45.37305" lon="2.38311">
        <ele>589.8</ele>
        <time>2022-06-14T08:00:18.000Z</time>
      </trkpt>
      <trkpt lat="45.37306" lon="2.38311">
        <ele>589.9</ele>
        <time>2022-06-14T08:00:19.000Z</time>
      </trkpt>
      <trkpt lat="45.37307" lon="2.38311">
        <ele>590</ele>
        <time>2022-06-14T08:00:20.000Z</time>
      </trkpt>
      <trkpt lat="45.37309" lon="2.38311">
        <ele>590</ele>
        <time>2022-06-14T08:00:21.000Z</time>
      </trkpt>
      <trkpt lat="45.3731" lon="2.38311">
        <ele>590.1</ele>
        <time>2022-06-14T08:00:22.000Z</time>
      </trkpt>
      <trkpt lat="45.37311" lon="2.38311">
        <ele>590.2</ele>
        <time>2022-06-14T08:00:23.000Z</time>
      </trkpt>
      <trkpt lat="45.37313" lon="2.38311">
        <ele>590.3</ele>
        <time>2022-06-14T08:00:24.000Z</time>
      </trkpt>
      <trkpt lat="45.37314" lon="2.38312">
        <ele>590.4</ele>
        <time>2022-06-14T08:00:25.000Z</time>
      </trkpt>
      <trkpt lat="45.37316" lon="2.38312">
        <ele>590.5</ele>
        <time>2022-06-14T08:00:26.000Z</time>
      </trkpt>
      <trkpt lat="45.37317" lon="2.38312">
        <ele>590.6</ele>
        <time>2022-06-14T08:00:27.000Z</time>
      </trkpt>
      <trkpt lat="45.37318" lon="2.38312">
        <ele>590.6</ele>
        <time>2022-06-14T08:00:28.000Z</time>
      </trkpt>
      <trkpt lat="45.3732" lon="2.38312">
        <ele>590.7</ele>
        <time>2022-06-14T08:00:29.000Z</time>
      </trkpt>
      <trkpt lat="45.37321" lon="2.38312">
        <ele>590.8</ele>
        <time>2022-06-14T08:00:30.000Z</time>
      </trkpt>
      <trkpt lat="45.37322" lon="2.38312">
        <ele>590.9</ele>
        <time>2022-06-14T08:00:31.000Z</time>
      </trkpt>
      <trkpt lat="45.37323" lon="2.38313">
        <ele>590.9</ele>
        <time>2022-06-14T08:00:32.000Z</time>
      </trkpt>
      <trkpt lat="45.37324" lon="2.38313">
        <ele>591</ele>
        <time>2022-06-14T08:00:33.000Z</time>
      </trkpt>
      <trkpt lat="45.37325" lon="2.38313">
        <ele>591</ele>
        <time>2022-06-14T08:00:34.000Z</time>
      </trkpt>
      <trkpt lat="45.37326" lon="2.38313">
        <ele>591.1</ele>
        <time>2022-06-14T08:00:35.000Z</time>
      </trkpt>
      <trkpt lat="45.37327" lon="2.38313">
        <ele>591.2</ele>
        <time>2022-06-14T08:00:36.000Z</time>
      </trkpt>
      <trkpt lat="45.37329" lon="2.38313">
        <ele>591.2</ele>
        <time>2022-06-14T08:00:37.000Z</time>
      </trkpt>
      <trkpt lat="45.3733" lon="2.38313">
        <ele>591.3</ele>
        <time>2022-06-14T08:00:38.000Z</time>
      </trkpt>
      <trkpt lat="45.37331" lon="2.38313">
        <ele>591.4</ele>
        <time>2022-06-14T08:00:39.000Z</time>
      </trkpt>
      <trkpt lat="45.37333" lon="2.38313">
        <ele>591.5</ele>
        <time>2022-06-14T08:00:40.000Z</time>
      </trkpt>
      <trkpt lat="45.37334" lon="2.38313">
        <ele>591.5</ele>
        <time>2022-06-14T08:00:41.000Z</time>
      </trkpt>
      <trkpt lat="45.37335" lon="2.38313">
        <ele>591.5</ele>
        <time>2022-06-14T08:00:42.000Z</time>
      </trkpt>
      <trkpt lat="45.37337" lon="2.38313">
        <ele>591.6</ele>
        <time>2022-06-14T08:00:43.000Z</time>
      </trkpt>
      <trkpt lat="45.37338" lon="2.38314">
        <ele>591.6</ele>
        <time>2022-06-14T08:00:44.000Z</time>
      </trkpt>
      <trkpt lat="45.37339" lon="2.38314">
        <ele>591.6</ele>
        <time>2022-06-14T08:00:45.000Z</time>
      </trkpt>
      <trkpt lat="45.37341" lon="2.38314">
        <ele>591.6</ele>
        <time>2022-06-14T08:00:46.000Z</time>
      </trkpt>
      <trkpt lat="45.37342" lon="2.38314">
        <ele>591.7</ele>
        <time>2022-06-14T08:00:47.000Z</time>
      </trkpt>
      <trkpt lat="45.37343" lon="2.38314">
        <ele>591.7</ele>
        <time>2022-06-14T08:00:48.000Z</time>
      </trkpt>
      <trkpt lat="45.37345" lon="2.38314">
        <ele>591.7</ele>
        <time>2022-06-14T08:00:49.000Z</time>
      </trkpt>
      <trkpt lat="45.37346" lon="2.38314">
        <ele>591.7</ele>
        <time>2022-06-14T08:00:50.000Z</time>
      </trkpt>
      <trkpt lat="45.37348" lon="2.38314">
        <ele>591.8</ele>
        <time>2022-06-14T08:00:51.000Z</time>
      </trkpt>
      <trkpt lat="45.37349" lon="2.38314">
        <ele>591.8</ele>
        <time>2022-06-14T08:00:52.000Z</time>
      </trkpt>
      <trkpt lat="45.3735" lon="2.38314">
        <ele>591.8</ele>
        <time>2022-06-14T08:00:53.000Z</time>
      </trkpt>
      <trkpt lat="45.37351" lon="2.38315">
        <ele>591.8</ele>
        <time>2022-06-14T08:00:54.000Z</time>
      </trkpt>
      <trkpt lat="45.37353" lon="2.38315">
        <ele>591.8</ele>
        <time>2022-06-14T08:00:55.000Z</time>
      </trkpt>
      <trkpt lat="45.37354" lon="2.38315">
        <ele>591.9</ele>
        <time>2022-06-14T08:00:56.000Z</time>
      </trkpt>
      <trkpt lat="45.37355" lon="2.38315">
        <ele>591.9</ele>
        <time>2022-06-14T08:00:57.000Z</time>
      </trkpt>
      <trkpt lat="45.37356" lon="2.38315">
        <ele>591.9</ele>
        <time>2022-06-14T08:00:58.000Z</time>
      </trkpt>
      <trkpt lat="45.37357" lon="2.38315">
        <ele>591.9</ele>
        <time>2022-06-14T08:00:59.000Z</time>
      </trkpt>
      <trkpt lat="45.37358" lon="2.38315">
        <ele>591.9</ele>
        <time>2022-06-14T08:01:00.000Z</time>
      </trkpt>
      <trkpt lat="45.37359" lon="2.38314">
        <ele>591.9</ele>
        <time>2022-06-14T08:01:01.000Z</time>
      </trkpt>
      <trkpt lat="45.37361" lon="2.38314">
        <ele>591.9</ele>
        <time>2022-06-14T08:01:02.000Z</time>
      </trkpt>
      <trkpt lat="45.37362" lon="2.38314">
        <ele>592</ele>
        <time>2022-06-14T08:01:03.000Z</time>
      </trkpt>
      <trkpt lat="45.37363" lon="2.38314">
        <ele>592</ele>
        <time>2022-06-14T08:01:04.000Z</time>
      </trkpt>
      <trkpt lat="45.37364" lon="2.38314">
        <ele>592</ele>
        <time>2022-06-14T08:01:05.000Z</time>
      </trkpt>
      <trkpt lat="45.37366" lon="2.38314">
        <ele>592</ele>
        <time>2022-06-14T08:01:06.000Z</time>
      </trkpt>
      <trkpt lat="45.37367" lon="2.38313">
        <ele>592</ele>
        <time>2022-06-14T08:01:07.000Z</time>
      </trkpt>
      <trkpt lat="45.37368" lon="2.38313">
        <ele>592</ele>
        <time>2022-06-14T08:01:08.000Z</time>
      </trkpt>
      <trkpt lat="45.3737" lon="2.38313">
        <ele>592.1</ele>
        <time>2022-06-14T08:01:09.000Z</time>
      </trkpt>
      <trkpt lat="45.37371" lon="2.38313">
        <ele>592.1</ele>
        <time>2022-06-14T08:01:10.000Z</time>
      </trkpt>
      <trkpt lat="45.37373" lon="2.38313">
        <ele>592.1</ele>
        <time>2022-06-14T08:01:11.000Z</time>
      </trkpt>
      <trkpt lat="45.37374" lon="2.38313">
        <ele>592.1</ele>
        <time>2022-06-14T08:01:12.000Z</time>
      </trkpt>
      <trkpt lat="45.37375" lon="2.38313">
        <ele>592.1</ele>
        <time>2022-06-14T08:01:13.000Z</time>
      </trkpt>
      <trkpt lat="45.37377" lon="2.38313">
        <ele>592.2</ele>
        <time>2022-06-14T08:01:14.000Z</time>
      </trkpt>
      <trkpt lat="45.37378" lon="2.38313">
        <ele>592.2</ele>
        <time>2022-06-14T08:01:15.000Z</time>
      </trkpt>
      <trkpt lat="45.37379" lon="2.38314">
        <ele>592.2</ele>
        <time>2022-06-14T08:01:16.000Z</time>
      </trkpt>
      <trkpt lat="45.37381" lon="2.38314">
        <ele>592.2</ele>
        <time>2022-06-14T08:01:17.000Z</time>
      </trkpt>
      <trkpt lat="45.37382" lon="2.38314">
        <ele>592.3</ele>
        <time>2022-06-14T08:01:18.000Z</time>
      </trkpt>
      <trkpt lat="45.37384" lon="2.38314">
        <ele>592.3</ele>
        <time>2022-06-14T08:01:19.000Z</time>
      </trkpt>
      <trkpt lat="45.37385" lon="2.38314">
        <ele>592.3</ele>
        <time>2022-06-14T08:01:20.000Z</time>
      </trkpt>
      <trkpt lat="45.37386" lon="2.38314">
        <ele>592.3</ele>
        <time>2022-06-14T08:01:21.000Z</time>
      </trkpt>
      <trkpt lat="45.37388" lon="2.38314">
        <ele>592.3</ele>
        <time>2022-06-14T08:01:22.000Z</time>
      </trkpt>
      <trkpt lat="45.37389" lon="2.38314">
        <ele>592.4</ele>
        <time>2022-06-14T08:01:23.000Z</time>
      </trkpt>
      <trkpt lat="45.3739" lon="2.38314">
        <ele>592.4</ele>
        <time>2022-06-14T08:01:24.000Z</time>
      </trkpt>
      <trkpt lat="45.37392" lon="2.38314">
        <ele>592.4</ele>
        <time>2022-06-14T08:01:25.000Z</time>
      </trkpt>
      <trkpt lat="45.37393" lon="2.38313">
        <ele>592.4</ele>
        <time>2022-06-14T08:01:26.000Z</time>
      </trkpt>
      <trkpt lat="45.37394" lon="2.38313">
        <ele>592.4</ele>
        <time>2022-06-14T08:01:27.000Z</time>
      </trkpt>
      <trkpt lat="45.37396" lon="2.38313">
        <ele>592.4</ele>
        <time>2022-06-14T08:01:28.000Z</time>
      </trkpt>
      <trkpt lat="45.37397" lon="2.38312">
        <ele>592.4</ele>
        <time>2022-06-14T08:01:29.000Z</time>
      </trkpt>
      <trkpt lat="45.37398" lon="2.38312">
        <ele>592.5</ele>
        <time>2022-06-14T08:01:30.000Z</time>
      </trkpt>
      <trkpt lat="45.374" lon="2.38311">
        <ele>592.5</ele>
        <time>2022-06-14T08:01:31.000Z</time>
      </trkpt>
      <trkpt lat="45.37401" lon="2.3831">
        <ele>592.5</ele>
        <time>2022-06-14T08:01:32.000Z</time>
      </trkpt>
      <trkpt lat="45.37402" lon="2.3831">
        <ele>592.5</ele>
        <time>2022-06-14T08:01:33.000Z</time>
      </trkpt>
      <trkpt lat="45.37403" lon="2.38308">
        <ele>592.5</ele>
        <time>2022-06-14T08:01:34.000Z</time>
      </trkpt>
      <trkpt lat="45.37405" lon="2.38307">
        <ele>592.5</ele>
        <time>2022-06-14T08:01:35.000Z</time>
      </trkpt>
      <trkpt lat="45.37406" lon="2.38306">
        <ele>592.5</ele>
        <time>2022-06-14T08:01:36.000Z</time>
      </trkpt>
      <trkpt lat="45.37407" lon="2.38305">
        <ele>592.5</ele>
        <time>2022-06-14T08:01:37.000Z</time>
      </trkpt>
      <trkpt lat="45.37408" lon="2.38303">
        <ele>592.5</ele>
        <time>2022-06-14T08:01:38.000Z</time>
      </trkpt>
      <trkpt lat="45.37409" lon="2.38302">
        <ele>592.5</ele>
        <time>2022-06-14T08:01:39.000Z</time>
      </trkpt>
      <trkpt lat="45.37409" lon="2.383">
        <ele>592.5</ele>
        <time>2022-06-14T08:01:40.000Z</time>
      </trkpt>
      <trkpt lat="45.3741" lon="2.38299">
        <ele>592.5</ele>
        <time>2022-06-14T08:01:41.000Z</time>
      </trkpt>
      <trkpt lat="45.37411" lon="2.38297">
        <ele>592.5</ele>
        <time>2022-06-14T08:01:42.000Z</time>
      </trkpt>
      <trkpt lat="45.37411" lon="2.38296">
        <ele>592.4</ele>
        <time>2022-06-14T08:01:43.000Z</time>
      </trkpt>
      <trkpt lat="45.37411" lon="2.38294">
        <ele>592.4</ele>
        <time>2022-06-14T08:01:44.000Z</time>
      </trkpt>
      <trkpt lat="45.37412" lon="2.38293">
        <ele>592.4</ele>
        <time>2022-06-14T08:01:45.000Z</time>
      </trkpt>
      <trkpt lat="45.37412" lon="2.38291">
        <ele>592.4</ele>
        <time>2022-06-14T08:01:46.000Z</time>
      </trkpt>
      <trkpt lat="45.37412" lon="2.3829">
        <ele>592.4</ele>
        <time>2022-06-14T08:01:47.000Z</time>
      </trkpt>
      <trkpt lat="45.37412" lon="2.38289">
        <ele>592.4</ele>
        <time>2022-06-14T08:01:48.000Z</time>
      </trkpt>
      <trkpt lat="45.37412" lon="2.38287">
        <ele>592.4</ele>
        <time>2022-06-14T08:01:49.000Z</time>
      </trkpt>
      <trkpt lat="45.37412" lon="2.38286">
        <ele>592.3</ele>
        <time>2022-06-14T08:01:50.000Z</time>
      </trkpt>
      <trkpt lat="45.37412" lon="2.38284">
        <ele>592.3</ele>
        <time>2022-06-14T08:01:51.000Z</time>
      </trkpt>
      <trkpt lat="45.37413" lon="2.38283">
        <ele>592.3</ele>
        <time>2022-06-14T08:01:52.000Z</time>
      </trkpt>
      <trkpt lat="45.37413" lon="2.38281">
        <ele>592.3</ele>
        <time>2022-06-14T08:01:53.000Z</time>
      </trkpt>
      <trkpt lat="45.37413" lon="2.3828">
        <ele>592.3</ele>
        <time>2022-06-14T08:01:54.000Z</time>
      </trkpt>
      <trkpt lat="45.37414" lon="2.38278">
        <ele>592.3</ele>
        <time>2022-06-14T08:01:55.000Z</time>
      </trkpt>
      <trkpt lat="45.37414" lon="2.38277">
        <ele>592.3</ele>
        <time>2022-06-14T08:01:56.000Z</time>
      </trkpt>
      <trkpt lat="45.37414" lon="2.38275">
        <ele>592.2</ele>
        <time>2022-06-14T08:01:57.000Z</time>
      </trkpt>
      <trkpt lat="45.37414" lon="2.38273">
        <ele>592.2</ele>
        <time>2022-06-14T08:01:58.000Z</time>
      </trkpt>
      <trkpt lat="45.37414" lon="2.38272">
        <ele>592.2</ele>
        <time>2022-06-14T08:01:59.000Z</time>
      </trkpt>
      <trkpt lat="45.37414" lon="2.3827">
        <ele>592.2</ele>
        <time>2022-06-14T08:02:00.000Z</time>
      </trkpt>
      <trkpt lat="45.37414" lon="2.38268">
        <ele>592.2</ele>
        <time>2022-06-14T08:02:01.000Z</time>
      </trkpt>
      <trkpt lat="45.37413" lon="2.38266">
        <ele>592.1</ele>
        <time>2022-06-14T08:02:02.000Z</time>
      </trkpt>
      <trkpt lat="45.37413" lon="2.38265">
        <ele>592.1</ele>
        <time>2022-06-14T08:02:03.000Z</time>
      </trkpt>
      <trkpt lat="45.37413" lon="2.38263">
        <ele>592.1</ele>
        <time>2022-06-14T08:02:04.000Z</time>
      </trkpt>
      <trkpt lat="45.37412" lon="2.38261">
        <ele>592</ele>
        <time>2022-06-14T08:02:05.000Z</time>
      </trkpt>
      <trkpt lat="45.37412" lon="2.38259">
        <ele>592</ele>
        <time>2022-06-14T08:02:06.000Z</time>
      </trkpt>
      <trkpt lat="45.37412" lon="2.38257">
        <ele>592</ele>
        <time>2022-06-14T08:02:07.000Z</time>
      </trkpt>
      <trkpt lat="45.37412" lon="2.38255">
        <ele>591.9</ele>
        <time>2022-06-14T08:02:08.000Z</time>
      </trkpt>
      <trkpt lat="45.37411" lon="2.38254">
        <ele>591.9</ele>
        <time>2022-06-14T08:02:09.000Z</time>
      </trkpt>
      <trkpt lat="45.37411" lon="2.38252">
        <ele>591.9</ele>
        <time>2022-06-14T08:02:10.000Z</time>
      </trkpt>
      <trkpt lat="45.3741" lon="2.3825">
        <ele>591.9</ele>
        <time>2022-06-14T08:02:11.000Z</time>
      </trkpt>
      <trkpt lat="45.37409" lon="2.38248">
        <ele>592</ele>
        <time>2022-06-14T08:02:12.000Z</time>
      </trkpt>
      <trkpt lat="45.37409" lon="2.38246">
        <ele>592.2</ele>
        <time>2022-06-14T08:02:13.000Z</time>
      </trkpt>
      <trkpt lat="45.37408" lon="2.38244">
        <ele>592.3</ele>
        <time>2022-06-14T08:02:14.000Z</time>
      </trkpt>
      <trkpt lat="45.37407" lon="2.38242">
        <ele>592.5</ele>
        <time>2022-06-14T08:02:15.000Z</time>
      </trkpt>
      <trkpt lat="45.37407" lon="2.38241">
        <ele>592.6</ele>
        <time>2022-06-14T08:02:16.000Z</time>
      </trkpt>
      <trkpt lat="45.37406" lon="2.38239">
        <ele>592.8</ele>
        <time>2022-06-14T08:02:17.000Z</time>
      </trkpt>
      <trkpt lat="45.37406" lon="2.38237">
        <ele>592.9</ele>
        <time>2022-06-14T08:02:18.000Z</time>
      </trkpt>
      <trkpt lat="45.37405" lon="2.38236">
        <ele>593</ele>
        <time>2022-06-14T08:02:19.000Z</time>
      </trkpt>
      <trkpt lat="45.37405" lon="2.38234">
        <ele>593.2</ele>
        <time>2022-06-14T08:02:20.000Z</time>
      </trkpt>
      <trkpt lat="45.37405" lon="2.38233">
        <ele>593.3</ele>
        <time>2022-06-14T08:02:21.000Z</time>
      </trkpt>
      <trkpt lat="45.37405" lon="2.38231">
        <ele>593.5</ele>
        <time>2022-06-14T08:02:22.000Z</time>
      </trkpt>
      <trkpt lat="45.37404" lon="2.38229">
        <ele>593.6</ele>
        <time>2022-06-14T08:02:23.000Z</time>
      </trkpt>
      <trkpt lat="45.37404" lon="2.38228">
        <ele>593.8</ele>
        <time>2022-06-14T08:02:24.000Z</time>
      </trkpt>
      <trkpt lat="45.37404" lon="2.38226">
        <ele>593.9</ele>
        <time>2022-06-14T08:02:25.000Z</time>
      </trkpt>
      <trkpt lat="45.37404" lon="2.38224">
        <ele>594.1</ele>
        <time>2022-06-14T08:02:26.000Z</time>
      </trkpt>
      <trkpt lat="45.37403" lon="2.38222">
        <ele>594.2</ele>
        <time>2022-06-14T08:02:27.000Z</time>
      </trkpt>
      <trkpt lat="45.37403" lon="2.3822">
        <ele>594.4</ele>
        <time>2022-06-14T08:02:28.000Z</time>
      </trkpt>
      <trkpt lat="45.37403" lon="2.38219">
        <ele>594.6</ele>
        <time>2022-06-14T08:02:29.000Z</time>
      </trkpt>
      <trkpt lat="45.37402" lon="2.38217">
        <ele>594.7</ele>
        <time>2022-06-14T08:02:30.000Z</time>
      </trkpt>
      <trkpt lat="45.37402" lon="2.38215">
        <ele>594.9</ele>
        <time>2022-06-14T08:02:31.000Z</time>
      </trkpt>
      <trkpt lat="45.37402" lon="2.38213">
        <ele>595</ele>
        <time>2022-06-14T08:02:32.000Z</time>
      </trkpt>
      <trkpt lat="45.37401" lon="2.38211">
        <ele>595.2</ele>
        <time>2022-06-14T08:02:33.000Z</time>
      </trkpt>
      <trkpt lat="45.37401" lon="2.3821">
        <ele>595.3</ele>
        <time>2022-06-14T08:02:34.000Z</time>
      </trkpt>
      <trkpt lat="45.374" lon="2.38208">
        <ele>595.5</ele>
        <time>2022-06-14T08:02:35.000Z</time>
      </trkpt>
      <trkpt lat="45.374" lon="2.38206">
        <ele>595.6</ele>
        <time>2022-06-14T08:02:36.000Z</time>
      </trkpt>
      <trkpt lat="45.37399" lon="2.38205">
        <ele>595.7</ele>
        <time>2022-06-14T08:02:37.000Z</time>
      </trkpt>
      <trkpt lat="45.37399" lon="2.38203">
        <ele>595.8</ele>
        <time>2022-06-14T08:02:38.000Z</time>
      </trkpt>
      <trkpt lat="45.37398" lon="2.38202">
        <ele>595.9</ele>
        <time>2022-06-14T08:02:39.000Z</time>
      </trkpt>
      <trkpt lat="45.37397" lon="2.382">
        <ele>596.1</ele>
        <time>2022-06-14T08:02:40.000Z</time>
      </trkpt>
      <trkpt lat="45.37397" lon="2.38199">
        <ele>596.2</ele>
        <time>2022-06-14T08:02:41.000Z</time>
      </trkpt>
      <trkpt lat="45.37396" lon="2.38197">
        <ele>596.3</ele>
        <time>2022-06-14T08:02:42.000Z</time>
      </trkpt>
      <trkpt lat="45.37396" lon="2.38196">
        <ele>596.4</ele>
        <time>2022-06-14T08:02:43.000Z</time>
      </trkpt>
      <trkpt lat="45.37395" lon="2.38194">
        <ele>596.5</ele>
        <time>2022-06-14T08:02:44.000Z</time>
      </trkpt>
      <trkpt lat="45.37395" lon="2.38193">
        <ele>596.6</ele>
        <time>2022-06-14T08:02:45.000Z</time>
      </trkpt>
      <trkpt lat="45.37394" lon="2.38191">
        <ele>596.7</ele>
        <time>2022-06-14T08:02:46.000Z</time>
      </trkpt>
      <trkpt lat="45.37394" lon="2.3819">
        <ele>596.8</ele>
        <time>2022-06-14T08:02:47.000Z</time>
      </trkpt>
      <trkpt lat="45.37393" lon="2.38188">
        <ele>597</ele>
        <time>2022-06-14T08:02:48.000Z</time>
      </trkpt>
      <trkpt lat="45.37393" lon="2.38187">
        <ele>597.1</ele>
        <time>2022-06-14T08:02:49.000Z</time>
      </trkpt>
      <trkpt lat="45.37393" lon="2.38185">
        <ele>597.2</ele>
        <time>2022-06-14T08:02:50.000Z</time>
      </trkpt>
      <trkpt lat="45.37392" lon="2.38184">
        <ele>597.3</ele>
        <time>2022-06-14T08:02:51.000Z</time>
      </trkpt>
      <trkpt lat="45.37392" lon="2.38182">
        <ele>597.4</ele>
        <time>2022-06-14T08:02:52.000Z</time>
      </trkpt>
      <trkpt lat="45.37391" lon="2.38181">
        <ele>597.5</ele>
        <time>2022-06-14T08:02:53.000Z</time>
      </trkpt>
      <trkpt lat="45.3739" lon="2.38179">
        <ele>597.6</ele>
        <time>2022-06-14T08:02:54.000Z</time>
      </trkpt>
      <trkpt lat="45.3739" lon="2.38178">
        <ele>597.7</ele>
        <time>2022-06-14T08:02:55.000Z</time>
      </trkpt>
      <trkpt lat="45.37389" lon="2.38176">
        <ele>597.8</ele>
        <time>2022-06-14T08:02:56.000Z</time>
      </trkpt>
      <trkpt lat="45.37388" lon="2.38175">
        <ele>597.9</ele>
        <time>2022-06-14T08:02:57.000Z</time>
      </trkpt>
      <trkpt lat="45.37387" lon="2.38173">
        <ele>598</ele>
        <time>2022-06-14T08:02:58.000Z</time>
      </trkpt>
      <trkpt lat="45.37387" lon="2.38172">
        <ele>598.1</ele>
        <time>2022-06-14T08:02:59.000Z</time>
      </trkpt>
      <trkpt lat="45.37386" lon="2.38171">
        <ele>598.2</ele>
        <time>2022-06-14T08:03:00.000Z</time>
      </trkpt>
      <trkpt lat="45.37385" lon="2.38169">
        <ele>598.3</ele>
        <time>2022-06-14T08:03:01.000Z</time>
      </trkpt>
      <trkpt lat="45.37384" lon="2.38168">
        <ele>598.3</ele>
        <time>2022-06-14T08:03:02.000Z</time>
      </trkpt>
      <trkpt lat="45.37383" lon="2.38167">
        <ele>598.4</ele>
        <time>2022-06-14T08:03:03.000Z</time>
      </trkpt>
      <trkpt lat="45.37383" lon="2.38165">
        <ele>598.6</ele>
        <time>2022-06-14T08:03:04.000Z</time>
      </trkpt>
      <trkpt lat="45.37382" lon="2.38164">
        <ele>598.8</ele>
        <time>2022-06-14T08:03:05.000Z</time>
      </trkpt>
      <trkpt lat="45.37381" lon="2.38162">
        <ele>599.1</ele>
        <time>2022-06-14T08:03:06.000Z</time>
      </trkpt>
      <trkpt lat="45.37381" lon="2.3816">
        <ele>599.3</ele>
        <time>2022-06-14T08:03:07.000Z</time>
      </trkpt>
      <trkpt lat="45.3738" lon="2.38159">
        <ele>599.6</ele>
        <time>2022-06-14T08:03:08.000Z</time>
      </trkpt>
      <trkpt lat="45.3738" lon="2.38157">
        <ele>599.8</ele>
        <time>2022-06-14T08:03:09.000Z</time>
      </trkpt>
      <trkpt lat="45.37379" lon="2.38155">
        <ele>600.1</ele>
        <time>2022-06-14T08:03:10.000Z</time>
      </trkpt>
      <trkpt lat="45.37378" lon="2.38154">
        <ele>600.3</ele>
        <time>2022-06-14T08:03:11.000Z</time>
      </trkpt>
      <trkpt lat="45.37378" lon="2.38152">
        <ele>600.5</ele>
        <time>2022-06-14T08:03:12.000Z</time>
      </trkpt>
      <trkpt lat="45.37377" lon="2.38151">
        <ele>600.7</ele>
        <time>2022-06-14T08:03:13.000Z</time>
      </trkpt>
      <trkpt lat="45.37376" lon="2.3815">
        <ele>600.9</ele>
        <time>2022-06-14T08:03:14.000Z</time>
      </trkpt>
      <trkpt lat="45.37375" lon="2.38148">
        <ele>601</ele>
        <time>2022-06-14T08:03:15.000Z</time>
      </trkpt>
      <trkpt lat="45.37375" lon="2.38147">
        <ele>601.2</ele>
        <time>2022-06-14T08:03:16.000Z</time>
      </trkpt>
      <trkpt lat="45.37374" lon="2.38146">
        <ele>601.3</ele>
        <time>2022-06-14T08:03:17.000Z</time>
      </trkpt>
      <trkpt lat="45.37373" lon="2.38145">
        <ele>601.4</ele>
        <time>2022-06-14T08:03:18.000Z</time>
      </trkpt>
      <trkpt lat="45.37372" lon="2.38143">
        <ele>601.6</ele>
        <time>2022-06-14T08:03:19.000Z</time>
      </trkpt>
      <trkpt lat="45.37371" lon="2.38142">
        <ele>601.7</ele>
        <time>2022-06-14T08:03:20.000Z</time>
      </trkpt>
      <trkpt lat="45.3737" lon="2.38141">
        <ele>601.8</ele>
        <time>2022-06-14T08:03:21.000Z</time>
      </trkpt>
      <trkpt lat="45.37368" lon="2.3814">
        <ele>601.8</ele>
        <time>2022-06-14T08:03:22.000Z</time>
      </trkpt>
      <trkpt lat="45.37367" lon="2.38139">
        <ele>601.9</ele>
        <time>2022-06-14T08:03:23.000Z</time>
      </trkpt>
      <trkpt lat="45.37366" lon="2.38138">
        <ele>602</ele>
        <time>2022-06-14T08:03:24.000Z</time>
      </trkpt>
      <trkpt lat="45.37365" lon="2.38137">
        <ele>602</ele>
        <time>2022-06-14T08:03:25.000Z</time>
      </trkpt>
      <trkpt lat="45.37364" lon="2.38137">
        <ele>602.1</ele>
        <time>2022-06-14T08:03:26.000Z</time>
      </trkpt>
      <trkpt lat="45.37362" lon="2.38136">
        <ele>602.1</ele>
        <time>2022-06-14T08:03:27.000Z</time>
      </trkpt>
      <trkpt lat="45.37361" lon="2.38135">
        <ele>602.2</ele>
        <time>2022-06-14T08:03:28.000Z</time>
      </trkpt>
      <trkpt lat="45.3736" lon="2.38134">
        <ele>602.2</ele>
        <time>2022-06-14T08:03:29.000Z</time>
      </trkpt>
      <trkpt lat="45.37359" lon="2.38133">
        <ele>602.3</ele>
        <time>2022-06-14T08:03:30.000Z</time>
      </trkpt>
      <trkpt lat="45.37357" lon="2.38132">
        <ele>602.3</ele>
        <time>2022-06-14T08:03:31.000Z</time>
      </trkpt>
      <trkpt lat="45.37356" lon="2.38132">
        <ele>602.3</ele>
        <time>2022-06-14T08:03:32.000Z</time>
      </trkpt>
      <trkpt lat="45.37355" lon="2.38131">
        <ele>602.3</ele>
        <time>2022-06-14T08:03:33.000Z</time>
      </trkpt>
      <trkpt lat="45.37353" lon="2.3813">
        <ele>602.3</ele>
        <time>2022-06-14T08:03:34.000Z</time>
      </trkpt>
      <trkpt lat="45.37352" lon="2.38129">
        <ele>602.3</ele>
        <time>2022-06-14T08:03:35.000Z</time>
      </trkpt>
      <trkpt lat="45.37351" lon="2.38129">
        <ele>602.3</ele>
        <time>2022-06-14T08:03:36.000Z</time>
      </trkpt>
      <trkpt lat="45.3735" lon="2.38128">
        <ele>602.3</ele>
        <time>2022-06-14T08:03:37.000Z</time>
      </trkpt>
      <trkpt lat="45.37348" lon="2.38127">
        <ele>602.3</ele>
        <time>2022-06-14T08:03:38.000Z</time>
      </trkpt>
      <trkpt lat="45.37347" lon="2.38127">
        <ele>602.3</ele>
        <time>2022-06-14T08:03:39.000Z</time>
      </trkpt>
      <trkpt lat="45.37346" lon="2.38126">
        <ele>602.3</ele>
        <time>2022-06-14T08:03:40.000Z</time>
      </trkpt>
      <trkpt lat="45.37345" lon="2.38125">
        <ele>602.3</ele>
        <time>2022-06-14T08:03:41.000Z</time>
      </trkpt>
      <trkpt lat="45.37343" lon="2.38125">
        <ele>602.3</ele>
        <time>2022-06-14T08:03:42.000Z</time>
      </trkpt>
      <trkpt lat="45.37342" lon="2.38124">
        <ele>602.4</ele>
        <time>2022-06-14T08:03:43.000Z</time>
      </trkpt>
      <trkpt lat="45.37341" lon="2.38123">
        <ele>602.4</ele>
        <time>2022-06-14T08:03:44.000Z</time>
      </trkpt>
      <trkpt lat="45.3734" lon="2.38122">
        <ele>602.4</ele>
        <time>2022-06-14T08:03:45.000Z</time>
      </trkpt>
      <trkpt lat="45.37339" lon="2.38121">
        <ele>602.4</ele>
        <time>2022-06-14T08:03:46.000Z</time>
      </trkpt>
      <trkpt lat="45.37338" lon="2.3812">
        <ele>602.5</ele>
        <time>2022-06-14T08:03:47.000Z</time>
      </trkpt>
      <trkpt lat="45.37336" lon="2.38119">
        <ele>602.5</ele>
        <time>2022-06-14T08:03:48.000Z</time>
      </trkpt>
      <trkpt lat="45.37335" lon="2.38118">
        <ele>602.5</ele>
        <time>2022-06-14T08:03:49.000Z</time>
      </trkpt>
      <trkpt lat="45.37334" lon="2.38117">
        <ele>602.6</ele>
        <time>2022-06-14T08:03:50.000Z</time>
      </trkpt>
      <trkpt lat="45.37333" lon="2.38116">
        <ele>602.7</ele>
        <time>2022-06-14T08:03:51.000Z</time>
      </trkpt>
      <trkpt lat="45.37332" lon="2.38115">
        <ele>602.7</ele>
        <time>2022-06-14T08:03:52.000Z</time>
      </trkpt>
      <trkpt lat="45.37331" lon="2.38113">
        <ele>602.7</ele>
        <time>2022-06-14T08:03:53.000Z</time>
      </trkpt>
      <trkpt lat="45.3733" lon="2.38112">
        <ele>602.8</ele>
        <time>2022-06-14T08:03:54.000Z</time>
      </trkpt>
      <trkpt lat="45.37329" lon="2.38111">
        <ele>602.8</ele>
        <time>2022-06-14T08:03:55.000Z</time>
      </trkpt>
      <trkpt lat="45.37328" lon="2.3811">
        <ele>602.9</ele>
        <time>2022-06-14T08:03:56.000Z</time>
      </trkpt>
      <trkpt lat="45.37327" lon="2.38108">
        <ele>602.9</ele>
        <time>2022-06-14T08:03:57.000Z</time>
      </trkpt>
      <trkpt lat="45.37327" lon="2.38107">
        <ele>602.9</ele>
        <time>2022-06-14T08:03:58.000Z</time>
      </trkpt>
      <trkpt lat="45.37326" lon="2.38106">
        <ele>603</ele>
        <time>2022-06-14T08:03:59.000Z</time>
      </trkpt>
      <trkpt lat="45.37325" lon="2.38105">
        <ele>603</ele>
        <time>2022-06-14T08:04:00.000Z</time>
      </trkpt>
      <trkpt lat="45.37324" lon="2.38104">
        <ele>603</ele>
        <time>2022-06-14T08:04:01.000Z</time>
      </trkpt>
      <trkpt lat="45.37323" lon="2.38103">
        <ele>603</ele>
        <time>2022-06-14T08:04:02.000Z</time>
      </trkpt>
      <trkpt lat="45.37323" lon="2.38102">
        <ele>603</ele>
        <time>2022-06-14T08:04:03.000Z</time>
      </trkpt>
      <trkpt lat="45.37322" lon="2.38102">
        <ele>603</ele>
        <time>2022-06-14T08:04:04.000Z</time>
      </trkpt>
      <trkpt lat="45.37321" lon="2.38101">
        <ele>603</ele>
        <time>2022-06-14T08:04:05.000Z</time>
      </trkpt>
      <trkpt lat="45.3732" lon="2.381">
        <ele>603</ele>
        <time>2022-06-14T08:04:06.000Z</time>
      </trkpt>
      <trkpt lat="45.37319" lon="2.38099">
        <ele>603</ele>
        <time>2022-06-14T08:04:07.000Z</time>
      </trkpt>
      <trkpt lat="45.37318" lon="2.38098">
        <ele>602.9</ele>
        <time>2022-06-14T08:04:09.000Z</time>
      </trkpt>
      <trkpt lat="45.37317" lon="2.38097">
        <ele>602.9</ele>
        <time>2022-06-14T08:04:10.000Z</time>
      </trkpt>
      <trkpt lat="45.37316" lon="2.38096">
        <ele>602.9</ele>
        <time>2022-06-14T08:04:11.000Z</time>
      </trkpt>
      <trkpt lat="45.37314" lon="2.38094">
        <ele>602.9</ele>
        <time>2022-06-14T08:04:12.000Z</time>
      </trkpt>
      <trkpt lat="45.37313" lon="2.38093">
        <ele>602.9</ele>
        <time>2022-06-14T08:04:13.000Z</time>
      </trkpt>
      <trkpt lat="45.37312" lon="2.38092">
        <ele>602.9</ele>
        <time>2022-06-14T08:04:14.000Z</time>
      </trkpt>
      <trkpt lat="45.37311" lon="2.38091">
        <ele>602.9</ele>
        <time>2022-06-14T08:04:15.000Z</time>
      </trkpt>
      <trkpt lat="45.3731" lon="2.38089">
        <ele>603</ele>
        <time>2022-06-14T08:04:16.000Z</time>
      </trkpt>
      <trkpt lat="45.37309" lon="2.38088">
        <ele>603</ele>
        <time>2022-06-14T08:04:17.000Z</time>
      </trkpt>
      <trkpt lat="45.37308" lon="2.38086">
        <ele>603</ele>
        <time>2022-06-14T08:04:18.000Z</time>
      </trkpt>
      <trkpt lat="45.37307" lon="2.38085">
        <ele>603</ele>
        <time>2022-06-14T08:04:19.000Z</time>
      </trkpt>
      <trkpt lat="45.37306" lon="2.38084">
        <ele>603</ele>
        <time>2022-06-14T08:04:20.000Z</time>
      </trkpt>
      <trkpt lat="45.37305" lon="2.38083">
        <ele>602.9</ele>
        <time>2022-06-14T08:04:21.000Z</time>
      </trkpt>
      <trkpt lat="45.37304" lon="2.38082">
        <ele>602.9</ele>
        <time>2022-06-14T08:04:22.000Z</time>
      </trkpt>
      <trkpt lat="45.37303" lon="2.38082">
        <ele>602.8</ele>
        <time>2022-06-14T08:04:23.000Z</time>
      </trkpt>
      <trkpt lat="45.37302" lon="2.38081">
        <ele>602.7</ele>
        <time>2022-06-14T08:04:24.000Z</time>
      </trkpt>
      <trkpt lat="45.37301" lon="2.3808">
        <ele>602.7</ele>
        <time>2022-06-14T08:04:25.000Z</time>
      </trkpt>
      <trkpt lat="45.373" lon="2.3808">
        <ele>602.6</ele>
        <time>2022-06-14T08:04:26.000Z</time>
      </trkpt>
      <trkpt lat="45.37299" lon="2.38079">
        <ele>602.5</ele>
        <time>2022-06-14T08:04:27.000Z</time>
      </trkpt>
      <trkpt lat="45.37298" lon="2.38078">
        <ele>602.5</ele>
        <time>2022-06-14T08:04:28.000Z</time>
      </trkpt>
      <trkpt lat="45.37297" lon="2.38077">
        <ele>602.4</ele>
        <time>2022-06-14T08:04:29.000Z</time>
      </trkpt>
      <trkpt lat="45.37296" lon="2.38076">
        <ele>602.3</ele>
        <time>2022-06-14T08:04:30.000Z</time>
      </trkpt>
      <trkpt lat="45.37295" lon="2.38075">
        <ele>602.3</ele>
        <time>2022-06-14T08:04:31.000Z</time>
      </trkpt>
      <trkpt lat="45.37294" lon="2.38074">
        <ele>602.2</ele>
        <time>2022-06-14T08:04:32.000Z</time>
      </trkpt>
      <trkpt lat="45.37293" lon="2.38073">
        <ele>602.2</ele>
        <time>2022-06-14T08:04:33.000Z</time>
      </trkpt>
      <trkpt lat="45.37292" lon="2.38072">
        <ele>602.2</ele>
        <time>2022-06-14T08:04:34.000Z</time>
      </trkpt>
      <trkpt lat="45.37291" lon="2.38071">
        <ele>602.1</ele>
        <time>2022-06-14T08:04:35.000Z</time>
      </trkpt>
      <trkpt lat="45.3729" lon="2.38069">
        <ele>602.1</ele>
        <time>2022-06-14T08:04:36.000Z</time>
      </trkpt>
      <trkpt lat="45.37289" lon="2.38068">
        <ele>602.1</ele>
        <time>2022-06-14T08:04:37.000Z</time>
      </trkpt>
      <trkpt lat="45.37288" lon="2.38067">
        <ele>602.1</ele>
        <time>2022-06-14T08:04:38.000Z</time>
      </trkpt>
      <trkpt lat="45.37287" lon="2.38065">
        <ele>602.1</ele>
        <time>2022-06-14T08:04:39.000Z</time>
      </trkpt>
      <trkpt lat="45.37286" lon="2.38064">
        <ele>602.1</ele>
        <time>2022-06-14T08:04:40.000Z</time>
      </trkpt>
      <trkpt lat="45.37286" lon="2.38063">
        <ele>602.1</ele>
        <time>2022-06-14T08:04:41.000Z</time>
      </trkpt>
      <trkpt lat="45.37285" lon="2.38061">
        <ele>602.1</ele>
        <time>2022-06-14T08:04:42.000Z</time>
      </trkpt>
      <trkpt lat="45.37284" lon="2.3806">
        <ele>602.1</ele>
        <time>2022-06-14T08:04:43.000Z</time>
      </trkpt>
      <trkpt lat="45.37284" lon="2.38058">
        <ele>602.2</ele>
        <time>2022-06-14T08:04:44.000Z</time>
      </trkpt>
      <trkpt lat="45.37283" lon="2.38057">
        <ele>602.2</ele>
        <time>2022-06-14T08:04:45.000Z</time>
      </trkpt>
      <trkpt lat="45.37282" lon="2.38055">
        <ele>602.3</ele>
        <time>2022-06-14T08:04:46.000Z</time>
      </trkpt>
      <trkpt lat="45.37282" lon="2.38054">
        <ele>602.3</ele>
        <time>2022-06-14T08:04:47.000Z</time>
      </trkpt>
      <trkpt lat="45.37281" lon="2.38052">
        <ele>602.3</ele>
        <time>2022-06-14T08:04:48.000Z</time>
      </trkpt>
      <trkpt lat="45.37281" lon="2.38051">
        <ele>602.4</ele>
        <time>2022-06-14T08:04:49.000Z</time>
      </trkpt>
      <trkpt lat="45.3728" lon="2.38049">
        <ele>602.5</ele>
        <time>2022-06-14T08:04:50.000Z</time>
      </trkpt>
      <trkpt lat="45.37279" lon="2.38048">
        <ele>602.5</ele>
        <time>2022-06-14T08:04:51.000Z</time>
      </trkpt>
      <trkpt lat="45.37279" lon="2.38046">
        <ele>602.6</ele>
        <time>2022-06-14T08:04:52.000Z</time>
      </trkpt>
      <trkpt lat="45.37278" lon="2.38045">
        <ele>602.6</ele>
        <time>2022-06-14T08:04:53.000Z</time>
      </trkpt>
      <trkpt lat="45.37278" lon="2.38043">
        <ele>602.7</ele>
        <time>2022-06-14T08:04:54.000Z</time>
      </trkpt>
      <trkpt lat="45.37277" lon="2.38042">
        <ele>602.8</ele>
        <time>2022-06-14T08:04:55.000Z</time>
      </trkpt>
      <trkpt lat="45.37277" lon="2.3804">
        <ele>602.8</ele>
        <time>2022-06-14T08:04:56.000Z</time>
      </trkpt>
      <trkpt lat="45.37276" lon="2.38039">
        <ele>602.9</ele>
        <time>2022-06-14T08:04:57.000Z</time>
      </trkpt>
      <trkpt lat="45.37276" lon="2.38037">
        <ele>603</ele>
        <time>2022-06-14T08:04:58.000Z</time>
      </trkpt>
      <trkpt lat="45.37276" lon="2.38036">
        <ele>603</ele>
        <time>2022-06-14T08:04:59.000Z</time>
      </trkpt>
      <trkpt lat="45.37275" lon="2.38034">
        <ele>603.1</ele>
        <time>2022-06-14T08:05:00.000Z</time>
      </trkpt>
      <trkpt lat="45.37275" lon="2.38032">
        <ele>603.2</ele>
        <time>2022-06-14T08:05:01.000Z</time>
      </trkpt>
      <trkpt lat="45.37274" lon="2.38031">
        <ele>603.3</ele>
        <time>2022-06-14T08:05:02.000Z</time>
      </trkpt>
      <trkpt lat="45.37274" lon="2.38029">
        <ele>603.4</ele>
        <time>2022-06-14T08:05:03.000Z</time>
      </trkpt>
      <trkpt lat="45.37274" lon="2.38028">
        <ele>603.5</ele>
        <time>2022-06-14T08:05:04.000Z</time>
      </trkpt>
      <trkpt lat="45.37273" lon="2.38026">
        <ele>603.6</ele>
        <time>2022-06-14T08:05:05.000Z</time>
      </trkpt>
      <trkpt lat="45.37273" lon="2.38024">
        <ele>603.7</ele>
        <time>2022-06-14T08:05:06.000Z</time>
      </trkpt>
      <trkpt lat="45.37273" lon="2.38023">
        <ele>603.8</ele>
        <time>2022-06-14T08:05:07.000Z</time>
      </trkpt>
      <trkpt lat="45.37273" lon="2.38021">
        <ele>603.9</ele>
        <time>2022-06-14T08:05:08.000Z</time>
      </trkpt>
      <trkpt lat="45.37273" lon="2.38019">
        <ele>604.1</ele>
        <time>2022-06-14T08:05:09.000Z</time>
      </trkpt>
      <trkpt lat="45.37272" lon="2.38017">
        <ele>604.2</ele>
        <time>2022-06-14T08:05:10.000Z</time>
      </trkpt>
      <trkpt lat="45.37272" lon="2.38016">
        <ele>604.3</ele>
        <time>2022-06-14T08:05:11.000Z</time>
      </trkpt>
      <trkpt lat="45.37272" lon="2.38014">
        <ele>604.4</ele>
        <time>2022-06-14T08:05:12.000Z</time>
      </trkpt>
      <trkpt lat="45.37272" lon="2.38012">
        <ele>604.5</ele>
        <time>2022-06-14T08:05:13.000Z</time>
      </trkpt>
      <trkpt lat="45.37271" lon="2.3801">
        <ele>604.7</ele>
        <time>2022-06-14T08:05:14.000Z</time>
      </trkpt>
      <trkpt lat="45.37271" lon="2.38008">
        <ele>604.8</ele>
        <time>2022-06-14T08:05:15.000Z</time>
      </trkpt>
      <trkpt lat="45.37271" lon="2.38007">
        <ele>604.9</ele>
        <time>2022-06-14T08:05:16.000Z</time>
      </trkpt>
      <trkpt lat="45.37271" lon="2.38005">
        <ele>605</ele>
        <time>2022-06-14T08:05:17.000Z</time>
      </trkpt>
      <trkpt lat="45.3727" lon="2.38003">
        <ele>605.2</ele>
        <time>2022-06-14T08:05:18.000Z</time>
      </trkpt>
      <trkpt lat="45.3727" lon="2.38001">
        <ele>605.3</ele>
        <time>2022-06-14T08:05:19.000Z</time>
      </trkpt>
      <trkpt lat="45.3727" lon="2.37999">
        <ele>605.4</ele>
        <time>2022-06-14T08:05:20.000Z</time>
      </trkpt>
      <trkpt lat="45.37269" lon="2.37998">
        <ele>605.5</ele>
        <time>2022-06-14T08:05:21.000Z</time>
      </trkpt>
      <trkpt lat="45.37269" lon="2.37996">
        <ele>605.6</ele>
        <time>2022-06-14T08:05:22.000Z</time>
      </trkpt>
      <trkpt lat="45.37269" lon="2.37994">
        <ele>605.7</ele>
        <time>2022-06-14T08:05:23.000Z</time>
      </trkpt>
      <trkpt lat="45.37268" lon="2.37992">
        <ele>605.9</ele>
        <time>2022-06-14T08:05:24.000Z</time>
      </trkpt>
      <trkpt lat="45.37268" lon="2.37991">
        <ele>606</ele>
        <time>2022-06-14T08:05:25.000Z</time>
      </trkpt>
      <trkpt lat="45.37268" lon="2.37989">
        <ele>606.1</ele>
        <time>2022-06-14T08:05:26.000Z</time>
      </trkpt>
      <trkpt lat="45.37267" lon="2.37987">
        <ele>606.2</ele>
        <time>2022-06-14T08:05:27.000Z</time>
      </trkpt>
      <trkpt lat="45.37267" lon="2.37986">
        <ele>606.2</ele>
        <time>2022-06-14T08:05:28.000Z</time>
      </trkpt>
      <trkpt lat="45.37266" lon="2.37984">
        <ele>606.3</ele>
        <time>2022-06-14T08:05:29.000Z</time>
      </trkpt>
      <trkpt lat="45.37266" lon="2.37983">
        <ele>606.4</ele>
        <time>2022-06-14T08:05:30.000Z</time>
      </trkpt>
      <trkpt lat="45.37265" lon="2.37981">
        <ele>606.4</ele>
        <time>2022-06-14T08:05:31.000Z</time>
      </trkpt>
      <trkpt lat="45.37265" lon="2.3798">
        <ele>606.5</ele>
        <time>2022-06-14T08:05:32.000Z</time>
      </trkpt>
      <trkpt lat="45.37264" lon="2.37978">
        <ele>606.5</ele>
        <time>2022-06-14T08:05:33.000Z</time>
      </trkpt>
      <trkpt lat="45.37264" lon="2.37977">
        <ele>606.5</ele>
        <time>2022-06-14T08:05:34.000Z</time>
      </trkpt>
      <trkpt lat="45.37263" lon="2.37975">
        <ele>606.6</ele>
        <time>2022-06-14T08:05:35.000Z</time>
      </trkpt>
      <trkpt lat="45.37262" lon="2.37974">
        <ele>606.6</ele>
        <time>2022-06-14T08:05:36.000Z</time>
      </trkpt>
      <trkpt lat="45.37262" lon="2.37972">
        <ele>606.6</ele>
        <time>2022-06-14T08:05:37.000Z</time>
      </trkpt>
      <trkpt lat="45.37261" lon="2.37971">
        <ele>606.7</ele>
        <time>2022-06-14T08:05:38.000Z</time>
      </trkpt>
      <trkpt lat="45.37261" lon="2.37969">
        <ele>606.7</ele>
        <time>2022-06-14T08:05:39.000Z</time>
      </trkpt>
      <trkpt lat="45.3726" lon="2.37968">
        <ele>606.7</ele>
        <time>2022-06-14T08:05:40.000Z</time>
      </trkpt>
      <trkpt lat="45.3726" lon="2.37966">
        <ele>606.8</ele>
        <time>2022-06-14T08:05:41.000Z</time>
      </trkpt>
      <trkpt lat="45.37259" lon="2.37965">
        <ele>606.9</ele>
        <time>2022-06-14T08:05:42.000Z</time>
      </trkpt>
      <trkpt lat="45.37259" lon="2.37963">
        <ele>606.9</ele>
        <time>2022-06-14T08:05:43.000Z</time>
      </trkpt>
      <trkpt lat="45.37258" lon="2.37961">
        <ele>607</ele>
        <time>2022-06-14T08:05:44.000Z</time>
      </trkpt>
      <trkpt lat="45.37258" lon="2.37959">
        <ele>607</ele>
        <time>2022-06-14T08:05:45.000Z</time>
      </trkpt>
      <trkpt lat="45.37257" lon="2.37958">
        <ele>607.1</ele>
        <time>2022-06-14T08:05:46.000Z</time>
      </trkpt>
      <trkpt lat="45.37257" lon="2.37956">
        <ele>607.1</ele>
        <time>2022-06-14T08:05:47.000Z</time>
      </trkpt>
      <trkpt lat="45.37256" lon="2.37954">
        <ele>607.2</ele>
        <time>2022-06-14T08:05:48.000Z</time>
      </trkpt>
      <trkpt lat="45.37256" lon="2.37953">
        <ele>607.2</ele>
        <time>2022-06-14T08:05:49.000Z</time>
      </trkpt>
      <trkpt lat="45.37255" lon="2.37951">
        <ele>607.3</ele>
        <time>2022-06-14T08:05:50.000Z</time>
      </trkpt>
      <trkpt lat="45.37255" lon="2.37949">
        <ele>607.3</ele>
        <time>2022-06-14T08:05:51.000Z</time>
      </trkpt>
      <trkpt lat="45.37254" lon="2.37948">
        <ele>607.3</ele>
        <time>2022-06-14T08:05:52.000Z</time>
      </trkpt>
      <trkpt lat="45.37254" lon="2.37946">
        <ele>607.3</ele>
        <time>2022-06-14T08:05:53.000Z</time>
      </trkpt>
      <trkpt lat="45.37253" lon="2.37945">
        <ele>607.3</ele>
        <time>2022-06-14T08:05:54.000Z</time>
      </trkpt>
      <trkpt lat="45.37252" lon="2.37944">
        <ele>607.2</ele>
        <time>2022-06-14T08:05:55.000Z</time>
      </trkpt>
      <trkpt lat="45.37252" lon="2.37942">
        <ele>607.2</ele>
        <time>2022-06-14T08:05:56.000Z</time>
      </trkpt>
      <trkpt lat="45.37251" lon="2.37941">
        <ele>607.1</ele>
        <time>2022-06-14T08:05:57.000Z</time>
      </trkpt>
      <trkpt lat="45.3725" lon="2.3794">
        <ele>607.1</ele>
        <time>2022-06-14T08:05:58.000Z</time>
      </trkpt>
      <trkpt lat="45.37249" lon="2.37938">
        <ele>607.1</ele>
        <time>2022-06-14T08:05:59.000Z</time>
      </trkpt>
      <trkpt lat="45.37249" lon="2.37937">
        <ele>607.1</ele>
        <time>2022-06-14T08:06:00.000Z</time>
      </trkpt>
      <trkpt lat="45.37248" lon="2.37936">
        <ele>607.1</ele>
        <time>2022-06-14T08:06:01.000Z</time>
      </trkpt>
      <trkpt lat="45.37248" lon="2.37935">
        <ele>607.1</ele>
        <time>2022-06-14T08:06:02.000Z</time>
      </trkpt>
      <trkpt lat="45.37247" lon="2.37933">
        <ele>607.2</ele>
        <time>2022-06-14T08:06:03.000Z</time>
      </trkpt>
      <trkpt lat="45.37247" lon="2.37932">
        <ele>607.2</ele>
        <time>2022-06-14T08:06:04.000Z</time>
      </trkpt>
      <trkpt lat="45.37246" lon="2.3793">
        <ele>607.3</ele>
        <time>2022-06-14T08:06:05.000Z</time>
      </trkpt>
      <trkpt lat="45.37246" lon="2.37929">
        <ele>607.3</ele>
        <time>2022-06-14T08:06:06.000Z</time>
      </trkpt>
      <trkpt lat="45.37245" lon="2.37927">
        <ele>607.4</ele>
        <time>2022-06-14T08:06:07.000Z</time>
      </trkpt>
      <trkpt lat="45.37245" lon="2.37925">
        <ele>607.5</ele>
        <time>2022-06-14T08:06:08.000Z</time>
      </trkpt>
      <trkpt lat="45.37245" lon="2.37923">
        <ele>607.6</ele>
        <time>2022-06-14T08:06:09.000Z</time>
      </trkpt>
      <trkpt lat="45.37244" lon="2.37922">
        <ele>607.7</ele>
        <time>2022-06-14T08:06:10.000Z</time>
      </trkpt>
      <trkpt lat="45.37244" lon="2.3792">
        <ele>607.8</ele>
        <time>2022-06-14T08:06:11.000Z</time>
      </trkpt>
      <trkpt lat="45.37243" lon="2.37918">
        <ele>607.8</ele>
        <time>2022-06-14T08:06:12.000Z</time>
      </trkpt>
      <trkpt lat="45.37242" lon="2.37916">
        <ele>607.8</ele>
        <time>2022-06-14T08:06:13.000Z</time>
      </trkpt>
      <trkpt lat="45.37242" lon="2.37915">
        <ele>607.9</ele>
        <time>2022-06-14T08:06:14.000Z</time>
      </trkpt>
      <trkpt lat="45.37241" lon="2.37913">
        <ele>607.9</ele>
        <time>2022-06-14T08:06:15.000Z</time>
      </trkpt>
      <trkpt lat="45.3724" lon="2.37912">
        <ele>608</ele>
        <time>2022-06-14T08:06:16.000Z</time>
      </trkpt>
      <trkpt lat="45.3724" lon="2.3791">
        <ele>608</ele>
        <time>2022-06-14T08:06:17.000Z</time>
      </trkpt>
      <trkpt lat="45.37239" lon="2.37909">
        <ele>608.1</ele>
        <time>2022-06-14T08:06:18.000Z</time>
      </trkpt>
      <trkpt lat="45.37239" lon="2.37908">
        <ele>608.2</ele>
        <time>2022-06-14T08:06:19.000Z</time>
      </trkpt>
      <trkpt lat="45.37239" lon="2.37907">
        <ele>608.3</ele>
        <time>2022-06-14T08:06:20.000Z</time>
      </trkpt>
      <trkpt lat="45.37239" lon="2.37906">
        <ele>608.3</ele>
        <time>2022-06-14T08:06:21.000Z</time>
      </trkpt>
      <trkpt lat="45.37239" lon="2.37905">
        <ele>608.4</ele>
        <time>2022-06-14T08:06:22.000Z</time>
      </trkpt>
      <trkpt lat="45.37239" lon="2.37904">
        <ele>608.5</ele>
        <time>2022-06-14T08:06:23.000Z</time>
      </trkpt>
      <trkpt lat="45.37239" lon="2.37903">
        <ele>608.6</ele>
        <time>2022-06-14T08:06:24.000Z</time>
      </trkpt>
      <trkpt lat="45.37238" lon="2.37901">
        <ele>608.7</ele>
        <time>2022-06-14T08:06:25.000Z</time>
      </trkpt>
      <trkpt lat="45.37238" lon="2.379">
        <ele>608.8</ele>
        <time>2022-06-14T08:06:26.000Z</time>
      </trkpt>
      <trkpt lat="45.37237" lon="2.37898">
        <ele>608.9</ele>
        <time>2022-06-14T08:06:27.000Z</time>
      </trkpt>
      <trkpt lat="45.37237" lon="2.37896">
        <ele>609</ele>
        <time>2022-06-14T08:06:28.000Z</time>
      </trkpt>
      <trkpt lat="45.37236" lon="2.37894">
        <ele>609.1</ele>
        <time>2022-06-14T08:06:29.000Z</time>
      </trkpt>
      <trkpt lat="45.37236" lon="2.37892">
        <ele>609.1</ele>
        <time>2022-06-14T08:06:30.000Z</time>
      </trkpt>
      <trkpt lat="45.37235" lon="2.3789">
        <ele>609.3</ele>
        <time>2022-06-14T08:06:31.000Z</time>
      </trkpt>
      <trkpt lat="45.37235" lon="2.37888">
        <ele>609.4</ele>
        <time>2022-06-14T08:06:32.000Z</time>
      </trkpt>
      <trkpt lat="45.37235" lon="2.37887">
        <ele>609.5</ele>
        <time>2022-06-14T08:06:33.000Z</time>
      </trkpt>
      <trkpt lat="45.37235" lon="2.37885">
        <ele>609.6</ele>
        <time>2022-06-14T08:06:34.000Z</time>
      </trkpt>
      <trkpt lat="45.37234" lon="2.37883">
        <ele>609.7</ele>
        <time>2022-06-14T08:06:35.000Z</time>
      </trkpt>
      <trkpt lat="45.37234" lon="2.37882">
        <ele>609.8</ele>
        <time>2022-06-14T08:06:36.000Z</time>
      </trkpt>
      <trkpt lat="45.37234" lon="2.3788">
        <ele>610</ele>
        <time>2022-06-14T08:06:37.000Z</time>
      </trkpt>
      <trkpt lat="45.37234" lon="2.37878">
        <ele>610.1</ele>
        <time>2022-06-14T08:06:38.000Z</time>
      </trkpt>
      <trkpt lat="45.37233" lon="2.37877">
        <ele>610.2</ele>
        <time>2022-06-14T08:06:39.000Z</time>
      </trkpt>
      <trkpt lat="45.37233" lon="2.37875">
        <ele>610.3</ele>
        <time>2022-06-14T08:06:40.000Z</time>
      </trkpt>
      <trkpt lat="45.37233" lon="2.37873">
        <ele>610.3</ele>
        <time>2022-06-14T08:06:41.000Z</time>
      </trkpt>
      <trkpt lat="45.37232" lon="2.37872">
        <ele>610.4</ele>
        <time>2022-06-14T08:06:42.000Z</time>
      </trkpt>
      <trkpt lat="45.37232" lon="2.3787">
        <ele>610.5</ele>
        <time>2022-06-14T08:06:43.000Z</time>
      </trkpt>
      <trkpt lat="45.37231" lon="2.37868">
        <ele>610.6</ele>
        <time>2022-06-14T08:06:44.000Z</time>
      </trkpt>
      <trkpt lat="45.37231" lon="2.37867">
        <ele>610.6</ele>
        <time>2022-06-14T08:06:45.000Z</time>
      </trkpt>
      <trkpt lat="45.3723" lon="2.37865">
        <ele>610.6</ele>
        <time>2022-06-14T08:06:46.000Z</time>
      </trkpt>
      <trkpt lat="45.3723" lon="2.37864">
        <ele>610.7</ele>
        <time>2022-06-14T08:06:47.000Z</time>
      </trkpt>
      <trkpt lat="45.37229" lon="2.37862">
        <ele>610.7</ele>
        <time>2022-06-14T08:06:48.000Z</time>
      </trkpt>
      <trkpt lat="45.37229" lon="2.3786">
        <ele>610.8</ele>
        <time>2022-06-14T08:06:49.000Z</time>
      </trkpt>
      <trkpt lat="45.37228" lon="2.37859">
        <ele>610.8</ele>
        <time>2022-06-14T08:06:50.000Z</time>
      </trkpt>
      <trkpt lat="45.37228" lon="2.37857">
        <ele>610.8</ele>
        <time>2022-06-14T08:06:51.000Z</time>
      </trkpt>
      <trkpt lat="45.37227" lon="2.37856">
        <ele>610.8</ele>
        <time>2022-06-14T08:06:52.000Z</time>
      </trkpt>
      <trkpt lat="45.37227" lon="2.37854">
        <ele>610.9</ele>
        <time>2022-06-14T08:06:53.000Z</time>
      </trkpt>
      <trkpt lat="45.37226" lon="2.37853">
        <ele>610.9</ele>
        <time>2022-06-14T08:06:54.000Z</time>
      </trkpt>
      <trkpt lat="45.37226" lon="2.37851">
        <ele>611</ele>
        <time>2022-06-14T08:06:55.000Z</time>
      </trkpt>
      <trkpt lat="45.37226" lon="2.3785">
        <ele>611</ele>
        <time>2022-06-14T08:06:56.000Z</time>
      </trkpt>
      <trkpt lat="45.37225" lon="2.37848">
        <ele>611.1</ele>
        <time>2022-06-14T08:06:57.000Z</time>
      </trkpt>
      <trkpt lat="45.37225" lon="2.37847">
        <ele>611.2</ele>
        <time>2022-06-14T08:06:58.000Z</time>
      </trkpt>
      <trkpt lat="45.37225" lon="2.37845">
        <ele>611.2</ele>
        <time>2022-06-14T08:06:59.000Z</time>
      </trkpt>
      <trkpt lat="45.37225" lon="2.37843">
        <ele>611.3</ele>
        <time>2022-06-14T08:07:00.000Z</time>
      </trkpt>
      <trkpt lat="45.37224" lon="2.37842">
        <ele>611.4</ele>
        <time>2022-06-14T08:07:01.000Z</time>
      </trkpt>
      <trkpt lat="45.37224" lon="2.3784">
        <ele>611.5</ele>
        <time>2022-06-14T08:07:02.000Z</time>
      </trkpt>
      <trkpt lat="45.37224" lon="2.37838">
        <ele>611.6</ele>
        <time>2022-06-14T08:07:03.000Z</time>
      </trkpt>
      <trkpt lat="45.37223" lon="2.37837">
        <ele>611.6</ele>
        <time>2022-06-14T08:07:04.000Z</time>
      </trkpt>
      <trkpt lat="45.37223" lon="2.37835">
        <ele>611.7</ele>
        <time>2022-06-14T08:07:05.000Z</time>
      </trkpt>
      <trkpt lat="45.37223" lon="2.37833">
        <ele>611.8</ele>
        <time>2022-06-14T08:07:06.000Z</time>
      </trkpt>
      <trkpt lat="45.37222" lon="2.37832">
        <ele>611.8</ele>
        <time>2022-06-14T08:07:07.000Z</time>
      </trkpt>
      <trkpt lat="45.37222" lon="2.3783">
        <ele>611.8</ele>
        <time>2022-06-14T08:07:08.000Z</time>
      </trkpt>
      <trkpt lat="45.37222" lon="2.37828">
        <ele>611.8</ele>
        <time>2022-06-14T08:07:09.000Z</time>
      </trkpt>
      <trkpt lat="45.37221" lon="2.37826">
        <ele>611.8</ele>
        <time>2022-06-14T08:07:10.000Z</time>
      </trkpt>
      <trkpt lat="45.37221" lon="2.37825">
        <ele>611.8</ele>
        <time>2022-06-14T08:07:11.000Z</time>
      </trkpt>
      <trkpt lat="45.3722" lon="2.37823">
        <ele>611.8</ele>
        <time>2022-06-14T08:07:12.000Z</time>
      </trkpt>
      <trkpt lat="45.3722" lon="2.37821">
        <ele>611.8</ele>
        <time>2022-06-14T08:07:13.000Z</time>
      </trkpt>
      <trkpt lat="45.37219" lon="2.37819">
        <ele>611.8</ele>
        <time>2022-06-14T08:07:14.000Z</time>
      </trkpt>
      <trkpt lat="45.37219" lon="2.37817">
        <ele>611.8</ele>
        <time>2022-06-14T08:07:15.000Z</time>
      </trkpt>
      <trkpt lat="45.37219" lon="2.37816">
        <ele>611.9</ele>
        <time>2022-06-14T08:07:16.000Z</time>
      </trkpt>
      <trkpt lat="45.37219" lon="2.37814">
        <ele>612</ele>
        <time>2022-06-14T08:07:17.000Z</time>
      </trkpt>
      <trkpt lat="45.37219" lon="2.37812">
        <ele>612.1</ele>
        <time>2022-06-14T08:07:18.000Z</time>
      </trkpt>
      <trkpt lat="45.37219" lon="2.37811">
        <ele>612.2</ele>
        <time>2022-06-14T08:07:19.000Z</time>
      </trkpt>
      <trkpt lat="45.37219" lon="2.37809">
        <ele>612.3</ele>
        <time>2022-06-14T08:07:20.000Z</time>
      </trkpt>
      <trkpt lat="45.37219" lon="2.37807">
        <ele>612.3</ele>
        <time>2022-06-14T08:07:21.000Z</time>
      </trkpt>
      <trkpt lat="45.37219" lon="2.37806">
        <ele>612.4</ele>
        <time>2022-06-14T08:07:22.000Z</time>
      </trkpt>
      <trkpt lat="45.37219" lon="2.37804">
        <ele>612.5</ele>
        <time>2022-06-14T08:07:23.000Z</time>
      </trkpt>
      <trkpt lat="45.37219" lon="2.37803">
        <ele>612.6</ele>
        <time>2022-06-14T08:07:24.000Z</time>
      </trkpt>
      <trkpt lat="45.37219" lon="2.37801">
        <ele>612.7</ele>
        <time>2022-06-14T08:07:25.000Z</time>
      </trkpt>
      <trkpt lat="45.37219" lon="2.37799">
        <ele>612.8</ele>
        <time>2022-06-14T08:07:26.000Z</time>
      </trkpt>
      <trkpt lat="45.37219" lon="2.37797">
        <ele>612.9</ele>
        <time>2022-06-14T08:07:27.000Z</time>
      </trkpt>
      <trkpt lat="45.37219" lon="2.37796">
        <ele>613</ele>
        <time>2022-06-14T08:07:28.000Z</time>
      </trkpt>
      <trkpt lat="45.37219" lon="2.37794">
        <ele>613.1</ele>
        <time>2022-06-14T08:07:29.000Z</time>
      </trkpt>
      <trkpt lat="45.37219" lon="2.37792">
        <ele>613.2</ele>
        <time>2022-06-14T08:07:30.000Z</time>
      </trkpt>
      <trkpt lat="45.37219" lon="2.37791">
        <ele>613.2</ele>
        <time>2022-06-14T08:07:31.000Z</time>
      </trkpt>
      <trkpt lat="45.37219" lon="2.37789">
        <ele>613.3</ele>
        <time>2022-06-14T08:07:32.000Z</time>
      </trkpt>
      <trkpt lat="45.37219" lon="2.37787">
        <ele>613.4</ele>
        <time>2022-06-14T08:07:33.000Z</time>
      </trkpt>
      <trkpt lat="45.37219" lon="2.37786">
        <ele>613.5</ele>
        <time>2022-06-14T08:07:34.000Z</time>
      </trkpt>
      <trkpt lat="45.37218" lon="2.37784">
        <ele>613.5</ele>
        <time>2022-06-14T08:07:35.000Z</time>
      </trkpt>
      <trkpt lat="45.37218" lon="2.37782">
        <ele>613.6</ele>
        <time>2022-06-14T08:07:36.000Z</time>
      </trkpt>
      <trkpt lat="45.37218" lon="2.3778">
        <ele>613.7</ele>
        <time>2022-06-14T08:07:37.000Z</time>
      </trkpt>
      <trkpt lat="45.37218" lon="2.37778">
        <ele>613.8</ele>
        <time>2022-06-14T08:07:38.000Z</time>
      </trkpt>
      <trkpt lat="45.37218" lon="2.37777">
        <ele>613.8</ele>
        <time>2022-06-14T08:07:39.000Z</time>
      </trkpt>
      <trkpt lat="45.37218" lon="2.37775">
        <ele>613.9</ele>
        <time>2022-06-14T08:07:40.000Z</time>
      </trkpt>
      <trkpt lat="45.37218" lon="2.37773">
        <ele>614</ele>
        <time>2022-06-14T08:07:41.000Z</time>
      </trkpt>
      <trkpt lat="45.37218" lon="2.37771">
        <ele>614.2</ele>
        <time>2022-06-14T08:07:42.000Z</time>
      </trkpt>
      <trkpt lat="45.37218" lon="2.3777">
        <ele>614.3</ele>
        <time>2022-06-14T08:07:43.000Z</time>
      </trkpt>
      <trkpt lat="45.37218" lon="2.37768">
        <ele>614.4</ele>
        <time>2022-06-14T08:07:44.000Z</time>
      </trkpt>
      <trkpt lat="45.37219" lon="2.37766">
        <ele>614.6</ele>
        <time>2022-06-14T08:07:45.000Z</time>
      </trkpt>
      <trkpt lat="45.37219" lon="2.37765">
        <ele>614.8</ele>
        <time>2022-06-14T08:07:46.000Z</time>
      </trkpt>
      <trkpt lat="45.37219" lon="2.37763">
        <ele>614.9</ele>
        <time>2022-06-14T08:07:47.000Z</time>
      </trkpt>
      <trkpt lat="45.3722" lon="2.37761">
        <ele>615.1</ele>
        <time>2022-06-14T08:07:48.000Z</time>
      </trkpt>
      <trkpt lat="45.3722" lon="2.37759">
        <ele>615.3</ele>
        <time>2022-06-14T08:07:49.000Z</time>
      </trkpt>
      <trkpt lat="45.37221" lon="2.37758">
        <ele>615.5</ele>
        <time>2022-06-14T08:07:50.000Z</time>
      </trkpt>
      <trkpt lat="45.37221" lon="2.37756">
        <ele>615.7</ele>
        <time>2022-06-14T08:07:51.000Z</time>
      </trkpt>
      <trkpt lat="45.37221" lon="2.37754">
        <ele>615.8</ele>
        <time>2022-06-14T08:07:52.000Z</time>
      </trkpt>
      <trkpt lat="45.37221" lon="2.37752">
        <ele>615.9</ele>
        <time>2022-06-14T08:07:53.000Z</time>
      </trkpt>
      <trkpt lat="45.37221" lon="2.3775">
        <ele>616</ele>
        <time>2022-06-14T08:07:54.000Z</time>
      </trkpt>
      <trkpt lat="45.37221" lon="2.37749">
        <ele>616</ele>
        <time>2022-06-14T08:07:55.000Z</time>
      </trkpt>
      <trkpt lat="45.37221" lon="2.37747">
        <ele>616</ele>
        <time>2022-06-14T08:07:56.000Z</time>
      </trkpt>
      <trkpt lat="45.37221" lon="2.37745">
        <ele>616</ele>
        <time>2022-06-14T08:07:57.000Z</time>
      </trkpt>
      <trkpt lat="45.3722" lon="2.37743">
        <ele>616</ele>
        <time>2022-06-14T08:07:58.000Z</time>
      </trkpt>
      <trkpt lat="45.3722" lon="2.37741">
        <ele>616</ele>
        <time>2022-06-14T08:07:59.000Z</time>
      </trkpt>
      <trkpt lat="45.3722" lon="2.3774">
        <ele>616</ele>
        <time>2022-06-14T08:08:00.000Z</time>
      </trkpt>
      <trkpt lat="45.3722" lon="2.37738">
        <ele>616.1</ele>
        <time>2022-06-14T08:08:01.000Z</time>
      </trkpt>
      <trkpt lat="45.3722" lon="2.37736">
        <ele>616.1</ele>
        <time>2022-06-14T08:08:02.000Z</time>
      </trkpt>
      <trkpt lat="45.3722" lon="2.37734">
        <ele>616.1</ele>
        <time>2022-06-14T08:08:03.000Z</time>
      </trkpt>
      <trkpt lat="45.3722" lon="2.37732">
        <ele>616.2</ele>
        <time>2022-06-14T08:08:04.000Z</time>
      </trkpt>
      <trkpt lat="45.3722" lon="2.3773">
        <ele>616.2</ele>
        <time>2022-06-14T08:08:05.000Z</time>
      </trkpt>
      <trkpt lat="45.3722" lon="2.37728">
        <ele>616.2</ele>
        <time>2022-06-14T08:08:06.000Z</time>
      </trkpt>
      <trkpt lat="45.3722" lon="2.37726">
        <ele>616.3</ele>
        <time>2022-06-14T08:08:07.000Z</time>
      </trkpt>
      <trkpt lat="45.3722" lon="2.37724">
        <ele>616.3</ele>
        <time>2022-06-14T08:08:08.000Z</time>
      </trkpt>
      <trkpt lat="45.3722" lon="2.37722">
        <ele>616.3</ele>
        <time>2022-06-14T08:08:09.000Z</time>
      </trkpt>
      <trkpt lat="45.3722" lon="2.3772">
        <ele>616.4</ele>
        <time>2022-06-14T08:08:10.000Z</time>
      </trkpt>
      <trkpt lat="45.3722" lon="2.37718">
        <ele>616.5</ele>
        <time>2022-06-14T08:08:11.000Z</time>
      </trkpt>
      <trkpt lat="45.37221" lon="2.37716">
        <ele>616.6</ele>
        <time>2022-06-14T08:08:12.000Z</time>
      </trkpt>
      <trkpt lat="45.37221" lon="2.37715">
        <ele>616.7</ele>
        <time>2022-06-14T08:08:13.000Z</time>
      </trkpt>
      <trkpt lat="45.37221" lon="2.37713">
        <ele>616.8</ele>
        <time>2022-06-14T08:08:14.000Z</time>
      </trkpt>
      <trkpt lat="45.37222" lon="2.37711">
        <ele>617</ele>
        <time>2022-06-14T08:08:15.000Z</time>
      </trkpt>
      <trkpt lat="45.37222" lon="2.37709">
        <ele>617</ele>
        <time>2022-06-14T08:08:16.000Z</time>
      </trkpt>
      <trkpt lat="45.37222" lon="2.37707">
        <ele>617.2</ele>
        <time>2022-06-14T08:08:17.000Z</time>
      </trkpt>
      <trkpt lat="45.37222" lon="2.37706">
        <ele>617.2</ele>
        <time>2022-06-14T08:08:18.000Z</time>
      </trkpt>
      <trkpt lat="45.37222" lon="2.37704">
        <ele>617.3</ele>
        <time>2022-06-14T08:08:19.000Z</time>
      </trkpt>
      <trkpt lat="45.37222" lon="2.37702">
        <ele>617.3</ele>
        <time>2022-06-14T08:08:20.000Z</time>
      </trkpt>
      <trkpt lat="45.37222" lon="2.377">
        <ele>617.4</ele>
        <time>2022-06-14T08:08:21.000Z</time>
      </trkpt>
      <trkpt lat="45.37222" lon="2.37698">
        <ele>617.4</ele>
        <time>2022-06-14T08:08:22.000Z</time>
      </trkpt>
      <trkpt lat="45.37222" lon="2.37696">
        <ele>617.4</ele>
        <time>2022-06-14T08:08:23.000Z</time>
      </trkpt>
      <trkpt lat="45.37222" lon="2.37694">
        <ele>617.4</ele>
        <time>2022-06-14T08:08:24.000Z</time>
      </trkpt>
      <trkpt lat="45.37222" lon="2.37693">
        <ele>617.5</ele>
        <time>2022-06-14T08:08:25.000Z</time>
      </trkpt>
      <trkpt lat="45.37222" lon="2.37691">
        <ele>617.5</ele>
        <time>2022-06-14T08:08:26.000Z</time>
      </trkpt>
      <trkpt lat="45.37222" lon="2.37689">
        <ele>617.6</ele>
        <time>2022-06-14T08:08:27.000Z</time>
      </trkpt>
      <trkpt lat="45.37222" lon="2.37687">
        <ele>617.6</ele>
        <time>2022-06-14T08:08:28.000Z</time>
      </trkpt>
      <trkpt lat="45.37223" lon="2.37686">
        <ele>617.7</ele>
        <time>2022-06-14T08:08:29.000Z</time>
      </trkpt>
      <trkpt lat="45.37223" lon="2.37684">
        <ele>617.8</ele>
        <time>2022-06-14T08:08:30.000Z</time>
      </trkpt>
      <trkpt lat="45.37223" lon="2.37682">
        <ele>618</ele>
        <time>2022-06-14T08:08:31.000Z</time>
      </trkpt>
      <trkpt lat="45.37224" lon="2.37681">
        <ele>618.1</ele>
        <time>2022-06-14T08:08:32.000Z</time>
      </trkpt>
      <trkpt lat="45.37224" lon="2.37679">
        <ele>618.2</ele>
        <time>2022-06-14T08:08:33.000Z</time>
      </trkpt>
      <trkpt lat="45.37225" lon="2.37678">
        <ele>618.4</ele>
        <time>2022-06-14T08:08:34.000Z</time>
      </trkpt>
      <trkpt lat="45.37225" lon="2.37676">
        <ele>618.5</ele>
        <time>2022-06-14T08:08:35.000Z</time>
      </trkpt>
      <trkpt lat="45.37225" lon="2.37674">
        <ele>618.7</ele>
        <time>2022-06-14T08:08:36.000Z</time>
      </trkpt>
      <trkpt lat="45.37226" lon="2.37672">
        <ele>618.8</ele>
        <time>2022-06-14T08:08:37.000Z</time>
      </trkpt>
      <trkpt lat="45.37226" lon="2.3767">
        <ele>619</ele>
        <time>2022-06-14T08:08:38.000Z</time>
      </trkpt>
      <trkpt lat="45.37226" lon="2.37668">
        <ele>619.1</ele>
        <time>2022-06-14T08:08:39.000Z</time>
      </trkpt>
      <trkpt lat="45.37226" lon="2.37666">
        <ele>619.1</ele>
        <time>2022-06-14T08:08:40.000Z</time>
      </trkpt>
      <trkpt lat="45.37226" lon="2.37664">
        <ele>619.1</ele>
        <time>2022-06-14T08:08:41.000Z</time>
      </trkpt>
      <trkpt lat="45.37227" lon="2.37663">
        <ele>619.2</ele>
        <time>2022-06-14T08:08:42.000Z</time>
      </trkpt>
      <trkpt lat="45.37227" lon="2.37661">
        <ele>619.1</ele>
        <time>2022-06-14T08:08:43.000Z</time>
      </trkpt>
      <trkpt lat="45.37227" lon="2.37659">
        <ele>619.1</ele>
        <time>2022-06-14T08:08:44.000Z</time>
      </trkpt>
      <trkpt lat="45.37227" lon="2.37657">
        <ele>619.1</ele>
        <time>2022-06-14T08:08:45.000Z</time>
      </trkpt>
      <trkpt lat="45.37227" lon="2.37655">
        <ele>619.1</ele>
        <time>2022-06-14T08:08:46.000Z</time>
      </trkpt>
      <trkpt lat="45.37227" lon="2.37654">
        <ele>619.1</ele>
        <time>2022-06-14T08:08:47.000Z</time>
      </trkpt>
      <trkpt lat="45.37227" lon="2.37652">
        <ele>619</ele>
        <time>2022-06-14T08:08:48.000Z</time>
      </trkpt>
      <trkpt lat="45.37227" lon="2.3765">
        <ele>619</ele>
        <time>2022-06-14T08:08:49.000Z</time>
      </trkpt>
      <trkpt lat="45.37227" lon="2.37648">
        <ele>619</ele>
        <time>2022-06-14T08:08:50.000Z</time>
      </trkpt>
      <trkpt lat="45.37227" lon="2.37647">
        <ele>619</ele>
        <time>2022-06-14T08:08:51.000Z</time>
      </trkpt>
      <trkpt lat="45.37227" lon="2.37645">
        <ele>619</ele>
        <time>2022-06-14T08:08:52.000Z</time>
      </trkpt>
      <trkpt lat="45.37227" lon="2.37643">
        <ele>619</ele>
        <time>2022-06-14T08:08:53.000Z</time>
      </trkpt>
      <trkpt lat="45.37227" lon="2.37642">
        <ele>619</ele>
        <time>2022-06-14T08:08:54.000Z</time>
      </trkpt>
      <trkpt lat="45.37227" lon="2.3764">
        <ele>619</ele>
        <time>2022-06-14T08:08:55.000Z</time>
      </trkpt>
      <trkpt lat="45.37227" lon="2.37638">
        <ele>619.1</ele>
        <time>2022-06-14T08:08:56.000Z</time>
      </trkpt>
      <trkpt lat="45.37228" lon="2.37636">
        <ele>619.1</ele>
        <time>2022-06-14T08:08:57.000Z</time>
      </trkpt>
      <trkpt lat="45.37228" lon="2.37635">
        <ele>619.1</ele>
        <time>2022-06-14T08:08:58.000Z</time>
      </trkpt>
      <trkpt lat="45.37228" lon="2.37633">
        <ele>619.1</ele>
        <time>2022-06-14T08:08:59.000Z</time>
      </trkpt>
      <trkpt lat="45.37228" lon="2.37631">
        <ele>619.2</ele>
        <time>2022-06-14T08:09:00.000Z</time>
      </trkpt>
      <trkpt lat="45.37229" lon="2.37629">
        <ele>619.2</ele>
        <time>2022-06-14T08:09:01.000Z</time>
      </trkpt>
      <trkpt lat="45.37229" lon="2.37627">
        <ele>619.3</ele>
        <time>2022-06-14T08:09:02.000Z</time>
      </trkpt>
      <trkpt lat="45.37229" lon="2.37626">
        <ele>619.4</ele>
        <time>2022-06-14T08:09:03.000Z</time>
      </trkpt>
      <trkpt lat="45.3723" lon="2.37624">
        <ele>619.5</ele>
        <time>2022-06-14T08:09:04.000Z</time>
      </trkpt>
      <trkpt lat="45.3723" lon="2.37622">
        <ele>619.5</ele>
        <time>2022-06-14T08:09:05.000Z</time>
      </trkpt>
      <trkpt lat="45.3723" lon="2.3762">
        <ele>619.6</ele>
        <time>2022-06-14T08:09:06.000Z</time>
      </trkpt>
      <trkpt lat="45.37231" lon="2.37618">
        <ele>619.7</ele>
        <time>2022-06-14T08:09:07.000Z</time>
      </trkpt>
      <trkpt lat="45.37231" lon="2.37617">
        <ele>619.8</ele>
        <time>2022-06-14T08:09:08.000Z</time>
      </trkpt>
      <trkpt lat="45.37231" lon="2.37615">
        <ele>619.9</ele>
        <time>2022-06-14T08:09:09.000Z</time>
      </trkpt>
      <trkpt lat="45.37232" lon="2.37613">
        <ele>620</ele>
        <time>2022-06-14T08:09:10.000Z</time>
      </trkpt>
      <trkpt lat="45.37232" lon="2.37611">
        <ele>620.1</ele>
        <time>2022-06-14T08:09:11.000Z</time>
      </trkpt>
      <trkpt lat="45.37233" lon="2.37609">
        <ele>620.2</ele>
        <time>2022-06-14T08:09:12.000Z</time>
      </trkpt>
      <trkpt lat="45.37233" lon="2.37607">
        <ele>620.2</ele>
        <time>2022-06-14T08:09:13.000Z</time>
      </trkpt>
      <trkpt lat="45.37233" lon="2.37606">
        <ele>620.3</ele>
        <time>2022-06-14T08:09:14.000Z</time>
      </trkpt>
      <trkpt lat="45.37234" lon="2.37604">
        <ele>620.3</ele>
        <time>2022-06-14T08:09:15.000Z</time>
      </trkpt>
      <trkpt lat="45.37234" lon="2.37602">
        <ele>620.4</ele>
        <time>2022-06-14T08:09:16.000Z</time>
      </trkpt>
      <trkpt lat="45.37234" lon="2.376">
        <ele>620.5</ele>
        <time>2022-06-14T08:09:17.000Z</time>
      </trkpt>
      <trkpt lat="45.37234" lon="2.37598">
        <ele>620.5</ele>
        <time>2022-06-14T08:09:18.000Z</time>
      </trkpt>
      <trkpt lat="45.37235" lon="2.37596">
        <ele>620.6</ele>
        <time>2022-06-14T08:09:19.000Z</time>
      </trkpt>
      <trkpt lat="45.37235" lon="2.37595">
        <ele>620.6</ele>
        <time>2022-06-14T08:09:20.000Z</time>
      </trkpt>
      <trkpt lat="45.37235" lon="2.37593">
        <ele>620.7</ele>
        <time>2022-06-14T08:09:21.000Z</time>
      </trkpt>
      <trkpt lat="45.37236" lon="2.37591">
        <ele>620.8</ele>
        <time>2022-06-14T08:09:22.000Z</time>
      </trkpt>
      <trkpt lat="45.37236" lon="2.37589">
        <ele>620.8</ele>
        <time>2022-06-14T08:09:23.000Z</time>
      </trkpt>
      <trkpt lat="45.37236" lon="2.37587">
        <ele>620.9</ele>
        <time>2022-06-14T08:09:24.000Z</time>
      </trkpt>
      <trkpt lat="45.37236" lon="2.37585">
        <ele>620.9</ele>
        <time>2022-06-14T08:09:25.000Z</time>
      </trkpt>
      <trkpt lat="45.37237" lon="2.37584">
        <ele>621</ele>
        <time>2022-06-14T08:09:26.000Z</time>
      </trkpt>
      <trkpt lat="45.37237" lon="2.37582">
        <ele>620.9</ele>
        <time>2022-06-14T08:09:27.000Z</time>
      </trkpt>
      <trkpt lat="45.37237" lon="2.3758">
        <ele>620.8</ele>
        <time>2022-06-14T08:09:28.000Z</time>
      </trkpt>
      <trkpt lat="45.37237" lon="2.37578">
        <ele>620.8</ele>
        <time>2022-06-14T08:09:29.000Z</time>
      </trkpt>
      <trkpt lat="45.37238" lon="2.37576">
        <ele>620.7</ele>
        <time>2022-06-14T08:09:30.000Z</time>
      </trkpt>
      <trkpt lat="45.37238" lon="2.37574">
        <ele>620.7</ele>
        <time>2022-06-14T08:09:31.000Z</time>
      </trkpt>
      <trkpt lat="45.37238" lon="2.37573">
        <ele>620.6</ele>
        <time>2022-06-14T08:09:32.000Z</time>
      </trkpt>
      <trkpt lat="45.37239" lon="2.37571">
        <ele>620.5</ele>
        <time>2022-06-14T08:09:33.000Z</time>
      </trkpt>
      <trkpt lat="45.37239" lon="2.37569">
        <ele>620.5</ele>
        <time>2022-06-14T08:09:34.000Z</time>
      </trkpt>
      <trkpt lat="45.37239" lon="2.37567">
        <ele>620.4</ele>
        <time>2022-06-14T08:09:35.000Z</time>
      </trkpt>
      <trkpt lat="45.3724" lon="2.37565">
        <ele>620.3</ele>
        <time>2022-06-14T08:09:36.000Z</time>
      </trkpt>
      <trkpt lat="45.3724" lon="2.37563">
        <ele>620.3</ele>
        <time>2022-06-14T08:09:37.000Z</time>
      </trkpt>
      <trkpt lat="45.3724" lon="2.37561">
        <ele>620.2</ele>
        <time>2022-06-14T08:09:38.000Z</time>
      </trkpt>
      <trkpt lat="45.37241" lon="2.3756">
        <ele>620.2</ele>
        <time>2022-06-14T08:09:39.000Z</time>
      </trkpt>
      <trkpt lat="45.37241" lon="2.37558">
        <ele>620.1</ele>
        <time>2022-06-14T08:09:40.000Z</time>
      </trkpt>
      <trkpt lat="45.37242" lon="2.37556">
        <ele>620</ele>
        <time>2022-06-14T08:09:41.000Z</time>
      </trkpt>
      <trkpt lat="45.37242" lon="2.37554">
        <ele>620</ele>
        <time>2022-06-14T08:09:42.000Z</time>
      </trkpt>
      <trkpt lat="45.37242" lon="2.37552">
        <ele>619.9</ele>
        <time>2022-06-14T08:09:43.000Z</time>
      </trkpt>
      <trkpt lat="45.37243" lon="2.3755">
        <ele>619.9</ele>
        <time>2022-06-14T08:09:44.000Z</time>
      </trkpt>
      <trkpt lat="45.37243" lon="2.37549">
        <ele>619.9</ele>
        <time>2022-06-14T08:09:45.000Z</time>
      </trkpt>
      <trkpt lat="45.37244" lon="2.37547">
        <ele>619.8</ele>
        <time>2022-06-14T08:09:46.000Z</time>
      </trkpt>
      <trkpt lat="45.37244" lon="2.37545">
        <ele>619.8</ele>
        <time>2022-06-14T08:09:47.000Z</time>
      </trkpt>
      <trkpt lat="45.37245" lon="2.37543">
        <ele>619.7</ele>
        <time>2022-06-14T08:09:48.000Z</time>
      </trkpt>
      <trkpt lat="45.37245" lon="2.37541">
        <ele>619.7</ele>
        <time>2022-06-14T08:09:49.000Z</time>
      </trkpt>
      <trkpt lat="45.37246" lon="2.3754">
        <ele>619.7</ele>
        <time>2022-06-14T08:09:50.000Z</time>
      </trkpt>
      <trkpt lat="45.37246" lon="2.37538">
        <ele>619.7</ele>
        <time>2022-06-14T08:09:51.000Z</time>
      </trkpt>
      <trkpt lat="45.37247" lon="2.37536">
        <ele>619.7</ele>
        <time>2022-06-14T08:09:52.000Z</time>
      </trkpt>
      <trkpt lat="45.37247" lon="2.37534">
        <ele>619.7</ele>
        <time>2022-06-14T08:09:53.000Z</time>
      </trkpt>
      <trkpt lat="45.37248" lon="2.37533">
        <ele>619.6</ele>
        <time>2022-06-14T08:09:54.000Z</time>
      </trkpt>
      <trkpt lat="45.37249" lon="2.37531">
        <ele>619.6</ele>
        <time>2022-06-14T08:09:55.000Z</time>
      </trkpt>
      <trkpt lat="45.37249" lon="2.37529">
        <ele>619.6</ele>
        <time>2022-06-14T08:09:56.000Z</time>
      </trkpt>
      <trkpt lat="45.3725" lon="2.37528">
        <ele>619.6</ele>
        <time>2022-06-14T08:09:57.000Z</time>
      </trkpt>
      <trkpt lat="45.37251" lon="2.37526">
        <ele>619.6</ele>
        <time>2022-06-14T08:09:58.000Z</time>
      </trkpt>
      <trkpt lat="45.37251" lon="2.37524">
        <ele>619.6</ele>
        <time>2022-06-14T08:09:59.000Z</time>
      </trkpt>
      <trkpt lat="45.37252" lon="2.37523">
        <ele>619.6</ele>
        <time>2022-06-14T08:10:00.000Z</time>
      </trkpt>
      <trkpt lat="45.37252" lon="2.37521">
        <ele>619.6</ele>
        <time>2022-06-14T08:10:01.000Z</time>
      </trkpt>
      <trkpt lat="45.37253" lon="2.37519">
        <ele>619.5</ele>
        <time>2022-06-14T08:10:02.000Z</time>
      </trkpt>
      <trkpt lat="45.37253" lon="2.37518">
        <ele>619.5</ele>
        <time>2022-06-14T08:10:03.000Z</time>
      </trkpt>
      <trkpt lat="45.37254" lon="2.37516">
        <ele>619.4</ele>
        <time>2022-06-14T08:10:04.000Z</time>
      </trkpt>
      <trkpt lat="45.37254" lon="2.37514">
        <ele>619.3</ele>
        <time>2022-06-14T08:10:05.000Z</time>
      </trkpt>
      <trkpt lat="45.37255" lon="2.37512">
        <ele>619.3</ele>
        <time>2022-06-14T08:10:06.000Z</time>
      </trkpt>
      <trkpt lat="45.37255" lon="2.37511">
        <ele>619.2</ele>
        <time>2022-06-14T08:10:07.000Z</time>
      </trkpt>
      <trkpt lat="45.37255" lon="2.37509">
        <ele>619.2</ele>
        <time>2022-06-14T08:10:08.000Z</time>
      </trkpt>
      <trkpt lat="45.37256" lon="2.37507">
        <ele>619.1</ele>
        <time>2022-06-14T08:10:09.000Z</time>
      </trkpt>
      <trkpt lat="45.37256" lon="2.37506">
        <ele>619</ele>
        <time>2022-06-14T08:10:10.000Z</time>
      </trkpt>
      <trkpt lat="45.37257" lon="2.37504">
        <ele>619</ele>
        <time>2022-06-14T08:10:11.000Z</time>
      </trkpt>
      <trkpt lat="45.37257" lon="2.37502">
        <ele>619</ele>
        <time>2022-06-14T08:10:12.000Z</time>
      </trkpt>
      <trkpt lat="45.37258" lon="2.37501">
        <ele>618.9</ele>
        <time>2022-06-14T08:10:13.000Z</time>
      </trkpt>
      <trkpt lat="45.37259" lon="2.37499">
        <ele>619</ele>
        <time>2022-06-14T08:10:14.000Z</time>
      </trkpt>
      <trkpt lat="45.37259" lon="2.37497">
        <ele>619</ele>
        <time>2022-06-14T08:10:15.000Z</time>
      </trkpt>
      <trkpt lat="45.3726" lon="2.37496">
        <ele>619.1</ele>
        <time>2022-06-14T08:10:16.000Z</time>
      </trkpt>
      <trkpt lat="45.37261" lon="2.37495">
        <ele>619.2</ele>
        <time>2022-06-14T08:10:17.000Z</time>
      </trkpt>
      <trkpt lat="45.37262" lon="2.37493">
        <ele>619.3</ele>
        <time>2022-06-14T08:10:18.000Z</time>
      </trkpt>
      <trkpt lat="45.37263" lon="2.37492">
        <ele>619.4</ele>
        <time>2022-06-14T08:10:19.000Z</time>
      </trkpt>
      <trkpt lat="45.37264" lon="2.37491">
        <ele>619.5</ele>
        <time>2022-06-14T08:10:20.000Z</time>
      </trkpt>
      <trkpt lat="45.37265" lon="2.37489">
        <ele>619.6</ele>
        <time>2022-06-14T08:10:21.000Z</time>
      </trkpt>
      <trkpt lat="45.37266" lon="2.37488">
        <ele>619.7</ele>
        <time>2022-06-14T08:10:22.000Z</time>
      </trkpt>
      <trkpt lat="45.37266" lon="2.37487">
        <ele>619.7</ele>
        <time>2022-06-14T08:10:23.000Z</time>
      </trkpt>
      <trkpt lat="45.37267" lon="2.37486">
        <ele>619.8</ele>
        <time>2022-06-14T08:10:24.000Z</time>
      </trkpt>
      <trkpt lat="45.37268" lon="2.37485">
        <ele>619.9</ele>
        <time>2022-06-14T08:10:25.000Z</time>
      </trkpt>
      <trkpt lat="45.37269" lon="2.37484">
        <ele>619.9</ele>
        <time>2022-06-14T08:10:26.000Z</time>
      </trkpt>
      <trkpt lat="45.37269" lon="2.37483">
        <ele>620</ele>
        <time>2022-06-14T08:10:27.000Z</time>
      </trkpt>
      <trkpt lat="45.3727" lon="2.37482">
        <ele>620.1</ele>
        <time>2022-06-14T08:10:28.000Z</time>
      </trkpt>
      <trkpt lat="45.37271" lon="2.37481">
        <ele>620.2</ele>
        <time>2022-06-14T08:10:29.000Z</time>
      </trkpt>
      <trkpt lat="45.37271" lon="2.3748">
        <ele>620.3</ele>
        <time>2022-06-14T08:10:30.000Z</time>
      </trkpt>
      <trkpt lat="45.37272" lon="2.37479">
        <ele>620.4</ele>
        <time>2022-06-14T08:10:31.000Z</time>
      </trkpt>
      <trkpt lat="45.37273" lon="2.37479">
        <ele>620.5</ele>
        <time>2022-06-14T08:10:32.000Z</time>
      </trkpt>
      <trkpt lat="45.37274" lon="2.37478">
        <ele>620.7</ele>
        <time>2022-06-14T08:10:33.000Z</time>
      </trkpt>
      <trkpt lat="45.37275" lon="2.37477">
        <ele>620.8</ele>
        <time>2022-06-14T08:10:34.000Z</time>
      </trkpt>
      <trkpt lat="45.37276" lon="2.37476">
        <ele>621</ele>
        <time>2022-06-14T08:10:35.000Z</time>
      </trkpt>
      <trkpt lat="45.37277" lon="2.37476">
        <ele>621.1</ele>
        <time>2022-06-14T08:10:36.000Z</time>
      </trkpt>
      <trkpt lat="45.37278" lon="2.37475">
        <ele>621.3</ele>
        <time>2022-06-14T08:10:37.000Z</time>
      </trkpt>
      <trkpt lat="45.37279" lon="2.37474">
        <ele>621.4</ele>
        <time>2022-06-14T08:10:38.000Z</time>
      </trkpt>
      <trkpt lat="45.3728" lon="2.37473">
        <ele>621.5</ele>
        <time>2022-06-14T08:10:39.000Z</time>
      </trkpt>
      <trkpt lat="45.37281" lon="2.37472">
        <ele>621.7</ele>
        <time>2022-06-14T08:10:40.000Z</time>
      </trkpt>
      <trkpt lat="45.37282" lon="2.37471">
        <ele>621.8</ele>
        <time>2022-06-14T08:10:41.000Z</time>
      </trkpt>
      <trkpt lat="45.37283" lon="2.3747">
        <ele>621.9</ele>
        <time>2022-06-14T08:10:42.000Z</time>
      </trkpt>
      <trkpt lat="45.37284" lon="2.37469">
        <ele>622</ele>
        <time>2022-06-14T08:10:43.000Z</time>
      </trkpt>
      <trkpt lat="45.37285" lon="2.37467">
        <ele>622.1</ele>
        <time>2022-06-14T08:10:44.000Z</time>
      </trkpt>
      <trkpt lat="45.37286" lon="2.37466">
        <ele>622.2</ele>
        <time>2022-06-14T08:10:45.000Z</time>
      </trkpt>
      <trkpt lat="45.37287" lon="2.37465">
        <ele>622.3</ele>
        <time>2022-06-14T08:10:46.000Z</time>
      </trkpt>
      <trkpt lat="45.37287" lon="2.37464">
        <ele>622.3</ele>
        <time>2022-06-14T08:10:47.000Z</time>
      </trkpt>
      <trkpt lat="45.37288" lon="2.37462">
        <ele>622.4</ele>
        <time>2022-06-14T08:10:48.000Z</time>
      </trkpt>
      <trkpt lat="45.37289" lon="2.37461">
        <ele>622.5</ele>
        <time>2022-06-14T08:10:49.000Z</time>
      </trkpt>
      <trkpt lat="45.3729" lon="2.3746">
        <ele>622.6</ele>
        <time>2022-06-14T08:10:50.000Z</time>
      </trkpt>
      <trkpt lat="45.37291" lon="2.37458">
        <ele>622.7</ele>
        <time>2022-06-14T08:10:51.000Z</time>
      </trkpt>
      <trkpt lat="45.37292" lon="2.37457">
        <ele>622.8</ele>
        <time>2022-06-14T08:10:52.000Z</time>
      </trkpt>
      <trkpt lat="45.37293" lon="2.37456">
        <ele>622.9</ele>
        <time>2022-06-14T08:10:53.000Z</time>
      </trkpt>
      <trkpt lat="45.37294" lon="2.37455">
        <ele>623</ele>
        <time>2022-06-14T08:10:54.000Z</time>
      </trkpt>
      <trkpt lat="45.37295" lon="2.37454">
        <ele>623.1</ele>
        <time>2022-06-14T08:10:55.000Z</time>
      </trkpt>
      <trkpt lat="45.37296" lon="2.37453">
        <ele>623.3</ele>
        <time>2022-06-14T08:10:56.000Z</time>
      </trkpt>
      <trkpt lat="45.37297" lon="2.37452">
        <ele>623.4</ele>
        <time>2022-06-14T08:10:57.000Z</time>
      </trkpt>
      <trkpt lat="45.37299" lon="2.37451">
        <ele>623.5</ele>
        <time>2022-06-14T08:10:58.000Z</time>
      </trkpt>
      <trkpt lat="45.373" lon="2.37451">
        <ele>623.7</ele>
        <time>2022-06-14T08:10:59.000Z</time>
      </trkpt>
      <trkpt lat="45.37301" lon="2.3745">
        <ele>623.8</ele>
        <time>2022-06-14T08:11:00.000Z</time>
      </trkpt>
      <trkpt lat="45.37302" lon="2.37449">
        <ele>624</ele>
        <time>2022-06-14T08:11:01.000Z</time>
      </trkpt>
      <trkpt lat="45.37303" lon="2.37448">
        <ele>624.1</ele>
        <time>2022-06-14T08:11:02.000Z</time>
      </trkpt>
      <trkpt lat="45.37304" lon="2.37447">
        <ele>624.3</ele>
        <time>2022-06-14T08:11:03.000Z</time>
      </trkpt>
      <trkpt lat="45.37305" lon="2.37447">
        <ele>624.4</ele>
        <time>2022-06-14T08:11:04.000Z</time>
      </trkpt>
      <trkpt lat="45.37306" lon="2.37446">
        <ele>624.5</ele>
        <time>2022-06-14T08:11:05.000Z</time>
      </trkpt>
      <trkpt lat="45.37307" lon="2.37445">
        <ele>624.7</ele>
        <time>2022-06-14T08:11:06.000Z</time>
      </trkpt>
      <trkpt lat="45.37308" lon="2.37444">
        <ele>624.8</ele>
        <time>2022-06-14T08:11:07.000Z</time>
      </trkpt>
      <trkpt lat="45.37309" lon="2.37443">
        <ele>624.9</ele>
        <time>2022-06-14T08:11:08.000Z</time>
      </trkpt>
      <trkpt lat="45.3731" lon="2.37442">
        <ele>625</ele>
        <time>2022-06-14T08:11:09.000Z</time>
      </trkpt>
      <trkpt lat="45.37311" lon="2.37441">
        <ele>625.2</ele>
        <time>2022-06-14T08:11:10.000Z</time>
      </trkpt>
      <trkpt lat="45.37312" lon="2.3744">
        <ele>625.3</ele>
        <time>2022-06-14T08:11:11.000Z</time>
      </trkpt>
      <trkpt lat="45.37313" lon="2.37439">
        <ele>625.4</ele>
        <time>2022-06-14T08:11:12.000Z</time>
      </trkpt>
      <trkpt lat="45.37314" lon="2.37439">
        <ele>625.5</ele>
        <time>2022-06-14T08:11:13.000Z</time>
      </trkpt>
      <trkpt lat="45.37315" lon="2.37438">
        <ele>625.6</ele>
        <time>2022-06-14T08:11:14.000Z</time>
      </trkpt>
      <trkpt lat="45.37316" lon="2.37437">
        <ele>625.7</ele>
        <time>2022-06-14T08:11:15.000Z</time>
      </trkpt>
      <trkpt lat="45.37317" lon="2.37436">
        <ele>625.8</ele>
        <time>2022-06-14T08:11:16.000Z</time>
      </trkpt>
      <trkpt lat="45.37318" lon="2.37435">
        <ele>625.9</ele>
        <time>2022-06-14T08:11:17.000Z</time>
      </trkpt>
      <trkpt lat="45.37319" lon="2.37434">
        <ele>626</ele>
        <time>2022-06-14T08:11:18.000Z</time>
      </trkpt>
      <trkpt lat="45.3732" lon="2.37433">
        <ele>626.2</ele>
        <time>2022-06-14T08:11:20.000Z</time>
      </trkpt>
      <trkpt lat="45.37321" lon="2.37432">
        <ele>626.3</ele>
        <time>2022-06-14T08:11:21.000Z</time>
      </trkpt>
      <trkpt lat="45.37322" lon="2.37432">
        <ele>626.4</ele>
        <time>2022-06-14T08:11:22.000Z</time>
      </trkpt>
      <trkpt lat="45.37323" lon="2.37431">
        <ele>626.6</ele>
        <time>2022-06-14T08:11:23.000Z</time>
      </trkpt>
      <trkpt lat="45.37324" lon="2.37431">
        <ele>626.7</ele>
        <time>2022-06-14T08:11:24.000Z</time>
      </trkpt>
      <trkpt lat="45.37325" lon="2.3743">
        <ele>626.8</ele>
        <time>2022-06-14T08:11:25.000Z</time>
      </trkpt>
      <trkpt lat="45.37326" lon="2.3743">
        <ele>627</ele>
        <time>2022-06-14T08:11:26.000Z</time>
      </trkpt>
      <trkpt lat="45.37327" lon="2.37429">
        <ele>627.1</ele>
        <time>2022-06-14T08:11:27.000Z</time>
      </trkpt>
      <trkpt lat="45.37328" lon="2.37429">
        <ele>627.3</ele>
        <time>2022-06-14T08:11:28.000Z</time>
      </trkpt>
      <trkpt lat="45.37329" lon="2.37428">
        <ele>627.5</ele>
        <time>2022-06-14T08:11:29.000Z</time>
      </trkpt>
      <trkpt lat="45.3733" lon="2.37428">
        <ele>627.7</ele>
        <time>2022-06-14T08:11:30.000Z</time>
      </trkpt>
      <trkpt lat="45.37331" lon="2.37427">
        <ele>627.9</ele>
        <time>2022-06-14T08:11:31.000Z</time>
      </trkpt>
      <trkpt lat="45.37333" lon="2.37427">
        <ele>628.1</ele>
        <time>2022-06-14T08:11:32.000Z</time>
      </trkpt>
      <trkpt lat="45.37334" lon="2.37426">
        <ele>628.3</ele>
        <time>2022-06-14T08:11:33.000Z</time>
      </trkpt>
      <trkpt lat="45.37336" lon="2.37426">
        <ele>628.5</ele>
        <time>2022-06-14T08:11:34.000Z</time>
      </trkpt>
      <trkpt lat="45.37337" lon="2.37425">
        <ele>628.7</ele>
        <time>2022-06-14T08:11:35.000Z</time>
      </trkpt>
      <trkpt lat="45.37338" lon="2.37425">
        <ele>628.9</ele>
        <time>2022-06-14T08:11:36.000Z</time>
      </trkpt>
      <trkpt lat="45.37339" lon="2.37424">
        <ele>629.1</ele>
        <time>2022-06-14T08:11:37.000Z</time>
      </trkpt>
      <trkpt lat="45.3734" lon="2.37424">
        <ele>629.3</ele>
        <time>2022-06-14T08:11:38.000Z</time>
      </trkpt>
      <trkpt lat="45.37341" lon="2.37423">
        <ele>629.4</ele>
        <time>2022-06-14T08:11:39.000Z</time>
      </trkpt>
      <trkpt lat="45.37342" lon="2.37423">
        <ele>629.5</ele>
        <time>2022-06-14T08:11:40.000Z</time>
      </trkpt>
      <trkpt lat="45.37343" lon="2.37422">
        <ele>629.6</ele>
        <time>2022-06-14T08:11:41.000Z</time>
      </trkpt>
      <trkpt lat="45.37344" lon="2.37422">
        <ele>629.7</ele>
        <time>2022-06-14T08:11:42.000Z</time>
      </trkpt>
      <trkpt lat="45.37344" lon="2.37421">
        <ele>629.8</ele>
        <time>2022-06-14T08:11:43.000Z</time>
      </trkpt>
      <trkpt lat="45.37345" lon="2.37421">
        <ele>630</ele>
        <time>2022-06-14T08:11:44.000Z</time>
      </trkpt>
      <trkpt lat="45.37346" lon="2.3742">
        <ele>630.1</ele>
        <time>2022-06-14T08:11:45.000Z</time>
      </trkpt>
      <trkpt lat="45.37347" lon="2.37419">
        <ele>630.2</ele>
        <time>2022-06-14T08:11:46.000Z</time>
      </trkpt>
      <trkpt lat="45.37349" lon="2.37419">
        <ele>630.4</ele>
        <time>2022-06-14T08:11:47.000Z</time>
      </trkpt>
      <trkpt lat="45.3735" lon="2.37418">
        <ele>630.5</ele>
        <time>2022-06-14T08:11:48.000Z</time>
      </trkpt>
      <trkpt lat="45.37351" lon="2.37417">
        <ele>630.7</ele>
        <time>2022-06-14T08:11:49.000Z</time>
      </trkpt>
      <trkpt lat="45.37352" lon="2.37417">
        <ele>630.8</ele>
        <time>2022-06-14T08:11:50.000Z</time>
      </trkpt>
      <trkpt lat="45.37353" lon="2.37416">
        <ele>631</ele>
        <time>2022-06-14T08:11:51.000Z</time>
      </trkpt>
      <trkpt lat="45.37354" lon="2.37416">
        <ele>631.1</ele>
        <time>2022-06-14T08:11:52.000Z</time>
      </trkpt>
      <trkpt lat="45.37355" lon="2.37415">
        <ele>631.3</ele>
        <time>2022-06-14T08:11:53.000Z</time>
      </trkpt>
      <trkpt lat="45.37356" lon="2.37415">
        <ele>631.5</ele>
        <time>2022-06-14T08:11:54.000Z</time>
      </trkpt>
      <trkpt lat="45.37357" lon="2.37414">
        <ele>631.7</ele>
        <time>2022-06-14T08:11:55.000Z</time>
      </trkpt>
      <trkpt lat="45.37358" lon="2.37414">
        <ele>631.8</ele>
        <time>2022-06-14T08:11:56.000Z</time>
      </trkpt>
      <trkpt lat="45.3736" lon="2.37414">
        <ele>632</ele>
        <time>2022-06-14T08:11:57.000Z</time>
      </trkpt>
      <trkpt lat="45.37361" lon="2.37413">
        <ele>632.2</ele>
        <time>2022-06-14T08:11:58.000Z</time>
      </trkpt>
      <trkpt lat="45.37362" lon="2.37413">
        <ele>632.4</ele>
        <time>2022-06-14T08:11:59.000Z</time>
      </trkpt>
      <trkpt lat="45.37363" lon="2.37412">
        <ele>632.5</ele>
        <time>2022-06-14T08:12:00.000Z</time>
      </trkpt>
      <trkpt lat="45.37364" lon="2.37412">
        <ele>632.7</ele>
        <time>2022-06-14T08:12:01.000Z</time>
      </trkpt>
      <trkpt lat="45.37365" lon="2.37411">
        <ele>632.9</ele>
        <time>2022-06-14T08:12:02.000Z</time>
      </trkpt>
      <trkpt lat="45.37366" lon="2.37411">
        <ele>633</ele>
        <time>2022-06-14T08:12:03.000Z</time>
      </trkpt>
      <trkpt lat="45.37367" lon="2.37411">
        <ele>633.2</ele>
        <time>2022-06-14T08:12:04.000Z</time>
      </trkpt>
      <trkpt lat="45.37368" lon="2.3741">
        <ele>633.4</ele>
        <time>2022-06-14T08:12:05.000Z</time>
      </trkpt>
      <trkpt lat="45.37369" lon="2.3741">
        <ele>633.6</ele>
        <time>2022-06-14T08:12:06.000Z</time>
      </trkpt>
      <trkpt lat="45.3737" lon="2.37409">
        <ele>633.7</ele>
        <time>2022-06-14T08:12:07.000Z</time>
      </trkpt>
      <trkpt lat="45.37371" lon="2.37409">
        <ele>633.9</ele>
        <time>2022-06-14T08:12:08.000Z</time>
      </trkpt>
      <trkpt lat="45.37373" lon="2.37408">
        <ele>634</ele>
        <time>2022-06-14T08:12:09.000Z</time>
      </trkpt>
      <trkpt lat="45.37374" lon="2.37407">
        <ele>634.2</ele>
        <time>2022-06-14T08:12:10.000Z</time>
      </trkpt>
      <trkpt lat="45.37375" lon="2.37407">
        <ele>634.4</ele>
        <time>2022-06-14T08:12:11.000Z</time>
      </trkpt>
      <trkpt lat="45.37376" lon="2.37406">
        <ele>634.5</ele>
        <time>2022-06-14T08:12:12.000Z</time>
      </trkpt>
      <trkpt lat="45.37377" lon="2.37406">
        <ele>634.7</ele>
        <time>2022-06-14T08:12:13.000Z</time>
      </trkpt>
      <trkpt lat="45.37378" lon="2.37405">
        <ele>634.9</ele>
        <time>2022-06-14T08:12:14.000Z</time>
      </trkpt>
      <trkpt lat="45.37379" lon="2.37404">
        <ele>635</ele>
        <time>2022-06-14T08:12:15.000Z</time>
      </trkpt>
      <trkpt lat="45.3738" lon="2.37404">
        <ele>635.2</ele>
        <time>2022-06-14T08:12:16.000Z</time>
      </trkpt>
      <trkpt lat="45.37381" lon="2.37403">
        <ele>635.3</ele>
        <time>2022-06-14T08:12:17.000Z</time>
      </trkpt>
      <trkpt lat="45.37383" lon="2.37403">
        <ele>635.5</ele>
        <time>2022-06-14T08:12:18.000Z</time>
      </trkpt>
      <trkpt lat="45.37384" lon="2.37402">
        <ele>635.6</ele>
        <time>2022-06-14T08:12:19.000Z</time>
      </trkpt>
      <trkpt lat="45.37385" lon="2.37402">
        <ele>635.8</ele>
        <time>2022-06-14T08:12:20.000Z</time>
      </trkpt>
      <trkpt lat="45.37386" lon="2.37401">
        <ele>635.9</ele>
        <time>2022-06-14T08:12:21.000Z</time>
      </trkpt>
      <trkpt lat="45.37387" lon="2.37401">
        <ele>636.1</ele>
        <time>2022-06-14T08:12:22.000Z</time>
      </trkpt>
      <trkpt lat="45.37388" lon="2.374">
        <ele>636.3</ele>
        <time>2022-06-14T08:12:23.000Z</time>
      </trkpt>
      <trkpt lat="45.37389" lon="2.374">
        <ele>636.4</ele>
        <time>2022-06-14T08:12:24.000Z</time>
      </trkpt>
      <trkpt lat="45.3739" lon="2.374">
        <ele>636.6</ele>
        <time>2022-06-14T08:12:25.000Z</time>
      </trkpt>
      <trkpt lat="45.37391" lon="2.37399">
        <ele>636.8</ele>
        <time>2022-06-14T08:12:26.000Z</time>
      </trkpt>
      <trkpt lat="45.37392" lon="2.37399">
        <ele>637</ele>
        <time>2022-06-14T08:12:27.000Z</time>
      </trkpt>
      <trkpt lat="45.37393" lon="2.37399">
        <ele>637.1</ele>
        <time>2022-06-14T08:12:28.000Z</time>
      </trkpt>
      <trkpt lat="45.37394" lon="2.37399">
        <ele>637.3</ele>
        <time>2022-06-14T08:12:29.000Z</time>
      </trkpt>
      <trkpt lat="45.37395" lon="2.37398">
        <ele>637.5</ele>
        <time>2022-06-14T08:12:30.000Z</time>
      </trkpt>
      <trkpt lat="45.37396" lon="2.37398">
        <ele>637.6</ele>
        <time>2022-06-14T08:12:31.000Z</time>
      </trkpt>
      <trkpt lat="45.37397" lon="2.37398">
        <ele>637.8</ele>
        <time>2022-06-14T08:12:32.000Z</time>
      </trkpt>
      <trkpt lat="45.37398" lon="2.37398">
        <ele>638</ele>
        <time>2022-06-14T08:12:33.000Z</time>
      </trkpt>
      <trkpt lat="45.37399" lon="2.37398">
        <ele>638.1</ele>
        <time>2022-06-14T08:12:34.000Z</time>
      </trkpt>
      <trkpt lat="45.374" lon="2.37398">
        <ele>638.5</ele>
        <time>2022-06-14T08:12:36.000Z</time>
      </trkpt>
      <trkpt lat="45.37401" lon="2.37398">
        <ele>638.6</ele>
        <time>2022-06-14T08:12:37.000Z</time>
      </trkpt>
      <trkpt lat="45.37402" lon="2.37398">
        <ele>638.8</ele>
        <time>2022-06-14T08:12:38.000Z</time>
      </trkpt>
      <trkpt lat="45.37403" lon="2.37398">
        <ele>639</ele>
        <time>2022-06-14T08:12:39.000Z</time>
      </trkpt>
      <trkpt lat="45.37404" lon="2.37398">
        <ele>639.2</ele>
        <time>2022-06-14T08:12:40.000Z</time>
      </trkpt>
      <trkpt lat="45.37405" lon="2.37398">
        <ele>639.3</ele>
        <time>2022-06-14T08:12:41.000Z</time>
      </trkpt>
      <trkpt lat="45.37406" lon="2.37397">
        <ele>639.5</ele>
        <time>2022-06-14T08:12:42.000Z</time>
      </trkpt>
      <trkpt lat="45.37407" lon="2.37397">
        <ele>639.7</ele>
        <time>2022-06-14T08:12:43.000Z</time>
      </trkpt>
      <trkpt lat="45.37408" lon="2.37398">
        <ele>639.9</ele>
        <time>2022-06-14T08:12:44.000Z</time>
      </trkpt>
      <trkpt lat="45.37409" lon="2.37398">
        <ele>640.2</ele>
        <time>2022-06-14T08:12:46.000Z</time>
      </trkpt>
      <trkpt lat="45.3741" lon="2.37398">
        <ele>640.4</ele>
        <time>2022-06-14T08:12:47.000Z</time>
      </trkpt>
      <trkpt lat="45.37411" lon="2.37398">
        <ele>640.6</ele>
        <time>2022-06-14T08:12:48.000Z</time>
      </trkpt>
      <trkpt lat="45.37412" lon="2.37398">
        <ele>640.8</ele>
        <time>2022-06-14T08:12:49.000Z</time>
      </trkpt>
      <trkpt lat="45.37413" lon="2.37398">
        <ele>641</ele>
        <time>2022-06-14T08:12:50.000Z</time>
      </trkpt>
      <trkpt lat="45.37414" lon="2.37398">
        <ele>641.2</ele>
        <time>2022-06-14T08:12:51.000Z</time>
      </trkpt>
      <trkpt lat="45.37415" lon="2.37398">
        <ele>641.4</ele>
        <time>2022-06-14T08:12:52.000Z</time>
      </trkpt>
      <trkpt lat="45.37416" lon="2.37398">
        <ele>641.6</ele>
        <time>2022-06-14T08:12:53.000Z</time>
      </trkpt>
      <trkpt lat="45.37417" lon="2.37398">
        <ele>641.8</ele>
        <time>2022-06-14T08:12:54.000Z</time>
      </trkpt>
      <trkpt lat="45.37418" lon="2.37398">
        <ele>641.9</ele>
        <time>2022-06-14T08:12:55.000Z</time>
      </trkpt>
      <trkpt lat="45.37419" lon="2.37398">
        <ele>642.1</ele>
        <time>2022-06-14T08:12:56.000Z</time>
      </trkpt>
      <trkpt lat="45.3742" lon="2.37398">
        <ele>642.2</ele>
        <time>2022-06-14T08:12:57.000Z</time>
      </trkpt>
      <trkpt lat="45.37421" lon="2.37398">
        <ele>642.3</ele>
        <time>2022-06-14T08:12:58.000Z</time>
      </trkpt>
      <trkpt lat="45.37422" lon="2.37398">
        <ele>642.5</ele>
        <time>2022-06-14T08:12:59.000Z</time>
      </trkpt>
      <trkpt lat="45.37423" lon="2.37398">
        <ele>642.6</ele>
        <time>2022-06-14T08:13:00.000Z</time>
      </trkpt>
      <trkpt lat="45.37424" lon="2.37398">
        <ele>642.8</ele>
        <time>2022-06-14T08:13:01.000Z</time>
      </trkpt>
      <trkpt lat="45.37425" lon="2.37398">
        <ele>642.9</ele>
        <time>2022-06-14T08:13:02.000Z</time>
      </trkpt>
      <trkpt lat="45.37426" lon="2.37398">
        <ele>643.1</ele>
        <time>2022-06-14T08:13:03.000Z</time>
      </trkpt>
      <trkpt lat="45.37427" lon="2.37398">
        <ele>643.2</ele>
        <time>2022-06-14T08:13:04.000Z</time>
      </trkpt>
      <trkpt lat="45.37428" lon="2.37398">
        <ele>643.5</ele>
        <time>2022-06-14T08:13:06.000Z</time>
      </trkpt>
      <trkpt lat="45.37429" lon="2.37398">
        <ele>643.6</ele>
        <time>2022-06-14T08:13:07.000Z</time>
      </trkpt>
      <trkpt lat="45.3743" lon="2.37398">
        <ele>643.7</ele>
        <time>2022-06-14T08:13:08.000Z</time>
      </trkpt>
      <trkpt lat="45.37431" lon="2.37398">
        <ele>643.8</ele>
        <time>2022-06-14T08:13:09.000Z</time>
      </trkpt>
      <trkpt lat="45.37432" lon="2.37398">
        <ele>644</ele>
        <time>2022-06-14T08:13:10.000Z</time>
      </trkpt>
      <trkpt lat="45.37433" lon="2.37398">
        <ele>644.1</ele>
        <time>2022-06-14T08:13:11.000Z</time>
      </trkpt>
      <trkpt lat="45.37434" lon="2.37398">
        <ele>644.2</ele>
        <time>2022-06-14T08:13:12.000Z</time>
      </trkpt>
      <trkpt lat="45.37435" lon="2.37398">
        <ele>644.3</ele>
        <time>2022-06-14T08:13:13.000Z</time>
      </trkpt>
      <trkpt lat="45.37436" lon="2.37398">
        <ele>644.6</ele>
        <time>2022-06-14T08:13:15.000Z</time>
      </trkpt>
      <trkpt lat="45.37437" lon="2.37398">
        <ele>644.7</ele>
        <time>2022-06-14T08:13:16.000Z</time>
      </trkpt>
      <trkpt lat="45.37438" lon="2.37398">
        <ele>644.9</ele>
        <time>2022-06-14T08:13:17.000Z</time>
      </trkpt>
      <trkpt lat="45.37439" lon="2.37398">
        <ele>645</ele>
        <time>2022-06-14T08:13:18.000Z</time>
      </trkpt>
      <trkpt lat="45.3744" lon="2.37398">
        <ele>645.2</ele>
        <time>2022-06-14T08:13:19.000Z</time>
      </trkpt>
      <trkpt lat="45.37441" lon="2.37398">
        <ele>645.3</ele>
        <time>2022-06-14T08:13:20.000Z</time>
      </trkpt>
      <trkpt lat="45.37442" lon="2.37398">
        <ele>645.5</ele>
        <time>2022-06-14T08:13:21.000Z</time>
      </trkpt>
      <trkpt lat="45.37443" lon="2.37398">
        <ele>645.7</ele>
        <time>2022-06-14T08:13:22.000Z</time>
      </trkpt>
      <trkpt lat="45.37444" lon="2.37399">
        <ele>645.9</ele>
        <time>2022-06-14T08:13:23.000Z</time>
      </trkpt>
      <trkpt lat="45.37445" lon="2.37399">
        <ele>646.1</ele>
        <time>2022-06-14T08:13:24.000Z</time>
      </trkpt>
      <trkpt lat="45.37446" lon="2.37399">
        <ele>646.3</ele>
        <time>2022-06-14T08:13:25.000Z</time>
      </trkpt>
      <trkpt lat="45.37447" lon="2.374">
        <ele>646.5</ele>
        <time>2022-06-14T08:13:26.000Z</time>
      </trkpt>
      <trkpt lat="45.37448" lon="2.374">
        <ele>646.7</ele>
        <time>2022-06-14T08:13:27.000Z</time>
      </trkpt>
      <trkpt lat="45.37449" lon="2.374">
        <ele>646.9</ele>
        <time>2022-06-14T08:13:28.000Z</time>
      </trkpt>
      <trkpt lat="45.3745" lon="2.37401">
        <ele>647</ele>
        <time>2022-06-14T08:13:29.000Z</time>
      </trkpt>
      <trkpt lat="45.37451" lon="2.37401">
        <ele>647.1</ele>
        <time>2022-06-14T08:13:30.000Z</time>
      </trkpt>
      <trkpt lat="45.37452" lon="2.37401">
        <ele>647.3</ele>
        <time>2022-06-14T08:13:31.000Z</time>
      </trkpt>
      <trkpt lat="45.37453" lon="2.37401">
        <ele>647.5</ele>
        <time>2022-06-14T08:13:33.000Z</time>
      </trkpt>
      <trkpt lat="45.37454" lon="2.37401">
        <ele>647.6</ele>
        <time>2022-06-14T08:13:34.000Z</time>
      </trkpt>
      <trkpt lat="45.37455" lon="2.37401">
        <ele>647.7</ele>
        <time>2022-06-14T08:13:35.000Z</time>
      </trkpt>
      <trkpt lat="45.37456" lon="2.37401">
        <ele>648</ele>
        <time>2022-06-14T08:13:37.000Z</time>
      </trkpt>
      <trkpt lat="45.37457" lon="2.37401">
        <ele>648.1</ele>
        <time>2022-06-14T08:13:38.000Z</time>
      </trkpt>
      <trkpt lat="45.37458" lon="2.37401">
        <ele>648.2</ele>
        <time>2022-06-14T08:13:39.000Z</time>
      </trkpt>
      <trkpt lat="45.37459" lon="2.37401">
        <ele>648.4</ele>
        <time>2022-06-14T08:13:40.000Z</time>
      </trkpt>
      <trkpt lat="45.3746" lon="2.37401">
        <ele>648.7</ele>
        <time>2022-06-14T08:13:42.000Z</time>
      </trkpt>
      <trkpt lat="45.37461" lon="2.37402">
        <ele>648.8</ele>
        <time>2022-06-14T08:13:43.000Z</time>
      </trkpt>
      <trkpt lat="45.37462" lon="2.37402">
        <ele>649</ele>
        <time>2022-06-14T08:13:44.000Z</time>
      </trkpt>
      <trkpt lat="45.37463" lon="2.37402">
        <ele>649.2</ele>
        <time>2022-06-14T08:13:45.000Z</time>
      </trkpt>
      <trkpt lat="45.37464" lon="2.37403">
        <ele>649.4</ele>
        <time>2022-06-14T08:13:46.000Z</time>
      </trkpt>
      <trkpt lat="45.37465" lon="2.37403">
        <ele>649.6</ele>
        <time>2022-06-14T08:13:47.000Z</time>
      </trkpt>
      <trkpt lat="45.37466" lon="2.37404">
        <ele>649.8</ele>
        <time>2022-06-14T08:13:48.000Z</time>
      </trkpt>
      <trkpt lat="45.37467" lon="2.37404">
        <ele>650</ele>
        <time>2022-06-14T08:13:49.000Z</time>
      </trkpt>
      <trkpt lat="45.37468" lon="2.37405">
        <ele>650.2</ele>
        <time>2022-06-14T08:13:50.000Z</time>
      </trkpt>
      <trkpt lat="45.37469" lon="2.37406">
        <ele>650.7</ele>
        <time>2022-06-14T08:13:52.000Z</time>
      </trkpt>
      <trkpt lat="45.3747" lon="2.37406">
        <ele>650.9</ele>
        <time>2022-06-14T08:13:53.000Z</time>
      </trkpt>
      <trkpt lat="45.37471" lon="2.37407">
        <ele>651.1</ele>
        <time>2022-06-14T08:13:54.000Z</time>
      </trkpt>
      <trkpt lat="45.37472" lon="2.37408">
        <ele>651.3</ele>
        <time>2022-06-14T08:13:55.000Z</time>
      </trkpt>
      <trkpt lat="45.37473" lon="2.37408">
        <ele>651.5</ele>
        <time>2022-06-14T08:13:56.000Z</time>
      </trkpt>
      <trkpt lat="45.37473" lon="2.37409">
        <ele>651.7</ele>
        <time>2022-06-14T08:13:57.000Z</time>
      </trkpt>
      <trkpt lat="45.37474" lon="2.37409">
        <ele>651.8</ele>
        <time>2022-06-14T08:13:58.000Z</time>
      </trkpt>
      <trkpt lat="45.37474" lon="2.3741">
        <ele>652</ele>
        <time>2022-06-14T08:13:59.000Z</time>
      </trkpt>
      <trkpt lat="45.37475" lon="2.3741">
        <ele>652.1</ele>
        <time>2022-06-14T08:14:00.000Z</time>
      </trkpt>
      <trkpt lat="45.37475" lon="2.37411">
        <ele>652.2</ele>
        <time>2022-06-14T08:14:02.000Z</time>
      </trkpt>
      <trkpt lat="45.37475" lon="2.37411">
        <ele>652.3</ele>
        <time>2022-06-14T08:14:13.000Z</time>
      </trkpt>
      <trkpt lat="45.37476" lon="2.37412">
        <ele>652.4</ele>
        <time>2022-06-14T08:14:16.000Z</time>
      </trkpt>
      <trkpt lat="45.37476" lon="2.37412">
        <ele>652.6</ele>
        <time>2022-06-14T08:14:22.000Z</time>
      </trkpt>
      <trkpt lat="45.37476" lon="2.37413">
        <ele>652.7</ele>
        <time>2022-06-14T08:14:24.000Z</time>
      </trkpt>
      <trkpt lat="45.37476" lon="2.37413">
        <ele>652.8</ele>
        <time>2022-06-14T08:14:39.000Z</time>
      </trkpt>
      <trkpt lat="45.37476" lon="2.37414">
        <ele>652.9</ele>
        <time>2022-06-14T08:14:40.000Z</time>
      </trkpt>
      <trkpt lat="45.37477" lon="2.37414">
        <ele>653</ele>
        <time>2022-06-14T08:14:41.000Z</time>
      </trkpt>
      <trkpt lat="45.37477" lon="2.37416">
        <ele>653.3</ele>
        <time>2022-06-14T08:14:42.000Z</time>
      </trkpt>
      <trkpt lat="45.37478" lon="2.37417">
        <ele>653.6</ele>
        <time>2022-06-14T08:14:43.000Z</time>
      </trkpt>
      <trkpt lat="45.37478" lon="2.37418">
        <ele>653.9</ele>
        <time>2022-06-14T08:14:44.000Z</time>
      </trkpt>
      <trkpt lat="45.37479" lon="2.3742">
        <ele>654.2</ele>
        <time>2022-06-14T08:14:45.000Z</time>
      </trkpt>
      <trkpt lat="45.3748" lon="2.37421">
        <ele>654.5</ele>
        <time>2022-06-14T08:14:46.000Z</time>
      </trkpt>
      <trkpt lat="45.3748" lon="2.37422">
        <ele>654.7</ele>
        <time>2022-06-14T08:14:47.000Z</time>
      </trkpt>
      <trkpt lat="45.37481" lon="2.37423">
        <ele>655</ele>
        <time>2022-06-14T08:14:48.000Z</time>
      </trkpt>
      <trkpt lat="45.37481" lon="2.37424">
        <ele>655.3</ele>
        <time>2022-06-14T08:14:49.000Z</time>
      </trkpt>
      <trkpt lat="45.37482" lon="2.37425">
        <ele>655.6</ele>
        <time>2022-06-14T08:14:50.000Z</time>
      </trkpt>
      <trkpt lat="45.37483" lon="2.37427">
        <ele>655.8</ele>
        <time>2022-06-14T08:14:51.000Z</time>
      </trkpt>
      <trkpt lat="45.37483" lon="2.37428">
        <ele>656.1</ele>
        <time>2022-06-14T08:14:52.000Z</time>
      </trkpt>
      <trkpt lat="45.37484" lon="2.37428">
        <ele>656.3</ele>
        <time>2022-06-14T08:14:53.000Z</time>
      </trkpt>
      <trkpt lat="45.37485" lon="2.37429">
        <ele>656.6</ele>
        <time>2022-06-14T08:14:54.000Z</time>
      </trkpt>
      <trkpt lat="45.37485" lon="2.3743">
        <ele>656.8</ele>
        <time>2022-06-14T08:14:55.000Z</time>
      </trkpt>
      <trkpt lat="45.37486" lon="2.37431">
        <ele>657.1</ele>
        <time>2022-06-14T08:14:56.000Z</time>
      </trkpt>
      <trkpt lat="45.37487" lon="2.37432">
        <ele>657.3</ele>
        <time>2022-06-14T08:14:57.000Z</time>
      </trkpt>
      <trkpt lat="45.37488" lon="2.37433">
        <ele>657.6</ele>
        <time>2022-06-14T08:14:58.000Z</time>
      </trkpt>
      <trkpt lat="45.37489" lon="2.37433">
        <ele>657.8</ele>
        <time>2022-06-14T08:14:59.000Z</time>
      </trkpt>
      <trkpt lat="45.37489" lon="2.37434">
        <ele>658</ele>
        <time>2022-06-14T08:15:00.000Z</time>
      </trkpt>
      <trkpt lat="45.3749" lon="2.37435">
        <ele>658.3</ele>
        <time>2022-06-14T08:15:01.000Z</time>
      </trkpt>
      <trkpt lat="45.37491" lon="2.37435">
        <ele>658.5</ele>
        <time>2022-06-14T08:15:02.000Z</time>
      </trkpt>
      <trkpt lat="45.37492" lon="2.37436">
        <ele>658.7</ele>
        <time>2022-06-14T08:15:03.000Z</time>
      </trkpt>
      <trkpt lat="45.37493" lon="2.37436">
        <ele>659</ele>
        <time>2022-06-14T08:15:04.000Z</time>
      </trkpt>
      <trkpt lat="45.37494" lon="2.37437">
        <ele>659.2</ele>
        <time>2022-06-14T08:15:05.000Z</time>
      </trkpt>
      <trkpt lat="45.37495" lon="2.37437">
        <ele>659.4</ele>
        <time>2022-06-14T08:15:06.000Z</time>
      </trkpt>
      <trkpt lat="45.37496" lon="2.37438">
        <ele>659.6</ele>
        <time>2022-06-14T08:15:07.000Z</time>
      </trkpt>
      <trkpt lat="45.37497" lon="2.37438">
        <ele>659.8</ele>
        <time>2022-06-14T08:15:08.000Z</time>
      </trkpt>
      <trkpt lat="45.37498" lon="2.37439">
        <ele>660.1</ele>
        <time>2022-06-14T08:15:09.000Z</time>
      </trkpt>
      <trkpt lat="45.37499" lon="2.37439">
        <ele>660.3</ele>
        <time>2022-06-14T08:15:10.000Z</time>
      </trkpt>
      <trkpt lat="45.375" lon="2.37439">
        <ele>660.5</ele>
        <time>2022-06-14T08:15:11.000Z</time>
      </trkpt>
      <trkpt lat="45.37501" lon="2.3744">
        <ele>660.6</ele>
        <time>2022-06-14T08:15:12.000Z</time>
      </trkpt>
      <trkpt lat="45.37502" lon="2.3744">
        <ele>660.6</ele>
        <time>2022-06-14T08:15:13.000Z</time>
      </trkpt>
      <trkpt lat="45.37503" lon="2.3744">
        <ele>660.7</ele>
        <time>2022-06-14T08:15:14.000Z</time>
      </trkpt>
      <trkpt lat="45.37504" lon="2.37441">
        <ele>660.7</ele>
        <time>2022-06-14T08:15:15.000Z</time>
      </trkpt>
      <trkpt lat="45.37505" lon="2.37441">
        <ele>660.8</ele>
        <time>2022-06-14T08:15:16.000Z</time>
      </trkpt>
      <trkpt lat="45.37506" lon="2.37442">
        <ele>660.8</ele>
        <time>2022-06-14T08:15:17.000Z</time>
      </trkpt>
      <trkpt lat="45.37507" lon="2.37442">
        <ele>660.9</ele>
        <time>2022-06-14T08:15:18.000Z</time>
      </trkpt>
      <trkpt lat="45.37509" lon="2.37443">
        <ele>660.9</ele>
        <time>2022-06-14T08:15:19.000Z</time>
      </trkpt>
      <trkpt lat="45.3751" lon="2.37443">
        <ele>661</ele>
        <time>2022-06-14T08:15:20.000Z</time>
      </trkpt>
      <trkpt lat="45.37511" lon="2.37443">
        <ele>661</ele>
        <time>2022-06-14T08:15:21.000Z</time>
      </trkpt>
      <trkpt lat="45.37512" lon="2.37444">
        <ele>661.1</ele>
        <time>2022-06-14T08:15:22.000Z</time>
      </trkpt>
      <trkpt lat="45.37513" lon="2.37444">
        <ele>661.2</ele>
        <time>2022-06-14T08:15:23.000Z</time>
      </trkpt>
      <trkpt lat="45.37514" lon="2.37445">
        <ele>661.2</ele>
        <time>2022-06-14T08:15:24.000Z</time>
      </trkpt>
      <trkpt lat="45.37516" lon="2.37445">
        <ele>661.3</ele>
        <time>2022-06-14T08:15:25.000Z</time>
      </trkpt>
      <trkpt lat="45.37517" lon="2.37446">
        <ele>661.3</ele>
        <time>2022-06-14T08:15:26.000Z</time>
      </trkpt>
      <trkpt lat="45.37518" lon="2.37446">
        <ele>661.4</ele>
        <time>2022-06-14T08:15:27.000Z</time>
      </trkpt>
      <trkpt lat="45.3752" lon="2.37447">
        <ele>661.5</ele>
        <time>2022-06-14T08:15:28.000Z</time>
      </trkpt>
      <trkpt lat="45.37521" lon="2.37447">
        <ele>661.5</ele>
        <time>2022-06-14T08:15:29.000Z</time>
      </trkpt>
      <trkpt lat="45.37522" lon="2.37448">
        <ele>661.6</ele>
        <time>2022-06-14T08:15:30.000Z</time>
      </trkpt>
      <trkpt lat="45.37524" lon="2.37449">
        <ele>661.7</ele>
        <time>2022-06-14T08:15:31.000Z</time>
      </trkpt>
      <trkpt lat="45.37525" lon="2.37449">
        <ele>661.7</ele>
        <time>2022-06-14T08:15:32.000Z</time>
      </trkpt>
      <trkpt lat="45.37527" lon="2.3745">
        <ele>661.8</ele>
        <time>2022-06-14T08:15:33.000Z</time>
      </trkpt>
      <trkpt lat="45.37528" lon="2.3745">
        <ele>661.9</ele>
        <time>2022-06-14T08:15:34.000Z</time>
      </trkpt>
      <trkpt lat="45.37529" lon="2.37451">
        <ele>662</ele>
        <time>2022-06-14T08:15:35.000Z</time>
      </trkpt>
      <trkpt lat="45.37531" lon="2.37451">
        <ele>662</ele>
        <time>2022-06-14T08:15:36.000Z</time>
      </trkpt>
      <trkpt lat="45.37532" lon="2.37452">
        <ele>662.1</ele>
        <time>2022-06-14T08:15:37.000Z</time>
      </trkpt>
      <trkpt lat="45.37533" lon="2.37452">
        <ele>662.2</ele>
        <time>2022-06-14T08:15:38.000Z</time>
      </trkpt>
      <trkpt lat="45.37535" lon="2.37453">
        <ele>662.2</ele>
        <time>2022-06-14T08:15:39.000Z</time>
      </trkpt>
      <trkpt lat="45.37536" lon="2.37454">
        <ele>662.3</ele>
        <time>2022-06-14T08:15:40.000Z</time>
      </trkpt>
      <trkpt lat="45.37537" lon="2.37454">
        <ele>662.4</ele>
        <time>2022-06-14T08:15:41.000Z</time>
      </trkpt>
      <trkpt lat="45.37539" lon="2.37455">
        <ele>662.5</ele>
        <time>2022-06-14T08:15:42.000Z</time>
      </trkpt>
      <trkpt lat="45.3754" lon="2.37455">
        <ele>662.5</ele>
        <time>2022-06-14T08:15:43.000Z</time>
      </trkpt>
      <trkpt lat="45.37541" lon="2.37456">
        <ele>662.6</ele>
        <time>2022-06-14T08:15:44.000Z</time>
      </trkpt>
      <trkpt lat="45.37542" lon="2.37456">
        <ele>662.7</ele>
        <time>2022-06-14T08:15:45.000Z</time>
      </trkpt>
      <trkpt lat="45.37543" lon="2.37457">
        <ele>662.8</ele>
        <time>2022-06-14T08:15:46.000Z</time>
      </trkpt>
      <trkpt lat="45.37545" lon="2.37458">
        <ele>662.8</ele>
        <time>2022-06-14T08:15:47.000Z</time>
      </trkpt>
      <trkpt lat="45.37546" lon="2.37458">
        <ele>662.9</ele>
        <time>2022-06-14T08:15:48.000Z</time>
      </trkpt>
      <trkpt lat="45.37547" lon="2.37459">
        <ele>663</ele>
        <time>2022-06-14T08:15:49.000Z</time>
      </trkpt>
      <trkpt lat="45.37548" lon="2.37459">
        <ele>663.1</ele>
        <time>2022-06-14T08:15:50.000Z</time>
      </trkpt>
      <trkpt lat="45.37549" lon="2.3746">
        <ele>663.2</ele>
        <time>2022-06-14T08:15:51.000Z</time>
      </trkpt>
      <trkpt lat="45.3755" lon="2.37461">
        <ele>663.3</ele>
        <time>2022-06-14T08:15:52.000Z</time>
      </trkpt>
      <trkpt lat="45.37551" lon="2.37462">
        <ele>663.4</ele>
        <time>2022-06-14T08:15:53.000Z</time>
      </trkpt>
      <trkpt lat="45.37552" lon="2.37463">
        <ele>663.6</ele>
        <time>2022-06-14T08:15:55.000Z</time>
      </trkpt>
      <trkpt lat="45.37553" lon="2.37464">
        <ele>663.7</ele>
        <time>2022-06-14T08:15:56.000Z</time>
      </trkpt>
      <trkpt lat="45.37554" lon="2.37465">
        <ele>663.9</ele>
        <time>2022-06-14T08:15:57.000Z</time>
      </trkpt>
      <trkpt lat="45.37554" lon="2.37466">
        <ele>664</ele>
        <time>2022-06-14T08:15:58.000Z</time>
      </trkpt>
      <trkpt lat="45.37555" lon="2.37467">
        <ele>664.1</ele>
        <time>2022-06-14T08:15:59.000Z</time>
      </trkpt>
      <trkpt lat="45.37556" lon="2.37468">
        <ele>664.3</ele>
        <time>2022-06-14T08:16:00.000Z</time>
      </trkpt>
      <trkpt lat="45.37556" lon="2.37469">
        <ele>664.4</ele>
        <time>2022-06-14T08:16:01.000Z</time>
      </trkpt>
      <trkpt lat="45.37557" lon="2.3747">
        <ele>664.6</ele>
        <time>2022-06-14T08:16:02.000Z</time>
      </trkpt>
      <trkpt lat="45.37557" lon="2.37471">
        <ele>664.8</ele>
        <time>2022-06-14T08:16:03.000Z</time>
      </trkpt>
      <trkpt lat="45.37558" lon="2.37472">
        <ele>664.9</ele>
        <time>2022-06-14T08:16:04.000Z</time>
      </trkpt>
      <trkpt lat="45.37558" lon="2.37473">
        <ele>665.1</ele>
        <time>2022-06-14T08:16:05.000Z</time>
      </trkpt>
      <trkpt lat="45.37558" lon="2.37474">
        <ele>665.3</ele>
        <time>2022-06-14T08:16:06.000Z</time>
      </trkpt>
      <trkpt lat="45.37559" lon="2.37476">
        <ele>665.5</ele>
        <time>2022-06-14T08:16:07.000Z</time>
      </trkpt>
      <trkpt lat="45.37559" lon="2.37477">
        <ele>665.7</ele>
        <time>2022-06-14T08:16:08.000Z</time>
      </trkpt>
      <trkpt lat="45.37559" lon="2.37478">
        <ele>665.9</ele>
        <time>2022-06-14T08:16:09.000Z</time>
      </trkpt>
      <trkpt lat="45.37559" lon="2.37479">
        <ele>666.1</ele>
        <time>2022-06-14T08:16:10.000Z</time>
      </trkpt>
      <trkpt lat="45.37559" lon="2.37481">
        <ele>666.3</ele>
        <time>2022-06-14T08:16:11.000Z</time>
      </trkpt>
      <trkpt lat="45.37559" lon="2.37482">
        <ele>666.5</ele>
        <time>2022-06-14T08:16:12.000Z</time>
      </trkpt>
      <trkpt lat="45.3756" lon="2.37483">
        <ele>666.7</ele>
        <time>2022-06-14T08:16:13.000Z</time>
      </trkpt>
      <trkpt lat="45.3756" lon="2.37485">
        <ele>666.9</ele>
        <time>2022-06-14T08:16:14.000Z</time>
      </trkpt>
      <trkpt lat="45.3756" lon="2.37486">
        <ele>667.1</ele>
        <time>2022-06-14T08:16:15.000Z</time>
      </trkpt>
      <trkpt lat="45.3756" lon="2.37487">
        <ele>667.3</ele>
        <time>2022-06-14T08:16:16.000Z</time>
      </trkpt>
      <trkpt lat="45.3756" lon="2.37488">
        <ele>667.5</ele>
        <time>2022-06-14T08:16:17.000Z</time>
      </trkpt>
      <trkpt lat="45.3756" lon="2.3749">
        <ele>667.6</ele>
        <time>2022-06-14T08:16:18.000Z</time>
      </trkpt>
      <trkpt lat="45.3756" lon="2.37491">
        <ele>667.8</ele>
        <time>2022-06-14T08:16:19.000Z</time>
      </trkpt>
      <trkpt lat="45.3756" lon="2.37492">
        <ele>668</ele>
        <time>2022-06-14T08:16:20.000Z</time>
      </trkpt>
      <trkpt lat="45.3756" lon="2.37493">
        <ele>668.2</ele>
        <time>2022-06-14T08:16:21.000Z</time>
      </trkpt>
      <trkpt lat="45.37561" lon="2.37494">
        <ele>668.4</ele>
        <time>2022-06-14T08:16:22.000Z</time>
      </trkpt>
      <trkpt lat="45.37561" lon="2.37496">
        <ele>668.6</ele>
        <time>2022-06-14T08:16:23.000Z</time>
      </trkpt>
      <trkpt lat="45.37561" lon="2.37497">
        <ele>668.8</ele>
        <time>2022-06-14T08:16:24.000Z</time>
      </trkpt>
      <trkpt lat="45.37561" lon="2.37498">
        <ele>669</ele>
        <time>2022-06-14T08:16:25.000Z</time>
      </trkpt>
      <trkpt lat="45.37561" lon="2.37499">
        <ele>669.2</ele>
        <time>2022-06-14T08:16:26.000Z</time>
      </trkpt>
      <trkpt lat="45.37562" lon="2.37501">
        <ele>669.4</ele>
        <time>2022-06-14T08:16:27.000Z</time>
      </trkpt>
      <trkpt lat="45.37562" lon="2.37502">
        <ele>669.5</ele>
        <time>2022-06-14T08:16:28.000Z</time>
      </trkpt>
      <trkpt lat="45.37563" lon="2.37503">
        <ele>669.7</ele>
        <time>2022-06-14T08:16:29.000Z</time>
      </trkpt>
      <trkpt lat="45.37563" lon="2.37505">
        <ele>669.9</ele>
        <time>2022-06-14T08:16:30.000Z</time>
      </trkpt>
      <trkpt lat="45.37563" lon="2.37506">
        <ele>670.1</ele>
        <time>2022-06-14T08:16:31.000Z</time>
      </trkpt>
      <trkpt lat="45.37564" lon="2.37507">
        <ele>670.3</ele>
        <time>2022-06-14T08:16:32.000Z</time>
      </trkpt>
      <trkpt lat="45.37563" lon="2.37509">
        <ele>670.5</ele>
        <time>2022-06-14T08:16:33.000Z</time>
      </trkpt>
      <trkpt lat="45.37563" lon="2.3751">
        <ele>670.7</ele>
        <time>2022-06-14T08:16:34.000Z</time>
      </trkpt>
      <trkpt lat="45.37563" lon="2.37512">
        <ele>670.9</ele>
        <time>2022-06-14T08:16:35.000Z</time>
      </trkpt>
      <trkpt lat="45.37563" lon="2.37513">
        <ele>671.1</ele>
        <time>2022-06-14T08:16:36.000Z</time>
      </trkpt>
      <trkpt lat="45.37563" lon="2.37514">
        <ele>671.3</ele>
        <time>2022-06-14T08:16:37.000Z</time>
      </trkpt>
      <trkpt lat="45.37563" lon="2.37516">
        <ele>671.4</ele>
        <time>2022-06-14T08:16:38.000Z</time>
      </trkpt>
      <trkpt lat="45.37563" lon="2.37517">
        <ele>671.6</ele>
        <time>2022-06-14T08:16:39.000Z</time>
      </trkpt>
      <trkpt lat="45.37563" lon="2.37518">
        <ele>671.8</ele>
        <time>2022-06-14T08:16:40.000Z</time>
      </trkpt>
      <trkpt lat="45.37563" lon="2.37519">
        <ele>672</ele>
        <time>2022-06-14T08:16:41.000Z</time>
      </trkpt>
      <trkpt lat="45.37564" lon="2.37521">
        <ele>672.1</ele>
        <time>2022-06-14T08:16:42.000Z</time>
      </trkpt>
      <trkpt lat="45.37564" lon="2.37522">
        <ele>672.3</ele>
        <time>2022-06-14T08:16:43.000Z</time>
      </trkpt>
      <trkpt lat="45.37565" lon="2.37523">
        <ele>672.5</ele>
        <time>2022-06-14T08:16:44.000Z</time>
      </trkpt>
      <trkpt lat="45.37566" lon="2.37524">
        <ele>672.6</ele>
        <time>2022-06-14T08:16:45.000Z</time>
      </trkpt>
      <trkpt lat="45.37566" lon="2.37525">
        <ele>672.8</ele>
        <time>2022-06-14T08:16:46.000Z</time>
      </trkpt>
      <trkpt lat="45.37567" lon="2.37527">
        <ele>673</ele>
        <time>2022-06-14T08:16:47.000Z</time>
      </trkpt>
      <trkpt lat="45.37568" lon="2.37528">
        <ele>673.1</ele>
        <time>2022-06-14T08:16:48.000Z</time>
      </trkpt>
      <trkpt lat="45.37569" lon="2.37529">
        <ele>673.3</ele>
        <time>2022-06-14T08:16:49.000Z</time>
      </trkpt>
      <trkpt lat="45.37569" lon="2.3753">
        <ele>673.4</ele>
        <time>2022-06-14T08:16:50.000Z</time>
      </trkpt>
      <trkpt lat="45.3757" lon="2.37531">
        <ele>673.6</ele>
        <time>2022-06-14T08:16:51.000Z</time>
      </trkpt>
      <trkpt lat="45.37571" lon="2.37532">
        <ele>673.7</ele>
        <time>2022-06-14T08:16:52.000Z</time>
      </trkpt>
      <trkpt lat="45.37572" lon="2.37533">
        <ele>673.9</ele>
        <time>2022-06-14T08:16:53.000Z</time>
      </trkpt>
      <trkpt lat="45.37572" lon="2.37534">
        <ele>674</ele>
        <time>2022-06-14T08:16:54.000Z</time>
      </trkpt>
      <trkpt lat="45.37573" lon="2.37535">
        <ele>674.2</ele>
        <time>2022-06-14T08:16:55.000Z</time>
      </trkpt>
      <trkpt lat="45.37573" lon="2.37536">
        <ele>674.3</ele>
        <time>2022-06-14T08:16:56.000Z</time>
      </trkpt>
      <trkpt lat="45.37573" lon="2.37537">
        <ele>674.4</ele>
        <time>2022-06-14T08:16:57.000Z</time>
      </trkpt>
      <trkpt lat="45.37574" lon="2.37538">
        <ele>674.6</ele>
        <time>2022-06-14T08:16:58.000Z</time>
      </trkpt>
      <trkpt lat="45.37574" lon="2.37539">
        <ele>674.7</ele>
        <time>2022-06-14T08:16:59.000Z</time>
      </trkpt>
      <trkpt lat="45.37574" lon="2.3754">
        <ele>674.9</ele>
        <time>2022-06-14T08:17:00.000Z</time>
      </trkpt>
      <trkpt lat="45.37575" lon="2.37541">
        <ele>675</ele>
        <time>2022-06-14T08:17:01.000Z</time>
      </trkpt>
      <trkpt lat="45.37575" lon="2.37543">
        <ele>675.2</ele>
        <time>2022-06-14T08:17:02.000Z</time>
      </trkpt>
      <trkpt lat="45.37575" lon="2.37544">
        <ele>675.3</ele>
        <time>2022-06-14T08:17:03.000Z</time>
      </trkpt>
      <trkpt lat="45.37576" lon="2.37545">
        <ele>675.5</ele>
        <time>2022-06-14T08:17:04.000Z</time>
      </trkpt>
      <trkpt lat="45.37576" lon="2.37546">
        <ele>675.6</ele>
        <time>2022-06-14T08:17:05.000Z</time>
      </trkpt>
      <trkpt lat="45.37576" lon="2.37547">
        <ele>675.8</ele>
        <time>2022-06-14T08:17:06.000Z</time>
      </trkpt>
      <trkpt lat="45.37577" lon="2.37548">
        <ele>675.9</ele>
        <time>2022-06-14T08:17:07.000Z</time>
      </trkpt>
      <trkpt lat="45.37577" lon="2.37549">
        <ele>676.1</ele>
        <time>2022-06-14T08:17:08.000Z</time>
      </trkpt>
      <trkpt lat="45.37578" lon="2.3755">
        <ele>676.3</ele>
        <time>2022-06-14T08:17:09.000Z</time>
      </trkpt>
      <trkpt lat="45.37578" lon="2.37552">
        <ele>676.4</ele>
        <time>2022-06-14T08:17:10.000Z</time>
      </trkpt>
      <trkpt lat="45.37579" lon="2.37553">
        <ele>676.6</ele>
        <time>2022-06-14T08:17:11.000Z</time>
      </trkpt>
      <trkpt lat="45.37579" lon="2.37554">
        <ele>676.7</ele>
        <time>2022-06-14T08:17:12.000Z</time>
      </trkpt>
      <trkpt lat="45.37579" lon="2.37555">
        <ele>677</ele>
        <time>2022-06-14T08:17:14.000Z</time>
      </trkpt>
      <trkpt lat="45.37579" lon="2.37556">
        <ele>677.1</ele>
        <time>2022-06-14T08:17:15.000Z</time>
      </trkpt>
      <trkpt lat="45.37579" lon="2.37557">
        <ele>677.2</ele>
        <time>2022-06-14T08:17:17.000Z</time>
      </trkpt>
      <trkpt lat="45.37579" lon="2.37558">
        <ele>677.3</ele>
        <time>2022-06-14T08:17:18.000Z</time>
      </trkpt>
      <trkpt lat="45.37578" lon="2.37558">
        <ele>677.4</ele>
        <time>2022-06-14T08:17:19.000Z</time>
      </trkpt>
      <trkpt lat="45.37578" lon="2.37559">
        <ele>677.5</ele>
        <time>2022-06-14T08:17:20.000Z</time>
      </trkpt>
      <trkpt lat="45.37577" lon="2.3756">
        <ele>677.6</ele>
        <time>2022-06-14T08:17:21.000Z</time>
      </trkpt>
      <trkpt lat="45.37576" lon="2.37561">
        <ele>677.7</ele>
        <time>2022-06-14T08:17:22.000Z</time>
      </trkpt>
      <trkpt lat="45.37575" lon="2.37562">
        <ele>678</ele>
        <time>2022-06-14T08:17:24.000Z</time>
      </trkpt>
      <trkpt lat="45.37574" lon="2.37563">
        <ele>678.1</ele>
        <time>2022-06-14T08:17:25.000Z</time>
      </trkpt>
      <trkpt lat="45.37574" lon="2.37564">
        <ele>678.2</ele>
        <time>2022-06-14T08:17:26.000Z</time>
      </trkpt>
      <trkpt lat="45.37573" lon="2.37565">
        <ele>678.3</ele>
        <time>2022-06-14T08:17:27.000Z</time>
      </trkpt>
      <trkpt lat="45.37572" lon="2.37565">
        <ele>678.4</ele>
        <time>2022-06-14T08:17:28.000Z</time>
      </trkpt>
      <trkpt lat="45.37571" lon="2.37566">
        <ele>678.6</ele>
        <time>2022-06-14T08:17:29.000Z</time>
      </trkpt>
      <trkpt lat="45.3757" lon="2.37567">
        <ele>678.7</ele>
        <time>2022-06-14T08:17:30.000Z</time>
      </trkpt>
      <trkpt lat="45.37569" lon="2.37568">
        <ele>678.8</ele>
        <time>2022-06-14T08:17:31.000Z</time>
      </trkpt>
      <trkpt lat="45.37568" lon="2.37569">
        <ele>678.9</ele>
        <time>2022-06-14T08:17:32.000Z</time>
      </trkpt>
      <trkpt lat="45.37567" lon="2.37569">
        <ele>679</ele>
        <time>2022-06-14T08:17:33.000Z</time>
      </trkpt>
      <trkpt lat="45.37567" lon="2.3757">
        <ele>679.1</ele>
        <time>2022-06-14T08:17:34.000Z</time>
      </trkpt>
      <trkpt lat="45.37566" lon="2.3757">
        <ele>679.2</ele>
        <time>2022-06-14T08:17:35.000Z</time>
      </trkpt>
      <trkpt lat="45.37565" lon="2.37571">
        <ele>679.3</ele>
        <time>2022-06-14T08:17:36.000Z</time>
      </trkpt>
      <trkpt lat="45.37564" lon="2.37572">
        <ele>679.3</ele>
        <time>2022-06-14T08:17:37.000Z</time>
      </trkpt>
      <trkpt lat="45.37563" lon="2.37572">
        <ele>679.4</ele>
        <time>2022-06-14T08:17:38.000Z</time>
      </trkpt>
      <trkpt lat="45.37562" lon="2.37573">
        <ele>679.5</ele>
        <time>2022-06-14T08:17:39.000Z</time>
      </trkpt>
      <trkpt lat="45.37561" lon="2.37573">
        <ele>679.6</ele>
        <time>2022-06-14T08:17:40.000Z</time>
      </trkpt>
      <trkpt lat="45.37561" lon="2.37574">
        <ele>679.7</ele>
        <time>2022-06-14T08:17:41.000Z</time>
      </trkpt>
      <trkpt lat="45.3756" lon="2.37575">
        <ele>679.8</ele>
        <time>2022-06-14T08:17:42.000Z</time>
      </trkpt>
      <trkpt lat="45.37559" lon="2.37575">
        <ele>679.8</ele>
        <time>2022-06-14T08:17:43.000Z</time>
      </trkpt>
      <trkpt lat="45.37558" lon="2.37576">
        <ele>679.9</ele>
        <time>2022-06-14T08:17:44.000Z</time>
      </trkpt>
      <trkpt lat="45.37557" lon="2.37576">
        <ele>680</ele>
        <time>2022-06-14T08:17:45.000Z</time>
      </trkpt>
      <trkpt lat="45.37557" lon="2.37577">
        <ele>680.1</ele>
        <time>2022-06-14T08:17:46.000Z</time>
      </trkpt>
      <trkpt lat="45.37556" lon="2.37578">
        <ele>680.2</ele>
        <time>2022-06-14T08:17:47.000Z</time>
      </trkpt>
      <trkpt lat="45.37555" lon="2.37579">
        <ele>680.3</ele>
        <time>2022-06-14T08:17:48.000Z</time>
      </trkpt>
      <trkpt lat="45.37554" lon="2.3758">
        <ele>680.5</ele>
        <time>2022-06-14T08:17:50.000Z</time>
      </trkpt>
      <trkpt lat="45.37553" lon="2.37581">
        <ele>680.7</ele>
        <time>2022-06-14T08:17:51.000Z</time>
      </trkpt>
      <trkpt lat="45.37553" lon="2.37582">
        <ele>680.8</ele>
        <time>2022-06-14T08:17:52.000Z</time>
      </trkpt>
      <trkpt lat="45.37552" lon="2.37583">
        <ele>681</ele>
        <time>2022-06-14T08:17:53.000Z</time>
      </trkpt>
      <trkpt lat="45.37552" lon="2.37584">
        <ele>681.1</ele>
        <time>2022-06-14T08:17:54.000Z</time>
      </trkpt>
      <trkpt lat="45.37551" lon="2.37585">
        <ele>681.1</ele>
        <time>2022-06-14T08:17:55.000Z</time>
      </trkpt>
      <trkpt lat="45.37551" lon="2.37587">
        <ele>681.2</ele>
        <time>2022-06-14T08:17:56.000Z</time>
      </trkpt>
      <trkpt lat="45.3755" lon="2.37588">
        <ele>681.3</ele>
        <time>2022-06-14T08:17:57.000Z</time>
      </trkpt>
      <trkpt lat="45.3755" lon="2.3759">
        <ele>681.4</ele>
        <time>2022-06-14T08:17:58.000Z</time>
      </trkpt>
      <trkpt lat="45.37549" lon="2.37591">
        <ele>681.5</ele>
        <time>2022-06-14T08:17:59.000Z</time>
      </trkpt>
      <trkpt lat="45.37549" lon="2.37592">
        <ele>681.5</ele>
        <time>2022-06-14T08:18:00.000Z</time>
      </trkpt>
      <trkpt lat="45.37549" lon="2.37593">
        <ele>681.6</ele>
        <time>2022-06-14T08:18:01.000Z</time>
      </trkpt>
      <trkpt lat="45.37549" lon="2.37594">
        <ele>681.7</ele>
        <time>2022-06-14T08:18:02.000Z</time>
      </trkpt>
      <trkpt lat="45.37548" lon="2.37595">
        <ele>681.7</ele>
        <time>2022-06-14T08:18:03.000Z</time>
      </trkpt>
      <trkpt lat="45.37548" lon="2.37596">
        <ele>681.8</ele>
        <time>2022-06-14T08:18:05.000Z</time>
      </trkpt>
      <trkpt lat="45.37548" lon="2.37597">
        <ele>681.8</ele>
        <time>2022-06-14T08:18:06.000Z</time>
      </trkpt>
      <trkpt lat="45.37547" lon="2.37598">
        <ele>681.9</ele>
        <time>2022-06-14T08:18:07.000Z</time>
      </trkpt>
      <trkpt lat="45.37547" lon="2.37599">
        <ele>682</ele>
        <time>2022-06-14T08:18:08.000Z</time>
      </trkpt>
      <trkpt lat="45.37547" lon="2.376">
        <ele>682</ele>
        <time>2022-06-14T08:18:09.000Z</time>
      </trkpt>
      <trkpt lat="45.37547" lon="2.37601">
        <ele>682.1</ele>
        <time>2022-06-14T08:18:10.000Z</time>
      </trkpt>
      <trkpt lat="45.37547" lon="2.37602">
        <ele>682.1</ele>
        <time>2022-06-14T08:18:11.000Z</time>
      </trkpt>
      <trkpt lat="45.37547" lon="2.37603">
        <ele>682.2</ele>
        <time>2022-06-14T08:18:13.000Z</time>
      </trkpt>
      <trkpt lat="45.37547" lon="2.37605">
        <ele>682.3</ele>
        <time>2022-06-14T08:18:14.000Z</time>
      </trkpt>
      <trkpt lat="45.37547" lon="2.37606">
        <ele>682.4</ele>
        <time>2022-06-14T08:18:15.000Z</time>
      </trkpt>
      <trkpt lat="45.37546" lon="2.37608">
        <ele>682.5</ele>
        <time>2022-06-14T08:18:16.000Z</time>
      </trkpt>
      <trkpt lat="45.37546" lon="2.37609">
        <ele>682.6</ele>
        <time>2022-06-14T08:18:17.000Z</time>
      </trkpt>
      <trkpt lat="45.37545" lon="2.37611">
        <ele>682.7</ele>
        <time>2022-06-14T08:18:18.000Z</time>
      </trkpt>
      <trkpt lat="45.37545" lon="2.37612">
        <ele>682.8</ele>
        <time>2022-06-14T08:18:19.000Z</time>
      </trkpt>
      <trkpt lat="45.37544" lon="2.37614">
        <ele>682.8</ele>
        <time>2022-06-14T08:18:20.000Z</time>
      </trkpt>
      <trkpt lat="45.37543" lon="2.37615">
        <ele>682.9</ele>
        <time>2022-06-14T08:18:21.000Z</time>
      </trkpt>
      <trkpt lat="45.37543" lon="2.37616">
        <ele>683</ele>
        <time>2022-06-14T08:18:22.000Z</time>
      </trkpt>
      <trkpt lat="45.37542" lon="2.37617">
        <ele>683</ele>
        <time>2022-06-14T08:18:23.000Z</time>
      </trkpt>
      <trkpt lat="45.37542" lon="2.37618">
        <ele>683.1</ele>
        <time>2022-06-14T08:18:24.000Z</time>
      </trkpt>
      <trkpt lat="45.37542" lon="2.37619">
        <ele>683.1</ele>
        <time>2022-06-14T08:18:25.000Z</time>
      </trkpt>
      <trkpt lat="45.37542" lon="2.3762">
        <ele>683.2</ele>
        <time>2022-06-14T08:18:26.000Z</time>
      </trkpt>
      <trkpt lat="45.37542" lon="2.37621">
        <ele>683.3</ele>
        <time>2022-06-14T08:18:27.000Z</time>
      </trkpt>
      <trkpt lat="45.37542" lon="2.37622">
        <ele>683.3</ele>
        <time>2022-06-14T08:18:28.000Z</time>
      </trkpt>
      <trkpt lat="45.37542" lon="2.37623">
        <ele>683.4</ele>
        <time>2022-06-14T08:18:29.000Z</time>
      </trkpt>
      <trkpt lat="45.37542" lon="2.37625">
        <ele>683.5</ele>
        <time>2022-06-14T08:18:30.000Z</time>
      </trkpt>
      <trkpt lat="45.37542" lon="2.37626">
        <ele>683.6</ele>
        <time>2022-06-14T08:18:31.000Z</time>
      </trkpt>
      <trkpt lat="45.37542" lon="2.37627">
        <ele>683.6</ele>
        <time>2022-06-14T08:18:32.000Z</time>
      </trkpt>
      <trkpt lat="45.37542" lon="2.37629">
        <ele>683.7</ele>
        <time>2022-06-14T08:18:33.000Z</time>
      </trkpt>
      <trkpt lat="45.37541" lon="2.3763">
        <ele>683.8</ele>
        <time>2022-06-14T08:18:34.000Z</time>
      </trkpt>
      <trkpt lat="45.37541" lon="2.37631">
        <ele>683.8</ele>
        <time>2022-06-14T08:18:35.000Z</time>
      </trkpt>
      <trkpt lat="45.37541" lon="2.37632">
        <ele>683.9</ele>
        <time>2022-06-14T08:18:36.000Z</time>
      </trkpt>
      <trkpt lat="45.3754" lon="2.37633">
        <ele>684</ele>
        <time>2022-06-14T08:18:37.000Z</time>
      </trkpt>
      <trkpt lat="45.3754" lon="2.37634">
        <ele>684</ele>
        <time>2022-06-14T08:18:38.000Z</time>
      </trkpt>
      <trkpt lat="45.37539" lon="2.37635">
        <ele>684.1</ele>
        <time>2022-06-14T08:18:39.000Z</time>
      </trkpt>
      <trkpt lat="45.37538" lon="2.37636">
        <ele>684.1</ele>
        <time>2022-06-14T08:18:40.000Z</time>
      </trkpt>
      <trkpt lat="45.37537" lon="2.37637">
        <ele>684.1</ele>
        <time>2022-06-14T08:18:41.000Z</time>
      </trkpt>
      <trkpt lat="45.37537" lon="2.37638">
        <ele>684.2</ele>
        <time>2022-06-14T08:18:42.000Z</time>
      </trkpt>
      <trkpt lat="45.37536" lon="2.37638">
        <ele>684.2</ele>
        <time>2022-06-14T08:18:43.000Z</time>
      </trkpt>
      <trkpt lat="45.37535" lon="2.37639">
        <ele>684.2</ele>
        <time>2022-06-14T08:18:44.000Z</time>
      </trkpt>
      <trkpt lat="45.37534" lon="2.3764">
        <ele>684.3</ele>
        <time>2022-06-14T08:18:45.000Z</time>
      </trkpt>
      <trkpt lat="45.37534" lon="2.37641">
        <ele>684.3</ele>
        <time>2022-06-14T08:18:46.000Z</time>
      </trkpt>
      <trkpt lat="45.37533" lon="2.37642">
        <ele>684.4</ele>
        <time>2022-06-14T08:18:47.000Z</time>
      </trkpt>
      <trkpt lat="45.37533" lon="2.37643">
        <ele>684.5</ele>
        <time>2022-06-14T08:18:48.000Z</time>
      </trkpt>
      <trkpt lat="45.37533" lon="2.37645">
        <ele>684.5</ele>
        <time>2022-06-14T08:18:49.000Z</time>
      </trkpt>
      <trkpt lat="45.37533" lon="2.37646">
        <ele>684.6</ele>
        <time>2022-06-14T08:18:50.000Z</time>
      </trkpt>
      <trkpt lat="45.37533" lon="2.37647">
        <ele>684.7</ele>
        <time>2022-06-14T08:18:51.000Z</time>
      </trkpt>
      <trkpt lat="45.37533" lon="2.37648">
        <ele>684.7</ele>
        <time>2022-06-14T08:18:52.000Z</time>
      </trkpt>
      <trkpt lat="45.37533" lon="2.3765">
        <ele>684.8</ele>
        <time>2022-06-14T08:18:53.000Z</time>
      </trkpt>
      <trkpt lat="45.37534" lon="2.37651">
        <ele>684.9</ele>
        <time>2022-06-14T08:18:54.000Z</time>
      </trkpt>
      <trkpt lat="45.37534" lon="2.37652">
        <ele>685</ele>
        <time>2022-06-14T08:18:55.000Z</time>
      </trkpt>
      <trkpt lat="45.37534" lon="2.37654">
        <ele>685.1</ele>
        <time>2022-06-14T08:18:56.000Z</time>
      </trkpt>
      <trkpt lat="45.37534" lon="2.37655">
        <ele>685.1</ele>
        <time>2022-06-14T08:18:57.000Z</time>
      </trkpt>
      <trkpt lat="45.37534" lon="2.37656">
        <ele>685.2</ele>
        <time>2022-06-14T08:18:58.000Z</time>
      </trkpt>
      <trkpt lat="45.37534" lon="2.37658">
        <ele>685.3</ele>
        <time>2022-06-14T08:18:59.000Z</time>
      </trkpt>
      <trkpt lat="45.37534" lon="2.37659">
        <ele>685.4</ele>
        <time>2022-06-14T08:19:00.000Z</time>
      </trkpt>
      <trkpt lat="45.37533" lon="2.37661">
        <ele>685.5</ele>
        <time>2022-06-14T08:19:01.000Z</time>
      </trkpt>
      <trkpt lat="45.37533" lon="2.37662">
        <ele>685.5</ele>
        <time>2022-06-14T08:19:02.000Z</time>
      </trkpt>
      <trkpt lat="45.37533" lon="2.37663">
        <ele>685.6</ele>
        <time>2022-06-14T08:19:03.000Z</time>
      </trkpt>
      <trkpt lat="45.37532" lon="2.37665">
        <ele>685.7</ele>
        <time>2022-06-14T08:19:04.000Z</time>
      </trkpt>
      <trkpt lat="45.37532" lon="2.37666">
        <ele>685.7</ele>
        <time>2022-06-14T08:19:05.000Z</time>
      </trkpt>
      <trkpt lat="45.37531" lon="2.37667">
        <ele>685.7</ele>
        <time>2022-06-14T08:19:06.000Z</time>
      </trkpt>
      <trkpt lat="45.37531" lon="2.37668">
        <ele>685.7</ele>
        <time>2022-06-14T08:19:07.000Z</time>
      </trkpt>
      <trkpt lat="45.3753" lon="2.37669">
        <ele>685.5</ele>
        <time>2022-06-14T08:19:09.000Z</time>
      </trkpt>
      <trkpt lat="45.3753" lon="2.3767">
        <ele>685.5</ele>
        <time>2022-06-14T08:19:10.000Z</time>
      </trkpt>
      <trkpt lat="45.3753" lon="2.37671">
        <ele>685.4</ele>
        <time>2022-06-14T08:19:13.000Z</time>
      </trkpt>
      <trkpt lat="45.3753" lon="2.37671">
        <ele>685.4</ele>
        <time>2022-06-14T08:19:22.000Z</time>
      </trkpt>
      <trkpt lat="45.3753" lon="2.37671">
        <ele>685.4</ele>
        <time>2022-06-14T08:19:40.000Z</time>
      </trkpt>
      <trkpt lat="45.3753" lon="2.3767">
        <ele>685.4</ele>
        <time>2022-06-14T08:19:42.000Z</time>
      </trkpt>
      <trkpt lat="45.37529" lon="2.3767">
        <ele>685.4</ele>
        <time>2022-06-14T08:19:43.000Z</time>
      </trkpt>
      <trkpt lat="45.37529" lon="2.37669">
        <ele>685.5</ele>
        <time>2022-06-14T08:19:46.000Z</time>
      </trkpt>
      <trkpt lat="45.37529" lon="2.37668">
        <ele>685.5</ele>
        <time>2022-06-14T08:19:51.000Z</time>
      </trkpt>
      <trkpt lat="45.37529" lon="2.37668">
        <ele>685.5</ele>
        <time>2022-06-14T08:19:53.000Z</time>
      </trkpt>
      <trkpt lat="45.37529" lon="2.37669">
        <ele>685.5</ele>
        <time>2022-06-14T08:21:38.000Z</time>
      </trkpt>
      <trkpt lat="45.37529" lon="2.37671">
        <ele>685.3</ele>
        <time>2022-06-14T08:21:40.000Z</time>
      </trkpt>
      <trkpt lat="45.37528" lon="2.37672">
        <ele>685.2</ele>
        <time>2022-06-14T08:21:41.000Z</time>
      </trkpt>
      <trkpt lat="45.37528" lon="2.37674">
        <ele>685.1</ele>
        <time>2022-06-14T08:21:42.000Z</time>
      </trkpt>
      <trkpt lat="45.37528" lon="2.37676">
        <ele>684.9</ele>
        <time>2022-06-14T08:21:43.000Z</time>
      </trkpt>
      <trkpt lat="45.37528" lon="2.37678">
        <ele>684.7</ele>
        <time>2022-06-14T08:21:44.000Z</time>
      </trkpt>
      <trkpt lat="45.37529" lon="2.3768">
        <ele>684.5</ele>
        <time>2022-06-14T08:21:45.000Z</time>
      </trkpt>
      <trkpt lat="45.37529" lon="2.37682">
        <ele>684.3</ele>
        <time>2022-06-14T08:21:46.000Z</time>
      </trkpt>
      <trkpt lat="45.3753" lon="2.37684">
        <ele>684.2</ele>
        <time>2022-06-14T08:21:47.000Z</time>
      </trkpt>
      <trkpt lat="45.3753" lon="2.37686">
        <ele>684.1</ele>
        <time>2022-06-14T08:21:48.000Z</time>
      </trkpt>
      <trkpt lat="45.37531" lon="2.37687">
        <ele>684</ele>
        <time>2022-06-14T08:21:49.000Z</time>
      </trkpt>
      <trkpt lat="45.37532" lon="2.37688">
        <ele>683.9</ele>
        <time>2022-06-14T08:21:50.000Z</time>
      </trkpt>
      <trkpt lat="45.37533" lon="2.3769">
        <ele>683.8</ele>
        <time>2022-06-14T08:21:51.000Z</time>
      </trkpt>
      <trkpt lat="45.37534" lon="2.37691">
        <ele>683.7</ele>
        <time>2022-06-14T08:21:52.000Z</time>
      </trkpt>
      <trkpt lat="45.37535" lon="2.37693">
        <ele>683.6</ele>
        <time>2022-06-14T08:21:53.000Z</time>
      </trkpt>
      <trkpt lat="45.37536" lon="2.37694">
        <ele>683.5</ele>
        <time>2022-06-14T08:21:54.000Z</time>
      </trkpt>
      <trkpt lat="45.37537" lon="2.37696">
        <ele>683.4</ele>
        <time>2022-06-14T08:21:55.000Z</time>
      </trkpt>
      <trkpt lat="45.37538" lon="2.37697">
        <ele>683.3</ele>
        <time>2022-06-14T08:21:56.000Z</time>
      </trkpt>
      <trkpt lat="45.37539" lon="2.37699">
        <ele>683.2</ele>
        <time>2022-06-14T08:21:57.000Z</time>
      </trkpt>
      <trkpt lat="45.3754" lon="2.377">
        <ele>683.1</ele>
        <time>2022-06-14T08:21:58.000Z</time>
      </trkpt>
      <trkpt lat="45.37541" lon="2.37702">
        <ele>683</ele>
        <time>2022-06-14T08:21:59.000Z</time>
      </trkpt>
      <trkpt lat="45.37542" lon="2.37703">
        <ele>682.9</ele>
        <time>2022-06-14T08:22:00.000Z</time>
      </trkpt>
      <trkpt lat="45.37543" lon="2.37705">
        <ele>682.8</ele>
        <time>2022-06-14T08:22:01.000Z</time>
      </trkpt>
      <trkpt lat="45.37544" lon="2.37706">
        <ele>682.8</ele>
        <time>2022-06-14T08:22:02.000Z</time>
      </trkpt>
      <trkpt lat="45.37545" lon="2.37707">
        <ele>682.7</ele>
        <time>2022-06-14T08:22:03.000Z</time>
      </trkpt>
      <trkpt lat="45.37546" lon="2.37708">
        <ele>682.7</ele>
        <time>2022-06-14T08:22:04.000Z</time>
      </trkpt>
      <trkpt lat="45.37547" lon="2.37709">
        <ele>682.6</ele>
        <time>2022-06-14T08:22:05.000Z</time>
      </trkpt>
      <trkpt lat="45.37548" lon="2.3771">
        <ele>682.6</ele>
        <time>2022-06-14T08:22:06.000Z</time>
      </trkpt>
      <trkpt lat="45.3755" lon="2.37711">
        <ele>682.6</ele>
        <time>2022-06-14T08:22:07.000Z</time>
      </trkpt>
      <trkpt lat="45.37551" lon="2.37711">
        <ele>682.6</ele>
        <time>2022-06-14T08:22:08.000Z</time>
      </trkpt>
      <trkpt lat="45.37552" lon="2.37712">
        <ele>682.6</ele>
        <time>2022-06-14T08:22:09.000Z</time>
      </trkpt>
      <trkpt lat="45.37554" lon="2.37712">
        <ele>682.7</ele>
        <time>2022-06-14T08:22:10.000Z</time>
      </trkpt>
      <trkpt lat="45.37555" lon="2.37712">
        <ele>682.7</ele>
        <time>2022-06-14T08:22:11.000Z</time>
      </trkpt>
      <trkpt lat="45.37557" lon="2.37712">
        <ele>682.7</ele>
        <time>2022-06-14T08:22:12.000Z</time>
      </trkpt>
      <trkpt lat="45.37558" lon="2.37712">
        <ele>682.8</ele>
        <time>2022-06-14T08:22:13.000Z</time>
      </trkpt>
      <trkpt lat="45.37559" lon="2.37713">
        <ele>682.8</ele>
        <time>2022-06-14T08:22:14.000Z</time>
      </trkpt>
      <trkpt lat="45.3756" lon="2.37713">
        <ele>682.8</ele>
        <time>2022-06-14T08:22:15.000Z</time>
      </trkpt>
      <trkpt lat="45.37562" lon="2.37713">
        <ele>682.9</ele>
        <time>2022-06-14T08:22:16.000Z</time>
      </trkpt>
      <trkpt lat="45.37563" lon="2.37713">
        <ele>682.9</ele>
        <time>2022-06-14T08:22:17.000Z</time>
      </trkpt>
      <trkpt lat="45.37564" lon="2.37713">
        <ele>683</ele>
        <time>2022-06-14T08:22:18.000Z</time>
      </trkpt>
      <trkpt lat="45.37565" lon="2.37713">
        <ele>683</ele>
        <time>2022-06-14T08:22:19.000Z</time>
      </trkpt>
      <trkpt lat="45.37567" lon="2.37713">
        <ele>683.1</ele>
        <time>2022-06-14T08:22:20.000Z</time>
      </trkpt>
      <trkpt lat="45.37568" lon="2.37713">
        <ele>683.1</ele>
        <time>2022-06-14T08:22:21.000Z</time>
      </trkpt>
      <trkpt lat="45.37569" lon="2.37713">
        <ele>683.2</ele>
        <time>2022-06-14T08:22:22.000Z</time>
      </trkpt>
      <trkpt lat="45.3757" lon="2.37713">
        <ele>683.2</ele>
        <time>2022-06-14T08:22:23.000Z</time>
      </trkpt>
      <trkpt lat="45.37572" lon="2.37713">
        <ele>683.3</ele>
        <time>2022-06-14T08:22:24.000Z</time>
      </trkpt>
      <trkpt lat="45.37573" lon="2.37712">
        <ele>683.3</ele>
        <time>2022-06-14T08:22:25.000Z</time>
      </trkpt>
      <trkpt lat="45.37574" lon="2.37712">
        <ele>683.4</ele>
        <time>2022-06-14T08:22:26.000Z</time>
      </trkpt>
      <trkpt lat="45.37575" lon="2.37712">
        <ele>683.4</ele>
        <time>2022-06-14T08:22:27.000Z</time>
      </trkpt>
      <trkpt lat="45.37576" lon="2.37712">
        <ele>683.5</ele>
        <time>2022-06-14T08:22:28.000Z</time>
      </trkpt>
      <trkpt lat="45.37577" lon="2.37712">
        <ele>683.5</ele>
        <time>2022-06-14T08:22:29.000Z</time>
      </trkpt>
      <trkpt lat="45.37579" lon="2.37712">
        <ele>683.6</ele>
        <time>2022-06-14T08:22:30.000Z</time>
      </trkpt>
      <trkpt lat="45.3758" lon="2.37712">
        <ele>683.6</ele>
        <time>2022-06-14T08:22:31.000Z</time>
      </trkpt>
      <trkpt lat="45.37581" lon="2.37711">
        <ele>683.7</ele>
        <time>2022-06-14T08:22:32.000Z</time>
      </trkpt>
      <trkpt lat="45.37582" lon="2.37711">
        <ele>683.7</ele>
        <time>2022-06-14T08:22:33.000Z</time>
      </trkpt>
      <trkpt lat="45.37583" lon="2.37711">
        <ele>683.8</ele>
        <time>2022-06-14T08:22:34.000Z</time>
      </trkpt>
      <trkpt lat="45.37584" lon="2.37711">
        <ele>683.8</ele>
        <time>2022-06-14T08:22:35.000Z</time>
      </trkpt>
      <trkpt lat="45.37585" lon="2.37711">
        <ele>683.6</ele>
        <time>2022-06-14T08:22:36.000Z</time>
      </trkpt>
      <trkpt lat="45.37586" lon="2.3771">
        <ele>683.5</ele>
        <time>2022-06-14T08:22:37.000Z</time>
      </trkpt>
      <trkpt lat="45.37587" lon="2.3771">
        <ele>683.4</ele>
        <time>2022-06-14T08:22:38.000Z</time>
      </trkpt>
      <trkpt lat="45.37588" lon="2.3771">
        <ele>683.3</ele>
        <time>2022-06-14T08:22:39.000Z</time>
      </trkpt>
      <trkpt lat="45.37589" lon="2.3771">
        <ele>683.2</ele>
        <time>2022-06-14T08:22:40.000Z</time>
      </trkpt>
      <trkpt lat="45.3759" lon="2.3771">
        <ele>683</ele>
        <time>2022-06-14T08:22:41.000Z</time>
      </trkpt>
      <trkpt lat="45.37591" lon="2.3771">
        <ele>682.9</ele>
        <time>2022-06-14T08:22:42.000Z</time>
      </trkpt>
      <trkpt lat="45.37592" lon="2.3771">
        <ele>682.8</ele>
        <time>2022-06-14T08:22:43.000Z</time>
      </trkpt>
      <trkpt lat="45.37594" lon="2.3771">
        <ele>682.6</ele>
        <time>2022-06-14T08:22:44.000Z</time>
      </trkpt>
      <trkpt lat="45.37595" lon="2.3771">
        <ele>682.5</ele>
        <time>2022-06-14T08:22:45.000Z</time>
      </trkpt>
      <trkpt lat="45.37596" lon="2.3771">
        <ele>682.3</ele>
        <time>2022-06-14T08:22:46.000Z</time>
      </trkpt>
      <trkpt lat="45.37597" lon="2.3771">
        <ele>682.2</ele>
        <time>2022-06-14T08:22:47.000Z</time>
      </trkpt>
      <trkpt lat="45.37598" lon="2.3771">
        <ele>682</ele>
        <time>2022-06-14T08:22:48.000Z</time>
      </trkpt>
      <trkpt lat="45.37599" lon="2.3771">
        <ele>681.8</ele>
        <time>2022-06-14T08:22:49.000Z</time>
      </trkpt>
      <trkpt lat="45.37601" lon="2.37711">
        <ele>681.7</ele>
        <time>2022-06-14T08:22:50.000Z</time>
      </trkpt>
      <trkpt lat="45.37602" lon="2.37711">
        <ele>681.5</ele>
        <time>2022-06-14T08:22:51.000Z</time>
      </trkpt>
      <trkpt lat="45.37603" lon="2.37711">
        <ele>681.3</ele>
        <time>2022-06-14T08:22:52.000Z</time>
      </trkpt>
      <trkpt lat="45.37604" lon="2.37712">
        <ele>681.1</ele>
        <time>2022-06-14T08:22:53.000Z</time>
      </trkpt>
      <trkpt lat="45.37605" lon="2.37712">
        <ele>681</ele>
        <time>2022-06-14T08:22:54.000Z</time>
      </trkpt>
      <trkpt lat="45.37607" lon="2.37713">
        <ele>680.7</ele>
        <time>2022-06-14T08:22:55.000Z</time>
      </trkpt>
      <trkpt lat="45.37608" lon="2.37714">
        <ele>680.5</ele>
        <time>2022-06-14T08:22:56.000Z</time>
      </trkpt>
      <trkpt lat="45.37609" lon="2.37715">
        <ele>680.3</ele>
        <time>2022-06-14T08:22:57.000Z</time>
      </trkpt>
      <trkpt lat="45.3761" lon="2.37716">
        <ele>680.1</ele>
        <time>2022-06-14T08:22:58.000Z</time>
      </trkpt>
      <trkpt lat="45.37611" lon="2.37716">
        <ele>679.9</ele>
        <time>2022-06-14T08:22:59.000Z</time>
      </trkpt>
      <trkpt lat="45.37612" lon="2.37717">
        <ele>679.8</ele>
        <time>2022-06-14T08:23:00.000Z</time>
      </trkpt>
      <trkpt lat="45.37613" lon="2.37718">
        <ele>679.6</ele>
        <time>2022-06-14T08:23:01.000Z</time>
      </trkpt>
      <trkpt lat="45.37614" lon="2.37718">
        <ele>679.5</ele>
        <time>2022-06-14T08:23:02.000Z</time>
      </trkpt>
      <trkpt lat="45.37614" lon="2.37719">
        <ele>679.4</ele>
        <time>2022-06-14T08:23:04.000Z</time>
      </trkpt>
      <trkpt lat="45.37615" lon="2.37719">
        <ele>679.4</ele>
        <time>2022-06-14T08:23:06.000Z</time>
      </trkpt>
      <trkpt lat="45.37615" lon="2.37719">
        <ele>679.3</ele>
        <time>2022-06-14T08:30:23.000Z</time>
      </trkpt>
      <trkpt lat="45.37616" lon="2.37719">
        <ele>679.2</ele>
        <time>2022-06-14T08:30:31.000Z</time>
      </trkpt>
      <trkpt lat="45.37616" lon="2.37719">
        <ele>679.2</ele>
        <time>2022-06-14T08:30:34.000Z</time>
      </trkpt>
      <trkpt lat="45.37617" lon="2.37719">
        <ele>679</ele>
        <time>2022-06-14T08:30:36.000Z</time>
      </trkpt>
      <trkpt lat="45.37618" lon="2.37719">
        <ele>679</ele>
        <time>2022-06-14T08:30:37.000Z</time>
      </trkpt>
      <trkpt lat="45.37619" lon="2.37719">
        <ele>678.9</ele>
        <time>2022-06-14T08:30:40.000Z</time>
      </trkpt>
      <trkpt lat="45.37619" lon="2.37719">
        <ele>678.8</ele>
        <time>2022-06-14T08:31:09.000Z</time>
      </trkpt>
      <trkpt lat="45.3762" lon="2.37719">
        <ele>678.7</ele>
        <time>2022-06-14T08:31:14.000Z</time>
      </trkpt>
      <trkpt lat="45.3762" lon="2.37719">
        <ele>678.6</ele>
        <time>2022-06-14T08:31:18.000Z</time>
      </trkpt>
      <trkpt lat="45.37621" lon="2.37719">
        <ele>678.5</ele>
        <time>2022-06-14T08:31:19.000Z</time>
      </trkpt>
      <trkpt lat="45.37622" lon="2.37719">
        <ele>678.4</ele>
        <time>2022-06-14T08:31:20.000Z</time>
      </trkpt>
      <trkpt lat="45.37623" lon="2.37719">
        <ele>678.4</ele>
        <time>2022-06-14T08:31:21.000Z</time>
      </trkpt>
      <trkpt lat="45.37624" lon="2.37719">
        <ele>678.2</ele>
        <time>2022-06-14T08:31:24.000Z</time>
      </trkpt>
      <trkpt lat="45.37624" lon="2.37719">
        <ele>678.1</ele>
        <time>2022-06-14T08:31:31.000Z</time>
      </trkpt>
      <trkpt lat="45.37624" lon="2.3772">
        <ele>678.1</ele>
        <time>2022-06-14T08:31:35.000Z</time>
      </trkpt>
      <trkpt lat="45.37624" lon="2.37719">
        <ele>678.1</ele>
        <time>2022-06-14T08:31:40.000Z</time>
      </trkpt>
      <trkpt lat="45.37624" lon="2.37719">
        <ele>678.2</ele>
        <time>2022-06-14T08:31:59.000Z</time>
      </trkpt>
      <trkpt lat="45.37624" lon="2.37718">
        <ele>678.2</ele>
        <time>2022-06-14T08:32:02.000Z</time>
      </trkpt>
      <trkpt lat="45.37625" lon="2.37717">
        <ele>678.2</ele>
        <time>2022-06-14T08:32:03.000Z</time>
      </trkpt>
      <trkpt lat="45.37626" lon="2.37716">
        <ele>678.2</ele>
        <time>2022-06-14T08:32:04.000Z</time>
      </trkpt>
      <trkpt lat="45.37627" lon="2.37715">
        <ele>678.1</ele>
        <time>2022-06-14T08:32:05.000Z</time>
      </trkpt>
      <trkpt lat="45.37628" lon="2.37715">
        <ele>678</ele>
        <time>2022-06-14T08:32:06.000Z</time>
      </trkpt>
      <trkpt lat="45.37628" lon="2.37714">
        <ele>678</ele>
        <time>2022-06-14T08:32:07.000Z</time>
      </trkpt>
      <trkpt lat="45.37629" lon="2.37712">
        <ele>678</ele>
        <time>2022-06-14T08:32:08.000Z</time>
      </trkpt>
      <trkpt lat="45.3763" lon="2.37711">
        <ele>678</ele>
        <time>2022-06-14T08:32:09.000Z</time>
      </trkpt>
      <trkpt lat="45.37631" lon="2.3771">
        <ele>678</ele>
        <time>2022-06-14T08:32:10.000Z</time>
      </trkpt>
      <trkpt lat="45.37631" lon="2.37708">
        <ele>678</ele>
        <time>2022-06-14T08:32:11.000Z</time>
      </trkpt>
      <trkpt lat="45.37632" lon="2.37707">
        <ele>678</ele>
        <time>2022-06-14T08:32:12.000Z</time>
      </trkpt>
      <trkpt lat="45.37632" lon="2.37706">
        <ele>678</ele>
        <time>2022-06-14T08:32:13.000Z</time>
      </trkpt>
      <trkpt lat="45.37632" lon="2.37705">
        <ele>678</ele>
        <time>2022-06-14T08:32:14.000Z</time>
      </trkpt>
      <trkpt lat="45.37633" lon="2.37705">
        <ele>678</ele>
        <time>2022-06-14T08:32:15.000Z</time>
      </trkpt>
      <trkpt lat="45.37633" lon="2.37704">
        <ele>678</ele>
        <time>2022-06-14T08:32:16.000Z</time>
      </trkpt>
      <trkpt lat="45.37633" lon="2.37703">
        <ele>678.1</ele>
        <time>2022-06-14T08:32:24.000Z</time>
      </trkpt>
      <trkpt lat="45.37633" lon="2.37702">
        <ele>678.1</ele>
        <time>2022-06-14T08:32:27.000Z</time>
      </trkpt>
      <trkpt lat="45.37633" lon="2.37701">
        <ele>678.1</ele>
        <time>2022-06-14T08:32:31.000Z</time>
      </trkpt>
      <trkpt lat="45.37634" lon="2.37701">
        <ele>678.1</ele>
        <time>2022-06-14T08:32:32.000Z</time>
      </trkpt>
      <trkpt lat="45.37633" lon="2.37701">
        <ele>678.1</ele>
        <time>2022-06-14T08:32:35.000Z</time>
      </trkpt>
      <trkpt lat="45.37633" lon="2.37702">
        <ele>678.1</ele>
        <time>2022-06-14T08:32:37.000Z</time>
      </trkpt>
      <trkpt lat="45.37633" lon="2.37701">
        <ele>678.2</ele>
        <time>2022-06-14T08:32:44.000Z</time>
      </trkpt>
      <trkpt lat="45.37634" lon="2.37701">
        <ele>678.1</ele>
        <time>2022-06-14T08:32:45.000Z</time>
      </trkpt>
      <trkpt lat="45.37634" lon="2.377">
        <ele>678.1</ele>
        <time>2022-06-14T08:32:46.000Z</time>
      </trkpt>
      <trkpt lat="45.37635" lon="2.37699">
        <ele>678.2</ele>
        <time>2022-06-14T08:32:48.000Z</time>
      </trkpt>
      <trkpt lat="45.37635" lon="2.37698">
        <ele>678.2</ele>
        <time>2022-06-14T08:32:49.000Z</time>
      </trkpt>
      <trkpt lat="45.37635" lon="2.37697">
        <ele>678.3</ele>
        <time>2022-06-14T08:32:50.000Z</time>
      </trkpt>
      <trkpt lat="45.37635" lon="2.37695">
        <ele>678.4</ele>
        <time>2022-06-14T08:32:51.000Z</time>
      </trkpt>
      <trkpt lat="45.37635" lon="2.37694">
        <ele>678.5</ele>
        <time>2022-06-14T08:32:52.000Z</time>
      </trkpt>
      <trkpt lat="45.37634" lon="2.37693">
        <ele>678.6</ele>
        <time>2022-06-14T08:32:53.000Z</time>
      </trkpt>
      <trkpt lat="45.37634" lon="2.37691">
        <ele>678.8</ele>
        <time>2022-06-14T08:32:54.000Z</time>
      </trkpt>
      <trkpt lat="45.37634" lon="2.37689">
        <ele>678.9</ele>
        <time>2022-06-14T08:32:55.000Z</time>
      </trkpt>
      <trkpt lat="45.37633" lon="2.37688">
        <ele>679</ele>
        <time>2022-06-14T08:32:56.000Z</time>
      </trkpt>
      <trkpt lat="45.37633" lon="2.37686">
        <ele>679.2</ele>
        <time>2022-06-14T08:32:57.000Z</time>
      </trkpt>
      <trkpt lat="45.37633" lon="2.37684">
        <ele>679.4</ele>
        <time>2022-06-14T08:32:58.000Z</time>
      </trkpt>
      <trkpt lat="45.37632" lon="2.37683">
        <ele>679.5</ele>
        <time>2022-06-14T08:32:59.000Z</time>
      </trkpt>
      <trkpt lat="45.37632" lon="2.37681">
        <ele>679.7</ele>
        <time>2022-06-14T08:33:00.000Z</time>
      </trkpt>
      <trkpt lat="45.37632" lon="2.37679">
        <ele>679.8</ele>
        <time>2022-06-14T08:33:01.000Z</time>
      </trkpt>
      <trkpt lat="45.37631" lon="2.37677">
        <ele>680</ele>
        <time>2022-06-14T08:33:02.000Z</time>
      </trkpt>
      <trkpt lat="45.37631" lon="2.37676">
        <ele>680.1</ele>
        <time>2022-06-14T08:33:03.000Z</time>
      </trkpt>
      <trkpt lat="45.37631" lon="2.37674">
        <ele>680.2</ele>
        <time>2022-06-14T08:33:04.000Z</time>
      </trkpt>
      <trkpt lat="45.37631" lon="2.37672">
        <ele>680.3</ele>
        <time>2022-06-14T08:33:05.000Z</time>
      </trkpt>
      <trkpt lat="45.37631" lon="2.37671">
        <ele>680.4</ele>
        <time>2022-06-14T08:33:06.000Z</time>
      </trkpt>
      <trkpt lat="45.37632" lon="2.37669">
        <ele>680.5</ele>
        <time>2022-06-14T08:33:07.000Z</time>
      </trkpt>
      <trkpt lat="45.37632" lon="2.37668">
        <ele>680.5</ele>
        <time>2022-06-14T08:33:08.000Z</time>
      </trkpt>
      <trkpt lat="45.37632" lon="2.37666">
        <ele>680.6</ele>
        <time>2022-06-14T08:33:09.000Z</time>
      </trkpt>
      <trkpt lat="45.37632" lon="2.37665">
        <ele>680.4</ele>
        <time>2022-06-14T08:33:10.000Z</time>
      </trkpt>
      <trkpt lat="45.37633" lon="2.37663">
        <ele>680.3</ele>
        <time>2022-06-14T08:33:11.000Z</time>
      </trkpt>
      <trkpt lat="45.37633" lon="2.37662">
        <ele>680.1</ele>
        <time>2022-06-14T08:33:12.000Z</time>
      </trkpt>
      <trkpt lat="45.37634" lon="2.37661">
        <ele>680</ele>
        <time>2022-06-14T08:33:13.000Z</time>
      </trkpt>
      <trkpt lat="45.37634" lon="2.37659">
        <ele>679.8</ele>
        <time>2022-06-14T08:33:14.000Z</time>
      </trkpt>
      <trkpt lat="45.37635" lon="2.37658">
        <ele>679.7</ele>
        <time>2022-06-14T08:33:15.000Z</time>
      </trkpt>
      <trkpt lat="45.37635" lon="2.37657">
        <ele>679.5</ele>
        <time>2022-06-14T08:33:16.000Z</time>
      </trkpt>
      <trkpt lat="45.37636" lon="2.37656">
        <ele>679.4</ele>
        <time>2022-06-14T08:33:17.000Z</time>
      </trkpt>
      <trkpt lat="45.37636" lon="2.37654">
        <ele>679.2</ele>
        <time>2022-06-14T08:33:18.000Z</time>
      </trkpt>
      <trkpt lat="45.37637" lon="2.37653">
        <ele>679.1</ele>
        <time>2022-06-14T08:33:19.000Z</time>
      </trkpt>
      <trkpt lat="45.37637" lon="2.37652">
        <ele>678.9</ele>
        <time>2022-06-14T08:33:20.000Z</time>
      </trkpt>
      <trkpt lat="45.37638" lon="2.37651">
        <ele>678.8</ele>
        <time>2022-06-14T08:33:21.000Z</time>
      </trkpt>
      <trkpt lat="45.37639" lon="2.3765">
        <ele>678.6</ele>
        <time>2022-06-14T08:33:22.000Z</time>
      </trkpt>
      <trkpt lat="45.37639" lon="2.37649">
        <ele>678.5</ele>
        <time>2022-06-14T08:33:23.000Z</time>
      </trkpt>
      <trkpt lat="45.37639" lon="2.37648">
        <ele>678.4</ele>
        <time>2022-06-14T08:33:24.000Z</time>
      </trkpt>
      <trkpt lat="45.3764" lon="2.37647">
        <ele>678.3</ele>
        <time>2022-06-14T08:33:25.000Z</time>
      </trkpt>
      <trkpt lat="45.3764" lon="2.37645">
        <ele>678.1</ele>
        <time>2022-06-14T08:33:26.000Z</time>
      </trkpt>
      <trkpt lat="45.37641" lon="2.37644">
        <ele>678</ele>
        <time>2022-06-14T08:33:27.000Z</time>
      </trkpt>
      <trkpt lat="45.37641" lon="2.37643">
        <ele>677.9</ele>
        <time>2022-06-14T08:33:28.000Z</time>
      </trkpt>
      <trkpt lat="45.37641" lon="2.37642">
        <ele>677.8</ele>
        <time>2022-06-14T08:33:29.000Z</time>
      </trkpt>
      <trkpt lat="45.37642" lon="2.37641">
        <ele>677.6</ele>
        <time>2022-06-14T08:33:30.000Z</time>
      </trkpt>
      <trkpt lat="45.37642" lon="2.3764">
        <ele>677.5</ele>
        <time>2022-06-14T08:33:31.000Z</time>
      </trkpt>
      <trkpt lat="45.37643" lon="2.37638">
        <ele>677.4</ele>
        <time>2022-06-14T08:33:32.000Z</time>
      </trkpt>
      <trkpt lat="45.37643" lon="2.37637">
        <ele>677.2</ele>
        <time>2022-06-14T08:33:33.000Z</time>
      </trkpt>
      <trkpt lat="45.37644" lon="2.37636">
        <ele>677.1</ele>
        <time>2022-06-14T08:33:34.000Z</time>
      </trkpt>
      <trkpt lat="45.37644" lon="2.37635">
        <ele>677</ele>
        <time>2022-06-14T08:33:35.000Z</time>
      </trkpt>
      <trkpt lat="45.37645" lon="2.37634">
        <ele>676.8</ele>
        <time>2022-06-14T08:33:36.000Z</time>
      </trkpt>
      <trkpt lat="45.37645" lon="2.37633">
        <ele>676.7</ele>
        <time>2022-06-14T08:33:37.000Z</time>
      </trkpt>
      <trkpt lat="45.37646" lon="2.37633">
        <ele>676.6</ele>
        <time>2022-06-14T08:33:38.000Z</time>
      </trkpt>
      <trkpt lat="45.37647" lon="2.37632">
        <ele>676.4</ele>
        <time>2022-06-14T08:33:39.000Z</time>
      </trkpt>
      <trkpt lat="45.37648" lon="2.37632">
        <ele>676.3</ele>
        <time>2022-06-14T08:33:40.000Z</time>
      </trkpt>
      <trkpt lat="45.37649" lon="2.37631">
        <ele>676.2</ele>
        <time>2022-06-14T08:33:41.000Z</time>
      </trkpt>
      <trkpt lat="45.3765" lon="2.37631">
        <ele>676</ele>
        <time>2022-06-14T08:33:42.000Z</time>
      </trkpt>
      <trkpt lat="45.37651" lon="2.3763">
        <ele>675.9</ele>
        <time>2022-06-14T08:33:43.000Z</time>
      </trkpt>
      <trkpt lat="45.37652" lon="2.3763">
        <ele>675.7</ele>
        <time>2022-06-14T08:33:44.000Z</time>
      </trkpt>
      <trkpt lat="45.37653" lon="2.37629">
        <ele>675.5</ele>
        <time>2022-06-14T08:33:45.000Z</time>
      </trkpt>
      <trkpt lat="45.37654" lon="2.37628">
        <ele>675.4</ele>
        <time>2022-06-14T08:33:46.000Z</time>
      </trkpt>
      <trkpt lat="45.37655" lon="2.37627">
        <ele>675</ele>
        <time>2022-06-14T08:33:48.000Z</time>
      </trkpt>
      <trkpt lat="45.37656" lon="2.37626">
        <ele>674.9</ele>
        <time>2022-06-14T08:33:49.000Z</time>
      </trkpt>
      <trkpt lat="45.37657" lon="2.37625">
        <ele>674.7</ele>
        <time>2022-06-14T08:33:50.000Z</time>
      </trkpt>
      <trkpt lat="45.37658" lon="2.37624">
        <ele>674.5</ele>
        <time>2022-06-14T08:33:51.000Z</time>
      </trkpt>
      <trkpt lat="45.37659" lon="2.37623">
        <ele>674.4</ele>
        <time>2022-06-14T08:33:52.000Z</time>
      </trkpt>
      <trkpt lat="45.37659" lon="2.37622">
        <ele>674.2</ele>
        <time>2022-06-14T08:33:53.000Z</time>
      </trkpt>
      <trkpt lat="45.3766" lon="2.37621">
        <ele>674.1</ele>
        <time>2022-06-14T08:33:54.000Z</time>
      </trkpt>
      <trkpt lat="45.3766" lon="2.37619">
        <ele>673.9</ele>
        <time>2022-06-14T08:33:55.000Z</time>
      </trkpt>
      <trkpt lat="45.37661" lon="2.37618">
        <ele>673.8</ele>
        <time>2022-06-14T08:33:56.000Z</time>
      </trkpt>
      <trkpt lat="45.37661" lon="2.37616">
        <ele>673.7</ele>
        <time>2022-06-14T08:33:57.000Z</time>
      </trkpt>
      <trkpt lat="45.37661" lon="2.37614">
        <ele>673.5</ele>
        <time>2022-06-14T08:33:58.000Z</time>
      </trkpt>
      <trkpt lat="45.37661" lon="2.37613">
        <ele>673.4</ele>
        <time>2022-06-14T08:33:59.000Z</time>
      </trkpt>
      <trkpt lat="45.37661" lon="2.37611">
        <ele>673.3</ele>
        <time>2022-06-14T08:34:00.000Z</time>
      </trkpt>
      <trkpt lat="45.37661" lon="2.37609">
        <ele>673.2</ele>
        <time>2022-06-14T08:34:01.000Z</time>
      </trkpt>
      <trkpt lat="45.37661" lon="2.37607">
        <ele>673.1</ele>
        <time>2022-06-14T08:34:02.000Z</time>
      </trkpt>
      <trkpt lat="45.37661" lon="2.37605">
        <ele>673</ele>
        <time>2022-06-14T08:34:03.000Z</time>
      </trkpt>
      <trkpt lat="45.37661" lon="2.37603">
        <ele>672.9</ele>
        <time>2022-06-14T08:34:04.000Z</time>
      </trkpt>
      <trkpt lat="45.37661" lon="2.37601">
        <ele>672.8</ele>
        <time>2022-06-14T08:34:05.000Z</time>
      </trkpt>
      <trkpt lat="45.37661" lon="2.37599">
        <ele>672.7</ele>
        <time>2022-06-14T08:34:06.000Z</time>
      </trkpt>
      <trkpt lat="45.37661" lon="2.37597">
        <ele>672.5</ele>
        <time>2022-06-14T08:34:07.000Z</time>
      </trkpt>
      <trkpt lat="45.37661" lon="2.37595">
        <ele>672.4</ele>
        <time>2022-06-14T08:34:08.000Z</time>
      </trkpt>
      <trkpt lat="45.3766" lon="2.37593">
        <ele>672.3</ele>
        <time>2022-06-14T08:34:09.000Z</time>
      </trkpt>
      <trkpt lat="45.3766" lon="2.37591">
        <ele>672.2</ele>
        <time>2022-06-14T08:34:10.000Z</time>
      </trkpt>
      <trkpt lat="45.3766" lon="2.37589">
        <ele>672.1</ele>
        <time>2022-06-14T08:34:11.000Z</time>
      </trkpt>
      <trkpt lat="45.3766" lon="2.37587">
        <ele>672</ele>
        <time>2022-06-14T08:34:12.000Z</time>
      </trkpt>
      <trkpt lat="45.3766" lon="2.37585">
        <ele>671.8</ele>
        <time>2022-06-14T08:34:13.000Z</time>
      </trkpt>
      <trkpt lat="45.37661" lon="2.37583">
        <ele>671.6</ele>
        <time>2022-06-14T08:34:14.000Z</time>
      </trkpt>
      <trkpt lat="45.37661" lon="2.37581">
        <ele>671.4</ele>
        <time>2022-06-14T08:34:15.000Z</time>
      </trkpt>
      <trkpt lat="45.37661" lon="2.37579">
        <ele>671.1</ele>
        <time>2022-06-14T08:34:16.000Z</time>
      </trkpt>
      <trkpt lat="45.37662" lon="2.37577">
        <ele>670.9</ele>
        <time>2022-06-14T08:34:17.000Z</time>
      </trkpt>
      <trkpt lat="45.37662" lon="2.37575">
        <ele>670.7</ele>
        <time>2022-06-14T08:34:18.000Z</time>
      </trkpt>
      <trkpt lat="45.37662" lon="2.37573">
        <ele>670.4</ele>
        <time>2022-06-14T08:34:19.000Z</time>
      </trkpt>
      <trkpt lat="45.37663" lon="2.37571">
        <ele>670.2</ele>
        <time>2022-06-14T08:34:20.000Z</time>
      </trkpt>
      <trkpt lat="45.37663" lon="2.3757">
        <ele>670</ele>
        <time>2022-06-14T08:34:21.000Z</time>
      </trkpt>
      <trkpt lat="45.37663" lon="2.37568">
        <ele>669.7</ele>
        <time>2022-06-14T08:34:22.000Z</time>
      </trkpt>
      <trkpt lat="45.37663" lon="2.37566">
        <ele>669.5</ele>
        <time>2022-06-14T08:34:23.000Z</time>
      </trkpt>
      <trkpt lat="45.37663" lon="2.37564">
        <ele>669.3</ele>
        <time>2022-06-14T08:34:24.000Z</time>
      </trkpt>
      <trkpt lat="45.37663" lon="2.37562">
        <ele>669.1</ele>
        <time>2022-06-14T08:34:25.000Z</time>
      </trkpt>
      <trkpt lat="45.37663" lon="2.3756">
        <ele>668.9</ele>
        <time>2022-06-14T08:34:26.000Z</time>
      </trkpt>
      <trkpt lat="45.37663" lon="2.37558">
        <ele>668.7</ele>
        <time>2022-06-14T08:34:27.000Z</time>
      </trkpt>
      <trkpt lat="45.37663" lon="2.37556">
        <ele>668.5</ele>
        <time>2022-06-14T08:34:28.000Z</time>
      </trkpt>
      <trkpt lat="45.37663" lon="2.37554">
        <ele>668.3</ele>
        <time>2022-06-14T08:34:29.000Z</time>
      </trkpt>
      <trkpt lat="45.37662" lon="2.37552">
        <ele>668.1</ele>
        <time>2022-06-14T08:34:30.000Z</time>
      </trkpt>
      <trkpt lat="45.37662" lon="2.3755">
        <ele>667.9</ele>
        <time>2022-06-14T08:34:31.000Z</time>
      </trkpt>
      <trkpt lat="45.37662" lon="2.37548">
        <ele>667.7</ele>
        <time>2022-06-14T08:34:32.000Z</time>
      </trkpt>
      <trkpt lat="45.37662" lon="2.37546">
        <ele>667.5</ele>
        <time>2022-06-14T08:34:33.000Z</time>
      </trkpt>
      <trkpt lat="45.37661" lon="2.37544">
        <ele>667.3</ele>
        <time>2022-06-14T08:34:34.000Z</time>
      </trkpt>
      <trkpt lat="45.37661" lon="2.37542">
        <ele>667.1</ele>
        <time>2022-06-14T08:34:35.000Z</time>
      </trkpt>
      <trkpt lat="45.37661" lon="2.37541">
        <ele>667</ele>
        <time>2022-06-14T08:34:36.000Z</time>
      </trkpt>
      <trkpt lat="45.3766" lon="2.37539">
        <ele>666.8</ele>
        <time>2022-06-14T08:34:37.000Z</time>
      </trkpt>
      <trkpt lat="45.3766" lon="2.37537">
        <ele>666.6</ele>
        <time>2022-06-14T08:34:38.000Z</time>
      </trkpt>
      <trkpt lat="45.3766" lon="2.37535">
        <ele>666.5</ele>
        <time>2022-06-14T08:34:39.000Z</time>
      </trkpt>
      <trkpt lat="45.37659" lon="2.37533">
        <ele>666.3</ele>
        <time>2022-06-14T08:34:40.000Z</time>
      </trkpt>
      <trkpt lat="45.37659" lon="2.37531">
        <ele>666.1</ele>
        <time>2022-06-14T08:34:41.000Z</time>
      </trkpt>
      <trkpt lat="45.37659" lon="2.37529">
        <ele>666</ele>
        <time>2022-06-14T08:34:42.000Z</time>
      </trkpt>
      <trkpt lat="45.37658" lon="2.37528">
        <ele>665.8</ele>
        <time>2022-06-14T08:34:43.000Z</time>
      </trkpt>
      <trkpt lat="45.37658" lon="2.37526">
        <ele>665.6</ele>
        <time>2022-06-14T08:34:44.000Z</time>
      </trkpt>
      <trkpt lat="45.37658" lon="2.37524">
        <ele>665.5</ele>
        <time>2022-06-14T08:34:45.000Z</time>
      </trkpt>
      <trkpt lat="45.37657" lon="2.37523">
        <ele>665.3</ele>
        <time>2022-06-14T08:34:46.000Z</time>
      </trkpt>
      <trkpt lat="45.37657" lon="2.37521">
        <ele>665.2</ele>
        <time>2022-06-14T08:34:47.000Z</time>
      </trkpt>
      <trkpt lat="45.37657" lon="2.37519">
        <ele>665</ele>
        <time>2022-06-14T08:34:48.000Z</time>
      </trkpt>
      <trkpt lat="45.37656" lon="2.37518">
        <ele>664.9</ele>
        <time>2022-06-14T08:34:49.000Z</time>
      </trkpt>
      <trkpt lat="45.37656" lon="2.37516">
        <ele>664.7</ele>
        <time>2022-06-14T08:34:50.000Z</time>
      </trkpt>
      <trkpt lat="45.37656" lon="2.37514">
        <ele>664.5</ele>
        <time>2022-06-14T08:34:51.000Z</time>
      </trkpt>
      <trkpt lat="45.37656" lon="2.37513">
        <ele>664.4</ele>
        <time>2022-06-14T08:34:52.000Z</time>
      </trkpt>
      <trkpt lat="45.37656" lon="2.37511">
        <ele>664.2</ele>
        <time>2022-06-14T08:34:53.000Z</time>
      </trkpt>
      <trkpt lat="45.37656" lon="2.3751">
        <ele>664</ele>
        <time>2022-06-14T08:34:54.000Z</time>
      </trkpt>
      <trkpt lat="45.37656" lon="2.37508">
        <ele>663.8</ele>
        <time>2022-06-14T08:34:55.000Z</time>
      </trkpt>
      <trkpt lat="45.37656" lon="2.37506">
        <ele>663.6</ele>
        <time>2022-06-14T08:34:56.000Z</time>
      </trkpt>
      <trkpt lat="45.37656" lon="2.37505">
        <ele>663.4</ele>
        <time>2022-06-14T08:34:57.000Z</time>
      </trkpt>
      <trkpt lat="45.37656" lon="2.37503">
        <ele>663.2</ele>
        <time>2022-06-14T08:34:58.000Z</time>
      </trkpt>
      <trkpt lat="45.37657" lon="2.37501">
        <ele>663</ele>
        <time>2022-06-14T08:34:59.000Z</time>
      </trkpt>
      <trkpt lat="45.37657" lon="2.375">
        <ele>662.8</ele>
        <time>2022-06-14T08:35:00.000Z</time>
      </trkpt>
      <trkpt lat="45.37657" lon="2.37498">
        <ele>662.6</ele>
        <time>2022-06-14T08:35:01.000Z</time>
      </trkpt>
      <trkpt lat="45.37657" lon="2.37496">
        <ele>662.3</ele>
        <time>2022-06-14T08:35:02.000Z</time>
      </trkpt>
      <trkpt lat="45.37658" lon="2.37494">
        <ele>662.1</ele>
        <time>2022-06-14T08:35:03.000Z</time>
      </trkpt>
      <trkpt lat="45.37658" lon="2.37493">
        <ele>661.9</ele>
        <time>2022-06-14T08:35:04.000Z</time>
      </trkpt>
      <trkpt lat="45.37658" lon="2.37491">
        <ele>661.7</ele>
        <time>2022-06-14T08:35:05.000Z</time>
      </trkpt>
      <trkpt lat="45.37658" lon="2.37489">
        <ele>661.5</ele>
        <time>2022-06-14T08:35:06.000Z</time>
      </trkpt>
      <trkpt lat="45.37657" lon="2.37487">
        <ele>661.4</ele>
        <time>2022-06-14T08:35:07.000Z</time>
      </trkpt>
      <trkpt lat="45.37657" lon="2.37486">
        <ele>661.2</ele>
        <time>2022-06-14T08:35:08.000Z</time>
      </trkpt>
      <trkpt lat="45.37657" lon="2.37484">
        <ele>661</ele>
        <time>2022-06-14T08:35:09.000Z</time>
      </trkpt>
      <trkpt lat="45.37657" lon="2.37482">
        <ele>660.8</ele>
        <time>2022-06-14T08:35:10.000Z</time>
      </trkpt>
      <trkpt lat="45.37657" lon="2.37481">
        <ele>660.6</ele>
        <time>2022-06-14T08:35:11.000Z</time>
      </trkpt>
      <trkpt lat="45.37657" lon="2.37479">
        <ele>660.4</ele>
        <time>2022-06-14T08:35:12.000Z</time>
      </trkpt>
      <trkpt lat="45.37657" lon="2.37477">
        <ele>660.2</ele>
        <time>2022-06-14T08:35:13.000Z</time>
      </trkpt>
      <trkpt lat="45.37657" lon="2.37476">
        <ele>660</ele>
        <time>2022-06-14T08:35:14.000Z</time>
      </trkpt>
      <trkpt lat="45.37658" lon="2.37474">
        <ele>659.9</ele>
        <time>2022-06-14T08:35:15.000Z</time>
      </trkpt>
      <trkpt lat="45.37658" lon="2.37473">
        <ele>659.7</ele>
        <time>2022-06-14T08:35:16.000Z</time>
      </trkpt>
      <trkpt lat="45.37658" lon="2.37471">
        <ele>659.5</ele>
        <time>2022-06-14T08:35:17.000Z</time>
      </trkpt>
      <trkpt lat="45.37658" lon="2.3747">
        <ele>659.3</ele>
        <time>2022-06-14T08:35:18.000Z</time>
      </trkpt>
      <trkpt lat="45.37658" lon="2.37468">
        <ele>659.1</ele>
        <time>2022-06-14T08:35:19.000Z</time>
      </trkpt>
      <trkpt lat="45.37659" lon="2.37466">
        <ele>658.9</ele>
        <time>2022-06-14T08:35:20.000Z</time>
      </trkpt>
      <trkpt lat="45.37659" lon="2.37465">
        <ele>658.7</ele>
        <time>2022-06-14T08:35:21.000Z</time>
      </trkpt>
      <trkpt lat="45.37659" lon="2.37463">
        <ele>658.5</ele>
        <time>2022-06-14T08:35:22.000Z</time>
      </trkpt>
      <trkpt lat="45.37659" lon="2.37461">
        <ele>658.2</ele>
        <time>2022-06-14T08:35:23.000Z</time>
      </trkpt>
      <trkpt lat="45.3766" lon="2.37459">
        <ele>658</ele>
        <time>2022-06-14T08:35:24.000Z</time>
      </trkpt>
      <trkpt lat="45.3766" lon="2.37457">
        <ele>657.8</ele>
        <time>2022-06-14T08:35:25.000Z</time>
      </trkpt>
      <trkpt lat="45.3766" lon="2.37456">
        <ele>657.6</ele>
        <time>2022-06-14T08:35:26.000Z</time>
      </trkpt>
      <trkpt lat="45.3766" lon="2.37454">
        <ele>657.4</ele>
        <time>2022-06-14T08:35:27.000Z</time>
      </trkpt>
      <trkpt lat="45.3766" lon="2.37452">
        <ele>657.1</ele>
        <time>2022-06-14T08:35:28.000Z</time>
      </trkpt>
      <trkpt lat="45.37661" lon="2.3745">
        <ele>656.9</ele>
        <time>2022-06-14T08:35:29.000Z</time>
      </trkpt>
      <trkpt lat="45.37661" lon="2.37448">
        <ele>656.7</ele>
        <time>2022-06-14T08:35:30.000Z</time>
      </trkpt>
      <trkpt lat="45.37661" lon="2.37447">
        <ele>656.5</ele>
        <time>2022-06-14T08:35:31.000Z</time>
      </trkpt>
      <trkpt lat="45.37662" lon="2.37445">
        <ele>656.3</ele>
        <time>2022-06-14T08:35:32.000Z</time>
      </trkpt>
      <trkpt lat="45.37662" lon="2.37444">
        <ele>656.1</ele>
        <time>2022-06-14T08:35:33.000Z</time>
      </trkpt>
      <trkpt lat="45.37662" lon="2.37442">
        <ele>656</ele>
        <time>2022-06-14T08:35:34.000Z</time>
      </trkpt>
      <trkpt lat="45.37663" lon="2.37441">
        <ele>655.8</ele>
        <time>2022-06-14T08:35:35.000Z</time>
      </trkpt>
      <trkpt lat="45.37663" lon="2.3744">
        <ele>655.7</ele>
        <time>2022-06-14T08:35:36.000Z</time>
      </trkpt>
      <trkpt lat="45.37664" lon="2.37438">
        <ele>655.5</ele>
        <time>2022-06-14T08:35:37.000Z</time>
      </trkpt>
      <trkpt lat="45.37664" lon="2.37437">
        <ele>655.4</ele>
        <time>2022-06-14T08:35:38.000Z</time>
      </trkpt>
      <trkpt lat="45.37664" lon="2.37436">
        <ele>655.2</ele>
        <time>2022-06-14T08:35:39.000Z</time>
      </trkpt>
      <trkpt lat="45.37665" lon="2.37435">
        <ele>655</ele>
        <time>2022-06-14T08:35:40.000Z</time>
      </trkpt>
      <trkpt lat="45.37665" lon="2.37433">
        <ele>654.9</ele>
        <time>2022-06-14T08:35:41.000Z</time>
      </trkpt>
      <trkpt lat="45.37665" lon="2.37432">
        <ele>654.7</ele>
        <time>2022-06-14T08:35:42.000Z</time>
      </trkpt>
      <trkpt lat="45.37666" lon="2.3743">
        <ele>654.5</ele>
        <time>2022-06-14T08:35:43.000Z</time>
      </trkpt>
      <trkpt lat="45.37666" lon="2.37428">
        <ele>654.3</ele>
        <time>2022-06-14T08:35:44.000Z</time>
      </trkpt>
      <trkpt lat="45.37666" lon="2.37426">
        <ele>654.1</ele>
        <time>2022-06-14T08:35:45.000Z</time>
      </trkpt>
      <trkpt lat="45.37666" lon="2.37425">
        <ele>653.9</ele>
        <time>2022-06-14T08:35:46.000Z</time>
      </trkpt>
      <trkpt lat="45.37665" lon="2.37423">
        <ele>653.7</ele>
        <time>2022-06-14T08:35:47.000Z</time>
      </trkpt>
      <trkpt lat="45.37665" lon="2.37421">
        <ele>653.5</ele>
        <time>2022-06-14T08:35:48.000Z</time>
      </trkpt>
      <trkpt lat="45.37665" lon="2.3742">
        <ele>653.4</ele>
        <time>2022-06-14T08:35:49.000Z</time>
      </trkpt>
      <trkpt lat="45.37664" lon="2.37418">
        <ele>653.3</ele>
        <time>2022-06-14T08:35:50.000Z</time>
      </trkpt>
      <trkpt lat="45.37664" lon="2.37417">
        <ele>653.1</ele>
        <time>2022-06-14T08:35:51.000Z</time>
      </trkpt>
      <trkpt lat="45.37664" lon="2.37416">
        <ele>653</ele>
        <time>2022-06-14T08:35:52.000Z</time>
      </trkpt>
      <trkpt lat="45.37663" lon="2.37414">
        <ele>652.9</ele>
        <time>2022-06-14T08:35:53.000Z</time>
      </trkpt>
      <trkpt lat="45.37663" lon="2.37413">
        <ele>652.8</ele>
        <time>2022-06-14T08:35:54.000Z</time>
      </trkpt>
      <trkpt lat="45.37663" lon="2.37412">
        <ele>652.7</ele>
        <time>2022-06-14T08:35:55.000Z</time>
      </trkpt>
      <trkpt lat="45.37662" lon="2.37411">
        <ele>652.6</ele>
        <time>2022-06-14T08:35:56.000Z</time>
      </trkpt>
      <trkpt lat="45.37662" lon="2.37409">
        <ele>652.5</ele>
        <time>2022-06-14T08:35:57.000Z</time>
      </trkpt>
      <trkpt lat="45.37662" lon="2.37408">
        <ele>652.4</ele>
        <time>2022-06-14T08:35:58.000Z</time>
      </trkpt>
      <trkpt lat="45.37662" lon="2.37407">
        <ele>652.3</ele>
        <time>2022-06-14T08:35:59.000Z</time>
      </trkpt>
      <trkpt lat="45.37663" lon="2.37405">
        <ele>652.2</ele>
        <time>2022-06-14T08:36:00.000Z</time>
      </trkpt>
      <trkpt lat="45.37663" lon="2.37404">
        <ele>652</ele>
        <time>2022-06-14T08:36:01.000Z</time>
      </trkpt>
      <trkpt lat="45.37664" lon="2.37402">
        <ele>651.9</ele>
        <time>2022-06-14T08:36:02.000Z</time>
      </trkpt>
      <trkpt lat="45.37664" lon="2.37401">
        <ele>651.8</ele>
        <time>2022-06-14T08:36:03.000Z</time>
      </trkpt>
      <trkpt lat="45.37665" lon="2.374">
        <ele>651.7</ele>
        <time>2022-06-14T08:36:05.000Z</time>
      </trkpt>
      <trkpt lat="45.37665" lon="2.37399">
        <ele>651.6</ele>
        <time>2022-06-14T08:36:08.000Z</time>
      </trkpt>
      <trkpt lat="45.37666" lon="2.37399">
        <ele>651.5</ele>
        <time>2022-06-14T08:36:10.000Z</time>
      </trkpt>
      <trkpt lat="45.37666" lon="2.37398">
        <ele>651.5</ele>
        <time>2022-06-14T08:36:12.000Z</time>
      </trkpt>
      <trkpt lat="45.37667" lon="2.37398">
        <ele>651.3</ele>
        <time>2022-06-14T08:36:14.000Z</time>
      </trkpt>
      <trkpt lat="45.37668" lon="2.37398">
        <ele>651.1</ele>
        <time>2022-06-14T08:36:15.000Z</time>
      </trkpt>
      <trkpt lat="45.37669" lon="2.37398">
        <ele>650.9</ele>
        <time>2022-06-14T08:36:16.000Z</time>
      </trkpt>
      <trkpt lat="45.3767" lon="2.37399">
        <ele>650.7</ele>
        <time>2022-06-14T08:36:17.000Z</time>
      </trkpt>
      <trkpt lat="45.37671" lon="2.374">
        <ele>650.4</ele>
        <time>2022-06-14T08:36:19.000Z</time>
      </trkpt>
      <trkpt lat="45.37672" lon="2.37401">
        <ele>650.3</ele>
        <time>2022-06-14T08:36:20.000Z</time>
      </trkpt>
      <trkpt lat="45.37673" lon="2.37402">
        <ele>650.1</ele>
        <time>2022-06-14T08:36:22.000Z</time>
      </trkpt>
      <trkpt lat="45.37674" lon="2.37403">
        <ele>649.9</ele>
        <time>2022-06-14T08:36:23.000Z</time>
      </trkpt>
      <trkpt lat="45.37675" lon="2.37404">
        <ele>649.6</ele>
        <time>2022-06-14T08:36:25.000Z</time>
      </trkpt>
      <trkpt lat="45.37676" lon="2.37404">
        <ele>649.4</ele>
        <time>2022-06-14T08:36:26.000Z</time>
      </trkpt>
      <trkpt lat="45.37678" lon="2.37405">
        <ele>649.1</ele>
        <time>2022-06-14T08:36:27.000Z</time>
      </trkpt>
      <trkpt lat="45.37679" lon="2.37405">
        <ele>648.8</ele>
        <time>2022-06-14T08:36:28.000Z</time>
      </trkpt>
      <trkpt lat="45.3768" lon="2.37405">
        <ele>648.5</ele>
        <time>2022-06-14T08:36:29.000Z</time>
      </trkpt>
      <trkpt lat="45.37681" lon="2.37405">
        <ele>648.2</ele>
        <time>2022-06-14T08:36:30.000Z</time>
      </trkpt>
      <trkpt lat="45.37682" lon="2.37405">
        <ele>647.8</ele>
        <time>2022-06-14T08:36:31.000Z</time>
      </trkpt>
      <trkpt lat="45.37683" lon="2.37404">
        <ele>647.5</ele>
        <time>2022-06-14T08:36:32.000Z</time>
      </trkpt>
      <trkpt lat="45.37684" lon="2.37404">
        <ele>647.2</ele>
        <time>2022-06-14T08:36:33.000Z</time>
      </trkpt>
      <trkpt lat="45.37685" lon="2.37404">
        <ele>646.9</ele>
        <time>2022-06-14T08:36:34.000Z</time>
      </trkpt>
      <trkpt lat="45.37686" lon="2.37403">
        <ele>646.6</ele>
        <time>2022-06-14T08:36:35.000Z</time>
      </trkpt>
      <trkpt lat="45.37687" lon="2.37402">
        <ele>646.3</ele>
        <time>2022-06-14T08:36:36.000Z</time>
      </trkpt>
      <trkpt lat="45.37688" lon="2.37402">
        <ele>646</ele>
        <time>2022-06-14T08:36:37.000Z</time>
      </trkpt>
      <trkpt lat="45.37689" lon="2.37401">
        <ele>645.7</ele>
        <time>2022-06-14T08:36:38.000Z</time>
      </trkpt>
      <trkpt lat="45.3769" lon="2.374">
        <ele>645.4</ele>
        <time>2022-06-14T08:36:39.000Z</time>
      </trkpt>
      <trkpt lat="45.37691" lon="2.374">
        <ele>645.1</ele>
        <time>2022-06-14T08:36:40.000Z</time>
      </trkpt>
      <trkpt lat="45.37692" lon="2.37399">
        <ele>644.8</ele>
        <time>2022-06-14T08:36:41.000Z</time>
      </trkpt>
      <trkpt lat="45.37693" lon="2.37398">
        <ele>644.4</ele>
        <time>2022-06-14T08:36:42.000Z</time>
      </trkpt>
      <trkpt lat="45.37694" lon="2.37397">
        <ele>644.1</ele>
        <time>2022-06-14T08:36:43.000Z</time>
      </trkpt>
      <trkpt lat="45.37695" lon="2.37397">
        <ele>643.8</ele>
        <time>2022-06-14T08:36:44.000Z</time>
      </trkpt>
      <trkpt lat="45.37696" lon="2.37396">
        <ele>643.4</ele>
        <time>2022-06-14T08:36:45.000Z</time>
      </trkpt>
      <trkpt lat="45.37697" lon="2.37396">
        <ele>643.1</ele>
        <time>2022-06-14T08:36:46.000Z</time>
      </trkpt>
      <trkpt lat="45.37698" lon="2.37395">
        <ele>642.8</ele>
        <time>2022-06-14T08:36:47.000Z</time>
      </trkpt>
      <trkpt lat="45.37699" lon="2.37394">
        <ele>642.5</ele>
        <time>2022-06-14T08:36:48.000Z</time>
      </trkpt>
      <trkpt lat="45.377" lon="2.37394">
        <ele>642.2</ele>
        <time>2022-06-14T08:36:49.000Z</time>
      </trkpt>
      <trkpt lat="45.37701" lon="2.37394">
        <ele>641.9</ele>
        <time>2022-06-14T08:36:50.000Z</time>
      </trkpt>
      <trkpt lat="45.37702" lon="2.37393">
        <ele>641.6</ele>
        <time>2022-06-14T08:36:51.000Z</time>
      </trkpt>
      <trkpt lat="45.37703" lon="2.37393">
        <ele>641.4</ele>
        <time>2022-06-14T08:36:52.000Z</time>
      </trkpt>
      <trkpt lat="45.37703" lon="2.37392">
        <ele>641.2</ele>
        <time>2022-06-14T08:36:54.000Z</time>
      </trkpt>
      <trkpt lat="45.37704" lon="2.37392">
        <ele>641.1</ele>
        <time>2022-06-14T08:36:55.000Z</time>
      </trkpt>
      <trkpt lat="45.37704" lon="2.37391">
        <ele>640.9</ele>
        <time>2022-06-14T08:36:56.000Z</time>
      </trkpt>
      <trkpt lat="45.37705" lon="2.37391">
        <ele>640.6</ele>
        <time>2022-06-14T08:36:58.000Z</time>
      </trkpt>
      <trkpt lat="45.37706" lon="2.3739">
        <ele>640.3</ele>
        <time>2022-06-14T08:36:59.000Z</time>
      </trkpt>
      <trkpt lat="45.37707" lon="2.3739">
        <ele>640.1</ele>
        <time>2022-06-14T08:37:00.000Z</time>
      </trkpt>
      <trkpt lat="45.37708" lon="2.3739">
        <ele>639.6</ele>
        <time>2022-06-14T08:37:02.000Z</time>
      </trkpt>
      <trkpt lat="45.37709" lon="2.3739">
        <ele>639.4</ele>
        <time>2022-06-14T08:37:03.000Z</time>
      </trkpt>
      <trkpt lat="45.3771" lon="2.3739">
        <ele>639.1</ele>
        <time>2022-06-14T08:37:04.000Z</time>
      </trkpt>
      <trkpt lat="45.37711" lon="2.3739">
        <ele>638.8</ele>
        <time>2022-06-14T08:37:05.000Z</time>
      </trkpt>
      <trkpt lat="45.37712" lon="2.3739">
        <ele>638.6</ele>
        <time>2022-06-14T08:37:06.000Z</time>
      </trkpt>
      <trkpt lat="45.37713" lon="2.3739">
        <ele>638.3</ele>
        <time>2022-06-14T08:37:07.000Z</time>
      </trkpt>
      <trkpt lat="45.37714" lon="2.3739">
        <ele>638</ele>
        <time>2022-06-14T08:37:08.000Z</time>
      </trkpt>
      <trkpt lat="45.37716" lon="2.3739">
        <ele>637.7</ele>
        <time>2022-06-14T08:37:09.000Z</time>
      </trkpt>
      <trkpt lat="45.37717" lon="2.37391">
        <ele>637.4</ele>
        <time>2022-06-14T08:37:10.000Z</time>
      </trkpt>
      <trkpt lat="45.37718" lon="2.37391">
        <ele>637.1</ele>
        <time>2022-06-14T08:37:11.000Z</time>
      </trkpt>
      <trkpt lat="45.37719" lon="2.37391">
        <ele>636.8</ele>
        <time>2022-06-14T08:37:12.000Z</time>
      </trkpt>
      <trkpt lat="45.3772" lon="2.37392">
        <ele>636.5</ele>
        <time>2022-06-14T08:37:13.000Z</time>
      </trkpt>
      <trkpt lat="45.37722" lon="2.37392">
        <ele>636.2</ele>
        <time>2022-06-14T08:37:14.000Z</time>
      </trkpt>
      <trkpt lat="45.37723" lon="2.37392">
        <ele>635.9</ele>
        <time>2022-06-14T08:37:15.000Z</time>
      </trkpt>
      <trkpt lat="45.37724" lon="2.37393">
        <ele>635.6</ele>
        <time>2022-06-14T08:37:16.000Z</time>
      </trkpt>
      <trkpt lat="45.37725" lon="2.37393">
        <ele>635.3</ele>
        <time>2022-06-14T08:37:17.000Z</time>
      </trkpt>
      <trkpt lat="45.37726" lon="2.37393">
        <ele>635.1</ele>
        <time>2022-06-14T08:37:18.000Z</time>
      </trkpt>
      <trkpt lat="45.37728" lon="2.37394">
        <ele>634.8</ele>
        <time>2022-06-14T08:37:19.000Z</time>
      </trkpt>
      <trkpt lat="45.37729" lon="2.37394">
        <ele>634.5</ele>
        <time>2022-06-14T08:37:20.000Z</time>
      </trkpt>
      <trkpt lat="45.3773" lon="2.37394">
        <ele>634.2</ele>
        <time>2022-06-14T08:37:21.000Z</time>
      </trkpt>
      <trkpt lat="45.37731" lon="2.37395">
        <ele>634</ele>
        <time>2022-06-14T08:37:22.000Z</time>
      </trkpt>
      <trkpt lat="45.37732" lon="2.37395">
        <ele>633.7</ele>
        <time>2022-06-14T08:37:23.000Z</time>
      </trkpt>
      <trkpt lat="45.37733" lon="2.37395">
        <ele>633.5</ele>
        <time>2022-06-14T08:37:24.000Z</time>
      </trkpt>
      <trkpt lat="45.37734" lon="2.37395">
        <ele>633.2</ele>
        <time>2022-06-14T08:37:25.000Z</time>
      </trkpt>
      <trkpt lat="45.37735" lon="2.37396">
        <ele>633</ele>
        <time>2022-06-14T08:37:26.000Z</time>
      </trkpt>
      <trkpt lat="45.37736" lon="2.37396">
        <ele>632.7</ele>
        <time>2022-06-14T08:37:27.000Z</time>
      </trkpt>
      <trkpt lat="45.37737" lon="2.37396">
        <ele>632.5</ele>
        <time>2022-06-14T08:37:28.000Z</time>
      </trkpt>
      <trkpt lat="45.37738" lon="2.37396">
        <ele>632.3</ele>
        <time>2022-06-14T08:37:29.000Z</time>
      </trkpt>
      <trkpt lat="45.37739" lon="2.37396">
        <ele>632</ele>
        <time>2022-06-14T08:37:31.000Z</time>
      </trkpt>
      <trkpt lat="45.3774" lon="2.37396">
        <ele>631.8</ele>
        <time>2022-06-14T08:37:36.000Z</time>
      </trkpt>
      <trkpt lat="45.37741" lon="2.37396">
        <ele>631.4</ele>
        <time>2022-06-14T08:37:38.000Z</time>
      </trkpt>
      <trkpt lat="45.37742" lon="2.37396">
        <ele>631.2</ele>
        <time>2022-06-14T08:37:39.000Z</time>
      </trkpt>
      <trkpt lat="45.37743" lon="2.37396">
        <ele>631</ele>
        <time>2022-06-14T08:37:41.000Z</time>
      </trkpt>
      <trkpt lat="45.37744" lon="2.37397">
        <ele>630.8</ele>
        <time>2022-06-14T08:37:43.000Z</time>
      </trkpt>
      <trkpt lat="45.37745" lon="2.37397">
        <ele>630.5</ele>
        <time>2022-06-14T08:37:45.000Z</time>
      </trkpt>
      <trkpt lat="45.37746" lon="2.37398">
        <ele>630.4</ele>
        <time>2022-06-14T08:37:46.000Z</time>
      </trkpt>
      <trkpt lat="45.37747" lon="2.37399">
        <ele>630.1</ele>
        <time>2022-06-14T08:37:48.000Z</time>
      </trkpt>
      <trkpt lat="45.37748" lon="2.374">
        <ele>630</ele>
        <time>2022-06-14T08:37:50.000Z</time>
      </trkpt>
      <trkpt lat="45.37749" lon="2.37401">
        <ele>629.7</ele>
        <time>2022-06-14T08:37:52.000Z</time>
      </trkpt>
      <trkpt lat="45.3775" lon="2.37401">
        <ele>629.6</ele>
        <time>2022-06-14T08:37:53.000Z</time>
      </trkpt>
      <trkpt lat="45.37751" lon="2.37402">
        <ele>629.4</ele>
        <time>2022-06-14T08:37:54.000Z</time>
      </trkpt>
      <trkpt lat="45.37752" lon="2.37403">
        <ele>629.2</ele>
        <time>2022-06-14T08:37:55.000Z</time>
      </trkpt>
      <trkpt lat="45.37753" lon="2.37404">
        <ele>628.9</ele>
        <time>2022-06-14T08:37:57.000Z</time>
      </trkpt>
      <trkpt lat="45.37754" lon="2.37404">
        <ele>628.7</ele>
        <time>2022-06-14T08:37:58.000Z</time>
      </trkpt>
      <trkpt lat="45.37755" lon="2.37405">
        <ele>628.6</ele>
        <time>2022-06-14T08:37:59.000Z</time>
      </trkpt>
      <trkpt lat="45.37756" lon="2.37406">
        <ele>628.4</ele>
        <time>2022-06-14T08:38:01.000Z</time>
      </trkpt>
      <trkpt lat="45.37756" lon="2.37407">
        <ele>628.3</ele>
        <time>2022-06-14T08:38:02.000Z</time>
      </trkpt>
      <trkpt lat="45.37757" lon="2.37407">
        <ele>628.2</ele>
        <time>2022-06-14T08:38:03.000Z</time>
      </trkpt>
      <trkpt lat="45.37757" lon="2.37408">
        <ele>628.1</ele>
        <time>2022-06-14T08:38:04.000Z</time>
      </trkpt>
      <trkpt lat="45.37758" lon="2.37409">
        <ele>628</ele>
        <time>2022-06-14T08:38:05.000Z</time>
      </trkpt>
      <trkpt lat="45.37759" lon="2.3741">
        <ele>627.9</ele>
        <time>2022-06-14T08:38:06.000Z</time>
      </trkpt>
      <trkpt lat="45.37759" lon="2.37411">
        <ele>627.8</ele>
        <time>2022-06-14T08:38:07.000Z</time>
      </trkpt>
      <trkpt lat="45.3776" lon="2.37412">
        <ele>627.7</ele>
        <time>2022-06-14T08:38:08.000Z</time>
      </trkpt>
      <trkpt lat="45.37761" lon="2.37413">
        <ele>627.5</ele>
        <time>2022-06-14T08:38:09.000Z</time>
      </trkpt>
      <trkpt lat="45.37762" lon="2.37414">
        <ele>627.4</ele>
        <time>2022-06-14T08:38:10.000Z</time>
      </trkpt>
      <trkpt lat="45.37763" lon="2.37415">
        <ele>627.2</ele>
        <time>2022-06-14T08:38:11.000Z</time>
      </trkpt>
      <trkpt lat="45.37763" lon="2.37416">
        <ele>627.1</ele>
        <time>2022-06-14T08:38:12.000Z</time>
      </trkpt>
      <trkpt lat="45.37764" lon="2.37417">
        <ele>627</ele>
        <time>2022-06-14T08:38:13.000Z</time>
      </trkpt>
      <trkpt lat="45.37765" lon="2.37418">
        <ele>626.9</ele>
        <time>2022-06-14T08:38:14.000Z</time>
      </trkpt>
      <trkpt lat="45.37766" lon="2.37419">
        <ele>626.7</ele>
        <time>2022-06-14T08:38:16.000Z</time>
      </trkpt>
      <trkpt lat="45.37767" lon="2.3742">
        <ele>626.5</ele>
        <time>2022-06-14T08:38:18.000Z</time>
      </trkpt>
      <trkpt lat="45.37768" lon="2.37421">
        <ele>626.4</ele>
        <time>2022-06-14T08:38:21.000Z</time>
      </trkpt>
      <trkpt lat="45.37768" lon="2.37421">
        <ele>626.3</ele>
        <time>2022-06-14T08:38:25.000Z</time>
      </trkpt>
      <trkpt lat="45.37768" lon="2.37422">
        <ele>626.4</ele>
        <time>2022-06-14T08:38:36.000Z</time>
      </trkpt>
      <trkpt lat="45.37769" lon="2.37423">
        <ele>626.4</ele>
        <time>2022-06-14T08:38:37.000Z</time>
      </trkpt>
      <trkpt lat="45.37769" lon="2.37425">
        <ele>626.3</ele>
        <time>2022-06-14T08:38:38.000Z</time>
      </trkpt>
      <trkpt lat="45.3777" lon="2.37426">
        <ele>626.3</ele>
        <time>2022-06-14T08:38:39.000Z</time>
      </trkpt>
      <trkpt lat="45.37771" lon="2.37427">
        <ele>626.2</ele>
        <time>2022-06-14T08:38:40.000Z</time>
      </trkpt>
      <trkpt lat="45.37771" lon="2.37428">
        <ele>626.1</ele>
        <time>2022-06-14T08:38:41.000Z</time>
      </trkpt>
      <trkpt lat="45.37772" lon="2.37429">
        <ele>626.1</ele>
        <time>2022-06-14T08:38:42.000Z</time>
      </trkpt>
      <trkpt lat="45.37773" lon="2.3743">
        <ele>626</ele>
        <time>2022-06-14T08:38:44.000Z</time>
      </trkpt>
      <trkpt lat="45.37774" lon="2.37432">
        <ele>625.9</ele>
        <time>2022-06-14T08:38:45.000Z</time>
      </trkpt>
      <trkpt lat="45.37774" lon="2.37433">
        <ele>625.9</ele>
        <time>2022-06-14T08:38:46.000Z</time>
      </trkpt>
      <trkpt lat="45.37775" lon="2.37434">
        <ele>625.8</ele>
        <time>2022-06-14T08:38:47.000Z</time>
      </trkpt>
      <trkpt lat="45.37775" lon="2.37435">
        <ele>625.8</ele>
        <time>2022-06-14T08:38:48.000Z</time>
      </trkpt>
      <trkpt lat="45.37776" lon="2.37436">
        <ele>625.9</ele>
        <time>2022-06-14T08:38:49.000Z</time>
      </trkpt>
      <trkpt lat="45.37776" lon="2.37437">
        <ele>625.9</ele>
        <time>2022-06-14T08:38:50.000Z</time>
      </trkpt>
      <trkpt lat="45.37776" lon="2.37438">
        <ele>626</ele>
        <time>2022-06-14T08:38:51.000Z</time>
      </trkpt>
      <trkpt lat="45.37776" lon="2.37439">
        <ele>626</ele>
        <time>2022-06-14T08:38:52.000Z</time>
      </trkpt>
      <trkpt lat="45.37776" lon="2.3744">
        <ele>626.1</ele>
        <time>2022-06-14T08:38:53.000Z</time>
      </trkpt>
      <trkpt lat="45.37777" lon="2.37441">
        <ele>626</ele>
        <time>2022-06-14T08:38:54.000Z</time>
      </trkpt>
      <trkpt lat="45.37777" lon="2.37443">
        <ele>626</ele>
        <time>2022-06-14T08:38:55.000Z</time>
      </trkpt>
      <trkpt lat="45.37778" lon="2.37444">
        <ele>626</ele>
        <time>2022-06-14T08:38:56.000Z</time>
      </trkpt>
      <trkpt lat="45.37779" lon="2.37445">
        <ele>625.9</ele>
        <time>2022-06-14T08:38:57.000Z</time>
      </trkpt>
      <trkpt lat="45.37779" lon="2.37446">
        <ele>625.8</ele>
        <time>2022-06-14T08:38:58.000Z</time>
      </trkpt>
      <trkpt lat="45.3778" lon="2.37448">
        <ele>625.8</ele>
        <time>2022-06-14T08:38:59.000Z</time>
      </trkpt>
      <trkpt lat="45.37781" lon="2.37449">
        <ele>625.7</ele>
        <time>2022-06-14T08:39:00.000Z</time>
      </trkpt>
      <trkpt lat="45.37782" lon="2.3745">
        <ele>625.6</ele>
        <time>2022-06-14T08:39:01.000Z</time>
      </trkpt>
      <trkpt lat="45.37783" lon="2.37452">
        <ele>625.4</ele>
        <time>2022-06-14T08:39:02.000Z</time>
      </trkpt>
      <trkpt lat="45.37784" lon="2.37453">
        <ele>625.3</ele>
        <time>2022-06-14T08:39:03.000Z</time>
      </trkpt>
      <trkpt lat="45.37785" lon="2.37455">
        <ele>625.2</ele>
        <time>2022-06-14T08:39:04.000Z</time>
      </trkpt>
      <trkpt lat="45.37786" lon="2.37456">
        <ele>625</ele>
        <time>2022-06-14T08:39:05.000Z</time>
      </trkpt>
      <trkpt lat="45.37787" lon="2.37458">
        <ele>624.9</ele>
        <time>2022-06-14T08:39:06.000Z</time>
      </trkpt>
      <trkpt lat="45.37788" lon="2.37459">
        <ele>624.8</ele>
        <time>2022-06-14T08:39:07.000Z</time>
      </trkpt>
      <trkpt lat="45.37789" lon="2.3746">
        <ele>624.7</ele>
        <time>2022-06-14T08:39:08.000Z</time>
      </trkpt>
      <trkpt lat="45.37789" lon="2.37462">
        <ele>624.6</ele>
        <time>2022-06-14T08:39:09.000Z</time>
      </trkpt>
      <trkpt lat="45.3779" lon="2.37463">
        <ele>624.5</ele>
        <time>2022-06-14T08:39:10.000Z</time>
      </trkpt>
      <trkpt lat="45.37791" lon="2.37465">
        <ele>624.4</ele>
        <time>2022-06-14T08:39:11.000Z</time>
      </trkpt>
      <trkpt lat="45.37792" lon="2.37466">
        <ele>624.3</ele>
        <time>2022-06-14T08:39:12.000Z</time>
      </trkpt>
      <trkpt lat="45.37793" lon="2.37468">
        <ele>624.2</ele>
        <time>2022-06-14T08:39:13.000Z</time>
      </trkpt>
      <trkpt lat="45.37794" lon="2.37469">
        <ele>624.1</ele>
        <time>2022-06-14T08:39:14.000Z</time>
      </trkpt>
      <trkpt lat="45.37794" lon="2.37471">
        <ele>624.1</ele>
        <time>2022-06-14T08:39:15.000Z</time>
      </trkpt>
      <trkpt lat="45.37795" lon="2.37472">
        <ele>624</ele>
        <time>2022-06-14T08:39:16.000Z</time>
      </trkpt>
      <trkpt lat="45.37796" lon="2.37474">
        <ele>624</ele>
        <time>2022-06-14T08:39:17.000Z</time>
      </trkpt>
      <trkpt lat="45.37796" lon="2.37475">
        <ele>623.9</ele>
        <time>2022-06-14T08:39:18.000Z</time>
      </trkpt>
      <trkpt lat="45.37797" lon="2.37476">
        <ele>623.9</ele>
        <time>2022-06-14T08:39:19.000Z</time>
      </trkpt>
      <trkpt lat="45.37798" lon="2.37478">
        <ele>623.8</ele>
        <time>2022-06-14T08:39:20.000Z</time>
      </trkpt>
      <trkpt lat="45.37798" lon="2.37479">
        <ele>623.8</ele>
        <time>2022-06-14T08:39:21.000Z</time>
      </trkpt>
      <trkpt lat="45.37799" lon="2.37481">
        <ele>623.7</ele>
        <time>2022-06-14T08:39:22.000Z</time>
      </trkpt>
      <trkpt lat="45.37799" lon="2.37482">
        <ele>623.7</ele>
        <time>2022-06-14T08:39:23.000Z</time>
      </trkpt>
      <trkpt lat="45.378" lon="2.37483">
        <ele>623.7</ele>
        <time>2022-06-14T08:39:24.000Z</time>
      </trkpt>
      <trkpt lat="45.378" lon="2.37485">
        <ele>623.7</ele>
        <time>2022-06-14T08:39:25.000Z</time>
      </trkpt>
      <trkpt lat="45.37801" lon="2.37486">
        <ele>623.7</ele>
        <time>2022-06-14T08:39:26.000Z</time>
      </trkpt>
      <trkpt lat="45.37801" lon="2.37488">
        <ele>623.6</ele>
        <time>2022-06-14T08:39:27.000Z</time>
      </trkpt>
      <trkpt lat="45.37802" lon="2.37489">
        <ele>623.6</ele>
        <time>2022-06-14T08:39:28.000Z</time>
      </trkpt>
      <trkpt lat="45.37803" lon="2.3749">
        <ele>623.6</ele>
        <time>2022-06-14T08:39:29.000Z</time>
      </trkpt>
      <trkpt lat="45.37803" lon="2.37492">
        <ele>623.6</ele>
        <time>2022-06-14T08:39:30.000Z</time>
      </trkpt>
      <trkpt lat="45.37804" lon="2.37493">
        <ele>623.5</ele>
        <time>2022-06-14T08:39:31.000Z</time>
      </trkpt>
      <trkpt lat="45.37804" lon="2.37494">
        <ele>623.5</ele>
        <time>2022-06-14T08:39:32.000Z</time>
      </trkpt>
      <trkpt lat="45.37805" lon="2.37496">
        <ele>623.4</ele>
        <time>2022-06-14T08:39:33.000Z</time>
      </trkpt>
      <trkpt lat="45.37806" lon="2.37497">
        <ele>623.4</ele>
        <time>2022-06-14T08:39:34.000Z</time>
      </trkpt>
      <trkpt lat="45.37806" lon="2.37498">
        <ele>623.3</ele>
        <time>2022-06-14T08:39:35.000Z</time>
      </trkpt>
      <trkpt lat="45.37807" lon="2.375">
        <ele>623.2</ele>
        <time>2022-06-14T08:39:36.000Z</time>
      </trkpt>
      <trkpt lat="45.37808" lon="2.37501">
        <ele>623.1</ele>
        <time>2022-06-14T08:39:37.000Z</time>
      </trkpt>
      <trkpt lat="45.37808" lon="2.37502">
        <ele>622.9</ele>
        <time>2022-06-14T08:39:38.000Z</time>
      </trkpt>
      <trkpt lat="45.37809" lon="2.37504">
        <ele>622.8</ele>
        <time>2022-06-14T08:39:39.000Z</time>
      </trkpt>
      <trkpt lat="45.3781" lon="2.37505">
        <ele>622.6</ele>
        <time>2022-06-14T08:39:40.000Z</time>
      </trkpt>
      <trkpt lat="45.37811" lon="2.37506">
        <ele>622.4</ele>
        <time>2022-06-14T08:39:41.000Z</time>
      </trkpt>
      <trkpt lat="45.37812" lon="2.37508">
        <ele>622.2</ele>
        <time>2022-06-14T08:39:42.000Z</time>
      </trkpt>
      <trkpt lat="45.37813" lon="2.37509">
        <ele>622</ele>
        <time>2022-06-14T08:39:43.000Z</time>
      </trkpt>
      <trkpt lat="45.37814" lon="2.3751">
        <ele>621.8</ele>
        <time>2022-06-14T08:39:44.000Z</time>
      </trkpt>
      <trkpt lat="45.37815" lon="2.37511">
        <ele>621.5</ele>
        <time>2022-06-14T08:39:45.000Z</time>
      </trkpt>
      <trkpt lat="45.37816" lon="2.37513">
        <ele>621.3</ele>
        <time>2022-06-14T08:39:46.000Z</time>
      </trkpt>
      <trkpt lat="45.37817" lon="2.37514">
        <ele>621</ele>
        <time>2022-06-14T08:39:47.000Z</time>
      </trkpt>
      <trkpt lat="45.37818" lon="2.37515">
        <ele>620.8</ele>
        <time>2022-06-14T08:39:48.000Z</time>
      </trkpt>
      <trkpt lat="45.37819" lon="2.37517">
        <ele>620.5</ele>
        <time>2022-06-14T08:39:49.000Z</time>
      </trkpt>
      <trkpt lat="45.3782" lon="2.37518">
        <ele>620.2</ele>
        <time>2022-06-14T08:39:50.000Z</time>
      </trkpt>
      <trkpt lat="45.37822" lon="2.37519">
        <ele>619.9</ele>
        <time>2022-06-14T08:39:51.000Z</time>
      </trkpt>
      <trkpt lat="45.37823" lon="2.3752">
        <ele>619.7</ele>
        <time>2022-06-14T08:39:52.000Z</time>
      </trkpt>
      <trkpt lat="45.37824" lon="2.37522">
        <ele>619.4</ele>
        <time>2022-06-14T08:39:53.000Z</time>
      </trkpt>
      <trkpt lat="45.37825" lon="2.37523">
        <ele>619.1</ele>
        <time>2022-06-14T08:39:54.000Z</time>
      </trkpt>
      <trkpt lat="45.37826" lon="2.37524">
        <ele>618.8</ele>
        <time>2022-06-14T08:39:55.000Z</time>
      </trkpt>
      <trkpt lat="45.37827" lon="2.37525">
        <ele>618.6</ele>
        <time>2022-06-14T08:39:56.000Z</time>
      </trkpt>
      <trkpt lat="45.37828" lon="2.37526">
        <ele>618.3</ele>
        <time>2022-06-14T08:39:57.000Z</time>
      </trkpt>
      <trkpt lat="45.37829" lon="2.37527">
        <ele>618.1</ele>
        <time>2022-06-14T08:39:58.000Z</time>
      </trkpt>
      <trkpt lat="45.3783" lon="2.37528">
        <ele>617.9</ele>
        <time>2022-06-14T08:39:59.000Z</time>
      </trkpt>
      <trkpt lat="45.37831" lon="2.37529">
        <ele>617.6</ele>
        <time>2022-06-14T08:40:00.000Z</time>
      </trkpt>
      <trkpt lat="45.37831" lon="2.3753">
        <ele>617.4</ele>
        <time>2022-06-14T08:40:01.000Z</time>
      </trkpt>
      <trkpt lat="45.37832" lon="2.37531">
        <ele>617.2</ele>
        <time>2022-06-14T08:40:02.000Z</time>
      </trkpt>
      <trkpt lat="45.37833" lon="2.37532">
        <ele>617.1</ele>
        <time>2022-06-14T08:40:03.000Z</time>
      </trkpt>
      <trkpt lat="45.37834" lon="2.37533">
        <ele>616.9</ele>
        <time>2022-06-14T08:40:04.000Z</time>
      </trkpt>
      <trkpt lat="45.37834" lon="2.37534">
        <ele>616.8</ele>
        <time>2022-06-14T08:40:05.000Z</time>
      </trkpt>
      <trkpt lat="45.37835" lon="2.37535">
        <ele>616.7</ele>
        <time>2022-06-14T08:40:06.000Z</time>
      </trkpt>
      <trkpt lat="45.37836" lon="2.37536">
        <ele>616.7</ele>
        <time>2022-06-14T08:40:07.000Z</time>
      </trkpt>
      <trkpt lat="45.37836" lon="2.37538">
        <ele>616.6</ele>
        <time>2022-06-14T08:40:08.000Z</time>
      </trkpt>
      <trkpt lat="45.37837" lon="2.37539">
        <ele>616.6</ele>
        <time>2022-06-14T08:40:09.000Z</time>
      </trkpt>
      <trkpt lat="45.37837" lon="2.3754">
        <ele>616.5</ele>
        <time>2022-06-14T08:40:10.000Z</time>
      </trkpt>
      <trkpt lat="45.37838" lon="2.37542">
        <ele>616.5</ele>
        <time>2022-06-14T08:40:11.000Z</time>
      </trkpt>
      <trkpt lat="45.37838" lon="2.37543">
        <ele>616.5</ele>
        <time>2022-06-14T08:40:12.000Z</time>
      </trkpt>
      <trkpt lat="45.37839" lon="2.37545">
        <ele>616.4</ele>
        <time>2022-06-14T08:40:13.000Z</time>
      </trkpt>
      <trkpt lat="45.37839" lon="2.37546">
        <ele>616.4</ele>
        <time>2022-06-14T08:40:14.000Z</time>
      </trkpt>
      <trkpt lat="45.37839" lon="2.37547">
        <ele>616.4</ele>
        <time>2022-06-14T08:40:15.000Z</time>
      </trkpt>
      <trkpt lat="45.3784" lon="2.37547">
        <ele>616.4</ele>
        <time>2022-06-14T08:40:16.000Z</time>
      </trkpt>
      <trkpt lat="45.3784" lon="2.37548">
        <ele>616.4</ele>
        <time>2022-06-14T08:40:17.000Z</time>
      </trkpt>
      <trkpt lat="45.3784" lon="2.37549">
        <ele>616.4</ele>
        <time>2022-06-14T08:40:19.000Z</time>
      </trkpt>
      <trkpt lat="45.3784" lon="2.37549">
        <ele>616.4</ele>
        <time>2022-06-14T08:40:29.000Z</time>
      </trkpt>
      <trkpt lat="45.3784" lon="2.3755">
        <ele>616.4</ele>
        <time>2022-06-14T08:40:30.000Z</time>
      </trkpt>
      <trkpt lat="45.3784" lon="2.37551">
        <ele>616.5</ele>
        <time>2022-06-14T08:40:34.000Z</time>
      </trkpt>
      <trkpt lat="45.3784" lon="2.37553">
        <ele>616.6</ele>
        <time>2022-06-14T08:40:35.000Z</time>
      </trkpt>
      <trkpt lat="45.3784" lon="2.37555">
        <ele>616.7</ele>
        <time>2022-06-14T08:40:36.000Z</time>
      </trkpt>
      <trkpt lat="45.3784" lon="2.37557">
        <ele>616.8</ele>
        <time>2022-06-14T08:40:37.000Z</time>
      </trkpt>
      <trkpt lat="45.3784" lon="2.37559">
        <ele>616.9</ele>
        <time>2022-06-14T08:40:38.000Z</time>
      </trkpt>
      <trkpt lat="45.37841" lon="2.3756">
        <ele>616.9</ele>
        <time>2022-06-14T08:40:39.000Z</time>
      </trkpt>
      <trkpt lat="45.37841" lon="2.37562">
        <ele>617</ele>
        <time>2022-06-14T08:40:40.000Z</time>
      </trkpt>
      <trkpt lat="45.37841" lon="2.37563">
        <ele>617</ele>
        <time>2022-06-14T08:40:41.000Z</time>
      </trkpt>
      <trkpt lat="45.37841" lon="2.37565">
        <ele>617</ele>
        <time>2022-06-14T08:40:42.000Z</time>
      </trkpt>
      <trkpt lat="45.37842" lon="2.37566">
        <ele>617</ele>
        <time>2022-06-14T08:40:43.000Z</time>
      </trkpt>
      <trkpt lat="45.37842" lon="2.37568">
        <ele>617</ele>
        <time>2022-06-14T08:40:44.000Z</time>
      </trkpt>
      <trkpt lat="45.37842" lon="2.3757">
        <ele>617.1</ele>
        <time>2022-06-14T08:40:45.000Z</time>
      </trkpt>
      <trkpt lat="45.37843" lon="2.37571">
        <ele>617.1</ele>
        <time>2022-06-14T08:40:46.000Z</time>
      </trkpt>
      <trkpt lat="45.37843" lon="2.37573">
        <ele>617.1</ele>
        <time>2022-06-14T08:40:47.000Z</time>
      </trkpt>
      <trkpt lat="45.37843" lon="2.37575">
        <ele>617.1</ele>
        <time>2022-06-14T08:40:48.000Z</time>
      </trkpt>
      <trkpt lat="45.37844" lon="2.37576">
        <ele>617.1</ele>
        <time>2022-06-14T08:40:49.000Z</time>
      </trkpt>
      <trkpt lat="45.37844" lon="2.37578">
        <ele>617.1</ele>
        <time>2022-06-14T08:40:50.000Z</time>
      </trkpt>
      <trkpt lat="45.37844" lon="2.3758">
        <ele>617.2</ele>
        <time>2022-06-14T08:40:51.000Z</time>
      </trkpt>
      <trkpt lat="45.37845" lon="2.37581">
        <ele>617.2</ele>
        <time>2022-06-14T08:40:52.000Z</time>
      </trkpt>
      <trkpt lat="45.37845" lon="2.37583">
        <ele>617.2</ele>
        <time>2022-06-14T08:40:53.000Z</time>
      </trkpt>
      <trkpt lat="45.37845" lon="2.37585">
        <ele>617.2</ele>
        <time>2022-06-14T08:40:54.000Z</time>
      </trkpt>
      <trkpt lat="45.37846" lon="2.37586">
        <ele>617.2</ele>
        <time>2022-06-14T08:40:55.000Z</time>
      </trkpt>
      <trkpt lat="45.37846" lon="2.37588">
        <ele>617.2</ele>
        <time>2022-06-14T08:40:56.000Z</time>
      </trkpt>
      <trkpt lat="45.37846" lon="2.3759">
        <ele>617.2</ele>
        <time>2022-06-14T08:40:57.000Z</time>
      </trkpt>
      <trkpt lat="45.37847" lon="2.37592">
        <ele>617.2</ele>
        <time>2022-06-14T08:40:58.000Z</time>
      </trkpt>
      <trkpt lat="45.37847" lon="2.37593">
        <ele>617.2</ele>
        <time>2022-06-14T08:40:59.000Z</time>
      </trkpt>
      <trkpt lat="45.37847" lon="2.37595">
        <ele>617.2</ele>
        <time>2022-06-14T08:41:00.000Z</time>
      </trkpt>
      <trkpt lat="45.37848" lon="2.37597">
        <ele>617.3</ele>
        <time>2022-06-14T08:41:01.000Z</time>
      </trkpt>
      <trkpt lat="45.37848" lon="2.37599">
        <ele>617.3</ele>
        <time>2022-06-14T08:41:02.000Z</time>
      </trkpt>
      <trkpt lat="45.37848" lon="2.37601">
        <ele>617.3</ele>
        <time>2022-06-14T08:41:03.000Z</time>
      </trkpt>
      <trkpt lat="45.37849" lon="2.37603">
        <ele>617.3</ele>
        <time>2022-06-14T08:41:04.000Z</time>
      </trkpt>
      <trkpt lat="45.37849" lon="2.37605">
        <ele>617.3</ele>
        <time>2022-06-14T08:41:05.000Z</time>
      </trkpt>
      <trkpt lat="45.37849" lon="2.37607">
        <ele>617.3</ele>
        <time>2022-06-14T08:41:06.000Z</time>
      </trkpt>
      <trkpt lat="45.3785" lon="2.37609">
        <ele>617.3</ele>
        <time>2022-06-14T08:41:07.000Z</time>
      </trkpt>
      <trkpt lat="45.3785" lon="2.37611">
        <ele>617.4</ele>
        <time>2022-06-14T08:41:08.000Z</time>
      </trkpt>
      <trkpt lat="45.3785" lon="2.37613">
        <ele>617.4</ele>
        <time>2022-06-14T08:41:09.000Z</time>
      </trkpt>
      <trkpt lat="45.37851" lon="2.37614">
        <ele>617.3</ele>
        <time>2022-06-14T08:41:10.000Z</time>
      </trkpt>
      <trkpt lat="45.37851" lon="2.37616">
        <ele>617.4</ele>
        <time>2022-06-14T08:41:11.000Z</time>
      </trkpt>
      <trkpt lat="45.37851" lon="2.37618">
        <ele>617.4</ele>
        <time>2022-06-14T08:41:12.000Z</time>
      </trkpt>
      <trkpt lat="45.37852" lon="2.3762">
        <ele>617.4</ele>
        <time>2022-06-14T08:41:13.000Z</time>
      </trkpt>
      <trkpt lat="45.37852" lon="2.37622">
        <ele>617.3</ele>
        <time>2022-06-14T08:41:14.000Z</time>
      </trkpt>
      <trkpt lat="45.37853" lon="2.37624">
        <ele>617.3</ele>
        <time>2022-06-14T08:41:15.000Z</time>
      </trkpt>
      <trkpt lat="45.37853" lon="2.37625">
        <ele>617.3</ele>
        <time>2022-06-14T08:41:16.000Z</time>
      </trkpt>
      <trkpt lat="45.37853" lon="2.37627">
        <ele>617.3</ele>
        <time>2022-06-14T08:41:17.000Z</time>
      </trkpt>
      <trkpt lat="45.37854" lon="2.37629">
        <ele>617.3</ele>
        <time>2022-06-14T08:41:18.000Z</time>
      </trkpt>
      <trkpt lat="45.37854" lon="2.37631">
        <ele>617.2</ele>
        <time>2022-06-14T08:41:19.000Z</time>
      </trkpt>
      <trkpt lat="45.37855" lon="2.37632">
        <ele>617.2</ele>
        <time>2022-06-14T08:41:20.000Z</time>
      </trkpt>
      <trkpt lat="45.37855" lon="2.37634">
        <ele>617.1</ele>
        <time>2022-06-14T08:41:21.000Z</time>
      </trkpt>
      <trkpt lat="45.37856" lon="2.37635">
        <ele>617.1</ele>
        <time>2022-06-14T08:41:22.000Z</time>
      </trkpt>
      <trkpt lat="45.37856" lon="2.37637">
        <ele>617.1</ele>
        <time>2022-06-14T08:41:23.000Z</time>
      </trkpt>
      <trkpt lat="45.37857" lon="2.37638">
        <ele>617</ele>
        <time>2022-06-14T08:41:24.000Z</time>
      </trkpt>
      <trkpt lat="45.37857" lon="2.37639">
        <ele>617</ele>
        <time>2022-06-14T08:41:25.000Z</time>
      </trkpt>
      <trkpt lat="45.37858" lon="2.37641">
        <ele>616.9</ele>
        <time>2022-06-14T08:41:26.000Z</time>
      </trkpt>
      <trkpt lat="45.37858" lon="2.37642">
        <ele>616.8</ele>
        <time>2022-06-14T08:41:27.000Z</time>
      </trkpt>
      <trkpt lat="45.37859" lon="2.37643">
        <ele>616.8</ele>
        <time>2022-06-14T08:41:28.000Z</time>
      </trkpt>
      <trkpt lat="45.37859" lon="2.37645">
        <ele>616.8</ele>
        <time>2022-06-14T08:41:29.000Z</time>
      </trkpt>
      <trkpt lat="45.3786" lon="2.37646">
        <ele>616.7</ele>
        <time>2022-06-14T08:41:30.000Z</time>
      </trkpt>
      <trkpt lat="45.3786" lon="2.37647">
        <ele>616.6</ele>
        <time>2022-06-14T08:41:31.000Z</time>
      </trkpt>
      <trkpt lat="45.37861" lon="2.37648">
        <ele>616.6</ele>
        <time>2022-06-14T08:41:32.000Z</time>
      </trkpt>
      <trkpt lat="45.37861" lon="2.3765">
        <ele>616.6</ele>
        <time>2022-06-14T08:41:33.000Z</time>
      </trkpt>
      <trkpt lat="45.37861" lon="2.37651">
        <ele>616.5</ele>
        <time>2022-06-14T08:41:34.000Z</time>
      </trkpt>
      <trkpt lat="45.37862" lon="2.37653">
        <ele>616.5</ele>
        <time>2022-06-14T08:41:35.000Z</time>
      </trkpt>
      <trkpt lat="45.37862" lon="2.37654">
        <ele>616.5</ele>
        <time>2022-06-14T08:41:36.000Z</time>
      </trkpt>
      <trkpt lat="45.37863" lon="2.37656">
        <ele>616.5</ele>
        <time>2022-06-14T08:41:37.000Z</time>
      </trkpt>
      <trkpt lat="45.37863" lon="2.37658">
        <ele>616.5</ele>
        <time>2022-06-14T08:41:38.000Z</time>
      </trkpt>
      <trkpt lat="45.37863" lon="2.37659">
        <ele>616.5</ele>
        <time>2022-06-14T08:41:39.000Z</time>
      </trkpt>
      <trkpt lat="45.37864" lon="2.37661">
        <ele>616.5</ele>
        <time>2022-06-14T08:41:40.000Z</time>
      </trkpt>
      <trkpt lat="45.37864" lon="2.37663">
        <ele>616.5</ele>
        <time>2022-06-14T08:41:41.000Z</time>
      </trkpt>
      <trkpt lat="45.37864" lon="2.37665">
        <ele>616.5</ele>
        <time>2022-06-14T08:41:42.000Z</time>
      </trkpt>
      <trkpt lat="45.37864" lon="2.37667">
        <ele>616.6</ele>
        <time>2022-06-14T08:41:43.000Z</time>
      </trkpt>
      <trkpt lat="45.37865" lon="2.37669">
        <ele>616.5</ele>
        <time>2022-06-14T08:41:44.000Z</time>
      </trkpt>
      <trkpt lat="45.37865" lon="2.37671">
        <ele>616.5</ele>
        <time>2022-06-14T08:41:45.000Z</time>
      </trkpt>
      <trkpt lat="45.37865" lon="2.37673">
        <ele>616.4</ele>
        <time>2022-06-14T08:41:46.000Z</time>
      </trkpt>
      <trkpt lat="45.37865" lon="2.37674">
        <ele>616.4</ele>
        <time>2022-06-14T08:41:47.000Z</time>
      </trkpt>
      <trkpt lat="45.37865" lon="2.37676">
        <ele>616.4</ele>
        <time>2022-06-14T08:41:48.000Z</time>
      </trkpt>
      <trkpt lat="45.37865" lon="2.37678">
        <ele>616.4</ele>
        <time>2022-06-14T08:41:49.000Z</time>
      </trkpt>
      <trkpt lat="45.37865" lon="2.3768">
        <ele>616.4</ele>
        <time>2022-06-14T08:41:50.000Z</time>
      </trkpt>
      <trkpt lat="45.37865" lon="2.37681">
        <ele>616.4</ele>
        <time>2022-06-14T08:41:51.000Z</time>
      </trkpt>
      <trkpt lat="45.37865" lon="2.37683">
        <ele>616.4</ele>
        <time>2022-06-14T08:41:52.000Z</time>
      </trkpt>
      <trkpt lat="45.37865" lon="2.37685">
        <ele>616.4</ele>
        <time>2022-06-14T08:41:53.000Z</time>
      </trkpt>
      <trkpt lat="45.37865" lon="2.37686">
        <ele>616.4</ele>
        <time>2022-06-14T08:41:54.000Z</time>
      </trkpt>
      <trkpt lat="45.37866" lon="2.37688">
        <ele>616.3</ele>
        <time>2022-06-14T08:41:55.000Z</time>
      </trkpt>
      <trkpt lat="45.37866" lon="2.3769">
        <ele>616.3</ele>
        <time>2022-06-14T08:41:56.000Z</time>
      </trkpt>
      <trkpt lat="45.37866" lon="2.37692">
        <ele>616.2</ele>
        <time>2022-06-14T08:41:57.000Z</time>
      </trkpt>
      <trkpt lat="45.37866" lon="2.37694">
        <ele>616.1</ele>
        <time>2022-06-14T08:41:58.000Z</time>
      </trkpt>
      <trkpt lat="45.37867" lon="2.37696">
        <ele>616</ele>
        <time>2022-06-14T08:41:59.000Z</time>
      </trkpt>
      <trkpt lat="45.37867" lon="2.37698">
        <ele>615.9</ele>
        <time>2022-06-14T08:42:00.000Z</time>
      </trkpt>
      <trkpt lat="45.37868" lon="2.377">
        <ele>615.8</ele>
        <time>2022-06-14T08:42:01.000Z</time>
      </trkpt>
      <trkpt lat="45.37868" lon="2.37701">
        <ele>615.7</ele>
        <time>2022-06-14T08:42:02.000Z</time>
      </trkpt>
      <trkpt lat="45.37869" lon="2.37703">
        <ele>615.6</ele>
        <time>2022-06-14T08:42:03.000Z</time>
      </trkpt>
      <trkpt lat="45.37869" lon="2.37705">
        <ele>615.5</ele>
        <time>2022-06-14T08:42:04.000Z</time>
      </trkpt>
      <trkpt lat="45.3787" lon="2.37707">
        <ele>615.3</ele>
        <time>2022-06-14T08:42:05.000Z</time>
      </trkpt>
      <trkpt lat="45.3787" lon="2.37708">
        <ele>615.2</ele>
        <time>2022-06-14T08:42:06.000Z</time>
      </trkpt>
      <trkpt lat="45.37871" lon="2.3771">
        <ele>615.1</ele>
        <time>2022-06-14T08:42:07.000Z</time>
      </trkpt>
      <trkpt lat="45.37871" lon="2.37711">
        <ele>614.9</ele>
        <time>2022-06-14T08:42:08.000Z</time>
      </trkpt>
      <trkpt lat="45.37872" lon="2.37713">
        <ele>614.8</ele>
        <time>2022-06-14T08:42:09.000Z</time>
      </trkpt>
      <trkpt lat="45.37872" lon="2.37715">
        <ele>614.7</ele>
        <time>2022-06-14T08:42:10.000Z</time>
      </trkpt>
      <trkpt lat="45.37873" lon="2.37716">
        <ele>614.5</ele>
        <time>2022-06-14T08:42:11.000Z</time>
      </trkpt>
      <trkpt lat="45.37873" lon="2.37718">
        <ele>614.4</ele>
        <time>2022-06-14T08:42:12.000Z</time>
      </trkpt>
      <trkpt lat="45.37874" lon="2.3772">
        <ele>614.3</ele>
        <time>2022-06-14T08:42:13.000Z</time>
      </trkpt>
      <trkpt lat="45.37874" lon="2.37721">
        <ele>614.2</ele>
        <time>2022-06-14T08:42:14.000Z</time>
      </trkpt>
      <trkpt lat="45.37875" lon="2.37723">
        <ele>614.1</ele>
        <time>2022-06-14T08:42:15.000Z</time>
      </trkpt>
      <trkpt lat="45.37875" lon="2.37725">
        <ele>614.1</ele>
        <time>2022-06-14T08:42:16.000Z</time>
      </trkpt>
      <trkpt lat="45.37875" lon="2.37727">
        <ele>614</ele>
        <time>2022-06-14T08:42:17.000Z</time>
      </trkpt>
      <trkpt lat="45.37875" lon="2.37729">
        <ele>613.9</ele>
        <time>2022-06-14T08:42:18.000Z</time>
      </trkpt>
      <trkpt lat="45.37876" lon="2.3773">
        <ele>613.9</ele>
        <time>2022-06-14T08:42:19.000Z</time>
      </trkpt>
      <trkpt lat="45.37876" lon="2.37732">
        <ele>613.8</ele>
        <time>2022-06-14T08:42:20.000Z</time>
      </trkpt>
      <trkpt lat="45.37876" lon="2.37734">
        <ele>613.8</ele>
        <time>2022-06-14T08:42:21.000Z</time>
      </trkpt>
      <trkpt lat="45.37876" lon="2.37736">
        <ele>613.7</ele>
        <time>2022-06-14T08:42:22.000Z</time>
      </trkpt>
      <trkpt lat="45.37876" lon="2.37738">
        <ele>613.7</ele>
        <time>2022-06-14T08:42:23.000Z</time>
      </trkpt>
      <trkpt lat="45.37876" lon="2.37739">
        <ele>613.7</ele>
        <time>2022-06-14T08:42:24.000Z</time>
      </trkpt>
      <trkpt lat="45.37876" lon="2.37741">
        <ele>613.7</ele>
        <time>2022-06-14T08:42:25.000Z</time>
      </trkpt>
      <trkpt lat="45.37876" lon="2.37742">
        <ele>613.7</ele>
        <time>2022-06-14T08:42:26.000Z</time>
      </trkpt>
      <trkpt lat="45.37876" lon="2.37744">
        <ele>613.7</ele>
        <time>2022-06-14T08:42:27.000Z</time>
      </trkpt>
      <trkpt lat="45.37876" lon="2.37746">
        <ele>613.7</ele>
        <time>2022-06-14T08:42:28.000Z</time>
      </trkpt>
      <trkpt lat="45.37876" lon="2.37747">
        <ele>613.7</ele>
        <time>2022-06-14T08:42:29.000Z</time>
      </trkpt>
      <trkpt lat="45.37876" lon="2.37749">
        <ele>613.7</ele>
        <time>2022-06-14T08:42:30.000Z</time>
      </trkpt>
      <trkpt lat="45.37876" lon="2.3775">
        <ele>613.8</ele>
        <time>2022-06-14T08:42:31.000Z</time>
      </trkpt>
      <trkpt lat="45.37876" lon="2.37752">
        <ele>613.7</ele>
        <time>2022-06-14T08:42:32.000Z</time>
      </trkpt>
      <trkpt lat="45.37875" lon="2.37754">
        <ele>613.6</ele>
        <time>2022-06-14T08:42:33.000Z</time>
      </trkpt>
      <trkpt lat="45.37875" lon="2.37755">
        <ele>613.6</ele>
        <time>2022-06-14T08:42:34.000Z</time>
      </trkpt>
      <trkpt lat="45.37875" lon="2.37757">
        <ele>613.6</ele>
        <time>2022-06-14T08:42:35.000Z</time>
      </trkpt>
      <trkpt lat="45.37874" lon="2.37759">
        <ele>613.5</ele>
        <time>2022-06-14T08:42:36.000Z</time>
      </trkpt>
      <trkpt lat="45.37874" lon="2.37761">
        <ele>613.4</ele>
        <time>2022-06-14T08:42:37.000Z</time>
      </trkpt>
      <trkpt lat="45.37874" lon="2.37762">
        <ele>613.4</ele>
        <time>2022-06-14T08:42:38.000Z</time>
      </trkpt>
      <trkpt lat="45.37874" lon="2.37764">
        <ele>613.3</ele>
        <time>2022-06-14T08:42:39.000Z</time>
      </trkpt>
      <trkpt lat="45.37873" lon="2.37766">
        <ele>613.2</ele>
        <time>2022-06-14T08:42:40.000Z</time>
      </trkpt>
      <trkpt lat="45.37873" lon="2.37768">
        <ele>613.1</ele>
        <time>2022-06-14T08:42:41.000Z</time>
      </trkpt>
      <trkpt lat="45.37873" lon="2.37769">
        <ele>613</ele>
        <time>2022-06-14T08:42:42.000Z</time>
      </trkpt>
      <trkpt lat="45.37873" lon="2.37771">
        <ele>612.9</ele>
        <time>2022-06-14T08:42:43.000Z</time>
      </trkpt>
      <trkpt lat="45.37873" lon="2.37773">
        <ele>612.9</ele>
        <time>2022-06-14T08:42:44.000Z</time>
      </trkpt>
      <trkpt lat="45.37873" lon="2.37775">
        <ele>612.7</ele>
        <time>2022-06-14T08:42:45.000Z</time>
      </trkpt>
      <trkpt lat="45.37873" lon="2.37776">
        <ele>612.6</ele>
        <time>2022-06-14T08:42:46.000Z</time>
      </trkpt>
      <trkpt lat="45.37872" lon="2.37778">
        <ele>612.5</ele>
        <time>2022-06-14T08:42:47.000Z</time>
      </trkpt>
      <trkpt lat="45.37872" lon="2.3778">
        <ele>612.5</ele>
        <time>2022-06-14T08:42:48.000Z</time>
      </trkpt>
      <trkpt lat="45.37872" lon="2.37781">
        <ele>612.4</ele>
        <time>2022-06-14T08:42:49.000Z</time>
      </trkpt>
      <trkpt lat="45.37872" lon="2.37783">
        <ele>612.3</ele>
        <time>2022-06-14T08:42:50.000Z</time>
      </trkpt>
      <trkpt lat="45.37872" lon="2.37785">
        <ele>612.2</ele>
        <time>2022-06-14T08:42:51.000Z</time>
      </trkpt>
      <trkpt lat="45.37871" lon="2.37786">
        <ele>612.2</ele>
        <time>2022-06-14T08:42:52.000Z</time>
      </trkpt>
      <trkpt lat="45.37871" lon="2.37788">
        <ele>612.1</ele>
        <time>2022-06-14T08:42:53.000Z</time>
      </trkpt>
      <trkpt lat="45.37871" lon="2.3779">
        <ele>612.1</ele>
        <time>2022-06-14T08:42:54.000Z</time>
      </trkpt>
      <trkpt lat="45.37871" lon="2.37791">
        <ele>612</ele>
        <time>2022-06-14T08:42:55.000Z</time>
      </trkpt>
      <trkpt lat="45.37871" lon="2.37793">
        <ele>611.9</ele>
        <time>2022-06-14T08:42:56.000Z</time>
      </trkpt>
      <trkpt lat="45.37871" lon="2.37794">
        <ele>611.8</ele>
        <time>2022-06-14T08:42:57.000Z</time>
      </trkpt>
      <trkpt lat="45.37871" lon="2.37796">
        <ele>611.7</ele>
        <time>2022-06-14T08:42:58.000Z</time>
      </trkpt>
      <trkpt lat="45.37871" lon="2.37798">
        <ele>611.5</ele>
        <time>2022-06-14T08:42:59.000Z</time>
      </trkpt>
      <trkpt lat="45.37871" lon="2.37799">
        <ele>611.4</ele>
        <time>2022-06-14T08:43:00.000Z</time>
      </trkpt>
      <trkpt lat="45.37871" lon="2.37801">
        <ele>611.2</ele>
        <time>2022-06-14T08:43:01.000Z</time>
      </trkpt>
      <trkpt lat="45.37871" lon="2.37803">
        <ele>611.1</ele>
        <time>2022-06-14T08:43:02.000Z</time>
      </trkpt>
      <trkpt lat="45.37871" lon="2.37804">
        <ele>610.9</ele>
        <time>2022-06-14T08:43:03.000Z</time>
      </trkpt>
      <trkpt lat="45.37871" lon="2.37806">
        <ele>610.7</ele>
        <time>2022-06-14T08:43:04.000Z</time>
      </trkpt>
      <trkpt lat="45.37872" lon="2.37807">
        <ele>610.5</ele>
        <time>2022-06-14T08:43:05.000Z</time>
      </trkpt>
      <trkpt lat="45.37872" lon="2.37809">
        <ele>610.4</ele>
        <time>2022-06-14T08:43:06.000Z</time>
      </trkpt>
      <trkpt lat="45.37872" lon="2.3781">
        <ele>610.2</ele>
        <time>2022-06-14T08:43:07.000Z</time>
      </trkpt>
      <trkpt lat="45.37872" lon="2.37812">
        <ele>610</ele>
        <time>2022-06-14T08:43:08.000Z</time>
      </trkpt>
      <trkpt lat="45.37872" lon="2.37813">
        <ele>609.8</ele>
        <time>2022-06-14T08:43:09.000Z</time>
      </trkpt>
      <trkpt lat="45.37873" lon="2.37815">
        <ele>609.7</ele>
        <time>2022-06-14T08:43:10.000Z</time>
      </trkpt>
      <trkpt lat="45.37873" lon="2.37817">
        <ele>609.5</ele>
        <time>2022-06-14T08:43:11.000Z</time>
      </trkpt>
      <trkpt lat="45.37873" lon="2.37818">
        <ele>609.3</ele>
        <time>2022-06-14T08:43:12.000Z</time>
      </trkpt>
      <trkpt lat="45.37873" lon="2.3782">
        <ele>609.1</ele>
        <time>2022-06-14T08:43:13.000Z</time>
      </trkpt>
      <trkpt lat="45.37873" lon="2.37822">
        <ele>609</ele>
        <time>2022-06-14T08:43:14.000Z</time>
      </trkpt>
      <trkpt lat="45.37873" lon="2.37823">
        <ele>608.8</ele>
        <time>2022-06-14T08:43:15.000Z</time>
      </trkpt>
      <trkpt lat="45.37873" lon="2.37825">
        <ele>608.6</ele>
        <time>2022-06-14T08:43:16.000Z</time>
      </trkpt>
      <trkpt lat="45.37873" lon="2.37827">
        <ele>608.5</ele>
        <time>2022-06-14T08:43:17.000Z</time>
      </trkpt>
      <trkpt lat="45.37873" lon="2.37829">
        <ele>608.3</ele>
        <time>2022-06-14T08:43:18.000Z</time>
      </trkpt>
      <trkpt lat="45.37873" lon="2.37831">
        <ele>608.2</ele>
        <time>2022-06-14T08:43:19.000Z</time>
      </trkpt>
      <trkpt lat="45.37873" lon="2.37832">
        <ele>608.1</ele>
        <time>2022-06-14T08:43:20.000Z</time>
      </trkpt>
      <trkpt lat="45.37873" lon="2.37834">
        <ele>608.1</ele>
        <time>2022-06-14T08:43:21.000Z</time>
      </trkpt>
      <trkpt lat="45.37873" lon="2.37835">
        <ele>608</ele>
        <time>2022-06-14T08:43:22.000Z</time>
      </trkpt>
      <trkpt lat="45.37873" lon="2.37836">
        <ele>608</ele>
        <time>2022-06-14T08:43:24.000Z</time>
      </trkpt>
      <trkpt lat="45.37873" lon="2.37837">
        <ele>608</ele>
        <time>2022-06-14T08:43:31.000Z</time>
      </trkpt>
      <trkpt lat="45.37873" lon="2.37837">
        <ele>608</ele>
        <time>2022-06-14T08:43:35.000Z</time>
      </trkpt>
      <trkpt lat="45.37873" lon="2.37838">
        <ele>608</ele>
        <time>2022-06-14T08:44:21.000Z</time>
      </trkpt>
      <trkpt lat="45.37873" lon="2.37841">
        <ele>608.1</ele>
        <time>2022-06-14T08:44:22.000Z</time>
      </trkpt>
      <trkpt lat="45.37872" lon="2.37842">
        <ele>608.1</ele>
        <time>2022-06-14T08:44:23.000Z</time>
      </trkpt>
      <trkpt lat="45.37872" lon="2.37843">
        <ele>608</ele>
        <time>2022-06-14T08:44:30.000Z</time>
      </trkpt>
      <trkpt lat="45.37873" lon="2.37843">
        <ele>608</ele>
        <time>2022-06-14T08:44:31.000Z</time>
      </trkpt>
      <trkpt lat="45.37873" lon="2.37844">
        <ele>608</ele>
        <time>2022-06-14T08:44:32.000Z</time>
      </trkpt>
      <trkpt lat="45.37873" lon="2.37845">
        <ele>607.9</ele>
        <time>2022-06-14T08:44:33.000Z</time>
      </trkpt>
      <trkpt lat="45.37873" lon="2.37846">
        <ele>607.8</ele>
        <time>2022-06-14T08:44:34.000Z</time>
      </trkpt>
      <trkpt lat="45.37873" lon="2.37847">
        <ele>607.7</ele>
        <time>2022-06-14T08:44:35.000Z</time>
      </trkpt>
      <trkpt lat="45.37874" lon="2.37849">
        <ele>607.5</ele>
        <time>2022-06-14T08:44:36.000Z</time>
      </trkpt>
      <trkpt lat="45.37874" lon="2.3785">
        <ele>607.4</ele>
        <time>2022-06-14T08:44:37.000Z</time>
      </trkpt>
      <trkpt lat="45.37874" lon="2.37852">
        <ele>607.3</ele>
        <time>2022-06-14T08:44:38.000Z</time>
      </trkpt>
      <trkpt lat="45.37875" lon="2.37853">
        <ele>607.2</ele>
        <time>2022-06-14T08:44:39.000Z</time>
      </trkpt>
      <trkpt lat="45.37875" lon="2.37855">
        <ele>607.1</ele>
        <time>2022-06-14T08:44:40.000Z</time>
      </trkpt>
      <trkpt lat="45.37875" lon="2.37856">
        <ele>607</ele>
        <time>2022-06-14T08:44:41.000Z</time>
      </trkpt>
      <trkpt lat="45.37875" lon="2.37858">
        <ele>607</ele>
        <time>2022-06-14T08:44:42.000Z</time>
      </trkpt>
      <trkpt lat="45.37875" lon="2.37859">
        <ele>607</ele>
        <time>2022-06-14T08:44:43.000Z</time>
      </trkpt>
      <trkpt lat="45.37875" lon="2.37861">
        <ele>607</ele>
        <time>2022-06-14T08:44:44.000Z</time>
      </trkpt>
      <trkpt lat="45.37874" lon="2.37863">
        <ele>607.1</ele>
        <time>2022-06-14T08:44:45.000Z</time>
      </trkpt>
      <trkpt lat="45.37874" lon="2.37864">
        <ele>607.1</ele>
        <time>2022-06-14T08:44:46.000Z</time>
      </trkpt>
      <trkpt lat="45.37873" lon="2.37866">
        <ele>607.2</ele>
        <time>2022-06-14T08:44:47.000Z</time>
      </trkpt>
      <trkpt lat="45.37873" lon="2.37868">
        <ele>607.3</ele>
        <time>2022-06-14T08:44:48.000Z</time>
      </trkpt>
      <trkpt lat="45.37873" lon="2.3787">
        <ele>607.3</ele>
        <time>2022-06-14T08:44:49.000Z</time>
      </trkpt>
      <trkpt lat="45.37872" lon="2.37872">
        <ele>607.4</ele>
        <time>2022-06-14T08:44:50.000Z</time>
      </trkpt>
      <trkpt lat="45.37872" lon="2.37873">
        <ele>607.4</ele>
        <time>2022-06-14T08:44:51.000Z</time>
      </trkpt>
      <trkpt lat="45.37872" lon="2.37875">
        <ele>607.4</ele>
        <time>2022-06-14T08:44:52.000Z</time>
      </trkpt>
      <trkpt lat="45.37871" lon="2.37877">
        <ele>607.4</ele>
        <time>2022-06-14T08:44:53.000Z</time>
      </trkpt>
      <trkpt lat="45.37871" lon="2.37879">
        <ele>607.5</ele>
        <time>2022-06-14T08:44:54.000Z</time>
      </trkpt>
      <trkpt lat="45.37871" lon="2.37881">
        <ele>607.4</ele>
        <time>2022-06-14T08:44:55.000Z</time>
      </trkpt>
      <trkpt lat="45.37871" lon="2.37883">
        <ele>607.4</ele>
        <time>2022-06-14T08:44:56.000Z</time>
      </trkpt>
      <trkpt lat="45.37871" lon="2.37885">
        <ele>607.4</ele>
        <time>2022-06-14T08:44:57.000Z</time>
      </trkpt>
      <trkpt lat="45.3787" lon="2.37887">
        <ele>607.4</ele>
        <time>2022-06-14T08:44:58.000Z</time>
      </trkpt>
      <trkpt lat="45.3787" lon="2.37889">
        <ele>607.4</ele>
        <time>2022-06-14T08:44:59.000Z</time>
      </trkpt>
      <trkpt lat="45.3787" lon="2.37891">
        <ele>607.4</ele>
        <time>2022-06-14T08:45:00.000Z</time>
      </trkpt>
      <trkpt lat="45.3787" lon="2.37893">
        <ele>607.4</ele>
        <time>2022-06-14T08:45:01.000Z</time>
      </trkpt>
      <trkpt lat="45.3787" lon="2.37895">
        <ele>607.4</ele>
        <time>2022-06-14T08:45:02.000Z</time>
      </trkpt>
      <trkpt lat="45.3787" lon="2.37897">
        <ele>607.4</ele>
        <time>2022-06-14T08:45:03.000Z</time>
      </trkpt>
      <trkpt lat="45.3787" lon="2.37899">
        <ele>607.4</ele>
        <time>2022-06-14T08:45:04.000Z</time>
      </trkpt>
      <trkpt lat="45.3787" lon="2.379">
        <ele>607.3</ele>
        <time>2022-06-14T08:45:05.000Z</time>
      </trkpt>
      <trkpt lat="45.3787" lon="2.37902">
        <ele>607.3</ele>
        <time>2022-06-14T08:45:06.000Z</time>
      </trkpt>
      <trkpt lat="45.37869" lon="2.37904">
        <ele>607.3</ele>
        <time>2022-06-14T08:45:07.000Z</time>
      </trkpt>
      <trkpt lat="45.37869" lon="2.37906">
        <ele>607.2</ele>
        <time>2022-06-14T08:45:08.000Z</time>
      </trkpt>
      <trkpt lat="45.37869" lon="2.37907">
        <ele>607.2</ele>
        <time>2022-06-14T08:45:09.000Z</time>
      </trkpt>
      <trkpt lat="45.37869" lon="2.37909">
        <ele>607.1</ele>
        <time>2022-06-14T08:45:10.000Z</time>
      </trkpt>
      <trkpt lat="45.37869" lon="2.37911">
        <ele>607.1</ele>
        <time>2022-06-14T08:45:11.000Z</time>
      </trkpt>
      <trkpt lat="45.37869" lon="2.37912">
        <ele>607.1</ele>
        <time>2022-06-14T08:45:12.000Z</time>
      </trkpt>
      <trkpt lat="45.37869" lon="2.37914">
        <ele>607</ele>
        <time>2022-06-14T08:45:13.000Z</time>
      </trkpt>
      <trkpt lat="45.37869" lon="2.37916">
        <ele>606.9</ele>
        <time>2022-06-14T08:45:14.000Z</time>
      </trkpt>
      <trkpt lat="45.3787" lon="2.37918">
        <ele>606.9</ele>
        <time>2022-06-14T08:45:15.000Z</time>
      </trkpt>
      <trkpt lat="45.3787" lon="2.37919">
        <ele>606.8</ele>
        <time>2022-06-14T08:45:16.000Z</time>
      </trkpt>
      <trkpt lat="45.3787" lon="2.37921">
        <ele>606.7</ele>
        <time>2022-06-14T08:45:17.000Z</time>
      </trkpt>
      <trkpt lat="45.3787" lon="2.37923">
        <ele>606.7</ele>
        <time>2022-06-14T08:45:18.000Z</time>
      </trkpt>
      <trkpt lat="45.3787" lon="2.37925">
        <ele>606.6</ele>
        <time>2022-06-14T08:45:19.000Z</time>
      </trkpt>
      <trkpt lat="45.3787" lon="2.37927">
        <ele>606.5</ele>
        <time>2022-06-14T08:45:20.000Z</time>
      </trkpt>
      <trkpt lat="45.3787" lon="2.37929">
        <ele>606.4</ele>
        <time>2022-06-14T08:45:21.000Z</time>
      </trkpt>
      <trkpt lat="45.37871" lon="2.37932">
        <ele>606.3</ele>
        <time>2022-06-14T08:45:22.000Z</time>
      </trkpt>
      <trkpt lat="45.37871" lon="2.37934">
        <ele>606.2</ele>
        <time>2022-06-14T08:45:23.000Z</time>
      </trkpt>
      <trkpt lat="45.37871" lon="2.37936">
        <ele>606.1</ele>
        <time>2022-06-14T08:45:24.000Z</time>
      </trkpt>
      <trkpt lat="45.37871" lon="2.37939">
        <ele>606</ele>
        <time>2022-06-14T08:45:25.000Z</time>
      </trkpt>
      <trkpt lat="45.37872" lon="2.37941">
        <ele>605.9</ele>
        <time>2022-06-14T08:45:26.000Z</time>
      </trkpt>
      <trkpt lat="45.37872" lon="2.37943">
        <ele>605.8</ele>
        <time>2022-06-14T08:45:27.000Z</time>
      </trkpt>
      <trkpt lat="45.37872" lon="2.37946">
        <ele>605.7</ele>
        <time>2022-06-14T08:45:28.000Z</time>
      </trkpt>
      <trkpt lat="45.37872" lon="2.37948">
        <ele>605.6</ele>
        <time>2022-06-14T08:45:29.000Z</time>
      </trkpt>
      <trkpt lat="45.37872" lon="2.3795">
        <ele>605.6</ele>
        <time>2022-06-14T08:45:30.000Z</time>
      </trkpt>
      <trkpt lat="45.37872" lon="2.37952">
        <ele>605.6</ele>
        <time>2022-06-14T08:45:31.000Z</time>
      </trkpt>
      <trkpt lat="45.37872" lon="2.37954">
        <ele>605.5</ele>
        <time>2022-06-14T08:45:32.000Z</time>
      </trkpt>
      <trkpt lat="45.37872" lon="2.37956">
        <ele>605.5</ele>
        <time>2022-06-14T08:45:33.000Z</time>
      </trkpt>
      <trkpt lat="45.37871" lon="2.37958">
        <ele>605.5</ele>
        <time>2022-06-14T08:45:34.000Z</time>
      </trkpt>
      <trkpt lat="45.37871" lon="2.3796">
        <ele>605.5</ele>
        <time>2022-06-14T08:45:35.000Z</time>
      </trkpt>
      <trkpt lat="45.37871" lon="2.37963">
        <ele>605.5</ele>
        <time>2022-06-14T08:45:36.000Z</time>
      </trkpt>
      <trkpt lat="45.37872" lon="2.37965">
        <ele>605.4</ele>
        <time>2022-06-14T08:45:37.000Z</time>
      </trkpt>
      <trkpt lat="45.37872" lon="2.37967">
        <ele>605.3</ele>
        <time>2022-06-14T08:45:38.000Z</time>
      </trkpt>
      <trkpt lat="45.37872" lon="2.37969">
        <ele>605.2</ele>
        <time>2022-06-14T08:45:39.000Z</time>
      </trkpt>
      <trkpt lat="45.37872" lon="2.37971">
        <ele>605.1</ele>
        <time>2022-06-14T08:45:40.000Z</time>
      </trkpt>
      <trkpt lat="45.37872" lon="2.37973">
        <ele>605.1</ele>
        <time>2022-06-14T08:45:41.000Z</time>
      </trkpt>
      <trkpt lat="45.37872" lon="2.37975">
        <ele>605</ele>
        <time>2022-06-14T08:45:42.000Z</time>
      </trkpt>
      <trkpt lat="45.37872" lon="2.37976">
        <ele>605</ele>
        <time>2022-06-14T08:45:43.000Z</time>
      </trkpt>
      <trkpt lat="45.37872" lon="2.37978">
        <ele>605</ele>
        <time>2022-06-14T08:45:44.000Z</time>
      </trkpt>
      <trkpt lat="45.37872" lon="2.3798">
        <ele>604.9</ele>
        <time>2022-06-14T08:45:45.000Z</time>
      </trkpt>
      <trkpt lat="45.37872" lon="2.37982">
        <ele>604.9</ele>
        <time>2022-06-14T08:45:46.000Z</time>
      </trkpt>
      <trkpt lat="45.37872" lon="2.37984">
        <ele>604.8</ele>
        <time>2022-06-14T08:45:47.000Z</time>
      </trkpt>
      <trkpt lat="45.37872" lon="2.37986">
        <ele>604.8</ele>
        <time>2022-06-14T08:45:48.000Z</time>
      </trkpt>
      <trkpt lat="45.37872" lon="2.37988">
        <ele>604.8</ele>
        <time>2022-06-14T08:45:49.000Z</time>
      </trkpt>
      <trkpt lat="45.37872" lon="2.3799">
        <ele>604.7</ele>
        <time>2022-06-14T08:45:50.000Z</time>
      </trkpt>
      <trkpt lat="45.37872" lon="2.37993">
        <ele>604.6</ele>
        <time>2022-06-14T08:45:51.000Z</time>
      </trkpt>
      <trkpt lat="45.37873" lon="2.37995">
        <ele>604.6</ele>
        <time>2022-06-14T08:45:52.000Z</time>
      </trkpt>
      <trkpt lat="45.37873" lon="2.37997">
        <ele>604.5</ele>
        <time>2022-06-14T08:45:53.000Z</time>
      </trkpt>
      <trkpt lat="45.37873" lon="2.37999">
        <ele>604.5</ele>
        <time>2022-06-14T08:45:54.000Z</time>
      </trkpt>
      <trkpt lat="45.37873" lon="2.38001">
        <ele>604.3</ele>
        <time>2022-06-14T08:45:55.000Z</time>
      </trkpt>
      <trkpt lat="45.37873" lon="2.38003">
        <ele>604.1</ele>
        <time>2022-06-14T08:45:56.000Z</time>
      </trkpt>
      <trkpt lat="45.37873" lon="2.38005">
        <ele>603.9</ele>
        <time>2022-06-14T08:45:57.000Z</time>
      </trkpt>
      <trkpt lat="45.37873" lon="2.38007">
        <ele>603.6</ele>
        <time>2022-06-14T08:45:58.000Z</time>
      </trkpt>
      <trkpt lat="45.37874" lon="2.38009">
        <ele>603.4</ele>
        <time>2022-06-14T08:45:59.000Z</time>
      </trkpt>
      <trkpt lat="45.37874" lon="2.38011">
        <ele>603.1</ele>
        <time>2022-06-14T08:46:00.000Z</time>
      </trkpt>
      <trkpt lat="45.37874" lon="2.38013">
        <ele>602.9</ele>
        <time>2022-06-14T08:46:01.000Z</time>
      </trkpt>
      <trkpt lat="45.37875" lon="2.38014">
        <ele>602.7</ele>
        <time>2022-06-14T08:46:02.000Z</time>
      </trkpt>
      <trkpt lat="45.37875" lon="2.38016">
        <ele>602.4</ele>
        <time>2022-06-14T08:46:03.000Z</time>
      </trkpt>
      <trkpt lat="45.37875" lon="2.38018">
        <ele>602.2</ele>
        <time>2022-06-14T08:46:04.000Z</time>
      </trkpt>
      <trkpt lat="45.37876" lon="2.3802">
        <ele>602</ele>
        <time>2022-06-14T08:46:05.000Z</time>
      </trkpt>
      <trkpt lat="45.37876" lon="2.38021">
        <ele>601.7</ele>
        <time>2022-06-14T08:46:06.000Z</time>
      </trkpt>
      <trkpt lat="45.37877" lon="2.38023">
        <ele>601.5</ele>
        <time>2022-06-14T08:46:07.000Z</time>
      </trkpt>
      <trkpt lat="45.37877" lon="2.38025">
        <ele>601.3</ele>
        <time>2022-06-14T08:46:08.000Z</time>
      </trkpt>
      <trkpt lat="45.37878" lon="2.38026">
        <ele>601.1</ele>
        <time>2022-06-14T08:46:09.000Z</time>
      </trkpt>
      <trkpt lat="45.37878" lon="2.38028">
        <ele>600.9</ele>
        <time>2022-06-14T08:46:10.000Z</time>
      </trkpt>
      <trkpt lat="45.37879" lon="2.38029">
        <ele>600.6</ele>
        <time>2022-06-14T08:46:11.000Z</time>
      </trkpt>
      <trkpt lat="45.37879" lon="2.38031">
        <ele>600.4</ele>
        <time>2022-06-14T08:46:12.000Z</time>
      </trkpt>
      <trkpt lat="45.3788" lon="2.38032">
        <ele>600.3</ele>
        <time>2022-06-14T08:46:13.000Z</time>
      </trkpt>
      <trkpt lat="45.3788" lon="2.38034">
        <ele>600</ele>
        <time>2022-06-14T08:46:14.000Z</time>
      </trkpt>
      <trkpt lat="45.3788" lon="2.38035">
        <ele>599.9</ele>
        <time>2022-06-14T08:46:15.000Z</time>
      </trkpt>
      <trkpt lat="45.37881" lon="2.38037">
        <ele>599.7</ele>
        <time>2022-06-14T08:46:16.000Z</time>
      </trkpt>
      <trkpt lat="45.37881" lon="2.38038">
        <ele>599.5</ele>
        <time>2022-06-14T08:46:17.000Z</time>
      </trkpt>
      <trkpt lat="45.37881" lon="2.3804">
        <ele>599.3</ele>
        <time>2022-06-14T08:46:18.000Z</time>
      </trkpt>
      <trkpt lat="45.37882" lon="2.38041">
        <ele>599.1</ele>
        <time>2022-06-14T08:46:19.000Z</time>
      </trkpt>
      <trkpt lat="45.37882" lon="2.38043">
        <ele>599</ele>
        <time>2022-06-14T08:46:20.000Z</time>
      </trkpt>
      <trkpt lat="45.37882" lon="2.38045">
        <ele>598.8</ele>
        <time>2022-06-14T08:46:21.000Z</time>
      </trkpt>
      <trkpt lat="45.37882" lon="2.38046">
        <ele>598.7</ele>
        <time>2022-06-14T08:46:22.000Z</time>
      </trkpt>
      <trkpt lat="45.37882" lon="2.38048">
        <ele>598.5</ele>
        <time>2022-06-14T08:46:23.000Z</time>
      </trkpt>
      <trkpt lat="45.37882" lon="2.3805">
        <ele>598.4</ele>
        <time>2022-06-14T08:46:24.000Z</time>
      </trkpt>
      <trkpt lat="45.37882" lon="2.38052">
        <ele>598.2</ele>
        <time>2022-06-14T08:46:25.000Z</time>
      </trkpt>
      <trkpt lat="45.37882" lon="2.38053">
        <ele>598.1</ele>
        <time>2022-06-14T08:46:26.000Z</time>
      </trkpt>
      <trkpt lat="45.37882" lon="2.38055">
        <ele>598</ele>
        <time>2022-06-14T08:46:27.000Z</time>
      </trkpt>
      <trkpt lat="45.37882" lon="2.38057">
        <ele>597.8</ele>
        <time>2022-06-14T08:46:28.000Z</time>
      </trkpt>
      <trkpt lat="45.37882" lon="2.38058">
        <ele>597.7</ele>
        <time>2022-06-14T08:46:29.000Z</time>
      </trkpt>
      <trkpt lat="45.37882" lon="2.38059">
        <ele>597.6</ele>
        <time>2022-06-14T08:46:30.000Z</time>
      </trkpt>
      <trkpt lat="45.37882" lon="2.38061">
        <ele>597.5</ele>
        <time>2022-06-14T08:46:31.000Z</time>
      </trkpt>
      <trkpt lat="45.37882" lon="2.38062">
        <ele>597.3</ele>
        <time>2022-06-14T08:46:32.000Z</time>
      </trkpt>
      <trkpt lat="45.37882" lon="2.38063">
        <ele>597.2</ele>
        <time>2022-06-14T08:46:33.000Z</time>
      </trkpt>
      <trkpt lat="45.37882" lon="2.38065">
        <ele>597.1</ele>
        <time>2022-06-14T08:46:34.000Z</time>
      </trkpt>
      <trkpt lat="45.37882" lon="2.38066">
        <ele>596.9</ele>
        <time>2022-06-14T08:46:35.000Z</time>
      </trkpt>
      <trkpt lat="45.37883" lon="2.38068">
        <ele>596.8</ele>
        <time>2022-06-14T08:46:36.000Z</time>
      </trkpt>
      <trkpt lat="45.37883" lon="2.3807">
        <ele>596.6</ele>
        <time>2022-06-14T08:46:37.000Z</time>
      </trkpt>
      <trkpt lat="45.37883" lon="2.38071">
        <ele>596.5</ele>
        <time>2022-06-14T08:46:38.000Z</time>
      </trkpt>
      <trkpt lat="45.37883" lon="2.38073">
        <ele>596.3</ele>
        <time>2022-06-14T08:46:39.000Z</time>
      </trkpt>
      <trkpt lat="45.37883" lon="2.38075">
        <ele>596.1</ele>
        <time>2022-06-14T08:46:40.000Z</time>
      </trkpt>
      <trkpt lat="45.37884" lon="2.38077">
        <ele>595.9</ele>
        <time>2022-06-14T08:46:41.000Z</time>
      </trkpt>
      <trkpt lat="45.37884" lon="2.38079">
        <ele>595.7</ele>
        <time>2022-06-14T08:46:42.000Z</time>
      </trkpt>
      <trkpt lat="45.37884" lon="2.38081">
        <ele>595.5</ele>
        <time>2022-06-14T08:46:43.000Z</time>
      </trkpt>
      <trkpt lat="45.37884" lon="2.38083">
        <ele>595.3</ele>
        <time>2022-06-14T08:46:44.000Z</time>
      </trkpt>
      <trkpt lat="45.37885" lon="2.38085">
        <ele>595.1</ele>
        <time>2022-06-14T08:46:45.000Z</time>
      </trkpt>
      <trkpt lat="45.37885" lon="2.38087">
        <ele>594.8</ele>
        <time>2022-06-14T08:46:46.000Z</time>
      </trkpt>
      <trkpt lat="45.37886" lon="2.38089">
        <ele>594.5</ele>
        <time>2022-06-14T08:46:47.000Z</time>
      </trkpt>
      <trkpt lat="45.37886" lon="2.38091">
        <ele>594.3</ele>
        <time>2022-06-14T08:46:48.000Z</time>
      </trkpt>
      <trkpt lat="45.37887" lon="2.38093">
        <ele>594</ele>
        <time>2022-06-14T08:46:49.000Z</time>
      </trkpt>
      <trkpt lat="45.37888" lon="2.38094">
        <ele>593.8</ele>
        <time>2022-06-14T08:46:50.000Z</time>
      </trkpt>
      <trkpt lat="45.37888" lon="2.38096">
        <ele>593.5</ele>
        <time>2022-06-14T08:46:51.000Z</time>
      </trkpt>
      <trkpt lat="45.37889" lon="2.38098">
        <ele>593.3</ele>
        <time>2022-06-14T08:46:52.000Z</time>
      </trkpt>
      <trkpt lat="45.3789" lon="2.38099">
        <ele>593.1</ele>
        <time>2022-06-14T08:46:53.000Z</time>
      </trkpt>
      <trkpt lat="45.37891" lon="2.38101">
        <ele>592.8</ele>
        <time>2022-06-14T08:46:54.000Z</time>
      </trkpt>
      <trkpt lat="45.37892" lon="2.38103">
        <ele>592.6</ele>
        <time>2022-06-14T08:46:55.000Z</time>
      </trkpt>
      <trkpt lat="45.37892" lon="2.38104">
        <ele>592.4</ele>
        <time>2022-06-14T08:46:56.000Z</time>
      </trkpt>
      <trkpt lat="45.37893" lon="2.38106">
        <ele>592.2</ele>
        <time>2022-06-14T08:46:57.000Z</time>
      </trkpt>
      <trkpt lat="45.37894" lon="2.38107">
        <ele>592</ele>
        <time>2022-06-14T08:46:58.000Z</time>
      </trkpt>
      <trkpt lat="45.37895" lon="2.38108">
        <ele>591.8</ele>
        <time>2022-06-14T08:46:59.000Z</time>
      </trkpt>
      <trkpt lat="45.37896" lon="2.3811">
        <ele>591.6</ele>
        <time>2022-06-14T08:47:00.000Z</time>
      </trkpt>
      <trkpt lat="45.37897" lon="2.38111">
        <ele>591.4</ele>
        <time>2022-06-14T08:47:01.000Z</time>
      </trkpt>
      <trkpt lat="45.37898" lon="2.38113">
        <ele>591.2</ele>
        <time>2022-06-14T08:47:02.000Z</time>
      </trkpt>
      <trkpt lat="45.37898" lon="2.38114">
        <ele>591</ele>
        <time>2022-06-14T08:47:03.000Z</time>
      </trkpt>
      <trkpt lat="45.37899" lon="2.38115">
        <ele>590.8</ele>
        <time>2022-06-14T08:47:04.000Z</time>
      </trkpt>
      <trkpt lat="45.379" lon="2.38117">
        <ele>590.6</ele>
        <time>2022-06-14T08:47:05.000Z</time>
      </trkpt>
      <trkpt lat="45.37901" lon="2.38118">
        <ele>590.4</ele>
        <time>2022-06-14T08:47:06.000Z</time>
      </trkpt>
      <trkpt lat="45.37902" lon="2.38119">
        <ele>590.3</ele>
        <time>2022-06-14T08:47:07.000Z</time>
      </trkpt>
      <trkpt lat="45.37902" lon="2.38121">
        <ele>590.1</ele>
        <time>2022-06-14T08:47:08.000Z</time>
      </trkpt>
      <trkpt lat="45.37903" lon="2.38122">
        <ele>589.9</ele>
        <time>2022-06-14T08:47:09.000Z</time>
      </trkpt>
      <trkpt lat="45.37904" lon="2.38123">
        <ele>589.7</ele>
        <time>2022-06-14T08:47:10.000Z</time>
      </trkpt>
      <trkpt lat="45.37905" lon="2.38125">
        <ele>589.5</ele>
        <time>2022-06-14T08:47:11.000Z</time>
      </trkpt>
      <trkpt lat="45.37906" lon="2.38126">
        <ele>589.4</ele>
        <time>2022-06-14T08:47:12.000Z</time>
      </trkpt>
      <trkpt lat="45.37906" lon="2.38128">
        <ele>589.2</ele>
        <time>2022-06-14T08:47:13.000Z</time>
      </trkpt>
      <trkpt lat="45.37907" lon="2.38129">
        <ele>589</ele>
        <time>2022-06-14T08:47:14.000Z</time>
      </trkpt>
      <trkpt lat="45.37908" lon="2.3813">
        <ele>588.8</ele>
        <time>2022-06-14T08:47:15.000Z</time>
      </trkpt>
      <trkpt lat="45.37909" lon="2.38132">
        <ele>588.6</ele>
        <time>2022-06-14T08:47:16.000Z</time>
      </trkpt>
      <trkpt lat="45.3791" lon="2.38133">
        <ele>588.5</ele>
        <time>2022-06-14T08:47:17.000Z</time>
      </trkpt>
      <trkpt lat="45.379" lon="2.38154">
        <ele>581.8</ele>
        <time>2022-06-14T08:47:18.000Z</time>
      </trkpt>
      <trkpt lat="45.37923" lon="2.3819">
        <ele>579.6</ele>
        <time>2022-06-14T08:47:40.000Z</time>
      </trkpt>
      <trkpt lat="45.37929" lon="2.38169">
        <ele>584</ele>
        <time>2022-06-14T08:47:41.000Z</time>
      </trkpt>
      <trkpt lat="45.37931" lon="2.3817">
        <ele>583.8</ele>
        <time>2022-06-14T08:47:42.000Z</time>
      </trkpt>
      <trkpt lat="45.37932" lon="2.38172">
        <ele>583.6</ele>
        <time>2022-06-14T08:47:43.000Z</time>
      </trkpt>
      <trkpt lat="45.37933" lon="2.38173">
        <ele>583.4</ele>
        <time>2022-06-14T08:47:44.000Z</time>
      </trkpt>
      <trkpt lat="45.37934" lon="2.38174">
        <ele>583.2</ele>
        <time>2022-06-14T08:47:45.000Z</time>
      </trkpt>
      <trkpt lat="45.37936" lon="2.38175">
        <ele>583</ele>
        <time>2022-06-14T08:47:46.000Z</time>
      </trkpt>
      <trkpt lat="45.37937" lon="2.38176">
        <ele>582.8</ele>
        <time>2022-06-14T08:47:47.000Z</time>
      </trkpt>
      <trkpt lat="45.37939" lon="2.38177">
        <ele>582.7</ele>
        <time>2022-06-14T08:47:48.000Z</time>
      </trkpt>
      <trkpt lat="45.3794" lon="2.38178">
        <ele>582.5</ele>
        <time>2022-06-14T08:47:49.000Z</time>
      </trkpt>
      <trkpt lat="45.37942" lon="2.38178">
        <ele>582.4</ele>
        <time>2022-06-14T08:47:50.000Z</time>
      </trkpt>
      <trkpt lat="45.37943" lon="2.38179">
        <ele>582.3</ele>
        <time>2022-06-14T08:47:51.000Z</time>
      </trkpt>
      <trkpt lat="45.37944" lon="2.38179">
        <ele>582.1</ele>
        <time>2022-06-14T08:47:52.000Z</time>
      </trkpt>
      <trkpt lat="45.37946" lon="2.38179">
        <ele>582</ele>
        <time>2022-06-14T08:47:53.000Z</time>
      </trkpt>
      <trkpt lat="45.37947" lon="2.3818">
        <ele>582</ele>
        <time>2022-06-14T08:47:54.000Z</time>
      </trkpt>
      <trkpt lat="45.37948" lon="2.3818">
        <ele>581.9</ele>
        <time>2022-06-14T08:47:55.000Z</time>
      </trkpt>
      <trkpt lat="45.3795" lon="2.3818">
        <ele>581.8</ele>
        <time>2022-06-14T08:47:56.000Z</time>
      </trkpt>
      <trkpt lat="45.37951" lon="2.3818">
        <ele>581.7</ele>
        <time>2022-06-14T08:47:57.000Z</time>
      </trkpt>
      <trkpt lat="45.37952" lon="2.38179">
        <ele>581.7</ele>
        <time>2022-06-14T08:47:58.000Z</time>
      </trkpt>
      <trkpt lat="45.37954" lon="2.38179">
        <ele>581.6</ele>
        <time>2022-06-14T08:47:59.000Z</time>
      </trkpt>
      <trkpt lat="45.37955" lon="2.38179">
        <ele>581.6</ele>
        <time>2022-06-14T08:48:00.000Z</time>
      </trkpt>
      <trkpt lat="45.37956" lon="2.38179">
        <ele>581.5</ele>
        <time>2022-06-14T08:48:01.000Z</time>
      </trkpt>
      <trkpt lat="45.37958" lon="2.38178">
        <ele>581.5</ele>
        <time>2022-06-14T08:48:02.000Z</time>
      </trkpt>
      <trkpt lat="45.37959" lon="2.38178">
        <ele>581.5</ele>
        <time>2022-06-14T08:48:03.000Z</time>
      </trkpt>
      <trkpt lat="45.3796" lon="2.38177">
        <ele>581.5</ele>
        <time>2022-06-14T08:48:04.000Z</time>
      </trkpt>
      <trkpt lat="45.37961" lon="2.38177">
        <ele>581.4</ele>
        <time>2022-06-14T08:48:05.000Z</time>
      </trkpt>
      <trkpt lat="45.37963" lon="2.38176">
        <ele>581.4</ele>
        <time>2022-06-14T08:48:06.000Z</time>
      </trkpt>
      <trkpt lat="45.37964" lon="2.38176">
        <ele>581.4</ele>
        <time>2022-06-14T08:48:07.000Z</time>
      </trkpt>
      <trkpt lat="45.37965" lon="2.38175">
        <ele>581.4</ele>
        <time>2022-06-14T08:48:08.000Z</time>
      </trkpt>
      <trkpt lat="45.37966" lon="2.38175">
        <ele>581.3</ele>
        <time>2022-06-14T08:48:09.000Z</time>
      </trkpt>
      <trkpt lat="45.37968" lon="2.38174">
        <ele>581.3</ele>
        <time>2022-06-14T08:48:10.000Z</time>
      </trkpt>
      <trkpt lat="45.37969" lon="2.38174">
        <ele>581.3</ele>
        <time>2022-06-14T08:48:11.000Z</time>
      </trkpt>
      <trkpt lat="45.3797" lon="2.38173">
        <ele>581.2</ele>
        <time>2022-06-14T08:48:12.000Z</time>
      </trkpt>
      <trkpt lat="45.37971" lon="2.38173">
        <ele>581.2</ele>
        <time>2022-06-14T08:48:13.000Z</time>
      </trkpt>
      <trkpt lat="45.37973" lon="2.38172">
        <ele>581.2</ele>
        <time>2022-06-14T08:48:14.000Z</time>
      </trkpt>
      <trkpt lat="45.37974" lon="2.38172">
        <ele>581.1</ele>
        <time>2022-06-14T08:48:15.000Z</time>
      </trkpt>
      <trkpt lat="45.37975" lon="2.38172">
        <ele>581.1</ele>
        <time>2022-06-14T08:48:16.000Z</time>
      </trkpt>
      <trkpt lat="45.37977" lon="2.38171">
        <ele>581</ele>
        <time>2022-06-14T08:48:17.000Z</time>
      </trkpt>
      <trkpt lat="45.37978" lon="2.38171">
        <ele>581</ele>
        <time>2022-06-14T08:48:18.000Z</time>
      </trkpt>
      <trkpt lat="45.37979" lon="2.38171">
        <ele>580.9</ele>
        <time>2022-06-14T08:48:19.000Z</time>
      </trkpt>
      <trkpt lat="45.37981" lon="2.38171">
        <ele>580.8</ele>
        <time>2022-06-14T08:48:20.000Z</time>
      </trkpt>
      <trkpt lat="45.37982" lon="2.38171">
        <ele>580.7</ele>
        <time>2022-06-14T08:48:21.000Z</time>
      </trkpt>
      <trkpt lat="45.37983" lon="2.38171">
        <ele>580.6</ele>
        <time>2022-06-14T08:48:22.000Z</time>
      </trkpt>
      <trkpt lat="45.37985" lon="2.38171">
        <ele>580.6</ele>
        <time>2022-06-14T08:48:23.000Z</time>
      </trkpt>
      <trkpt lat="45.37986" lon="2.38172">
        <ele>580.4</ele>
        <time>2022-06-14T08:48:24.000Z</time>
      </trkpt>
      <trkpt lat="45.37987" lon="2.38172">
        <ele>580.3</ele>
        <time>2022-06-14T08:48:25.000Z</time>
      </trkpt>
      <trkpt lat="45.37988" lon="2.38173">
        <ele>580.2</ele>
        <time>2022-06-14T08:48:26.000Z</time>
      </trkpt>
      <trkpt lat="45.37989" lon="2.38174">
        <ele>580.1</ele>
        <time>2022-06-14T08:48:27.000Z</time>
      </trkpt>
      <trkpt lat="45.3799" lon="2.38175">
        <ele>580</ele>
        <time>2022-06-14T08:48:28.000Z</time>
      </trkpt>
      <trkpt lat="45.37991" lon="2.38176">
        <ele>579.8</ele>
        <time>2022-06-14T08:48:29.000Z</time>
      </trkpt>
      <trkpt lat="45.37992" lon="2.38177">
        <ele>579.7</ele>
        <time>2022-06-14T08:48:30.000Z</time>
      </trkpt>
      <trkpt lat="45.37993" lon="2.38179">
        <ele>579.5</ele>
        <time>2022-06-14T08:48:31.000Z</time>
      </trkpt>
      <trkpt lat="45.37994" lon="2.3818">
        <ele>579.4</ele>
        <time>2022-06-14T08:48:32.000Z</time>
      </trkpt>
      <trkpt lat="45.37995" lon="2.38181">
        <ele>579.3</ele>
        <time>2022-06-14T08:48:33.000Z</time>
      </trkpt>
      <trkpt lat="45.37996" lon="2.38182">
        <ele>579.1</ele>
        <time>2022-06-14T08:48:34.000Z</time>
      </trkpt>
      <trkpt lat="45.37997" lon="2.38183">
        <ele>579</ele>
        <time>2022-06-14T08:48:35.000Z</time>
      </trkpt>
      <trkpt lat="45.37998" lon="2.38184">
        <ele>578.9</ele>
        <time>2022-06-14T08:48:36.000Z</time>
      </trkpt>
      <trkpt lat="45.37998" lon="2.38185">
        <ele>578.8</ele>
        <time>2022-06-14T08:48:37.000Z</time>
      </trkpt>
      <trkpt lat="45.37999" lon="2.38186">
        <ele>578.6</ele>
        <time>2022-06-14T08:48:38.000Z</time>
      </trkpt>
      <trkpt lat="45.38" lon="2.38187">
        <ele>578.5</ele>
        <time>2022-06-14T08:48:39.000Z</time>
      </trkpt>
      <trkpt lat="45.38001" lon="2.38188">
        <ele>578.3</ele>
        <time>2022-06-14T08:48:40.000Z</time>
      </trkpt>
      <trkpt lat="45.38002" lon="2.38189">
        <ele>578.1</ele>
        <time>2022-06-14T08:48:41.000Z</time>
      </trkpt>
      <trkpt lat="45.38003" lon="2.3819">
        <ele>577.9</ele>
        <time>2022-06-14T08:48:42.000Z</time>
      </trkpt>
      <trkpt lat="45.38004" lon="2.38191">
        <ele>577.7</ele>
        <time>2022-06-14T08:48:43.000Z</time>
      </trkpt>
      <trkpt lat="45.38005" lon="2.38193">
        <ele>577.4</ele>
        <time>2022-06-14T08:48:44.000Z</time>
      </trkpt>
      <trkpt lat="45.38006" lon="2.38194">
        <ele>577.2</ele>
        <time>2022-06-14T08:48:45.000Z</time>
      </trkpt>
      <trkpt lat="45.38007" lon="2.38195">
        <ele>577</ele>
        <time>2022-06-14T08:48:46.000Z</time>
      </trkpt>
      <trkpt lat="45.38008" lon="2.38196">
        <ele>576.8</ele>
        <time>2022-06-14T08:48:47.000Z</time>
      </trkpt>
      <trkpt lat="45.38009" lon="2.38197">
        <ele>576.6</ele>
        <time>2022-06-14T08:48:48.000Z</time>
      </trkpt>
      <trkpt lat="45.3801" lon="2.38199">
        <ele>576.3</ele>
        <time>2022-06-14T08:48:49.000Z</time>
      </trkpt>
      <trkpt lat="45.38011" lon="2.382">
        <ele>576.1</ele>
        <time>2022-06-14T08:48:50.000Z</time>
      </trkpt>
      <trkpt lat="45.38012" lon="2.38201">
        <ele>575.9</ele>
        <time>2022-06-14T08:48:51.000Z</time>
      </trkpt>
      <trkpt lat="45.38013" lon="2.38202">
        <ele>575.7</ele>
        <time>2022-06-14T08:48:52.000Z</time>
      </trkpt>
      <trkpt lat="45.38014" lon="2.38203">
        <ele>575.5</ele>
        <time>2022-06-14T08:48:53.000Z</time>
      </trkpt>
      <trkpt lat="45.38015" lon="2.38205">
        <ele>575.2</ele>
        <time>2022-06-14T08:48:54.000Z</time>
      </trkpt>
      <trkpt lat="45.38016" lon="2.38206">
        <ele>575</ele>
        <time>2022-06-14T08:48:55.000Z</time>
      </trkpt>
      <trkpt lat="45.38017" lon="2.38207">
        <ele>574.8</ele>
        <time>2022-06-14T08:48:56.000Z</time>
      </trkpt>
      <trkpt lat="45.38019" lon="2.38208">
        <ele>574.6</ele>
        <time>2022-06-14T08:48:57.000Z</time>
      </trkpt>
      <trkpt lat="45.3802" lon="2.38209">
        <ele>574.4</ele>
        <time>2022-06-14T08:48:58.000Z</time>
      </trkpt>
      <trkpt lat="45.38021" lon="2.3821">
        <ele>574.2</ele>
        <time>2022-06-14T08:48:59.000Z</time>
      </trkpt>
      <trkpt lat="45.38022" lon="2.38211">
        <ele>574</ele>
        <time>2022-06-14T08:49:00.000Z</time>
      </trkpt>
      <trkpt lat="45.38023" lon="2.38212">
        <ele>573.8</ele>
        <time>2022-06-14T08:49:01.000Z</time>
      </trkpt>
      <trkpt lat="45.38024" lon="2.38213">
        <ele>573.6</ele>
        <time>2022-06-14T08:49:02.000Z</time>
      </trkpt>
      <trkpt lat="45.38025" lon="2.38214">
        <ele>573.4</ele>
        <time>2022-06-14T08:49:03.000Z</time>
      </trkpt>
      <trkpt lat="45.38026" lon="2.38215">
        <ele>573.1</ele>
        <time>2022-06-14T08:49:04.000Z</time>
      </trkpt>
      <trkpt lat="45.38027" lon="2.38216">
        <ele>572.9</ele>
        <time>2022-06-14T08:49:05.000Z</time>
      </trkpt>
      <trkpt lat="45.38029" lon="2.38217">
        <ele>572.8</ele>
        <time>2022-06-14T08:49:06.000Z</time>
      </trkpt>
      <trkpt lat="45.3803" lon="2.38218">
        <ele>572.6</ele>
        <time>2022-06-14T08:49:07.000Z</time>
      </trkpt>
      <trkpt lat="45.38031" lon="2.38219">
        <ele>572.4</ele>
        <time>2022-06-14T08:49:08.000Z</time>
      </trkpt>
      <trkpt lat="45.38032" lon="2.3822">
        <ele>572.2</ele>
        <time>2022-06-14T08:49:09.000Z</time>
      </trkpt>
      <trkpt lat="45.38033" lon="2.38221">
        <ele>572</ele>
        <time>2022-06-14T08:49:10.000Z</time>
      </trkpt>
      <trkpt lat="45.38034" lon="2.38221">
        <ele>571.8</ele>
        <time>2022-06-14T08:49:11.000Z</time>
      </trkpt>
      <trkpt lat="45.38035" lon="2.38222">
        <ele>571.6</ele>
        <time>2022-06-14T08:49:12.000Z</time>
      </trkpt>
      <trkpt lat="45.38037" lon="2.38223">
        <ele>571.4</ele>
        <time>2022-06-14T08:49:13.000Z</time>
      </trkpt>
      <trkpt lat="45.38038" lon="2.38223">
        <ele>571.3</ele>
        <time>2022-06-14T08:49:14.000Z</time>
      </trkpt>
      <trkpt lat="45.38039" lon="2.38224">
        <ele>571.1</ele>
        <time>2022-06-14T08:49:15.000Z</time>
      </trkpt>
      <trkpt lat="45.3804" lon="2.38224">
        <ele>570.9</ele>
        <time>2022-06-14T08:49:16.000Z</time>
      </trkpt>
      <trkpt lat="45.38042" lon="2.38225">
        <ele>570.7</ele>
        <time>2022-06-14T08:49:17.000Z</time>
      </trkpt>
      <trkpt lat="45.38043" lon="2.38225">
        <ele>570.5</ele>
        <time>2022-06-14T08:49:18.000Z</time>
      </trkpt>
      <trkpt lat="45.38044" lon="2.38226">
        <ele>570.4</ele>
        <time>2022-06-14T08:49:19.000Z</time>
      </trkpt>
      <trkpt lat="45.38046" lon="2.38226">
        <ele>570.2</ele>
        <time>2022-06-14T08:49:20.000Z</time>
      </trkpt>
      <trkpt lat="45.38047" lon="2.38227">
        <ele>570</ele>
        <time>2022-06-14T08:49:21.000Z</time>
      </trkpt>
      <trkpt lat="45.38048" lon="2.38227">
        <ele>569.8</ele>
        <time>2022-06-14T08:49:22.000Z</time>
      </trkpt>
      <trkpt lat="45.3805" lon="2.38227">
        <ele>569.6</ele>
        <time>2022-06-14T08:49:23.000Z</time>
      </trkpt>
      <trkpt lat="45.38051" lon="2.38228">
        <ele>569.5</ele>
        <time>2022-06-14T08:49:24.000Z</time>
      </trkpt>
      <trkpt lat="45.38052" lon="2.38228">
        <ele>569.3</ele>
        <time>2022-06-14T08:49:25.000Z</time>
      </trkpt>
      <trkpt lat="45.38054" lon="2.38228">
        <ele>569.1</ele>
        <time>2022-06-14T08:49:26.000Z</time>
      </trkpt>
      <trkpt lat="45.38055" lon="2.38228">
        <ele>568.9</ele>
        <time>2022-06-14T08:49:27.000Z</time>
      </trkpt>
      <trkpt lat="45.38057" lon="2.38229">
        <ele>568.7</ele>
        <time>2022-06-14T08:49:28.000Z</time>
      </trkpt>
      <trkpt lat="45.38058" lon="2.38229">
        <ele>568.6</ele>
        <time>2022-06-14T08:49:29.000Z</time>
      </trkpt>
      <trkpt lat="45.38059" lon="2.38229">
        <ele>568.4</ele>
        <time>2022-06-14T08:49:30.000Z</time>
      </trkpt>
      <trkpt lat="45.38061" lon="2.3823">
        <ele>568.2</ele>
        <time>2022-06-14T08:49:31.000Z</time>
      </trkpt>
      <trkpt lat="45.38062" lon="2.3823">
        <ele>568</ele>
        <time>2022-06-14T08:49:32.000Z</time>
      </trkpt>
      <trkpt lat="45.38063" lon="2.3823">
        <ele>567.9</ele>
        <time>2022-06-14T08:49:33.000Z</time>
      </trkpt>
      <trkpt lat="45.38065" lon="2.3823">
        <ele>567.7</ele>
        <time>2022-06-14T08:49:34.000Z</time>
      </trkpt>
      <trkpt lat="45.38066" lon="2.38231">
        <ele>567.5</ele>
        <time>2022-06-14T08:49:35.000Z</time>
      </trkpt>
      <trkpt lat="45.38067" lon="2.38231">
        <ele>567.4</ele>
        <time>2022-06-14T08:49:36.000Z</time>
      </trkpt>
      <trkpt lat="45.38069" lon="2.38231">
        <ele>567.2</ele>
        <time>2022-06-14T08:49:37.000Z</time>
      </trkpt>
      <trkpt lat="45.3807" lon="2.38232">
        <ele>567</ele>
        <time>2022-06-14T08:49:38.000Z</time>
      </trkpt>
      <trkpt lat="45.38071" lon="2.38232">
        <ele>566.9</ele>
        <time>2022-06-14T08:49:39.000Z</time>
      </trkpt>
      <trkpt lat="45.38072" lon="2.38232">
        <ele>566.7</ele>
        <time>2022-06-14T08:49:40.000Z</time>
      </trkpt>
      <trkpt lat="45.38074" lon="2.38232">
        <ele>566.6</ele>
        <time>2022-06-14T08:49:41.000Z</time>
      </trkpt>
      <trkpt lat="45.38075" lon="2.38233">
        <ele>566.4</ele>
        <time>2022-06-14T08:49:42.000Z</time>
      </trkpt>
      <trkpt lat="45.38076" lon="2.38233">
        <ele>566.2</ele>
        <time>2022-06-14T08:49:43.000Z</time>
      </trkpt>
      <trkpt lat="45.38078" lon="2.38233">
        <ele>566.1</ele>
        <time>2022-06-14T08:49:44.000Z</time>
      </trkpt>
      <trkpt lat="45.38079" lon="2.38233">
        <ele>565.9</ele>
        <time>2022-06-14T08:49:45.000Z</time>
      </trkpt>
      <trkpt lat="45.3808" lon="2.38234">
        <ele>565.8</ele>
        <time>2022-06-14T08:49:46.000Z</time>
      </trkpt>
      <trkpt lat="45.38082" lon="2.38234">
        <ele>565.6</ele>
        <time>2022-06-14T08:49:47.000Z</time>
      </trkpt>
      <trkpt lat="45.38083" lon="2.38234">
        <ele>565.4</ele>
        <time>2022-06-14T08:49:48.000Z</time>
      </trkpt>
      <trkpt lat="45.38084" lon="2.38235">
        <ele>565.3</ele>
        <time>2022-06-14T08:49:49.000Z</time>
      </trkpt>
      <trkpt lat="45.38085" lon="2.38235">
        <ele>565.3</ele>
        <time>2022-06-14T08:49:50.000Z</time>
      </trkpt>
      <trkpt lat="45.38087" lon="2.38235">
        <ele>565.2</ele>
        <time>2022-06-14T08:49:51.000Z</time>
      </trkpt>
      <trkpt lat="45.38088" lon="2.38236">
        <ele>565.2</ele>
        <time>2022-06-14T08:49:52.000Z</time>
      </trkpt>
      <trkpt lat="45.38089" lon="2.38236">
        <ele>565.2</ele>
        <time>2022-06-14T08:49:53.000Z</time>
      </trkpt>
      <trkpt lat="45.3809" lon="2.38237">
        <ele>565.1</ele>
        <time>2022-06-14T08:49:54.000Z</time>
      </trkpt>
      <trkpt lat="45.38091" lon="2.38237">
        <ele>565.1</ele>
        <time>2022-06-14T08:49:55.000Z</time>
      </trkpt>
      <trkpt lat="45.38092" lon="2.38238">
        <ele>565</ele>
        <time>2022-06-14T08:49:56.000Z</time>
      </trkpt>
      <trkpt lat="45.38094" lon="2.38239">
        <ele>565</ele>
        <time>2022-06-14T08:49:57.000Z</time>
      </trkpt>
      <trkpt lat="45.38095" lon="2.38239">
        <ele>564.9</ele>
        <time>2022-06-14T08:49:58.000Z</time>
      </trkpt>
      <trkpt lat="45.38096" lon="2.3824">
        <ele>564.9</ele>
        <time>2022-06-14T08:49:59.000Z</time>
      </trkpt>
      <trkpt lat="45.38097" lon="2.38241">
        <ele>564.8</ele>
        <time>2022-06-14T08:50:00.000Z</time>
      </trkpt>
      <trkpt lat="45.38098" lon="2.38241">
        <ele>564.8</ele>
        <time>2022-06-14T08:50:01.000Z</time>
      </trkpt>
      <trkpt lat="45.38099" lon="2.38242">
        <ele>564.7</ele>
        <time>2022-06-14T08:50:02.000Z</time>
      </trkpt>
      <trkpt lat="45.381" lon="2.38243">
        <ele>564.7</ele>
        <time>2022-06-14T08:50:03.000Z</time>
      </trkpt>
      <trkpt lat="45.38101" lon="2.38244">
        <ele>564.7</ele>
        <time>2022-06-14T08:50:04.000Z</time>
      </trkpt>
      <trkpt lat="45.38102" lon="2.38244">
        <ele>564.6</ele>
        <time>2022-06-14T08:50:05.000Z</time>
      </trkpt>
      <trkpt lat="45.38104" lon="2.38245">
        <ele>564.6</ele>
        <time>2022-06-14T08:50:06.000Z</time>
      </trkpt>
      <trkpt lat="45.38105" lon="2.38246">
        <ele>564.5</ele>
        <time>2022-06-14T08:50:07.000Z</time>
      </trkpt>
      <trkpt lat="45.38106" lon="2.38247">
        <ele>564.5</ele>
        <time>2022-06-14T08:50:08.000Z</time>
      </trkpt>
      <trkpt lat="45.38107" lon="2.38247">
        <ele>564.5</ele>
        <time>2022-06-14T08:50:09.000Z</time>
      </trkpt>
      <trkpt lat="45.38108" lon="2.38248">
        <ele>564.4</ele>
        <time>2022-06-14T08:50:10.000Z</time>
      </trkpt>
      <trkpt lat="45.38109" lon="2.38249">
        <ele>564.4</ele>
        <time>2022-06-14T08:50:11.000Z</time>
      </trkpt>
      <trkpt lat="45.3811" lon="2.3825">
        <ele>564.4</ele>
        <time>2022-06-14T08:50:12.000Z</time>
      </trkpt>
      <trkpt lat="45.38112" lon="2.38251">
        <ele>564.3</ele>
        <time>2022-06-14T08:50:13.000Z</time>
      </trkpt>
      <trkpt lat="45.38113" lon="2.38251">
        <ele>564.3</ele>
        <time>2022-06-14T08:50:14.000Z</time>
      </trkpt>
      <trkpt lat="45.38114" lon="2.38252">
        <ele>564.3</ele>
        <time>2022-06-14T08:50:15.000Z</time>
      </trkpt>
      <trkpt lat="45.38115" lon="2.38253">
        <ele>564.3</ele>
        <time>2022-06-14T08:50:16.000Z</time>
      </trkpt>
      <trkpt lat="45.38116" lon="2.38254">
        <ele>564.3</ele>
        <time>2022-06-14T08:50:17.000Z</time>
      </trkpt>
      <trkpt lat="45.38117" lon="2.38255">
        <ele>564.2</ele>
        <time>2022-06-14T08:50:18.000Z</time>
      </trkpt>
      <trkpt lat="45.38118" lon="2.38256">
        <ele>564.2</ele>
        <time>2022-06-14T08:50:19.000Z</time>
      </trkpt>
      <trkpt lat="45.38119" lon="2.38257">
        <ele>564.2</ele>
        <time>2022-06-14T08:50:20.000Z</time>
      </trkpt>
      <trkpt lat="45.3812" lon="2.38258">
        <ele>564.2</ele>
        <time>2022-06-14T08:50:21.000Z</time>
      </trkpt>
      <trkpt lat="45.38121" lon="2.38258">
        <ele>564.2</ele>
        <time>2022-06-14T08:50:22.000Z</time>
      </trkpt>
      <trkpt lat="45.38122" lon="2.38259">
        <ele>564.2</ele>
        <time>2022-06-14T08:50:23.000Z</time>
      </trkpt>
      <trkpt lat="45.38123" lon="2.3826">
        <ele>564.2</ele>
        <time>2022-06-14T08:50:24.000Z</time>
      </trkpt>
      <trkpt lat="45.38124" lon="2.38261">
        <ele>564.1</ele>
        <time>2022-06-14T08:50:25.000Z</time>
      </trkpt>
      <trkpt lat="45.38126" lon="2.38262">
        <ele>564.1</ele>
        <time>2022-06-14T08:50:26.000Z</time>
      </trkpt>
      <trkpt lat="45.38127" lon="2.38263">
        <ele>564.1</ele>
        <time>2022-06-14T08:50:27.000Z</time>
      </trkpt>
      <trkpt lat="45.38128" lon="2.38264">
        <ele>564.1</ele>
        <time>2022-06-14T08:50:28.000Z</time>
      </trkpt>
      <trkpt lat="45.38129" lon="2.38265">
        <ele>564.1</ele>
        <time>2022-06-14T08:50:29.000Z</time>
      </trkpt>
      <trkpt lat="45.3813" lon="2.38266">
        <ele>564.1</ele>
        <time>2022-06-14T08:50:30.000Z</time>
      </trkpt>
      <trkpt lat="45.38131" lon="2.38267">
        <ele>564.1</ele>
        <time>2022-06-14T08:50:31.000Z</time>
      </trkpt>
      <trkpt lat="45.38132" lon="2.38268">
        <ele>564.1</ele>
        <time>2022-06-14T08:50:32.000Z</time>
      </trkpt>
      <trkpt lat="45.38133" lon="2.38269">
        <ele>564.1</ele>
        <time>2022-06-14T08:50:33.000Z</time>
      </trkpt>
      <trkpt lat="45.38134" lon="2.3827">
        <ele>564.1</ele>
        <time>2022-06-14T08:50:34.000Z</time>
      </trkpt>
      <trkpt lat="45.38135" lon="2.38271">
        <ele>564.1</ele>
        <time>2022-06-14T08:50:35.000Z</time>
      </trkpt>
      <trkpt lat="45.38136" lon="2.38273">
        <ele>564.1</ele>
        <time>2022-06-14T08:50:36.000Z</time>
      </trkpt>
      <trkpt lat="45.38137" lon="2.38274">
        <ele>564.1</ele>
        <time>2022-06-14T08:50:37.000Z</time>
      </trkpt>
      <trkpt lat="45.38138" lon="2.38275">
        <ele>564.1</ele>
        <time>2022-06-14T08:50:38.000Z</time>
      </trkpt>
      <trkpt lat="45.3814" lon="2.38276">
        <ele>564.1</ele>
        <time>2022-06-14T08:50:39.000Z</time>
      </trkpt>
      <trkpt lat="45.38141" lon="2.38277">
        <ele>564.1</ele>
        <time>2022-06-14T08:50:40.000Z</time>
      </trkpt>
      <trkpt lat="45.38142" lon="2.38278">
        <ele>564.1</ele>
        <time>2022-06-14T08:50:41.000Z</time>
      </trkpt>
      <trkpt lat="45.38143" lon="2.38279">
        <ele>564.1</ele>
        <time>2022-06-14T08:50:42.000Z</time>
      </trkpt>
      <trkpt lat="45.38144" lon="2.3828">
        <ele>564.1</ele>
        <time>2022-06-14T08:50:43.000Z</time>
      </trkpt>
      <trkpt lat="45.38145" lon="2.38281">
        <ele>564.1</ele>
        <time>2022-06-14T08:50:44.000Z</time>
      </trkpt>
      <trkpt lat="45.38147" lon="2.38282">
        <ele>564.1</ele>
        <time>2022-06-14T08:50:45.000Z</time>
      </trkpt>
      <trkpt lat="45.38148" lon="2.38283">
        <ele>564.1</ele>
        <time>2022-06-14T08:50:46.000Z</time>
      </trkpt>
      <trkpt lat="45.38149" lon="2.38284">
        <ele>564.1</ele>
        <time>2022-06-14T08:50:47.000Z</time>
      </trkpt>
      <trkpt lat="45.3815" lon="2.38285">
        <ele>564.1</ele>
        <time>2022-06-14T08:50:48.000Z</time>
      </trkpt>
      <trkpt lat="45.38152" lon="2.38286">
        <ele>564.1</ele>
        <time>2022-06-14T08:50:49.000Z</time>
      </trkpt>
      <trkpt lat="45.38153" lon="2.38286">
        <ele>564.1</ele>
        <time>2022-06-14T08:50:50.000Z</time>
      </trkpt>
      <trkpt lat="45.38154" lon="2.38287">
        <ele>564.1</ele>
        <time>2022-06-14T08:50:51.000Z</time>
      </trkpt>
      <trkpt lat="45.38156" lon="2.38287">
        <ele>564</ele>
        <time>2022-06-14T08:50:52.000Z</time>
      </trkpt>
      <trkpt lat="45.38157" lon="2.38288">
        <ele>564</ele>
        <time>2022-06-14T08:50:53.000Z</time>
      </trkpt>
      <trkpt lat="45.38158" lon="2.38288">
        <ele>564</ele>
        <time>2022-06-14T08:50:54.000Z</time>
      </trkpt>
      <trkpt lat="45.38159" lon="2.38288">
        <ele>564</ele>
        <time>2022-06-14T08:50:55.000Z</time>
      </trkpt>
      <trkpt lat="45.38161" lon="2.38288">
        <ele>564</ele>
        <time>2022-06-14T08:50:56.000Z</time>
      </trkpt>
      <trkpt lat="45.38162" lon="2.38288">
        <ele>564</ele>
        <time>2022-06-14T08:50:57.000Z</time>
      </trkpt>
      <trkpt lat="45.38163" lon="2.38288">
        <ele>564</ele>
        <time>2022-06-14T08:50:58.000Z</time>
      </trkpt>
      <trkpt lat="45.38165" lon="2.38288">
        <ele>563.9</ele>
        <time>2022-06-14T08:50:59.000Z</time>
      </trkpt>
      <trkpt lat="45.38166" lon="2.38288">
        <ele>563.9</ele>
        <time>2022-06-14T08:51:00.000Z</time>
      </trkpt>
      <trkpt lat="45.38167" lon="2.38287">
        <ele>563.9</ele>
        <time>2022-06-14T08:51:01.000Z</time>
      </trkpt>
      <trkpt lat="45.38169" lon="2.38287">
        <ele>563.9</ele>
        <time>2022-06-14T08:51:02.000Z</time>
      </trkpt>
      <trkpt lat="45.3817" lon="2.38287">
        <ele>563.9</ele>
        <time>2022-06-14T08:51:03.000Z</time>
      </trkpt>
      <trkpt lat="45.38171" lon="2.38286">
        <ele>563.9</ele>
        <time>2022-06-14T08:51:04.000Z</time>
      </trkpt>
      <trkpt lat="45.38173" lon="2.38286">
        <ele>563.9</ele>
        <time>2022-06-14T08:51:05.000Z</time>
      </trkpt>
      <trkpt lat="45.38174" lon="2.38285">
        <ele>563.9</ele>
        <time>2022-06-14T08:51:06.000Z</time>
      </trkpt>
      <trkpt lat="45.38175" lon="2.38285">
        <ele>563.9</ele>
        <time>2022-06-14T08:51:07.000Z</time>
      </trkpt>
      <trkpt lat="45.38177" lon="2.38284">
        <ele>563.9</ele>
        <time>2022-06-14T08:51:08.000Z</time>
      </trkpt>
      <trkpt lat="45.38178" lon="2.38284">
        <ele>563.9</ele>
        <time>2022-06-14T08:51:09.000Z</time>
      </trkpt>
      <trkpt lat="45.38179" lon="2.38283">
        <ele>563.9</ele>
        <time>2022-06-14T08:51:10.000Z</time>
      </trkpt>
      <trkpt lat="45.38181" lon="2.38283">
        <ele>563.9</ele>
        <time>2022-06-14T08:51:11.000Z</time>
      </trkpt>
      <trkpt lat="45.38182" lon="2.38282">
        <ele>563.9</ele>
        <time>2022-06-14T08:51:12.000Z</time>
      </trkpt>
      <trkpt lat="45.38183" lon="2.38282">
        <ele>563.9</ele>
        <time>2022-06-14T08:51:13.000Z</time>
      </trkpt>
      <trkpt lat="45.38184" lon="2.38281">
        <ele>563.9</ele>
        <time>2022-06-14T08:51:14.000Z</time>
      </trkpt>
      <trkpt lat="45.38186" lon="2.38281">
        <ele>563.8</ele>
        <time>2022-06-14T08:51:15.000Z</time>
      </trkpt>
      <trkpt lat="45.38187" lon="2.3828">
        <ele>563.8</ele>
        <time>2022-06-14T08:51:16.000Z</time>
      </trkpt>
      <trkpt lat="45.38188" lon="2.3828">
        <ele>563.8</ele>
        <time>2022-06-14T08:51:17.000Z</time>
      </trkpt>
      <trkpt lat="45.38189" lon="2.38279">
        <ele>563.8</ele>
        <time>2022-06-14T08:51:18.000Z</time>
      </trkpt>
      <trkpt lat="45.38191" lon="2.38279">
        <ele>563.8</ele>
        <time>2022-06-14T08:51:19.000Z</time>
      </trkpt>
      <trkpt lat="45.38192" lon="2.38278">
        <ele>563.8</ele>
        <time>2022-06-14T08:51:20.000Z</time>
      </trkpt>
      <trkpt lat="45.38193" lon="2.38278">
        <ele>563.8</ele>
        <time>2022-06-14T08:51:21.000Z</time>
      </trkpt>
      <trkpt lat="45.38195" lon="2.38278">
        <ele>563.8</ele>
        <time>2022-06-14T08:51:22.000Z</time>
      </trkpt>
      <trkpt lat="45.38196" lon="2.38277">
        <ele>563.8</ele>
        <time>2022-06-14T08:51:23.000Z</time>
      </trkpt>
      <trkpt lat="45.38197" lon="2.38277">
        <ele>563.8</ele>
        <time>2022-06-14T08:51:24.000Z</time>
      </trkpt>
      <trkpt lat="45.38199" lon="2.38277">
        <ele>563.7</ele>
        <time>2022-06-14T08:51:25.000Z</time>
      </trkpt>
      <trkpt lat="45.382" lon="2.38276">
        <ele>563.7</ele>
        <time>2022-06-14T08:51:26.000Z</time>
      </trkpt>
      <trkpt lat="45.38201" lon="2.38276">
        <ele>563.7</ele>
        <time>2022-06-14T08:51:27.000Z</time>
      </trkpt>
      <trkpt lat="45.38202" lon="2.38276">
        <ele>563.7</ele>
        <time>2022-06-14T08:51:28.000Z</time>
      </trkpt>
      <trkpt lat="45.38203" lon="2.38276">
        <ele>563.7</ele>
        <time>2022-06-14T08:51:29.000Z</time>
      </trkpt>
      <trkpt lat="45.38204" lon="2.38275">
        <ele>563.7</ele>
        <time>2022-06-14T08:51:35.000Z</time>
      </trkpt>
      <trkpt lat="45.38205" lon="2.38275">
        <ele>563.7</ele>
        <time>2022-06-14T08:51:36.000Z</time>
      </trkpt>
      <trkpt lat="45.38206" lon="2.38275">
        <ele>563.7</ele>
        <time>2022-06-14T08:51:37.000Z</time>
      </trkpt>
      <trkpt lat="45.38207" lon="2.38275">
        <ele>563.7</ele>
        <time>2022-06-14T08:51:38.000Z</time>
      </trkpt>
      <trkpt lat="45.38208" lon="2.38275">
        <ele>563.7</ele>
        <time>2022-06-14T08:51:39.000Z</time>
      </trkpt>
      <trkpt lat="45.38209" lon="2.38275">
        <ele>563.7</ele>
        <time>2022-06-14T08:51:40.000Z</time>
      </trkpt>
      <trkpt lat="45.38211" lon="2.38275">
        <ele>563.7</ele>
        <time>2022-06-14T08:51:41.000Z</time>
      </trkpt>
      <trkpt lat="45.38212" lon="2.38275">
        <ele>563.7</ele>
        <time>2022-06-14T08:51:42.000Z</time>
      </trkpt>
      <trkpt lat="45.38213" lon="2.38275">
        <ele>563.7</ele>
        <time>2022-06-14T08:51:43.000Z</time>
      </trkpt>
      <trkpt lat="45.38215" lon="2.38275">
        <ele>563.7</ele>
        <time>2022-06-14T08:51:44.000Z</time>
      </trkpt>
      <trkpt lat="45.38216" lon="2.38276">
        <ele>563.7</ele>
        <time>2022-06-14T08:51:45.000Z</time>
      </trkpt>
      <trkpt lat="45.38218" lon="2.38276">
        <ele>563.8</ele>
        <time>2022-06-14T08:51:46.000Z</time>
      </trkpt>
      <trkpt lat="45.38219" lon="2.38276">
        <ele>563.8</ele>
        <time>2022-06-14T08:51:47.000Z</time>
      </trkpt>
      <trkpt lat="45.3822" lon="2.38276">
        <ele>563.8</ele>
        <time>2022-06-14T08:51:48.000Z</time>
      </trkpt>
      <trkpt lat="45.38222" lon="2.38276">
        <ele>563.8</ele>
        <time>2022-06-14T08:51:49.000Z</time>
      </trkpt>
      <trkpt lat="45.38223" lon="2.38277">
        <ele>563.8</ele>
        <time>2022-06-14T08:51:50.000Z</time>
      </trkpt>
      <trkpt lat="45.38224" lon="2.38277">
        <ele>563.9</ele>
        <time>2022-06-14T08:51:51.000Z</time>
      </trkpt>
      <trkpt lat="45.38226" lon="2.38277">
        <ele>563.9</ele>
        <time>2022-06-14T08:51:52.000Z</time>
      </trkpt>
      <trkpt lat="45.38227" lon="2.38278">
        <ele>563.9</ele>
        <time>2022-06-14T08:51:53.000Z</time>
      </trkpt>
      <trkpt lat="45.38228" lon="2.38278">
        <ele>563.9</ele>
        <time>2022-06-14T08:51:54.000Z</time>
      </trkpt>
      <trkpt lat="45.3823" lon="2.38279">
        <ele>564</ele>
        <time>2022-06-14T08:51:55.000Z</time>
      </trkpt>
      <trkpt lat="45.38231" lon="2.38279">
        <ele>564</ele>
        <time>2022-06-14T08:51:56.000Z</time>
      </trkpt>
      <trkpt lat="45.38232" lon="2.3828">
        <ele>564</ele>
        <time>2022-06-14T08:51:57.000Z</time>
      </trkpt>
      <trkpt lat="45.38234" lon="2.3828">
        <ele>564.1</ele>
        <time>2022-06-14T08:51:58.000Z</time>
      </trkpt>
      <trkpt lat="45.38235" lon="2.3828">
        <ele>564.1</ele>
        <time>2022-06-14T08:51:59.000Z</time>
      </trkpt>
      <trkpt lat="45.38236" lon="2.38281">
        <ele>564.1</ele>
        <time>2022-06-14T08:52:00.000Z</time>
      </trkpt>
      <trkpt lat="45.38238" lon="2.38281">
        <ele>564.2</ele>
        <time>2022-06-14T08:52:01.000Z</time>
      </trkpt>
      <trkpt lat="45.38239" lon="2.38282">
        <ele>564.2</ele>
        <time>2022-06-14T08:52:02.000Z</time>
      </trkpt>
      <trkpt lat="45.3824" lon="2.38282">
        <ele>564.3</ele>
        <time>2022-06-14T08:52:03.000Z</time>
      </trkpt>
      <trkpt lat="45.38241" lon="2.38283">
        <ele>564.3</ele>
        <time>2022-06-14T08:52:04.000Z</time>
      </trkpt>
      <trkpt lat="45.38243" lon="2.38283">
        <ele>564.3</ele>
        <time>2022-06-14T08:52:05.000Z</time>
      </trkpt>
      <trkpt lat="45.38244" lon="2.38284">
        <ele>564.4</ele>
        <time>2022-06-14T08:52:06.000Z</time>
      </trkpt>
      <trkpt lat="45.38245" lon="2.38284">
        <ele>564.4</ele>
        <time>2022-06-14T08:52:07.000Z</time>
      </trkpt>
      <trkpt lat="45.38247" lon="2.38285">
        <ele>564.5</ele>
        <time>2022-06-14T08:52:08.000Z</time>
      </trkpt>
      <trkpt lat="45.38248" lon="2.38285">
        <ele>564.5</ele>
        <time>2022-06-14T08:52:09.000Z</time>
      </trkpt>
      <trkpt lat="45.38249" lon="2.38286">
        <ele>564.6</ele>
        <time>2022-06-14T08:52:10.000Z</time>
      </trkpt>
      <trkpt lat="45.3825" lon="2.38286">
        <ele>564.6</ele>
        <time>2022-06-14T08:52:11.000Z</time>
      </trkpt>
      <trkpt lat="45.38252" lon="2.38287">
        <ele>564.7</ele>
        <time>2022-06-14T08:52:12.000Z</time>
      </trkpt>
      <trkpt lat="45.38253" lon="2.38287">
        <ele>564.8</ele>
        <time>2022-06-14T08:52:13.000Z</time>
      </trkpt>
      <trkpt lat="45.38254" lon="2.38288">
        <ele>564.9</ele>
        <time>2022-06-14T08:52:14.000Z</time>
      </trkpt>
      <trkpt lat="45.38256" lon="2.38288">
        <ele>565</ele>
        <time>2022-06-14T08:52:15.000Z</time>
      </trkpt>
      <trkpt lat="45.38257" lon="2.38289">
        <ele>565</ele>
        <time>2022-06-14T08:52:16.000Z</time>
      </trkpt>
      <trkpt lat="45.38258" lon="2.38289">
        <ele>565.1</ele>
        <time>2022-06-14T08:52:17.000Z</time>
      </trkpt>
      <trkpt lat="45.38259" lon="2.3829">
        <ele>565.2</ele>
        <time>2022-06-14T08:52:18.000Z</time>
      </trkpt>
      <trkpt lat="45.38261" lon="2.3829">
        <ele>565.3</ele>
        <time>2022-06-14T08:52:19.000Z</time>
      </trkpt>
      <trkpt lat="45.38262" lon="2.38291">
        <ele>565.3</ele>
        <time>2022-06-14T08:52:20.000Z</time>
      </trkpt>
      <trkpt lat="45.38263" lon="2.38291">
        <ele>565.4</ele>
        <time>2022-06-14T08:52:21.000Z</time>
      </trkpt>
      <trkpt lat="45.38264" lon="2.38291">
        <ele>565.5</ele>
        <time>2022-06-14T08:52:22.000Z</time>
      </trkpt>
      <trkpt lat="45.38266" lon="2.38292">
        <ele>565.6</ele>
        <time>2022-06-14T08:52:23.000Z</time>
      </trkpt>
      <trkpt lat="45.38267" lon="2.38292">
        <ele>565.6</ele>
        <time>2022-06-14T08:52:24.000Z</time>
      </trkpt>
      <trkpt lat="45.38268" lon="2.38293">
        <ele>565.7</ele>
        <time>2022-06-14T08:52:25.000Z</time>
      </trkpt>
      <trkpt lat="45.38269" lon="2.38293">
        <ele>565.8</ele>
        <time>2022-06-14T08:52:26.000Z</time>
      </trkpt>
      <trkpt lat="45.38271" lon="2.38293">
        <ele>565.8</ele>
        <time>2022-06-14T08:52:27.000Z</time>
      </trkpt>
      <trkpt lat="45.38272" lon="2.38294">
        <ele>565.9</ele>
        <time>2022-06-14T08:52:28.000Z</time>
      </trkpt>
      <trkpt lat="45.38273" lon="2.38294">
        <ele>566</ele>
        <time>2022-06-14T08:52:29.000Z</time>
      </trkpt>
      <trkpt lat="45.38274" lon="2.38295">
        <ele>566.1</ele>
        <time>2022-06-14T08:52:30.000Z</time>
      </trkpt>
      <trkpt lat="45.38276" lon="2.38295">
        <ele>566.1</ele>
        <time>2022-06-14T08:52:31.000Z</time>
      </trkpt>
      <trkpt lat="45.38277" lon="2.38296">
        <ele>566.2</ele>
        <time>2022-06-14T08:52:32.000Z</time>
      </trkpt>
      <trkpt lat="45.38278" lon="2.38297">
        <ele>566.3</ele>
        <time>2022-06-14T08:52:33.000Z</time>
      </trkpt>
      <trkpt lat="45.38279" lon="2.38298">
        <ele>566.4</ele>
        <time>2022-06-14T08:52:34.000Z</time>
      </trkpt>
      <trkpt lat="45.3828" lon="2.38298">
        <ele>566.4</ele>
        <time>2022-06-14T08:52:35.000Z</time>
      </trkpt>
      <trkpt lat="45.38281" lon="2.38299">
        <ele>566.5</ele>
        <time>2022-06-14T08:52:36.000Z</time>
      </trkpt>
      <trkpt lat="45.38282" lon="2.38301">
        <ele>566.6</ele>
        <time>2022-06-14T08:52:37.000Z</time>
      </trkpt>
      <trkpt lat="45.38282" lon="2.38302">
        <ele>566.7</ele>
        <time>2022-06-14T08:52:38.000Z</time>
      </trkpt>
      <trkpt lat="45.38283" lon="2.38303">
        <ele>566.8</ele>
        <time>2022-06-14T08:52:39.000Z</time>
      </trkpt>
      <trkpt lat="45.38283" lon="2.38305">
        <ele>566.9</ele>
        <time>2022-06-14T08:52:40.000Z</time>
      </trkpt>
      <trkpt lat="45.38283" lon="2.38306">
        <ele>566.9</ele>
        <time>2022-06-14T08:52:41.000Z</time>
      </trkpt>
      <trkpt lat="45.38282" lon="2.38308">
        <ele>567</ele>
        <time>2022-06-14T08:52:42.000Z</time>
      </trkpt>
      <trkpt lat="45.38282" lon="2.38309">
        <ele>567.1</ele>
        <time>2022-06-14T08:52:43.000Z</time>
      </trkpt>
      <trkpt lat="45.38282" lon="2.38311">
        <ele>567.2</ele>
        <time>2022-06-14T08:52:44.000Z</time>
      </trkpt>
      <trkpt lat="45.38281" lon="2.38312">
        <ele>567.2</ele>
        <time>2022-06-14T08:52:45.000Z</time>
      </trkpt>
      <trkpt lat="45.38281" lon="2.38313">
        <ele>567.3</ele>
        <time>2022-06-14T08:52:46.000Z</time>
      </trkpt>
      <trkpt lat="45.38281" lon="2.38315">
        <ele>567.3</ele>
        <time>2022-06-14T08:52:47.000Z</time>
      </trkpt>
      <trkpt lat="45.3828" lon="2.38316">
        <ele>567.4</ele>
        <time>2022-06-14T08:52:48.000Z</time>
      </trkpt>
      <trkpt lat="45.3828" lon="2.38317">
        <ele>567.5</ele>
        <time>2022-06-14T08:52:49.000Z</time>
      </trkpt>
      <trkpt lat="45.3828" lon="2.38318">
        <ele>567.5</ele>
        <time>2022-06-14T08:52:50.000Z</time>
      </trkpt>
      <trkpt lat="45.38279" lon="2.38319">
        <ele>567.6</ele>
        <time>2022-06-14T08:52:51.000Z</time>
      </trkpt>
      <trkpt lat="45.38279" lon="2.3832">
        <ele>567.6</ele>
        <time>2022-06-14T08:52:52.000Z</time>
      </trkpt>
      <trkpt lat="45.38279" lon="2.38321">
        <ele>567.6</ele>
        <time>2022-06-14T08:52:53.000Z</time>
      </trkpt>
      <trkpt lat="45.38279" lon="2.38321">
        <ele>567.7</ele>
        <time>2022-06-14T08:53:07.000Z</time>
      </trkpt>
      <trkpt lat="45.38279" lon="2.38322">
        <ele>567.7</ele>
        <time>2022-06-14T08:53:10.000Z</time>
      </trkpt>
      <trkpt lat="45.38279" lon="2.38324">
        <ele>567.8</ele>
        <time>2022-06-14T08:53:16.000Z</time>
      </trkpt>
      <trkpt lat="45.38279" lon="2.38325">
        <ele>567.9</ele>
        <time>2022-06-14T08:53:17.000Z</time>
      </trkpt>
      <trkpt lat="45.38278" lon="2.38326">
        <ele>567.9</ele>
        <time>2022-06-14T08:53:18.000Z</time>
      </trkpt>
      <trkpt lat="45.38279" lon="2.38327">
        <ele>568</ele>
        <time>2022-06-14T08:53:19.000Z</time>
      </trkpt>
      <trkpt lat="45.38292" lon="2.38337">
        <ele>568.7</ele>
        <time>2022-06-14T09:05:34.000Z</time>
      </trkpt>
      <trkpt lat="45.38292" lon="2.38336">
        <ele>568.7</ele>
        <time>2022-06-14T09:05:35.000Z</time>
      </trkpt>
      <trkpt lat="45.38293" lon="2.38336">
        <ele>568.6</ele>
        <time>2022-06-14T09:05:36.000Z</time>
      </trkpt>
      <trkpt lat="45.38294" lon="2.38335">
        <ele>568.6</ele>
        <time>2022-06-14T09:05:37.000Z</time>
      </trkpt>
      <trkpt lat="45.38295" lon="2.38334">
        <ele>568.6</ele>
        <time>2022-06-14T09:05:38.000Z</time>
      </trkpt>
      <trkpt lat="45.38296" lon="2.38332">
        <ele>568.5</ele>
        <time>2022-06-14T09:05:39.000Z</time>
      </trkpt>
      <trkpt lat="45.38296" lon="2.38331">
        <ele>568.4</ele>
        <time>2022-06-14T09:05:40.000Z</time>
      </trkpt>
      <trkpt lat="45.38297" lon="2.3833">
        <ele>568.4</ele>
        <time>2022-06-14T09:05:41.000Z</time>
      </trkpt>
      <trkpt lat="45.38298" lon="2.38328">
        <ele>568.4</ele>
        <time>2022-06-14T09:05:42.000Z</time>
      </trkpt>
      <trkpt lat="45.38298" lon="2.38327">
        <ele>568.3</ele>
        <time>2022-06-14T09:05:43.000Z</time>
      </trkpt>
      <trkpt lat="45.38299" lon="2.38327">
        <ele>568.3</ele>
        <time>2022-06-14T09:05:44.000Z</time>
      </trkpt>
      <trkpt lat="45.38299" lon="2.38326">
        <ele>568.3</ele>
        <time>2022-06-14T09:05:49.000Z</time>
      </trkpt>
      <trkpt lat="45.38299" lon="2.38325">
        <ele>568.2</ele>
        <time>2022-06-14T09:05:51.000Z</time>
      </trkpt>
      <trkpt lat="45.383" lon="2.38324">
        <ele>568.2</ele>
        <time>2022-06-14T09:05:52.000Z</time>
      </trkpt>
      <trkpt lat="45.383" lon="2.38322">
        <ele>568.1</ele>
        <time>2022-06-14T09:05:53.000Z</time>
      </trkpt>
      <trkpt lat="45.38301" lon="2.38321">
        <ele>568.1</ele>
        <time>2022-06-14T09:05:54.000Z</time>
      </trkpt>
      <trkpt lat="45.38301" lon="2.3832">
        <ele>568</ele>
        <time>2022-06-14T09:05:55.000Z</time>
      </trkpt>
      <trkpt lat="45.38302" lon="2.38318">
        <ele>568</ele>
        <time>2022-06-14T09:05:56.000Z</time>
      </trkpt>
      <trkpt lat="45.38302" lon="2.38317">
        <ele>567.9</ele>
        <time>2022-06-14T09:05:57.000Z</time>
      </trkpt>
      <trkpt lat="45.38302" lon="2.38315">
        <ele>567.9</ele>
        <time>2022-06-14T09:05:58.000Z</time>
      </trkpt>
      <trkpt lat="45.38303" lon="2.38313">
        <ele>567.8</ele>
        <time>2022-06-14T09:05:59.000Z</time>
      </trkpt>
      <trkpt lat="45.38303" lon="2.38312">
        <ele>567.7</ele>
        <time>2022-06-14T09:06:00.000Z</time>
      </trkpt>
      <trkpt lat="45.38304" lon="2.3831">
        <ele>567.7</ele>
        <time>2022-06-14T09:06:01.000Z</time>
      </trkpt>
      <trkpt lat="45.38304" lon="2.38309">
        <ele>567.6</ele>
        <time>2022-06-14T09:06:02.000Z</time>
      </trkpt>
      <trkpt lat="45.38304" lon="2.38307">
        <ele>567.6</ele>
        <time>2022-06-14T09:06:03.000Z</time>
      </trkpt>
      <trkpt lat="45.38305" lon="2.38306">
        <ele>567.5</ele>
        <time>2022-06-14T09:06:04.000Z</time>
      </trkpt>
      <trkpt lat="45.38305" lon="2.38304">
        <ele>567.5</ele>
        <time>2022-06-14T09:06:05.000Z</time>
      </trkpt>
      <trkpt lat="45.38306" lon="2.38303">
        <ele>567.4</ele>
        <time>2022-06-14T09:06:06.000Z</time>
      </trkpt>
      <trkpt lat="45.38306" lon="2.38301">
        <ele>567.4</ele>
        <time>2022-06-14T09:06:07.000Z</time>
      </trkpt>
      <trkpt lat="45.38306" lon="2.383">
        <ele>567.3</ele>
        <time>2022-06-14T09:06:08.000Z</time>
      </trkpt>
      <trkpt lat="45.38307" lon="2.38298">
        <ele>567.3</ele>
        <time>2022-06-14T09:06:09.000Z</time>
      </trkpt>
      <trkpt lat="45.38307" lon="2.38297">
        <ele>567.3</ele>
        <time>2022-06-14T09:06:10.000Z</time>
      </trkpt>
      <trkpt lat="45.38308" lon="2.38295">
        <ele>567.2</ele>
        <time>2022-06-14T09:06:11.000Z</time>
      </trkpt>
      <trkpt lat="45.38308" lon="2.38294">
        <ele>567.2</ele>
        <time>2022-06-14T09:06:12.000Z</time>
      </trkpt>
      <trkpt lat="45.38309" lon="2.38292">
        <ele>567.1</ele>
        <time>2022-06-14T09:06:13.000Z</time>
      </trkpt>
      <trkpt lat="45.38309" lon="2.3829">
        <ele>567.1</ele>
        <time>2022-06-14T09:06:14.000Z</time>
      </trkpt>
      <trkpt lat="45.3831" lon="2.38289">
        <ele>567</ele>
        <time>2022-06-14T09:06:15.000Z</time>
      </trkpt>
      <trkpt lat="45.3831" lon="2.38288">
        <ele>567</ele>
        <time>2022-06-14T09:06:16.000Z</time>
      </trkpt>
      <trkpt lat="45.38311" lon="2.38286">
        <ele>567</ele>
        <time>2022-06-14T09:06:17.000Z</time>
      </trkpt>
      <trkpt lat="45.38311" lon="2.38285">
        <ele>567</ele>
        <time>2022-06-14T09:06:18.000Z</time>
      </trkpt>
      <trkpt lat="45.38312" lon="2.38284">
        <ele>566.9</ele>
        <time>2022-06-14T09:06:19.000Z</time>
      </trkpt>
      <trkpt lat="45.38313" lon="2.38282">
        <ele>566.9</ele>
        <time>2022-06-14T09:06:20.000Z</time>
      </trkpt>
      <trkpt lat="45.38313" lon="2.38281">
        <ele>566.9</ele>
        <time>2022-06-14T09:06:21.000Z</time>
      </trkpt>
      <trkpt lat="45.38314" lon="2.3828">
        <ele>566.9</ele>
        <time>2022-06-14T09:06:22.000Z</time>
      </trkpt>
      <trkpt lat="45.38315" lon="2.38279">
        <ele>566.9</ele>
        <time>2022-06-14T09:06:23.000Z</time>
      </trkpt>
      <trkpt lat="45.38315" lon="2.38278">
        <ele>566.9</ele>
        <time>2022-06-14T09:06:24.000Z</time>
      </trkpt>
      <trkpt lat="45.38316" lon="2.38277">
        <ele>566.9</ele>
        <time>2022-06-14T09:06:25.000Z</time>
      </trkpt>
      <trkpt lat="45.38317" lon="2.38275">
        <ele>566.9</ele>
        <time>2022-06-14T09:06:26.000Z</time>
      </trkpt>
      <trkpt lat="45.38318" lon="2.38274">
        <ele>566.9</ele>
        <time>2022-06-14T09:06:27.000Z</time>
      </trkpt>
      <trkpt lat="45.38319" lon="2.38273">
        <ele>566.9</ele>
        <time>2022-06-14T09:06:28.000Z</time>
      </trkpt>
      <trkpt lat="45.3832" lon="2.38272">
        <ele>566.9</ele>
        <time>2022-06-14T09:06:29.000Z</time>
      </trkpt>
      <trkpt lat="45.3832" lon="2.3827">
        <ele>566.9</ele>
        <time>2022-06-14T09:06:30.000Z</time>
      </trkpt>
      <trkpt lat="45.38321" lon="2.38269">
        <ele>566.9</ele>
        <time>2022-06-14T09:06:31.000Z</time>
      </trkpt>
      <trkpt lat="45.38322" lon="2.38268">
        <ele>566.9</ele>
        <time>2022-06-14T09:06:32.000Z</time>
      </trkpt>
      <trkpt lat="45.38322" lon="2.38267">
        <ele>566.9</ele>
        <time>2022-06-14T09:06:33.000Z</time>
      </trkpt>
      <trkpt lat="45.38323" lon="2.38266">
        <ele>566.9</ele>
        <time>2022-06-14T09:06:34.000Z</time>
      </trkpt>
      <trkpt lat="45.38324" lon="2.38266">
        <ele>566.9</ele>
        <time>2022-06-14T09:06:35.000Z</time>
      </trkpt>
      <trkpt lat="45.38324" lon="2.38265">
        <ele>566.9</ele>
        <time>2022-06-14T09:06:36.000Z</time>
      </trkpt>
      <trkpt lat="45.38325" lon="2.38265">
        <ele>566.9</ele>
        <time>2022-06-14T09:06:37.000Z</time>
      </trkpt>
      <trkpt lat="45.38326" lon="2.38264">
        <ele>567</ele>
        <time>2022-06-14T09:06:38.000Z</time>
      </trkpt>
      <trkpt lat="45.38327" lon="2.38264">
        <ele>567</ele>
        <time>2022-06-14T09:06:40.000Z</time>
      </trkpt>
      <trkpt lat="45.38328" lon="2.38264">
        <ele>567</ele>
        <time>2022-06-14T09:06:43.000Z</time>
      </trkpt>
      <trkpt lat="45.38328" lon="2.38264">
        <ele>567</ele>
        <time>2022-06-14T09:06:49.000Z</time>
      </trkpt>
      <trkpt lat="45.38327" lon="2.38264">
        <ele>567</ele>
        <time>2022-06-14T09:06:52.000Z</time>
      </trkpt>
      <trkpt lat="45.38328" lon="2.38265">
        <ele>567.1</ele>
        <time>2022-06-14T09:06:56.000Z</time>
      </trkpt>
      <trkpt lat="45.38329" lon="2.38266">
        <ele>567.1</ele>
        <time>2022-06-14T09:06:57.000Z</time>
      </trkpt>
      <trkpt lat="45.38329" lon="2.38267">
        <ele>567.2</ele>
        <time>2022-06-14T09:06:58.000Z</time>
      </trkpt>
      <trkpt lat="45.3833" lon="2.38268">
        <ele>567.2</ele>
        <time>2022-06-14T09:06:59.000Z</time>
      </trkpt>
      <trkpt lat="45.3833" lon="2.38269">
        <ele>567.3</ele>
        <time>2022-06-14T09:07:00.000Z</time>
      </trkpt>
      <trkpt lat="45.38329" lon="2.38271">
        <ele>567.3</ele>
        <time>2022-06-14T09:07:01.000Z</time>
      </trkpt>
      <trkpt lat="45.38329" lon="2.38273">
        <ele>567.3</ele>
        <time>2022-06-14T09:07:02.000Z</time>
      </trkpt>
      <trkpt lat="45.38328" lon="2.38275">
        <ele>567.4</ele>
        <time>2022-06-14T09:07:03.000Z</time>
      </trkpt>
      <trkpt lat="45.38328" lon="2.38277">
        <ele>567.4</ele>
        <time>2022-06-14T09:07:04.000Z</time>
      </trkpt>
      <trkpt lat="45.38328" lon="2.38279">
        <ele>567.5</ele>
        <time>2022-06-14T09:07:05.000Z</time>
      </trkpt>
      <trkpt lat="45.38328" lon="2.38281">
        <ele>567.5</ele>
        <time>2022-06-14T09:07:06.000Z</time>
      </trkpt>
      <trkpt lat="45.38328" lon="2.38283">
        <ele>567.6</ele>
        <time>2022-06-14T09:07:07.000Z</time>
      </trkpt>
      <trkpt lat="45.38328" lon="2.38284">
        <ele>567.6</ele>
        <time>2022-06-14T09:07:08.000Z</time>
      </trkpt>
      <trkpt lat="45.38328" lon="2.38286">
        <ele>567.6</ele>
        <time>2022-06-14T09:07:09.000Z</time>
      </trkpt>
      <trkpt lat="45.38328" lon="2.38288">
        <ele>567.7</ele>
        <time>2022-06-14T09:07:10.000Z</time>
      </trkpt>
      <trkpt lat="45.38327" lon="2.3829">
        <ele>567.7</ele>
        <time>2022-06-14T09:07:11.000Z</time>
      </trkpt>
      <trkpt lat="45.38327" lon="2.38292">
        <ele>567.8</ele>
        <time>2022-06-14T09:07:12.000Z</time>
      </trkpt>
      <trkpt lat="45.38326" lon="2.38293">
        <ele>567.8</ele>
        <time>2022-06-14T09:07:13.000Z</time>
      </trkpt>
      <trkpt lat="45.38326" lon="2.38295">
        <ele>567.8</ele>
        <time>2022-06-14T09:07:14.000Z</time>
      </trkpt>
      <trkpt lat="45.38326" lon="2.38297">
        <ele>567.9</ele>
        <time>2022-06-14T09:07:15.000Z</time>
      </trkpt>
      <trkpt lat="45.38326" lon="2.38299">
        <ele>567.9</ele>
        <time>2022-06-14T09:07:16.000Z</time>
      </trkpt>
      <trkpt lat="45.38326" lon="2.38301">
        <ele>568</ele>
        <time>2022-06-14T09:07:17.000Z</time>
      </trkpt>
      <trkpt lat="45.38326" lon="2.38303">
        <ele>568</ele>
        <time>2022-06-14T09:07:18.000Z</time>
      </trkpt>
      <trkpt lat="45.38326" lon="2.38304">
        <ele>568.1</ele>
        <time>2022-06-14T09:07:19.000Z</time>
      </trkpt>
      <trkpt lat="45.38326" lon="2.38306">
        <ele>568.1</ele>
        <time>2022-06-14T09:07:20.000Z</time>
      </trkpt>
      <trkpt lat="45.38326" lon="2.38308">
        <ele>568.2</ele>
        <time>2022-06-14T09:07:21.000Z</time>
      </trkpt>
      <trkpt lat="45.38326" lon="2.3831">
        <ele>568.2</ele>
        <time>2022-06-14T09:07:22.000Z</time>
      </trkpt>
      <trkpt lat="45.38326" lon="2.38312">
        <ele>568.3</ele>
        <time>2022-06-14T09:07:23.000Z</time>
      </trkpt>
      <trkpt lat="45.38326" lon="2.38314">
        <ele>568.4</ele>
        <time>2022-06-14T09:07:24.000Z</time>
      </trkpt>
      <trkpt lat="45.38326" lon="2.38315">
        <ele>568.4</ele>
        <time>2022-06-14T09:07:25.000Z</time>
      </trkpt>
      <trkpt lat="45.38327" lon="2.38317">
        <ele>568.5</ele>
        <time>2022-06-14T09:07:26.000Z</time>
      </trkpt>
      <trkpt lat="45.38327" lon="2.38319">
        <ele>568.5</ele>
        <time>2022-06-14T09:07:27.000Z</time>
      </trkpt>
      <trkpt lat="45.38327" lon="2.38321">
        <ele>568.6</ele>
        <time>2022-06-14T09:07:28.000Z</time>
      </trkpt>
      <trkpt lat="45.38328" lon="2.38323">
        <ele>568.6</ele>
        <time>2022-06-14T09:07:29.000Z</time>
      </trkpt>
      <trkpt lat="45.38328" lon="2.38324">
        <ele>568.7</ele>
        <time>2022-06-14T09:07:30.000Z</time>
      </trkpt>
      <trkpt lat="45.38328" lon="2.38326">
        <ele>568.7</ele>
        <time>2022-06-14T09:07:31.000Z</time>
      </trkpt>
      <trkpt lat="45.38329" lon="2.38328">
        <ele>568.8</ele>
        <time>2022-06-14T09:07:32.000Z</time>
      </trkpt>
      <trkpt lat="45.38329" lon="2.3833">
        <ele>568.9</ele>
        <time>2022-06-14T09:07:33.000Z</time>
      </trkpt>
      <trkpt lat="45.38329" lon="2.38332">
        <ele>568.9</ele>
        <time>2022-06-14T09:07:34.000Z</time>
      </trkpt>
      <trkpt lat="45.3833" lon="2.38333">
        <ele>569</ele>
        <time>2022-06-14T09:07:35.000Z</time>
      </trkpt>
      <trkpt lat="45.3833" lon="2.38335">
        <ele>569</ele>
        <time>2022-06-14T09:07:36.000Z</time>
      </trkpt>
      <trkpt lat="45.3833" lon="2.38337">
        <ele>569.1</ele>
        <time>2022-06-14T09:07:37.000Z</time>
      </trkpt>
      <trkpt lat="45.38331" lon="2.38339">
        <ele>569.2</ele>
        <time>2022-06-14T09:07:38.000Z</time>
      </trkpt>
      <trkpt lat="45.38331" lon="2.38341">
        <ele>569.3</ele>
        <time>2022-06-14T09:07:39.000Z</time>
      </trkpt>
      <trkpt lat="45.38331" lon="2.38342">
        <ele>569.4</ele>
        <time>2022-06-14T09:07:40.000Z</time>
      </trkpt>
      <trkpt lat="45.38331" lon="2.38344">
        <ele>569.5</ele>
        <time>2022-06-14T09:07:41.000Z</time>
      </trkpt>
      <trkpt lat="45.38332" lon="2.38346">
        <ele>569.6</ele>
        <time>2022-06-14T09:07:42.000Z</time>
      </trkpt>
      <trkpt lat="45.38332" lon="2.38348">
        <ele>569.7</ele>
        <time>2022-06-14T09:07:43.000Z</time>
      </trkpt>
      <trkpt lat="45.38332" lon="2.3835">
        <ele>569.8</ele>
        <time>2022-06-14T09:07:44.000Z</time>
      </trkpt>
      <trkpt lat="45.38333" lon="2.38352">
        <ele>569.9</ele>
        <time>2022-06-14T09:07:45.000Z</time>
      </trkpt>
      <trkpt lat="45.38333" lon="2.38353">
        <ele>570</ele>
        <time>2022-06-14T09:07:46.000Z</time>
      </trkpt>
      <trkpt lat="45.38333" lon="2.38355">
        <ele>570</ele>
        <time>2022-06-14T09:07:47.000Z</time>
      </trkpt>
      <trkpt lat="45.38333" lon="2.38357">
        <ele>570.1</ele>
        <time>2022-06-14T09:07:48.000Z</time>
      </trkpt>
      <trkpt lat="45.38334" lon="2.38359">
        <ele>570.2</ele>
        <time>2022-06-14T09:07:49.000Z</time>
      </trkpt>
      <trkpt lat="45.38334" lon="2.38361">
        <ele>570.3</ele>
        <time>2022-06-14T09:07:50.000Z</time>
      </trkpt>
      <trkpt lat="45.38334" lon="2.38363">
        <ele>570.4</ele>
        <time>2022-06-14T09:07:51.000Z</time>
      </trkpt>
      <trkpt lat="45.38335" lon="2.38364">
        <ele>570.5</ele>
        <time>2022-06-14T09:07:52.000Z</time>
      </trkpt>
      <trkpt lat="45.38335" lon="2.38366">
        <ele>570.6</ele>
        <time>2022-06-14T09:07:53.000Z</time>
      </trkpt>
      <trkpt lat="45.38335" lon="2.38368">
        <ele>570.6</ele>
        <time>2022-06-14T09:07:54.000Z</time>
      </trkpt>
      <trkpt lat="45.38335" lon="2.3837">
        <ele>570.7</ele>
        <time>2022-06-14T09:07:55.000Z</time>
      </trkpt>
      <trkpt lat="45.38336" lon="2.38372">
        <ele>570.8</ele>
        <time>2022-06-14T09:07:56.000Z</time>
      </trkpt>
      <trkpt lat="45.38336" lon="2.38373">
        <ele>570.9</ele>
        <time>2022-06-14T09:07:57.000Z</time>
      </trkpt>
      <trkpt lat="45.38336" lon="2.38375">
        <ele>571</ele>
        <time>2022-06-14T09:07:58.000Z</time>
      </trkpt>
      <trkpt lat="45.38336" lon="2.38377">
        <ele>571</ele>
        <time>2022-06-14T09:07:59.000Z</time>
      </trkpt>
      <trkpt lat="45.38337" lon="2.38379">
        <ele>571.1</ele>
        <time>2022-06-14T09:08:00.000Z</time>
      </trkpt>
      <trkpt lat="45.38337" lon="2.38381">
        <ele>571.2</ele>
        <time>2022-06-14T09:08:01.000Z</time>
      </trkpt>
      <trkpt lat="45.38337" lon="2.38382">
        <ele>571.2</ele>
        <time>2022-06-14T09:08:02.000Z</time>
      </trkpt>
      <trkpt lat="45.38338" lon="2.38384">
        <ele>571.3</ele>
        <time>2022-06-14T09:08:03.000Z</time>
      </trkpt>
      <trkpt lat="45.38338" lon="2.38386">
        <ele>571.4</ele>
        <time>2022-06-14T09:08:04.000Z</time>
      </trkpt>
      <trkpt lat="45.38338" lon="2.38388">
        <ele>571.4</ele>
        <time>2022-06-14T09:08:05.000Z</time>
      </trkpt>
      <trkpt lat="45.38338" lon="2.38389">
        <ele>571.5</ele>
        <time>2022-06-14T09:08:06.000Z</time>
      </trkpt>
      <trkpt lat="45.38339" lon="2.38391">
        <ele>571.5</ele>
        <time>2022-06-14T09:08:07.000Z</time>
      </trkpt>
      <trkpt lat="45.38339" lon="2.38393">
        <ele>571.6</ele>
        <time>2022-06-14T09:08:08.000Z</time>
      </trkpt>
      <trkpt lat="45.38339" lon="2.38394">
        <ele>571.6</ele>
        <time>2022-06-14T09:08:09.000Z</time>
      </trkpt>
      <trkpt lat="45.3834" lon="2.38396">
        <ele>571.7</ele>
        <time>2022-06-14T09:08:10.000Z</time>
      </trkpt>
      <trkpt lat="45.3834" lon="2.38398">
        <ele>571.7</ele>
        <time>2022-06-14T09:08:11.000Z</time>
      </trkpt>
      <trkpt lat="45.3834" lon="2.384">
        <ele>571.8</ele>
        <time>2022-06-14T09:08:12.000Z</time>
      </trkpt>
      <trkpt lat="45.38341" lon="2.38401">
        <ele>571.8</ele>
        <time>2022-06-14T09:08:13.000Z</time>
      </trkpt>
      <trkpt lat="45.38341" lon="2.38403">
        <ele>571.9</ele>
        <time>2022-06-14T09:08:14.000Z</time>
      </trkpt>
      <trkpt lat="45.38341" lon="2.38405">
        <ele>571.9</ele>
        <time>2022-06-14T09:08:15.000Z</time>
      </trkpt>
      <trkpt lat="45.38342" lon="2.38407">
        <ele>572</ele>
        <time>2022-06-14T09:08:16.000Z</time>
      </trkpt>
      <trkpt lat="45.38342" lon="2.38409">
        <ele>572</ele>
        <time>2022-06-14T09:08:17.000Z</time>
      </trkpt>
      <trkpt lat="45.38342" lon="2.3841">
        <ele>572</ele>
        <time>2022-06-14T09:08:18.000Z</time>
      </trkpt>
      <trkpt lat="45.38342" lon="2.38412">
        <ele>572.1</ele>
        <time>2022-06-14T09:08:19.000Z</time>
      </trkpt>
      <trkpt lat="45.38343" lon="2.38414">
        <ele>572.1</ele>
        <time>2022-06-14T09:08:20.000Z</time>
      </trkpt>
      <trkpt lat="45.38343" lon="2.38416">
        <ele>572.2</ele>
        <time>2022-06-14T09:08:21.000Z</time>
      </trkpt>
      <trkpt lat="45.38343" lon="2.38418">
        <ele>572.2</ele>
        <time>2022-06-14T09:08:22.000Z</time>
      </trkpt>
      <trkpt lat="45.38344" lon="2.38419">
        <ele>572.2</ele>
        <time>2022-06-14T09:08:23.000Z</time>
      </trkpt>
      <trkpt lat="45.38344" lon="2.38421">
        <ele>572.3</ele>
        <time>2022-06-14T09:08:24.000Z</time>
      </trkpt>
      <trkpt lat="45.38344" lon="2.38423">
        <ele>572.3</ele>
        <time>2022-06-14T09:08:25.000Z</time>
      </trkpt>
      <trkpt lat="45.38345" lon="2.38425">
        <ele>572.4</ele>
        <time>2022-06-14T09:08:26.000Z</time>
      </trkpt>
      <trkpt lat="45.38345" lon="2.38427">
        <ele>572.4</ele>
        <time>2022-06-14T09:08:27.000Z</time>
      </trkpt>
      <trkpt lat="45.38345" lon="2.38428">
        <ele>572.5</ele>
        <time>2022-06-14T09:08:28.000Z</time>
      </trkpt>
      <trkpt lat="45.38346" lon="2.3843">
        <ele>572.5</ele>
        <time>2022-06-14T09:08:29.000Z</time>
      </trkpt>
      <trkpt lat="45.38346" lon="2.38432">
        <ele>572.6</ele>
        <time>2022-06-14T09:08:30.000Z</time>
      </trkpt>
      <trkpt lat="45.38346" lon="2.38434">
        <ele>572.6</ele>
        <time>2022-06-14T09:08:31.000Z</time>
      </trkpt>
      <trkpt lat="45.38347" lon="2.38435">
        <ele>572.6</ele>
        <time>2022-06-14T09:08:32.000Z</time>
      </trkpt>
      <trkpt lat="45.38347" lon="2.38437">
        <ele>572.7</ele>
        <time>2022-06-14T09:08:33.000Z</time>
      </trkpt>
      <trkpt lat="45.38348" lon="2.38439">
        <ele>572.7</ele>
        <time>2022-06-14T09:08:34.000Z</time>
      </trkpt>
      <trkpt lat="45.38348" lon="2.3844">
        <ele>572.8</ele>
        <time>2022-06-14T09:08:35.000Z</time>
      </trkpt>
      <trkpt lat="45.38348" lon="2.38442">
        <ele>572.8</ele>
        <time>2022-06-14T09:08:36.000Z</time>
      </trkpt>
      <trkpt lat="45.38349" lon="2.38444">
        <ele>572.9</ele>
        <time>2022-06-14T09:08:37.000Z</time>
      </trkpt>
      <trkpt lat="45.38349" lon="2.38445">
        <ele>572.9</ele>
        <time>2022-06-14T09:08:38.000Z</time>
      </trkpt>
      <trkpt lat="45.3835" lon="2.38447">
        <ele>572.9</ele>
        <time>2022-06-14T09:08:39.000Z</time>
      </trkpt>
      <trkpt lat="45.3835" lon="2.38449">
        <ele>573</ele>
        <time>2022-06-14T09:08:40.000Z</time>
      </trkpt>
      <trkpt lat="45.3835" lon="2.3845">
        <ele>573</ele>
        <time>2022-06-14T09:08:41.000Z</time>
      </trkpt>
      <trkpt lat="45.38351" lon="2.38452">
        <ele>573.1</ele>
        <time>2022-06-14T09:08:42.000Z</time>
      </trkpt>
      <trkpt lat="45.38351" lon="2.38454">
        <ele>573.1</ele>
        <time>2022-06-14T09:08:43.000Z</time>
      </trkpt>
      <trkpt lat="45.38351" lon="2.38455">
        <ele>573.2</ele>
        <time>2022-06-14T09:08:44.000Z</time>
      </trkpt>
      <trkpt lat="45.38352" lon="2.38457">
        <ele>573.2</ele>
        <time>2022-06-14T09:08:45.000Z</time>
      </trkpt>
      <trkpt lat="45.38352" lon="2.38459">
        <ele>573.3</ele>
        <time>2022-06-14T09:08:46.000Z</time>
      </trkpt>
      <trkpt lat="45.38353" lon="2.38461">
        <ele>573.3</ele>
        <time>2022-06-14T09:08:47.000Z</time>
      </trkpt>
      <trkpt lat="45.38353" lon="2.38462">
        <ele>573.4</ele>
        <time>2022-06-14T09:08:48.000Z</time>
      </trkpt>
      <trkpt lat="45.38353" lon="2.38464">
        <ele>573.4</ele>
        <time>2022-06-14T09:08:49.000Z</time>
      </trkpt>
      <trkpt lat="45.38354" lon="2.38466">
        <ele>573.5</ele>
        <time>2022-06-14T09:08:50.000Z</time>
      </trkpt>
      <trkpt lat="45.38354" lon="2.38467">
        <ele>573.5</ele>
        <time>2022-06-14T09:08:51.000Z</time>
      </trkpt>
      <trkpt lat="45.38355" lon="2.38469">
        <ele>573.6</ele>
        <time>2022-06-14T09:08:52.000Z</time>
      </trkpt>
      <trkpt lat="45.38355" lon="2.38471">
        <ele>573.6</ele>
        <time>2022-06-14T09:08:53.000Z</time>
      </trkpt>
      <trkpt lat="45.38356" lon="2.38472">
        <ele>573.7</ele>
        <time>2022-06-14T09:08:54.000Z</time>
      </trkpt>
      <trkpt lat="45.38356" lon="2.38474">
        <ele>573.7</ele>
        <time>2022-06-14T09:08:55.000Z</time>
      </trkpt>
      <trkpt lat="45.38356" lon="2.38475">
        <ele>573.8</ele>
        <time>2022-06-14T09:08:56.000Z</time>
      </trkpt>
      <trkpt lat="45.38357" lon="2.38477">
        <ele>573.8</ele>
        <time>2022-06-14T09:08:57.000Z</time>
      </trkpt>
      <trkpt lat="45.38358" lon="2.38479">
        <ele>573.8</ele>
        <time>2022-06-14T09:08:58.000Z</time>
      </trkpt>
      <trkpt lat="45.38358" lon="2.3848">
        <ele>573.9</ele>
        <time>2022-06-14T09:08:59.000Z</time>
      </trkpt>
      <trkpt lat="45.38359" lon="2.38482">
        <ele>573.9</ele>
        <time>2022-06-14T09:09:00.000Z</time>
      </trkpt>
      <trkpt lat="45.38359" lon="2.38483">
        <ele>574</ele>
        <time>2022-06-14T09:09:01.000Z</time>
      </trkpt>
      <trkpt lat="45.3836" lon="2.38485">
        <ele>574</ele>
        <time>2022-06-14T09:09:02.000Z</time>
      </trkpt>
      <trkpt lat="45.3836" lon="2.38486">
        <ele>574</ele>
        <time>2022-06-14T09:09:03.000Z</time>
      </trkpt>
      <trkpt lat="45.38361" lon="2.38488">
        <ele>574.1</ele>
        <time>2022-06-14T09:09:04.000Z</time>
      </trkpt>
      <trkpt lat="45.38362" lon="2.38489">
        <ele>574.1</ele>
        <time>2022-06-14T09:09:05.000Z</time>
      </trkpt>
      <trkpt lat="45.38362" lon="2.38491">
        <ele>574.2</ele>
        <time>2022-06-14T09:09:06.000Z</time>
      </trkpt>
      <trkpt lat="45.38363" lon="2.38492">
        <ele>574.2</ele>
        <time>2022-06-14T09:09:07.000Z</time>
      </trkpt>
      <trkpt lat="45.38364" lon="2.38494">
        <ele>574.2</ele>
        <time>2022-06-14T09:09:08.000Z</time>
      </trkpt>
      <trkpt lat="45.38364" lon="2.38495">
        <ele>574.3</ele>
        <time>2022-06-14T09:09:09.000Z</time>
      </trkpt>
      <trkpt lat="45.38365" lon="2.38496">
        <ele>574.3</ele>
        <time>2022-06-14T09:09:10.000Z</time>
      </trkpt>
      <trkpt lat="45.38366" lon="2.38498">
        <ele>574.3</ele>
        <time>2022-06-14T09:09:11.000Z</time>
      </trkpt>
      <trkpt lat="45.38367" lon="2.38499">
        <ele>574.4</ele>
        <time>2022-06-14T09:09:12.000Z</time>
      </trkpt>
      <trkpt lat="45.38367" lon="2.385">
        <ele>574.4</ele>
        <time>2022-06-14T09:09:13.000Z</time>
      </trkpt>
      <trkpt lat="45.38368" lon="2.38502">
        <ele>574.4</ele>
        <time>2022-06-14T09:09:14.000Z</time>
      </trkpt>
      <trkpt lat="45.38369" lon="2.38503">
        <ele>574.4</ele>
        <time>2022-06-14T09:09:15.000Z</time>
      </trkpt>
      <trkpt lat="45.3837" lon="2.38504">
        <ele>574.4</ele>
        <time>2022-06-14T09:09:16.000Z</time>
      </trkpt>
      <trkpt lat="45.38371" lon="2.38505">
        <ele>574.4</ele>
        <time>2022-06-14T09:09:17.000Z</time>
      </trkpt>
      <trkpt lat="45.38372" lon="2.38506">
        <ele>574.4</ele>
        <time>2022-06-14T09:09:18.000Z</time>
      </trkpt>
      <trkpt lat="45.38373" lon="2.38507">
        <ele>574.4</ele>
        <time>2022-06-14T09:09:19.000Z</time>
      </trkpt>
      <trkpt lat="45.38374" lon="2.38508">
        <ele>574.4</ele>
        <time>2022-06-14T09:09:20.000Z</time>
      </trkpt>
      <trkpt lat="45.38375" lon="2.38509">
        <ele>574.4</ele>
        <time>2022-06-14T09:09:21.000Z</time>
      </trkpt>
      <trkpt lat="45.38376" lon="2.38509">
        <ele>574.3</ele>
        <time>2022-06-14T09:09:22.000Z</time>
      </trkpt>
      <trkpt lat="45.38377" lon="2.3851">
        <ele>574.3</ele>
        <time>2022-06-14T09:09:23.000Z</time>
      </trkpt>
      <trkpt lat="45.38379" lon="2.3851">
        <ele>574.3</ele>
        <time>2022-06-14T09:09:24.000Z</time>
      </trkpt>
      <trkpt lat="45.3838" lon="2.3851">
        <ele>574.2</ele>
        <time>2022-06-14T09:09:25.000Z</time>
      </trkpt>
      <trkpt lat="45.38381" lon="2.38509">
        <ele>574.1</ele>
        <time>2022-06-14T09:09:26.000Z</time>
      </trkpt>
      <trkpt lat="45.38382" lon="2.38508">
        <ele>574</ele>
        <time>2022-06-14T09:09:27.000Z</time>
      </trkpt>
      <trkpt lat="45.38382" lon="2.38507">
        <ele>574</ele>
        <time>2022-06-14T09:09:28.000Z</time>
      </trkpt>
      <trkpt lat="45.38383" lon="2.38506">
        <ele>573.9</ele>
        <time>2022-06-14T09:09:29.000Z</time>
      </trkpt>
      <trkpt lat="45.38384" lon="2.38505">
        <ele>573.8</ele>
        <time>2022-06-14T09:09:30.000Z</time>
      </trkpt>
      <trkpt lat="45.38385" lon="2.38504">
        <ele>573.7</ele>
        <time>2022-06-14T09:09:31.000Z</time>
      </trkpt>
      <trkpt lat="45.38387" lon="2.38503">
        <ele>573.6</ele>
        <time>2022-06-14T09:09:32.000Z</time>
      </trkpt>
      <trkpt lat="45.38388" lon="2.38502">
        <ele>573.5</ele>
        <time>2022-06-14T09:09:33.000Z</time>
      </trkpt>
      <trkpt lat="45.38389" lon="2.38501">
        <ele>573.4</ele>
        <time>2022-06-14T09:09:34.000Z</time>
      </trkpt>
      <trkpt lat="45.3839" lon="2.385">
        <ele>573.3</ele>
        <time>2022-06-14T09:09:35.000Z</time>
      </trkpt>
      <trkpt lat="45.38391" lon="2.385">
        <ele>573.2</ele>
        <time>2022-06-14T09:09:36.000Z</time>
      </trkpt>
      <trkpt lat="45.38392" lon="2.385">
        <ele>573.1</ele>
        <time>2022-06-14T09:09:37.000Z</time>
      </trkpt>
      <trkpt lat="45.38393" lon="2.38499">
        <ele>573.1</ele>
        <time>2022-06-14T09:09:38.000Z</time>
      </trkpt>
      <trkpt lat="45.38394" lon="2.38499">
        <ele>573</ele>
        <time>2022-06-14T09:09:39.000Z</time>
      </trkpt>
      <trkpt lat="45.38395" lon="2.38499">
        <ele>573</ele>
        <time>2022-06-14T09:09:40.000Z</time>
      </trkpt>
      <trkpt lat="45.38396" lon="2.38498">
        <ele>572.9</ele>
        <time>2022-06-14T09:09:41.000Z</time>
      </trkpt>
      <trkpt lat="45.38397" lon="2.38498">
        <ele>572.8</ele>
        <time>2022-06-14T09:09:43.000Z</time>
      </trkpt>
      <trkpt lat="45.38398" lon="2.38498">
        <ele>572.8</ele>
        <time>2022-06-14T09:09:44.000Z</time>
      </trkpt>
      <trkpt lat="45.38399" lon="2.38498">
        <ele>572.7</ele>
        <time>2022-06-14T09:09:45.000Z</time>
      </trkpt>
      <trkpt lat="45.384" lon="2.38497">
        <ele>572.6</ele>
        <time>2022-06-14T09:09:46.000Z</time>
      </trkpt>
      <trkpt lat="45.38401" lon="2.38497">
        <ele>572.6</ele>
        <time>2022-06-14T09:09:47.000Z</time>
      </trkpt>
      <trkpt lat="45.38402" lon="2.38497">
        <ele>572.5</ele>
        <time>2022-06-14T09:09:48.000Z</time>
      </trkpt>
      <trkpt lat="45.38403" lon="2.38497">
        <ele>572.4</ele>
        <time>2022-06-14T09:09:49.000Z</time>
      </trkpt>
      <trkpt lat="45.38404" lon="2.38497">
        <ele>572.4</ele>
        <time>2022-06-14T09:09:50.000Z</time>
      </trkpt>
      <trkpt lat="45.38405" lon="2.38496">
        <ele>572.3</ele>
        <time>2022-06-14T09:09:51.000Z</time>
      </trkpt>
      <trkpt lat="45.38407" lon="2.38496">
        <ele>572.2</ele>
        <time>2022-06-14T09:09:52.000Z</time>
      </trkpt>
      <trkpt lat="45.38408" lon="2.38496">
        <ele>572.2</ele>
        <time>2022-06-14T09:09:53.000Z</time>
      </trkpt>
      <trkpt lat="45.38409" lon="2.38496">
        <ele>572.1</ele>
        <time>2022-06-14T09:09:54.000Z</time>
      </trkpt>
      <trkpt lat="45.3841" lon="2.38496">
        <ele>572</ele>
        <time>2022-06-14T09:09:55.000Z</time>
      </trkpt>
      <trkpt lat="45.38411" lon="2.38496">
        <ele>571.9</ele>
        <time>2022-06-14T09:09:56.000Z</time>
      </trkpt>
      <trkpt lat="45.38413" lon="2.38495">
        <ele>571.9</ele>
        <time>2022-06-14T09:09:57.000Z</time>
      </trkpt>
      <trkpt lat="45.38414" lon="2.38495">
        <ele>571.8</ele>
        <time>2022-06-14T09:09:58.000Z</time>
      </trkpt>
      <trkpt lat="45.38415" lon="2.38495">
        <ele>571.7</ele>
        <time>2022-06-14T09:09:59.000Z</time>
      </trkpt>
      <trkpt lat="45.38416" lon="2.38495">
        <ele>571.6</ele>
        <time>2022-06-14T09:10:00.000Z</time>
      </trkpt>
      <trkpt lat="45.38418" lon="2.38494">
        <ele>571.6</ele>
        <time>2022-06-14T09:10:01.000Z</time>
      </trkpt>
      <trkpt lat="45.38419" lon="2.38494">
        <ele>571.6</ele>
        <time>2022-06-14T09:10:02.000Z</time>
      </trkpt>
      <trkpt lat="45.3842" lon="2.38494">
        <ele>571.6</ele>
        <time>2022-06-14T09:10:03.000Z</time>
      </trkpt>
      <trkpt lat="45.38422" lon="2.38495">
        <ele>571.6</ele>
        <time>2022-06-14T09:10:04.000Z</time>
      </trkpt>
      <trkpt lat="45.38423" lon="2.38495">
        <ele>571.6</ele>
        <time>2022-06-14T09:10:05.000Z</time>
      </trkpt>
      <trkpt lat="45.38424" lon="2.38495">
        <ele>571.6</ele>
        <time>2022-06-14T09:10:06.000Z</time>
      </trkpt>
      <trkpt lat="45.38425" lon="2.38495">
        <ele>571.6</ele>
        <time>2022-06-14T09:10:07.000Z</time>
      </trkpt>
      <trkpt lat="45.38426" lon="2.38495">
        <ele>571.6</ele>
        <time>2022-06-14T09:10:08.000Z</time>
      </trkpt>
      <trkpt lat="45.38428" lon="2.38495">
        <ele>571.6</ele>
        <time>2022-06-14T09:10:09.000Z</time>
      </trkpt>
      <trkpt lat="45.38429" lon="2.38494">
        <ele>571.6</ele>
        <time>2022-06-14T09:10:10.000Z</time>
      </trkpt>
      <trkpt lat="45.3843" lon="2.38494">
        <ele>571.5</ele>
        <time>2022-06-14T09:10:11.000Z</time>
      </trkpt>
      <trkpt lat="45.38431" lon="2.38493">
        <ele>571.5</ele>
        <time>2022-06-14T09:10:12.000Z</time>
      </trkpt>
      <trkpt lat="45.38432" lon="2.38493">
        <ele>571.5</ele>
        <time>2022-06-14T09:10:13.000Z</time>
      </trkpt>
      <trkpt lat="45.38434" lon="2.38492">
        <ele>571.4</ele>
        <time>2022-06-14T09:10:14.000Z</time>
      </trkpt>
      <trkpt lat="45.38435" lon="2.38491">
        <ele>571.4</ele>
        <time>2022-06-14T09:10:15.000Z</time>
      </trkpt>
      <trkpt lat="45.38436" lon="2.38491">
        <ele>571.3</ele>
        <time>2022-06-14T09:10:16.000Z</time>
      </trkpt>
      <trkpt lat="45.38437" lon="2.3849">
        <ele>571.3</ele>
        <time>2022-06-14T09:10:17.000Z</time>
      </trkpt>
      <trkpt lat="45.38438" lon="2.3849">
        <ele>571.3</ele>
        <time>2022-06-14T09:10:18.000Z</time>
      </trkpt>
      <trkpt lat="45.38439" lon="2.3849">
        <ele>571.3</ele>
        <time>2022-06-14T09:10:19.000Z</time>
      </trkpt>
      <trkpt lat="45.3844" lon="2.3849">
        <ele>571.3</ele>
        <time>2022-06-14T09:10:20.000Z</time>
      </trkpt>
      <trkpt lat="45.38442" lon="2.3849">
        <ele>571.3</ele>
        <time>2022-06-14T09:10:21.000Z</time>
      </trkpt>
      <trkpt lat="45.38443" lon="2.38491">
        <ele>571.3</ele>
        <time>2022-06-14T09:10:22.000Z</time>
      </trkpt>
      <trkpt lat="45.38444" lon="2.38491">
        <ele>571.4</ele>
        <time>2022-06-14T09:10:23.000Z</time>
      </trkpt>
      <trkpt lat="45.38445" lon="2.38492">
        <ele>571.4</ele>
        <time>2022-06-14T09:10:24.000Z</time>
      </trkpt>
      <trkpt lat="45.38446" lon="2.38493">
        <ele>571.5</ele>
        <time>2022-06-14T09:10:25.000Z</time>
      </trkpt>
      <trkpt lat="45.38446" lon="2.38494">
        <ele>571.5</ele>
        <time>2022-06-14T09:10:26.000Z</time>
      </trkpt>
      <trkpt lat="45.38447" lon="2.38494">
        <ele>571.6</ele>
        <time>2022-06-14T09:10:27.000Z</time>
      </trkpt>
      <trkpt lat="45.38447" lon="2.38495">
        <ele>571.6</ele>
        <time>2022-06-14T09:10:28.000Z</time>
      </trkpt>
      <trkpt lat="45.38447" lon="2.38496">
        <ele>571.7</ele>
        <time>2022-06-14T09:10:31.000Z</time>
      </trkpt>
      <trkpt lat="45.38447" lon="2.38497">
        <ele>571.8</ele>
        <time>2022-06-14T09:10:33.000Z</time>
      </trkpt>
      <trkpt lat="45.38447" lon="2.38498">
        <ele>571.8</ele>
        <time>2022-06-14T09:10:35.000Z</time>
      </trkpt>
      <trkpt lat="45.38448" lon="2.38498">
        <ele>571.9</ele>
        <time>2022-06-14T09:10:36.000Z</time>
      </trkpt>
      <trkpt lat="45.38448" lon="2.38499">
        <ele>571.9</ele>
        <time>2022-06-14T09:10:38.000Z</time>
      </trkpt>
      <trkpt lat="45.38448" lon="2.385">
        <ele>572</ele>
        <time>2022-06-14T09:10:56.000Z</time>
      </trkpt>
      <trkpt lat="45.38448" lon="2.38501">
        <ele>572</ele>
        <time>2022-06-14T09:10:57.000Z</time>
      </trkpt>
      <trkpt lat="45.38449" lon="2.38501">
        <ele>572.1</ele>
        <time>2022-06-14T09:10:58.000Z</time>
      </trkpt>
      <trkpt lat="45.3845" lon="2.38503">
        <ele>572.2</ele>
        <time>2022-06-14T09:10:59.000Z</time>
      </trkpt>
      <trkpt lat="45.38451" lon="2.38504">
        <ele>572.2</ele>
        <time>2022-06-14T09:11:00.000Z</time>
      </trkpt>
      <trkpt lat="45.38452" lon="2.38505">
        <ele>572.3</ele>
        <time>2022-06-14T09:11:01.000Z</time>
      </trkpt>
      <trkpt lat="45.38452" lon="2.38507">
        <ele>572.4</ele>
        <time>2022-06-14T09:11:02.000Z</time>
      </trkpt>
      <trkpt lat="45.38453" lon="2.38508">
        <ele>572.5</ele>
        <time>2022-06-14T09:11:03.000Z</time>
      </trkpt>
      <trkpt lat="45.38454" lon="2.3851">
        <ele>572.6</ele>
        <time>2022-06-14T09:11:04.000Z</time>
      </trkpt>
      <trkpt lat="45.38455" lon="2.38511">
        <ele>572.7</ele>
        <time>2022-06-14T09:11:05.000Z</time>
      </trkpt>
      <trkpt lat="45.38456" lon="2.38513">
        <ele>572.8</ele>
        <time>2022-06-14T09:11:06.000Z</time>
      </trkpt>
      <trkpt lat="45.38457" lon="2.38514">
        <ele>572.8</ele>
        <time>2022-06-14T09:11:07.000Z</time>
      </trkpt>
      <trkpt lat="45.38458" lon="2.38515">
        <ele>572.9</ele>
        <time>2022-06-14T09:11:08.000Z</time>
      </trkpt>
      <trkpt lat="45.38459" lon="2.38517">
        <ele>573</ele>
        <time>2022-06-14T09:11:09.000Z</time>
      </trkpt>
      <trkpt lat="45.3846" lon="2.38518">
        <ele>573.1</ele>
        <time>2022-06-14T09:11:10.000Z</time>
      </trkpt>
      <trkpt lat="45.38461" lon="2.38519">
        <ele>573.1</ele>
        <time>2022-06-14T09:11:11.000Z</time>
      </trkpt>
      <trkpt lat="45.38462" lon="2.3852">
        <ele>573.2</ele>
        <time>2022-06-14T09:11:12.000Z</time>
      </trkpt>
      <trkpt lat="45.38463" lon="2.38521">
        <ele>573.3</ele>
        <time>2022-06-14T09:11:13.000Z</time>
      </trkpt>
      <trkpt lat="45.38464" lon="2.38523">
        <ele>573.4</ele>
        <time>2022-06-14T09:11:14.000Z</time>
      </trkpt>
      <trkpt lat="45.38465" lon="2.38524">
        <ele>573.4</ele>
        <time>2022-06-14T09:11:15.000Z</time>
      </trkpt>
      <trkpt lat="45.38466" lon="2.38525">
        <ele>573.5</ele>
        <time>2022-06-14T09:11:16.000Z</time>
      </trkpt>
      <trkpt lat="45.38467" lon="2.38526">
        <ele>573.5</ele>
        <time>2022-06-14T09:11:17.000Z</time>
      </trkpt>
      <trkpt lat="45.38468" lon="2.38527">
        <ele>573.6</ele>
        <time>2022-06-14T09:11:18.000Z</time>
      </trkpt>
      <trkpt lat="45.38469" lon="2.38528">
        <ele>573.7</ele>
        <time>2022-06-14T09:11:19.000Z</time>
      </trkpt>
      <trkpt lat="45.3847" lon="2.38529">
        <ele>573.7</ele>
        <time>2022-06-14T09:11:20.000Z</time>
      </trkpt>
      <trkpt lat="45.38471" lon="2.3853">
        <ele>573.8</ele>
        <time>2022-06-14T09:11:21.000Z</time>
      </trkpt>
      <trkpt lat="45.38472" lon="2.3853">
        <ele>573.8</ele>
        <time>2022-06-14T09:11:22.000Z</time>
      </trkpt>
      <trkpt lat="45.38473" lon="2.38531">
        <ele>573.9</ele>
        <time>2022-06-14T09:11:23.000Z</time>
      </trkpt>
      <trkpt lat="45.38474" lon="2.38532">
        <ele>573.9</ele>
        <time>2022-06-14T09:11:24.000Z</time>
      </trkpt>
      <trkpt lat="45.38475" lon="2.38533">
        <ele>574</ele>
        <time>2022-06-14T09:11:25.000Z</time>
      </trkpt>
      <trkpt lat="45.38476" lon="2.38533">
        <ele>574</ele>
        <time>2022-06-14T09:11:26.000Z</time>
      </trkpt>
      <trkpt lat="45.38477" lon="2.38534">
        <ele>574</ele>
        <time>2022-06-14T09:11:27.000Z</time>
      </trkpt>
      <trkpt lat="45.38479" lon="2.38535">
        <ele>574.1</ele>
        <time>2022-06-14T09:11:28.000Z</time>
      </trkpt>
      <trkpt lat="45.3848" lon="2.38535">
        <ele>574.1</ele>
        <time>2022-06-14T09:11:29.000Z</time>
      </trkpt>
      <trkpt lat="45.38481" lon="2.38536">
        <ele>574.1</ele>
        <time>2022-06-14T09:11:30.000Z</time>
      </trkpt>
      <trkpt lat="45.38482" lon="2.38536">
        <ele>574.2</ele>
        <time>2022-06-14T09:11:31.000Z</time>
      </trkpt>
      <trkpt lat="45.38483" lon="2.38537">
        <ele>574.2</ele>
        <time>2022-06-14T09:11:32.000Z</time>
      </trkpt>
      <trkpt lat="45.38485" lon="2.38537">
        <ele>574.2</ele>
        <time>2022-06-14T09:11:33.000Z</time>
      </trkpt>
      <trkpt lat="45.38486" lon="2.38538">
        <ele>574.2</ele>
        <time>2022-06-14T09:11:34.000Z</time>
      </trkpt>
      <trkpt lat="45.38487" lon="2.38538">
        <ele>574.3</ele>
        <time>2022-06-14T09:11:35.000Z</time>
      </trkpt>
      <trkpt lat="45.38488" lon="2.38538">
        <ele>574.3</ele>
        <time>2022-06-14T09:11:36.000Z</time>
      </trkpt>
      <trkpt lat="45.3849" lon="2.38539">
        <ele>574.3</ele>
        <time>2022-06-14T09:11:37.000Z</time>
      </trkpt>
      <trkpt lat="45.38491" lon="2.38539">
        <ele>574.3</ele>
        <time>2022-06-14T09:11:38.000Z</time>
      </trkpt>
      <trkpt lat="45.38492" lon="2.38539">
        <ele>574.3</ele>
        <time>2022-06-14T09:11:39.000Z</time>
      </trkpt>
      <trkpt lat="45.38493" lon="2.38539">
        <ele>574.4</ele>
        <time>2022-06-14T09:11:40.000Z</time>
      </trkpt>
      <trkpt lat="45.38495" lon="2.38539">
        <ele>574.4</ele>
        <time>2022-06-14T09:11:41.000Z</time>
      </trkpt>
      <trkpt lat="45.38496" lon="2.3854">
        <ele>574.4</ele>
        <time>2022-06-14T09:11:42.000Z</time>
      </trkpt>
      <trkpt lat="45.38497" lon="2.3854">
        <ele>574.4</ele>
        <time>2022-06-14T09:11:43.000Z</time>
      </trkpt>
      <trkpt lat="45.38498" lon="2.3854">
        <ele>574.4</ele>
        <time>2022-06-14T09:11:44.000Z</time>
      </trkpt>
      <trkpt lat="45.385" lon="2.3854">
        <ele>574.4</ele>
        <time>2022-06-14T09:11:45.000Z</time>
      </trkpt>
      <trkpt lat="45.38501" lon="2.3854">
        <ele>574.4</ele>
        <time>2022-06-14T09:11:46.000Z</time>
      </trkpt>
      <trkpt lat="45.38502" lon="2.3854">
        <ele>574.4</ele>
        <time>2022-06-14T09:11:47.000Z</time>
      </trkpt>
      <trkpt lat="45.38503" lon="2.3854">
        <ele>574.4</ele>
        <time>2022-06-14T09:11:48.000Z</time>
      </trkpt>
      <trkpt lat="45.38505" lon="2.3854">
        <ele>574.5</ele>
        <time>2022-06-14T09:11:49.000Z</time>
      </trkpt>
      <trkpt lat="45.38506" lon="2.3854">
        <ele>574.5</ele>
        <time>2022-06-14T09:11:50.000Z</time>
      </trkpt>
      <trkpt lat="45.38507" lon="2.3854">
        <ele>574.5</ele>
        <time>2022-06-14T09:11:51.000Z</time>
      </trkpt>
      <trkpt lat="45.38508" lon="2.3854">
        <ele>574.5</ele>
        <time>2022-06-14T09:11:52.000Z</time>
      </trkpt>
      <trkpt lat="45.3851" lon="2.38539">
        <ele>574.5</ele>
        <time>2022-06-14T09:11:53.000Z</time>
      </trkpt>
      <trkpt lat="45.38511" lon="2.38539">
        <ele>574.6</ele>
        <time>2022-06-14T09:11:54.000Z</time>
      </trkpt>
      <trkpt lat="45.38512" lon="2.38539">
        <ele>574.6</ele>
        <time>2022-06-14T09:11:55.000Z</time>
      </trkpt>
      <trkpt lat="45.38513" lon="2.38539">
        <ele>574.6</ele>
        <time>2022-06-14T09:11:56.000Z</time>
      </trkpt>
      <trkpt lat="45.38515" lon="2.38539">
        <ele>574.6</ele>
        <time>2022-06-14T09:11:57.000Z</time>
      </trkpt>
      <trkpt lat="45.38516" lon="2.38539">
        <ele>574.6</ele>
        <time>2022-06-14T09:11:58.000Z</time>
      </trkpt>
      <trkpt lat="45.38517" lon="2.38539">
        <ele>574.6</ele>
        <time>2022-06-14T09:11:59.000Z</time>
      </trkpt>
      <trkpt lat="45.38518" lon="2.38539">
        <ele>574.7</ele>
        <time>2022-06-14T09:12:00.000Z</time>
      </trkpt>
      <trkpt lat="45.3852" lon="2.38539">
        <ele>574.7</ele>
        <time>2022-06-14T09:12:01.000Z</time>
      </trkpt>
      <trkpt lat="45.38521" lon="2.38539">
        <ele>574.7</ele>
        <time>2022-06-14T09:12:02.000Z</time>
      </trkpt>
      <trkpt lat="45.38522" lon="2.38539">
        <ele>574.7</ele>
        <time>2022-06-14T09:12:03.000Z</time>
      </trkpt>
      <trkpt lat="45.38523" lon="2.38539">
        <ele>574.8</ele>
        <time>2022-06-14T09:12:04.000Z</time>
      </trkpt>
      <trkpt lat="45.38525" lon="2.38539">
        <ele>574.8</ele>
        <time>2022-06-14T09:12:05.000Z</time>
      </trkpt>
      <trkpt lat="45.38526" lon="2.38539">
        <ele>574.8</ele>
        <time>2022-06-14T09:12:06.000Z</time>
      </trkpt>
      <trkpt lat="45.38527" lon="2.3854">
        <ele>574.9</ele>
        <time>2022-06-14T09:12:07.000Z</time>
      </trkpt>
      <trkpt lat="45.38529" lon="2.3854">
        <ele>574.9</ele>
        <time>2022-06-14T09:12:08.000Z</time>
      </trkpt>
      <trkpt lat="45.3853" lon="2.3854">
        <ele>574.9</ele>
        <time>2022-06-14T09:12:09.000Z</time>
      </trkpt>
      <trkpt lat="45.38531" lon="2.3854">
        <ele>574.9</ele>
        <time>2022-06-14T09:12:10.000Z</time>
      </trkpt>
      <trkpt lat="45.38533" lon="2.3854">
        <ele>575</ele>
        <time>2022-06-14T09:12:11.000Z</time>
      </trkpt>
      <trkpt lat="45.38534" lon="2.3854">
        <ele>575</ele>
        <time>2022-06-14T09:12:12.000Z</time>
      </trkpt>
      <trkpt lat="45.38535" lon="2.3854">
        <ele>575</ele>
        <time>2022-06-14T09:12:13.000Z</time>
      </trkpt>
      <trkpt lat="45.38537" lon="2.3854">
        <ele>575.1</ele>
        <time>2022-06-14T09:12:14.000Z</time>
      </trkpt>
      <trkpt lat="45.38538" lon="2.3854">
        <ele>575.1</ele>
        <time>2022-06-14T09:12:15.000Z</time>
      </trkpt>
      <trkpt lat="45.38539" lon="2.38541">
        <ele>575.1</ele>
        <time>2022-06-14T09:12:16.000Z</time>
      </trkpt>
      <trkpt lat="45.38541" lon="2.38541">
        <ele>575.2</ele>
        <time>2022-06-14T09:12:17.000Z</time>
      </trkpt>
      <trkpt lat="45.38542" lon="2.38541">
        <ele>575.2</ele>
        <time>2022-06-14T09:12:18.000Z</time>
      </trkpt>
      <trkpt lat="45.38543" lon="2.3854">
        <ele>575.2</ele>
        <time>2022-06-14T09:12:19.000Z</time>
      </trkpt>
      <trkpt lat="45.38545" lon="2.3854">
        <ele>575.2</ele>
        <time>2022-06-14T09:12:20.000Z</time>
      </trkpt>
      <trkpt lat="45.38546" lon="2.3854">
        <ele>575.2</ele>
        <time>2022-06-14T09:12:21.000Z</time>
      </trkpt>
      <trkpt lat="45.38547" lon="2.3854">
        <ele>575.2</ele>
        <time>2022-06-14T09:12:22.000Z</time>
      </trkpt>
      <trkpt lat="45.38549" lon="2.38539">
        <ele>575.2</ele>
        <time>2022-06-14T09:12:23.000Z</time>
      </trkpt>
      <trkpt lat="45.3855" lon="2.38539">
        <ele>575.2</ele>
        <time>2022-06-14T09:12:24.000Z</time>
      </trkpt>
      <trkpt lat="45.38551" lon="2.38538">
        <ele>575.2</ele>
        <time>2022-06-14T09:12:25.000Z</time>
      </trkpt>
      <trkpt lat="45.38552" lon="2.38538">
        <ele>575.2</ele>
        <time>2022-06-14T09:12:26.000Z</time>
      </trkpt>
      <trkpt lat="45.38554" lon="2.38537">
        <ele>575.1</ele>
        <time>2022-06-14T09:12:27.000Z</time>
      </trkpt>
      <trkpt lat="45.38555" lon="2.38536">
        <ele>575.1</ele>
        <time>2022-06-14T09:12:28.000Z</time>
      </trkpt>
      <trkpt lat="45.38556" lon="2.38535">
        <ele>575.1</ele>
        <time>2022-06-14T09:12:29.000Z</time>
      </trkpt>
      <trkpt lat="45.38557" lon="2.38534">
        <ele>575</ele>
        <time>2022-06-14T09:12:30.000Z</time>
      </trkpt>
      <trkpt lat="45.38558" lon="2.38533">
        <ele>575</ele>
        <time>2022-06-14T09:12:31.000Z</time>
      </trkpt>
      <trkpt lat="45.38559" lon="2.38532">
        <ele>574.9</ele>
        <time>2022-06-14T09:12:32.000Z</time>
      </trkpt>
      <trkpt lat="45.3856" lon="2.38531">
        <ele>574.9</ele>
        <time>2022-06-14T09:12:33.000Z</time>
      </trkpt>
      <trkpt lat="45.38561" lon="2.3853">
        <ele>574.8</ele>
        <time>2022-06-14T09:12:34.000Z</time>
      </trkpt>
      <trkpt lat="45.38563" lon="2.38529">
        <ele>574.7</ele>
        <time>2022-06-14T09:12:35.000Z</time>
      </trkpt>
      <trkpt lat="45.38564" lon="2.38528">
        <ele>574.7</ele>
        <time>2022-06-14T09:12:36.000Z</time>
      </trkpt>
      <trkpt lat="45.38565" lon="2.38526">
        <ele>574.6</ele>
        <time>2022-06-14T09:12:37.000Z</time>
      </trkpt>
      <trkpt lat="45.38566" lon="2.38525">
        <ele>574.5</ele>
        <time>2022-06-14T09:12:38.000Z</time>
      </trkpt>
      <trkpt lat="45.38567" lon="2.38524">
        <ele>574.5</ele>
        <time>2022-06-14T09:12:39.000Z</time>
      </trkpt>
      <trkpt lat="45.38568" lon="2.38523">
        <ele>574.4</ele>
        <time>2022-06-14T09:12:40.000Z</time>
      </trkpt>
      <trkpt lat="45.38569" lon="2.38522">
        <ele>574.4</ele>
        <time>2022-06-14T09:12:41.000Z</time>
      </trkpt>
      <trkpt lat="45.3857" lon="2.38521">
        <ele>574.3</ele>
        <time>2022-06-14T09:12:42.000Z</time>
      </trkpt>
      <trkpt lat="45.38571" lon="2.3852">
        <ele>574.2</ele>
        <time>2022-06-14T09:12:43.000Z</time>
      </trkpt>
      <trkpt lat="45.38572" lon="2.38519">
        <ele>574.2</ele>
        <time>2022-06-14T09:12:44.000Z</time>
      </trkpt>
      <trkpt lat="45.38573" lon="2.38517">
        <ele>574.1</ele>
        <time>2022-06-14T09:12:45.000Z</time>
      </trkpt>
      <trkpt lat="45.38574" lon="2.38516">
        <ele>574</ele>
        <time>2022-06-14T09:12:46.000Z</time>
      </trkpt>
      <trkpt lat="45.38575" lon="2.38515">
        <ele>574</ele>
        <time>2022-06-14T09:12:47.000Z</time>
      </trkpt>
      <trkpt lat="45.38576" lon="2.38514">
        <ele>573.9</ele>
        <time>2022-06-14T09:12:48.000Z</time>
      </trkpt>
      <trkpt lat="45.38577" lon="2.38513">
        <ele>573.9</ele>
        <time>2022-06-14T09:12:49.000Z</time>
      </trkpt>
      <trkpt lat="45.38578" lon="2.38512">
        <ele>573.8</ele>
        <time>2022-06-14T09:12:50.000Z</time>
      </trkpt>
      <trkpt lat="45.3858" lon="2.38511">
        <ele>573.7</ele>
        <time>2022-06-14T09:12:51.000Z</time>
      </trkpt>
      <trkpt lat="45.38581" lon="2.3851">
        <ele>573.7</ele>
        <time>2022-06-14T09:12:52.000Z</time>
      </trkpt>
      <trkpt lat="45.38582" lon="2.38509">
        <ele>573.6</ele>
        <time>2022-06-14T09:12:53.000Z</time>
      </trkpt>
      <trkpt lat="45.38583" lon="2.38507">
        <ele>573.5</ele>
        <time>2022-06-14T09:12:54.000Z</time>
      </trkpt>
      <trkpt lat="45.38584" lon="2.38506">
        <ele>573.5</ele>
        <time>2022-06-14T09:12:55.000Z</time>
      </trkpt>
      <trkpt lat="45.38585" lon="2.38505">
        <ele>573.4</ele>
        <time>2022-06-14T09:12:56.000Z</time>
      </trkpt>
      <trkpt lat="45.38586" lon="2.38504">
        <ele>573.3</ele>
        <time>2022-06-14T09:12:57.000Z</time>
      </trkpt>
      <trkpt lat="45.38587" lon="2.38503">
        <ele>573.2</ele>
        <time>2022-06-14T09:12:58.000Z</time>
      </trkpt>
      <trkpt lat="45.38587" lon="2.38501">
        <ele>573.1</ele>
        <time>2022-06-14T09:12:59.000Z</time>
      </trkpt>
      <trkpt lat="45.38588" lon="2.385">
        <ele>573</ele>
        <time>2022-06-14T09:13:00.000Z</time>
      </trkpt>
      <trkpt lat="45.38589" lon="2.38498">
        <ele>572.9</ele>
        <time>2022-06-14T09:13:01.000Z</time>
      </trkpt>
      <trkpt lat="45.3859" lon="2.38497">
        <ele>572.8</ele>
        <time>2022-06-14T09:13:02.000Z</time>
      </trkpt>
      <trkpt lat="45.3859" lon="2.38496">
        <ele>572.7</ele>
        <time>2022-06-14T09:13:03.000Z</time>
      </trkpt>
      <trkpt lat="45.38591" lon="2.38494">
        <ele>572.6</ele>
        <time>2022-06-14T09:13:04.000Z</time>
      </trkpt>
      <trkpt lat="45.38591" lon="2.38493">
        <ele>572.5</ele>
        <time>2022-06-14T09:13:05.000Z</time>
      </trkpt>
      <trkpt lat="45.38592" lon="2.38491">
        <ele>572.4</ele>
        <time>2022-06-14T09:13:06.000Z</time>
      </trkpt>
      <trkpt lat="45.38592" lon="2.3849">
        <ele>572.3</ele>
        <time>2022-06-14T09:13:07.000Z</time>
      </trkpt>
      <trkpt lat="45.38593" lon="2.38488">
        <ele>572.2</ele>
        <time>2022-06-14T09:13:08.000Z</time>
      </trkpt>
      <trkpt lat="45.38593" lon="2.38487">
        <ele>572.1</ele>
        <time>2022-06-14T09:13:09.000Z</time>
      </trkpt>
      <trkpt lat="45.38594" lon="2.38486">
        <ele>572</ele>
        <time>2022-06-14T09:13:10.000Z</time>
      </trkpt>
      <trkpt lat="45.38594" lon="2.38485">
        <ele>571.9</ele>
        <time>2022-06-14T09:13:11.000Z</time>
      </trkpt>
      <trkpt lat="45.38595" lon="2.38483">
        <ele>571.9</ele>
        <time>2022-06-14T09:13:12.000Z</time>
      </trkpt>
      <trkpt lat="45.38595" lon="2.38482">
        <ele>571.8</ele>
        <time>2022-06-14T09:13:13.000Z</time>
      </trkpt>
      <trkpt lat="45.38596" lon="2.38481">
        <ele>571.7</ele>
        <time>2022-06-14T09:13:14.000Z</time>
      </trkpt>
      <trkpt lat="45.38597" lon="2.3848">
        <ele>571.7</ele>
        <time>2022-06-14T09:13:15.000Z</time>
      </trkpt>
      <trkpt lat="45.38598" lon="2.3848">
        <ele>571.6</ele>
        <time>2022-06-14T09:13:16.000Z</time>
      </trkpt>
      <trkpt lat="45.38598" lon="2.38479">
        <ele>571.6</ele>
        <time>2022-06-14T09:13:17.000Z</time>
      </trkpt>
      <trkpt lat="45.38599" lon="2.38478">
        <ele>571.5</ele>
        <time>2022-06-14T09:13:18.000Z</time>
      </trkpt>
      <trkpt lat="45.386" lon="2.38478">
        <ele>571.5</ele>
        <time>2022-06-14T09:13:19.000Z</time>
      </trkpt>
      <trkpt lat="45.38601" lon="2.38477">
        <ele>571.5</ele>
        <time>2022-06-14T09:13:20.000Z</time>
      </trkpt>
      <trkpt lat="45.38603" lon="2.38477">
        <ele>571.5</ele>
        <time>2022-06-14T09:13:21.000Z</time>
      </trkpt>
      <trkpt lat="45.38604" lon="2.38476">
        <ele>571.5</ele>
        <time>2022-06-14T09:13:22.000Z</time>
      </trkpt>
      <trkpt lat="45.38605" lon="2.38476">
        <ele>571.5</ele>
        <time>2022-06-14T09:13:23.000Z</time>
      </trkpt>
      <trkpt lat="45.38606" lon="2.38476">
        <ele>571.5</ele>
        <time>2022-06-14T09:13:24.000Z</time>
      </trkpt>
      <trkpt lat="45.38607" lon="2.38475">
        <ele>571.6</ele>
        <time>2022-06-14T09:13:25.000Z</time>
      </trkpt>
      <trkpt lat="45.38608" lon="2.38475">
        <ele>571.6</ele>
        <time>2022-06-14T09:13:26.000Z</time>
      </trkpt>
      <trkpt lat="45.38609" lon="2.38475">
        <ele>571.6</ele>
        <time>2022-06-14T09:13:27.000Z</time>
      </trkpt>
      <trkpt lat="45.38611" lon="2.38475">
        <ele>571.6</ele>
        <time>2022-06-14T09:13:28.000Z</time>
      </trkpt>
      <trkpt lat="45.38612" lon="2.38475">
        <ele>571.7</ele>
        <time>2022-06-14T09:13:29.000Z</time>
      </trkpt>
      <trkpt lat="45.38613" lon="2.38475">
        <ele>571.7</ele>
        <time>2022-06-14T09:13:30.000Z</time>
      </trkpt>
      <trkpt lat="45.38614" lon="2.38475">
        <ele>571.7</ele>
        <time>2022-06-14T09:13:31.000Z</time>
      </trkpt>
      <trkpt lat="45.38615" lon="2.38475">
        <ele>571.7</ele>
        <time>2022-06-14T09:13:32.000Z</time>
      </trkpt>
      <trkpt lat="45.38616" lon="2.38475">
        <ele>571.8</ele>
        <time>2022-06-14T09:13:33.000Z</time>
      </trkpt>
      <trkpt lat="45.38618" lon="2.38475">
        <ele>571.8</ele>
        <time>2022-06-14T09:13:34.000Z</time>
      </trkpt>
      <trkpt lat="45.38619" lon="2.38476">
        <ele>571.9</ele>
        <time>2022-06-14T09:13:35.000Z</time>
      </trkpt>
      <trkpt lat="45.3862" lon="2.38476">
        <ele>571.9</ele>
        <time>2022-06-14T09:13:36.000Z</time>
      </trkpt>
      <trkpt lat="45.38621" lon="2.38476">
        <ele>572</ele>
        <time>2022-06-14T09:13:37.000Z</time>
      </trkpt>
      <trkpt lat="45.38622" lon="2.38476">
        <ele>572</ele>
        <time>2022-06-14T09:13:38.000Z</time>
      </trkpt>
      <trkpt lat="45.38623" lon="2.38477">
        <ele>572.1</ele>
        <time>2022-06-14T09:13:39.000Z</time>
      </trkpt>
      <trkpt lat="45.38624" lon="2.38477">
        <ele>572.1</ele>
        <time>2022-06-14T09:13:40.000Z</time>
      </trkpt>
      <trkpt lat="45.38626" lon="2.38477">
        <ele>572.2</ele>
        <time>2022-06-14T09:13:41.000Z</time>
      </trkpt>
      <trkpt lat="45.38627" lon="2.38478">
        <ele>572.2</ele>
        <time>2022-06-14T09:13:42.000Z</time>
      </trkpt>
      <trkpt lat="45.38628" lon="2.38478">
        <ele>572.3</ele>
        <time>2022-06-14T09:13:43.000Z</time>
      </trkpt>
      <trkpt lat="45.38629" lon="2.38479">
        <ele>572.3</ele>
        <time>2022-06-14T09:13:44.000Z</time>
      </trkpt>
      <trkpt lat="45.3863" lon="2.38479">
        <ele>572.4</ele>
        <time>2022-06-14T09:13:45.000Z</time>
      </trkpt>
      <trkpt lat="45.38631" lon="2.3848">
        <ele>572.4</ele>
        <time>2022-06-14T09:13:46.000Z</time>
      </trkpt>
      <trkpt lat="45.38633" lon="2.3848">
        <ele>572.5</ele>
        <time>2022-06-14T09:13:47.000Z</time>
      </trkpt>
      <trkpt lat="45.38634" lon="2.38481">
        <ele>572.5</ele>
        <time>2022-06-14T09:13:48.000Z</time>
      </trkpt>
      <trkpt lat="45.38635" lon="2.38481">
        <ele>572.6</ele>
        <time>2022-06-14T09:13:49.000Z</time>
      </trkpt>
      <trkpt lat="45.38636" lon="2.38482">
        <ele>572.6</ele>
        <time>2022-06-14T09:13:50.000Z</time>
      </trkpt>
      <trkpt lat="45.38638" lon="2.38482">
        <ele>572.7</ele>
        <time>2022-06-14T09:13:51.000Z</time>
      </trkpt>
      <trkpt lat="45.38639" lon="2.38482">
        <ele>572.7</ele>
        <time>2022-06-14T09:13:52.000Z</time>
      </trkpt>
      <trkpt lat="45.3864" lon="2.38482">
        <ele>572.8</ele>
        <time>2022-06-14T09:13:53.000Z</time>
      </trkpt>
      <trkpt lat="45.38642" lon="2.38483">
        <ele>572.8</ele>
        <time>2022-06-14T09:13:54.000Z</time>
      </trkpt>
      <trkpt lat="45.38643" lon="2.38483">
        <ele>572.9</ele>
        <time>2022-06-14T09:13:55.000Z</time>
      </trkpt>
      <trkpt lat="45.38644" lon="2.38483">
        <ele>572.9</ele>
        <time>2022-06-14T09:13:56.000Z</time>
      </trkpt>
      <trkpt lat="45.38645" lon="2.38483">
        <ele>572.9</ele>
        <time>2022-06-14T09:13:57.000Z</time>
      </trkpt>
      <trkpt lat="45.38647" lon="2.38483">
        <ele>573</ele>
        <time>2022-06-14T09:13:58.000Z</time>
      </trkpt>
      <trkpt lat="45.38648" lon="2.38483">
        <ele>573</ele>
        <time>2022-06-14T09:13:59.000Z</time>
      </trkpt>
      <trkpt lat="45.38649" lon="2.38483">
        <ele>573</ele>
        <time>2022-06-14T09:14:00.000Z</time>
      </trkpt>
      <trkpt lat="45.38651" lon="2.38483">
        <ele>573</ele>
        <time>2022-06-14T09:14:01.000Z</time>
      </trkpt>
      <trkpt lat="45.38652" lon="2.38483">
        <ele>573.1</ele>
        <time>2022-06-14T09:14:02.000Z</time>
      </trkpt>
      <trkpt lat="45.38653" lon="2.38482">
        <ele>573.1</ele>
        <time>2022-06-14T09:14:03.000Z</time>
      </trkpt>
      <trkpt lat="45.38655" lon="2.38482">
        <ele>573.1</ele>
        <time>2022-06-14T09:14:04.000Z</time>
      </trkpt>
      <trkpt lat="45.38656" lon="2.38482">
        <ele>573.1</ele>
        <time>2022-06-14T09:14:05.000Z</time>
      </trkpt>
      <trkpt lat="45.38657" lon="2.38482">
        <ele>573.1</ele>
        <time>2022-06-14T09:14:06.000Z</time>
      </trkpt>
      <trkpt lat="45.38659" lon="2.38481">
        <ele>573.1</ele>
        <time>2022-06-14T09:14:07.000Z</time>
      </trkpt>
      <trkpt lat="45.3866" lon="2.38481">
        <ele>573.1</ele>
        <time>2022-06-14T09:14:08.000Z</time>
      </trkpt>
      <trkpt lat="45.38661" lon="2.3848">
        <ele>573.2</ele>
        <time>2022-06-14T09:14:09.000Z</time>
      </trkpt>
      <trkpt lat="45.38663" lon="2.3848">
        <ele>573.2</ele>
        <time>2022-06-14T09:14:10.000Z</time>
      </trkpt>
      <trkpt lat="45.38664" lon="2.38479">
        <ele>573.2</ele>
        <time>2022-06-14T09:14:11.000Z</time>
      </trkpt>
      <trkpt lat="45.38665" lon="2.38478">
        <ele>573.2</ele>
        <time>2022-06-14T09:14:12.000Z</time>
      </trkpt>
      <trkpt lat="45.38666" lon="2.38478">
        <ele>573.2</ele>
        <time>2022-06-14T09:14:13.000Z</time>
      </trkpt>
      <trkpt lat="45.38668" lon="2.38477">
        <ele>573.2</ele>
        <time>2022-06-14T09:14:14.000Z</time>
      </trkpt>
      <trkpt lat="45.38669" lon="2.38476">
        <ele>573.2</ele>
        <time>2022-06-14T09:14:15.000Z</time>
      </trkpt>
      <trkpt lat="45.3867" lon="2.38475">
        <ele>573.2</ele>
        <time>2022-06-14T09:14:16.000Z</time>
      </trkpt>
      <trkpt lat="45.38671" lon="2.38474">
        <ele>573.2</ele>
        <time>2022-06-14T09:14:17.000Z</time>
      </trkpt>
      <trkpt lat="45.38672" lon="2.38473">
        <ele>573.1</ele>
        <time>2022-06-14T09:14:18.000Z</time>
      </trkpt>
      <trkpt lat="45.38674" lon="2.38472">
        <ele>573.1</ele>
        <time>2022-06-14T09:14:19.000Z</time>
      </trkpt>
      <trkpt lat="45.38675" lon="2.38471">
        <ele>573.1</ele>
        <time>2022-06-14T09:14:20.000Z</time>
      </trkpt>
      <trkpt lat="45.38676" lon="2.3847">
        <ele>573.1</ele>
        <time>2022-06-14T09:14:21.000Z</time>
      </trkpt>
      <trkpt lat="45.38677" lon="2.38469">
        <ele>573.1</ele>
        <time>2022-06-14T09:14:22.000Z</time>
      </trkpt>
      <trkpt lat="45.38678" lon="2.38468">
        <ele>573.1</ele>
        <time>2022-06-14T09:14:23.000Z</time>
      </trkpt>
      <trkpt lat="45.38679" lon="2.38467">
        <ele>573</ele>
        <time>2022-06-14T09:14:24.000Z</time>
      </trkpt>
      <trkpt lat="45.3868" lon="2.38465">
        <ele>573</ele>
        <time>2022-06-14T09:14:25.000Z</time>
      </trkpt>
      <trkpt lat="45.38681" lon="2.38464">
        <ele>573</ele>
        <time>2022-06-14T09:14:26.000Z</time>
      </trkpt>
      <trkpt lat="45.38682" lon="2.38463">
        <ele>572.9</ele>
        <time>2022-06-14T09:14:27.000Z</time>
      </trkpt>
      <trkpt lat="45.38683" lon="2.38462">
        <ele>572.9</ele>
        <time>2022-06-14T09:14:28.000Z</time>
      </trkpt>
      <trkpt lat="45.38684" lon="2.3846">
        <ele>572.9</ele>
        <time>2022-06-14T09:14:29.000Z</time>
      </trkpt>
      <trkpt lat="45.38685" lon="2.38459">
        <ele>572.8</ele>
        <time>2022-06-14T09:14:30.000Z</time>
      </trkpt>
      <trkpt lat="45.38686" lon="2.38458">
        <ele>572.8</ele>
        <time>2022-06-14T09:14:31.000Z</time>
      </trkpt>
      <trkpt lat="45.38686" lon="2.38456">
        <ele>572.8</ele>
        <time>2022-06-14T09:14:32.000Z</time>
      </trkpt>
      <trkpt lat="45.38687" lon="2.38455">
        <ele>572.7</ele>
        <time>2022-06-14T09:14:33.000Z</time>
      </trkpt>
      <trkpt lat="45.38688" lon="2.38454">
        <ele>572.7</ele>
        <time>2022-06-14T09:14:34.000Z</time>
      </trkpt>
      <trkpt lat="45.38689" lon="2.38452">
        <ele>572.7</ele>
        <time>2022-06-14T09:14:35.000Z</time>
      </trkpt>
      <trkpt lat="45.3869" lon="2.38451">
        <ele>572.6</ele>
        <time>2022-06-14T09:14:36.000Z</time>
      </trkpt>
      <trkpt lat="45.38691" lon="2.3845">
        <ele>572.6</ele>
        <time>2022-06-14T09:14:37.000Z</time>
      </trkpt>
      <trkpt lat="45.38691" lon="2.38449">
        <ele>572.6</ele>
        <time>2022-06-14T09:14:38.000Z</time>
      </trkpt>
      <trkpt lat="45.38692" lon="2.38448">
        <ele>572.5</ele>
        <time>2022-06-14T09:14:39.000Z</time>
      </trkpt>
      <trkpt lat="45.38693" lon="2.38447">
        <ele>572.5</ele>
        <time>2022-06-14T09:14:40.000Z</time>
      </trkpt>
      <trkpt lat="45.38694" lon="2.38445">
        <ele>572.5</ele>
        <time>2022-06-14T09:14:41.000Z</time>
      </trkpt>
      <trkpt lat="45.38695" lon="2.38445">
        <ele>572.5</ele>
        <time>2022-06-14T09:14:42.000Z</time>
      </trkpt>
      <trkpt lat="45.38696" lon="2.38444">
        <ele>572.4</ele>
        <time>2022-06-14T09:14:43.000Z</time>
      </trkpt>
      <trkpt lat="45.38698" lon="2.38443">
        <ele>572.4</ele>
        <time>2022-06-14T09:14:44.000Z</time>
      </trkpt>
      <trkpt lat="45.38699" lon="2.38442">
        <ele>572.4</ele>
        <time>2022-06-14T09:14:45.000Z</time>
      </trkpt>
      <trkpt lat="45.387" lon="2.38441">
        <ele>572.4</ele>
        <time>2022-06-14T09:14:46.000Z</time>
      </trkpt>
      <trkpt lat="45.38701" lon="2.38441">
        <ele>572.4</ele>
        <time>2022-06-14T09:14:47.000Z</time>
      </trkpt>
      <trkpt lat="45.38702" lon="2.3844">
        <ele>572.4</ele>
        <time>2022-06-14T09:14:48.000Z</time>
      </trkpt>
      <trkpt lat="45.38703" lon="2.38439">
        <ele>572.3</ele>
        <time>2022-06-14T09:14:49.000Z</time>
      </trkpt>
      <trkpt lat="45.38704" lon="2.38438">
        <ele>572.3</ele>
        <time>2022-06-14T09:14:50.000Z</time>
      </trkpt>
      <trkpt lat="45.38705" lon="2.38437">
        <ele>572.3</ele>
        <time>2022-06-14T09:14:51.000Z</time>
      </trkpt>
      <trkpt lat="45.38705" lon="2.38436">
        <ele>572.3</ele>
        <time>2022-06-14T09:14:52.000Z</time>
      </trkpt>
      <trkpt lat="45.38706" lon="2.38436">
        <ele>572.3</ele>
        <time>2022-06-14T09:14:53.000Z</time>
      </trkpt>
      <trkpt lat="45.38705" lon="2.38436">
        <ele>572.3</ele>
        <time>2022-06-14T09:14:55.000Z</time>
      </trkpt>
      <trkpt lat="45.38706" lon="2.38436">
        <ele>572.3</ele>
        <time>2022-06-14T09:15:09.000Z</time>
      </trkpt>
      <trkpt lat="45.38707" lon="2.38436">
        <ele>572.3</ele>
        <time>2022-06-14T09:15:11.000Z</time>
      </trkpt>
      <trkpt lat="45.38708" lon="2.38435">
        <ele>572.3</ele>
        <time>2022-06-14T09:15:12.000Z</time>
      </trkpt>
      <trkpt lat="45.38709" lon="2.38434">
        <ele>572.3</ele>
        <time>2022-06-14T09:15:13.000Z</time>
      </trkpt>
      <trkpt lat="45.3871" lon="2.38434">
        <ele>572.2</ele>
        <time>2022-06-14T09:15:14.000Z</time>
      </trkpt>
      <trkpt lat="45.38711" lon="2.38433">
        <ele>572.2</ele>
        <time>2022-06-14T09:15:15.000Z</time>
      </trkpt>
      <trkpt lat="45.38713" lon="2.38433">
        <ele>572.2</ele>
        <time>2022-06-14T09:15:16.000Z</time>
      </trkpt>
      <trkpt lat="45.38714" lon="2.38432">
        <ele>572.2</ele>
        <time>2022-06-14T09:15:17.000Z</time>
      </trkpt>
      <trkpt lat="45.38715" lon="2.38431">
        <ele>572.2</ele>
        <time>2022-06-14T09:15:18.000Z</time>
      </trkpt>
      <trkpt lat="45.38717" lon="2.38431">
        <ele>572.2</ele>
        <time>2022-06-14T09:15:19.000Z</time>
      </trkpt>
      <trkpt lat="45.38718" lon="2.3843">
        <ele>572.2</ele>
        <time>2022-06-14T09:15:20.000Z</time>
      </trkpt>
      <trkpt lat="45.38719" lon="2.38429">
        <ele>572.2</ele>
        <time>2022-06-14T09:15:21.000Z</time>
      </trkpt>
      <trkpt lat="45.3872" lon="2.38428">
        <ele>572.1</ele>
        <time>2022-06-14T09:15:22.000Z</time>
      </trkpt>
      <trkpt lat="45.38722" lon="2.38427">
        <ele>572.1</ele>
        <time>2022-06-14T09:15:23.000Z</time>
      </trkpt>
      <trkpt lat="45.38723" lon="2.38426">
        <ele>572.1</ele>
        <time>2022-06-14T09:15:24.000Z</time>
      </trkpt>
      <trkpt lat="45.38724" lon="2.38425">
        <ele>572.1</ele>
        <time>2022-06-14T09:15:25.000Z</time>
      </trkpt>
      <trkpt lat="45.38725" lon="2.38424">
        <ele>572</ele>
        <time>2022-06-14T09:15:26.000Z</time>
      </trkpt>
      <trkpt lat="45.38726" lon="2.38423">
        <ele>572</ele>
        <time>2022-06-14T09:15:27.000Z</time>
      </trkpt>
      <trkpt lat="45.38728" lon="2.38422">
        <ele>572</ele>
        <time>2022-06-14T09:15:28.000Z</time>
      </trkpt>
      <trkpt lat="45.38729" lon="2.38421">
        <ele>571.9</ele>
        <time>2022-06-14T09:15:29.000Z</time>
      </trkpt>
      <trkpt lat="45.3873" lon="2.3842">
        <ele>571.9</ele>
        <time>2022-06-14T09:15:30.000Z</time>
      </trkpt>
      <trkpt lat="45.3873" lon="2.38418">
        <ele>571.8</ele>
        <time>2022-06-14T09:15:31.000Z</time>
      </trkpt>
      <trkpt lat="45.38731" lon="2.38417">
        <ele>571.8</ele>
        <time>2022-06-14T09:15:32.000Z</time>
      </trkpt>
      <trkpt lat="45.38732" lon="2.38416">
        <ele>571.8</ele>
        <time>2022-06-14T09:15:33.000Z</time>
      </trkpt>
      <trkpt lat="45.38733" lon="2.38414">
        <ele>571.8</ele>
        <time>2022-06-14T09:15:34.000Z</time>
      </trkpt>
      <trkpt lat="45.38734" lon="2.38413">
        <ele>571.8</ele>
        <time>2022-06-14T09:15:35.000Z</time>
      </trkpt>
      <trkpt lat="45.38734" lon="2.38411">
        <ele>571.8</ele>
        <time>2022-06-14T09:15:36.000Z</time>
      </trkpt>
      <trkpt lat="45.38735" lon="2.3841">
        <ele>571.8</ele>
        <time>2022-06-14T09:15:37.000Z</time>
      </trkpt>
      <trkpt lat="45.38735" lon="2.38408">
        <ele>571.8</ele>
        <time>2022-06-14T09:15:38.000Z</time>
      </trkpt>
      <trkpt lat="45.38736" lon="2.38407">
        <ele>571.8</ele>
        <time>2022-06-14T09:15:39.000Z</time>
      </trkpt>
      <trkpt lat="45.38737" lon="2.38405">
        <ele>571.8</ele>
        <time>2022-06-14T09:15:40.000Z</time>
      </trkpt>
      <trkpt lat="45.38737" lon="2.38404">
        <ele>571.8</ele>
        <time>2022-06-14T09:15:41.000Z</time>
      </trkpt>
      <trkpt lat="45.38738" lon="2.38402">
        <ele>571.8</ele>
        <time>2022-06-14T09:15:42.000Z</time>
      </trkpt>
      <trkpt lat="45.38739" lon="2.384">
        <ele>571.8</ele>
        <time>2022-06-14T09:15:43.000Z</time>
      </trkpt>
      <trkpt lat="45.38739" lon="2.38399">
        <ele>571.8</ele>
        <time>2022-06-14T09:15:44.000Z</time>
      </trkpt>
      <trkpt lat="45.3874" lon="2.38397">
        <ele>571.8</ele>
        <time>2022-06-14T09:15:45.000Z</time>
      </trkpt>
      <trkpt lat="45.38741" lon="2.38396">
        <ele>571.9</ele>
        <time>2022-06-14T09:15:46.000Z</time>
      </trkpt>
      <trkpt lat="45.38741" lon="2.38394">
        <ele>571.9</ele>
        <time>2022-06-14T09:15:47.000Z</time>
      </trkpt>
      <trkpt lat="45.38742" lon="2.38392">
        <ele>571.9</ele>
        <time>2022-06-14T09:15:48.000Z</time>
      </trkpt>
      <trkpt lat="45.38742" lon="2.38391">
        <ele>571.9</ele>
        <time>2022-06-14T09:15:49.000Z</time>
      </trkpt>
      <trkpt lat="45.38743" lon="2.38389">
        <ele>571.9</ele>
        <time>2022-06-14T09:15:50.000Z</time>
      </trkpt>
      <trkpt lat="45.38744" lon="2.38387">
        <ele>571.9</ele>
        <time>2022-06-14T09:15:51.000Z</time>
      </trkpt>
      <trkpt lat="45.38744" lon="2.38386">
        <ele>571.9</ele>
        <time>2022-06-14T09:15:52.000Z</time>
      </trkpt>
      <trkpt lat="45.38745" lon="2.38384">
        <ele>571.9</ele>
        <time>2022-06-14T09:15:53.000Z</time>
      </trkpt>
      <trkpt lat="45.38746" lon="2.38382">
        <ele>571.9</ele>
        <time>2022-06-14T09:15:54.000Z</time>
      </trkpt>
      <trkpt lat="45.38746" lon="2.38381">
        <ele>571.9</ele>
        <time>2022-06-14T09:15:55.000Z</time>
      </trkpt>
      <trkpt lat="45.38747" lon="2.38379">
        <ele>571.9</ele>
        <time>2022-06-14T09:15:56.000Z</time>
      </trkpt>
      <trkpt lat="45.38748" lon="2.38377">
        <ele>572</ele>
        <time>2022-06-14T09:15:57.000Z</time>
      </trkpt>
      <trkpt lat="45.38749" lon="2.38376">
        <ele>572</ele>
        <time>2022-06-14T09:15:58.000Z</time>
      </trkpt>
      <trkpt lat="45.38749" lon="2.38374">
        <ele>572</ele>
        <time>2022-06-14T09:15:59.000Z</time>
      </trkpt>
      <trkpt lat="45.3875" lon="2.38373">
        <ele>572</ele>
        <time>2022-06-14T09:16:00.000Z</time>
      </trkpt>
      <trkpt lat="45.38751" lon="2.38371">
        <ele>572</ele>
        <time>2022-06-14T09:16:01.000Z</time>
      </trkpt>
      <trkpt lat="45.38752" lon="2.38369">
        <ele>572</ele>
        <time>2022-06-14T09:16:02.000Z</time>
      </trkpt>
      <trkpt lat="45.38752" lon="2.38368">
        <ele>572.1</ele>
        <time>2022-06-14T09:16:03.000Z</time>
      </trkpt>
      <trkpt lat="45.38753" lon="2.38366">
        <ele>572.1</ele>
        <time>2022-06-14T09:16:04.000Z</time>
      </trkpt>
      <trkpt lat="45.38754" lon="2.38365">
        <ele>572.1</ele>
        <time>2022-06-14T09:16:05.000Z</time>
      </trkpt>
      <trkpt lat="45.38755" lon="2.38363">
        <ele>572.1</ele>
        <time>2022-06-14T09:16:06.000Z</time>
      </trkpt>
      <trkpt lat="45.38755" lon="2.38362">
        <ele>572.1</ele>
        <time>2022-06-14T09:16:07.000Z</time>
      </trkpt>
      <trkpt lat="45.38756" lon="2.3836">
        <ele>572.1</ele>
        <time>2022-06-14T09:16:08.000Z</time>
      </trkpt>
      <trkpt lat="45.38757" lon="2.38358">
        <ele>572.2</ele>
        <time>2022-06-14T09:16:09.000Z</time>
      </trkpt>
      <trkpt lat="45.38758" lon="2.38357">
        <ele>572.2</ele>
        <time>2022-06-14T09:16:10.000Z</time>
      </trkpt>
      <trkpt lat="45.38759" lon="2.38355">
        <ele>572.2</ele>
        <time>2022-06-14T09:16:11.000Z</time>
      </trkpt>
      <trkpt lat="45.38759" lon="2.38354">
        <ele>572.2</ele>
        <time>2022-06-14T09:16:12.000Z</time>
      </trkpt>
      <trkpt lat="45.3876" lon="2.38352">
        <ele>572.2</ele>
        <time>2022-06-14T09:16:13.000Z</time>
      </trkpt>
      <trkpt lat="45.38761" lon="2.3835">
        <ele>572.2</ele>
        <time>2022-06-14T09:16:14.000Z</time>
      </trkpt>
      <trkpt lat="45.38762" lon="2.38349">
        <ele>572.2</ele>
        <time>2022-06-14T09:16:15.000Z</time>
      </trkpt>
      <trkpt lat="45.38763" lon="2.38347">
        <ele>572.2</ele>
        <time>2022-06-14T09:16:16.000Z</time>
      </trkpt>
      <trkpt lat="45.38763" lon="2.38345">
        <ele>572.2</ele>
        <time>2022-06-14T09:16:17.000Z</time>
      </trkpt>
      <trkpt lat="45.38764" lon="2.38344">
        <ele>572.2</ele>
        <time>2022-06-14T09:16:18.000Z</time>
      </trkpt>
      <trkpt lat="45.38765" lon="2.38342">
        <ele>572.2</ele>
        <time>2022-06-14T09:16:19.000Z</time>
      </trkpt>
      <trkpt lat="45.38765" lon="2.3834">
        <ele>572.2</ele>
        <time>2022-06-14T09:16:20.000Z</time>
      </trkpt>
      <trkpt lat="45.38766" lon="2.38339">
        <ele>572.2</ele>
        <time>2022-06-14T09:16:21.000Z</time>
      </trkpt>
      <trkpt lat="45.38767" lon="2.38337">
        <ele>572.2</ele>
        <time>2022-06-14T09:16:22.000Z</time>
      </trkpt>
      <trkpt lat="45.38767" lon="2.38335">
        <ele>572.2</ele>
        <time>2022-06-14T09:16:23.000Z</time>
      </trkpt>
      <trkpt lat="45.38768" lon="2.38333">
        <ele>572.2</ele>
        <time>2022-06-14T09:16:24.000Z</time>
      </trkpt>
      <trkpt lat="45.38768" lon="2.38332">
        <ele>572.2</ele>
        <time>2022-06-14T09:16:25.000Z</time>
      </trkpt>
      <trkpt lat="45.38769" lon="2.3833">
        <ele>572.2</ele>
        <time>2022-06-14T09:16:26.000Z</time>
      </trkpt>
      <trkpt lat="45.38769" lon="2.38328">
        <ele>572.2</ele>
        <time>2022-06-14T09:16:27.000Z</time>
      </trkpt>
      <trkpt lat="45.38769" lon="2.38327">
        <ele>572.3</ele>
        <time>2022-06-14T09:16:28.000Z</time>
      </trkpt>
      <trkpt lat="45.3877" lon="2.38326">
        <ele>572.3</ele>
        <time>2022-06-14T09:16:29.000Z</time>
      </trkpt>
      <trkpt lat="45.3877" lon="2.38324">
        <ele>572.3</ele>
        <time>2022-06-14T09:16:30.000Z</time>
      </trkpt>
      <trkpt lat="45.3877" lon="2.38323">
        <ele>572.3</ele>
        <time>2022-06-14T09:16:31.000Z</time>
      </trkpt>
      <trkpt lat="45.3877" lon="2.38321">
        <ele>572.3</ele>
        <time>2022-06-14T09:16:32.000Z</time>
      </trkpt>
      <trkpt lat="45.3877" lon="2.3832">
        <ele>572.3</ele>
        <time>2022-06-14T09:16:33.000Z</time>
      </trkpt>
      <trkpt lat="45.3877" lon="2.38318">
        <ele>572.3</ele>
        <time>2022-06-14T09:16:34.000Z</time>
      </trkpt>
      <trkpt lat="45.3877" lon="2.38316">
        <ele>572.3</ele>
        <time>2022-06-14T09:16:35.000Z</time>
      </trkpt>
      <trkpt lat="45.3877" lon="2.38314">
        <ele>572.3</ele>
        <time>2022-06-14T09:16:36.000Z</time>
      </trkpt>
      <trkpt lat="45.38771" lon="2.38312">
        <ele>572.3</ele>
        <time>2022-06-14T09:16:37.000Z</time>
      </trkpt>
      <trkpt lat="45.38771" lon="2.3831">
        <ele>572.3</ele>
        <time>2022-06-14T09:16:38.000Z</time>
      </trkpt>
      <trkpt lat="45.38771" lon="2.38308">
        <ele>572.3</ele>
        <time>2022-06-14T09:16:39.000Z</time>
      </trkpt>
      <trkpt lat="45.38771" lon="2.38306">
        <ele>572.3</ele>
        <time>2022-06-14T09:16:40.000Z</time>
      </trkpt>
      <trkpt lat="45.38771" lon="2.38304">
        <ele>572.3</ele>
        <time>2022-06-14T09:16:41.000Z</time>
      </trkpt>
      <trkpt lat="45.38771" lon="2.38302">
        <ele>572.3</ele>
        <time>2022-06-14T09:16:42.000Z</time>
      </trkpt>
      <trkpt lat="45.38771" lon="2.38301">
        <ele>572.3</ele>
        <time>2022-06-14T09:16:43.000Z</time>
      </trkpt>
      <trkpt lat="45.38771" lon="2.38299">
        <ele>572.4</ele>
        <time>2022-06-14T09:16:44.000Z</time>
      </trkpt>
      <trkpt lat="45.38771" lon="2.38297">
        <ele>572.4</ele>
        <time>2022-06-14T09:16:45.000Z</time>
      </trkpt>
      <trkpt lat="45.38771" lon="2.38296">
        <ele>572.4</ele>
        <time>2022-06-14T09:16:46.000Z</time>
      </trkpt>
      <trkpt lat="45.38771" lon="2.38295">
        <ele>572.4</ele>
        <time>2022-06-14T09:16:47.000Z</time>
      </trkpt>
      <trkpt lat="45.38771" lon="2.38294">
        <ele>572.4</ele>
        <time>2022-06-14T09:16:48.000Z</time>
      </trkpt>
      <trkpt lat="45.38771" lon="2.38293">
        <ele>572.4</ele>
        <time>2022-06-14T09:16:49.000Z</time>
      </trkpt>
      <trkpt lat="45.38771" lon="2.38292">
        <ele>572.4</ele>
        <time>2022-06-14T09:16:50.000Z</time>
      </trkpt>
      <trkpt lat="45.38771" lon="2.38291">
        <ele>572.4</ele>
        <time>2022-06-14T09:17:03.000Z</time>
      </trkpt>
      <trkpt lat="45.38771" lon="2.38291">
        <ele>572.4</ele>
        <time>2022-06-14T09:17:04.000Z</time>
      </trkpt>
      <trkpt lat="45.38771" lon="2.3829">
        <ele>572.4</ele>
        <time>2022-06-14T09:17:08.000Z</time>
      </trkpt>
      <trkpt lat="45.38771" lon="2.38288">
        <ele>572.4</ele>
        <time>2022-06-14T09:17:10.000Z</time>
      </trkpt>
      <trkpt lat="45.38771" lon="2.38287">
        <ele>572.4</ele>
        <time>2022-06-14T09:17:11.000Z</time>
      </trkpt>
      <trkpt lat="45.3877" lon="2.38285">
        <ele>572.4</ele>
        <time>2022-06-14T09:17:12.000Z</time>
      </trkpt>
      <trkpt lat="45.3877" lon="2.38284">
        <ele>572.4</ele>
        <time>2022-06-14T09:17:14.000Z</time>
      </trkpt>
      <trkpt lat="45.3877" lon="2.38283">
        <ele>572.4</ele>
        <time>2022-06-14T09:17:17.000Z</time>
      </trkpt>
      <trkpt lat="45.3877" lon="2.38281">
        <ele>572.4</ele>
        <time>2022-06-14T09:17:18.000Z</time>
      </trkpt>
      <trkpt lat="45.3877" lon="2.3828">
        <ele>572.4</ele>
        <time>2022-06-14T09:17:19.000Z</time>
      </trkpt>
      <trkpt lat="45.38769" lon="2.38278">
        <ele>572.4</ele>
        <time>2022-06-14T09:17:20.000Z</time>
      </trkpt>
      <trkpt lat="45.38769" lon="2.38277">
        <ele>572.4</ele>
        <time>2022-06-14T09:17:21.000Z</time>
      </trkpt>
      <trkpt lat="45.38768" lon="2.38276">
        <ele>572.5</ele>
        <time>2022-06-14T09:17:22.000Z</time>
      </trkpt>
      <trkpt lat="45.38767" lon="2.38275">
        <ele>572.5</ele>
        <time>2022-06-14T09:17:23.000Z</time>
      </trkpt>
      <trkpt lat="45.38766" lon="2.38274">
        <ele>572.5</ele>
        <time>2022-06-14T09:17:24.000Z</time>
      </trkpt>
      <trkpt lat="45.38766" lon="2.38273">
        <ele>572.5</ele>
        <time>2022-06-14T09:17:25.000Z</time>
      </trkpt>
      <trkpt lat="45.38765" lon="2.38271">
        <ele>572.5</ele>
        <time>2022-06-14T09:17:26.000Z</time>
      </trkpt>
      <trkpt lat="45.38765" lon="2.3827">
        <ele>572.5</ele>
        <time>2022-06-14T09:17:27.000Z</time>
      </trkpt>
      <trkpt lat="45.38764" lon="2.38269">
        <ele>572.5</ele>
        <time>2022-06-14T09:17:28.000Z</time>
      </trkpt>
      <trkpt lat="45.38764" lon="2.38267">
        <ele>572.6</ele>
        <time>2022-06-14T09:17:29.000Z</time>
      </trkpt>
      <trkpt lat="45.38764" lon="2.38265">
        <ele>572.6</ele>
        <time>2022-06-14T09:17:30.000Z</time>
      </trkpt>
      <trkpt lat="45.38763" lon="2.38264">
        <ele>572.6</ele>
        <time>2022-06-14T09:17:31.000Z</time>
      </trkpt>
      <trkpt lat="45.38763" lon="2.38262">
        <ele>572.6</ele>
        <time>2022-06-14T09:17:32.000Z</time>
      </trkpt>
      <trkpt lat="45.38763" lon="2.38261">
        <ele>572.6</ele>
        <time>2022-06-14T09:17:33.000Z</time>
      </trkpt>
      <trkpt lat="45.38763" lon="2.38259">
        <ele>572.6</ele>
        <time>2022-06-14T09:17:34.000Z</time>
      </trkpt>
      <trkpt lat="45.38762" lon="2.38257">
        <ele>572.7</ele>
        <time>2022-06-14T09:17:35.000Z</time>
      </trkpt>
      <trkpt lat="45.38762" lon="2.38256">
        <ele>572.7</ele>
        <time>2022-06-14T09:17:36.000Z</time>
      </trkpt>
      <trkpt lat="45.38762" lon="2.38254">
        <ele>572.7</ele>
        <time>2022-06-14T09:17:37.000Z</time>
      </trkpt>
      <trkpt lat="45.38761" lon="2.38253">
        <ele>572.7</ele>
        <time>2022-06-14T09:17:38.000Z</time>
      </trkpt>
      <trkpt lat="45.38761" lon="2.38252">
        <ele>572.7</ele>
        <time>2022-06-14T09:17:39.000Z</time>
      </trkpt>
      <trkpt lat="45.3876" lon="2.38251">
        <ele>572.8</ele>
        <time>2022-06-14T09:17:40.000Z</time>
      </trkpt>
      <trkpt lat="45.38759" lon="2.3825">
        <ele>572.8</ele>
        <time>2022-06-14T09:17:41.000Z</time>
      </trkpt>
      <trkpt lat="45.38758" lon="2.38249">
        <ele>572.8</ele>
        <time>2022-06-14T09:17:42.000Z</time>
      </trkpt>
      <trkpt lat="45.38757" lon="2.38248">
        <ele>572.8</ele>
        <time>2022-06-14T09:17:43.000Z</time>
      </trkpt>
      <trkpt lat="45.38756" lon="2.38248">
        <ele>572.8</ele>
        <time>2022-06-14T09:17:44.000Z</time>
      </trkpt>
      <trkpt lat="45.38755" lon="2.38248">
        <ele>572.8</ele>
        <time>2022-06-14T09:17:45.000Z</time>
      </trkpt>
      <trkpt lat="45.38753" lon="2.38247">
        <ele>572.8</ele>
        <time>2022-06-14T09:17:46.000Z</time>
      </trkpt>
      <trkpt lat="45.38752" lon="2.38247">
        <ele>572.9</ele>
        <time>2022-06-14T09:17:47.000Z</time>
      </trkpt>
      <trkpt lat="45.3875" lon="2.38247">
        <ele>572.9</ele>
        <time>2022-06-14T09:17:48.000Z</time>
      </trkpt>
      <trkpt lat="45.38749" lon="2.38247">
        <ele>572.9</ele>
        <time>2022-06-14T09:17:49.000Z</time>
      </trkpt>
      <trkpt lat="45.38748" lon="2.38247">
        <ele>572.9</ele>
        <time>2022-06-14T09:17:50.000Z</time>
      </trkpt>
      <trkpt lat="45.38747" lon="2.38247">
        <ele>572.8</ele>
        <time>2022-06-14T09:17:51.000Z</time>
      </trkpt>
      <trkpt lat="45.38746" lon="2.38248">
        <ele>572.8</ele>
        <time>2022-06-14T09:17:52.000Z</time>
      </trkpt>
      <trkpt lat="45.38745" lon="2.38248">
        <ele>572.8</ele>
        <time>2022-06-14T09:17:56.000Z</time>
      </trkpt>
      <trkpt lat="45.38744" lon="2.38248">
        <ele>572.8</ele>
        <time>2022-06-14T09:17:58.000Z</time>
      </trkpt>
      <trkpt lat="45.38743" lon="2.38248">
        <ele>572.8</ele>
        <time>2022-06-14T09:17:59.000Z</time>
      </trkpt>
      <trkpt lat="45.38742" lon="2.38248">
        <ele>572.8</ele>
        <time>2022-06-14T09:18:15.000Z</time>
      </trkpt>
      <trkpt lat="45.38742" lon="2.38248">
        <ele>572.8</ele>
        <time>2022-06-14T09:18:16.000Z</time>
      </trkpt>
      <trkpt lat="45.3874" lon="2.38249">
        <ele>572.7</ele>
        <time>2022-06-14T09:18:19.000Z</time>
      </trkpt>
      <trkpt lat="45.38739" lon="2.38249">
        <ele>572.7</ele>
        <time>2022-06-14T09:18:20.000Z</time>
      </trkpt>
      <trkpt lat="45.38738" lon="2.38249">
        <ele>572.7</ele>
        <time>2022-06-14T09:18:21.000Z</time>
      </trkpt>
      <trkpt lat="45.38737" lon="2.3825">
        <ele>572.7</ele>
        <time>2022-06-14T09:18:22.000Z</time>
      </trkpt>
      <trkpt lat="45.38736" lon="2.3825">
        <ele>572.7</ele>
        <time>2022-06-14T09:18:23.000Z</time>
      </trkpt>
      <trkpt lat="45.38735" lon="2.38251">
        <ele>572.6</ele>
        <time>2022-06-14T09:18:24.000Z</time>
      </trkpt>
      <trkpt lat="45.38734" lon="2.38251">
        <ele>572.6</ele>
        <time>2022-06-14T09:18:25.000Z</time>
      </trkpt>
      <trkpt lat="45.38732" lon="2.38251">
        <ele>572.6</ele>
        <time>2022-06-14T09:18:26.000Z</time>
      </trkpt>
      <trkpt lat="45.38731" lon="2.38251">
        <ele>572.5</ele>
        <time>2022-06-14T09:18:27.000Z</time>
      </trkpt>
      <trkpt lat="45.3873" lon="2.38252">
        <ele>572.5</ele>
        <time>2022-06-14T09:18:28.000Z</time>
      </trkpt>
      <trkpt lat="45.38728" lon="2.38252">
        <ele>572.5</ele>
        <time>2022-06-14T09:18:29.000Z</time>
      </trkpt>
      <trkpt lat="45.38727" lon="2.38252">
        <ele>572.4</ele>
        <time>2022-06-14T09:18:30.000Z</time>
      </trkpt>
      <trkpt lat="45.38726" lon="2.38253">
        <ele>572.4</ele>
        <time>2022-06-14T09:18:31.000Z</time>
      </trkpt>
      <trkpt lat="45.38725" lon="2.38253">
        <ele>572.4</ele>
        <time>2022-06-14T09:18:32.000Z</time>
      </trkpt>
      <trkpt lat="45.38724" lon="2.38253">
        <ele>572.3</ele>
        <time>2022-06-14T09:18:33.000Z</time>
      </trkpt>
      <trkpt lat="45.38722" lon="2.38254">
        <ele>572.3</ele>
        <time>2022-06-14T09:18:34.000Z</time>
      </trkpt>
      <trkpt lat="45.38721" lon="2.38254">
        <ele>572.3</ele>
        <time>2022-06-14T09:18:35.000Z</time>
      </trkpt>
      <trkpt lat="45.3872" lon="2.38254">
        <ele>572.2</ele>
        <time>2022-06-14T09:18:36.000Z</time>
      </trkpt>
      <trkpt lat="45.38719" lon="2.38255">
        <ele>572.2</ele>
        <time>2022-06-14T09:18:37.000Z</time>
      </trkpt>
      <trkpt lat="45.38717" lon="2.38255">
        <ele>572.2</ele>
        <time>2022-06-14T09:18:38.000Z</time>
      </trkpt>
      <trkpt lat="45.38716" lon="2.38255">
        <ele>572.1</ele>
        <time>2022-06-14T09:18:39.000Z</time>
      </trkpt>
      <trkpt lat="45.38715" lon="2.38255">
        <ele>572.1</ele>
        <time>2022-06-14T09:18:40.000Z</time>
      </trkpt>
      <trkpt lat="45.38714" lon="2.38256">
        <ele>572.1</ele>
        <time>2022-06-14T09:18:41.000Z</time>
      </trkpt>
      <trkpt lat="45.38712" lon="2.38256">
        <ele>572</ele>
        <time>2022-06-14T09:18:42.000Z</time>
      </trkpt>
      <trkpt lat="45.38711" lon="2.38256">
        <ele>572</ele>
        <time>2022-06-14T09:18:43.000Z</time>
      </trkpt>
      <trkpt lat="45.3871" lon="2.38257">
        <ele>572</ele>
        <time>2022-06-14T09:18:44.000Z</time>
      </trkpt>
      <trkpt lat="45.38709" lon="2.38257">
        <ele>571.9</ele>
        <time>2022-06-14T09:18:45.000Z</time>
      </trkpt>
      <trkpt lat="45.38707" lon="2.38257">
        <ele>571.9</ele>
        <time>2022-06-14T09:18:46.000Z</time>
      </trkpt>
      <trkpt lat="45.38706" lon="2.38258">
        <ele>571.9</ele>
        <time>2022-06-14T09:18:47.000Z</time>
      </trkpt>
      <trkpt lat="45.38705" lon="2.38258">
        <ele>571.8</ele>
        <time>2022-06-14T09:18:48.000Z</time>
      </trkpt>
      <trkpt lat="45.38704" lon="2.38258">
        <ele>571.8</ele>
        <time>2022-06-14T09:18:49.000Z</time>
      </trkpt>
      <trkpt lat="45.38702" lon="2.38259">
        <ele>571.8</ele>
        <time>2022-06-14T09:18:50.000Z</time>
      </trkpt>
      <trkpt lat="45.38701" lon="2.38259">
        <ele>571.7</ele>
        <time>2022-06-14T09:18:51.000Z</time>
      </trkpt>
      <trkpt lat="45.387" lon="2.38259">
        <ele>571.7</ele>
        <time>2022-06-14T09:18:52.000Z</time>
      </trkpt>
      <trkpt lat="45.38699" lon="2.3826">
        <ele>571.6</ele>
        <time>2022-06-14T09:18:53.000Z</time>
      </trkpt>
      <trkpt lat="45.38697" lon="2.3826">
        <ele>571.6</ele>
        <time>2022-06-14T09:18:54.000Z</time>
      </trkpt>
      <trkpt lat="45.38696" lon="2.3826">
        <ele>571.6</ele>
        <time>2022-06-14T09:18:55.000Z</time>
      </trkpt>
      <trkpt lat="45.38695" lon="2.38261">
        <ele>571.5</ele>
        <time>2022-06-14T09:18:56.000Z</time>
      </trkpt>
      <trkpt lat="45.38693" lon="2.38261">
        <ele>571.5</ele>
        <time>2022-06-14T09:18:57.000Z</time>
      </trkpt>
      <trkpt lat="45.38692" lon="2.38261">
        <ele>571.5</ele>
        <time>2022-06-14T09:18:58.000Z</time>
      </trkpt>
      <trkpt lat="45.38691" lon="2.38262">
        <ele>571.4</ele>
        <time>2022-06-14T09:18:59.000Z</time>
      </trkpt>
      <trkpt lat="45.3869" lon="2.38262">
        <ele>571.4</ele>
        <time>2022-06-14T09:19:00.000Z</time>
      </trkpt>
      <trkpt lat="45.38688" lon="2.38262">
        <ele>571.4</ele>
        <time>2022-06-14T09:19:01.000Z</time>
      </trkpt>
      <trkpt lat="45.38687" lon="2.38263">
        <ele>571.3</ele>
        <time>2022-06-14T09:19:02.000Z</time>
      </trkpt>
      <trkpt lat="45.38686" lon="2.38263">
        <ele>571.3</ele>
        <time>2022-06-14T09:19:03.000Z</time>
      </trkpt>
      <trkpt lat="45.38684" lon="2.38264">
        <ele>571.3</ele>
        <time>2022-06-14T09:19:04.000Z</time>
      </trkpt>
      <trkpt lat="45.38683" lon="2.38264">
        <ele>571.2</ele>
        <time>2022-06-14T09:19:05.000Z</time>
      </trkpt>
      <trkpt lat="45.38682" lon="2.38264">
        <ele>571.2</ele>
        <time>2022-06-14T09:19:06.000Z</time>
      </trkpt>
      <trkpt lat="45.38681" lon="2.38265">
        <ele>571.2</ele>
        <time>2022-06-14T09:19:07.000Z</time>
      </trkpt>
      <trkpt lat="45.38679" lon="2.38265">
        <ele>571.1</ele>
        <time>2022-06-14T09:19:08.000Z</time>
      </trkpt>
      <trkpt lat="45.38678" lon="2.38265">
        <ele>571.1</ele>
        <time>2022-06-14T09:19:09.000Z</time>
      </trkpt>
      <trkpt lat="45.38677" lon="2.38266">
        <ele>571</ele>
        <time>2022-06-14T09:19:10.000Z</time>
      </trkpt>
      <trkpt lat="45.38675" lon="2.38266">
        <ele>571</ele>
        <time>2022-06-14T09:19:11.000Z</time>
      </trkpt>
      <trkpt lat="45.38674" lon="2.38266">
        <ele>571</ele>
        <time>2022-06-14T09:19:12.000Z</time>
      </trkpt>
      <trkpt lat="45.38673" lon="2.38267">
        <ele>570.9</ele>
        <time>2022-06-14T09:19:13.000Z</time>
      </trkpt>
      <trkpt lat="45.38671" lon="2.38267">
        <ele>570.9</ele>
        <time>2022-06-14T09:19:14.000Z</time>
      </trkpt>
      <trkpt lat="45.3867" lon="2.38267">
        <ele>570.9</ele>
        <time>2022-06-14T09:19:15.000Z</time>
      </trkpt>
      <trkpt lat="45.38669" lon="2.38268">
        <ele>570.8</ele>
        <time>2022-06-14T09:19:16.000Z</time>
      </trkpt>
      <trkpt lat="45.38667" lon="2.38268">
        <ele>570.8</ele>
        <time>2022-06-14T09:19:17.000Z</time>
      </trkpt>
      <trkpt lat="45.38666" lon="2.38268">
        <ele>570.8</ele>
        <time>2022-06-14T09:19:18.000Z</time>
      </trkpt>
      <trkpt lat="45.38665" lon="2.38268">
        <ele>570.8</ele>
        <time>2022-06-14T09:19:19.000Z</time>
      </trkpt>
      <trkpt lat="45.38663" lon="2.38269">
        <ele>570.7</ele>
        <time>2022-06-14T09:19:20.000Z</time>
      </trkpt>
      <trkpt lat="45.38662" lon="2.38269">
        <ele>570.7</ele>
        <time>2022-06-14T09:19:21.000Z</time>
      </trkpt>
      <trkpt lat="45.38661" lon="2.38269">
        <ele>570.7</ele>
        <time>2022-06-14T09:19:22.000Z</time>
      </trkpt>
      <trkpt lat="45.38659" lon="2.38269">
        <ele>570.7</ele>
        <time>2022-06-14T09:19:23.000Z</time>
      </trkpt>
      <trkpt lat="45.38658" lon="2.3827">
        <ele>570.7</ele>
        <time>2022-06-14T09:19:24.000Z</time>
      </trkpt>
      <trkpt lat="45.38656" lon="2.3827">
        <ele>570.6</ele>
        <time>2022-06-14T09:19:25.000Z</time>
      </trkpt>
      <trkpt lat="45.38655" lon="2.3827">
        <ele>570.6</ele>
        <time>2022-06-14T09:19:26.000Z</time>
      </trkpt>
      <trkpt lat="45.38654" lon="2.3827">
        <ele>570.6</ele>
        <time>2022-06-14T09:19:27.000Z</time>
      </trkpt>
      <trkpt lat="45.38652" lon="2.3827">
        <ele>570.6</ele>
        <time>2022-06-14T09:19:28.000Z</time>
      </trkpt>
      <trkpt lat="45.38651" lon="2.38271">
        <ele>570.6</ele>
        <time>2022-06-14T09:19:29.000Z</time>
      </trkpt>
      <trkpt lat="45.38649" lon="2.38271">
        <ele>570.5</ele>
        <time>2022-06-14T09:19:30.000Z</time>
      </trkpt>
      <trkpt lat="45.38648" lon="2.38271">
        <ele>570.5</ele>
        <time>2022-06-14T09:19:31.000Z</time>
      </trkpt>
      <trkpt lat="45.38647" lon="2.38271">
        <ele>570.5</ele>
        <time>2022-06-14T09:19:32.000Z</time>
      </trkpt>
      <trkpt lat="45.38645" lon="2.38271">
        <ele>570.5</ele>
        <time>2022-06-14T09:19:33.000Z</time>
      </trkpt>
      <trkpt lat="45.38644" lon="2.38271">
        <ele>570.5</ele>
        <time>2022-06-14T09:19:34.000Z</time>
      </trkpt>
      <trkpt lat="45.38643" lon="2.3827">
        <ele>570.5</ele>
        <time>2022-06-14T09:19:35.000Z</time>
      </trkpt>
      <trkpt lat="45.38642" lon="2.3827">
        <ele>570.5</ele>
        <time>2022-06-14T09:19:36.000Z</time>
      </trkpt>
      <trkpt lat="45.38641" lon="2.3827">
        <ele>570.5</ele>
        <time>2022-06-14T09:19:37.000Z</time>
      </trkpt>
      <trkpt lat="45.3864" lon="2.38269">
        <ele>570.5</ele>
        <time>2022-06-14T09:19:38.000Z</time>
      </trkpt>
      <trkpt lat="45.38639" lon="2.38269">
        <ele>570.5</ele>
        <time>2022-06-14T09:19:39.000Z</time>
      </trkpt>
      <trkpt lat="45.38638" lon="2.38269">
        <ele>570.5</ele>
        <time>2022-06-14T09:19:40.000Z</time>
      </trkpt>
      <trkpt lat="45.38637" lon="2.38268">
        <ele>570.5</ele>
        <time>2022-06-14T09:19:41.000Z</time>
      </trkpt>
      <trkpt lat="45.38636" lon="2.38267">
        <ele>570.5</ele>
        <time>2022-06-14T09:19:42.000Z</time>
      </trkpt>
      <trkpt lat="45.38635" lon="2.38267">
        <ele>570.5</ele>
        <time>2022-06-14T09:19:43.000Z</time>
      </trkpt>
      <trkpt lat="45.38634" lon="2.38266">
        <ele>570.5</ele>
        <time>2022-06-14T09:19:44.000Z</time>
      </trkpt>
      <trkpt lat="45.38633" lon="2.38266">
        <ele>570.5</ele>
        <time>2022-06-14T09:19:45.000Z</time>
      </trkpt>
      <trkpt lat="45.38632" lon="2.38265">
        <ele>570.5</ele>
        <time>2022-06-14T09:19:46.000Z</time>
      </trkpt>
      <trkpt lat="45.3863" lon="2.38265">
        <ele>570.5</ele>
        <time>2022-06-14T09:19:47.000Z</time>
      </trkpt>
      <trkpt lat="45.38629" lon="2.38265">
        <ele>570.5</ele>
        <time>2022-06-14T09:19:48.000Z</time>
      </trkpt>
      <trkpt lat="45.38628" lon="2.38265">
        <ele>570.5</ele>
        <time>2022-06-14T09:19:49.000Z</time>
      </trkpt>
      <trkpt lat="45.38627" lon="2.38265">
        <ele>570.5</ele>
        <time>2022-06-14T09:19:50.000Z</time>
      </trkpt>
      <trkpt lat="45.38626" lon="2.38265">
        <ele>570.5</ele>
        <time>2022-06-14T09:19:51.000Z</time>
      </trkpt>
      <trkpt lat="45.38624" lon="2.38265">
        <ele>570.4</ele>
        <time>2022-06-14T09:19:52.000Z</time>
      </trkpt>
      <trkpt lat="45.38623" lon="2.38265">
        <ele>570.4</ele>
        <time>2022-06-14T09:19:53.000Z</time>
      </trkpt>
      <trkpt lat="45.38622" lon="2.38265">
        <ele>570.4</ele>
        <time>2022-06-14T09:19:54.000Z</time>
      </trkpt>
      <trkpt lat="45.38621" lon="2.38264">
        <ele>570.5</ele>
        <time>2022-06-14T09:19:55.000Z</time>
      </trkpt>
      <trkpt lat="45.3862" lon="2.38264">
        <ele>570.5</ele>
        <time>2022-06-14T09:19:56.000Z</time>
      </trkpt>
      <trkpt lat="45.38619" lon="2.38263">
        <ele>570.5</ele>
        <time>2022-06-14T09:19:57.000Z</time>
      </trkpt>
      <trkpt lat="45.38618" lon="2.38262">
        <ele>570.5</ele>
        <time>2022-06-14T09:19:58.000Z</time>
      </trkpt>
      <trkpt lat="45.38617" lon="2.38261">
        <ele>570.6</ele>
        <time>2022-06-14T09:19:59.000Z</time>
      </trkpt>
      <trkpt lat="45.38616" lon="2.3826">
        <ele>570.6</ele>
        <time>2022-06-14T09:20:00.000Z</time>
      </trkpt>
      <trkpt lat="45.38615" lon="2.38259">
        <ele>570.6</ele>
        <time>2022-06-14T09:20:01.000Z</time>
      </trkpt>
      <trkpt lat="45.38614" lon="2.38258">
        <ele>570.7</ele>
        <time>2022-06-14T09:20:02.000Z</time>
      </trkpt>
      <trkpt lat="45.38613" lon="2.38257">
        <ele>570.7</ele>
        <time>2022-06-14T09:20:03.000Z</time>
      </trkpt>
      <trkpt lat="45.38612" lon="2.38257">
        <ele>570.7</ele>
        <time>2022-06-14T09:20:04.000Z</time>
      </trkpt>
      <trkpt lat="45.3861" lon="2.38256">
        <ele>570.7</ele>
        <time>2022-06-14T09:20:05.000Z</time>
      </trkpt>
      <trkpt lat="45.38609" lon="2.38256">
        <ele>570.7</ele>
        <time>2022-06-14T09:20:06.000Z</time>
      </trkpt>
      <trkpt lat="45.38608" lon="2.38255">
        <ele>570.8</ele>
        <time>2022-06-14T09:20:07.000Z</time>
      </trkpt>
      <trkpt lat="45.38606" lon="2.38255">
        <ele>570.8</ele>
        <time>2022-06-14T09:20:08.000Z</time>
      </trkpt>
      <trkpt lat="45.38605" lon="2.38254">
        <ele>570.8</ele>
        <time>2022-06-14T09:20:09.000Z</time>
      </trkpt>
      <trkpt lat="45.38604" lon="2.38253">
        <ele>570.8</ele>
        <time>2022-06-14T09:20:10.000Z</time>
      </trkpt>
      <trkpt lat="45.38603" lon="2.38253">
        <ele>570.9</ele>
        <time>2022-06-14T09:20:11.000Z</time>
      </trkpt>
      <trkpt lat="45.38601" lon="2.38252">
        <ele>570.9</ele>
        <time>2022-06-14T09:20:12.000Z</time>
      </trkpt>
      <trkpt lat="45.386" lon="2.38252">
        <ele>570.9</ele>
        <time>2022-06-14T09:20:13.000Z</time>
      </trkpt>
      <trkpt lat="45.38599" lon="2.38251">
        <ele>570.9</ele>
        <time>2022-06-14T09:20:14.000Z</time>
      </trkpt>
      <trkpt lat="45.38598" lon="2.3825">
        <ele>571</ele>
        <time>2022-06-14T09:20:15.000Z</time>
      </trkpt>
      <trkpt lat="45.38597" lon="2.3825">
        <ele>571</ele>
        <time>2022-06-14T09:20:16.000Z</time>
      </trkpt>
      <trkpt lat="45.38595" lon="2.38249">
        <ele>571</ele>
        <time>2022-06-14T09:20:17.000Z</time>
      </trkpt>
      <trkpt lat="45.38594" lon="2.38248">
        <ele>571</ele>
        <time>2022-06-14T09:20:18.000Z</time>
      </trkpt>
      <trkpt lat="45.38593" lon="2.38247">
        <ele>571.1</ele>
        <time>2022-06-14T09:20:19.000Z</time>
      </trkpt>
      <trkpt lat="45.38592" lon="2.38247">
        <ele>571.1</ele>
        <time>2022-06-14T09:20:20.000Z</time>
      </trkpt>
      <trkpt lat="45.38591" lon="2.38246">
        <ele>571.1</ele>
        <time>2022-06-14T09:20:21.000Z</time>
      </trkpt>
      <trkpt lat="45.3859" lon="2.38245">
        <ele>571.1</ele>
        <time>2022-06-14T09:20:22.000Z</time>
      </trkpt>
      <trkpt lat="45.38588" lon="2.38244">
        <ele>571.1</ele>
        <time>2022-06-14T09:20:23.000Z</time>
      </trkpt>
      <trkpt lat="45.38587" lon="2.38243">
        <ele>571.2</ele>
        <time>2022-06-14T09:20:24.000Z</time>
      </trkpt>
      <trkpt lat="45.38586" lon="2.38242">
        <ele>571.2</ele>
        <time>2022-06-14T09:20:25.000Z</time>
      </trkpt>
      <trkpt lat="45.38585" lon="2.38241">
        <ele>571.2</ele>
        <time>2022-06-14T09:20:26.000Z</time>
      </trkpt>
      <trkpt lat="45.38584" lon="2.3824">
        <ele>571.2</ele>
        <time>2022-06-14T09:20:27.000Z</time>
      </trkpt>
      <trkpt lat="45.38583" lon="2.3824">
        <ele>571.3</ele>
        <time>2022-06-14T09:20:28.000Z</time>
      </trkpt>
      <trkpt lat="45.38582" lon="2.38239">
        <ele>571.3</ele>
        <time>2022-06-14T09:20:29.000Z</time>
      </trkpt>
      <trkpt lat="45.38581" lon="2.38238">
        <ele>571.4</ele>
        <time>2022-06-14T09:20:30.000Z</time>
      </trkpt>
      <trkpt lat="45.3858" lon="2.38238">
        <ele>571.4</ele>
        <time>2022-06-14T09:20:31.000Z</time>
      </trkpt>
      <trkpt lat="45.38578" lon="2.38237">
        <ele>571.5</ele>
        <time>2022-06-14T09:20:32.000Z</time>
      </trkpt>
      <trkpt lat="45.38577" lon="2.38237">
        <ele>571.5</ele>
        <time>2022-06-14T09:20:33.000Z</time>
      </trkpt>
      <trkpt lat="45.38576" lon="2.38236">
        <ele>571.5</ele>
        <time>2022-06-14T09:20:34.000Z</time>
      </trkpt>
      <trkpt lat="45.38575" lon="2.38236">
        <ele>571.6</ele>
        <time>2022-06-14T09:20:35.000Z</time>
      </trkpt>
      <trkpt lat="45.38574" lon="2.38236">
        <ele>571.6</ele>
        <time>2022-06-14T09:20:36.000Z</time>
      </trkpt>
      <trkpt lat="45.38573" lon="2.38235">
        <ele>571.7</ele>
        <time>2022-06-14T09:20:37.000Z</time>
      </trkpt>
      <trkpt lat="45.38572" lon="2.38235">
        <ele>571.7</ele>
        <time>2022-06-14T09:20:38.000Z</time>
      </trkpt>
      <trkpt lat="45.3857" lon="2.38234">
        <ele>571.8</ele>
        <time>2022-06-14T09:20:39.000Z</time>
      </trkpt>
      <trkpt lat="45.38569" lon="2.38233">
        <ele>571.8</ele>
        <time>2022-06-14T09:20:40.000Z</time>
      </trkpt>
      <trkpt lat="45.38568" lon="2.38232">
        <ele>571.9</ele>
        <time>2022-06-14T09:20:41.000Z</time>
      </trkpt>
      <trkpt lat="45.38567" lon="2.38232">
        <ele>571.9</ele>
        <time>2022-06-14T09:20:42.000Z</time>
      </trkpt>
      <trkpt lat="45.38566" lon="2.38231">
        <ele>572</ele>
        <time>2022-06-14T09:20:43.000Z</time>
      </trkpt>
      <trkpt lat="45.38565" lon="2.3823">
        <ele>572</ele>
        <time>2022-06-14T09:20:44.000Z</time>
      </trkpt>
      <trkpt lat="45.38563" lon="2.38229">
        <ele>572</ele>
        <time>2022-06-14T09:20:45.000Z</time>
      </trkpt>
      <trkpt lat="45.38562" lon="2.38228">
        <ele>572.1</ele>
        <time>2022-06-14T09:20:46.000Z</time>
      </trkpt>
      <trkpt lat="45.38561" lon="2.38227">
        <ele>572.1</ele>
        <time>2022-06-14T09:20:47.000Z</time>
      </trkpt>
      <trkpt lat="45.3856" lon="2.38226">
        <ele>572.2</ele>
        <time>2022-06-14T09:20:48.000Z</time>
      </trkpt>
      <trkpt lat="45.38559" lon="2.38225">
        <ele>572.2</ele>
        <time>2022-06-14T09:20:49.000Z</time>
      </trkpt>
      <trkpt lat="45.38558" lon="2.38224">
        <ele>572.3</ele>
        <time>2022-06-14T09:20:50.000Z</time>
      </trkpt>
      <trkpt lat="45.38556" lon="2.38223">
        <ele>572.3</ele>
        <time>2022-06-14T09:20:51.000Z</time>
      </trkpt>
      <trkpt lat="45.38555" lon="2.38222">
        <ele>572.3</ele>
        <time>2022-06-14T09:20:52.000Z</time>
      </trkpt>
      <trkpt lat="45.38554" lon="2.38222">
        <ele>572.4</ele>
        <time>2022-06-14T09:20:53.000Z</time>
      </trkpt>
      <trkpt lat="45.38553" lon="2.38221">
        <ele>572.4</ele>
        <time>2022-06-14T09:20:54.000Z</time>
      </trkpt>
      <trkpt lat="45.38552" lon="2.3822">
        <ele>572.4</ele>
        <time>2022-06-14T09:20:55.000Z</time>
      </trkpt>
      <trkpt lat="45.38551" lon="2.38219">
        <ele>572.5</ele>
        <time>2022-06-14T09:20:56.000Z</time>
      </trkpt>
      <trkpt lat="45.3855" lon="2.38218">
        <ele>572.5</ele>
        <time>2022-06-14T09:20:57.000Z</time>
      </trkpt>
      <trkpt lat="45.38549" lon="2.38217">
        <ele>572.6</ele>
        <time>2022-06-14T09:20:58.000Z</time>
      </trkpt>
      <trkpt lat="45.38547" lon="2.38216">
        <ele>572.6</ele>
        <time>2022-06-14T09:20:59.000Z</time>
      </trkpt>
      <trkpt lat="45.38546" lon="2.38215">
        <ele>572.6</ele>
        <time>2022-06-14T09:21:00.000Z</time>
      </trkpt>
      <trkpt lat="45.38545" lon="2.38214">
        <ele>572.6</ele>
        <time>2022-06-14T09:21:01.000Z</time>
      </trkpt>
      <trkpt lat="45.38544" lon="2.38214">
        <ele>572.7</ele>
        <time>2022-06-14T09:21:02.000Z</time>
      </trkpt>
      <trkpt lat="45.38543" lon="2.38213">
        <ele>572.7</ele>
        <time>2022-06-14T09:21:03.000Z</time>
      </trkpt>
      <trkpt lat="45.38541" lon="2.38213">
        <ele>572.7</ele>
        <time>2022-06-14T09:21:04.000Z</time>
      </trkpt>
      <trkpt lat="45.3854" lon="2.38212">
        <ele>572.8</ele>
        <time>2022-06-14T09:21:05.000Z</time>
      </trkpt>
      <trkpt lat="45.38538" lon="2.38212">
        <ele>572.8</ele>
        <time>2022-06-14T09:21:06.000Z</time>
      </trkpt>
      <trkpt lat="45.38537" lon="2.38211">
        <ele>572.8</ele>
        <time>2022-06-14T09:21:07.000Z</time>
      </trkpt>
      <trkpt lat="45.38536" lon="2.38211">
        <ele>572.8</ele>
        <time>2022-06-14T09:21:08.000Z</time>
      </trkpt>
      <trkpt lat="45.38534" lon="2.3821">
        <ele>572.9</ele>
        <time>2022-06-14T09:21:09.000Z</time>
      </trkpt>
      <trkpt lat="45.38533" lon="2.3821">
        <ele>572.9</ele>
        <time>2022-06-14T09:21:10.000Z</time>
      </trkpt>
      <trkpt lat="45.38532" lon="2.38209">
        <ele>572.9</ele>
        <time>2022-06-14T09:21:11.000Z</time>
      </trkpt>
      <trkpt lat="45.38531" lon="2.38209">
        <ele>573</ele>
        <time>2022-06-14T09:21:12.000Z</time>
      </trkpt>
      <trkpt lat="45.38529" lon="2.38208">
        <ele>573</ele>
        <time>2022-06-14T09:21:13.000Z</time>
      </trkpt>
      <trkpt lat="45.38528" lon="2.38208">
        <ele>573</ele>
        <time>2022-06-14T09:21:14.000Z</time>
      </trkpt>
      <trkpt lat="45.38527" lon="2.38207">
        <ele>573</ele>
        <time>2022-06-14T09:21:15.000Z</time>
      </trkpt>
      <trkpt lat="45.38526" lon="2.38207">
        <ele>573</ele>
        <time>2022-06-14T09:21:16.000Z</time>
      </trkpt>
      <trkpt lat="45.38524" lon="2.38207">
        <ele>573.1</ele>
        <time>2022-06-14T09:21:17.000Z</time>
      </trkpt>
      <trkpt lat="45.38523" lon="2.38206">
        <ele>573.1</ele>
        <time>2022-06-14T09:21:18.000Z</time>
      </trkpt>
      <trkpt lat="45.38522" lon="2.38206">
        <ele>573.1</ele>
        <time>2022-06-14T09:21:19.000Z</time>
      </trkpt>
      <trkpt lat="45.38521" lon="2.38205">
        <ele>573.1</ele>
        <time>2022-06-14T09:21:20.000Z</time>
      </trkpt>
      <trkpt lat="45.3852" lon="2.38205">
        <ele>573.1</ele>
        <time>2022-06-14T09:21:21.000Z</time>
      </trkpt>
      <trkpt lat="45.38518" lon="2.38204">
        <ele>573.2</ele>
        <time>2022-06-14T09:21:22.000Z</time>
      </trkpt>
      <trkpt lat="45.38517" lon="2.38204">
        <ele>573.2</ele>
        <time>2022-06-14T09:21:23.000Z</time>
      </trkpt>
      <trkpt lat="45.38516" lon="2.38203">
        <ele>573.2</ele>
        <time>2022-06-14T09:21:24.000Z</time>
      </trkpt>
      <trkpt lat="45.38515" lon="2.38203">
        <ele>573.2</ele>
        <time>2022-06-14T09:21:25.000Z</time>
      </trkpt>
      <trkpt lat="45.38513" lon="2.38202">
        <ele>573.2</ele>
        <time>2022-06-14T09:21:26.000Z</time>
      </trkpt>
      <trkpt lat="45.38512" lon="2.38202">
        <ele>573.2</ele>
        <time>2022-06-14T09:21:27.000Z</time>
      </trkpt>
      <trkpt lat="45.38511" lon="2.38202">
        <ele>573.3</ele>
        <time>2022-06-14T09:21:28.000Z</time>
      </trkpt>
      <trkpt lat="45.38509" lon="2.38201">
        <ele>573.3</ele>
        <time>2022-06-14T09:21:29.000Z</time>
      </trkpt>
      <trkpt lat="45.38508" lon="2.38201">
        <ele>573.3</ele>
        <time>2022-06-14T09:21:30.000Z</time>
      </trkpt>
      <trkpt lat="45.38507" lon="2.382">
        <ele>573.3</ele>
        <time>2022-06-14T09:21:31.000Z</time>
      </trkpt>
      <trkpt lat="45.38506" lon="2.382">
        <ele>573.3</ele>
        <time>2022-06-14T09:21:32.000Z</time>
      </trkpt>
      <trkpt lat="45.38504" lon="2.38199">
        <ele>573.3</ele>
        <time>2022-06-14T09:21:33.000Z</time>
      </trkpt>
      <trkpt lat="45.38503" lon="2.38199">
        <ele>573.3</ele>
        <time>2022-06-14T09:21:34.000Z</time>
      </trkpt>
      <trkpt lat="45.38502" lon="2.38198">
        <ele>573.4</ele>
        <time>2022-06-14T09:21:35.000Z</time>
      </trkpt>
      <trkpt lat="45.385" lon="2.38198">
        <ele>573.4</ele>
        <time>2022-06-14T09:21:36.000Z</time>
      </trkpt>
      <trkpt lat="45.38499" lon="2.38198">
        <ele>573.4</ele>
        <time>2022-06-14T09:21:37.000Z</time>
      </trkpt>
      <trkpt lat="45.38498" lon="2.38197">
        <ele>573.3</ele>
        <time>2022-06-14T09:21:38.000Z</time>
      </trkpt>
      <trkpt lat="45.38497" lon="2.38197">
        <ele>573.3</ele>
        <time>2022-06-14T09:21:39.000Z</time>
      </trkpt>
      <trkpt lat="45.38495" lon="2.38196">
        <ele>573.3</ele>
        <time>2022-06-14T09:21:40.000Z</time>
      </trkpt>
      <trkpt lat="45.38494" lon="2.38196">
        <ele>573.3</ele>
        <time>2022-06-14T09:21:41.000Z</time>
      </trkpt>
      <trkpt lat="45.38493" lon="2.38195">
        <ele>573.2</ele>
        <time>2022-06-14T09:21:42.000Z</time>
      </trkpt>
      <trkpt lat="45.38492" lon="2.38195">
        <ele>573.2</ele>
        <time>2022-06-14T09:21:43.000Z</time>
      </trkpt>
      <trkpt lat="45.3849" lon="2.38194">
        <ele>573.2</ele>
        <time>2022-06-14T09:21:44.000Z</time>
      </trkpt>
      <trkpt lat="45.38489" lon="2.38194">
        <ele>573.2</ele>
        <time>2022-06-14T09:21:45.000Z</time>
      </trkpt>
      <trkpt lat="45.38488" lon="2.38193">
        <ele>573.1</ele>
        <time>2022-06-14T09:21:46.000Z</time>
      </trkpt>
      <trkpt lat="45.38487" lon="2.38193">
        <ele>573.1</ele>
        <time>2022-06-14T09:21:47.000Z</time>
      </trkpt>
      <trkpt lat="45.38486" lon="2.38192">
        <ele>573.1</ele>
        <time>2022-06-14T09:21:48.000Z</time>
      </trkpt>
      <trkpt lat="45.38485" lon="2.38192">
        <ele>573.1</ele>
        <time>2022-06-14T09:21:49.000Z</time>
      </trkpt>
      <trkpt lat="45.38484" lon="2.38191">
        <ele>573</ele>
        <time>2022-06-14T09:21:50.000Z</time>
      </trkpt>
      <trkpt lat="45.38482" lon="2.38191">
        <ele>573</ele>
        <time>2022-06-14T09:21:51.000Z</time>
      </trkpt>
      <trkpt lat="45.38481" lon="2.38191">
        <ele>573</ele>
        <time>2022-06-14T09:21:52.000Z</time>
      </trkpt>
      <trkpt lat="45.3848" lon="2.3819">
        <ele>573</ele>
        <time>2022-06-14T09:21:53.000Z</time>
      </trkpt>
      <trkpt lat="45.38479" lon="2.3819">
        <ele>573</ele>
        <time>2022-06-14T09:21:54.000Z</time>
      </trkpt>
      <trkpt lat="45.38477" lon="2.3819">
        <ele>572.9</ele>
        <time>2022-06-14T09:21:55.000Z</time>
      </trkpt>
      <trkpt lat="45.38476" lon="2.38189">
        <ele>572.9</ele>
        <time>2022-06-14T09:21:56.000Z</time>
      </trkpt>
      <trkpt lat="45.38475" lon="2.38189">
        <ele>572.9</ele>
        <time>2022-06-14T09:21:57.000Z</time>
      </trkpt>
      <trkpt lat="45.38474" lon="2.38189">
        <ele>572.9</ele>
        <time>2022-06-14T09:21:58.000Z</time>
      </trkpt>
      <trkpt lat="45.38472" lon="2.38189">
        <ele>572.8</ele>
        <time>2022-06-14T09:21:59.000Z</time>
      </trkpt>
      <trkpt lat="45.38471" lon="2.38189">
        <ele>572.8</ele>
        <time>2022-06-14T09:22:00.000Z</time>
      </trkpt>
      <trkpt lat="45.3847" lon="2.38189">
        <ele>572.8</ele>
        <time>2022-06-14T09:22:01.000Z</time>
      </trkpt>
      <trkpt lat="45.38469" lon="2.38189">
        <ele>572.8</ele>
        <time>2022-06-14T09:22:02.000Z</time>
      </trkpt>
      <trkpt lat="45.38468" lon="2.38189">
        <ele>572.8</ele>
        <time>2022-06-14T09:22:03.000Z</time>
      </trkpt>
      <trkpt lat="45.38466" lon="2.38189">
        <ele>572.8</ele>
        <time>2022-06-14T09:22:04.000Z</time>
      </trkpt>
      <trkpt lat="45.38465" lon="2.38189">
        <ele>572.7</ele>
        <time>2022-06-14T09:22:05.000Z</time>
      </trkpt>
      <trkpt lat="45.38464" lon="2.38189">
        <ele>572.7</ele>
        <time>2022-06-14T09:22:06.000Z</time>
      </trkpt>
      <trkpt lat="45.38463" lon="2.38189">
        <ele>572.7</ele>
        <time>2022-06-14T09:22:07.000Z</time>
      </trkpt>
      <trkpt lat="45.38462" lon="2.38189">
        <ele>572.7</ele>
        <time>2022-06-14T09:22:08.000Z</time>
      </trkpt>
      <trkpt lat="45.3846" lon="2.38188">
        <ele>572.7</ele>
        <time>2022-06-14T09:22:09.000Z</time>
      </trkpt>
      <trkpt lat="45.38459" lon="2.38188">
        <ele>572.6</ele>
        <time>2022-06-14T09:22:10.000Z</time>
      </trkpt>
      <trkpt lat="45.38458" lon="2.38187">
        <ele>572.6</ele>
        <time>2022-06-14T09:22:11.000Z</time>
      </trkpt>
      <trkpt lat="45.38457" lon="2.38187">
        <ele>572.6</ele>
        <time>2022-06-14T09:22:12.000Z</time>
      </trkpt>
      <trkpt lat="45.38455" lon="2.38186">
        <ele>572.6</ele>
        <time>2022-06-14T09:22:13.000Z</time>
      </trkpt>
      <trkpt lat="45.38454" lon="2.38185">
        <ele>572.5</ele>
        <time>2022-06-14T09:22:14.000Z</time>
      </trkpt>
      <trkpt lat="45.38453" lon="2.38185">
        <ele>572.5</ele>
        <time>2022-06-14T09:22:15.000Z</time>
      </trkpt>
      <trkpt lat="45.38452" lon="2.38184">
        <ele>572.5</ele>
        <time>2022-06-14T09:22:16.000Z</time>
      </trkpt>
      <trkpt lat="45.38451" lon="2.38183">
        <ele>572.5</ele>
        <time>2022-06-14T09:22:17.000Z</time>
      </trkpt>
      <trkpt lat="45.38449" lon="2.38182">
        <ele>572.5</ele>
        <time>2022-06-14T09:22:18.000Z</time>
      </trkpt>
      <trkpt lat="45.38448" lon="2.38182">
        <ele>572.4</ele>
        <time>2022-06-14T09:22:19.000Z</time>
      </trkpt>
      <trkpt lat="45.38448" lon="2.38181">
        <ele>572.4</ele>
        <time>2022-06-14T09:22:20.000Z</time>
      </trkpt>
      <trkpt lat="45.38447" lon="2.3818">
        <ele>572.4</ele>
        <time>2022-06-14T09:22:21.000Z</time>
      </trkpt>
      <trkpt lat="45.38447" lon="2.38179">
        <ele>572.4</ele>
        <time>2022-06-14T09:22:23.000Z</time>
      </trkpt>
      <trkpt lat="45.38447" lon="2.38177">
        <ele>572.4</ele>
        <time>2022-06-14T09:22:24.000Z</time>
      </trkpt>
      <trkpt lat="45.38447" lon="2.38176">
        <ele>572.4</ele>
        <time>2022-06-14T09:22:25.000Z</time>
      </trkpt>
      <trkpt lat="45.38447" lon="2.38174">
        <ele>572.4</ele>
        <time>2022-06-14T09:22:26.000Z</time>
      </trkpt>
      <trkpt lat="45.38447" lon="2.38173">
        <ele>572.4</ele>
        <time>2022-06-14T09:22:27.000Z</time>
      </trkpt>
      <trkpt lat="45.38446" lon="2.38172">
        <ele>572.4</ele>
        <time>2022-06-14T09:22:28.000Z</time>
      </trkpt>
      <trkpt lat="45.38446" lon="2.3817">
        <ele>572.4</ele>
        <time>2022-06-14T09:22:29.000Z</time>
      </trkpt>
      <trkpt lat="45.38445" lon="2.38169">
        <ele>572.3</ele>
        <time>2022-06-14T09:22:30.000Z</time>
      </trkpt>
      <trkpt lat="45.38445" lon="2.38167">
        <ele>572.3</ele>
        <time>2022-06-14T09:22:31.000Z</time>
      </trkpt>
      <trkpt lat="45.38444" lon="2.38166">
        <ele>572.3</ele>
        <time>2022-06-14T09:22:32.000Z</time>
      </trkpt>
      <trkpt lat="45.38444" lon="2.38164">
        <ele>572.4</ele>
        <time>2022-06-14T09:22:33.000Z</time>
      </trkpt>
      <trkpt lat="45.38443" lon="2.38163">
        <ele>572.4</ele>
        <time>2022-06-14T09:22:34.000Z</time>
      </trkpt>
      <trkpt lat="45.38443" lon="2.38162">
        <ele>572.4</ele>
        <time>2022-06-14T09:22:35.000Z</time>
      </trkpt>
      <trkpt lat="45.38443" lon="2.38161">
        <ele>572.4</ele>
        <time>2022-06-14T09:22:36.000Z</time>
      </trkpt>
      <trkpt lat="45.38442" lon="2.3816">
        <ele>572.4</ele>
        <time>2022-06-14T09:22:37.000Z</time>
      </trkpt>
      <trkpt lat="45.38442" lon="2.38159">
        <ele>572.4</ele>
        <time>2022-06-14T09:22:39.000Z</time>
      </trkpt>
      <trkpt lat="45.38442" lon="2.38159">
        <ele>572.4</ele>
        <time>2022-06-14T09:23:24.000Z</time>
      </trkpt>
      <trkpt lat="45.38441" lon="2.38158">
        <ele>572.4</ele>
        <time>2022-06-14T09:23:35.000Z</time>
      </trkpt>
      <trkpt lat="45.3844" lon="2.38157">
        <ele>572.4</ele>
        <time>2022-06-14T09:23:37.000Z</time>
      </trkpt>
      <trkpt lat="45.38439" lon="2.38157">
        <ele>572.4</ele>
        <time>2022-06-14T09:23:38.000Z</time>
      </trkpt>
      <trkpt lat="45.38438" lon="2.38157">
        <ele>572.4</ele>
        <time>2022-06-14T09:23:40.000Z</time>
      </trkpt>
      <trkpt lat="45.38437" lon="2.38158">
        <ele>572.4</ele>
        <time>2022-06-14T09:23:41.000Z</time>
      </trkpt>
      <trkpt lat="45.38438" lon="2.38158">
        <ele>572.4</ele>
        <time>2022-06-14T09:23:43.000Z</time>
      </trkpt>
      <trkpt lat="45.3844" lon="2.38158">
        <ele>572.4</ele>
        <time>2022-06-14T09:23:45.000Z</time>
      </trkpt>
      <trkpt lat="45.38441" lon="2.38157">
        <ele>572.4</ele>
        <time>2022-06-14T09:23:46.000Z</time>
      </trkpt>
      <trkpt lat="45.38442" lon="2.38157">
        <ele>572.4</ele>
        <time>2022-06-14T09:23:47.000Z</time>
      </trkpt>
      <trkpt lat="45.38443" lon="2.38157">
        <ele>572.4</ele>
        <time>2022-06-14T09:23:48.000Z</time>
      </trkpt>
      <trkpt lat="45.38442" lon="2.38157">
        <ele>572.4</ele>
        <time>2022-06-14T09:23:54.000Z</time>
      </trkpt>
      <trkpt lat="45.38442" lon="2.38157">
        <ele>572.4</ele>
        <time>2022-06-14T09:26:52.000Z</time>
      </trkpt>
      <trkpt lat="45.38442" lon="2.38155">
        <ele>572.4</ele>
        <time>2022-06-14T09:26:53.000Z</time>
      </trkpt>
      <trkpt lat="45.38443" lon="2.38153">
        <ele>572.5</ele>
        <time>2022-06-14T09:26:54.000Z</time>
      </trkpt>
      <trkpt lat="45.38442" lon="2.38151">
        <ele>572.5</ele>
        <time>2022-06-14T09:26:55.000Z</time>
      </trkpt>
      <trkpt lat="45.38442" lon="2.3815">
        <ele>572.5</ele>
        <time>2022-06-14T09:26:56.000Z</time>
      </trkpt>
      <trkpt lat="45.38441" lon="2.38148">
        <ele>572.5</ele>
        <time>2022-06-14T09:26:57.000Z</time>
      </trkpt>
      <trkpt lat="45.38441" lon="2.38147">
        <ele>572.5</ele>
        <time>2022-06-14T09:26:58.000Z</time>
      </trkpt>
      <trkpt lat="45.3844" lon="2.38145">
        <ele>572.5</ele>
        <time>2022-06-14T09:26:59.000Z</time>
      </trkpt>
      <trkpt lat="45.3844" lon="2.38144">
        <ele>572.6</ele>
        <time>2022-06-14T09:27:00.000Z</time>
      </trkpt>
      <trkpt lat="45.3844" lon="2.38142">
        <ele>572.6</ele>
        <time>2022-06-14T09:27:01.000Z</time>
      </trkpt>
      <trkpt lat="45.38439" lon="2.38141">
        <ele>572.6</ele>
        <time>2022-06-14T09:27:02.000Z</time>
      </trkpt>
      <trkpt lat="45.38439" lon="2.38139">
        <ele>572.6</ele>
        <time>2022-06-14T09:27:03.000Z</time>
      </trkpt>
      <trkpt lat="45.38438" lon="2.38137">
        <ele>572.6</ele>
        <time>2022-06-14T09:27:04.000Z</time>
      </trkpt>
      <trkpt lat="45.38438" lon="2.38135">
        <ele>572.6</ele>
        <time>2022-06-14T09:27:05.000Z</time>
      </trkpt>
      <trkpt lat="45.38437" lon="2.38134">
        <ele>572.6</ele>
        <time>2022-06-14T09:27:06.000Z</time>
      </trkpt>
      <trkpt lat="45.38437" lon="2.38132">
        <ele>572.7</ele>
        <time>2022-06-14T09:27:07.000Z</time>
      </trkpt>
      <trkpt lat="45.38436" lon="2.3813">
        <ele>572.7</ele>
        <time>2022-06-14T09:27:08.000Z</time>
      </trkpt>
      <trkpt lat="45.38436" lon="2.38129">
        <ele>572.7</ele>
        <time>2022-06-14T09:27:09.000Z</time>
      </trkpt>
      <trkpt lat="45.38435" lon="2.38127">
        <ele>572.7</ele>
        <time>2022-06-14T09:27:10.000Z</time>
      </trkpt>
      <trkpt lat="45.38435" lon="2.38125">
        <ele>572.7</ele>
        <time>2022-06-14T09:27:11.000Z</time>
      </trkpt>
      <trkpt lat="45.38434" lon="2.38124">
        <ele>572.7</ele>
        <time>2022-06-14T09:27:12.000Z</time>
      </trkpt>
      <trkpt lat="45.38434" lon="2.38122">
        <ele>572.7</ele>
        <time>2022-06-14T09:27:13.000Z</time>
      </trkpt>
      <trkpt lat="45.38433" lon="2.38121">
        <ele>572.8</ele>
        <time>2022-06-14T09:27:14.000Z</time>
      </trkpt>
      <trkpt lat="45.38433" lon="2.38119">
        <ele>572.8</ele>
        <time>2022-06-14T09:27:15.000Z</time>
      </trkpt>
      <trkpt lat="45.38433" lon="2.38118">
        <ele>572.8</ele>
        <time>2022-06-14T09:27:16.000Z</time>
      </trkpt>
      <trkpt lat="45.38432" lon="2.38117">
        <ele>572.8</ele>
        <time>2022-06-14T09:27:17.000Z</time>
      </trkpt>
      <trkpt lat="45.38431" lon="2.38115">
        <ele>572.8</ele>
        <time>2022-06-14T09:27:18.000Z</time>
      </trkpt>
      <trkpt lat="45.38431" lon="2.38114">
        <ele>572.8</ele>
        <time>2022-06-14T09:27:19.000Z</time>
      </trkpt>
      <trkpt lat="45.3843" lon="2.38112">
        <ele>572.8</ele>
        <time>2022-06-14T09:27:20.000Z</time>
      </trkpt>
      <trkpt lat="45.3843" lon="2.38111">
        <ele>572.8</ele>
        <time>2022-06-14T09:27:21.000Z</time>
      </trkpt>
      <trkpt lat="45.38429" lon="2.38109">
        <ele>572.8</ele>
        <time>2022-06-14T09:27:22.000Z</time>
      </trkpt>
      <trkpt lat="45.38429" lon="2.38108">
        <ele>572.9</ele>
        <time>2022-06-14T09:27:23.000Z</time>
      </trkpt>
      <trkpt lat="45.38428" lon="2.38106">
        <ele>572.9</ele>
        <time>2022-06-14T09:27:24.000Z</time>
      </trkpt>
      <trkpt lat="45.38427" lon="2.38105">
        <ele>572.9</ele>
        <time>2022-06-14T09:27:25.000Z</time>
      </trkpt>
      <trkpt lat="45.38427" lon="2.38103">
        <ele>572.9</ele>
        <time>2022-06-14T09:27:26.000Z</time>
      </trkpt>
      <trkpt lat="45.38426" lon="2.38101">
        <ele>572.9</ele>
        <time>2022-06-14T09:27:27.000Z</time>
      </trkpt>
      <trkpt lat="45.38425" lon="2.381">
        <ele>572.9</ele>
        <time>2022-06-14T09:27:28.000Z</time>
      </trkpt>
      <trkpt lat="45.38425" lon="2.38098">
        <ele>572.9</ele>
        <time>2022-06-14T09:27:29.000Z</time>
      </trkpt>
      <trkpt lat="45.38424" lon="2.38096">
        <ele>572.9</ele>
        <time>2022-06-14T09:27:30.000Z</time>
      </trkpt>
      <trkpt lat="45.38423" lon="2.38095">
        <ele>572.9</ele>
        <time>2022-06-14T09:27:31.000Z</time>
      </trkpt>
      <trkpt lat="45.38422" lon="2.38093">
        <ele>573</ele>
        <time>2022-06-14T09:27:32.000Z</time>
      </trkpt>
      <trkpt lat="45.38422" lon="2.38092">
        <ele>573</ele>
        <time>2022-06-14T09:27:33.000Z</time>
      </trkpt>
      <trkpt lat="45.38421" lon="2.3809">
        <ele>573</ele>
        <time>2022-06-14T09:27:34.000Z</time>
      </trkpt>
      <trkpt lat="45.3842" lon="2.38088">
        <ele>573</ele>
        <time>2022-06-14T09:27:35.000Z</time>
      </trkpt>
      <trkpt lat="45.38419" lon="2.38087">
        <ele>573</ele>
        <time>2022-06-14T09:27:36.000Z</time>
      </trkpt>
      <trkpt lat="45.38419" lon="2.38085">
        <ele>573</ele>
        <time>2022-06-14T09:27:37.000Z</time>
      </trkpt>
      <trkpt lat="45.38418" lon="2.38083">
        <ele>573</ele>
        <time>2022-06-14T09:27:38.000Z</time>
      </trkpt>
      <trkpt lat="45.38417" lon="2.38082">
        <ele>573</ele>
        <time>2022-06-14T09:27:39.000Z</time>
      </trkpt>
      <trkpt lat="45.38416" lon="2.3808">
        <ele>573</ele>
        <time>2022-06-14T09:27:40.000Z</time>
      </trkpt>
      <trkpt lat="45.38416" lon="2.38079">
        <ele>572.9</ele>
        <time>2022-06-14T09:27:41.000Z</time>
      </trkpt>
      <trkpt lat="45.38415" lon="2.38077">
        <ele>572.9</ele>
        <time>2022-06-14T09:27:42.000Z</time>
      </trkpt>
      <trkpt lat="45.38414" lon="2.38075">
        <ele>572.8</ele>
        <time>2022-06-14T09:27:43.000Z</time>
      </trkpt>
      <trkpt lat="45.38413" lon="2.38074">
        <ele>572.8</ele>
        <time>2022-06-14T09:27:44.000Z</time>
      </trkpt>
      <trkpt lat="45.38413" lon="2.38072">
        <ele>572.8</ele>
        <time>2022-06-14T09:27:45.000Z</time>
      </trkpt>
      <trkpt lat="45.38412" lon="2.38071">
        <ele>572.7</ele>
        <time>2022-06-14T09:27:46.000Z</time>
      </trkpt>
      <trkpt lat="45.38411" lon="2.38069">
        <ele>572.7</ele>
        <time>2022-06-14T09:27:47.000Z</time>
      </trkpt>
      <trkpt lat="45.3841" lon="2.38068">
        <ele>572.6</ele>
        <time>2022-06-14T09:27:48.000Z</time>
      </trkpt>
      <trkpt lat="45.3841" lon="2.38066">
        <ele>572.6</ele>
        <time>2022-06-14T09:27:49.000Z</time>
      </trkpt>
      <trkpt lat="45.38409" lon="2.38065">
        <ele>572.5</ele>
        <time>2022-06-14T09:27:50.000Z</time>
      </trkpt>
      <trkpt lat="45.38408" lon="2.38063">
        <ele>572.5</ele>
        <time>2022-06-14T09:27:51.000Z</time>
      </trkpt>
      <trkpt lat="45.38408" lon="2.38061">
        <ele>572.5</ele>
        <time>2022-06-14T09:27:52.000Z</time>
      </trkpt>
      <trkpt lat="45.38407" lon="2.3806">
        <ele>572.4</ele>
        <time>2022-06-14T09:27:53.000Z</time>
      </trkpt>
      <trkpt lat="45.38406" lon="2.38058">
        <ele>572.4</ele>
        <time>2022-06-14T09:27:54.000Z</time>
      </trkpt>
      <trkpt lat="45.38406" lon="2.38057">
        <ele>572.3</ele>
        <time>2022-06-14T09:27:55.000Z</time>
      </trkpt>
      <trkpt lat="45.38405" lon="2.38055">
        <ele>572.3</ele>
        <time>2022-06-14T09:27:56.000Z</time>
      </trkpt>
      <trkpt lat="45.38405" lon="2.38054">
        <ele>572.2</ele>
        <time>2022-06-14T09:27:57.000Z</time>
      </trkpt>
      <trkpt lat="45.38404" lon="2.38052">
        <ele>572.2</ele>
        <time>2022-06-14T09:27:58.000Z</time>
      </trkpt>
      <trkpt lat="45.38403" lon="2.3805">
        <ele>572.2</ele>
        <time>2022-06-14T09:27:59.000Z</time>
      </trkpt>
      <trkpt lat="45.38403" lon="2.38049">
        <ele>572.1</ele>
        <time>2022-06-14T09:28:00.000Z</time>
      </trkpt>
      <trkpt lat="45.38402" lon="2.38047">
        <ele>572.1</ele>
        <time>2022-06-14T09:28:01.000Z</time>
      </trkpt>
      <trkpt lat="45.38402" lon="2.38046">
        <ele>572</ele>
        <time>2022-06-14T09:28:02.000Z</time>
      </trkpt>
      <trkpt lat="45.38401" lon="2.38044">
        <ele>572</ele>
        <time>2022-06-14T09:28:03.000Z</time>
      </trkpt>
      <trkpt lat="45.38401" lon="2.38042">
        <ele>571.9</ele>
        <time>2022-06-14T09:28:04.000Z</time>
      </trkpt>
      <trkpt lat="45.384" lon="2.38041">
        <ele>571.9</ele>
        <time>2022-06-14T09:28:05.000Z</time>
      </trkpt>
      <trkpt lat="45.384" lon="2.38039">
        <ele>571.8</ele>
        <time>2022-06-14T09:28:06.000Z</time>
      </trkpt>
      <trkpt lat="45.38399" lon="2.38038">
        <ele>571.8</ele>
        <time>2022-06-14T09:28:07.000Z</time>
      </trkpt>
      <trkpt lat="45.38399" lon="2.38036">
        <ele>571.8</ele>
        <time>2022-06-14T09:28:08.000Z</time>
      </trkpt>
      <trkpt lat="45.38399" lon="2.38034">
        <ele>571.7</ele>
        <time>2022-06-14T09:28:09.000Z</time>
      </trkpt>
      <trkpt lat="45.38398" lon="2.38033">
        <ele>571.7</ele>
        <time>2022-06-14T09:28:10.000Z</time>
      </trkpt>
      <trkpt lat="45.38398" lon="2.38031">
        <ele>571.6</ele>
        <time>2022-06-14T09:28:11.000Z</time>
      </trkpt>
      <trkpt lat="45.38397" lon="2.38029">
        <ele>571.6</ele>
        <time>2022-06-14T09:28:12.000Z</time>
      </trkpt>
      <trkpt lat="45.38397" lon="2.38027">
        <ele>571.5</ele>
        <time>2022-06-14T09:28:13.000Z</time>
      </trkpt>
      <trkpt lat="45.38397" lon="2.38026">
        <ele>571.5</ele>
        <time>2022-06-14T09:28:14.000Z</time>
      </trkpt>
      <trkpt lat="45.38396" lon="2.38024">
        <ele>571.4</ele>
        <time>2022-06-14T09:28:15.000Z</time>
      </trkpt>
      <trkpt lat="45.38396" lon="2.38022">
        <ele>571.4</ele>
        <time>2022-06-14T09:28:16.000Z</time>
      </trkpt>
      <trkpt lat="45.38395" lon="2.38021">
        <ele>571.3</ele>
        <time>2022-06-14T09:28:17.000Z</time>
      </trkpt>
      <trkpt lat="45.38395" lon="2.38019">
        <ele>571.3</ele>
        <time>2022-06-14T09:28:18.000Z</time>
      </trkpt>
      <trkpt lat="45.38395" lon="2.38017">
        <ele>571.2</ele>
        <time>2022-06-14T09:28:19.000Z</time>
      </trkpt>
      <trkpt lat="45.38394" lon="2.38015">
        <ele>571.2</ele>
        <time>2022-06-14T09:28:20.000Z</time>
      </trkpt>
      <trkpt lat="45.38394" lon="2.38013">
        <ele>571.2</ele>
        <time>2022-06-14T09:28:21.000Z</time>
      </trkpt>
      <trkpt lat="45.38393" lon="2.38012">
        <ele>571.1</ele>
        <time>2022-06-14T09:28:22.000Z</time>
      </trkpt>
      <trkpt lat="45.38393" lon="2.3801">
        <ele>571</ele>
        <time>2022-06-14T09:28:23.000Z</time>
      </trkpt>
      <trkpt lat="45.38393" lon="2.38008">
        <ele>571</ele>
        <time>2022-06-14T09:28:24.000Z</time>
      </trkpt>
      <trkpt lat="45.38392" lon="2.38006">
        <ele>570.9</ele>
        <time>2022-06-14T09:28:25.000Z</time>
      </trkpt>
      <trkpt lat="45.38392" lon="2.38004">
        <ele>570.9</ele>
        <time>2022-06-14T09:28:26.000Z</time>
      </trkpt>
      <trkpt lat="45.38392" lon="2.38003">
        <ele>570.8</ele>
        <time>2022-06-14T09:28:27.000Z</time>
      </trkpt>
      <trkpt lat="45.38391" lon="2.38001">
        <ele>570.8</ele>
        <time>2022-06-14T09:28:28.000Z</time>
      </trkpt>
      <trkpt lat="45.38391" lon="2.37999">
        <ele>570.8</ele>
        <time>2022-06-14T09:28:29.000Z</time>
      </trkpt>
      <trkpt lat="45.38391" lon="2.37997">
        <ele>570.8</ele>
        <time>2022-06-14T09:28:30.000Z</time>
      </trkpt>
      <trkpt lat="45.3839" lon="2.37995">
        <ele>570.8</ele>
        <time>2022-06-14T09:28:31.000Z</time>
      </trkpt>
      <trkpt lat="45.3839" lon="2.37994">
        <ele>570.8</ele>
        <time>2022-06-14T09:28:32.000Z</time>
      </trkpt>
      <trkpt lat="45.3839" lon="2.37992">
        <ele>570.8</ele>
        <time>2022-06-14T09:28:33.000Z</time>
      </trkpt>
      <trkpt lat="45.38389" lon="2.3799">
        <ele>570.8</ele>
        <time>2022-06-14T09:28:34.000Z</time>
      </trkpt>
      <trkpt lat="45.38389" lon="2.37988">
        <ele>570.8</ele>
        <time>2022-06-14T09:28:35.000Z</time>
      </trkpt>
      <trkpt lat="45.38389" lon="2.37986">
        <ele>570.8</ele>
        <time>2022-06-14T09:28:36.000Z</time>
      </trkpt>
      <trkpt lat="45.38388" lon="2.37985">
        <ele>570.8</ele>
        <time>2022-06-14T09:28:37.000Z</time>
      </trkpt>
      <trkpt lat="45.38388" lon="2.37983">
        <ele>570.8</ele>
        <time>2022-06-14T09:28:38.000Z</time>
      </trkpt>
      <trkpt lat="45.38388" lon="2.37981">
        <ele>570.8</ele>
        <time>2022-06-14T09:28:39.000Z</time>
      </trkpt>
      <trkpt lat="45.38388" lon="2.37979">
        <ele>570.9</ele>
        <time>2022-06-14T09:28:40.000Z</time>
      </trkpt>
      <trkpt lat="45.38387" lon="2.37977">
        <ele>570.9</ele>
        <time>2022-06-14T09:28:41.000Z</time>
      </trkpt>
      <trkpt lat="45.38387" lon="2.37976">
        <ele>570.9</ele>
        <time>2022-06-14T09:28:42.000Z</time>
      </trkpt>
      <trkpt lat="45.38387" lon="2.37974">
        <ele>570.9</ele>
        <time>2022-06-14T09:28:43.000Z</time>
      </trkpt>
      <trkpt lat="45.38387" lon="2.37972">
        <ele>570.9</ele>
        <time>2022-06-14T09:28:44.000Z</time>
      </trkpt>
      <trkpt lat="45.38387" lon="2.3797">
        <ele>570.9</ele>
        <time>2022-06-14T09:28:45.000Z</time>
      </trkpt>
      <trkpt lat="45.38387" lon="2.37969">
        <ele>570.9</ele>
        <time>2022-06-14T09:28:46.000Z</time>
      </trkpt>
      <trkpt lat="45.38386" lon="2.37967">
        <ele>570.9</ele>
        <time>2022-06-14T09:28:47.000Z</time>
      </trkpt>
      <trkpt lat="45.38386" lon="2.37965">
        <ele>571</ele>
        <time>2022-06-14T09:28:48.000Z</time>
      </trkpt>
      <trkpt lat="45.38386" lon="2.37963">
        <ele>571</ele>
        <time>2022-06-14T09:28:49.000Z</time>
      </trkpt>
      <trkpt lat="45.38386" lon="2.37962">
        <ele>571</ele>
        <time>2022-06-14T09:28:50.000Z</time>
      </trkpt>
      <trkpt lat="45.38386" lon="2.3796">
        <ele>571</ele>
        <time>2022-06-14T09:28:51.000Z</time>
      </trkpt>
      <trkpt lat="45.38386" lon="2.37958">
        <ele>571</ele>
        <time>2022-06-14T09:28:52.000Z</time>
      </trkpt>
      <trkpt lat="45.38386" lon="2.37957">
        <ele>571</ele>
        <time>2022-06-14T09:28:53.000Z</time>
      </trkpt>
      <trkpt lat="45.38386" lon="2.37955">
        <ele>571.1</ele>
        <time>2022-06-14T09:28:54.000Z</time>
      </trkpt>
      <trkpt lat="45.38386" lon="2.37953">
        <ele>571.1</ele>
        <time>2022-06-14T09:28:55.000Z</time>
      </trkpt>
      <trkpt lat="45.38386" lon="2.37952">
        <ele>571.1</ele>
        <time>2022-06-14T09:28:56.000Z</time>
      </trkpt>
      <trkpt lat="45.38386" lon="2.3795">
        <ele>571.1</ele>
        <time>2022-06-14T09:28:57.000Z</time>
      </trkpt>
      <trkpt lat="45.38386" lon="2.37948">
        <ele>571.2</ele>
        <time>2022-06-14T09:28:58.000Z</time>
      </trkpt>
      <trkpt lat="45.38386" lon="2.37947">
        <ele>571.2</ele>
        <time>2022-06-14T09:28:59.000Z</time>
      </trkpt>
      <trkpt lat="45.38386" lon="2.37945">
        <ele>571.2</ele>
        <time>2022-06-14T09:29:00.000Z</time>
      </trkpt>
      <trkpt lat="45.38386" lon="2.37943">
        <ele>571.2</ele>
        <time>2022-06-14T09:29:01.000Z</time>
      </trkpt>
      <trkpt lat="45.38387" lon="2.37942">
        <ele>571.3</ele>
        <time>2022-06-14T09:29:02.000Z</time>
      </trkpt>
      <trkpt lat="45.38387" lon="2.3794">
        <ele>571.3</ele>
        <time>2022-06-14T09:29:03.000Z</time>
      </trkpt>
      <trkpt lat="45.38387" lon="2.37938">
        <ele>571.3</ele>
        <time>2022-06-14T09:29:04.000Z</time>
      </trkpt>
      <trkpt lat="45.38387" lon="2.37937">
        <ele>571.3</ele>
        <time>2022-06-14T09:29:05.000Z</time>
      </trkpt>
      <trkpt lat="45.38387" lon="2.37935">
        <ele>571.4</ele>
        <time>2022-06-14T09:29:06.000Z</time>
      </trkpt>
      <trkpt lat="45.38387" lon="2.37934">
        <ele>571.4</ele>
        <time>2022-06-14T09:29:07.000Z</time>
      </trkpt>
      <trkpt lat="45.38388" lon="2.37932">
        <ele>571.4</ele>
        <time>2022-06-14T09:29:08.000Z</time>
      </trkpt>
      <trkpt lat="45.38388" lon="2.3793">
        <ele>571.4</ele>
        <time>2022-06-14T09:29:09.000Z</time>
      </trkpt>
      <trkpt lat="45.38388" lon="2.37929">
        <ele>571.5</ele>
        <time>2022-06-14T09:29:10.000Z</time>
      </trkpt>
      <trkpt lat="45.38388" lon="2.37927">
        <ele>571.5</ele>
        <time>2022-06-14T09:29:11.000Z</time>
      </trkpt>
      <trkpt lat="45.38389" lon="2.37925">
        <ele>571.5</ele>
        <time>2022-06-14T09:29:12.000Z</time>
      </trkpt>
      <trkpt lat="45.38389" lon="2.37924">
        <ele>571.6</ele>
        <time>2022-06-14T09:29:13.000Z</time>
      </trkpt>
      <trkpt lat="45.38389" lon="2.37922">
        <ele>571.6</ele>
        <time>2022-06-14T09:29:14.000Z</time>
      </trkpt>
      <trkpt lat="45.38389" lon="2.3792">
        <ele>571.6</ele>
        <time>2022-06-14T09:29:15.000Z</time>
      </trkpt>
      <trkpt lat="45.3839" lon="2.37919">
        <ele>571.7</ele>
        <time>2022-06-14T09:29:16.000Z</time>
      </trkpt>
      <trkpt lat="45.3839" lon="2.37917">
        <ele>571.7</ele>
        <time>2022-06-14T09:29:17.000Z</time>
      </trkpt>
      <trkpt lat="45.3839" lon="2.37915">
        <ele>571.8</ele>
        <time>2022-06-14T09:29:18.000Z</time>
      </trkpt>
      <trkpt lat="45.38391" lon="2.37913">
        <ele>571.8</ele>
        <time>2022-06-14T09:29:19.000Z</time>
      </trkpt>
      <trkpt lat="45.38391" lon="2.37912">
        <ele>571.8</ele>
        <time>2022-06-14T09:29:20.000Z</time>
      </trkpt>
      <trkpt lat="45.38391" lon="2.3791">
        <ele>571.9</ele>
        <time>2022-06-14T09:29:21.000Z</time>
      </trkpt>
      <trkpt lat="45.38392" lon="2.37908">
        <ele>571.9</ele>
        <time>2022-06-14T09:29:22.000Z</time>
      </trkpt>
      <trkpt lat="45.38392" lon="2.37907">
        <ele>571.9</ele>
        <time>2022-06-14T09:29:23.000Z</time>
      </trkpt>
      <trkpt lat="45.38392" lon="2.37905">
        <ele>572</ele>
        <time>2022-06-14T09:29:24.000Z</time>
      </trkpt>
      <trkpt lat="45.38393" lon="2.37903">
        <ele>572</ele>
        <time>2022-06-14T09:29:25.000Z</time>
      </trkpt>
      <trkpt lat="45.38393" lon="2.37902">
        <ele>572</ele>
        <time>2022-06-14T09:29:26.000Z</time>
      </trkpt>
      <trkpt lat="45.38393" lon="2.379">
        <ele>572.1</ele>
        <time>2022-06-14T09:29:27.000Z</time>
      </trkpt>
      <trkpt lat="45.38394" lon="2.37899">
        <ele>572.1</ele>
        <time>2022-06-14T09:29:28.000Z</time>
      </trkpt>
      <trkpt lat="45.38394" lon="2.37897">
        <ele>572.2</ele>
        <time>2022-06-14T09:29:29.000Z</time>
      </trkpt>
      <trkpt lat="45.38395" lon="2.37895">
        <ele>572.2</ele>
        <time>2022-06-14T09:29:30.000Z</time>
      </trkpt>
      <trkpt lat="45.38395" lon="2.37894">
        <ele>572.2</ele>
        <time>2022-06-14T09:29:31.000Z</time>
      </trkpt>
      <trkpt lat="45.38395" lon="2.37892">
        <ele>572.3</ele>
        <time>2022-06-14T09:29:32.000Z</time>
      </trkpt>
      <trkpt lat="45.38396" lon="2.37891">
        <ele>572.3</ele>
        <time>2022-06-14T09:29:33.000Z</time>
      </trkpt>
      <trkpt lat="45.38396" lon="2.37889">
        <ele>572.3</ele>
        <time>2022-06-14T09:29:34.000Z</time>
      </trkpt>
      <trkpt lat="45.38396" lon="2.37888">
        <ele>572.4</ele>
        <time>2022-06-14T09:29:35.000Z</time>
      </trkpt>
      <trkpt lat="45.38396" lon="2.37886">
        <ele>572.4</ele>
        <time>2022-06-14T09:29:36.000Z</time>
      </trkpt>
      <trkpt lat="45.38397" lon="2.37884">
        <ele>572.4</ele>
        <time>2022-06-14T09:29:37.000Z</time>
      </trkpt>
      <trkpt lat="45.38397" lon="2.37883">
        <ele>572.5</ele>
        <time>2022-06-14T09:29:38.000Z</time>
      </trkpt>
      <trkpt lat="45.38397" lon="2.37881">
        <ele>572.5</ele>
        <time>2022-06-14T09:29:39.000Z</time>
      </trkpt>
      <trkpt lat="45.38397" lon="2.3788">
        <ele>572.5</ele>
        <time>2022-06-14T09:29:40.000Z</time>
      </trkpt>
      <trkpt lat="45.38398" lon="2.37878">
        <ele>572.5</ele>
        <time>2022-06-14T09:29:41.000Z</time>
      </trkpt>
      <trkpt lat="45.38398" lon="2.37876">
        <ele>572.6</ele>
        <time>2022-06-14T09:29:42.000Z</time>
      </trkpt>
      <trkpt lat="45.38398" lon="2.37875">
        <ele>572.6</ele>
        <time>2022-06-14T09:29:43.000Z</time>
      </trkpt>
      <trkpt lat="45.38398" lon="2.37873">
        <ele>572.6</ele>
        <time>2022-06-14T09:29:44.000Z</time>
      </trkpt>
      <trkpt lat="45.38398" lon="2.37871">
        <ele>572.7</ele>
        <time>2022-06-14T09:29:45.000Z</time>
      </trkpt>
      <trkpt lat="45.38399" lon="2.3787">
        <ele>572.7</ele>
        <time>2022-06-14T09:29:46.000Z</time>
      </trkpt>
      <trkpt lat="45.38399" lon="2.37868">
        <ele>572.7</ele>
        <time>2022-06-14T09:29:47.000Z</time>
      </trkpt>
      <trkpt lat="45.38399" lon="2.37866">
        <ele>572.7</ele>
        <time>2022-06-14T09:29:48.000Z</time>
      </trkpt>
      <trkpt lat="45.38399" lon="2.37865">
        <ele>572.8</ele>
        <time>2022-06-14T09:29:49.000Z</time>
      </trkpt>
      <trkpt lat="45.38399" lon="2.37863">
        <ele>572.8</ele>
        <time>2022-06-14T09:29:50.000Z</time>
      </trkpt>
      <trkpt lat="45.38399" lon="2.37861">
        <ele>572.8</ele>
        <time>2022-06-14T09:29:51.000Z</time>
      </trkpt>
      <trkpt lat="45.38399" lon="2.37859">
        <ele>572.9</ele>
        <time>2022-06-14T09:29:52.000Z</time>
      </trkpt>
      <trkpt lat="45.384" lon="2.37857">
        <ele>572.9</ele>
        <time>2022-06-14T09:29:53.000Z</time>
      </trkpt>
      <trkpt lat="45.384" lon="2.37856">
        <ele>572.9</ele>
        <time>2022-06-14T09:29:54.000Z</time>
      </trkpt>
      <trkpt lat="45.384" lon="2.37854">
        <ele>572.9</ele>
        <time>2022-06-14T09:29:55.000Z</time>
      </trkpt>
      <trkpt lat="45.384" lon="2.37852">
        <ele>573</ele>
        <time>2022-06-14T09:29:56.000Z</time>
      </trkpt>
      <trkpt lat="45.384" lon="2.3785">
        <ele>573</ele>
        <time>2022-06-14T09:29:57.000Z</time>
      </trkpt>
      <trkpt lat="45.384" lon="2.37848">
        <ele>573</ele>
        <time>2022-06-14T09:29:58.000Z</time>
      </trkpt>
      <trkpt lat="45.384" lon="2.37847">
        <ele>573.1</ele>
        <time>2022-06-14T09:29:59.000Z</time>
      </trkpt>
      <trkpt lat="45.384" lon="2.37845">
        <ele>573.1</ele>
        <time>2022-06-14T09:30:00.000Z</time>
      </trkpt>
      <trkpt lat="45.384" lon="2.37843">
        <ele>573.1</ele>
        <time>2022-06-14T09:30:01.000Z</time>
      </trkpt>
      <trkpt lat="45.384" lon="2.37842">
        <ele>573.1</ele>
        <time>2022-06-14T09:30:02.000Z</time>
      </trkpt>
      <trkpt lat="45.384" lon="2.3784">
        <ele>573.1</ele>
        <time>2022-06-14T09:30:03.000Z</time>
      </trkpt>
      <trkpt lat="45.384" lon="2.37838">
        <ele>573.2</ele>
        <time>2022-06-14T09:30:04.000Z</time>
      </trkpt>
      <trkpt lat="45.38401" lon="2.37836">
        <ele>573.2</ele>
        <time>2022-06-14T09:30:05.000Z</time>
      </trkpt>
      <trkpt lat="45.38401" lon="2.37835">
        <ele>573.2</ele>
        <time>2022-06-14T09:30:06.000Z</time>
      </trkpt>
      <trkpt lat="45.38401" lon="2.37833">
        <ele>573.3</ele>
        <time>2022-06-14T09:30:07.000Z</time>
      </trkpt>
      <trkpt lat="45.38401" lon="2.37831">
        <ele>573.3</ele>
        <time>2022-06-14T09:30:08.000Z</time>
      </trkpt>
      <trkpt lat="45.38401" lon="2.37829">
        <ele>573.4</ele>
        <time>2022-06-14T09:30:09.000Z</time>
      </trkpt>
      <trkpt lat="45.38401" lon="2.37828">
        <ele>573.5</ele>
        <time>2022-06-14T09:30:10.000Z</time>
      </trkpt>
      <trkpt lat="45.38401" lon="2.37826">
        <ele>573.6</ele>
        <time>2022-06-14T09:30:11.000Z</time>
      </trkpt>
      <trkpt lat="45.38401" lon="2.37824">
        <ele>573.7</ele>
        <time>2022-06-14T09:30:12.000Z</time>
      </trkpt>
      <trkpt lat="45.38402" lon="2.37822">
        <ele>573.7</ele>
        <time>2022-06-14T09:30:13.000Z</time>
      </trkpt>
      <trkpt lat="45.38402" lon="2.37821">
        <ele>573.8</ele>
        <time>2022-06-14T09:30:14.000Z</time>
      </trkpt>
      <trkpt lat="45.38402" lon="2.37819">
        <ele>573.9</ele>
        <time>2022-06-14T09:30:15.000Z</time>
      </trkpt>
      <trkpt lat="45.38402" lon="2.37817">
        <ele>574</ele>
        <time>2022-06-14T09:30:16.000Z</time>
      </trkpt>
      <trkpt lat="45.38402" lon="2.37815">
        <ele>574.1</ele>
        <time>2022-06-14T09:30:17.000Z</time>
      </trkpt>
      <trkpt lat="45.38402" lon="2.37814">
        <ele>574.1</ele>
        <time>2022-06-14T09:30:18.000Z</time>
      </trkpt>
      <trkpt lat="45.38402" lon="2.37812">
        <ele>574.2</ele>
        <time>2022-06-14T09:30:19.000Z</time>
      </trkpt>
      <trkpt lat="45.38402" lon="2.3781">
        <ele>574.3</ele>
        <time>2022-06-14T09:30:20.000Z</time>
      </trkpt>
      <trkpt lat="45.38402" lon="2.37808">
        <ele>574.4</ele>
        <time>2022-06-14T09:30:21.000Z</time>
      </trkpt>
      <trkpt lat="45.38402" lon="2.37807">
        <ele>574.5</ele>
        <time>2022-06-14T09:30:22.000Z</time>
      </trkpt>
      <trkpt lat="45.38402" lon="2.37805">
        <ele>574.5</ele>
        <time>2022-06-14T09:30:23.000Z</time>
      </trkpt>
      <trkpt lat="45.38402" lon="2.37803">
        <ele>574.6</ele>
        <time>2022-06-14T09:30:24.000Z</time>
      </trkpt>
      <trkpt lat="45.38402" lon="2.37801">
        <ele>574.7</ele>
        <time>2022-06-14T09:30:25.000Z</time>
      </trkpt>
      <trkpt lat="45.38402" lon="2.37799">
        <ele>574.8</ele>
        <time>2022-06-14T09:30:26.000Z</time>
      </trkpt>
      <trkpt lat="45.38402" lon="2.37798">
        <ele>574.8</ele>
        <time>2022-06-14T09:30:27.000Z</time>
      </trkpt>
      <trkpt lat="45.38402" lon="2.37796">
        <ele>574.9</ele>
        <time>2022-06-14T09:30:28.000Z</time>
      </trkpt>
      <trkpt lat="45.38402" lon="2.37794">
        <ele>575</ele>
        <time>2022-06-14T09:30:29.000Z</time>
      </trkpt>
      <trkpt lat="45.38402" lon="2.37792">
        <ele>575.1</ele>
        <time>2022-06-14T09:30:30.000Z</time>
      </trkpt>
      <trkpt lat="45.38402" lon="2.37791">
        <ele>575.1</ele>
        <time>2022-06-14T09:30:31.000Z</time>
      </trkpt>
      <trkpt lat="45.38402" lon="2.37789">
        <ele>575.2</ele>
        <time>2022-06-14T09:30:32.000Z</time>
      </trkpt>
      <trkpt lat="45.38402" lon="2.37787">
        <ele>575.3</ele>
        <time>2022-06-14T09:30:33.000Z</time>
      </trkpt>
      <trkpt lat="45.38402" lon="2.37786">
        <ele>575.4</ele>
        <time>2022-06-14T09:30:34.000Z</time>
      </trkpt>
      <trkpt lat="45.38403" lon="2.37784">
        <ele>575.5</ele>
        <time>2022-06-14T09:30:35.000Z</time>
      </trkpt>
      <trkpt lat="45.38403" lon="2.37782">
        <ele>575.6</ele>
        <time>2022-06-14T09:30:36.000Z</time>
      </trkpt>
      <trkpt lat="45.38403" lon="2.3778">
        <ele>575.7</ele>
        <time>2022-06-14T09:30:37.000Z</time>
      </trkpt>
      <trkpt lat="45.38403" lon="2.37779">
        <ele>575.8</ele>
        <time>2022-06-14T09:30:38.000Z</time>
      </trkpt>
      <trkpt lat="45.38404" lon="2.37777">
        <ele>575.9</ele>
        <time>2022-06-14T09:30:39.000Z</time>
      </trkpt>
      <trkpt lat="45.38404" lon="2.37775">
        <ele>576</ele>
        <time>2022-06-14T09:30:40.000Z</time>
      </trkpt>
      <trkpt lat="45.38405" lon="2.37774">
        <ele>576.1</ele>
        <time>2022-06-14T09:30:41.000Z</time>
      </trkpt>
      <trkpt lat="45.38405" lon="2.37772">
        <ele>576.2</ele>
        <time>2022-06-14T09:30:42.000Z</time>
      </trkpt>
      <trkpt lat="45.38406" lon="2.37771">
        <ele>576.3</ele>
        <time>2022-06-14T09:30:43.000Z</time>
      </trkpt>
      <trkpt lat="45.38406" lon="2.37769">
        <ele>576.4</ele>
        <time>2022-06-14T09:30:44.000Z</time>
      </trkpt>
      <trkpt lat="45.38407" lon="2.37768">
        <ele>576.5</ele>
        <time>2022-06-14T09:30:45.000Z</time>
      </trkpt>
      <trkpt lat="45.38407" lon="2.37766">
        <ele>576.6</ele>
        <time>2022-06-14T09:30:46.000Z</time>
      </trkpt>
      <trkpt lat="45.38408" lon="2.37765">
        <ele>576.7</ele>
        <time>2022-06-14T09:30:47.000Z</time>
      </trkpt>
      <trkpt lat="45.38409" lon="2.37763">
        <ele>576.8</ele>
        <time>2022-06-14T09:30:48.000Z</time>
      </trkpt>
      <trkpt lat="45.38409" lon="2.37762">
        <ele>576.9</ele>
        <time>2022-06-14T09:30:49.000Z</time>
      </trkpt>
      <trkpt lat="45.3841" lon="2.3776">
        <ele>577</ele>
        <time>2022-06-14T09:30:50.000Z</time>
      </trkpt>
      <trkpt lat="45.38411" lon="2.37759">
        <ele>577.2</ele>
        <time>2022-06-14T09:30:51.000Z</time>
      </trkpt>
      <trkpt lat="45.38412" lon="2.37758">
        <ele>577.3</ele>
        <time>2022-06-14T09:30:52.000Z</time>
      </trkpt>
      <trkpt lat="45.38412" lon="2.37757">
        <ele>577.4</ele>
        <time>2022-06-14T09:30:53.000Z</time>
      </trkpt>
      <trkpt lat="45.38413" lon="2.37755">
        <ele>577.5</ele>
        <time>2022-06-14T09:30:54.000Z</time>
      </trkpt>
      <trkpt lat="45.38414" lon="2.37754">
        <ele>577.6</ele>
        <time>2022-06-14T09:30:55.000Z</time>
      </trkpt>
      <trkpt lat="45.38415" lon="2.37753">
        <ele>577.7</ele>
        <time>2022-06-14T09:30:56.000Z</time>
      </trkpt>
      <trkpt lat="45.38416" lon="2.37752">
        <ele>577.9</ele>
        <time>2022-06-14T09:30:57.000Z</time>
      </trkpt>
      <trkpt lat="45.38417" lon="2.37751">
        <ele>578</ele>
        <time>2022-06-14T09:30:58.000Z</time>
      </trkpt>
      <trkpt lat="45.38418" lon="2.3775">
        <ele>578.1</ele>
        <time>2022-06-14T09:30:59.000Z</time>
      </trkpt>
      <trkpt lat="45.38419" lon="2.37749">
        <ele>578.1</ele>
        <time>2022-06-14T09:31:00.000Z</time>
      </trkpt>
      <trkpt lat="45.3842" lon="2.37749">
        <ele>578.2</ele>
        <time>2022-06-14T09:31:01.000Z</time>
      </trkpt>
      <trkpt lat="45.38421" lon="2.37748">
        <ele>578.2</ele>
        <time>2022-06-14T09:31:02.000Z</time>
      </trkpt>
      <trkpt lat="45.38422" lon="2.37747">
        <ele>578.3</ele>
        <time>2022-06-14T09:31:03.000Z</time>
      </trkpt>
      <trkpt lat="45.38424" lon="2.37746">
        <ele>578.4</ele>
        <time>2022-06-14T09:31:04.000Z</time>
      </trkpt>
      <trkpt lat="45.38425" lon="2.37746">
        <ele>578.4</ele>
        <time>2022-06-14T09:31:05.000Z</time>
      </trkpt>
      <trkpt lat="45.38426" lon="2.37745">
        <ele>578.5</ele>
        <time>2022-06-14T09:31:06.000Z</time>
      </trkpt>
      <trkpt lat="45.38427" lon="2.37744">
        <ele>578.5</ele>
        <time>2022-06-14T09:31:07.000Z</time>
      </trkpt>
      <trkpt lat="45.38428" lon="2.37744">
        <ele>578.6</ele>
        <time>2022-06-14T09:31:08.000Z</time>
      </trkpt>
      <trkpt lat="45.38429" lon="2.37743">
        <ele>578.7</ele>
        <time>2022-06-14T09:31:09.000Z</time>
      </trkpt>
      <trkpt lat="45.3843" lon="2.37742">
        <ele>578.7</ele>
        <time>2022-06-14T09:31:10.000Z</time>
      </trkpt>
      <trkpt lat="45.38431" lon="2.37742">
        <ele>578.8</ele>
        <time>2022-06-14T09:31:11.000Z</time>
      </trkpt>
      <trkpt lat="45.38432" lon="2.37741">
        <ele>578.8</ele>
        <time>2022-06-14T09:31:12.000Z</time>
      </trkpt>
      <trkpt lat="45.38433" lon="2.3774">
        <ele>578.9</ele>
        <time>2022-06-14T09:31:13.000Z</time>
      </trkpt>
      <trkpt lat="45.38434" lon="2.37739">
        <ele>578.9</ele>
        <time>2022-06-14T09:31:14.000Z</time>
      </trkpt>
      <trkpt lat="45.38435" lon="2.37738">
        <ele>578.9</ele>
        <time>2022-06-14T09:31:15.000Z</time>
      </trkpt>
      <trkpt lat="45.38435" lon="2.37736">
        <ele>579</ele>
        <time>2022-06-14T09:31:16.000Z</time>
      </trkpt>
      <trkpt lat="45.38436" lon="2.37735">
        <ele>579</ele>
        <time>2022-06-14T09:31:17.000Z</time>
      </trkpt>
      <trkpt lat="45.38437" lon="2.37734">
        <ele>579.1</ele>
        <time>2022-06-14T09:31:18.000Z</time>
      </trkpt>
      <trkpt lat="45.38437" lon="2.37733">
        <ele>579.1</ele>
        <time>2022-06-14T09:31:19.000Z</time>
      </trkpt>
      <trkpt lat="45.38438" lon="2.37732">
        <ele>579.1</ele>
        <time>2022-06-14T09:31:20.000Z</time>
      </trkpt>
      <trkpt lat="45.38439" lon="2.3773">
        <ele>579.2</ele>
        <time>2022-06-14T09:31:21.000Z</time>
      </trkpt>
      <trkpt lat="45.3844" lon="2.37729">
        <ele>579.2</ele>
        <time>2022-06-14T09:31:22.000Z</time>
      </trkpt>
      <trkpt lat="45.3844" lon="2.37728">
        <ele>579.3</ele>
        <time>2022-06-14T09:31:23.000Z</time>
      </trkpt>
      <trkpt lat="45.38441" lon="2.37727">
        <ele>579.3</ele>
        <time>2022-06-14T09:31:24.000Z</time>
      </trkpt>
      <trkpt lat="45.38442" lon="2.37725">
        <ele>579.3</ele>
        <time>2022-06-14T09:31:25.000Z</time>
      </trkpt>
      <trkpt lat="45.38443" lon="2.37724">
        <ele>579.4</ele>
        <time>2022-06-14T09:31:26.000Z</time>
      </trkpt>
      <trkpt lat="45.38443" lon="2.37722">
        <ele>579.4</ele>
        <time>2022-06-14T09:31:27.000Z</time>
      </trkpt>
      <trkpt lat="45.38444" lon="2.37721">
        <ele>579.4</ele>
        <time>2022-06-14T09:31:28.000Z</time>
      </trkpt>
      <trkpt lat="45.38444" lon="2.37719">
        <ele>579.5</ele>
        <time>2022-06-14T09:31:29.000Z</time>
      </trkpt>
      <trkpt lat="45.38445" lon="2.37717">
        <ele>579.5</ele>
        <time>2022-06-14T09:31:30.000Z</time>
      </trkpt>
      <trkpt lat="45.38445" lon="2.37716">
        <ele>579.5</ele>
        <time>2022-06-14T09:31:31.000Z</time>
      </trkpt>
      <trkpt lat="45.38446" lon="2.37714">
        <ele>579.5</ele>
        <time>2022-06-14T09:31:32.000Z</time>
      </trkpt>
      <trkpt lat="45.38446" lon="2.37712">
        <ele>579.5</ele>
        <time>2022-06-14T09:31:33.000Z</time>
      </trkpt>
      <trkpt lat="45.38446" lon="2.37711">
        <ele>579.6</ele>
        <time>2022-06-14T09:31:34.000Z</time>
      </trkpt>
      <trkpt lat="45.38446" lon="2.37709">
        <ele>579.6</ele>
        <time>2022-06-14T09:31:35.000Z</time>
      </trkpt>
      <trkpt lat="45.38447" lon="2.37708">
        <ele>579.6</ele>
        <time>2022-06-14T09:31:36.000Z</time>
      </trkpt>
      <trkpt lat="45.38447" lon="2.37706">
        <ele>579.6</ele>
        <time>2022-06-14T09:31:37.000Z</time>
      </trkpt>
      <trkpt lat="45.38447" lon="2.37704">
        <ele>579.6</ele>
        <time>2022-06-14T09:31:38.000Z</time>
      </trkpt>
      <trkpt lat="45.38447" lon="2.37703">
        <ele>579.6</ele>
        <time>2022-06-14T09:31:39.000Z</time>
      </trkpt>
      <trkpt lat="45.38447" lon="2.37701">
        <ele>579.6</ele>
        <time>2022-06-14T09:31:40.000Z</time>
      </trkpt>
      <trkpt lat="45.38447" lon="2.377">
        <ele>579.6</ele>
        <time>2022-06-14T09:31:41.000Z</time>
      </trkpt>
      <trkpt lat="45.38447" lon="2.37698">
        <ele>579.6</ele>
        <time>2022-06-14T09:31:42.000Z</time>
      </trkpt>
      <trkpt lat="45.38447" lon="2.37696">
        <ele>579.6</ele>
        <time>2022-06-14T09:31:43.000Z</time>
      </trkpt>
      <trkpt lat="45.38447" lon="2.37695">
        <ele>579.6</ele>
        <time>2022-06-14T09:31:44.000Z</time>
      </trkpt>
      <trkpt lat="45.38447" lon="2.37693">
        <ele>579.7</ele>
        <time>2022-06-14T09:31:45.000Z</time>
      </trkpt>
      <trkpt lat="45.38447" lon="2.37691">
        <ele>579.7</ele>
        <time>2022-06-14T09:31:46.000Z</time>
      </trkpt>
      <trkpt lat="45.38447" lon="2.3769">
        <ele>579.7</ele>
        <time>2022-06-14T09:31:47.000Z</time>
      </trkpt>
      <trkpt lat="45.38447" lon="2.37688">
        <ele>579.7</ele>
        <time>2022-06-14T09:31:48.000Z</time>
      </trkpt>
      <trkpt lat="45.38448" lon="2.37686">
        <ele>579.7</ele>
        <time>2022-06-14T09:31:49.000Z</time>
      </trkpt>
      <trkpt lat="45.38448" lon="2.37685">
        <ele>579.7</ele>
        <time>2022-06-14T09:31:50.000Z</time>
      </trkpt>
      <trkpt lat="45.38448" lon="2.37683">
        <ele>579.7</ele>
        <time>2022-06-14T09:31:51.000Z</time>
      </trkpt>
      <trkpt lat="45.38448" lon="2.37681">
        <ele>579.7</ele>
        <time>2022-06-14T09:31:52.000Z</time>
      </trkpt>
      <trkpt lat="45.38448" lon="2.3768">
        <ele>579.7</ele>
        <time>2022-06-14T09:31:53.000Z</time>
      </trkpt>
      <trkpt lat="45.38448" lon="2.37678">
        <ele>579.7</ele>
        <time>2022-06-14T09:31:54.000Z</time>
      </trkpt>
      <trkpt lat="45.38448" lon="2.37677">
        <ele>579.7</ele>
        <time>2022-06-14T09:31:55.000Z</time>
      </trkpt>
      <trkpt lat="45.38448" lon="2.37675">
        <ele>579.7</ele>
        <time>2022-06-14T09:31:56.000Z</time>
      </trkpt>
      <trkpt lat="45.38448" lon="2.37673">
        <ele>579.7</ele>
        <time>2022-06-14T09:31:57.000Z</time>
      </trkpt>
      <trkpt lat="45.38449" lon="2.37672">
        <ele>579.7</ele>
        <time>2022-06-14T09:31:58.000Z</time>
      </trkpt>
      <trkpt lat="45.38449" lon="2.3767">
        <ele>579.8</ele>
        <time>2022-06-14T09:31:59.000Z</time>
      </trkpt>
      <trkpt lat="45.38449" lon="2.37669">
        <ele>579.8</ele>
        <time>2022-06-14T09:32:00.000Z</time>
      </trkpt>
      <trkpt lat="45.38449" lon="2.37667">
        <ele>579.8</ele>
        <time>2022-06-14T09:32:01.000Z</time>
      </trkpt>
      <trkpt lat="45.38449" lon="2.37665">
        <ele>579.7</ele>
        <time>2022-06-14T09:32:02.000Z</time>
      </trkpt>
      <trkpt lat="45.38449" lon="2.37664">
        <ele>579.7</ele>
        <time>2022-06-14T09:32:03.000Z</time>
      </trkpt>
      <trkpt lat="45.3845" lon="2.37662">
        <ele>579.7</ele>
        <time>2022-06-14T09:32:04.000Z</time>
      </trkpt>
      <trkpt lat="45.3845" lon="2.37661">
        <ele>579.6</ele>
        <time>2022-06-14T09:32:05.000Z</time>
      </trkpt>
      <trkpt lat="45.3845" lon="2.3766">
        <ele>579.6</ele>
        <time>2022-06-14T09:32:06.000Z</time>
      </trkpt>
      <trkpt lat="45.3845" lon="2.37659">
        <ele>579.6</ele>
        <time>2022-06-14T09:32:10.000Z</time>
      </trkpt>
      <trkpt lat="45.3845" lon="2.37658">
        <ele>579.6</ele>
        <time>2022-06-14T09:32:15.000Z</time>
      </trkpt>
      <trkpt lat="45.3845" lon="2.37658">
        <ele>579.6</ele>
        <time>2022-06-14T09:32:16.000Z</time>
      </trkpt>
      <trkpt lat="45.3845" lon="2.37657">
        <ele>579.5</ele>
        <time>2022-06-14T09:33:19.000Z</time>
      </trkpt>
      <trkpt lat="45.3845" lon="2.37656">
        <ele>579.5</ele>
        <time>2022-06-14T09:33:20.000Z</time>
      </trkpt>
      <trkpt lat="45.3845" lon="2.37654">
        <ele>579.4</ele>
        <time>2022-06-14T09:33:21.000Z</time>
      </trkpt>
      <trkpt lat="45.3845" lon="2.37652">
        <ele>579.4</ele>
        <time>2022-06-14T09:33:22.000Z</time>
      </trkpt>
      <trkpt lat="45.3845" lon="2.37651">
        <ele>579.3</ele>
        <time>2022-06-14T09:33:23.000Z</time>
      </trkpt>
      <trkpt lat="45.38449" lon="2.3765">
        <ele>579.3</ele>
        <time>2022-06-14T09:33:24.000Z</time>
      </trkpt>
      <trkpt lat="45.38449" lon="2.37649">
        <ele>579.2</ele>
        <time>2022-06-14T09:33:25.000Z</time>
      </trkpt>
      <trkpt lat="45.38448" lon="2.37648">
        <ele>579.2</ele>
        <time>2022-06-14T09:33:26.000Z</time>
      </trkpt>
      <trkpt lat="45.38448" lon="2.37647">
        <ele>579.2</ele>
        <time>2022-06-14T09:33:27.000Z</time>
      </trkpt>
      <trkpt lat="45.38448" lon="2.37646">
        <ele>579.1</ele>
        <time>2022-06-14T09:33:28.000Z</time>
      </trkpt>
      <trkpt lat="45.38447" lon="2.37646">
        <ele>579.1</ele>
        <time>2022-06-14T09:33:29.000Z</time>
      </trkpt>
      <trkpt lat="45.38447" lon="2.37645">
        <ele>579.1</ele>
        <time>2022-06-14T09:33:32.000Z</time>
      </trkpt>
      <trkpt lat="45.38447" lon="2.37645">
        <ele>579.1</ele>
        <time>2022-06-14T09:33:51.000Z</time>
      </trkpt>
      <trkpt lat="45.38446" lon="2.37644">
        <ele>579</ele>
        <time>2022-06-14T09:33:53.000Z</time>
      </trkpt>
      <trkpt lat="45.38446" lon="2.37643">
        <ele>579</ele>
        <time>2022-06-14T09:33:54.000Z</time>
      </trkpt>
      <trkpt lat="45.38445" lon="2.37642">
        <ele>578.9</ele>
        <time>2022-06-14T09:33:55.000Z</time>
      </trkpt>
      <trkpt lat="45.38445" lon="2.37641">
        <ele>578.8</ele>
        <time>2022-06-14T09:33:56.000Z</time>
      </trkpt>
      <trkpt lat="45.38444" lon="2.37639">
        <ele>578.8</ele>
        <time>2022-06-14T09:33:57.000Z</time>
      </trkpt>
      <trkpt lat="45.38444" lon="2.37638">
        <ele>578.7</ele>
        <time>2022-06-14T09:33:58.000Z</time>
      </trkpt>
      <trkpt lat="45.38444" lon="2.37636">
        <ele>578.6</ele>
        <time>2022-06-14T09:33:59.000Z</time>
      </trkpt>
      <trkpt lat="45.38443" lon="2.37634">
        <ele>578.6</ele>
        <time>2022-06-14T09:34:00.000Z</time>
      </trkpt>
      <trkpt lat="45.38443" lon="2.37632">
        <ele>578.5</ele>
        <time>2022-06-14T09:34:01.000Z</time>
      </trkpt>
      <trkpt lat="45.38443" lon="2.37631">
        <ele>578.4</ele>
        <time>2022-06-14T09:34:02.000Z</time>
      </trkpt>
      <trkpt lat="45.38442" lon="2.37629">
        <ele>578.4</ele>
        <time>2022-06-14T09:34:03.000Z</time>
      </trkpt>
      <trkpt lat="45.38442" lon="2.37627">
        <ele>578.3</ele>
        <time>2022-06-14T09:34:04.000Z</time>
      </trkpt>
      <trkpt lat="45.38442" lon="2.37626">
        <ele>578.2</ele>
        <time>2022-06-14T09:34:05.000Z</time>
      </trkpt>
      <trkpt lat="45.38442" lon="2.37624">
        <ele>578.2</ele>
        <time>2022-06-14T09:34:06.000Z</time>
      </trkpt>
      <trkpt lat="45.38441" lon="2.37622">
        <ele>578.1</ele>
        <time>2022-06-14T09:34:07.000Z</time>
      </trkpt>
      <trkpt lat="45.38441" lon="2.37621">
        <ele>578</ele>
        <time>2022-06-14T09:34:08.000Z</time>
      </trkpt>
      <trkpt lat="45.3844" lon="2.37619">
        <ele>577.9</ele>
        <time>2022-06-14T09:34:09.000Z</time>
      </trkpt>
      <trkpt lat="45.3844" lon="2.37617">
        <ele>577.9</ele>
        <time>2022-06-14T09:34:10.000Z</time>
      </trkpt>
      <trkpt lat="45.3844" lon="2.37616">
        <ele>577.8</ele>
        <time>2022-06-14T09:34:11.000Z</time>
      </trkpt>
      <trkpt lat="45.38439" lon="2.37614">
        <ele>577.7</ele>
        <time>2022-06-14T09:34:12.000Z</time>
      </trkpt>
      <trkpt lat="45.38439" lon="2.37612">
        <ele>577.6</ele>
        <time>2022-06-14T09:34:13.000Z</time>
      </trkpt>
      <trkpt lat="45.38438" lon="2.3761">
        <ele>577.5</ele>
        <time>2022-06-14T09:34:14.000Z</time>
      </trkpt>
      <trkpt lat="45.38438" lon="2.37609">
        <ele>577.4</ele>
        <time>2022-06-14T09:34:15.000Z</time>
      </trkpt>
      <trkpt lat="45.38438" lon="2.37607">
        <ele>577.4</ele>
        <time>2022-06-14T09:34:16.000Z</time>
      </trkpt>
      <trkpt lat="45.38437" lon="2.37605">
        <ele>577.3</ele>
        <time>2022-06-14T09:34:17.000Z</time>
      </trkpt>
      <trkpt lat="45.38437" lon="2.37603">
        <ele>577.2</ele>
        <time>2022-06-14T09:34:18.000Z</time>
      </trkpt>
      <trkpt lat="45.38437" lon="2.37602">
        <ele>577.1</ele>
        <time>2022-06-14T09:34:19.000Z</time>
      </trkpt>
      <trkpt lat="45.38436" lon="2.376">
        <ele>577</ele>
        <time>2022-06-14T09:34:20.000Z</time>
      </trkpt>
      <trkpt lat="45.38436" lon="2.37598">
        <ele>576.9</ele>
        <time>2022-06-14T09:34:21.000Z</time>
      </trkpt>
      <trkpt lat="45.38436" lon="2.37596">
        <ele>576.8</ele>
        <time>2022-06-14T09:34:22.000Z</time>
      </trkpt>
      <trkpt lat="45.38435" lon="2.37595">
        <ele>576.8</ele>
        <time>2022-06-14T09:34:23.000Z</time>
      </trkpt>
      <trkpt lat="45.38435" lon="2.37593">
        <ele>576.7</ele>
        <time>2022-06-14T09:34:24.000Z</time>
      </trkpt>
      <trkpt lat="45.38434" lon="2.37591">
        <ele>576.6</ele>
        <time>2022-06-14T09:34:25.000Z</time>
      </trkpt>
      <trkpt lat="45.38434" lon="2.37589">
        <ele>576.5</ele>
        <time>2022-06-14T09:34:26.000Z</time>
      </trkpt>
      <trkpt lat="45.38434" lon="2.37588">
        <ele>576.4</ele>
        <time>2022-06-14T09:34:27.000Z</time>
      </trkpt>
      <trkpt lat="45.38433" lon="2.37586">
        <ele>576.3</ele>
        <time>2022-06-14T09:34:28.000Z</time>
      </trkpt>
      <trkpt lat="45.38433" lon="2.37584">
        <ele>576.2</ele>
        <time>2022-06-14T09:34:29.000Z</time>
      </trkpt>
      <trkpt lat="45.38432" lon="2.37583">
        <ele>576</ele>
        <time>2022-06-14T09:34:30.000Z</time>
      </trkpt>
      <trkpt lat="45.38431" lon="2.37581">
        <ele>575.9</ele>
        <time>2022-06-14T09:34:31.000Z</time>
      </trkpt>
      <trkpt lat="45.38431" lon="2.37579">
        <ele>575.7</ele>
        <time>2022-06-14T09:34:32.000Z</time>
      </trkpt>
      <trkpt lat="45.3843" lon="2.37578">
        <ele>575.6</ele>
        <time>2022-06-14T09:34:33.000Z</time>
      </trkpt>
      <trkpt lat="45.3843" lon="2.37576">
        <ele>575.4</ele>
        <time>2022-06-14T09:34:34.000Z</time>
      </trkpt>
      <trkpt lat="45.38429" lon="2.37574">
        <ele>575.3</ele>
        <time>2022-06-14T09:34:35.000Z</time>
      </trkpt>
      <trkpt lat="45.38428" lon="2.37573">
        <ele>575.1</ele>
        <time>2022-06-14T09:34:36.000Z</time>
      </trkpt>
      <trkpt lat="45.38428" lon="2.37571">
        <ele>574.9</ele>
        <time>2022-06-14T09:34:37.000Z</time>
      </trkpt>
      <trkpt lat="45.38427" lon="2.3757">
        <ele>574.8</ele>
        <time>2022-06-14T09:34:38.000Z</time>
      </trkpt>
      <trkpt lat="45.38427" lon="2.37568">
        <ele>574.6</ele>
        <time>2022-06-14T09:34:39.000Z</time>
      </trkpt>
      <trkpt lat="45.38426" lon="2.37566">
        <ele>574.5</ele>
        <time>2022-06-14T09:34:40.000Z</time>
      </trkpt>
      <trkpt lat="45.38425" lon="2.37565">
        <ele>574.3</ele>
        <time>2022-06-14T09:34:41.000Z</time>
      </trkpt>
      <trkpt lat="45.38425" lon="2.37563">
        <ele>574.1</ele>
        <time>2022-06-14T09:34:42.000Z</time>
      </trkpt>
      <trkpt lat="45.38424" lon="2.37561">
        <ele>574</ele>
        <time>2022-06-14T09:34:43.000Z</time>
      </trkpt>
      <trkpt lat="45.38424" lon="2.3756">
        <ele>573.8</ele>
        <time>2022-06-14T09:34:44.000Z</time>
      </trkpt>
      <trkpt lat="45.38423" lon="2.37558">
        <ele>573.6</ele>
        <time>2022-06-14T09:34:45.000Z</time>
      </trkpt>
      <trkpt lat="45.38422" lon="2.37556">
        <ele>573.5</ele>
        <time>2022-06-14T09:34:46.000Z</time>
      </trkpt>
      <trkpt lat="45.38422" lon="2.37555">
        <ele>573.3</ele>
        <time>2022-06-14T09:34:47.000Z</time>
      </trkpt>
      <trkpt lat="45.38421" lon="2.37553">
        <ele>573.2</ele>
        <time>2022-06-14T09:34:48.000Z</time>
      </trkpt>
      <trkpt lat="45.38421" lon="2.37552">
        <ele>573</ele>
        <time>2022-06-14T09:34:49.000Z</time>
      </trkpt>
      <trkpt lat="45.3842" lon="2.3755">
        <ele>572.8</ele>
        <time>2022-06-14T09:34:50.000Z</time>
      </trkpt>
      <trkpt lat="45.3842" lon="2.37548">
        <ele>572.7</ele>
        <time>2022-06-14T09:34:51.000Z</time>
      </trkpt>
      <trkpt lat="45.38419" lon="2.37547">
        <ele>572.5</ele>
        <time>2022-06-14T09:34:52.000Z</time>
      </trkpt>
      <trkpt lat="45.38418" lon="2.37545">
        <ele>572.4</ele>
        <time>2022-06-14T09:34:53.000Z</time>
      </trkpt>
      <trkpt lat="45.38418" lon="2.37543">
        <ele>572.2</ele>
        <time>2022-06-14T09:34:54.000Z</time>
      </trkpt>
      <trkpt lat="45.38417" lon="2.37542">
        <ele>572.1</ele>
        <time>2022-06-14T09:34:55.000Z</time>
      </trkpt>
      <trkpt lat="45.38417" lon="2.3754">
        <ele>571.9</ele>
        <time>2022-06-14T09:34:56.000Z</time>
      </trkpt>
      <trkpt lat="45.38416" lon="2.37538">
        <ele>571.7</ele>
        <time>2022-06-14T09:34:57.000Z</time>
      </trkpt>
      <trkpt lat="45.38416" lon="2.37537">
        <ele>571.5</ele>
        <time>2022-06-14T09:34:58.000Z</time>
      </trkpt>
      <trkpt lat="45.38416" lon="2.37535">
        <ele>571.3</ele>
        <time>2022-06-14T09:34:59.000Z</time>
      </trkpt>
      <trkpt lat="45.38415" lon="2.37533">
        <ele>571.1</ele>
        <time>2022-06-14T09:35:00.000Z</time>
      </trkpt>
      <trkpt lat="45.38415" lon="2.37532">
        <ele>570.9</ele>
        <time>2022-06-14T09:35:01.000Z</time>
      </trkpt>
      <trkpt lat="45.38414" lon="2.3753">
        <ele>570.7</ele>
        <time>2022-06-14T09:35:02.000Z</time>
      </trkpt>
      <trkpt lat="45.38414" lon="2.37528">
        <ele>570.5</ele>
        <time>2022-06-14T09:35:03.000Z</time>
      </trkpt>
      <trkpt lat="45.38413" lon="2.37526">
        <ele>570.3</ele>
        <time>2022-06-14T09:35:04.000Z</time>
      </trkpt>
      <trkpt lat="45.38413" lon="2.37525">
        <ele>570.1</ele>
        <time>2022-06-14T09:35:05.000Z</time>
      </trkpt>
      <trkpt lat="45.38413" lon="2.37523">
        <ele>569.9</ele>
        <time>2022-06-14T09:35:06.000Z</time>
      </trkpt>
      <trkpt lat="45.38412" lon="2.37521">
        <ele>569.7</ele>
        <time>2022-06-14T09:35:07.000Z</time>
      </trkpt>
      <trkpt lat="45.38412" lon="2.37519">
        <ele>569.5</ele>
        <time>2022-06-14T09:35:08.000Z</time>
      </trkpt>
      <trkpt lat="45.38411" lon="2.37517">
        <ele>569.3</ele>
        <time>2022-06-14T09:35:09.000Z</time>
      </trkpt>
      <trkpt lat="45.38411" lon="2.37515">
        <ele>569.1</ele>
        <time>2022-06-14T09:35:10.000Z</time>
      </trkpt>
      <trkpt lat="45.38411" lon="2.37514">
        <ele>568.9</ele>
        <time>2022-06-14T09:35:11.000Z</time>
      </trkpt>
      <trkpt lat="45.3841" lon="2.37512">
        <ele>568.7</ele>
        <time>2022-06-14T09:35:12.000Z</time>
      </trkpt>
      <trkpt lat="45.3841" lon="2.3751">
        <ele>568.5</ele>
        <time>2022-06-14T09:35:13.000Z</time>
      </trkpt>
      <trkpt lat="45.3841" lon="2.37508">
        <ele>568.3</ele>
        <time>2022-06-14T09:35:14.000Z</time>
      </trkpt>
      <trkpt lat="45.38409" lon="2.37506">
        <ele>568.1</ele>
        <time>2022-06-14T09:35:15.000Z</time>
      </trkpt>
      <trkpt lat="45.38409" lon="2.37505">
        <ele>567.9</ele>
        <time>2022-06-14T09:35:16.000Z</time>
      </trkpt>
      <trkpt lat="45.38409" lon="2.37503">
        <ele>567.7</ele>
        <time>2022-06-14T09:35:17.000Z</time>
      </trkpt>
      <trkpt lat="45.38408" lon="2.37501">
        <ele>567.5</ele>
        <time>2022-06-14T09:35:18.000Z</time>
      </trkpt>
      <trkpt lat="45.38408" lon="2.375">
        <ele>567.4</ele>
        <time>2022-06-14T09:35:19.000Z</time>
      </trkpt>
      <trkpt lat="45.38408" lon="2.37498">
        <ele>567.2</ele>
        <time>2022-06-14T09:35:20.000Z</time>
      </trkpt>
      <trkpt lat="45.38407" lon="2.37496">
        <ele>567.1</ele>
        <time>2022-06-14T09:35:21.000Z</time>
      </trkpt>
      <trkpt lat="45.38407" lon="2.37495">
        <ele>566.9</ele>
        <time>2022-06-14T09:35:22.000Z</time>
      </trkpt>
      <trkpt lat="45.38407" lon="2.37493">
        <ele>566.8</ele>
        <time>2022-06-14T09:35:23.000Z</time>
      </trkpt>
      <trkpt lat="45.38406" lon="2.37491">
        <ele>566.6</ele>
        <time>2022-06-14T09:35:24.000Z</time>
      </trkpt>
      <trkpt lat="45.38406" lon="2.3749">
        <ele>566.5</ele>
        <time>2022-06-14T09:35:25.000Z</time>
      </trkpt>
      <trkpt lat="45.38406" lon="2.37488">
        <ele>566.3</ele>
        <time>2022-06-14T09:35:26.000Z</time>
      </trkpt>
      <trkpt lat="45.38405" lon="2.37486">
        <ele>566.2</ele>
        <time>2022-06-14T09:35:27.000Z</time>
      </trkpt>
      <trkpt lat="45.38405" lon="2.37485">
        <ele>566.1</ele>
        <time>2022-06-14T09:35:28.000Z</time>
      </trkpt>
      <trkpt lat="45.38405" lon="2.37483">
        <ele>565.9</ele>
        <time>2022-06-14T09:35:29.000Z</time>
      </trkpt>
      <trkpt lat="45.38404" lon="2.37481">
        <ele>565.8</ele>
        <time>2022-06-14T09:35:30.000Z</time>
      </trkpt>
      <trkpt lat="45.38404" lon="2.37479">
        <ele>565.7</ele>
        <time>2022-06-14T09:35:31.000Z</time>
      </trkpt>
      <trkpt lat="45.38404" lon="2.37478">
        <ele>565.5</ele>
        <time>2022-06-14T09:35:32.000Z</time>
      </trkpt>
      <trkpt lat="45.38404" lon="2.37476">
        <ele>565.4</ele>
        <time>2022-06-14T09:35:33.000Z</time>
      </trkpt>
      <trkpt lat="45.38403" lon="2.37474">
        <ele>565.2</ele>
        <time>2022-06-14T09:35:34.000Z</time>
      </trkpt>
      <trkpt lat="45.38403" lon="2.37473">
        <ele>565.1</ele>
        <time>2022-06-14T09:35:35.000Z</time>
      </trkpt>
      <trkpt lat="45.38403" lon="2.37471">
        <ele>564.9</ele>
        <time>2022-06-14T09:35:36.000Z</time>
      </trkpt>
      <trkpt lat="45.38402" lon="2.37469">
        <ele>564.8</ele>
        <time>2022-06-14T09:35:37.000Z</time>
      </trkpt>
      <trkpt lat="45.38402" lon="2.37467">
        <ele>564.7</ele>
        <time>2022-06-14T09:35:38.000Z</time>
      </trkpt>
      <trkpt lat="45.38402" lon="2.37465">
        <ele>564.5</ele>
        <time>2022-06-14T09:35:39.000Z</time>
      </trkpt>
      <trkpt lat="45.38401" lon="2.37464">
        <ele>564.4</ele>
        <time>2022-06-14T09:35:40.000Z</time>
      </trkpt>
      <trkpt lat="45.38401" lon="2.37462">
        <ele>564.2</ele>
        <time>2022-06-14T09:35:41.000Z</time>
      </trkpt>
      <trkpt lat="45.38401" lon="2.3746">
        <ele>564.1</ele>
        <time>2022-06-14T09:35:42.000Z</time>
      </trkpt>
      <trkpt lat="45.384" lon="2.37458">
        <ele>563.9</ele>
        <time>2022-06-14T09:35:43.000Z</time>
      </trkpt>
      <trkpt lat="45.384" lon="2.37456">
        <ele>563.8</ele>
        <time>2022-06-14T09:35:44.000Z</time>
      </trkpt>
      <trkpt lat="45.38399" lon="2.37455">
        <ele>563.6</ele>
        <time>2022-06-14T09:35:45.000Z</time>
      </trkpt>
      <trkpt lat="45.38399" lon="2.37453">
        <ele>563.4</ele>
        <time>2022-06-14T09:35:46.000Z</time>
      </trkpt>
      <trkpt lat="45.38399" lon="2.37451">
        <ele>563.3</ele>
        <time>2022-06-14T09:35:47.000Z</time>
      </trkpt>
      <trkpt lat="45.38398" lon="2.37449">
        <ele>563.1</ele>
        <time>2022-06-14T09:35:48.000Z</time>
      </trkpt>
      <trkpt lat="45.38398" lon="2.37447">
        <ele>563</ele>
        <time>2022-06-14T09:35:49.000Z</time>
      </trkpt>
      <trkpt lat="45.38397" lon="2.37445">
        <ele>562.8</ele>
        <time>2022-06-14T09:35:50.000Z</time>
      </trkpt>
      <trkpt lat="45.38397" lon="2.37443">
        <ele>562.7</ele>
        <time>2022-06-14T09:35:51.000Z</time>
      </trkpt>
      <trkpt lat="45.38397" lon="2.37441">
        <ele>562.5</ele>
        <time>2022-06-14T09:35:52.000Z</time>
      </trkpt>
      <trkpt lat="45.38396" lon="2.37439">
        <ele>562.4</ele>
        <time>2022-06-14T09:35:53.000Z</time>
      </trkpt>
      <trkpt lat="45.38396" lon="2.37438">
        <ele>562.2</ele>
        <time>2022-06-14T09:35:54.000Z</time>
      </trkpt>
      <trkpt lat="45.38395" lon="2.37436">
        <ele>562.1</ele>
        <time>2022-06-14T09:35:55.000Z</time>
      </trkpt>
      <trkpt lat="45.38395" lon="2.37434">
        <ele>562</ele>
        <time>2022-06-14T09:35:56.000Z</time>
      </trkpt>
      <trkpt lat="45.38395" lon="2.37432">
        <ele>561.8</ele>
        <time>2022-06-14T09:35:57.000Z</time>
      </trkpt>
      <trkpt lat="45.38394" lon="2.3743">
        <ele>561.7</ele>
        <time>2022-06-14T09:35:58.000Z</time>
      </trkpt>
      <trkpt lat="45.38394" lon="2.37428">
        <ele>561.5</ele>
        <time>2022-06-14T09:35:59.000Z</time>
      </trkpt>
      <trkpt lat="45.38394" lon="2.37426">
        <ele>561.4</ele>
        <time>2022-06-14T09:36:00.000Z</time>
      </trkpt>
      <trkpt lat="45.38393" lon="2.37424">
        <ele>561.2</ele>
        <time>2022-06-14T09:36:01.000Z</time>
      </trkpt>
      <trkpt lat="45.38393" lon="2.37422">
        <ele>561.1</ele>
        <time>2022-06-14T09:36:02.000Z</time>
      </trkpt>
      <trkpt lat="45.38392" lon="2.3742">
        <ele>560.9</ele>
        <time>2022-06-14T09:36:03.000Z</time>
      </trkpt>
      <trkpt lat="45.38392" lon="2.37418">
        <ele>560.8</ele>
        <time>2022-06-14T09:36:04.000Z</time>
      </trkpt>
      <trkpt lat="45.38391" lon="2.37416">
        <ele>560.6</ele>
        <time>2022-06-14T09:36:05.000Z</time>
      </trkpt>
      <trkpt lat="45.38391" lon="2.37414">
        <ele>560.5</ele>
        <time>2022-06-14T09:36:06.000Z</time>
      </trkpt>
      <trkpt lat="45.3839" lon="2.37413">
        <ele>560.4</ele>
        <time>2022-06-14T09:36:07.000Z</time>
      </trkpt>
      <trkpt lat="45.38389" lon="2.37411">
        <ele>560.2</ele>
        <time>2022-06-14T09:36:08.000Z</time>
      </trkpt>
      <trkpt lat="45.38389" lon="2.37409">
        <ele>560.1</ele>
        <time>2022-06-14T09:36:09.000Z</time>
      </trkpt>
      <trkpt lat="45.38388" lon="2.37407">
        <ele>560</ele>
        <time>2022-06-14T09:36:10.000Z</time>
      </trkpt>
      <trkpt lat="45.38387" lon="2.37406">
        <ele>559.8</ele>
        <time>2022-06-14T09:36:11.000Z</time>
      </trkpt>
      <trkpt lat="45.38386" lon="2.37404">
        <ele>559.6</ele>
        <time>2022-06-14T09:36:12.000Z</time>
      </trkpt>
      <trkpt lat="45.38385" lon="2.37403">
        <ele>559.5</ele>
        <time>2022-06-14T09:36:13.000Z</time>
      </trkpt>
      <trkpt lat="45.38384" lon="2.37401">
        <ele>559.3</ele>
        <time>2022-06-14T09:36:14.000Z</time>
      </trkpt>
      <trkpt lat="45.38383" lon="2.374">
        <ele>559.1</ele>
        <time>2022-06-14T09:36:15.000Z</time>
      </trkpt>
      <trkpt lat="45.38382" lon="2.37398">
        <ele>558.9</ele>
        <time>2022-06-14T09:36:16.000Z</time>
      </trkpt>
      <trkpt lat="45.38381" lon="2.37397">
        <ele>558.8</ele>
        <time>2022-06-14T09:36:17.000Z</time>
      </trkpt>
      <trkpt lat="45.38379" lon="2.37396">
        <ele>558.6</ele>
        <time>2022-06-14T09:36:18.000Z</time>
      </trkpt>
      <trkpt lat="45.38378" lon="2.37394">
        <ele>558.4</ele>
        <time>2022-06-14T09:36:19.000Z</time>
      </trkpt>
      <trkpt lat="45.38377" lon="2.37393">
        <ele>558.2</ele>
        <time>2022-06-14T09:36:20.000Z</time>
      </trkpt>
      <trkpt lat="45.38376" lon="2.37392">
        <ele>558</ele>
        <time>2022-06-14T09:36:21.000Z</time>
      </trkpt>
      <trkpt lat="45.38375" lon="2.37391">
        <ele>557.8</ele>
        <time>2022-06-14T09:36:22.000Z</time>
      </trkpt>
      <trkpt lat="45.38374" lon="2.37389">
        <ele>557.6</ele>
        <time>2022-06-14T09:36:23.000Z</time>
      </trkpt>
      <trkpt lat="45.38372" lon="2.37388">
        <ele>557.5</ele>
        <time>2022-06-14T09:36:24.000Z</time>
      </trkpt>
      <trkpt lat="45.38371" lon="2.37387">
        <ele>557.3</ele>
        <time>2022-06-14T09:36:25.000Z</time>
      </trkpt>
      <trkpt lat="45.3837" lon="2.37386">
        <ele>557.1</ele>
        <time>2022-06-14T09:36:26.000Z</time>
      </trkpt>
      <trkpt lat="45.38369" lon="2.37385">
        <ele>556.9</ele>
        <time>2022-06-14T09:36:27.000Z</time>
      </trkpt>
      <trkpt lat="45.38368" lon="2.37384">
        <ele>556.8</ele>
        <time>2022-06-14T09:36:28.000Z</time>
      </trkpt>
      <trkpt lat="45.38367" lon="2.37383">
        <ele>556.6</ele>
        <time>2022-06-14T09:36:29.000Z</time>
      </trkpt>
      <trkpt lat="45.38366" lon="2.37382">
        <ele>556.4</ele>
        <time>2022-06-14T09:36:30.000Z</time>
      </trkpt>
      <trkpt lat="45.38365" lon="2.37381">
        <ele>556.3</ele>
        <time>2022-06-14T09:36:31.000Z</time>
      </trkpt>
      <trkpt lat="45.38364" lon="2.3738">
        <ele>556.1</ele>
        <time>2022-06-14T09:36:32.000Z</time>
      </trkpt>
      <trkpt lat="45.38362" lon="2.37379">
        <ele>555.9</ele>
        <time>2022-06-14T09:36:33.000Z</time>
      </trkpt>
      <trkpt lat="45.38361" lon="2.37378">
        <ele>555.7</ele>
        <time>2022-06-14T09:36:34.000Z</time>
      </trkpt>
      <trkpt lat="45.3836" lon="2.37377">
        <ele>555.6</ele>
        <time>2022-06-14T09:36:35.000Z</time>
      </trkpt>
      <trkpt lat="45.38359" lon="2.37376">
        <ele>555.4</ele>
        <time>2022-06-14T09:36:36.000Z</time>
      </trkpt>
      <trkpt lat="45.38357" lon="2.37375">
        <ele>555.2</ele>
        <time>2022-06-14T09:36:37.000Z</time>
      </trkpt>
      <trkpt lat="45.38356" lon="2.37374">
        <ele>555</ele>
        <time>2022-06-14T09:36:38.000Z</time>
      </trkpt>
      <trkpt lat="45.38355" lon="2.37374">
        <ele>554.8</ele>
        <time>2022-06-14T09:36:39.000Z</time>
      </trkpt>
      <trkpt lat="45.38354" lon="2.37373">
        <ele>554.6</ele>
        <time>2022-06-14T09:36:40.000Z</time>
      </trkpt>
      <trkpt lat="45.38352" lon="2.37372">
        <ele>554.4</ele>
        <time>2022-06-14T09:36:41.000Z</time>
      </trkpt>
      <trkpt lat="45.38351" lon="2.37371">
        <ele>554.2</ele>
        <time>2022-06-14T09:36:42.000Z</time>
      </trkpt>
      <trkpt lat="45.3835" lon="2.37371">
        <ele>554.1</ele>
        <time>2022-06-14T09:36:43.000Z</time>
      </trkpt>
      <trkpt lat="45.38348" lon="2.3737">
        <ele>553.8</ele>
        <time>2022-06-14T09:36:44.000Z</time>
      </trkpt>
      <trkpt lat="45.38347" lon="2.37369">
        <ele>553.7</ele>
        <time>2022-06-14T09:36:45.000Z</time>
      </trkpt>
      <trkpt lat="45.38346" lon="2.37368">
        <ele>553.5</ele>
        <time>2022-06-14T09:36:46.000Z</time>
      </trkpt>
      <trkpt lat="45.38344" lon="2.37368">
        <ele>553.3</ele>
        <time>2022-06-14T09:36:47.000Z</time>
      </trkpt>
      <trkpt lat="45.38343" lon="2.37367">
        <ele>553.1</ele>
        <time>2022-06-14T09:36:48.000Z</time>
      </trkpt>
      <trkpt lat="45.38342" lon="2.37366">
        <ele>552.9</ele>
        <time>2022-06-14T09:36:49.000Z</time>
      </trkpt>
      <trkpt lat="45.3834" lon="2.37366">
        <ele>552.7</ele>
        <time>2022-06-14T09:36:50.000Z</time>
      </trkpt>
      <trkpt lat="45.38339" lon="2.37365">
        <ele>552.5</ele>
        <time>2022-06-14T09:36:51.000Z</time>
      </trkpt>
      <trkpt lat="45.38338" lon="2.37364">
        <ele>552.3</ele>
        <time>2022-06-14T09:36:52.000Z</time>
      </trkpt>
      <trkpt lat="45.38336" lon="2.37363">
        <ele>552.1</ele>
        <time>2022-06-14T09:36:53.000Z</time>
      </trkpt>
      <trkpt lat="45.38335" lon="2.37363">
        <ele>551.9</ele>
        <time>2022-06-14T09:36:54.000Z</time>
      </trkpt>
      <trkpt lat="45.38334" lon="2.37362">
        <ele>551.7</ele>
        <time>2022-06-14T09:36:55.000Z</time>
      </trkpt>
      <trkpt lat="45.38332" lon="2.37361">
        <ele>551.5</ele>
        <time>2022-06-14T09:36:56.000Z</time>
      </trkpt>
      <trkpt lat="45.38331" lon="2.3736">
        <ele>551.3</ele>
        <time>2022-06-14T09:36:57.000Z</time>
      </trkpt>
      <trkpt lat="45.38329" lon="2.3736">
        <ele>551.1</ele>
        <time>2022-06-14T09:36:58.000Z</time>
      </trkpt>
      <trkpt lat="45.38328" lon="2.37359">
        <ele>550.9</ele>
        <time>2022-06-14T09:36:59.000Z</time>
      </trkpt>
      <trkpt lat="45.38327" lon="2.37358">
        <ele>550.7</ele>
        <time>2022-06-14T09:37:00.000Z</time>
      </trkpt>
      <trkpt lat="45.38325" lon="2.37358">
        <ele>550.5</ele>
        <time>2022-06-14T09:37:01.000Z</time>
      </trkpt>
      <trkpt lat="45.38324" lon="2.37357">
        <ele>550.3</ele>
        <time>2022-06-14T09:37:02.000Z</time>
      </trkpt>
      <trkpt lat="45.38323" lon="2.37356">
        <ele>550.1</ele>
        <time>2022-06-14T09:37:03.000Z</time>
      </trkpt>
      <trkpt lat="45.38321" lon="2.37355">
        <ele>549.9</ele>
        <time>2022-06-14T09:37:04.000Z</time>
      </trkpt>
      <trkpt lat="45.3832" lon="2.37355">
        <ele>549.7</ele>
        <time>2022-06-14T09:37:05.000Z</time>
      </trkpt>
      <trkpt lat="45.38319" lon="2.37354">
        <ele>549.5</ele>
        <time>2022-06-14T09:37:06.000Z</time>
      </trkpt>
      <trkpt lat="45.38318" lon="2.37354">
        <ele>549.4</ele>
        <time>2022-06-14T09:37:07.000Z</time>
      </trkpt>
      <trkpt lat="45.38316" lon="2.37353">
        <ele>549.2</ele>
        <time>2022-06-14T09:37:08.000Z</time>
      </trkpt>
      <trkpt lat="45.38315" lon="2.37352">
        <ele>549</ele>
        <time>2022-06-14T09:37:09.000Z</time>
      </trkpt>
      <trkpt lat="45.38314" lon="2.37352">
        <ele>548.9</ele>
        <time>2022-06-14T09:37:10.000Z</time>
      </trkpt>
      <trkpt lat="45.38313" lon="2.37351">
        <ele>548.7</ele>
        <time>2022-06-14T09:37:11.000Z</time>
      </trkpt>
      <trkpt lat="45.38312" lon="2.3735">
        <ele>548.6</ele>
        <time>2022-06-14T09:37:12.000Z</time>
      </trkpt>
      <trkpt lat="45.38311" lon="2.3735">
        <ele>548.4</ele>
        <time>2022-06-14T09:37:13.000Z</time>
      </trkpt>
      <trkpt lat="45.3831" lon="2.37349">
        <ele>548.3</ele>
        <time>2022-06-14T09:37:14.000Z</time>
      </trkpt>
      <trkpt lat="45.3831" lon="2.37348">
        <ele>548.2</ele>
        <time>2022-06-14T09:37:15.000Z</time>
      </trkpt>
      <trkpt lat="45.38309" lon="2.37346">
        <ele>548.1</ele>
        <time>2022-06-14T09:37:16.000Z</time>
      </trkpt>
      <trkpt lat="45.38309" lon="2.37345">
        <ele>548</ele>
        <time>2022-06-14T09:37:17.000Z</time>
      </trkpt>
      <trkpt lat="45.38308" lon="2.37344">
        <ele>547.9</ele>
        <time>2022-06-14T09:37:18.000Z</time>
      </trkpt>
      <trkpt lat="45.38308" lon="2.37342">
        <ele>547.8</ele>
        <time>2022-06-14T09:37:19.000Z</time>
      </trkpt>
      <trkpt lat="45.38308" lon="2.37341">
        <ele>547.8</ele>
        <time>2022-06-14T09:37:20.000Z</time>
      </trkpt>
      <trkpt lat="45.38308" lon="2.37339">
        <ele>547.8</ele>
        <time>2022-06-14T09:37:21.000Z</time>
      </trkpt>
      <trkpt lat="45.38309" lon="2.37338">
        <ele>547.8</ele>
        <time>2022-06-14T09:37:22.000Z</time>
      </trkpt>
      <trkpt lat="45.38309" lon="2.37336">
        <ele>547.8</ele>
        <time>2022-06-14T09:37:23.000Z</time>
      </trkpt>
      <trkpt lat="45.38309" lon="2.37335">
        <ele>547.9</ele>
        <time>2022-06-14T09:37:24.000Z</time>
      </trkpt>
      <trkpt lat="45.3831" lon="2.37333">
        <ele>547.9</ele>
        <time>2022-06-14T09:37:25.000Z</time>
      </trkpt>
      <trkpt lat="45.3831" lon="2.37332">
        <ele>547.9</ele>
        <time>2022-06-14T09:37:26.000Z</time>
      </trkpt>
      <trkpt lat="45.38311" lon="2.3733">
        <ele>547.9</ele>
        <time>2022-06-14T09:37:27.000Z</time>
      </trkpt>
      <trkpt lat="45.38311" lon="2.37329">
        <ele>547.9</ele>
        <time>2022-06-14T09:37:28.000Z</time>
      </trkpt>
      <trkpt lat="45.38312" lon="2.37328">
        <ele>547.9</ele>
        <time>2022-06-14T09:37:29.000Z</time>
      </trkpt>
      <trkpt lat="45.38312" lon="2.37326">
        <ele>547.9</ele>
        <time>2022-06-14T09:37:30.000Z</time>
      </trkpt>
      <trkpt lat="45.38312" lon="2.37325">
        <ele>547.9</ele>
        <time>2022-06-14T09:37:31.000Z</time>
      </trkpt>
      <trkpt lat="45.38313" lon="2.37324">
        <ele>547.9</ele>
        <time>2022-06-14T09:37:32.000Z</time>
      </trkpt>
      <trkpt lat="45.38313" lon="2.37322">
        <ele>547.9</ele>
        <time>2022-06-14T09:37:33.000Z</time>
      </trkpt>
      <trkpt lat="45.38313" lon="2.37321">
        <ele>547.9</ele>
        <time>2022-06-14T09:37:34.000Z</time>
      </trkpt>
      <trkpt lat="45.38314" lon="2.3732">
        <ele>547.9</ele>
        <time>2022-06-14T09:37:35.000Z</time>
      </trkpt>
      <trkpt lat="45.38314" lon="2.37319">
        <ele>547.9</ele>
        <time>2022-06-14T09:37:36.000Z</time>
      </trkpt>
      <trkpt lat="45.38315" lon="2.37317">
        <ele>547.9</ele>
        <time>2022-06-14T09:37:37.000Z</time>
      </trkpt>
      <trkpt lat="45.38315" lon="2.37316">
        <ele>547.8</ele>
        <time>2022-06-14T09:37:38.000Z</time>
      </trkpt>
      <trkpt lat="45.38315" lon="2.37314">
        <ele>547.8</ele>
        <time>2022-06-14T09:37:39.000Z</time>
      </trkpt>
      <trkpt lat="45.38315" lon="2.37313">
        <ele>547.8</ele>
        <time>2022-06-14T09:37:40.000Z</time>
      </trkpt>
      <trkpt lat="45.38315" lon="2.37312">
        <ele>547.8</ele>
        <time>2022-06-14T09:37:41.000Z</time>
      </trkpt>
      <trkpt lat="45.38315" lon="2.3731">
        <ele>547.7</ele>
        <time>2022-06-14T09:37:42.000Z</time>
      </trkpt>
      <trkpt lat="45.38315" lon="2.37309">
        <ele>547.6</ele>
        <time>2022-06-14T09:37:43.000Z</time>
      </trkpt>
      <trkpt lat="45.38315" lon="2.37307">
        <ele>547.6</ele>
        <time>2022-06-14T09:37:44.000Z</time>
      </trkpt>
      <trkpt lat="45.38315" lon="2.37306">
        <ele>547.5</ele>
        <time>2022-06-14T09:37:45.000Z</time>
      </trkpt>
      <trkpt lat="45.38315" lon="2.37304">
        <ele>547.4</ele>
        <time>2022-06-14T09:37:46.000Z</time>
      </trkpt>
      <trkpt lat="45.38314" lon="2.37303">
        <ele>547.2</ele>
        <time>2022-06-14T09:37:47.000Z</time>
      </trkpt>
      <trkpt lat="45.38314" lon="2.37301">
        <ele>547.1</ele>
        <time>2022-06-14T09:37:48.000Z</time>
      </trkpt>
      <trkpt lat="45.38313" lon="2.37299">
        <ele>546.9</ele>
        <time>2022-06-14T09:37:49.000Z</time>
      </trkpt>
      <trkpt lat="45.38313" lon="2.37297">
        <ele>546.7</ele>
        <time>2022-06-14T09:37:50.000Z</time>
      </trkpt>
      <trkpt lat="45.38312" lon="2.37296">
        <ele>546.5</ele>
        <time>2022-06-14T09:37:51.000Z</time>
      </trkpt>
      <trkpt lat="45.38311" lon="2.37294">
        <ele>546.4</ele>
        <time>2022-06-14T09:37:52.000Z</time>
      </trkpt>
      <trkpt lat="45.3831" lon="2.37292">
        <ele>546.2</ele>
        <time>2022-06-14T09:37:53.000Z</time>
      </trkpt>
      <trkpt lat="45.3831" lon="2.3729">
        <ele>546</ele>
        <time>2022-06-14T09:37:54.000Z</time>
      </trkpt>
      <trkpt lat="45.38309" lon="2.37288">
        <ele>545.8</ele>
        <time>2022-06-14T09:37:55.000Z</time>
      </trkpt>
      <trkpt lat="45.38308" lon="2.37286">
        <ele>545.5</ele>
        <time>2022-06-14T09:37:56.000Z</time>
      </trkpt>
      <trkpt lat="45.38308" lon="2.37284">
        <ele>545.3</ele>
        <time>2022-06-14T09:37:57.000Z</time>
      </trkpt>
      <trkpt lat="45.38307" lon="2.37282">
        <ele>545.1</ele>
        <time>2022-06-14T09:37:58.000Z</time>
      </trkpt>
      <trkpt lat="45.38306" lon="2.3728">
        <ele>544.9</ele>
        <time>2022-06-14T09:37:59.000Z</time>
      </trkpt>
      <trkpt lat="45.38306" lon="2.37279">
        <ele>544.7</ele>
        <time>2022-06-14T09:38:00.000Z</time>
      </trkpt>
      <trkpt lat="45.38305" lon="2.37277">
        <ele>544.6</ele>
        <time>2022-06-14T09:38:01.000Z</time>
      </trkpt>
      <trkpt lat="45.38305" lon="2.37275">
        <ele>544.4</ele>
        <time>2022-06-14T09:38:02.000Z</time>
      </trkpt>
      <trkpt lat="45.38304" lon="2.37273">
        <ele>544.2</ele>
        <time>2022-06-14T09:38:03.000Z</time>
      </trkpt>
      <trkpt lat="45.38304" lon="2.37271">
        <ele>544</ele>
        <time>2022-06-14T09:38:04.000Z</time>
      </trkpt>
      <trkpt lat="45.38303" lon="2.37269">
        <ele>543.8</ele>
        <time>2022-06-14T09:38:05.000Z</time>
      </trkpt>
      <trkpt lat="45.38303" lon="2.37267">
        <ele>543.6</ele>
        <time>2022-06-14T09:38:06.000Z</time>
      </trkpt>
      <trkpt lat="45.38302" lon="2.37266">
        <ele>543.5</ele>
        <time>2022-06-14T09:38:07.000Z</time>
      </trkpt>
      <trkpt lat="45.38302" lon="2.37264">
        <ele>543.3</ele>
        <time>2022-06-14T09:38:08.000Z</time>
      </trkpt>
      <trkpt lat="45.38302" lon="2.37262">
        <ele>543.2</ele>
        <time>2022-06-14T09:38:09.000Z</time>
      </trkpt>
      <trkpt lat="45.38301" lon="2.37261">
        <ele>543</ele>
        <time>2022-06-14T09:38:10.000Z</time>
      </trkpt>
      <trkpt lat="45.38301" lon="2.3726">
        <ele>542.9</ele>
        <time>2022-06-14T09:38:11.000Z</time>
      </trkpt>
      <trkpt lat="45.38301" lon="2.37258">
        <ele>542.7</ele>
        <time>2022-06-14T09:38:12.000Z</time>
      </trkpt>
      <trkpt lat="45.383" lon="2.37257">
        <ele>542.6</ele>
        <time>2022-06-14T09:38:13.000Z</time>
      </trkpt>
      <trkpt lat="45.383" lon="2.37256">
        <ele>542.5</ele>
        <time>2022-06-14T09:38:14.000Z</time>
      </trkpt>
      <trkpt lat="45.383" lon="2.37255">
        <ele>542.4</ele>
        <time>2022-06-14T09:38:15.000Z</time>
      </trkpt>
      <trkpt lat="45.383" lon="2.37254">
        <ele>542.3</ele>
        <time>2022-06-14T09:38:16.000Z</time>
      </trkpt>
      <trkpt lat="45.38299" lon="2.37253">
        <ele>542.2</ele>
        <time>2022-06-14T09:38:17.000Z</time>
      </trkpt>
      <trkpt lat="45.38299" lon="2.37252">
        <ele>542.1</ele>
        <time>2022-06-14T09:38:18.000Z</time>
      </trkpt>
      <trkpt lat="45.38299" lon="2.37251">
        <ele>542</ele>
        <time>2022-06-14T09:38:19.000Z</time>
      </trkpt>
      <trkpt lat="45.38299" lon="2.3725">
        <ele>541.9</ele>
        <time>2022-06-14T09:38:20.000Z</time>
      </trkpt>
      <trkpt lat="45.38299" lon="2.37248">
        <ele>541.7</ele>
        <time>2022-06-14T09:38:21.000Z</time>
      </trkpt>
      <trkpt lat="45.38298" lon="2.37246">
        <ele>541.3</ele>
        <time>2022-06-14T09:38:22.000Z</time>
      </trkpt>
      <trkpt lat="45.38298" lon="2.37244">
        <ele>541</ele>
        <time>2022-06-14T09:38:23.000Z</time>
      </trkpt>
      <trkpt lat="45.38297" lon="2.37242">
        <ele>540.6</ele>
        <time>2022-06-14T09:38:24.000Z</time>
      </trkpt>
      <trkpt lat="45.38297" lon="2.37241">
        <ele>540.4</ele>
        <time>2022-06-14T09:38:25.000Z</time>
      </trkpt>
      <trkpt lat="45.38297" lon="2.3724">
        <ele>540.2</ele>
        <time>2022-06-14T09:38:26.000Z</time>
      </trkpt>
      <trkpt lat="45.38297" lon="2.37239">
        <ele>540.1</ele>
        <time>2022-06-14T09:38:27.000Z</time>
      </trkpt>
      <trkpt lat="45.38296" lon="2.37238">
        <ele>540</ele>
        <time>2022-06-14T09:38:28.000Z</time>
      </trkpt>
      <trkpt lat="45.38296" lon="2.37236">
        <ele>539.7</ele>
        <time>2022-06-14T09:38:29.000Z</time>
      </trkpt>
      <trkpt lat="45.38296" lon="2.37235">
        <ele>539.4</ele>
        <time>2022-06-14T09:38:30.000Z</time>
      </trkpt>
      <trkpt lat="45.38295" lon="2.37233">
        <ele>539.2</ele>
        <time>2022-06-14T09:38:31.000Z</time>
      </trkpt>
      <trkpt lat="45.38295" lon="2.37232">
        <ele>539</ele>
        <time>2022-06-14T09:38:34.000Z</time>
      </trkpt>
      <trkpt lat="45.38295" lon="2.37232">
        <ele>539</ele>
        <time>2022-06-14T09:39:15.000Z</time>
      </trkpt>
      <trkpt lat="45.38296" lon="2.37231">
        <ele>539</ele>
        <time>2022-06-14T09:39:35.000Z</time>
      </trkpt>
      <trkpt lat="45.38297" lon="2.3723">
        <ele>539</ele>
        <time>2022-06-14T09:39:36.000Z</time>
      </trkpt>
      <trkpt lat="45.38298" lon="2.37229">
        <ele>539</ele>
        <time>2022-06-14T09:39:37.000Z</time>
      </trkpt>
      <trkpt lat="45.38298" lon="2.37228">
        <ele>539</ele>
        <time>2022-06-14T09:39:38.000Z</time>
      </trkpt>
      <trkpt lat="45.38299" lon="2.37228">
        <ele>539</ele>
        <time>2022-06-14T09:39:54.000Z</time>
      </trkpt>
      <trkpt lat="45.38299" lon="2.37227">
        <ele>539</ele>
        <time>2022-06-14T09:39:56.000Z</time>
      </trkpt>
      <trkpt lat="45.38299" lon="2.37228">
        <ele>539</ele>
        <time>2022-06-14T09:40:05.000Z</time>
      </trkpt>
      <trkpt lat="45.38299" lon="2.37227">
        <ele>539</ele>
        <time>2022-06-14T09:40:32.000Z</time>
      </trkpt>
      <trkpt lat="45.38298" lon="2.37227">
        <ele>538.9</ele>
        <time>2022-06-14T09:40:33.000Z</time>
      </trkpt>
      <trkpt lat="45.38298" lon="2.37226">
        <ele>538.8</ele>
        <time>2022-06-14T09:40:39.000Z</time>
      </trkpt>
      <trkpt lat="45.38298" lon="2.37225">
        <ele>538.7</ele>
        <time>2022-06-14T09:40:42.000Z</time>
      </trkpt>
      <trkpt lat="45.38299" lon="2.37224">
        <ele>538.5</ele>
        <time>2022-06-14T09:40:44.000Z</time>
      </trkpt>
      <trkpt lat="45.38299" lon="2.37223">
        <ele>538.4</ele>
        <time>2022-06-14T09:40:45.000Z</time>
      </trkpt>
      <trkpt lat="45.38299" lon="2.37222">
        <ele>538.3</ele>
        <time>2022-06-14T09:40:46.000Z</time>
      </trkpt>
      <trkpt lat="45.38299" lon="2.37221">
        <ele>538.2</ele>
        <time>2022-06-14T09:40:47.000Z</time>
      </trkpt>
      <trkpt lat="45.383" lon="2.37219">
        <ele>538.1</ele>
        <time>2022-06-14T09:40:48.000Z</time>
      </trkpt>
      <trkpt lat="45.383" lon="2.37218">
        <ele>538</ele>
        <time>2022-06-14T09:40:49.000Z</time>
      </trkpt>
      <trkpt lat="45.38301" lon="2.37216">
        <ele>537.8</ele>
        <time>2022-06-14T09:40:50.000Z</time>
      </trkpt>
      <trkpt lat="45.38301" lon="2.37214">
        <ele>537.7</ele>
        <time>2022-06-14T09:40:51.000Z</time>
      </trkpt>
      <trkpt lat="45.38302" lon="2.37213">
        <ele>537.5</ele>
        <time>2022-06-14T09:40:52.000Z</time>
      </trkpt>
      <trkpt lat="45.38302" lon="2.37211">
        <ele>537.4</ele>
        <time>2022-06-14T09:40:53.000Z</time>
      </trkpt>
      <trkpt lat="45.38303" lon="2.37209">
        <ele>537.3</ele>
        <time>2022-06-14T09:40:54.000Z</time>
      </trkpt>
      <trkpt lat="45.38304" lon="2.37208">
        <ele>537.2</ele>
        <time>2022-06-14T09:40:55.000Z</time>
      </trkpt>
      <trkpt lat="45.38305" lon="2.37207">
        <ele>537.2</ele>
        <time>2022-06-14T09:40:56.000Z</time>
      </trkpt>
      <trkpt lat="45.38306" lon="2.37206">
        <ele>537.2</ele>
        <time>2022-06-14T09:40:57.000Z</time>
      </trkpt>
      <trkpt lat="45.38307" lon="2.37206">
        <ele>537.3</ele>
        <time>2022-06-14T09:40:58.000Z</time>
      </trkpt>
      <trkpt lat="45.38308" lon="2.37206">
        <ele>537.6</ele>
        <time>2022-06-14T09:40:59.000Z</time>
      </trkpt>
      <trkpt lat="45.3831" lon="2.37206">
        <ele>537.8</ele>
        <time>2022-06-14T09:41:00.000Z</time>
      </trkpt>
      <trkpt lat="45.38311" lon="2.37207">
        <ele>538.1</ele>
        <time>2022-06-14T09:41:01.000Z</time>
      </trkpt>
      <trkpt lat="45.38312" lon="2.37207">
        <ele>538.2</ele>
        <time>2022-06-14T09:41:02.000Z</time>
      </trkpt>
      <trkpt lat="45.38313" lon="2.37206">
        <ele>538.3</ele>
        <time>2022-06-14T09:41:03.000Z</time>
      </trkpt>
      <trkpt lat="45.38314" lon="2.37206">
        <ele>538.4</ele>
        <time>2022-06-14T09:41:04.000Z</time>
      </trkpt>
      <trkpt lat="45.38315" lon="2.37206">
        <ele>538.5</ele>
        <time>2022-06-14T09:41:05.000Z</time>
      </trkpt>
      <trkpt lat="45.38316" lon="2.37205">
        <ele>538.5</ele>
        <time>2022-06-14T09:41:06.000Z</time>
      </trkpt>
      <trkpt lat="45.38317" lon="2.37205">
        <ele>538.6</ele>
        <time>2022-06-14T09:41:07.000Z</time>
      </trkpt>
      <trkpt lat="45.38318" lon="2.37205">
        <ele>538.7</ele>
        <time>2022-06-14T09:41:08.000Z</time>
      </trkpt>
      <trkpt lat="45.38319" lon="2.37204">
        <ele>538.8</ele>
        <time>2022-06-14T09:41:09.000Z</time>
      </trkpt>
      <trkpt lat="45.3832" lon="2.37204">
        <ele>538.9</ele>
        <time>2022-06-14T09:41:10.000Z</time>
      </trkpt>
      <trkpt lat="45.38321" lon="2.37204">
        <ele>539</ele>
        <time>2022-06-14T09:41:11.000Z</time>
      </trkpt>
      <trkpt lat="45.38322" lon="2.37203">
        <ele>539.1</ele>
        <time>2022-06-14T09:41:12.000Z</time>
      </trkpt>
      <trkpt lat="45.38323" lon="2.37203">
        <ele>539.2</ele>
        <time>2022-06-14T09:41:13.000Z</time>
      </trkpt>
      <trkpt lat="45.38325" lon="2.37203">
        <ele>539.3</ele>
        <time>2022-06-14T09:41:14.000Z</time>
      </trkpt>
      <trkpt lat="45.38326" lon="2.37202">
        <ele>539.4</ele>
        <time>2022-06-14T09:41:15.000Z</time>
      </trkpt>
      <trkpt lat="45.38327" lon="2.37202">
        <ele>539.5</ele>
        <time>2022-06-14T09:41:16.000Z</time>
      </trkpt>
      <trkpt lat="45.38328" lon="2.37202">
        <ele>539.6</ele>
        <time>2022-06-14T09:41:17.000Z</time>
      </trkpt>
      <trkpt lat="45.38329" lon="2.37202">
        <ele>539.7</ele>
        <time>2022-06-14T09:41:18.000Z</time>
      </trkpt>
      <trkpt lat="45.38331" lon="2.37201">
        <ele>539.8</ele>
        <time>2022-06-14T09:41:19.000Z</time>
      </trkpt>
      <trkpt lat="45.38332" lon="2.37201">
        <ele>539.9</ele>
        <time>2022-06-14T09:41:20.000Z</time>
      </trkpt>
      <trkpt lat="45.38333" lon="2.37201">
        <ele>540.1</ele>
        <time>2022-06-14T09:41:21.000Z</time>
      </trkpt>
      <trkpt lat="45.38334" lon="2.372">
        <ele>540.1</ele>
        <time>2022-06-14T09:41:22.000Z</time>
      </trkpt>
      <trkpt lat="45.38335" lon="2.372">
        <ele>540.1</ele>
        <time>2022-06-14T09:41:23.000Z</time>
      </trkpt>
      <trkpt lat="45.38337" lon="2.37199">
        <ele>540</ele>
        <time>2022-06-14T09:41:24.000Z</time>
      </trkpt>
      <trkpt lat="45.38338" lon="2.37199">
        <ele>540</ele>
        <time>2022-06-14T09:41:25.000Z</time>
      </trkpt>
      <trkpt lat="45.38339" lon="2.37198">
        <ele>540</ele>
        <time>2022-06-14T09:41:26.000Z</time>
      </trkpt>
      <trkpt lat="45.3834" lon="2.37198">
        <ele>539.9</ele>
        <time>2022-06-14T09:41:27.000Z</time>
      </trkpt>
      <trkpt lat="45.38341" lon="2.37197">
        <ele>539.8</ele>
        <time>2022-06-14T09:41:28.000Z</time>
      </trkpt>
      <trkpt lat="45.38342" lon="2.37196">
        <ele>539.7</ele>
        <time>2022-06-14T09:41:29.000Z</time>
      </trkpt>
      <trkpt lat="45.38343" lon="2.37196">
        <ele>539.6</ele>
        <time>2022-06-14T09:41:30.000Z</time>
      </trkpt>
      <trkpt lat="45.38344" lon="2.37195">
        <ele>539.5</ele>
        <time>2022-06-14T09:41:31.000Z</time>
      </trkpt>
      <trkpt lat="45.38345" lon="2.37194">
        <ele>539.4</ele>
        <time>2022-06-14T09:41:32.000Z</time>
      </trkpt>
      <trkpt lat="45.38346" lon="2.37193">
        <ele>539.3</ele>
        <time>2022-06-14T09:41:33.000Z</time>
      </trkpt>
      <trkpt lat="45.38347" lon="2.37193">
        <ele>539.3</ele>
        <time>2022-06-14T09:41:34.000Z</time>
      </trkpt>
      <trkpt lat="45.38348" lon="2.37192">
        <ele>539.2</ele>
        <time>2022-06-14T09:41:35.000Z</time>
      </trkpt>
      <trkpt lat="45.3835" lon="2.37191">
        <ele>539.1</ele>
        <time>2022-06-14T09:41:36.000Z</time>
      </trkpt>
      <trkpt lat="45.38351" lon="2.37191">
        <ele>539</ele>
        <time>2022-06-14T09:41:37.000Z</time>
      </trkpt>
      <trkpt lat="45.38352" lon="2.3719">
        <ele>538.9</ele>
        <time>2022-06-14T09:41:38.000Z</time>
      </trkpt>
      <trkpt lat="45.38353" lon="2.37189">
        <ele>538.7</ele>
        <time>2022-06-14T09:41:39.000Z</time>
      </trkpt>
      <trkpt lat="45.38355" lon="2.37188">
        <ele>538.6</ele>
        <time>2022-06-14T09:41:40.000Z</time>
      </trkpt>
      <trkpt lat="45.38356" lon="2.37187">
        <ele>538.4</ele>
        <time>2022-06-14T09:41:41.000Z</time>
      </trkpt>
      <trkpt lat="45.38357" lon="2.37186">
        <ele>538.3</ele>
        <time>2022-06-14T09:41:42.000Z</time>
      </trkpt>
      <trkpt lat="45.38358" lon="2.37185">
        <ele>538.1</ele>
        <time>2022-06-14T09:41:43.000Z</time>
      </trkpt>
      <trkpt lat="45.38359" lon="2.37184">
        <ele>537.9</ele>
        <time>2022-06-14T09:41:44.000Z</time>
      </trkpt>
      <trkpt lat="45.3836" lon="2.37183">
        <ele>537.7</ele>
        <time>2022-06-14T09:41:45.000Z</time>
      </trkpt>
      <trkpt lat="45.38361" lon="2.37182">
        <ele>537.6</ele>
        <time>2022-06-14T09:41:46.000Z</time>
      </trkpt>
      <trkpt lat="45.38362" lon="2.37181">
        <ele>537.4</ele>
        <time>2022-06-14T09:41:47.000Z</time>
      </trkpt>
      <trkpt lat="45.38363" lon="2.3718">
        <ele>537.2</ele>
        <time>2022-06-14T09:41:48.000Z</time>
      </trkpt>
      <trkpt lat="45.38364" lon="2.37179">
        <ele>537.1</ele>
        <time>2022-06-14T09:41:49.000Z</time>
      </trkpt>
      <trkpt lat="45.38365" lon="2.37179">
        <ele>537</ele>
        <time>2022-06-14T09:41:50.000Z</time>
      </trkpt>
      <trkpt lat="45.38367" lon="2.37178">
        <ele>536.8</ele>
        <time>2022-06-14T09:41:51.000Z</time>
      </trkpt>
      <trkpt lat="45.38368" lon="2.37177">
        <ele>536.7</ele>
        <time>2022-06-14T09:41:52.000Z</time>
      </trkpt>
      <trkpt lat="45.38369" lon="2.37177">
        <ele>536.6</ele>
        <time>2022-06-14T09:41:53.000Z</time>
      </trkpt>
      <trkpt lat="45.3837" lon="2.37176">
        <ele>536.5</ele>
        <time>2022-06-14T09:41:54.000Z</time>
      </trkpt>
      <trkpt lat="45.38371" lon="2.37176">
        <ele>536.5</ele>
        <time>2022-06-14T09:41:55.000Z</time>
      </trkpt>
      <trkpt lat="45.38372" lon="2.37176">
        <ele>536.5</ele>
        <time>2022-06-14T09:41:56.000Z</time>
      </trkpt>
      <trkpt lat="45.38373" lon="2.37176">
        <ele>536.5</ele>
        <time>2022-06-14T09:41:57.000Z</time>
      </trkpt>
      <trkpt lat="45.38374" lon="2.37175">
        <ele>536.5</ele>
        <time>2022-06-14T09:41:58.000Z</time>
      </trkpt>
      <trkpt lat="45.38375" lon="2.37175">
        <ele>536.5</ele>
        <time>2022-06-14T09:41:59.000Z</time>
      </trkpt>
      <trkpt lat="45.38376" lon="2.37175">
        <ele>536.5</ele>
        <time>2022-06-14T09:42:00.000Z</time>
      </trkpt>
      <trkpt lat="45.38378" lon="2.37175">
        <ele>536.5</ele>
        <time>2022-06-14T09:42:01.000Z</time>
      </trkpt>
      <trkpt lat="45.38379" lon="2.37175">
        <ele>536.5</ele>
        <time>2022-06-14T09:42:02.000Z</time>
      </trkpt>
      <trkpt lat="45.3838" lon="2.37175">
        <ele>536.5</ele>
        <time>2022-06-14T09:42:03.000Z</time>
      </trkpt>
      <trkpt lat="45.38381" lon="2.37175">
        <ele>536.5</ele>
        <time>2022-06-14T09:42:04.000Z</time>
      </trkpt>
      <trkpt lat="45.38382" lon="2.37174">
        <ele>536.4</ele>
        <time>2022-06-14T09:42:05.000Z</time>
      </trkpt>
      <trkpt lat="45.38384" lon="2.37174">
        <ele>536.4</ele>
        <time>2022-06-14T09:42:06.000Z</time>
      </trkpt>
      <trkpt lat="45.38385" lon="2.37174">
        <ele>536.3</ele>
        <time>2022-06-14T09:42:07.000Z</time>
      </trkpt>
      <trkpt lat="45.38386" lon="2.37173">
        <ele>536.2</ele>
        <time>2022-06-14T09:42:08.000Z</time>
      </trkpt>
      <trkpt lat="45.38388" lon="2.37172">
        <ele>536</ele>
        <time>2022-06-14T09:42:09.000Z</time>
      </trkpt>
      <trkpt lat="45.38389" lon="2.37172">
        <ele>535.9</ele>
        <time>2022-06-14T09:42:10.000Z</time>
      </trkpt>
      <trkpt lat="45.38391" lon="2.37171">
        <ele>535.8</ele>
        <time>2022-06-14T09:42:11.000Z</time>
      </trkpt>
      <trkpt lat="45.38392" lon="2.3717">
        <ele>535.6</ele>
        <time>2022-06-14T09:42:12.000Z</time>
      </trkpt>
      <trkpt lat="45.38394" lon="2.3717">
        <ele>535.5</ele>
        <time>2022-06-14T09:42:13.000Z</time>
      </trkpt>
      <trkpt lat="45.38396" lon="2.37169">
        <ele>535.4</ele>
        <time>2022-06-14T09:42:14.000Z</time>
      </trkpt>
      <trkpt lat="45.38397" lon="2.37169">
        <ele>535.3</ele>
        <time>2022-06-14T09:42:15.000Z</time>
      </trkpt>
      <trkpt lat="45.38399" lon="2.37168">
        <ele>535.2</ele>
        <time>2022-06-14T09:42:16.000Z</time>
      </trkpt>
      <trkpt lat="45.384" lon="2.37168">
        <ele>535.2</ele>
        <time>2022-06-14T09:42:17.000Z</time>
      </trkpt>
      <trkpt lat="45.38402" lon="2.37168">
        <ele>535.2</ele>
        <time>2022-06-14T09:42:18.000Z</time>
      </trkpt>
      <trkpt lat="45.38403" lon="2.37168">
        <ele>535.2</ele>
        <time>2022-06-14T09:42:19.000Z</time>
      </trkpt>
      <trkpt lat="45.38404" lon="2.37168">
        <ele>535.2</ele>
        <time>2022-06-14T09:42:20.000Z</time>
      </trkpt>
      <trkpt lat="45.38405" lon="2.37168">
        <ele>535.2</ele>
        <time>2022-06-14T09:42:21.000Z</time>
      </trkpt>
      <trkpt lat="45.38406" lon="2.37169">
        <ele>535.4</ele>
        <time>2022-06-14T09:42:23.000Z</time>
      </trkpt>
      <trkpt lat="45.38407" lon="2.37169">
        <ele>535.5</ele>
        <time>2022-06-14T09:42:25.000Z</time>
      </trkpt>
      <trkpt lat="45.38407" lon="2.3717">
        <ele>535.6</ele>
        <time>2022-06-14T09:42:26.000Z</time>
      </trkpt>
      <trkpt lat="45.38408" lon="2.3717">
        <ele>535.7</ele>
        <time>2022-06-14T09:42:27.000Z</time>
      </trkpt>
      <trkpt lat="45.38409" lon="2.37171">
        <ele>535.9</ele>
        <time>2022-06-14T09:42:29.000Z</time>
      </trkpt>
      <trkpt lat="45.3841" lon="2.37171">
        <ele>536.1</ele>
        <time>2022-06-14T09:42:31.000Z</time>
      </trkpt>
      <trkpt lat="45.3841" lon="2.37172">
        <ele>536.2</ele>
        <time>2022-06-14T09:42:32.000Z</time>
      </trkpt>
      <trkpt lat="45.38411" lon="2.37172">
        <ele>536.4</ele>
        <time>2022-06-14T09:42:35.000Z</time>
      </trkpt>
      <trkpt lat="45.38411" lon="2.37173">
        <ele>536.5</ele>
        <time>2022-06-14T09:42:37.000Z</time>
      </trkpt>
      <trkpt lat="45.38411" lon="2.37174">
        <ele>536.9</ele>
        <time>2022-06-14T09:42:43.000Z</time>
      </trkpt>
      <trkpt lat="45.38412" lon="2.37175">
        <ele>537.2</ele>
        <time>2022-06-14T09:42:45.000Z</time>
      </trkpt>
      <trkpt lat="45.38413" lon="2.37176">
        <ele>537.5</ele>
        <time>2022-06-14T09:42:46.000Z</time>
      </trkpt>
      <trkpt lat="45.38413" lon="2.37177">
        <ele>537.7</ele>
        <time>2022-06-14T09:42:47.000Z</time>
      </trkpt>
      <trkpt lat="45.38414" lon="2.37178">
        <ele>537.9</ele>
        <time>2022-06-14T09:42:48.000Z</time>
      </trkpt>
      <trkpt lat="45.38415" lon="2.37178">
        <ele>538.2</ele>
        <time>2022-06-14T09:42:49.000Z</time>
      </trkpt>
      <trkpt lat="45.38416" lon="2.37179">
        <ele>538.4</ele>
        <time>2022-06-14T09:42:50.000Z</time>
      </trkpt>
      <trkpt lat="45.38417" lon="2.3718">
        <ele>538.5</ele>
        <time>2022-06-14T09:42:51.000Z</time>
      </trkpt>
      <trkpt lat="45.38418" lon="2.3718">
        <ele>538.5</ele>
        <time>2022-06-14T09:42:52.000Z</time>
      </trkpt>
      <trkpt lat="45.38419" lon="2.37181">
        <ele>538.5</ele>
        <time>2022-06-14T09:42:53.000Z</time>
      </trkpt>
      <trkpt lat="45.3842" lon="2.37182">
        <ele>538.4</ele>
        <time>2022-06-14T09:42:55.000Z</time>
      </trkpt>
      <trkpt lat="45.38421" lon="2.37182">
        <ele>538.4</ele>
        <time>2022-06-14T09:42:56.000Z</time>
      </trkpt>
      <trkpt lat="45.38422" lon="2.37183">
        <ele>538.4</ele>
        <time>2022-06-14T09:42:57.000Z</time>
      </trkpt>
      <trkpt lat="45.38423" lon="2.37184">
        <ele>538.5</ele>
        <time>2022-06-14T09:42:59.000Z</time>
      </trkpt>
      <trkpt lat="45.38424" lon="2.37185">
        <ele>538.6</ele>
        <time>2022-06-14T09:43:00.000Z</time>
      </trkpt>
      <trkpt lat="45.38425" lon="2.37185">
        <ele>538.6</ele>
        <time>2022-06-14T09:43:01.000Z</time>
      </trkpt>
      <trkpt lat="45.38425" lon="2.37186">
        <ele>538.7</ele>
        <time>2022-06-14T09:43:02.000Z</time>
      </trkpt>
      <trkpt lat="45.38426" lon="2.37187">
        <ele>538.8</ele>
        <time>2022-06-14T09:43:03.000Z</time>
      </trkpt>
      <trkpt lat="45.38427" lon="2.37188">
        <ele>538.8</ele>
        <time>2022-06-14T09:43:04.000Z</time>
      </trkpt>
      <trkpt lat="45.38428" lon="2.37188">
        <ele>538.9</ele>
        <time>2022-06-14T09:43:05.000Z</time>
      </trkpt>
      <trkpt lat="45.38429" lon="2.37189">
        <ele>539</ele>
        <time>2022-06-14T09:43:06.000Z</time>
      </trkpt>
      <trkpt lat="45.38429" lon="2.3719">
        <ele>539</ele>
        <time>2022-06-14T09:43:07.000Z</time>
      </trkpt>
      <trkpt lat="45.3843" lon="2.37191">
        <ele>539.1</ele>
        <time>2022-06-14T09:43:08.000Z</time>
      </trkpt>
      <trkpt lat="45.38431" lon="2.37191">
        <ele>539.1</ele>
        <time>2022-06-14T09:43:09.000Z</time>
      </trkpt>
      <trkpt lat="45.38432" lon="2.37192">
        <ele>539.2</ele>
        <time>2022-06-14T09:43:10.000Z</time>
      </trkpt>
      <trkpt lat="45.38433" lon="2.37192">
        <ele>539.2</ele>
        <time>2022-06-14T09:43:11.000Z</time>
      </trkpt>
      <trkpt lat="45.38433" lon="2.37193">
        <ele>539.2</ele>
        <time>2022-06-14T09:43:12.000Z</time>
      </trkpt>
      <trkpt lat="45.38434" lon="2.37193">
        <ele>539.2</ele>
        <time>2022-06-14T09:43:13.000Z</time>
      </trkpt>
      <trkpt lat="45.38435" lon="2.37194">
        <ele>539.2</ele>
        <time>2022-06-14T09:43:14.000Z</time>
      </trkpt>
      <trkpt lat="45.38436" lon="2.37194">
        <ele>539.2</ele>
        <time>2022-06-14T09:43:15.000Z</time>
      </trkpt>
      <trkpt lat="45.38437" lon="2.37194">
        <ele>539.1</ele>
        <time>2022-06-14T09:43:16.000Z</time>
      </trkpt>
      <trkpt lat="45.38437" lon="2.37195">
        <ele>539.1</ele>
        <time>2022-06-14T09:43:17.000Z</time>
      </trkpt>
      <trkpt lat="45.38438" lon="2.37195">
        <ele>539.1</ele>
        <time>2022-06-14T09:43:18.000Z</time>
      </trkpt>
      <trkpt lat="45.38439" lon="2.37196">
        <ele>539.1</ele>
        <time>2022-06-14T09:43:19.000Z</time>
      </trkpt>
      <trkpt lat="45.3844" lon="2.37196">
        <ele>539.1</ele>
        <time>2022-06-14T09:43:20.000Z</time>
      </trkpt>
      <trkpt lat="45.3844" lon="2.37197">
        <ele>539.1</ele>
        <time>2022-06-14T09:43:21.000Z</time>
      </trkpt>
      <trkpt lat="45.38441" lon="2.37197">
        <ele>539.2</ele>
        <time>2022-06-14T09:43:22.000Z</time>
      </trkpt>
      <trkpt lat="45.38442" lon="2.37198">
        <ele>539.2</ele>
        <time>2022-06-14T09:43:23.000Z</time>
      </trkpt>
      <trkpt lat="45.38443" lon="2.37198">
        <ele>539.3</ele>
        <time>2022-06-14T09:43:24.000Z</time>
      </trkpt>
      <trkpt lat="45.38444" lon="2.37199">
        <ele>539.4</ele>
        <time>2022-06-14T09:43:25.000Z</time>
      </trkpt>
      <trkpt lat="45.38444" lon="2.372">
        <ele>539.5</ele>
        <time>2022-06-14T09:43:26.000Z</time>
      </trkpt>
      <trkpt lat="45.38445" lon="2.372">
        <ele>539.6</ele>
        <time>2022-06-14T09:43:27.000Z</time>
      </trkpt>
      <trkpt lat="45.38446" lon="2.37201">
        <ele>539.8</ele>
        <time>2022-06-14T09:43:28.000Z</time>
      </trkpt>
      <trkpt lat="45.38446" lon="2.37202">
        <ele>540</ele>
        <time>2022-06-14T09:43:29.000Z</time>
      </trkpt>
      <trkpt lat="45.38447" lon="2.37203">
        <ele>540.2</ele>
        <time>2022-06-14T09:43:30.000Z</time>
      </trkpt>
      <trkpt lat="45.38447" lon="2.37204">
        <ele>540.4</ele>
        <time>2022-06-14T09:43:31.000Z</time>
      </trkpt>
      <trkpt lat="45.38448" lon="2.37205">
        <ele>540.7</ele>
        <time>2022-06-14T09:43:32.000Z</time>
      </trkpt>
      <trkpt lat="45.38448" lon="2.37206">
        <ele>540.9</ele>
        <time>2022-06-14T09:43:33.000Z</time>
      </trkpt>
      <trkpt lat="45.38448" lon="2.37207">
        <ele>541.1</ele>
        <time>2022-06-14T09:43:35.000Z</time>
      </trkpt>
      <trkpt lat="45.38449" lon="2.37207">
        <ele>541.3</ele>
        <time>2022-06-14T09:43:36.000Z</time>
      </trkpt>
      <trkpt lat="45.38449" lon="2.37208">
        <ele>541.4</ele>
        <time>2022-06-14T09:43:37.000Z</time>
      </trkpt>
      <trkpt lat="45.3845" lon="2.37209">
        <ele>541.7</ele>
        <time>2022-06-14T09:43:38.000Z</time>
      </trkpt>
      <trkpt lat="45.3845" lon="2.3721">
        <ele>541.9</ele>
        <time>2022-06-14T09:43:39.000Z</time>
      </trkpt>
      <trkpt lat="45.38451" lon="2.37211">
        <ele>542.2</ele>
        <time>2022-06-14T09:43:40.000Z</time>
      </trkpt>
      <trkpt lat="45.38451" lon="2.37212">
        <ele>542.5</ele>
        <time>2022-06-14T09:43:41.000Z</time>
      </trkpt>
      <trkpt lat="45.38452" lon="2.37213">
        <ele>542.7</ele>
        <time>2022-06-14T09:43:42.000Z</time>
      </trkpt>
      <trkpt lat="45.38453" lon="2.37213">
        <ele>542.8</ele>
        <time>2022-06-14T09:43:43.000Z</time>
      </trkpt>
      <trkpt lat="45.38454" lon="2.37214">
        <ele>543</ele>
        <time>2022-06-14T09:43:44.000Z</time>
      </trkpt>
      <trkpt lat="45.38455" lon="2.37215">
        <ele>543.1</ele>
        <time>2022-06-14T09:43:45.000Z</time>
      </trkpt>
      <trkpt lat="45.38455" lon="2.37216">
        <ele>543.2</ele>
        <time>2022-06-14T09:43:46.000Z</time>
      </trkpt>
      <trkpt lat="45.38456" lon="2.37216">
        <ele>543.4</ele>
        <time>2022-06-14T09:43:47.000Z</time>
      </trkpt>
      <trkpt lat="45.38456" lon="2.37217">
        <ele>543.6</ele>
        <time>2022-06-14T09:43:48.000Z</time>
      </trkpt>
      <trkpt lat="45.38457" lon="2.37218">
        <ele>543.8</ele>
        <time>2022-06-14T09:43:49.000Z</time>
      </trkpt>
      <trkpt lat="45.38457" lon="2.37219">
        <ele>544</ele>
        <time>2022-06-14T09:43:50.000Z</time>
      </trkpt>
      <trkpt lat="45.38458" lon="2.3722">
        <ele>544.2</ele>
        <time>2022-06-14T09:43:51.000Z</time>
      </trkpt>
      <trkpt lat="45.38459" lon="2.37221">
        <ele>544.5</ele>
        <time>2022-06-14T09:43:52.000Z</time>
      </trkpt>
      <trkpt lat="45.3846" lon="2.37222">
        <ele>544.8</ele>
        <time>2022-06-14T09:43:53.000Z</time>
      </trkpt>
      <trkpt lat="45.38461" lon="2.37223">
        <ele>545.2</ele>
        <time>2022-06-14T09:43:54.000Z</time>
      </trkpt>
      <trkpt lat="45.38462" lon="2.37224">
        <ele>545.5</ele>
        <time>2022-06-14T09:43:55.000Z</time>
      </trkpt>
      <trkpt lat="45.38463" lon="2.37226">
        <ele>545.9</ele>
        <time>2022-06-14T09:43:56.000Z</time>
      </trkpt>
      <trkpt lat="45.38464" lon="2.37227">
        <ele>546.3</ele>
        <time>2022-06-14T09:43:57.000Z</time>
      </trkpt>
      <trkpt lat="45.38465" lon="2.37229">
        <ele>546.7</ele>
        <time>2022-06-14T09:43:58.000Z</time>
      </trkpt>
      <trkpt lat="45.38466" lon="2.3723">
        <ele>547</ele>
        <time>2022-06-14T09:43:59.000Z</time>
      </trkpt>
      <trkpt lat="45.38467" lon="2.37231">
        <ele>547.3</ele>
        <time>2022-06-14T09:44:00.000Z</time>
      </trkpt>
      <trkpt lat="45.38468" lon="2.37232">
        <ele>547.7</ele>
        <time>2022-06-14T09:44:01.000Z</time>
      </trkpt>
      <trkpt lat="45.38469" lon="2.37233">
        <ele>548</ele>
        <time>2022-06-14T09:44:02.000Z</time>
      </trkpt>
      <trkpt lat="45.3847" lon="2.37234">
        <ele>548.3</ele>
        <time>2022-06-14T09:44:03.000Z</time>
      </trkpt>
      <trkpt lat="45.38471" lon="2.37236">
        <ele>548.6</ele>
        <time>2022-06-14T09:44:04.000Z</time>
      </trkpt>
      <trkpt lat="45.38472" lon="2.37237">
        <ele>548.9</ele>
        <time>2022-06-14T09:44:05.000Z</time>
      </trkpt>
      <trkpt lat="45.38473" lon="2.37238">
        <ele>549.1</ele>
        <time>2022-06-14T09:44:06.000Z</time>
      </trkpt>
      <trkpt lat="45.38474" lon="2.37239">
        <ele>549.4</ele>
        <time>2022-06-14T09:44:07.000Z</time>
      </trkpt>
      <trkpt lat="45.38475" lon="2.3724">
        <ele>549.7</ele>
        <time>2022-06-14T09:44:08.000Z</time>
      </trkpt>
      <trkpt lat="45.38476" lon="2.37241">
        <ele>550</ele>
        <time>2022-06-14T09:44:09.000Z</time>
      </trkpt>
      <trkpt lat="45.38477" lon="2.37241">
        <ele>550.3</ele>
        <time>2022-06-14T09:44:10.000Z</time>
      </trkpt>
      <trkpt lat="45.38478" lon="2.37242">
        <ele>550.6</ele>
        <time>2022-06-14T09:44:11.000Z</time>
      </trkpt>
      <trkpt lat="45.38479" lon="2.37243">
        <ele>550.9</ele>
        <time>2022-06-14T09:44:12.000Z</time>
      </trkpt>
      <trkpt lat="45.3848" lon="2.37244">
        <ele>551.2</ele>
        <time>2022-06-14T09:44:13.000Z</time>
      </trkpt>
      <trkpt lat="45.38481" lon="2.37245">
        <ele>551.5</ele>
        <time>2022-06-14T09:44:14.000Z</time>
      </trkpt>
      <trkpt lat="45.38482" lon="2.37246">
        <ele>551.7</ele>
        <time>2022-06-14T09:44:15.000Z</time>
      </trkpt>
      <trkpt lat="45.38482" lon="2.37247">
        <ele>552</ele>
        <time>2022-06-14T09:44:16.000Z</time>
      </trkpt>
      <trkpt lat="45.38483" lon="2.37248">
        <ele>552.2</ele>
        <time>2022-06-14T09:44:17.000Z</time>
      </trkpt>
      <trkpt lat="45.38484" lon="2.37248">
        <ele>552.5</ele>
        <time>2022-06-14T09:44:18.000Z</time>
      </trkpt>
      <trkpt lat="45.38485" lon="2.37249">
        <ele>552.7</ele>
        <time>2022-06-14T09:44:19.000Z</time>
      </trkpt>
      <trkpt lat="45.38486" lon="2.3725">
        <ele>552.9</ele>
        <time>2022-06-14T09:44:20.000Z</time>
      </trkpt>
      <trkpt lat="45.38487" lon="2.3725">
        <ele>553</ele>
        <time>2022-06-14T09:44:21.000Z</time>
      </trkpt>
      <trkpt lat="45.38488" lon="2.37251">
        <ele>553</ele>
        <time>2022-06-14T09:44:22.000Z</time>
      </trkpt>
      <trkpt lat="45.38489" lon="2.37252">
        <ele>553.1</ele>
        <time>2022-06-14T09:44:23.000Z</time>
      </trkpt>
      <trkpt lat="45.3849" lon="2.37253">
        <ele>553.2</ele>
        <time>2022-06-14T09:44:25.000Z</time>
      </trkpt>
      <trkpt lat="45.38491" lon="2.37253">
        <ele>553.2</ele>
        <time>2022-06-14T09:44:26.000Z</time>
      </trkpt>
      <trkpt lat="45.38492" lon="2.37254">
        <ele>553.2</ele>
        <time>2022-06-14T09:44:27.000Z</time>
      </trkpt>
      <trkpt lat="45.38493" lon="2.37254">
        <ele>553.2</ele>
        <time>2022-06-14T09:44:28.000Z</time>
      </trkpt>
      <trkpt lat="45.38494" lon="2.37255">
        <ele>553.2</ele>
        <time>2022-06-14T09:44:29.000Z</time>
      </trkpt>
      <trkpt lat="45.38495" lon="2.37255">
        <ele>553.3</ele>
        <time>2022-06-14T09:44:30.000Z</time>
      </trkpt>
      <trkpt lat="45.38496" lon="2.37256">
        <ele>553.3</ele>
        <time>2022-06-14T09:44:31.000Z</time>
      </trkpt>
      <trkpt lat="45.38497" lon="2.37256">
        <ele>553.4</ele>
        <time>2022-06-14T09:44:32.000Z</time>
      </trkpt>
      <trkpt lat="45.38497" lon="2.37257">
        <ele>553.4</ele>
        <time>2022-06-14T09:44:33.000Z</time>
      </trkpt>
      <trkpt lat="45.38498" lon="2.37257">
        <ele>553.5</ele>
        <time>2022-06-14T09:44:34.000Z</time>
      </trkpt>
      <trkpt lat="45.38499" lon="2.37258">
        <ele>553.6</ele>
        <time>2022-06-14T09:44:35.000Z</time>
      </trkpt>
      <trkpt lat="45.38499" lon="2.37259">
        <ele>553.7</ele>
        <time>2022-06-14T09:44:36.000Z</time>
      </trkpt>
      <trkpt lat="45.385" lon="2.3726">
        <ele>553.9</ele>
        <time>2022-06-14T09:44:37.000Z</time>
      </trkpt>
      <trkpt lat="45.385" lon="2.37261">
        <ele>554</ele>
        <time>2022-06-14T09:44:38.000Z</time>
      </trkpt>
      <trkpt lat="45.38501" lon="2.37262">
        <ele>554</ele>
        <time>2022-06-14T09:44:39.000Z</time>
      </trkpt>
      <trkpt lat="45.38501" lon="2.37263">
        <ele>554.2</ele>
        <time>2022-06-14T09:44:40.000Z</time>
      </trkpt>
      <trkpt lat="45.38501" lon="2.37264">
        <ele>554.3</ele>
        <time>2022-06-14T09:44:41.000Z</time>
      </trkpt>
      <trkpt lat="45.38502" lon="2.37265">
        <ele>554.5</ele>
        <time>2022-06-14T09:44:42.000Z</time>
      </trkpt>
      <trkpt lat="45.38502" lon="2.37267">
        <ele>554.8</ele>
        <time>2022-06-14T09:44:43.000Z</time>
      </trkpt>
      <trkpt lat="45.38502" lon="2.37268">
        <ele>555.1</ele>
        <time>2022-06-14T09:44:44.000Z</time>
      </trkpt>
      <trkpt lat="45.38502" lon="2.3727">
        <ele>555.4</ele>
        <time>2022-06-14T09:44:45.000Z</time>
      </trkpt>
      <trkpt lat="45.38502" lon="2.37271">
        <ele>555.7</ele>
        <time>2022-06-14T09:44:46.000Z</time>
      </trkpt>
      <trkpt lat="45.38502" lon="2.37273">
        <ele>556</ele>
        <time>2022-06-14T09:44:47.000Z</time>
      </trkpt>
      <trkpt lat="45.38502" lon="2.37275">
        <ele>556.3</ele>
        <time>2022-06-14T09:44:48.000Z</time>
      </trkpt>
      <trkpt lat="45.38502" lon="2.37276">
        <ele>556.6</ele>
        <time>2022-06-14T09:44:49.000Z</time>
      </trkpt>
      <trkpt lat="45.38502" lon="2.37278">
        <ele>556.9</ele>
        <time>2022-06-14T09:44:50.000Z</time>
      </trkpt>
      <trkpt lat="45.38503" lon="2.3728">
        <ele>557.2</ele>
        <time>2022-06-14T09:44:51.000Z</time>
      </trkpt>
      <trkpt lat="45.38503" lon="2.37282">
        <ele>557.5</ele>
        <time>2022-06-14T09:44:52.000Z</time>
      </trkpt>
      <trkpt lat="45.38504" lon="2.37284">
        <ele>557.7</ele>
        <time>2022-06-14T09:44:53.000Z</time>
      </trkpt>
      <trkpt lat="45.38505" lon="2.37286">
        <ele>558</ele>
        <time>2022-06-14T09:44:54.000Z</time>
      </trkpt>
      <trkpt lat="45.38506" lon="2.37287">
        <ele>558.2</ele>
        <time>2022-06-14T09:44:55.000Z</time>
      </trkpt>
      <trkpt lat="45.38506" lon="2.37289">
        <ele>558.4</ele>
        <time>2022-06-14T09:44:56.000Z</time>
      </trkpt>
      <trkpt lat="45.38507" lon="2.37291">
        <ele>558.6</ele>
        <time>2022-06-14T09:44:57.000Z</time>
      </trkpt>
      <trkpt lat="45.38508" lon="2.37293">
        <ele>558.8</ele>
        <time>2022-06-14T09:44:58.000Z</time>
      </trkpt>
      <trkpt lat="45.3851" lon="2.37294">
        <ele>558.9</ele>
        <time>2022-06-14T09:44:59.000Z</time>
      </trkpt>
      <trkpt lat="45.38511" lon="2.37296">
        <ele>559.1</ele>
        <time>2022-06-14T09:45:00.000Z</time>
      </trkpt>
      <trkpt lat="45.38512" lon="2.37297">
        <ele>559.2</ele>
        <time>2022-06-14T09:45:01.000Z</time>
      </trkpt>
      <trkpt lat="45.38513" lon="2.37298">
        <ele>559.3</ele>
        <time>2022-06-14T09:45:02.000Z</time>
      </trkpt>
      <trkpt lat="45.38515" lon="2.37299">
        <ele>559.3</ele>
        <time>2022-06-14T09:45:03.000Z</time>
      </trkpt>
      <trkpt lat="45.38516" lon="2.373">
        <ele>559.4</ele>
        <time>2022-06-14T09:45:04.000Z</time>
      </trkpt>
      <trkpt lat="45.38517" lon="2.37301">
        <ele>559.4</ele>
        <time>2022-06-14T09:45:05.000Z</time>
      </trkpt>
      <trkpt lat="45.38519" lon="2.37302">
        <ele>559.4</ele>
        <time>2022-06-14T09:45:06.000Z</time>
      </trkpt>
      <trkpt lat="45.3852" lon="2.37303">
        <ele>559.4</ele>
        <time>2022-06-14T09:45:07.000Z</time>
      </trkpt>
      <trkpt lat="45.38521" lon="2.37303">
        <ele>559.4</ele>
        <time>2022-06-14T09:45:08.000Z</time>
      </trkpt>
      <trkpt lat="45.38523" lon="2.37304">
        <ele>559.4</ele>
        <time>2022-06-14T09:45:09.000Z</time>
      </trkpt>
      <trkpt lat="45.38524" lon="2.37305">
        <ele>559.3</ele>
        <time>2022-06-14T09:45:10.000Z</time>
      </trkpt>
      <trkpt lat="45.38525" lon="2.37305">
        <ele>559.3</ele>
        <time>2022-06-14T09:45:11.000Z</time>
      </trkpt>
      <trkpt lat="45.38526" lon="2.37305">
        <ele>559.2</ele>
        <time>2022-06-14T09:45:12.000Z</time>
      </trkpt>
      <trkpt lat="45.38527" lon="2.37306">
        <ele>559.2</ele>
        <time>2022-06-14T09:45:13.000Z</time>
      </trkpt>
      <trkpt lat="45.38528" lon="2.37306">
        <ele>559.1</ele>
        <time>2022-06-14T09:45:14.000Z</time>
      </trkpt>
      <trkpt lat="45.38529" lon="2.37306">
        <ele>559.1</ele>
        <time>2022-06-14T09:45:15.000Z</time>
      </trkpt>
      <trkpt lat="45.3853" lon="2.37306">
        <ele>559</ele>
        <time>2022-06-14T09:45:16.000Z</time>
      </trkpt>
      <trkpt lat="45.38531" lon="2.37307">
        <ele>559</ele>
        <time>2022-06-14T09:45:17.000Z</time>
      </trkpt>
      <trkpt lat="45.38532" lon="2.37307">
        <ele>558.9</ele>
        <time>2022-06-14T09:45:18.000Z</time>
      </trkpt>
      <trkpt lat="45.38533" lon="2.37307">
        <ele>558.9</ele>
        <time>2022-06-14T09:45:19.000Z</time>
      </trkpt>
      <trkpt lat="45.38534" lon="2.37308">
        <ele>558.9</ele>
        <time>2022-06-14T09:45:20.000Z</time>
      </trkpt>
      <trkpt lat="45.38535" lon="2.37308">
        <ele>558.9</ele>
        <time>2022-06-14T09:45:21.000Z</time>
      </trkpt>
      <trkpt lat="45.38536" lon="2.37309">
        <ele>558.9</ele>
        <time>2022-06-14T09:45:22.000Z</time>
      </trkpt>
      <trkpt lat="45.38537" lon="2.37309">
        <ele>558.9</ele>
        <time>2022-06-14T09:45:23.000Z</time>
      </trkpt>
      <trkpt lat="45.38538" lon="2.37309">
        <ele>558.9</ele>
        <time>2022-06-14T09:45:24.000Z</time>
      </trkpt>
      <trkpt lat="45.38539" lon="2.3731">
        <ele>559</ele>
        <time>2022-06-14T09:45:25.000Z</time>
      </trkpt>
      <trkpt lat="45.3854" lon="2.3731">
        <ele>559</ele>
        <time>2022-06-14T09:45:26.000Z</time>
      </trkpt>
      <trkpt lat="45.3854" lon="2.37311">
        <ele>559</ele>
        <time>2022-06-14T09:45:27.000Z</time>
      </trkpt>
      <trkpt lat="45.38541" lon="2.37311">
        <ele>559</ele>
        <time>2022-06-14T09:45:28.000Z</time>
      </trkpt>
      <trkpt lat="45.38542" lon="2.37311">
        <ele>559.1</ele>
        <time>2022-06-14T09:45:33.000Z</time>
      </trkpt>
      <trkpt lat="45.38542" lon="2.37311">
        <ele>559.2</ele>
        <time>2022-06-14T09:45:42.000Z</time>
      </trkpt>
      <trkpt lat="45.38542" lon="2.37312">
        <ele>559.2</ele>
        <time>2022-06-14T09:45:45.000Z</time>
      </trkpt>
      <trkpt lat="45.38543" lon="2.37312">
        <ele>559.3</ele>
        <time>2022-06-14T09:45:49.000Z</time>
      </trkpt>
      <trkpt lat="45.38544" lon="2.37313">
        <ele>559.3</ele>
        <time>2022-06-14T09:45:50.000Z</time>
      </trkpt>
      <trkpt lat="45.38545" lon="2.37313">
        <ele>559.4</ele>
        <time>2022-06-14T09:45:51.000Z</time>
      </trkpt>
      <trkpt lat="45.38546" lon="2.37314">
        <ele>559.5</ele>
        <time>2022-06-14T09:45:52.000Z</time>
      </trkpt>
      <trkpt lat="45.38547" lon="2.37315">
        <ele>559.7</ele>
        <time>2022-06-14T09:45:54.000Z</time>
      </trkpt>
      <trkpt lat="45.38548" lon="2.37316">
        <ele>559.8</ele>
        <time>2022-06-14T09:45:56.000Z</time>
      </trkpt>
      <trkpt lat="45.38549" lon="2.37316">
        <ele>559.9</ele>
        <time>2022-06-14T09:45:57.000Z</time>
      </trkpt>
      <trkpt lat="45.3855" lon="2.37317">
        <ele>560</ele>
        <time>2022-06-14T09:45:59.000Z</time>
      </trkpt>
      <trkpt lat="45.38551" lon="2.37317">
        <ele>560</ele>
        <time>2022-06-14T09:46:00.000Z</time>
      </trkpt>
      <trkpt lat="45.38552" lon="2.37317">
        <ele>560</ele>
        <time>2022-06-14T09:46:01.000Z</time>
      </trkpt>
      <trkpt lat="45.38553" lon="2.37318">
        <ele>560</ele>
        <time>2022-06-14T09:46:02.000Z</time>
      </trkpt>
      <trkpt lat="45.38554" lon="2.37318">
        <ele>560.1</ele>
        <time>2022-06-14T09:46:03.000Z</time>
      </trkpt>
      <trkpt lat="45.38555" lon="2.37319">
        <ele>560.2</ele>
        <time>2022-06-14T09:46:04.000Z</time>
      </trkpt>
      <trkpt lat="45.38556" lon="2.37319">
        <ele>560.4</ele>
        <time>2022-06-14T09:46:05.000Z</time>
      </trkpt>
      <trkpt lat="45.38557" lon="2.3732">
        <ele>560.6</ele>
        <time>2022-06-14T09:46:06.000Z</time>
      </trkpt>
      <trkpt lat="45.38558" lon="2.37321">
        <ele>560.9</ele>
        <time>2022-06-14T09:46:07.000Z</time>
      </trkpt>
      <trkpt lat="45.3856" lon="2.37322">
        <ele>561.1</ele>
        <time>2022-06-14T09:46:08.000Z</time>
      </trkpt>
      <trkpt lat="45.38561" lon="2.37323">
        <ele>561.4</ele>
        <time>2022-06-14T09:46:09.000Z</time>
      </trkpt>
      <trkpt lat="45.38562" lon="2.37324">
        <ele>561.7</ele>
        <time>2022-06-14T09:46:10.000Z</time>
      </trkpt>
      <trkpt lat="45.38563" lon="2.37325">
        <ele>562</ele>
        <time>2022-06-14T09:46:11.000Z</time>
      </trkpt>
      <trkpt lat="45.38564" lon="2.37326">
        <ele>562.3</ele>
        <time>2022-06-14T09:46:12.000Z</time>
      </trkpt>
      <trkpt lat="45.38564" lon="2.37327">
        <ele>562.6</ele>
        <time>2022-06-14T09:46:13.000Z</time>
      </trkpt>
      <trkpt lat="45.38565" lon="2.37328">
        <ele>562.8</ele>
        <time>2022-06-14T09:46:14.000Z</time>
      </trkpt>
      <trkpt lat="45.38566" lon="2.37329">
        <ele>563.1</ele>
        <time>2022-06-14T09:46:15.000Z</time>
      </trkpt>
      <trkpt lat="45.38567" lon="2.3733">
        <ele>563.3</ele>
        <time>2022-06-14T09:46:16.000Z</time>
      </trkpt>
      <trkpt lat="45.38568" lon="2.37331">
        <ele>563.8</ele>
        <time>2022-06-14T09:46:18.000Z</time>
      </trkpt>
      <trkpt lat="45.38569" lon="2.37332">
        <ele>564</ele>
        <time>2022-06-14T09:46:19.000Z</time>
      </trkpt>
      <trkpt lat="45.3857" lon="2.37332">
        <ele>564.2</ele>
        <time>2022-06-14T09:46:20.000Z</time>
      </trkpt>
      <trkpt lat="45.3857" lon="2.37333">
        <ele>564.5</ele>
        <time>2022-06-14T09:46:21.000Z</time>
      </trkpt>
      <trkpt lat="45.38571" lon="2.37334">
        <ele>564.6</ele>
        <time>2022-06-14T09:46:22.000Z</time>
      </trkpt>
      <trkpt lat="45.38572" lon="2.37334">
        <ele>564.6</ele>
        <time>2022-06-14T09:46:23.000Z</time>
      </trkpt>
      <trkpt lat="45.38572" lon="2.37335">
        <ele>564.7</ele>
        <time>2022-06-14T09:46:24.000Z</time>
      </trkpt>
      <trkpt lat="45.38573" lon="2.37336">
        <ele>564.7</ele>
        <time>2022-06-14T09:46:25.000Z</time>
      </trkpt>
      <trkpt lat="45.38574" lon="2.37337">
        <ele>564.8</ele>
        <time>2022-06-14T09:46:26.000Z</time>
      </trkpt>
      <trkpt lat="45.38575" lon="2.37337">
        <ele>564.8</ele>
        <time>2022-06-14T09:46:27.000Z</time>
      </trkpt>
      <trkpt lat="45.38575" lon="2.37338">
        <ele>564.9</ele>
        <time>2022-06-14T09:46:28.000Z</time>
      </trkpt>
      <trkpt lat="45.38576" lon="2.37339">
        <ele>564.9</ele>
        <time>2022-06-14T09:46:29.000Z</time>
      </trkpt>
      <trkpt lat="45.38577" lon="2.3734">
        <ele>565</ele>
        <time>2022-06-14T09:46:30.000Z</time>
      </trkpt>
      <trkpt lat="45.38578" lon="2.37341">
        <ele>565.1</ele>
        <time>2022-06-14T09:46:31.000Z</time>
      </trkpt>
      <trkpt lat="45.38579" lon="2.37343">
        <ele>565.2</ele>
        <time>2022-06-14T09:46:32.000Z</time>
      </trkpt>
      <trkpt lat="45.3858" lon="2.37344">
        <ele>565.2</ele>
        <time>2022-06-14T09:46:33.000Z</time>
      </trkpt>
      <trkpt lat="45.3858" lon="2.37345">
        <ele>565.3</ele>
        <time>2022-06-14T09:46:34.000Z</time>
      </trkpt>
      <trkpt lat="45.38581" lon="2.37346">
        <ele>565.4</ele>
        <time>2022-06-14T09:46:35.000Z</time>
      </trkpt>
      <trkpt lat="45.38582" lon="2.37346">
        <ele>565.5</ele>
        <time>2022-06-14T09:46:36.000Z</time>
      </trkpt>
      <trkpt lat="45.38583" lon="2.37347">
        <ele>565.5</ele>
        <time>2022-06-14T09:46:37.000Z</time>
      </trkpt>
      <trkpt lat="45.38583" lon="2.37348">
        <ele>565.6</ele>
        <time>2022-06-14T09:46:38.000Z</time>
      </trkpt>
      <trkpt lat="45.38584" lon="2.37348">
        <ele>565.5</ele>
        <time>2022-06-14T09:46:39.000Z</time>
      </trkpt>
      <trkpt lat="45.38585" lon="2.37349">
        <ele>565.4</ele>
        <time>2022-06-14T09:46:40.000Z</time>
      </trkpt>
      <trkpt lat="45.38586" lon="2.37349">
        <ele>565.3</ele>
        <time>2022-06-14T09:46:41.000Z</time>
      </trkpt>
      <trkpt lat="45.38587" lon="2.3735">
        <ele>565.1</ele>
        <time>2022-06-14T09:46:42.000Z</time>
      </trkpt>
      <trkpt lat="45.38588" lon="2.3735">
        <ele>565</ele>
        <time>2022-06-14T09:46:43.000Z</time>
      </trkpt>
      <trkpt lat="45.38589" lon="2.37351">
        <ele>564.7</ele>
        <time>2022-06-14T09:46:45.000Z</time>
      </trkpt>
      <trkpt lat="45.3859" lon="2.37351">
        <ele>564.5</ele>
        <time>2022-06-14T09:46:46.000Z</time>
      </trkpt>
      <trkpt lat="45.38591" lon="2.37351">
        <ele>564.4</ele>
        <time>2022-06-14T09:46:47.000Z</time>
      </trkpt>
      <trkpt lat="45.38593" lon="2.37352">
        <ele>564.2</ele>
        <time>2022-06-14T09:46:48.000Z</time>
      </trkpt>
      <trkpt lat="45.38594" lon="2.37352">
        <ele>564</ele>
        <time>2022-06-14T09:46:49.000Z</time>
      </trkpt>
      <trkpt lat="45.38595" lon="2.37352">
        <ele>563.9</ele>
        <time>2022-06-14T09:46:50.000Z</time>
      </trkpt>
      <trkpt lat="45.38596" lon="2.37353">
        <ele>563.7</ele>
        <time>2022-06-14T09:46:51.000Z</time>
      </trkpt>
      <trkpt lat="45.38597" lon="2.37353">
        <ele>563.6</ele>
        <time>2022-06-14T09:46:52.000Z</time>
      </trkpt>
      <trkpt lat="45.38598" lon="2.37353">
        <ele>563.5</ele>
        <time>2022-06-14T09:46:53.000Z</time>
      </trkpt>
      <trkpt lat="45.38598" lon="2.37354">
        <ele>563.4</ele>
        <time>2022-06-14T09:46:54.000Z</time>
      </trkpt>
      <trkpt lat="45.38599" lon="2.37355">
        <ele>563.3</ele>
        <time>2022-06-14T09:46:55.000Z</time>
      </trkpt>
      <trkpt lat="45.386" lon="2.37355">
        <ele>563.2</ele>
        <time>2022-06-14T09:46:56.000Z</time>
      </trkpt>
      <trkpt lat="45.38601" lon="2.37356">
        <ele>563.1</ele>
        <time>2022-06-14T09:46:57.000Z</time>
      </trkpt>
      <trkpt lat="45.38602" lon="2.37357">
        <ele>563.1</ele>
        <time>2022-06-14T09:46:58.000Z</time>
      </trkpt>
      <trkpt lat="45.38603" lon="2.37357">
        <ele>563</ele>
        <time>2022-06-14T09:46:59.000Z</time>
      </trkpt>
      <trkpt lat="45.38604" lon="2.37358">
        <ele>563</ele>
        <time>2022-06-14T09:47:00.000Z</time>
      </trkpt>
      <trkpt lat="45.38605" lon="2.37359">
        <ele>562.9</ele>
        <time>2022-06-14T09:47:01.000Z</time>
      </trkpt>
      <trkpt lat="45.38606" lon="2.3736">
        <ele>562.9</ele>
        <time>2022-06-14T09:47:02.000Z</time>
      </trkpt>
      <trkpt lat="45.38606" lon="2.37361">
        <ele>562.9</ele>
        <time>2022-06-14T09:47:03.000Z</time>
      </trkpt>
      <trkpt lat="45.38607" lon="2.37361">
        <ele>562.8</ele>
        <time>2022-06-14T09:47:04.000Z</time>
      </trkpt>
      <trkpt lat="45.38608" lon="2.37362">
        <ele>562.8</ele>
        <time>2022-06-14T09:47:05.000Z</time>
      </trkpt>
      <trkpt lat="45.38609" lon="2.37363">
        <ele>562.7</ele>
        <time>2022-06-14T09:47:06.000Z</time>
      </trkpt>
      <trkpt lat="45.3861" lon="2.37364">
        <ele>562.7</ele>
        <time>2022-06-14T09:47:07.000Z</time>
      </trkpt>
      <trkpt lat="45.38611" lon="2.37365">
        <ele>562.6</ele>
        <time>2022-06-14T09:47:08.000Z</time>
      </trkpt>
      <trkpt lat="45.38612" lon="2.37365">
        <ele>562.6</ele>
        <time>2022-06-14T09:47:09.000Z</time>
      </trkpt>
      <trkpt lat="45.38613" lon="2.37366">
        <ele>562.5</ele>
        <time>2022-06-14T09:47:10.000Z</time>
      </trkpt>
      <trkpt lat="45.38614" lon="2.37367">
        <ele>562.5</ele>
        <time>2022-06-14T09:47:11.000Z</time>
      </trkpt>
      <trkpt lat="45.38615" lon="2.37368">
        <ele>562.5</ele>
        <time>2022-06-14T09:47:12.000Z</time>
      </trkpt>
      <trkpt lat="45.38616" lon="2.37369">
        <ele>562.4</ele>
        <time>2022-06-14T09:47:13.000Z</time>
      </trkpt>
      <trkpt lat="45.38618" lon="2.37369">
        <ele>562.4</ele>
        <time>2022-06-14T09:47:14.000Z</time>
      </trkpt>
      <trkpt lat="45.38619" lon="2.3737">
        <ele>562.4</ele>
        <time>2022-06-14T09:47:15.000Z</time>
      </trkpt>
      <trkpt lat="45.3862" lon="2.37371">
        <ele>562.4</ele>
        <time>2022-06-14T09:47:16.000Z</time>
      </trkpt>
      <trkpt lat="45.38621" lon="2.37372">
        <ele>562.4</ele>
        <time>2022-06-14T09:47:17.000Z</time>
      </trkpt>
      <trkpt lat="45.38622" lon="2.37373">
        <ele>562.4</ele>
        <time>2022-06-14T09:47:18.000Z</time>
      </trkpt>
      <trkpt lat="45.38623" lon="2.37374">
        <ele>562.4</ele>
        <time>2022-06-14T09:47:19.000Z</time>
      </trkpt>
      <trkpt lat="45.38624" lon="2.37375">
        <ele>562.5</ele>
        <time>2022-06-14T09:47:20.000Z</time>
      </trkpt>
      <trkpt lat="45.38624" lon="2.37376">
        <ele>562.6</ele>
        <time>2022-06-14T09:47:21.000Z</time>
      </trkpt>
      <trkpt lat="45.38625" lon="2.37377">
        <ele>562.6</ele>
        <time>2022-06-14T09:47:22.000Z</time>
      </trkpt>
      <trkpt lat="45.38626" lon="2.37379">
        <ele>562.7</ele>
        <time>2022-06-14T09:47:23.000Z</time>
      </trkpt>
      <trkpt lat="45.38627" lon="2.3738">
        <ele>562.8</ele>
        <time>2022-06-14T09:47:24.000Z</time>
      </trkpt>
      <trkpt lat="45.38628" lon="2.37381">
        <ele>562.9</ele>
        <time>2022-06-14T09:47:25.000Z</time>
      </trkpt>
      <trkpt lat="45.38629" lon="2.37382">
        <ele>563</ele>
        <time>2022-06-14T09:47:26.000Z</time>
      </trkpt>
      <trkpt lat="45.3863" lon="2.37383">
        <ele>563.1</ele>
        <time>2022-06-14T09:47:27.000Z</time>
      </trkpt>
      <trkpt lat="45.38631" lon="2.37384">
        <ele>563.2</ele>
        <time>2022-06-14T09:47:28.000Z</time>
      </trkpt>
      <trkpt lat="45.38632" lon="2.37385">
        <ele>563.3</ele>
        <time>2022-06-14T09:47:29.000Z</time>
      </trkpt>
      <trkpt lat="45.38633" lon="2.37387">
        <ele>563.4</ele>
        <time>2022-06-14T09:47:30.000Z</time>
      </trkpt>
      <trkpt lat="45.38634" lon="2.37388">
        <ele>563.5</ele>
        <time>2022-06-14T09:47:31.000Z</time>
      </trkpt>
      <trkpt lat="45.38635" lon="2.37389">
        <ele>563.6</ele>
        <time>2022-06-14T09:47:32.000Z</time>
      </trkpt>
      <trkpt lat="45.38636" lon="2.37389">
        <ele>563.6</ele>
        <time>2022-06-14T09:47:33.000Z</time>
      </trkpt>
      <trkpt lat="45.38637" lon="2.3739">
        <ele>563.7</ele>
        <time>2022-06-14T09:47:34.000Z</time>
      </trkpt>
      <trkpt lat="45.38638" lon="2.37391">
        <ele>563.7</ele>
        <time>2022-06-14T09:47:35.000Z</time>
      </trkpt>
      <trkpt lat="45.38639" lon="2.37392">
        <ele>563.7</ele>
        <time>2022-06-14T09:47:36.000Z</time>
      </trkpt>
      <trkpt lat="45.3864" lon="2.37392">
        <ele>563.7</ele>
        <time>2022-06-14T09:47:37.000Z</time>
      </trkpt>
      <trkpt lat="45.38641" lon="2.37393">
        <ele>563.7</ele>
        <time>2022-06-14T09:47:38.000Z</time>
      </trkpt>
      <trkpt lat="45.38642" lon="2.37393">
        <ele>563.7</ele>
        <time>2022-06-14T09:47:39.000Z</time>
      </trkpt>
      <trkpt lat="45.38643" lon="2.37394">
        <ele>563.6</ele>
        <time>2022-06-14T09:47:40.000Z</time>
      </trkpt>
      <trkpt lat="45.38644" lon="2.37394">
        <ele>563.6</ele>
        <time>2022-06-14T09:47:41.000Z</time>
      </trkpt>
      <trkpt lat="45.38645" lon="2.37395">
        <ele>563.6</ele>
        <time>2022-06-14T09:47:42.000Z</time>
      </trkpt>
      <trkpt lat="45.38646" lon="2.37395">
        <ele>563.7</ele>
        <time>2022-06-14T09:47:43.000Z</time>
      </trkpt>
      <trkpt lat="45.38647" lon="2.37396">
        <ele>563.7</ele>
        <time>2022-06-14T09:47:44.000Z</time>
      </trkpt>
      <trkpt lat="45.38648" lon="2.37397">
        <ele>563.7</ele>
        <time>2022-06-14T09:47:45.000Z</time>
      </trkpt>
      <trkpt lat="45.38649" lon="2.37397">
        <ele>563.8</ele>
        <time>2022-06-14T09:47:46.000Z</time>
      </trkpt>
      <trkpt lat="45.3865" lon="2.37398">
        <ele>563.9</ele>
        <time>2022-06-14T09:47:47.000Z</time>
      </trkpt>
      <trkpt lat="45.38651" lon="2.37399">
        <ele>563.9</ele>
        <time>2022-06-14T09:47:48.000Z</time>
      </trkpt>
      <trkpt lat="45.38652" lon="2.37399">
        <ele>563.9</ele>
        <time>2022-06-14T09:47:50.000Z</time>
      </trkpt>
      <trkpt lat="45.38653" lon="2.374">
        <ele>563.9</ele>
        <time>2022-06-14T09:47:52.000Z</time>
      </trkpt>
      <trkpt lat="45.38654" lon="2.374">
        <ele>563.8</ele>
        <time>2022-06-14T09:47:54.000Z</time>
      </trkpt>
      <trkpt lat="45.38654" lon="2.374">
        <ele>563.8</ele>
        <time>2022-06-14T09:48:02.000Z</time>
      </trkpt>
      <trkpt lat="45.38655" lon="2.374">
        <ele>563.7</ele>
        <time>2022-06-14T09:50:04.000Z</time>
      </trkpt>
      <trkpt lat="45.38658" lon="2.37401">
        <ele>563.6</ele>
        <time>2022-06-14T09:50:05.000Z</time>
      </trkpt>
      <trkpt lat="45.38659" lon="2.37401">
        <ele>563.6</ele>
        <time>2022-06-14T09:50:06.000Z</time>
      </trkpt>
      <trkpt lat="45.38659" lon="2.374">
        <ele>563.5</ele>
        <time>2022-06-14T09:50:27.000Z</time>
      </trkpt>
      <trkpt lat="45.38659" lon="2.374">
        <ele>563.5</ele>
        <time>2022-06-14T09:50:28.000Z</time>
      </trkpt>
      <trkpt lat="45.3866" lon="2.374">
        <ele>563.4</ele>
        <time>2022-06-14T09:50:31.000Z</time>
      </trkpt>
      <trkpt lat="45.38662" lon="2.37399">
        <ele>562.8</ele>
        <time>2022-06-14T09:50:39.000Z</time>
      </trkpt>
      <trkpt lat="45.38664" lon="2.37397">
        <ele>562</ele>
        <time>2022-06-14T09:50:40.000Z</time>
      </trkpt>
      <trkpt lat="45.38665" lon="2.37395">
        <ele>561.6</ele>
        <time>2022-06-14T09:50:41.000Z</time>
      </trkpt>
      <trkpt lat="45.38666" lon="2.37395">
        <ele>561.4</ele>
        <time>2022-06-14T09:50:54.000Z</time>
      </trkpt>
      <trkpt lat="45.38666" lon="2.37395">
        <ele>561.3</ele>
        <time>2022-06-14T09:50:58.000Z</time>
      </trkpt>
      <trkpt lat="45.38665" lon="2.37394">
        <ele>561.1</ele>
        <time>2022-06-14T09:51:34.000Z</time>
      </trkpt>
      <trkpt lat="45.38664" lon="2.37392">
        <ele>560.8</ele>
        <time>2022-06-14T09:51:35.000Z</time>
      </trkpt>
      <trkpt lat="45.38663" lon="2.3739">
        <ele>560.5</ele>
        <time>2022-06-14T09:51:36.000Z</time>
      </trkpt>
      <trkpt lat="45.38663" lon="2.37389">
        <ele>560.3</ele>
        <time>2022-06-14T09:51:37.000Z</time>
      </trkpt>
      <trkpt lat="45.38663" lon="2.37389">
        <ele>560.2</ele>
        <time>2022-06-14T09:52:07.000Z</time>
      </trkpt>
      <trkpt lat="45.38662" lon="2.37389">
        <ele>560.2</ele>
        <time>2022-06-14T09:52:08.000Z</time>
      </trkpt>
      <trkpt lat="45.38662" lon="2.3739">
        <ele>560.4</ele>
        <time>2022-06-14T09:52:10.000Z</time>
      </trkpt>
      <trkpt lat="45.38661" lon="2.3739">
        <ele>560.7</ele>
        <time>2022-06-14T09:52:12.000Z</time>
      </trkpt>
      <trkpt lat="45.38661" lon="2.37391">
        <ele>560.9</ele>
        <time>2022-06-14T09:52:13.000Z</time>
      </trkpt>
      <trkpt lat="45.3866" lon="2.37392">
        <ele>561.2</ele>
        <time>2022-06-14T09:52:14.000Z</time>
      </trkpt>
      <trkpt lat="45.38659" lon="2.37393">
        <ele>561.6</ele>
        <time>2022-06-14T09:52:15.000Z</time>
      </trkpt>
      <trkpt lat="45.38658" lon="2.37393">
        <ele>561.8</ele>
        <time>2022-06-14T09:52:16.000Z</time>
      </trkpt>
      <trkpt lat="45.38658" lon="2.37394">
        <ele>562</ele>
        <time>2022-06-14T09:52:19.000Z</time>
      </trkpt>
      <trkpt lat="45.38656" lon="2.37396">
        <ele>562.6</ele>
        <time>2022-06-14T09:52:20.000Z</time>
      </trkpt>
      <trkpt lat="45.38654" lon="2.374">
        <ele>563.8</ele>
        <time>2022-06-14T09:52:21.000Z</time>
      </trkpt>
      <trkpt lat="45.38649" lon="2.37406">
        <ele>565.8</ele>
        <time>2022-06-14T09:52:22.000Z</time>
      </trkpt>
      <trkpt lat="45.38642" lon="2.37416">
        <ele>568.6</ele>
        <time>2022-06-14T09:52:23.000Z</time>
      </trkpt>
      <trkpt lat="45.3863" lon="2.37432">
        <ele>570.5</ele>
        <time>2022-06-14T09:52:24.000Z</time>
      </trkpt>
      <trkpt lat="45.38612" lon="2.37456">
        <ele>573.6</ele>
        <time>2022-06-14T09:52:25.000Z</time>
      </trkpt>
      <trkpt lat="45.38593" lon="2.37483">
        <ele>577.5</ele>
        <time>2022-06-14T09:52:26.000Z</time>
      </trkpt>
      <trkpt lat="45.38589" lon="2.37488">
        <ele>578.4</ele>
        <time>2022-06-14T09:52:27.000Z</time>
      </trkpt>
      <trkpt lat="45.38574" lon="2.37508">
        <ele>579.8</ele>
        <time>2022-06-14T09:52:28.000Z</time>
      </trkpt>
      <trkpt lat="45.38555" lon="2.37535">
        <ele>579.9</ele>
        <time>2022-06-14T09:52:29.000Z</time>
      </trkpt>
      <trkpt lat="45.38545" lon="2.37548">
        <ele>580.1</ele>
        <time>2022-06-14T10:03:41.000Z</time>
      </trkpt>
      <trkpt lat="45.38526" lon="2.37575">
        <ele>580.9</ele>
        <time>2022-06-14T10:03:42.000Z</time>
      </trkpt>
      <trkpt lat="45.38507" lon="2.37602">
        <ele>581.1</ele>
        <time>2022-06-14T10:03:43.000Z</time>
      </trkpt>
      <trkpt lat="45.3849" lon="2.37627">
        <ele>580.5</ele>
        <time>2022-06-14T10:03:44.000Z</time>
      </trkpt>
      <trkpt lat="45.38478" lon="2.37644">
        <ele>580.2</ele>
        <time>2022-06-14T10:03:45.000Z</time>
      </trkpt>
      <trkpt lat="45.38476" lon="2.37648">
        <ele>580.2</ele>
        <time>2022-06-14T10:03:46.000Z</time>
      </trkpt>
      <trkpt lat="45.38477" lon="2.37648">
        <ele>580.2</ele>
        <time>2022-06-14T10:03:47.000Z</time>
      </trkpt>
      <trkpt lat="45.38479" lon="2.37649">
        <ele>580.3</ele>
        <time>2022-06-14T10:03:49.000Z</time>
      </trkpt>
      <trkpt lat="45.3848" lon="2.37649">
        <ele>580.3</ele>
        <time>2022-06-14T10:03:50.000Z</time>
      </trkpt>
      <trkpt lat="45.38481" lon="2.37649">
        <ele>580.4</ele>
        <time>2022-06-14T10:03:51.000Z</time>
      </trkpt>
      <trkpt lat="45.38483" lon="2.37649">
        <ele>580.4</ele>
        <time>2022-06-14T10:03:52.000Z</time>
      </trkpt>
      <trkpt lat="45.38484" lon="2.37649">
        <ele>580.5</ele>
        <time>2022-06-14T10:03:53.000Z</time>
      </trkpt>
      <trkpt lat="45.38486" lon="2.37649">
        <ele>580.5</ele>
        <time>2022-06-14T10:03:54.000Z</time>
      </trkpt>
      <trkpt lat="45.38487" lon="2.37649">
        <ele>580.6</ele>
        <time>2022-06-14T10:03:55.000Z</time>
      </trkpt>
      <trkpt lat="45.38489" lon="2.37649">
        <ele>580.6</ele>
        <time>2022-06-14T10:03:56.000Z</time>
      </trkpt>
      <trkpt lat="45.3849" lon="2.37648">
        <ele>580.6</ele>
        <time>2022-06-14T10:03:57.000Z</time>
      </trkpt>
      <trkpt lat="45.38491" lon="2.37648">
        <ele>580.7</ele>
        <time>2022-06-14T10:03:58.000Z</time>
      </trkpt>
      <trkpt lat="45.38493" lon="2.37648">
        <ele>580.7</ele>
        <time>2022-06-14T10:03:59.000Z</time>
      </trkpt>
      <trkpt lat="45.38494" lon="2.37647">
        <ele>580.8</ele>
        <time>2022-06-14T10:04:00.000Z</time>
      </trkpt>
      <trkpt lat="45.38495" lon="2.37647">
        <ele>580.8</ele>
        <time>2022-06-14T10:04:01.000Z</time>
      </trkpt>
      <trkpt lat="45.38496" lon="2.37646">
        <ele>580.9</ele>
        <time>2022-06-14T10:04:02.000Z</time>
      </trkpt>
      <trkpt lat="45.38498" lon="2.37646">
        <ele>580.9</ele>
        <time>2022-06-14T10:04:03.000Z</time>
      </trkpt>
      <trkpt lat="45.38499" lon="2.37645">
        <ele>581</ele>
        <time>2022-06-14T10:04:04.000Z</time>
      </trkpt>
      <trkpt lat="45.385" lon="2.37644">
        <ele>581</ele>
        <time>2022-06-14T10:04:05.000Z</time>
      </trkpt>
      <trkpt lat="45.38501" lon="2.37643">
        <ele>581</ele>
        <time>2022-06-14T10:04:06.000Z</time>
      </trkpt>
      <trkpt lat="45.38503" lon="2.37642">
        <ele>581.1</ele>
        <time>2022-06-14T10:04:07.000Z</time>
      </trkpt>
      <trkpt lat="45.38504" lon="2.37642">
        <ele>581.1</ele>
        <time>2022-06-14T10:04:08.000Z</time>
      </trkpt>
      <trkpt lat="45.38505" lon="2.37641">
        <ele>581.1</ele>
        <time>2022-06-14T10:04:09.000Z</time>
      </trkpt>
      <trkpt lat="45.38506" lon="2.3764">
        <ele>581.1</ele>
        <time>2022-06-14T10:04:10.000Z</time>
      </trkpt>
      <trkpt lat="45.38507" lon="2.37639">
        <ele>581.1</ele>
        <time>2022-06-14T10:04:11.000Z</time>
      </trkpt>
      <trkpt lat="45.38509" lon="2.37638">
        <ele>581.2</ele>
        <time>2022-06-14T10:04:12.000Z</time>
      </trkpt>
      <trkpt lat="45.3851" lon="2.37637">
        <ele>581.2</ele>
        <time>2022-06-14T10:04:13.000Z</time>
      </trkpt>
      <trkpt lat="45.38511" lon="2.37636">
        <ele>581.2</ele>
        <time>2022-06-14T10:04:14.000Z</time>
      </trkpt>
      <trkpt lat="45.38512" lon="2.37635">
        <ele>581.2</ele>
        <time>2022-06-14T10:04:15.000Z</time>
      </trkpt>
      <trkpt lat="45.38514" lon="2.37634">
        <ele>581.3</ele>
        <time>2022-06-14T10:04:16.000Z</time>
      </trkpt>
      <trkpt lat="45.38515" lon="2.37633">
        <ele>581.3</ele>
        <time>2022-06-14T10:04:17.000Z</time>
      </trkpt>
      <trkpt lat="45.38516" lon="2.37633">
        <ele>581.3</ele>
        <time>2022-06-14T10:04:18.000Z</time>
      </trkpt>
      <trkpt lat="45.38517" lon="2.37632">
        <ele>581.3</ele>
        <time>2022-06-14T10:04:19.000Z</time>
      </trkpt>
      <trkpt lat="45.38519" lon="2.37631">
        <ele>581.4</ele>
        <time>2022-06-14T10:04:20.000Z</time>
      </trkpt>
      <trkpt lat="45.3852" lon="2.37631">
        <ele>581.4</ele>
        <time>2022-06-14T10:04:21.000Z</time>
      </trkpt>
      <trkpt lat="45.38521" lon="2.37631">
        <ele>581.4</ele>
        <time>2022-06-14T10:04:22.000Z</time>
      </trkpt>
      <trkpt lat="45.38523" lon="2.3763">
        <ele>581.4</ele>
        <time>2022-06-14T10:04:23.000Z</time>
      </trkpt>
      <trkpt lat="45.38524" lon="2.3763">
        <ele>581.4</ele>
        <time>2022-06-14T10:04:24.000Z</time>
      </trkpt>
      <trkpt lat="45.38525" lon="2.3763">
        <ele>581.5</ele>
        <time>2022-06-14T10:04:25.000Z</time>
      </trkpt>
      <trkpt lat="45.38527" lon="2.3763">
        <ele>581.5</ele>
        <time>2022-06-14T10:04:26.000Z</time>
      </trkpt>
      <trkpt lat="45.38528" lon="2.3763">
        <ele>581.5</ele>
        <time>2022-06-14T10:04:27.000Z</time>
      </trkpt>
      <trkpt lat="45.3853" lon="2.37629">
        <ele>581.6</ele>
        <time>2022-06-14T10:04:28.000Z</time>
      </trkpt>
      <trkpt lat="45.38531" lon="2.37629">
        <ele>581.6</ele>
        <time>2022-06-14T10:04:29.000Z</time>
      </trkpt>
      <trkpt lat="45.38533" lon="2.37629">
        <ele>581.6</ele>
        <time>2022-06-14T10:04:30.000Z</time>
      </trkpt>
      <trkpt lat="45.38534" lon="2.37629">
        <ele>581.6</ele>
        <time>2022-06-14T10:04:31.000Z</time>
      </trkpt>
      <trkpt lat="45.38535" lon="2.37629">
        <ele>581.7</ele>
        <time>2022-06-14T10:04:32.000Z</time>
      </trkpt>
      <trkpt lat="45.38536" lon="2.37629">
        <ele>581.7</ele>
        <time>2022-06-14T10:04:33.000Z</time>
      </trkpt>
      <trkpt lat="45.38537" lon="2.37629">
        <ele>581.7</ele>
        <time>2022-06-14T10:04:36.000Z</time>
      </trkpt>
      <trkpt lat="45.38538" lon="2.37629">
        <ele>581.7</ele>
        <time>2022-06-14T10:04:37.000Z</time>
      </trkpt>
      <trkpt lat="45.3854" lon="2.37629">
        <ele>581.7</ele>
        <time>2022-06-14T10:04:38.000Z</time>
      </trkpt>
      <trkpt lat="45.38541" lon="2.37629">
        <ele>581.8</ele>
        <time>2022-06-14T10:04:39.000Z</time>
      </trkpt>
      <trkpt lat="45.38542" lon="2.37629">
        <ele>581.8</ele>
        <time>2022-06-14T10:04:40.000Z</time>
      </trkpt>
      <trkpt lat="45.38544" lon="2.37629">
        <ele>581.8</ele>
        <time>2022-06-14T10:04:41.000Z</time>
      </trkpt>
      <trkpt lat="45.38545" lon="2.3763">
        <ele>581.8</ele>
        <time>2022-06-14T10:04:42.000Z</time>
      </trkpt>
      <trkpt lat="45.38546" lon="2.3763">
        <ele>581.9</ele>
        <time>2022-06-14T10:04:43.000Z</time>
      </trkpt>
      <trkpt lat="45.38548" lon="2.3763">
        <ele>581.9</ele>
        <time>2022-06-14T10:04:44.000Z</time>
      </trkpt>
      <trkpt lat="45.38549" lon="2.3763">
        <ele>581.9</ele>
        <time>2022-06-14T10:04:45.000Z</time>
      </trkpt>
      <trkpt lat="45.38551" lon="2.3763">
        <ele>581.9</ele>
        <time>2022-06-14T10:04:46.000Z</time>
      </trkpt>
      <trkpt lat="45.38552" lon="2.3763">
        <ele>582</ele>
        <time>2022-06-14T10:04:47.000Z</time>
      </trkpt>
      <trkpt lat="45.38553" lon="2.3763">
        <ele>582</ele>
        <time>2022-06-14T10:04:48.000Z</time>
      </trkpt>
      <trkpt lat="45.38555" lon="2.37631">
        <ele>582</ele>
        <time>2022-06-14T10:04:49.000Z</time>
      </trkpt>
      <trkpt lat="45.38556" lon="2.37631">
        <ele>582.1</ele>
        <time>2022-06-14T10:04:50.000Z</time>
      </trkpt>
      <trkpt lat="45.38558" lon="2.37631">
        <ele>582.1</ele>
        <time>2022-06-14T10:04:51.000Z</time>
      </trkpt>
      <trkpt lat="45.38559" lon="2.37631">
        <ele>582.1</ele>
        <time>2022-06-14T10:04:52.000Z</time>
      </trkpt>
      <trkpt lat="45.3856" lon="2.37631">
        <ele>582.1</ele>
        <time>2022-06-14T10:04:53.000Z</time>
      </trkpt>
      <trkpt lat="45.38562" lon="2.37631">
        <ele>582.2</ele>
        <time>2022-06-14T10:04:54.000Z</time>
      </trkpt>
      <trkpt lat="45.38563" lon="2.37631">
        <ele>582.2</ele>
        <time>2022-06-14T10:04:55.000Z</time>
      </trkpt>
      <trkpt lat="45.38564" lon="2.37631">
        <ele>582.2</ele>
        <time>2022-06-14T10:04:56.000Z</time>
      </trkpt>
      <trkpt lat="45.38565" lon="2.37631">
        <ele>582.2</ele>
        <time>2022-06-14T10:04:57.000Z</time>
      </trkpt>
      <trkpt lat="45.38567" lon="2.37632">
        <ele>582.3</ele>
        <time>2022-06-14T10:04:58.000Z</time>
      </trkpt>
      <trkpt lat="45.38568" lon="2.37632">
        <ele>582.3</ele>
        <time>2022-06-14T10:04:59.000Z</time>
      </trkpt>
      <trkpt lat="45.38569" lon="2.37632">
        <ele>582.3</ele>
        <time>2022-06-14T10:05:00.000Z</time>
      </trkpt>
      <trkpt lat="45.3857" lon="2.37632">
        <ele>582.3</ele>
        <time>2022-06-14T10:05:01.000Z</time>
      </trkpt>
      <trkpt lat="45.38572" lon="2.37632">
        <ele>582.4</ele>
        <time>2022-06-14T10:05:02.000Z</time>
      </trkpt>
      <trkpt lat="45.38573" lon="2.37632">
        <ele>582.4</ele>
        <time>2022-06-14T10:05:03.000Z</time>
      </trkpt>
      <trkpt lat="45.38574" lon="2.37632">
        <ele>582.4</ele>
        <time>2022-06-14T10:05:04.000Z</time>
      </trkpt>
      <trkpt lat="45.38575" lon="2.37632">
        <ele>582.4</ele>
        <time>2022-06-14T10:05:05.000Z</time>
      </trkpt>
      <trkpt lat="45.38577" lon="2.37633">
        <ele>582.5</ele>
        <time>2022-06-14T10:05:06.000Z</time>
      </trkpt>
      <trkpt lat="45.38578" lon="2.37633">
        <ele>582.5</ele>
        <time>2022-06-14T10:05:07.000Z</time>
      </trkpt>
      <trkpt lat="45.38579" lon="2.37633">
        <ele>582.5</ele>
        <time>2022-06-14T10:05:08.000Z</time>
      </trkpt>
      <trkpt lat="45.38581" lon="2.37633">
        <ele>582.5</ele>
        <time>2022-06-14T10:05:09.000Z</time>
      </trkpt>
      <trkpt lat="45.38582" lon="2.37633">
        <ele>582.6</ele>
        <time>2022-06-14T10:05:10.000Z</time>
      </trkpt>
      <trkpt lat="45.38583" lon="2.37634">
        <ele>582.6</ele>
        <time>2022-06-14T10:05:11.000Z</time>
      </trkpt>
      <trkpt lat="45.38585" lon="2.37634">
        <ele>582.5</ele>
        <time>2022-06-14T10:05:12.000Z</time>
      </trkpt>
      <trkpt lat="45.38586" lon="2.37634">
        <ele>582.5</ele>
        <time>2022-06-14T10:05:13.000Z</time>
      </trkpt>
      <trkpt lat="45.38587" lon="2.37635">
        <ele>582.4</ele>
        <time>2022-06-14T10:05:14.000Z</time>
      </trkpt>
      <trkpt lat="45.38589" lon="2.37635">
        <ele>582.4</ele>
        <time>2022-06-14T10:05:15.000Z</time>
      </trkpt>
      <trkpt lat="45.3859" lon="2.37635">
        <ele>582.3</ele>
        <time>2022-06-14T10:05:16.000Z</time>
      </trkpt>
      <trkpt lat="45.38591" lon="2.37635">
        <ele>582.3</ele>
        <time>2022-06-14T10:05:17.000Z</time>
      </trkpt>
      <trkpt lat="45.38593" lon="2.37636">
        <ele>582.2</ele>
        <time>2022-06-14T10:05:18.000Z</time>
      </trkpt>
      <trkpt lat="45.38594" lon="2.37636">
        <ele>582.1</ele>
        <time>2022-06-14T10:05:19.000Z</time>
      </trkpt>
      <trkpt lat="45.38595" lon="2.37636">
        <ele>582.1</ele>
        <time>2022-06-14T10:05:20.000Z</time>
      </trkpt>
      <trkpt lat="45.38596" lon="2.37637">
        <ele>582.1</ele>
        <time>2022-06-14T10:05:21.000Z</time>
      </trkpt>
      <trkpt lat="45.38597" lon="2.37637">
        <ele>582</ele>
        <time>2022-06-14T10:05:22.000Z</time>
      </trkpt>
      <trkpt lat="45.38599" lon="2.37637">
        <ele>582</ele>
        <time>2022-06-14T10:05:23.000Z</time>
      </trkpt>
      <trkpt lat="45.386" lon="2.37637">
        <ele>581.9</ele>
        <time>2022-06-14T10:05:24.000Z</time>
      </trkpt>
      <trkpt lat="45.38601" lon="2.37638">
        <ele>581.9</ele>
        <time>2022-06-14T10:05:25.000Z</time>
      </trkpt>
      <trkpt lat="45.38602" lon="2.37637">
        <ele>581.8</ele>
        <time>2022-06-14T10:05:26.000Z</time>
      </trkpt>
      <trkpt lat="45.38603" lon="2.37637">
        <ele>581.8</ele>
        <time>2022-06-14T10:05:27.000Z</time>
      </trkpt>
      <trkpt lat="45.38604" lon="2.37637">
        <ele>581.7</ele>
        <time>2022-06-14T10:05:28.000Z</time>
      </trkpt>
      <trkpt lat="45.38605" lon="2.37637">
        <ele>581.6</ele>
        <time>2022-06-14T10:05:29.000Z</time>
      </trkpt>
      <trkpt lat="45.38607" lon="2.37636">
        <ele>581.6</ele>
        <time>2022-06-14T10:05:30.000Z</time>
      </trkpt>
      <trkpt lat="45.38608" lon="2.37636">
        <ele>581.5</ele>
        <time>2022-06-14T10:05:31.000Z</time>
      </trkpt>
      <trkpt lat="45.38609" lon="2.37635">
        <ele>581.4</ele>
        <time>2022-06-14T10:05:32.000Z</time>
      </trkpt>
      <trkpt lat="45.3861" lon="2.37635">
        <ele>581.4</ele>
        <time>2022-06-14T10:05:33.000Z</time>
      </trkpt>
      <trkpt lat="45.38611" lon="2.37634">
        <ele>581.3</ele>
        <time>2022-06-14T10:05:34.000Z</time>
      </trkpt>
      <trkpt lat="45.38612" lon="2.37634">
        <ele>581.2</ele>
        <time>2022-06-14T10:05:35.000Z</time>
      </trkpt>
      <trkpt lat="45.38613" lon="2.37634">
        <ele>581.2</ele>
        <time>2022-06-14T10:05:36.000Z</time>
      </trkpt>
      <trkpt lat="45.38614" lon="2.37633">
        <ele>581.1</ele>
        <time>2022-06-14T10:05:37.000Z</time>
      </trkpt>
      <trkpt lat="45.38616" lon="2.37633">
        <ele>581</ele>
        <time>2022-06-14T10:05:38.000Z</time>
      </trkpt>
      <trkpt lat="45.38617" lon="2.37633">
        <ele>581</ele>
        <time>2022-06-14T10:05:39.000Z</time>
      </trkpt>
      <trkpt lat="45.38618" lon="2.37633">
        <ele>580.9</ele>
        <time>2022-06-14T10:05:40.000Z</time>
      </trkpt>
      <trkpt lat="45.38619" lon="2.37632">
        <ele>580.9</ele>
        <time>2022-06-14T10:05:41.000Z</time>
      </trkpt>
      <trkpt lat="45.3862" lon="2.37632">
        <ele>580.8</ele>
        <time>2022-06-14T10:05:42.000Z</time>
      </trkpt>
      <trkpt lat="45.38621" lon="2.37632">
        <ele>580.7</ele>
        <time>2022-06-14T10:05:43.000Z</time>
      </trkpt>
      <trkpt lat="45.38623" lon="2.37632">
        <ele>580.7</ele>
        <time>2022-06-14T10:05:44.000Z</time>
      </trkpt>
      <trkpt lat="45.38624" lon="2.37631">
        <ele>580.6</ele>
        <time>2022-06-14T10:05:45.000Z</time>
      </trkpt>
      <trkpt lat="45.38625" lon="2.37631">
        <ele>580.5</ele>
        <time>2022-06-14T10:05:46.000Z</time>
      </trkpt>
      <trkpt lat="45.38626" lon="2.37631">
        <ele>580.4</ele>
        <time>2022-06-14T10:05:47.000Z</time>
      </trkpt>
      <trkpt lat="45.38627" lon="2.3763">
        <ele>580.4</ele>
        <time>2022-06-14T10:05:48.000Z</time>
      </trkpt>
      <trkpt lat="45.38629" lon="2.3763">
        <ele>580.3</ele>
        <time>2022-06-14T10:05:49.000Z</time>
      </trkpt>
      <trkpt lat="45.3863" lon="2.37629">
        <ele>580.2</ele>
        <time>2022-06-14T10:05:50.000Z</time>
      </trkpt>
      <trkpt lat="45.38631" lon="2.37629">
        <ele>580.1</ele>
        <time>2022-06-14T10:05:51.000Z</time>
      </trkpt>
      <trkpt lat="45.38632" lon="2.37629">
        <ele>580</ele>
        <time>2022-06-14T10:05:52.000Z</time>
      </trkpt>
      <trkpt lat="45.38634" lon="2.37628">
        <ele>579.9</ele>
        <time>2022-06-14T10:05:53.000Z</time>
      </trkpt>
      <trkpt lat="45.38635" lon="2.37628">
        <ele>579.9</ele>
        <time>2022-06-14T10:05:54.000Z</time>
      </trkpt>
      <trkpt lat="45.38636" lon="2.37628">
        <ele>579.8</ele>
        <time>2022-06-14T10:05:55.000Z</time>
      </trkpt>
      <trkpt lat="45.38637" lon="2.37627">
        <ele>579.7</ele>
        <time>2022-06-14T10:05:56.000Z</time>
      </trkpt>
      <trkpt lat="45.38639" lon="2.37627">
        <ele>579.6</ele>
        <time>2022-06-14T10:05:57.000Z</time>
      </trkpt>
      <trkpt lat="45.3864" lon="2.37626">
        <ele>579.5</ele>
        <time>2022-06-14T10:05:58.000Z</time>
      </trkpt>
      <trkpt lat="45.38641" lon="2.37626">
        <ele>579.4</ele>
        <time>2022-06-14T10:05:59.000Z</time>
      </trkpt>
      <trkpt lat="45.38642" lon="2.37626">
        <ele>579.4</ele>
        <time>2022-06-14T10:06:00.000Z</time>
      </trkpt>
      <trkpt lat="45.38644" lon="2.37626">
        <ele>579.3</ele>
        <time>2022-06-14T10:06:01.000Z</time>
      </trkpt>
      <trkpt lat="45.38645" lon="2.37625">
        <ele>579.2</ele>
        <time>2022-06-14T10:06:02.000Z</time>
      </trkpt>
      <trkpt lat="45.38646" lon="2.37625">
        <ele>579.1</ele>
        <time>2022-06-14T10:06:03.000Z</time>
      </trkpt>
      <trkpt lat="45.38647" lon="2.37625">
        <ele>579</ele>
        <time>2022-06-14T10:06:04.000Z</time>
      </trkpt>
      <trkpt lat="45.38648" lon="2.37624">
        <ele>578.9</ele>
        <time>2022-06-14T10:06:05.000Z</time>
      </trkpt>
      <trkpt lat="45.3865" lon="2.37624">
        <ele>578.9</ele>
        <time>2022-06-14T10:06:06.000Z</time>
      </trkpt>
      <trkpt lat="45.38651" lon="2.37624">
        <ele>578.8</ele>
        <time>2022-06-14T10:06:07.000Z</time>
      </trkpt>
      <trkpt lat="45.38652" lon="2.37623">
        <ele>578.7</ele>
        <time>2022-06-14T10:06:08.000Z</time>
      </trkpt>
      <trkpt lat="45.38653" lon="2.37623">
        <ele>578.6</ele>
        <time>2022-06-14T10:06:09.000Z</time>
      </trkpt>
      <trkpt lat="45.38655" lon="2.37622">
        <ele>578.5</ele>
        <time>2022-06-14T10:06:10.000Z</time>
      </trkpt>
      <trkpt lat="45.38656" lon="2.37622">
        <ele>578.4</ele>
        <time>2022-06-14T10:06:11.000Z</time>
      </trkpt>
      <trkpt lat="45.38657" lon="2.37621">
        <ele>578.3</ele>
        <time>2022-06-14T10:06:12.000Z</time>
      </trkpt>
      <trkpt lat="45.38658" lon="2.37621">
        <ele>578.2</ele>
        <time>2022-06-14T10:06:13.000Z</time>
      </trkpt>
      <trkpt lat="45.3866" lon="2.3762">
        <ele>578.1</ele>
        <time>2022-06-14T10:06:14.000Z</time>
      </trkpt>
      <trkpt lat="45.38661" lon="2.3762">
        <ele>578</ele>
        <time>2022-06-14T10:06:15.000Z</time>
      </trkpt>
      <trkpt lat="45.38662" lon="2.37619">
        <ele>577.9</ele>
        <time>2022-06-14T10:06:16.000Z</time>
      </trkpt>
      <trkpt lat="45.38663" lon="2.37619">
        <ele>577.8</ele>
        <time>2022-06-14T10:06:17.000Z</time>
      </trkpt>
      <trkpt lat="45.38664" lon="2.37619">
        <ele>577.7</ele>
        <time>2022-06-14T10:06:18.000Z</time>
      </trkpt>
      <trkpt lat="45.38665" lon="2.37618">
        <ele>577.6</ele>
        <time>2022-06-14T10:06:19.000Z</time>
      </trkpt>
      <trkpt lat="45.38666" lon="2.37617">
        <ele>577.5</ele>
        <time>2022-06-14T10:06:21.000Z</time>
      </trkpt>
      <trkpt lat="45.38667" lon="2.37617">
        <ele>577.4</ele>
        <time>2022-06-14T10:06:22.000Z</time>
      </trkpt>
      <trkpt lat="45.38668" lon="2.37616">
        <ele>577.3</ele>
        <time>2022-06-14T10:06:24.000Z</time>
      </trkpt>
      <trkpt lat="45.38669" lon="2.37616">
        <ele>577.3</ele>
        <time>2022-06-14T10:06:25.000Z</time>
      </trkpt>
      <trkpt lat="45.3867" lon="2.37616">
        <ele>577.2</ele>
        <time>2022-06-14T10:06:26.000Z</time>
      </trkpt>
      <trkpt lat="45.38671" lon="2.37615">
        <ele>577.1</ele>
        <time>2022-06-14T10:06:27.000Z</time>
      </trkpt>
      <trkpt lat="45.38672" lon="2.37615">
        <ele>577</ele>
        <time>2022-06-14T10:06:28.000Z</time>
      </trkpt>
      <trkpt lat="45.38673" lon="2.37614">
        <ele>576.9</ele>
        <time>2022-06-14T10:06:29.000Z</time>
      </trkpt>
      <trkpt lat="45.38674" lon="2.37614">
        <ele>576.8</ele>
        <time>2022-06-14T10:06:30.000Z</time>
      </trkpt>
      <trkpt lat="45.38676" lon="2.37613">
        <ele>576.7</ele>
        <time>2022-06-14T10:06:31.000Z</time>
      </trkpt>
      <trkpt lat="45.38677" lon="2.37613">
        <ele>576.6</ele>
        <time>2022-06-14T10:06:32.000Z</time>
      </trkpt>
      <trkpt lat="45.38678" lon="2.37612">
        <ele>576.5</ele>
        <time>2022-06-14T10:06:33.000Z</time>
      </trkpt>
      <trkpt lat="45.38679" lon="2.37612">
        <ele>576.4</ele>
        <time>2022-06-14T10:06:34.000Z</time>
      </trkpt>
      <trkpt lat="45.3868" lon="2.37611">
        <ele>576.3</ele>
        <time>2022-06-14T10:06:35.000Z</time>
      </trkpt>
      <trkpt lat="45.38682" lon="2.37611">
        <ele>576.2</ele>
        <time>2022-06-14T10:06:36.000Z</time>
      </trkpt>
      <trkpt lat="45.38683" lon="2.3761">
        <ele>576.1</ele>
        <time>2022-06-14T10:06:37.000Z</time>
      </trkpt>
      <trkpt lat="45.38684" lon="2.3761">
        <ele>576</ele>
        <time>2022-06-14T10:06:39.000Z</time>
      </trkpt>
      <trkpt lat="45.38684" lon="2.37609">
        <ele>576</ele>
        <time>2022-06-14T10:06:43.000Z</time>
      </trkpt>
      <trkpt lat="45.38685" lon="2.37609">
        <ele>575.9</ele>
        <time>2022-06-14T10:06:44.000Z</time>
      </trkpt>
      <trkpt lat="45.38686" lon="2.37609">
        <ele>575.8</ele>
        <time>2022-06-14T10:06:46.000Z</time>
      </trkpt>
      <trkpt lat="45.38687" lon="2.37608">
        <ele>575.7</ele>
        <time>2022-06-14T10:06:48.000Z</time>
      </trkpt>
      <trkpt lat="45.38688" lon="2.37608">
        <ele>575.6</ele>
        <time>2022-06-14T10:06:49.000Z</time>
      </trkpt>
      <trkpt lat="45.38689" lon="2.37608">
        <ele>575.5</ele>
        <time>2022-06-14T10:06:50.000Z</time>
      </trkpt>
      <trkpt lat="45.38691" lon="2.37607">
        <ele>575.4</ele>
        <time>2022-06-14T10:06:51.000Z</time>
      </trkpt>
      <trkpt lat="45.38692" lon="2.37607">
        <ele>575.4</ele>
        <time>2022-06-14T10:06:52.000Z</time>
      </trkpt>
      <trkpt lat="45.38693" lon="2.37606">
        <ele>575.2</ele>
        <time>2022-06-14T10:06:53.000Z</time>
      </trkpt>
      <trkpt lat="45.38694" lon="2.37606">
        <ele>575.1</ele>
        <time>2022-06-14T10:06:54.000Z</time>
      </trkpt>
      <trkpt lat="45.38696" lon="2.37605">
        <ele>575</ele>
        <time>2022-06-14T10:06:55.000Z</time>
      </trkpt>
      <trkpt lat="45.38697" lon="2.37605">
        <ele>574.9</ele>
        <time>2022-06-14T10:06:56.000Z</time>
      </trkpt>
      <trkpt lat="45.38698" lon="2.37604">
        <ele>574.9</ele>
        <time>2022-06-14T10:06:57.000Z</time>
      </trkpt>
      <trkpt lat="45.38699" lon="2.37604">
        <ele>574.8</ele>
        <time>2022-06-14T10:06:58.000Z</time>
      </trkpt>
      <trkpt lat="45.387" lon="2.37603">
        <ele>574.6</ele>
        <time>2022-06-14T10:07:00.000Z</time>
      </trkpt>
      <trkpt lat="45.38701" lon="2.37603">
        <ele>574.6</ele>
        <time>2022-06-14T10:07:01.000Z</time>
      </trkpt>
      <trkpt lat="45.38702" lon="2.37603">
        <ele>574.5</ele>
        <time>2022-06-14T10:07:03.000Z</time>
      </trkpt>
      <trkpt lat="45.38702" lon="2.37602">
        <ele>574.4</ele>
        <time>2022-06-14T10:07:09.000Z</time>
      </trkpt>
      <trkpt lat="45.38703" lon="2.37602">
        <ele>574.4</ele>
        <time>2022-06-14T10:07:10.000Z</time>
      </trkpt>
      <trkpt lat="45.38704" lon="2.37602">
        <ele>574.3</ele>
        <time>2022-06-14T10:07:11.000Z</time>
      </trkpt>
      <trkpt lat="45.38705" lon="2.37601">
        <ele>574.2</ele>
        <time>2022-06-14T10:07:12.000Z</time>
      </trkpt>
      <trkpt lat="45.38706" lon="2.37601">
        <ele>574.1</ele>
        <time>2022-06-14T10:07:13.000Z</time>
      </trkpt>
      <trkpt lat="45.38707" lon="2.37601">
        <ele>574</ele>
        <time>2022-06-14T10:07:14.000Z</time>
      </trkpt>
      <trkpt lat="45.38708" lon="2.376">
        <ele>573.9</ele>
        <time>2022-06-14T10:07:15.000Z</time>
      </trkpt>
      <trkpt lat="45.3871" lon="2.376">
        <ele>573.8</ele>
        <time>2022-06-14T10:07:16.000Z</time>
      </trkpt>
      <trkpt lat="45.38711" lon="2.37599">
        <ele>573.7</ele>
        <time>2022-06-14T10:07:17.000Z</time>
      </trkpt>
      <trkpt lat="45.38712" lon="2.37599">
        <ele>573.6</ele>
        <time>2022-06-14T10:07:18.000Z</time>
      </trkpt>
      <trkpt lat="45.38714" lon="2.37598">
        <ele>573.5</ele>
        <time>2022-06-14T10:07:19.000Z</time>
      </trkpt>
      <trkpt lat="45.38715" lon="2.37598">
        <ele>573.4</ele>
        <time>2022-06-14T10:07:20.000Z</time>
      </trkpt>
      <trkpt lat="45.38716" lon="2.37597">
        <ele>573.2</ele>
        <time>2022-06-14T10:07:21.000Z</time>
      </trkpt>
      <trkpt lat="45.38718" lon="2.37597">
        <ele>573.1</ele>
        <time>2022-06-14T10:07:22.000Z</time>
      </trkpt>
      <trkpt lat="45.38719" lon="2.37596">
        <ele>573</ele>
        <time>2022-06-14T10:07:23.000Z</time>
      </trkpt>
      <trkpt lat="45.3872" lon="2.37596">
        <ele>572.9</ele>
        <time>2022-06-14T10:07:24.000Z</time>
      </trkpt>
      <trkpt lat="45.38722" lon="2.37595">
        <ele>572.7</ele>
        <time>2022-06-14T10:07:25.000Z</time>
      </trkpt>
      <trkpt lat="45.38723" lon="2.37595">
        <ele>572.6</ele>
        <time>2022-06-14T10:07:26.000Z</time>
      </trkpt>
      <trkpt lat="45.38724" lon="2.37594">
        <ele>572.5</ele>
        <time>2022-06-14T10:07:27.000Z</time>
      </trkpt>
      <trkpt lat="45.38726" lon="2.37593">
        <ele>572.3</ele>
        <time>2022-06-14T10:07:28.000Z</time>
      </trkpt>
      <trkpt lat="45.38727" lon="2.37593">
        <ele>572.2</ele>
        <time>2022-06-14T10:07:29.000Z</time>
      </trkpt>
      <trkpt lat="45.38728" lon="2.37592">
        <ele>572.1</ele>
        <time>2022-06-14T10:07:30.000Z</time>
      </trkpt>
      <trkpt lat="45.38729" lon="2.37591">
        <ele>571.9</ele>
        <time>2022-06-14T10:07:31.000Z</time>
      </trkpt>
      <trkpt lat="45.38731" lon="2.3759">
        <ele>571.8</ele>
        <time>2022-06-14T10:07:32.000Z</time>
      </trkpt>
      <trkpt lat="45.38732" lon="2.3759">
        <ele>571.6</ele>
        <time>2022-06-14T10:07:33.000Z</time>
      </trkpt>
      <trkpt lat="45.38733" lon="2.37589">
        <ele>571.5</ele>
        <time>2022-06-14T10:07:34.000Z</time>
      </trkpt>
      <trkpt lat="45.38735" lon="2.37588">
        <ele>571.3</ele>
        <time>2022-06-14T10:07:35.000Z</time>
      </trkpt>
      <trkpt lat="45.38736" lon="2.37587">
        <ele>571.2</ele>
        <time>2022-06-14T10:07:36.000Z</time>
      </trkpt>
      <trkpt lat="45.38737" lon="2.37586">
        <ele>571</ele>
        <time>2022-06-14T10:07:37.000Z</time>
      </trkpt>
      <trkpt lat="45.38739" lon="2.37585">
        <ele>570.9</ele>
        <time>2022-06-14T10:07:38.000Z</time>
      </trkpt>
      <trkpt lat="45.3874" lon="2.37585">
        <ele>570.7</ele>
        <time>2022-06-14T10:07:39.000Z</time>
      </trkpt>
      <trkpt lat="45.38741" lon="2.37584">
        <ele>570.5</ele>
        <time>2022-06-14T10:07:40.000Z</time>
      </trkpt>
      <trkpt lat="45.38743" lon="2.37583">
        <ele>570.4</ele>
        <time>2022-06-14T10:07:41.000Z</time>
      </trkpt>
      <trkpt lat="45.38744" lon="2.37582">
        <ele>570.2</ele>
        <time>2022-06-14T10:07:42.000Z</time>
      </trkpt>
      <trkpt lat="45.38745" lon="2.37581">
        <ele>570</ele>
        <time>2022-06-14T10:07:43.000Z</time>
      </trkpt>
      <trkpt lat="45.38747" lon="2.3758">
        <ele>569.8</ele>
        <time>2022-06-14T10:07:44.000Z</time>
      </trkpt>
      <trkpt lat="45.38748" lon="2.37579">
        <ele>569.6</ele>
        <time>2022-06-14T10:07:45.000Z</time>
      </trkpt>
      <trkpt lat="45.38749" lon="2.37578">
        <ele>569.4</ele>
        <time>2022-06-14T10:07:46.000Z</time>
      </trkpt>
      <trkpt lat="45.38751" lon="2.37577">
        <ele>569.3</ele>
        <time>2022-06-14T10:07:47.000Z</time>
      </trkpt>
      <trkpt lat="45.38752" lon="2.37576">
        <ele>569.3</ele>
        <time>2022-06-14T10:07:48.000Z</time>
      </trkpt>
      <trkpt lat="45.38753" lon="2.37575">
        <ele>569.3</ele>
        <time>2022-06-14T10:07:49.000Z</time>
      </trkpt>
      <trkpt lat="45.38754" lon="2.37575">
        <ele>569.3</ele>
        <time>2022-06-14T10:07:50.000Z</time>
      </trkpt>
      <trkpt lat="45.38756" lon="2.37574">
        <ele>569.3</ele>
        <time>2022-06-14T10:07:51.000Z</time>
      </trkpt>
      <trkpt lat="45.38757" lon="2.37573">
        <ele>569.3</ele>
        <time>2022-06-14T10:07:52.000Z</time>
      </trkpt>
      <trkpt lat="45.38758" lon="2.37572">
        <ele>569.3</ele>
        <time>2022-06-14T10:07:53.000Z</time>
      </trkpt>
      <trkpt lat="45.3876" lon="2.37571">
        <ele>569.2</ele>
        <time>2022-06-14T10:07:54.000Z</time>
      </trkpt>
      <trkpt lat="45.38761" lon="2.3757">
        <ele>569.2</ele>
        <time>2022-06-14T10:07:55.000Z</time>
      </trkpt>
      <trkpt lat="45.38762" lon="2.37569">
        <ele>569.2</ele>
        <time>2022-06-14T10:07:56.000Z</time>
      </trkpt>
      <trkpt lat="45.38764" lon="2.37568">
        <ele>569.3</ele>
        <time>2022-06-14T10:07:57.000Z</time>
      </trkpt>
      <trkpt lat="45.38765" lon="2.37567">
        <ele>569.3</ele>
        <time>2022-06-14T10:07:58.000Z</time>
      </trkpt>
      <trkpt lat="45.38766" lon="2.37566">
        <ele>569.3</ele>
        <time>2022-06-14T10:07:59.000Z</time>
      </trkpt>
      <trkpt lat="45.38768" lon="2.37566">
        <ele>569.3</ele>
        <time>2022-06-14T10:08:00.000Z</time>
      </trkpt>
      <trkpt lat="45.38769" lon="2.37565">
        <ele>569.3</ele>
        <time>2022-06-14T10:08:01.000Z</time>
      </trkpt>
      <trkpt lat="45.3877" lon="2.37564">
        <ele>569.3</ele>
        <time>2022-06-14T10:08:02.000Z</time>
      </trkpt>
      <trkpt lat="45.38772" lon="2.37563">
        <ele>569.3</ele>
        <time>2022-06-14T10:08:03.000Z</time>
      </trkpt>
      <trkpt lat="45.38773" lon="2.37562">
        <ele>569.3</ele>
        <time>2022-06-14T10:08:04.000Z</time>
      </trkpt>
      <trkpt lat="45.38774" lon="2.37561">
        <ele>569.3</ele>
        <time>2022-06-14T10:08:05.000Z</time>
      </trkpt>
      <trkpt lat="45.38775" lon="2.3756">
        <ele>569.3</ele>
        <time>2022-06-14T10:08:06.000Z</time>
      </trkpt>
      <trkpt lat="45.38777" lon="2.3756">
        <ele>569.3</ele>
        <time>2022-06-14T10:08:07.000Z</time>
      </trkpt>
      <trkpt lat="45.38778" lon="2.37559">
        <ele>569.3</ele>
        <time>2022-06-14T10:08:08.000Z</time>
      </trkpt>
      <trkpt lat="45.38779" lon="2.37558">
        <ele>569.4</ele>
        <time>2022-06-14T10:08:09.000Z</time>
      </trkpt>
      <trkpt lat="45.38781" lon="2.37557">
        <ele>569.4</ele>
        <time>2022-06-14T10:08:10.000Z</time>
      </trkpt>
      <trkpt lat="45.38782" lon="2.37556">
        <ele>569.4</ele>
        <time>2022-06-14T10:08:11.000Z</time>
      </trkpt>
      <trkpt lat="45.38783" lon="2.37556">
        <ele>569.4</ele>
        <time>2022-06-14T10:08:12.000Z</time>
      </trkpt>
      <trkpt lat="45.38784" lon="2.37555">
        <ele>569.5</ele>
        <time>2022-06-14T10:08:13.000Z</time>
      </trkpt>
      <trkpt lat="45.38786" lon="2.37554">
        <ele>569.5</ele>
        <time>2022-06-14T10:08:14.000Z</time>
      </trkpt>
      <trkpt lat="45.38787" lon="2.37553">
        <ele>569.5</ele>
        <time>2022-06-14T10:08:15.000Z</time>
      </trkpt>
      <trkpt lat="45.38788" lon="2.37552">
        <ele>569.5</ele>
        <time>2022-06-14T10:08:16.000Z</time>
      </trkpt>
      <trkpt lat="45.38789" lon="2.37552">
        <ele>569.6</ele>
        <time>2022-06-14T10:08:17.000Z</time>
      </trkpt>
      <trkpt lat="45.38791" lon="2.37551">
        <ele>569.6</ele>
        <time>2022-06-14T10:08:18.000Z</time>
      </trkpt>
      <trkpt lat="45.38792" lon="2.3755">
        <ele>569.6</ele>
        <time>2022-06-14T10:08:19.000Z</time>
      </trkpt>
      <trkpt lat="45.38793" lon="2.37549">
        <ele>569.7</ele>
        <time>2022-06-14T10:08:20.000Z</time>
      </trkpt>
      <trkpt lat="45.38794" lon="2.37549">
        <ele>569.7</ele>
        <time>2022-06-14T10:08:21.000Z</time>
      </trkpt>
      <trkpt lat="45.38796" lon="2.37548">
        <ele>569.7</ele>
        <time>2022-06-14T10:08:22.000Z</time>
      </trkpt>
      <trkpt lat="45.38797" lon="2.37547">
        <ele>569.8</ele>
        <time>2022-06-14T10:08:23.000Z</time>
      </trkpt>
      <trkpt lat="45.38798" lon="2.37546">
        <ele>569.8</ele>
        <time>2022-06-14T10:08:24.000Z</time>
      </trkpt>
      <trkpt lat="45.38799" lon="2.37546">
        <ele>569.8</ele>
        <time>2022-06-14T10:08:25.000Z</time>
      </trkpt>
      <trkpt lat="45.38801" lon="2.37545">
        <ele>569.9</ele>
        <time>2022-06-14T10:08:26.000Z</time>
      </trkpt>
      <trkpt lat="45.38802" lon="2.37544">
        <ele>569.9</ele>
        <time>2022-06-14T10:08:27.000Z</time>
      </trkpt>
      <trkpt lat="45.38803" lon="2.37543">
        <ele>569.9</ele>
        <time>2022-06-14T10:08:28.000Z</time>
      </trkpt>
      <trkpt lat="45.38805" lon="2.37542">
        <ele>570</ele>
        <time>2022-06-14T10:08:29.000Z</time>
      </trkpt>
      <trkpt lat="45.38806" lon="2.37542">
        <ele>570</ele>
        <time>2022-06-14T10:08:30.000Z</time>
      </trkpt>
      <trkpt lat="45.38807" lon="2.37541">
        <ele>570</ele>
        <time>2022-06-14T10:08:31.000Z</time>
      </trkpt>
      <trkpt lat="45.38809" lon="2.3754">
        <ele>570.1</ele>
        <time>2022-06-14T10:08:32.000Z</time>
      </trkpt>
      <trkpt lat="45.3881" lon="2.37539">
        <ele>570.1</ele>
        <time>2022-06-14T10:08:33.000Z</time>
      </trkpt>
      <trkpt lat="45.38811" lon="2.37538">
        <ele>570.2</ele>
        <time>2022-06-14T10:08:34.000Z</time>
      </trkpt>
      <trkpt lat="45.38813" lon="2.37537">
        <ele>570.2</ele>
        <time>2022-06-14T10:08:35.000Z</time>
      </trkpt>
      <trkpt lat="45.38814" lon="2.37536">
        <ele>570.2</ele>
        <time>2022-06-14T10:08:36.000Z</time>
      </trkpt>
      <trkpt lat="45.38815" lon="2.37535">
        <ele>570.2</ele>
        <time>2022-06-14T10:08:37.000Z</time>
      </trkpt>
      <trkpt lat="45.38816" lon="2.37534">
        <ele>570.3</ele>
        <time>2022-06-14T10:08:38.000Z</time>
      </trkpt>
      <trkpt lat="45.38818" lon="2.37533">
        <ele>570.3</ele>
        <time>2022-06-14T10:08:39.000Z</time>
      </trkpt>
      <trkpt lat="45.38819" lon="2.37532">
        <ele>570.3</ele>
        <time>2022-06-14T10:08:40.000Z</time>
      </trkpt>
      <trkpt lat="45.3882" lon="2.37531">
        <ele>570.4</ele>
        <time>2022-06-14T10:08:41.000Z</time>
      </trkpt>
      <trkpt lat="45.38821" lon="2.3753">
        <ele>570.4</ele>
        <time>2022-06-14T10:08:42.000Z</time>
      </trkpt>
      <trkpt lat="45.38822" lon="2.37529">
        <ele>570.4</ele>
        <time>2022-06-14T10:08:43.000Z</time>
      </trkpt>
      <trkpt lat="45.38823" lon="2.37528">
        <ele>570.4</ele>
        <time>2022-06-14T10:08:44.000Z</time>
      </trkpt>
      <trkpt lat="45.38824" lon="2.37527">
        <ele>570.4</ele>
        <time>2022-06-14T10:08:45.000Z</time>
      </trkpt>
      <trkpt lat="45.38825" lon="2.37526">
        <ele>570.4</ele>
        <time>2022-06-14T10:08:46.000Z</time>
      </trkpt>
      <trkpt lat="45.38826" lon="2.37525">
        <ele>570.4</ele>
        <time>2022-06-14T10:08:47.000Z</time>
      </trkpt>
      <trkpt lat="45.38827" lon="2.37524">
        <ele>570.4</ele>
        <time>2022-06-14T10:08:48.000Z</time>
      </trkpt>
      <trkpt lat="45.38828" lon="2.37523">
        <ele>570.4</ele>
        <time>2022-06-14T10:08:49.000Z</time>
      </trkpt>
      <trkpt lat="45.38829" lon="2.37522">
        <ele>570.4</ele>
        <time>2022-06-14T10:08:50.000Z</time>
      </trkpt>
      <trkpt lat="45.3883" lon="2.3752">
        <ele>570.4</ele>
        <time>2022-06-14T10:08:51.000Z</time>
      </trkpt>
      <trkpt lat="45.38831" lon="2.37519">
        <ele>570.4</ele>
        <time>2022-06-14T10:08:52.000Z</time>
      </trkpt>
      <trkpt lat="45.38832" lon="2.37517">
        <ele>570.4</ele>
        <time>2022-06-14T10:08:53.000Z</time>
      </trkpt>
      <trkpt lat="45.38833" lon="2.37516">
        <ele>570.3</ele>
        <time>2022-06-14T10:08:54.000Z</time>
      </trkpt>
      <trkpt lat="45.38834" lon="2.37515">
        <ele>570.3</ele>
        <time>2022-06-14T10:08:55.000Z</time>
      </trkpt>
      <trkpt lat="45.38835" lon="2.37513">
        <ele>570.2</ele>
        <time>2022-06-14T10:08:56.000Z</time>
      </trkpt>
      <trkpt lat="45.38836" lon="2.37512">
        <ele>570.2</ele>
        <time>2022-06-14T10:08:57.000Z</time>
      </trkpt>
      <trkpt lat="45.38837" lon="2.3751">
        <ele>570.1</ele>
        <time>2022-06-14T10:08:58.000Z</time>
      </trkpt>
      <trkpt lat="45.38838" lon="2.37509">
        <ele>570</ele>
        <time>2022-06-14T10:08:59.000Z</time>
      </trkpt>
      <trkpt lat="45.38838" lon="2.37508">
        <ele>570</ele>
        <time>2022-06-14T10:09:00.000Z</time>
      </trkpt>
      <trkpt lat="45.38839" lon="2.37507">
        <ele>569.9</ele>
        <time>2022-06-14T10:09:01.000Z</time>
      </trkpt>
      <trkpt lat="45.38839" lon="2.37506">
        <ele>569.9</ele>
        <time>2022-06-14T10:09:02.000Z</time>
      </trkpt>
      <trkpt lat="45.3884" lon="2.37505">
        <ele>569.9</ele>
        <time>2022-06-14T10:09:03.000Z</time>
      </trkpt>
      <trkpt lat="45.3884" lon="2.37504">
        <ele>569.8</ele>
        <time>2022-06-14T10:09:04.000Z</time>
      </trkpt>
      <trkpt lat="45.38841" lon="2.37503">
        <ele>569.8</ele>
        <time>2022-06-14T10:09:07.000Z</time>
      </trkpt>
      <trkpt lat="45.38841" lon="2.37504">
        <ele>569.8</ele>
        <time>2022-06-14T10:09:09.000Z</time>
      </trkpt>
      <trkpt lat="45.38841" lon="2.37503">
        <ele>569.8</ele>
        <time>2022-06-14T10:09:11.000Z</time>
      </trkpt>
      <trkpt lat="45.38841" lon="2.37502">
        <ele>569.7</ele>
        <time>2022-06-14T10:09:14.000Z</time>
      </trkpt>
      <trkpt lat="45.38842" lon="2.37502">
        <ele>569.7</ele>
        <time>2022-06-14T10:09:15.000Z</time>
      </trkpt>
      <trkpt lat="45.38842" lon="2.37501">
        <ele>569.7</ele>
        <time>2022-06-14T10:09:16.000Z</time>
      </trkpt>
      <trkpt lat="45.38843" lon="2.37499">
        <ele>569.6</ele>
        <time>2022-06-14T10:09:17.000Z</time>
      </trkpt>
      <trkpt lat="45.38844" lon="2.37498">
        <ele>569.6</ele>
        <time>2022-06-14T10:09:18.000Z</time>
      </trkpt>
      <trkpt lat="45.38844" lon="2.37497">
        <ele>569.6</ele>
        <time>2022-06-14T10:09:19.000Z</time>
      </trkpt>
      <trkpt lat="45.38845" lon="2.37495">
        <ele>569.6</ele>
        <time>2022-06-14T10:09:20.000Z</time>
      </trkpt>
      <trkpt lat="45.38846" lon="2.37494">
        <ele>569.6</ele>
        <time>2022-06-14T10:09:21.000Z</time>
      </trkpt>
      <trkpt lat="45.38847" lon="2.37492">
        <ele>569.6</ele>
        <time>2022-06-14T10:09:22.000Z</time>
      </trkpt>
      <trkpt lat="45.38847" lon="2.37491">
        <ele>569.6</ele>
        <time>2022-06-14T10:09:23.000Z</time>
      </trkpt>
      <trkpt lat="45.38848" lon="2.3749">
        <ele>569.6</ele>
        <time>2022-06-14T10:09:24.000Z</time>
      </trkpt>
      <trkpt lat="45.38848" lon="2.37489">
        <ele>569.5</ele>
        <time>2022-06-14T10:09:25.000Z</time>
      </trkpt>
      <trkpt lat="45.38848" lon="2.37488">
        <ele>569.5</ele>
        <time>2022-06-14T10:09:26.000Z</time>
      </trkpt>
      <trkpt lat="45.38849" lon="2.37487">
        <ele>569.5</ele>
        <time>2022-06-14T10:09:27.000Z</time>
      </trkpt>
      <trkpt lat="45.38849" lon="2.37486">
        <ele>569.6</ele>
        <time>2022-06-14T10:09:28.000Z</time>
      </trkpt>
      <trkpt lat="45.3885" lon="2.37485">
        <ele>569.6</ele>
        <time>2022-06-14T10:09:29.000Z</time>
      </trkpt>
      <trkpt lat="45.38851" lon="2.37484">
        <ele>569.6</ele>
        <time>2022-06-14T10:09:30.000Z</time>
      </trkpt>
      <trkpt lat="45.38852" lon="2.37483">
        <ele>569.6</ele>
        <time>2022-06-14T10:09:31.000Z</time>
      </trkpt>
      <trkpt lat="45.38853" lon="2.37481">
        <ele>569.6</ele>
        <time>2022-06-14T10:09:32.000Z</time>
      </trkpt>
      <trkpt lat="45.38854" lon="2.3748">
        <ele>569.6</ele>
        <time>2022-06-14T10:09:33.000Z</time>
      </trkpt>
      <trkpt lat="45.38855" lon="2.37478">
        <ele>569.6</ele>
        <time>2022-06-14T10:09:34.000Z</time>
      </trkpt>
      <trkpt lat="45.38855" lon="2.37477">
        <ele>569.6</ele>
        <time>2022-06-14T10:09:35.000Z</time>
      </trkpt>
      <trkpt lat="45.38856" lon="2.37475">
        <ele>569.6</ele>
        <time>2022-06-14T10:09:36.000Z</time>
      </trkpt>
      <trkpt lat="45.38857" lon="2.37474">
        <ele>569.6</ele>
        <time>2022-06-14T10:09:37.000Z</time>
      </trkpt>
      <trkpt lat="45.38858" lon="2.37472">
        <ele>569.6</ele>
        <time>2022-06-14T10:09:38.000Z</time>
      </trkpt>
      <trkpt lat="45.38859" lon="2.37471">
        <ele>569.6</ele>
        <time>2022-06-14T10:09:39.000Z</time>
      </trkpt>
      <trkpt lat="45.38859" lon="2.37469">
        <ele>569.6</ele>
        <time>2022-06-14T10:09:40.000Z</time>
      </trkpt>
      <trkpt lat="45.3886" lon="2.37468">
        <ele>569.6</ele>
        <time>2022-06-14T10:09:41.000Z</time>
      </trkpt>
      <trkpt lat="45.38861" lon="2.37467">
        <ele>569.6</ele>
        <time>2022-06-14T10:09:42.000Z</time>
      </trkpt>
      <trkpt lat="45.38861" lon="2.37465">
        <ele>569.6</ele>
        <time>2022-06-14T10:09:43.000Z</time>
      </trkpt>
      <trkpt lat="45.38862" lon="2.37464">
        <ele>569.6</ele>
        <time>2022-06-14T10:09:44.000Z</time>
      </trkpt>
      <trkpt lat="45.38863" lon="2.37462">
        <ele>569.6</ele>
        <time>2022-06-14T10:09:45.000Z</time>
      </trkpt>
      <trkpt lat="45.38863" lon="2.37461">
        <ele>569.6</ele>
        <time>2022-06-14T10:09:46.000Z</time>
      </trkpt>
      <trkpt lat="45.38864" lon="2.37459">
        <ele>569.6</ele>
        <time>2022-06-14T10:09:47.000Z</time>
      </trkpt>
      <trkpt lat="45.38865" lon="2.37458">
        <ele>569.6</ele>
        <time>2022-06-14T10:09:48.000Z</time>
      </trkpt>
      <trkpt lat="45.38865" lon="2.37457">
        <ele>569.6</ele>
        <time>2022-06-14T10:09:49.000Z</time>
      </trkpt>
      <trkpt lat="45.38866" lon="2.37455">
        <ele>569.6</ele>
        <time>2022-06-14T10:09:50.000Z</time>
      </trkpt>
      <trkpt lat="45.38867" lon="2.37454">
        <ele>569.6</ele>
        <time>2022-06-14T10:09:51.000Z</time>
      </trkpt>
      <trkpt lat="45.38868" lon="2.37452">
        <ele>569.6</ele>
        <time>2022-06-14T10:09:52.000Z</time>
      </trkpt>
      <trkpt lat="45.38868" lon="2.37451">
        <ele>569.6</ele>
        <time>2022-06-14T10:09:53.000Z</time>
      </trkpt>
      <trkpt lat="45.38869" lon="2.37449">
        <ele>569.7</ele>
        <time>2022-06-14T10:09:54.000Z</time>
      </trkpt>
      <trkpt lat="45.3887" lon="2.37448">
        <ele>569.7</ele>
        <time>2022-06-14T10:09:55.000Z</time>
      </trkpt>
      <trkpt lat="45.38871" lon="2.37447">
        <ele>569.7</ele>
        <time>2022-06-14T10:09:56.000Z</time>
      </trkpt>
      <trkpt lat="45.38872" lon="2.37445">
        <ele>569.7</ele>
        <time>2022-06-14T10:09:57.000Z</time>
      </trkpt>
      <trkpt lat="45.38873" lon="2.37444">
        <ele>569.8</ele>
        <time>2022-06-14T10:09:58.000Z</time>
      </trkpt>
      <trkpt lat="45.38874" lon="2.37442">
        <ele>569.8</ele>
        <time>2022-06-14T10:09:59.000Z</time>
      </trkpt>
      <trkpt lat="45.38875" lon="2.37441">
        <ele>569.8</ele>
        <time>2022-06-14T10:10:00.000Z</time>
      </trkpt>
      <trkpt lat="45.38876" lon="2.3744">
        <ele>569.9</ele>
        <time>2022-06-14T10:10:01.000Z</time>
      </trkpt>
      <trkpt lat="45.38877" lon="2.37438">
        <ele>569.9</ele>
        <time>2022-06-14T10:10:02.000Z</time>
      </trkpt>
      <trkpt lat="45.38878" lon="2.37437">
        <ele>570</ele>
        <time>2022-06-14T10:10:03.000Z</time>
      </trkpt>
      <trkpt lat="45.38879" lon="2.37436">
        <ele>570</ele>
        <time>2022-06-14T10:10:04.000Z</time>
      </trkpt>
      <trkpt lat="45.3888" lon="2.37435">
        <ele>570.1</ele>
        <time>2022-06-14T10:10:05.000Z</time>
      </trkpt>
      <trkpt lat="45.38881" lon="2.37433">
        <ele>570.1</ele>
        <time>2022-06-14T10:10:06.000Z</time>
      </trkpt>
      <trkpt lat="45.38882" lon="2.37432">
        <ele>570.2</ele>
        <time>2022-06-14T10:10:07.000Z</time>
      </trkpt>
      <trkpt lat="45.38883" lon="2.37431">
        <ele>570.2</ele>
        <time>2022-06-14T10:10:08.000Z</time>
      </trkpt>
      <trkpt lat="45.38884" lon="2.3743">
        <ele>570.3</ele>
        <time>2022-06-14T10:10:09.000Z</time>
      </trkpt>
      <trkpt lat="45.38885" lon="2.37428">
        <ele>570.4</ele>
        <time>2022-06-14T10:10:10.000Z</time>
      </trkpt>
      <trkpt lat="45.38886" lon="2.37427">
        <ele>570.4</ele>
        <time>2022-06-14T10:10:11.000Z</time>
      </trkpt>
      <trkpt lat="45.38888" lon="2.37426">
        <ele>570.5</ele>
        <time>2022-06-14T10:10:12.000Z</time>
      </trkpt>
      <trkpt lat="45.38889" lon="2.37425">
        <ele>570.6</ele>
        <time>2022-06-14T10:10:13.000Z</time>
      </trkpt>
      <trkpt lat="45.3889" lon="2.37424">
        <ele>570.6</ele>
        <time>2022-06-14T10:10:14.000Z</time>
      </trkpt>
      <trkpt lat="45.38891" lon="2.37423">
        <ele>570.7</ele>
        <time>2022-06-14T10:10:15.000Z</time>
      </trkpt>
      <trkpt lat="45.38892" lon="2.37421">
        <ele>570.8</ele>
        <time>2022-06-14T10:10:16.000Z</time>
      </trkpt>
      <trkpt lat="45.38893" lon="2.3742">
        <ele>570.9</ele>
        <time>2022-06-14T10:10:17.000Z</time>
      </trkpt>
      <trkpt lat="45.38894" lon="2.37419">
        <ele>570.9</ele>
        <time>2022-06-14T10:10:18.000Z</time>
      </trkpt>
      <trkpt lat="45.38896" lon="2.37418">
        <ele>571</ele>
        <time>2022-06-14T10:10:19.000Z</time>
      </trkpt>
      <trkpt lat="45.38897" lon="2.37417">
        <ele>571.1</ele>
        <time>2022-06-14T10:10:20.000Z</time>
      </trkpt>
      <trkpt lat="45.38898" lon="2.37416">
        <ele>571.2</ele>
        <time>2022-06-14T10:10:21.000Z</time>
      </trkpt>
      <trkpt lat="45.38899" lon="2.37415">
        <ele>571.2</ele>
        <time>2022-06-14T10:10:22.000Z</time>
      </trkpt>
      <trkpt lat="45.389" lon="2.37414">
        <ele>571.3</ele>
        <time>2022-06-14T10:10:23.000Z</time>
      </trkpt>
      <trkpt lat="45.38901" lon="2.37413">
        <ele>571.4</ele>
        <time>2022-06-14T10:10:24.000Z</time>
      </trkpt>
      <trkpt lat="45.38902" lon="2.37412">
        <ele>571.5</ele>
        <time>2022-06-14T10:10:25.000Z</time>
      </trkpt>
      <trkpt lat="45.38903" lon="2.37411">
        <ele>571.5</ele>
        <time>2022-06-14T10:10:26.000Z</time>
      </trkpt>
      <trkpt lat="45.38905" lon="2.3741">
        <ele>571.6</ele>
        <time>2022-06-14T10:10:27.000Z</time>
      </trkpt>
      <trkpt lat="45.38906" lon="2.37409">
        <ele>571.7</ele>
        <time>2022-06-14T10:10:28.000Z</time>
      </trkpt>
      <trkpt lat="45.38907" lon="2.37408">
        <ele>571.8</ele>
        <time>2022-06-14T10:10:29.000Z</time>
      </trkpt>
      <trkpt lat="45.38908" lon="2.37407">
        <ele>571.9</ele>
        <time>2022-06-14T10:10:30.000Z</time>
      </trkpt>
      <trkpt lat="45.38909" lon="2.37406">
        <ele>572</ele>
        <time>2022-06-14T10:10:31.000Z</time>
      </trkpt>
      <trkpt lat="45.3891" lon="2.37405">
        <ele>572</ele>
        <time>2022-06-14T10:10:32.000Z</time>
      </trkpt>
      <trkpt lat="45.38911" lon="2.37404">
        <ele>572.1</ele>
        <time>2022-06-14T10:10:33.000Z</time>
      </trkpt>
      <trkpt lat="45.38912" lon="2.37403">
        <ele>572.2</ele>
        <time>2022-06-14T10:10:34.000Z</time>
      </trkpt>
      <trkpt lat="45.38914" lon="2.37402">
        <ele>572.3</ele>
        <time>2022-06-14T10:10:35.000Z</time>
      </trkpt>
      <trkpt lat="45.38915" lon="2.37401">
        <ele>572.4</ele>
        <time>2022-06-14T10:10:36.000Z</time>
      </trkpt>
      <trkpt lat="45.38916" lon="2.374">
        <ele>572.5</ele>
        <time>2022-06-14T10:10:37.000Z</time>
      </trkpt>
      <trkpt lat="45.38917" lon="2.37399">
        <ele>572.6</ele>
        <time>2022-06-14T10:10:38.000Z</time>
      </trkpt>
      <trkpt lat="45.38918" lon="2.37398">
        <ele>572.6</ele>
        <time>2022-06-14T10:10:39.000Z</time>
      </trkpt>
      <trkpt lat="45.38919" lon="2.37398">
        <ele>572.6</ele>
        <time>2022-06-14T10:10:40.000Z</time>
      </trkpt>
      <trkpt lat="45.3892" lon="2.37397">
        <ele>572.6</ele>
        <time>2022-06-14T10:10:41.000Z</time>
      </trkpt>
      <trkpt lat="45.38921" lon="2.37396">
        <ele>572.6</ele>
        <time>2022-06-14T10:10:42.000Z</time>
      </trkpt>
      <trkpt lat="45.38923" lon="2.37395">
        <ele>572.6</ele>
        <time>2022-06-14T10:10:43.000Z</time>
      </trkpt>
      <trkpt lat="45.38924" lon="2.37394">
        <ele>572.6</ele>
        <time>2022-06-14T10:10:44.000Z</time>
      </trkpt>
      <trkpt lat="45.38925" lon="2.37393">
        <ele>572.6</ele>
        <time>2022-06-14T10:10:45.000Z</time>
      </trkpt>
      <trkpt lat="45.38926" lon="2.37392">
        <ele>572.6</ele>
        <time>2022-06-14T10:10:46.000Z</time>
      </trkpt>
      <trkpt lat="45.38927" lon="2.37391">
        <ele>572.6</ele>
        <time>2022-06-14T10:10:47.000Z</time>
      </trkpt>
      <trkpt lat="45.38928" lon="2.3739">
        <ele>572.6</ele>
        <time>2022-06-14T10:10:48.000Z</time>
      </trkpt>
      <trkpt lat="45.38929" lon="2.37389">
        <ele>572.6</ele>
        <time>2022-06-14T10:10:49.000Z</time>
      </trkpt>
      <trkpt lat="45.38931" lon="2.37388">
        <ele>572.6</ele>
        <time>2022-06-14T10:10:50.000Z</time>
      </trkpt>
      <trkpt lat="45.38932" lon="2.37387">
        <ele>572.6</ele>
        <time>2022-06-14T10:10:51.000Z</time>
      </trkpt>
      <trkpt lat="45.38933" lon="2.37386">
        <ele>572.6</ele>
        <time>2022-06-14T10:10:52.000Z</time>
      </trkpt>
      <trkpt lat="45.38934" lon="2.37385">
        <ele>572.6</ele>
        <time>2022-06-14T10:10:53.000Z</time>
      </trkpt>
      <trkpt lat="45.38935" lon="2.37384">
        <ele>572.6</ele>
        <time>2022-06-14T10:10:54.000Z</time>
      </trkpt>
      <trkpt lat="45.38936" lon="2.37383">
        <ele>572.6</ele>
        <time>2022-06-14T10:10:55.000Z</time>
      </trkpt>
      <trkpt lat="45.38938" lon="2.37382">
        <ele>572.6</ele>
        <time>2022-06-14T10:10:56.000Z</time>
      </trkpt>
      <trkpt lat="45.38939" lon="2.37381">
        <ele>572.6</ele>
        <time>2022-06-14T10:10:57.000Z</time>
      </trkpt>
      <trkpt lat="45.3894" lon="2.3738">
        <ele>572.6</ele>
        <time>2022-06-14T10:10:58.000Z</time>
      </trkpt>
      <trkpt lat="45.38941" lon="2.37379">
        <ele>572.6</ele>
        <time>2022-06-14T10:10:59.000Z</time>
      </trkpt>
      <trkpt lat="45.38942" lon="2.37378">
        <ele>572.7</ele>
        <time>2022-06-14T10:11:00.000Z</time>
      </trkpt>
      <trkpt lat="45.38943" lon="2.37377">
        <ele>572.7</ele>
        <time>2022-06-14T10:11:01.000Z</time>
      </trkpt>
      <trkpt lat="45.38945" lon="2.37376">
        <ele>572.7</ele>
        <time>2022-06-14T10:11:02.000Z</time>
      </trkpt>
      <trkpt lat="45.38946" lon="2.37375">
        <ele>572.7</ele>
        <time>2022-06-14T10:11:03.000Z</time>
      </trkpt>
      <trkpt lat="45.38947" lon="2.37374">
        <ele>572.7</ele>
        <time>2022-06-14T10:11:04.000Z</time>
      </trkpt>
      <trkpt lat="45.38948" lon="2.37373">
        <ele>572.7</ele>
        <time>2022-06-14T10:11:05.000Z</time>
      </trkpt>
      <trkpt lat="45.38949" lon="2.37371">
        <ele>572.7</ele>
        <time>2022-06-14T10:11:06.000Z</time>
      </trkpt>
      <trkpt lat="45.3895" lon="2.3737">
        <ele>572.7</ele>
        <time>2022-06-14T10:11:07.000Z</time>
      </trkpt>
      <trkpt lat="45.38952" lon="2.37369">
        <ele>572.8</ele>
        <time>2022-06-14T10:11:08.000Z</time>
      </trkpt>
      <trkpt lat="45.38953" lon="2.37368">
        <ele>572.8</ele>
        <time>2022-06-14T10:11:09.000Z</time>
      </trkpt>
      <trkpt lat="45.38954" lon="2.37367">
        <ele>572.8</ele>
        <time>2022-06-14T10:11:10.000Z</time>
      </trkpt>
      <trkpt lat="45.38955" lon="2.37366">
        <ele>572.8</ele>
        <time>2022-06-14T10:11:11.000Z</time>
      </trkpt>
      <trkpt lat="45.38956" lon="2.37365">
        <ele>572.8</ele>
        <time>2022-06-14T10:11:12.000Z</time>
      </trkpt>
      <trkpt lat="45.38957" lon="2.37364">
        <ele>572.8</ele>
        <time>2022-06-14T10:11:13.000Z</time>
      </trkpt>
      <trkpt lat="45.38958" lon="2.37363">
        <ele>572.9</ele>
        <time>2022-06-14T10:11:14.000Z</time>
      </trkpt>
      <trkpt lat="45.3896" lon="2.37362">
        <ele>572.9</ele>
        <time>2022-06-14T10:11:15.000Z</time>
      </trkpt>
      <trkpt lat="45.38961" lon="2.37361">
        <ele>572.9</ele>
        <time>2022-06-14T10:11:16.000Z</time>
      </trkpt>
      <trkpt lat="45.38962" lon="2.37359">
        <ele>572.9</ele>
        <time>2022-06-14T10:11:17.000Z</time>
      </trkpt>
      <trkpt lat="45.38963" lon="2.37358">
        <ele>572.9</ele>
        <time>2022-06-14T10:11:18.000Z</time>
      </trkpt>
      <trkpt lat="45.38964" lon="2.37357">
        <ele>572.9</ele>
        <time>2022-06-14T10:11:19.000Z</time>
      </trkpt>
      <trkpt lat="45.38965" lon="2.37356">
        <ele>573</ele>
        <time>2022-06-14T10:11:20.000Z</time>
      </trkpt>
      <trkpt lat="45.38966" lon="2.37355">
        <ele>573</ele>
        <time>2022-06-14T10:11:21.000Z</time>
      </trkpt>
      <trkpt lat="45.38967" lon="2.37354">
        <ele>573</ele>
        <time>2022-06-14T10:11:22.000Z</time>
      </trkpt>
      <trkpt lat="45.38968" lon="2.37353">
        <ele>573</ele>
        <time>2022-06-14T10:11:23.000Z</time>
      </trkpt>
      <trkpt lat="45.38969" lon="2.37352">
        <ele>573</ele>
        <time>2022-06-14T10:11:24.000Z</time>
      </trkpt>
      <trkpt lat="45.38969" lon="2.3735">
        <ele>573</ele>
        <time>2022-06-14T10:11:25.000Z</time>
      </trkpt>
      <trkpt lat="45.3897" lon="2.37349">
        <ele>573.1</ele>
        <time>2022-06-14T10:11:26.000Z</time>
      </trkpt>
      <trkpt lat="45.38971" lon="2.37348">
        <ele>573.1</ele>
        <time>2022-06-14T10:11:27.000Z</time>
      </trkpt>
      <trkpt lat="45.38972" lon="2.37347">
        <ele>573.1</ele>
        <time>2022-06-14T10:11:28.000Z</time>
      </trkpt>
      <trkpt lat="45.38973" lon="2.37346">
        <ele>573.1</ele>
        <time>2022-06-14T10:11:29.000Z</time>
      </trkpt>
      <trkpt lat="45.38974" lon="2.37345">
        <ele>573.1</ele>
        <time>2022-06-14T10:11:30.000Z</time>
      </trkpt>
      <trkpt lat="45.38975" lon="2.37344">
        <ele>573.2</ele>
        <time>2022-06-14T10:11:31.000Z</time>
      </trkpt>
      <trkpt lat="45.38975" lon="2.37343">
        <ele>573.2</ele>
        <time>2022-06-14T10:11:32.000Z</time>
      </trkpt>
      <trkpt lat="45.38976" lon="2.37342">
        <ele>573.2</ele>
        <time>2022-06-14T10:11:33.000Z</time>
      </trkpt>
      <trkpt lat="45.38977" lon="2.37341">
        <ele>573.2</ele>
        <time>2022-06-14T10:11:34.000Z</time>
      </trkpt>
      <trkpt lat="45.38978" lon="2.37339">
        <ele>573.3</ele>
        <time>2022-06-14T10:11:35.000Z</time>
      </trkpt>
      <trkpt lat="45.38979" lon="2.37338">
        <ele>573.3</ele>
        <time>2022-06-14T10:11:36.000Z</time>
      </trkpt>
      <trkpt lat="45.3898" lon="2.37337">
        <ele>573.3</ele>
        <time>2022-06-14T10:11:37.000Z</time>
      </trkpt>
      <trkpt lat="45.38981" lon="2.37336">
        <ele>573.3</ele>
        <time>2022-06-14T10:11:38.000Z</time>
      </trkpt>
      <trkpt lat="45.38982" lon="2.37335">
        <ele>573.4</ele>
        <time>2022-06-14T10:11:39.000Z</time>
      </trkpt>
      <trkpt lat="45.38983" lon="2.37334">
        <ele>573.4</ele>
        <time>2022-06-14T10:11:40.000Z</time>
      </trkpt>
      <trkpt lat="45.38984" lon="2.37333">
        <ele>573.4</ele>
        <time>2022-06-14T10:11:41.000Z</time>
      </trkpt>
      <trkpt lat="45.38986" lon="2.37332">
        <ele>573.4</ele>
        <time>2022-06-14T10:11:42.000Z</time>
      </trkpt>
      <trkpt lat="45.38987" lon="2.37331">
        <ele>573.4</ele>
        <time>2022-06-14T10:11:43.000Z</time>
      </trkpt>
      <trkpt lat="45.38988" lon="2.3733">
        <ele>573.3</ele>
        <time>2022-06-14T10:11:44.000Z</time>
      </trkpt>
      <trkpt lat="45.38989" lon="2.37328">
        <ele>573.3</ele>
        <time>2022-06-14T10:11:45.000Z</time>
      </trkpt>
      <trkpt lat="45.3899" lon="2.37327">
        <ele>573.3</ele>
        <time>2022-06-14T10:11:46.000Z</time>
      </trkpt>
      <trkpt lat="45.38991" lon="2.37326">
        <ele>573.3</ele>
        <time>2022-06-14T10:11:47.000Z</time>
      </trkpt>
      <trkpt lat="45.38992" lon="2.37325">
        <ele>573.2</ele>
        <time>2022-06-14T10:11:48.000Z</time>
      </trkpt>
      <trkpt lat="45.38993" lon="2.37323">
        <ele>573.2</ele>
        <time>2022-06-14T10:11:49.000Z</time>
      </trkpt>
      <trkpt lat="45.38994" lon="2.37322">
        <ele>573.2</ele>
        <time>2022-06-14T10:11:50.000Z</time>
      </trkpt>
      <trkpt lat="45.38995" lon="2.37321">
        <ele>573.2</ele>
        <time>2022-06-14T10:11:51.000Z</time>
      </trkpt>
      <trkpt lat="45.38997" lon="2.37319">
        <ele>573.2</ele>
        <time>2022-06-14T10:11:52.000Z</time>
      </trkpt>
      <trkpt lat="45.38998" lon="2.37318">
        <ele>573.1</ele>
        <time>2022-06-14T10:11:53.000Z</time>
      </trkpt>
      <trkpt lat="45.38999" lon="2.37317">
        <ele>573.1</ele>
        <time>2022-06-14T10:11:54.000Z</time>
      </trkpt>
      <trkpt lat="45.39" lon="2.37315">
        <ele>573.1</ele>
        <time>2022-06-14T10:11:55.000Z</time>
      </trkpt>
      <trkpt lat="45.39001" lon="2.37314">
        <ele>573</ele>
        <time>2022-06-14T10:11:56.000Z</time>
      </trkpt>
      <trkpt lat="45.39002" lon="2.37313">
        <ele>573</ele>
        <time>2022-06-14T10:11:57.000Z</time>
      </trkpt>
      <trkpt lat="45.39003" lon="2.37312">
        <ele>572.9</ele>
        <time>2022-06-14T10:11:58.000Z</time>
      </trkpt>
      <trkpt lat="45.39004" lon="2.37311">
        <ele>572.8</ele>
        <time>2022-06-14T10:11:59.000Z</time>
      </trkpt>
      <trkpt lat="45.39006" lon="2.37309">
        <ele>572.7</ele>
        <time>2022-06-14T10:12:00.000Z</time>
      </trkpt>
      <trkpt lat="45.39007" lon="2.37308">
        <ele>572.6</ele>
        <time>2022-06-14T10:12:01.000Z</time>
      </trkpt>
      <trkpt lat="45.39008" lon="2.37307">
        <ele>572.5</ele>
        <time>2022-06-14T10:12:02.000Z</time>
      </trkpt>
      <trkpt lat="45.39009" lon="2.37306">
        <ele>572.4</ele>
        <time>2022-06-14T10:12:03.000Z</time>
      </trkpt>
      <trkpt lat="45.3901" lon="2.37305">
        <ele>572.3</ele>
        <time>2022-06-14T10:12:04.000Z</time>
      </trkpt>
      <trkpt lat="45.39011" lon="2.37303">
        <ele>572.3</ele>
        <time>2022-06-14T10:12:05.000Z</time>
      </trkpt>
      <trkpt lat="45.39012" lon="2.37302">
        <ele>572.2</ele>
        <time>2022-06-14T10:12:06.000Z</time>
      </trkpt>
      <trkpt lat="45.39013" lon="2.37301">
        <ele>572.1</ele>
        <time>2022-06-14T10:12:07.000Z</time>
      </trkpt>
      <trkpt lat="45.39014" lon="2.373">
        <ele>572</ele>
        <time>2022-06-14T10:12:08.000Z</time>
      </trkpt>
      <trkpt lat="45.39015" lon="2.37298">
        <ele>572</ele>
        <time>2022-06-14T10:12:09.000Z</time>
      </trkpt>
      <trkpt lat="45.39017" lon="2.37297">
        <ele>571.9</ele>
        <time>2022-06-14T10:12:10.000Z</time>
      </trkpt>
      <trkpt lat="45.39018" lon="2.37296">
        <ele>571.8</ele>
        <time>2022-06-14T10:12:11.000Z</time>
      </trkpt>
      <trkpt lat="45.39019" lon="2.37295">
        <ele>571.8</ele>
        <time>2022-06-14T10:12:12.000Z</time>
      </trkpt>
      <trkpt lat="45.3902" lon="2.37293">
        <ele>571.7</ele>
        <time>2022-06-14T10:12:13.000Z</time>
      </trkpt>
      <trkpt lat="45.39021" lon="2.37292">
        <ele>571.6</ele>
        <time>2022-06-14T10:12:14.000Z</time>
      </trkpt>
      <trkpt lat="45.39022" lon="2.37291">
        <ele>571.6</ele>
        <time>2022-06-14T10:12:15.000Z</time>
      </trkpt>
      <trkpt lat="45.39023" lon="2.3729">
        <ele>571.5</ele>
        <time>2022-06-14T10:12:16.000Z</time>
      </trkpt>
      <trkpt lat="45.39024" lon="2.37289">
        <ele>571.5</ele>
        <time>2022-06-14T10:12:17.000Z</time>
      </trkpt>
      <trkpt lat="45.39025" lon="2.37287">
        <ele>571.4</ele>
        <time>2022-06-14T10:12:18.000Z</time>
      </trkpt>
      <trkpt lat="45.39026" lon="2.37286">
        <ele>571.4</ele>
        <time>2022-06-14T10:12:19.000Z</time>
      </trkpt>
      <trkpt lat="45.39027" lon="2.37285">
        <ele>571.3</ele>
        <time>2022-06-14T10:12:20.000Z</time>
      </trkpt>
      <trkpt lat="45.39028" lon="2.37284">
        <ele>571.3</ele>
        <time>2022-06-14T10:12:21.000Z</time>
      </trkpt>
      <trkpt lat="45.39029" lon="2.37282">
        <ele>571.2</ele>
        <time>2022-06-14T10:12:22.000Z</time>
      </trkpt>
      <trkpt lat="45.3903" lon="2.37281">
        <ele>571.2</ele>
        <time>2022-06-14T10:12:23.000Z</time>
      </trkpt>
      <trkpt lat="45.39031" lon="2.3728">
        <ele>571.1</ele>
        <time>2022-06-14T10:12:24.000Z</time>
      </trkpt>
      <trkpt lat="45.39032" lon="2.37279">
        <ele>571.1</ele>
        <time>2022-06-14T10:12:25.000Z</time>
      </trkpt>
      <trkpt lat="45.39033" lon="2.37277">
        <ele>571.1</ele>
        <time>2022-06-14T10:12:26.000Z</time>
      </trkpt>
      <trkpt lat="45.39034" lon="2.37276">
        <ele>571</ele>
        <time>2022-06-14T10:12:27.000Z</time>
      </trkpt>
      <trkpt lat="45.39035" lon="2.37275">
        <ele>571</ele>
        <time>2022-06-14T10:12:28.000Z</time>
      </trkpt>
      <trkpt lat="45.39036" lon="2.37274">
        <ele>571</ele>
        <time>2022-06-14T10:12:29.000Z</time>
      </trkpt>
      <trkpt lat="45.39037" lon="2.37273">
        <ele>570.9</ele>
        <time>2022-06-14T10:12:30.000Z</time>
      </trkpt>
      <trkpt lat="45.39038" lon="2.37271">
        <ele>570.9</ele>
        <time>2022-06-14T10:12:31.000Z</time>
      </trkpt>
      <trkpt lat="45.39039" lon="2.3727">
        <ele>570.9</ele>
        <time>2022-06-14T10:12:32.000Z</time>
      </trkpt>
      <trkpt lat="45.3904" lon="2.37269">
        <ele>570.8</ele>
        <time>2022-06-14T10:12:33.000Z</time>
      </trkpt>
      <trkpt lat="45.39041" lon="2.37268">
        <ele>570.8</ele>
        <time>2022-06-14T10:12:34.000Z</time>
      </trkpt>
      <trkpt lat="45.39042" lon="2.37267">
        <ele>570.8</ele>
        <time>2022-06-14T10:12:35.000Z</time>
      </trkpt>
      <trkpt lat="45.39043" lon="2.37265">
        <ele>570.8</ele>
        <time>2022-06-14T10:12:36.000Z</time>
      </trkpt>
      <trkpt lat="45.39044" lon="2.37264">
        <ele>570.8</ele>
        <time>2022-06-14T10:12:37.000Z</time>
      </trkpt>
      <trkpt lat="45.39045" lon="2.37263">
        <ele>570.7</ele>
        <time>2022-06-14T10:12:38.000Z</time>
      </trkpt>
      <trkpt lat="45.39046" lon="2.37262">
        <ele>570.7</ele>
        <time>2022-06-14T10:12:39.000Z</time>
      </trkpt>
      <trkpt lat="45.39047" lon="2.37261">
        <ele>570.7</ele>
        <time>2022-06-14T10:12:40.000Z</time>
      </trkpt>
      <trkpt lat="45.39048" lon="2.3726">
        <ele>570.7</ele>
        <time>2022-06-14T10:12:41.000Z</time>
      </trkpt>
      <trkpt lat="45.39049" lon="2.37259">
        <ele>570.7</ele>
        <time>2022-06-14T10:12:42.000Z</time>
      </trkpt>
      <trkpt lat="45.3905" lon="2.37259">
        <ele>570.7</ele>
        <time>2022-06-14T10:12:43.000Z</time>
      </trkpt>
      <trkpt lat="45.39051" lon="2.37258">
        <ele>570.7</ele>
        <time>2022-06-14T10:12:44.000Z</time>
      </trkpt>
      <trkpt lat="45.39052" lon="2.37257">
        <ele>570.7</ele>
        <time>2022-06-14T10:12:45.000Z</time>
      </trkpt>
      <trkpt lat="45.39053" lon="2.37256">
        <ele>570.7</ele>
        <time>2022-06-14T10:12:46.000Z</time>
      </trkpt>
      <trkpt lat="45.39054" lon="2.37255">
        <ele>570.7</ele>
        <time>2022-06-14T10:12:48.000Z</time>
      </trkpt>
      <trkpt lat="45.39055" lon="2.37255">
        <ele>570.7</ele>
        <time>2022-06-14T10:12:49.000Z</time>
      </trkpt>
      <trkpt lat="45.39056" lon="2.37254">
        <ele>570.7</ele>
        <time>2022-06-14T10:12:51.000Z</time>
      </trkpt>
      <trkpt lat="45.39057" lon="2.37254">
        <ele>570.7</ele>
        <time>2022-06-14T10:12:52.000Z</time>
      </trkpt>
      <trkpt lat="45.39058" lon="2.37253">
        <ele>570.7</ele>
        <time>2022-06-14T10:12:54.000Z</time>
      </trkpt>
      <trkpt lat="45.39059" lon="2.37252">
        <ele>570.7</ele>
        <time>2022-06-14T10:12:55.000Z</time>
      </trkpt>
      <trkpt lat="45.3906" lon="2.37252">
        <ele>570.7</ele>
        <time>2022-06-14T10:12:56.000Z</time>
      </trkpt>
      <trkpt lat="45.39061" lon="2.37251">
        <ele>570.7</ele>
        <time>2022-06-14T10:12:57.000Z</time>
      </trkpt>
      <trkpt lat="45.39062" lon="2.3725">
        <ele>570.7</ele>
        <time>2022-06-14T10:12:58.000Z</time>
      </trkpt>
      <trkpt lat="45.39063" lon="2.3725">
        <ele>570.7</ele>
        <time>2022-06-14T10:12:59.000Z</time>
      </trkpt>
      <trkpt lat="45.39064" lon="2.37249">
        <ele>570.7</ele>
        <time>2022-06-14T10:13:00.000Z</time>
      </trkpt>
      <trkpt lat="45.39065" lon="2.37248">
        <ele>570.7</ele>
        <time>2022-06-14T10:13:01.000Z</time>
      </trkpt>
      <trkpt lat="45.39066" lon="2.37248">
        <ele>570.7</ele>
        <time>2022-06-14T10:13:02.000Z</time>
      </trkpt>
      <trkpt lat="45.39067" lon="2.37248">
        <ele>570.8</ele>
        <time>2022-06-14T10:13:03.000Z</time>
      </trkpt>
      <trkpt lat="45.39068" lon="2.37247">
        <ele>570.8</ele>
        <time>2022-06-14T10:13:04.000Z</time>
      </trkpt>
      <trkpt lat="45.39069" lon="2.37247">
        <ele>570.8</ele>
        <time>2022-06-14T10:13:05.000Z</time>
      </trkpt>
      <trkpt lat="45.3907" lon="2.37247">
        <ele>570.8</ele>
        <time>2022-06-14T10:13:06.000Z</time>
      </trkpt>
      <trkpt lat="45.39071" lon="2.37246">
        <ele>570.8</ele>
        <time>2022-06-14T10:13:07.000Z</time>
      </trkpt>
      <trkpt lat="45.39072" lon="2.37246">
        <ele>570.8</ele>
        <time>2022-06-14T10:13:08.000Z</time>
      </trkpt>
      <trkpt lat="45.39073" lon="2.37245">
        <ele>570.8</ele>
        <time>2022-06-14T10:13:09.000Z</time>
      </trkpt>
      <trkpt lat="45.39074" lon="2.37245">
        <ele>570.8</ele>
        <time>2022-06-14T10:13:10.000Z</time>
      </trkpt>
      <trkpt lat="45.39075" lon="2.37244">
        <ele>570.8</ele>
        <time>2022-06-14T10:13:11.000Z</time>
      </trkpt>
      <trkpt lat="45.39076" lon="2.37244">
        <ele>570.8</ele>
        <time>2022-06-14T10:13:12.000Z</time>
      </trkpt>
      <trkpt lat="45.39077" lon="2.37243">
        <ele>570.9</ele>
        <time>2022-06-14T10:13:13.000Z</time>
      </trkpt>
      <trkpt lat="45.39078" lon="2.37243">
        <ele>570.9</ele>
        <time>2022-06-14T10:13:14.000Z</time>
      </trkpt>
      <trkpt lat="45.39079" lon="2.37243">
        <ele>570.9</ele>
        <time>2022-06-14T10:13:15.000Z</time>
      </trkpt>
      <trkpt lat="45.3908" lon="2.37242">
        <ele>570.9</ele>
        <time>2022-06-14T10:13:16.000Z</time>
      </trkpt>
      <trkpt lat="45.39081" lon="2.37242">
        <ele>570.9</ele>
        <time>2022-06-14T10:13:17.000Z</time>
      </trkpt>
      <trkpt lat="45.39082" lon="2.37242">
        <ele>571</ele>
        <time>2022-06-14T10:13:18.000Z</time>
      </trkpt>
      <trkpt lat="45.39083" lon="2.37242">
        <ele>571</ele>
        <time>2022-06-14T10:13:19.000Z</time>
      </trkpt>
      <trkpt lat="45.39085" lon="2.37242">
        <ele>571</ele>
        <time>2022-06-14T10:13:20.000Z</time>
      </trkpt>
      <trkpt lat="45.39086" lon="2.37242">
        <ele>570.9</ele>
        <time>2022-06-14T10:13:21.000Z</time>
      </trkpt>
      <trkpt lat="45.39087" lon="2.37242">
        <ele>570.9</ele>
        <time>2022-06-14T10:13:22.000Z</time>
      </trkpt>
      <trkpt lat="45.39088" lon="2.37241">
        <ele>570.8</ele>
        <time>2022-06-14T10:13:23.000Z</time>
      </trkpt>
      <trkpt lat="45.39089" lon="2.37241">
        <ele>570.8</ele>
        <time>2022-06-14T10:13:24.000Z</time>
      </trkpt>
      <trkpt lat="45.39091" lon="2.37241">
        <ele>570.7</ele>
        <time>2022-06-14T10:13:25.000Z</time>
      </trkpt>
      <trkpt lat="45.39092" lon="2.37241">
        <ele>570.7</ele>
        <time>2022-06-14T10:13:26.000Z</time>
      </trkpt>
      <trkpt lat="45.39093" lon="2.37241">
        <ele>570.6</ele>
        <time>2022-06-14T10:13:27.000Z</time>
      </trkpt>
      <trkpt lat="45.39094" lon="2.37241">
        <ele>570.6</ele>
        <time>2022-06-14T10:13:29.000Z</time>
      </trkpt>
      <trkpt lat="45.39095" lon="2.37241">
        <ele>570.6</ele>
        <time>2022-06-14T10:13:31.000Z</time>
      </trkpt>
      <trkpt lat="45.39096" lon="2.37241">
        <ele>570.5</ele>
        <time>2022-06-14T10:13:32.000Z</time>
      </trkpt>
      <trkpt lat="45.39097" lon="2.37241">
        <ele>570.5</ele>
        <time>2022-06-14T10:13:33.000Z</time>
      </trkpt>
      <trkpt lat="45.39098" lon="2.37242">
        <ele>570.4</ele>
        <time>2022-06-14T10:13:34.000Z</time>
      </trkpt>
      <trkpt lat="45.39099" lon="2.37242">
        <ele>570.4</ele>
        <time>2022-06-14T10:13:35.000Z</time>
      </trkpt>
      <trkpt lat="45.39101" lon="2.37242">
        <ele>570.3</ele>
        <time>2022-06-14T10:13:36.000Z</time>
      </trkpt>
      <trkpt lat="45.39102" lon="2.37242">
        <ele>570.3</ele>
        <time>2022-06-14T10:13:37.000Z</time>
      </trkpt>
      <trkpt lat="45.39103" lon="2.37243">
        <ele>570.2</ele>
        <time>2022-06-14T10:13:38.000Z</time>
      </trkpt>
      <trkpt lat="45.39104" lon="2.37243">
        <ele>570.2</ele>
        <time>2022-06-14T10:13:39.000Z</time>
      </trkpt>
      <trkpt lat="45.39106" lon="2.37243">
        <ele>570.2</ele>
        <time>2022-06-14T10:13:40.000Z</time>
      </trkpt>
      <trkpt lat="45.39107" lon="2.37243">
        <ele>570.1</ele>
        <time>2022-06-14T10:13:41.000Z</time>
      </trkpt>
      <trkpt lat="45.39108" lon="2.37244">
        <ele>570.1</ele>
        <time>2022-06-14T10:13:42.000Z</time>
      </trkpt>
      <trkpt lat="45.39109" lon="2.37244">
        <ele>570</ele>
        <time>2022-06-14T10:13:43.000Z</time>
      </trkpt>
      <trkpt lat="45.3911" lon="2.37244">
        <ele>570</ele>
        <time>2022-06-14T10:13:44.000Z</time>
      </trkpt>
      <trkpt lat="45.39111" lon="2.37244">
        <ele>570</ele>
        <time>2022-06-14T10:13:45.000Z</time>
      </trkpt>
      <trkpt lat="45.39112" lon="2.37245">
        <ele>569.9</ele>
        <time>2022-06-14T10:13:46.000Z</time>
      </trkpt>
      <trkpt lat="45.39113" lon="2.37245">
        <ele>569.9</ele>
        <time>2022-06-14T10:13:47.000Z</time>
      </trkpt>
      <trkpt lat="45.39114" lon="2.37245">
        <ele>569.8</ele>
        <time>2022-06-14T10:13:48.000Z</time>
      </trkpt>
      <trkpt lat="45.39115" lon="2.37245">
        <ele>569.8</ele>
        <time>2022-06-14T10:13:49.000Z</time>
      </trkpt>
      <trkpt lat="45.39116" lon="2.37245">
        <ele>569.8</ele>
        <time>2022-06-14T10:13:50.000Z</time>
      </trkpt>
      <trkpt lat="45.39118" lon="2.37245">
        <ele>569.7</ele>
        <time>2022-06-14T10:13:51.000Z</time>
      </trkpt>
      <trkpt lat="45.39119" lon="2.37245">
        <ele>569.7</ele>
        <time>2022-06-14T10:13:52.000Z</time>
      </trkpt>
      <trkpt lat="45.3912" lon="2.37244">
        <ele>569.6</ele>
        <time>2022-06-14T10:13:53.000Z</time>
      </trkpt>
      <trkpt lat="45.39121" lon="2.37244">
        <ele>569.6</ele>
        <time>2022-06-14T10:13:54.000Z</time>
      </trkpt>
      <trkpt lat="45.39122" lon="2.37244">
        <ele>569.5</ele>
        <time>2022-06-14T10:13:55.000Z</time>
      </trkpt>
      <trkpt lat="45.39124" lon="2.37244">
        <ele>569.5</ele>
        <time>2022-06-14T10:13:56.000Z</time>
      </trkpt>
      <trkpt lat="45.39125" lon="2.37244">
        <ele>569.4</ele>
        <time>2022-06-14T10:13:57.000Z</time>
      </trkpt>
      <trkpt lat="45.39126" lon="2.37244">
        <ele>569.4</ele>
        <time>2022-06-14T10:13:58.000Z</time>
      </trkpt>
      <trkpt lat="45.39128" lon="2.37244">
        <ele>569.3</ele>
        <time>2022-06-14T10:13:59.000Z</time>
      </trkpt>
      <trkpt lat="45.39129" lon="2.37244">
        <ele>569.3</ele>
        <time>2022-06-14T10:14:00.000Z</time>
      </trkpt>
      <trkpt lat="45.3913" lon="2.37244">
        <ele>569.2</ele>
        <time>2022-06-14T10:14:01.000Z</time>
      </trkpt>
      <trkpt lat="45.39132" lon="2.37244">
        <ele>569.2</ele>
        <time>2022-06-14T10:14:02.000Z</time>
      </trkpt>
      <trkpt lat="45.39133" lon="2.37244">
        <ele>569.1</ele>
        <time>2022-06-14T10:14:03.000Z</time>
      </trkpt>
      <trkpt lat="45.39135" lon="2.37244">
        <ele>569.1</ele>
        <time>2022-06-14T10:14:04.000Z</time>
      </trkpt>
      <trkpt lat="45.39136" lon="2.37244">
        <ele>569</ele>
        <time>2022-06-14T10:14:05.000Z</time>
      </trkpt>
      <trkpt lat="45.39137" lon="2.37244">
        <ele>569</ele>
        <time>2022-06-14T10:14:06.000Z</time>
      </trkpt>
      <trkpt lat="45.39139" lon="2.37245">
        <ele>568.9</ele>
        <time>2022-06-14T10:14:07.000Z</time>
      </trkpt>
      <trkpt lat="45.3914" lon="2.37245">
        <ele>568.9</ele>
        <time>2022-06-14T10:14:08.000Z</time>
      </trkpt>
      <trkpt lat="45.39142" lon="2.37245">
        <ele>568.8</ele>
        <time>2022-06-14T10:14:09.000Z</time>
      </trkpt>
      <trkpt lat="45.39143" lon="2.37245">
        <ele>568.8</ele>
        <time>2022-06-14T10:14:10.000Z</time>
      </trkpt>
      <trkpt lat="45.39144" lon="2.37245">
        <ele>568.7</ele>
        <time>2022-06-14T10:14:11.000Z</time>
      </trkpt>
      <trkpt lat="45.39146" lon="2.37245">
        <ele>568.7</ele>
        <time>2022-06-14T10:14:12.000Z</time>
      </trkpt>
      <trkpt lat="45.39147" lon="2.37246">
        <ele>568.6</ele>
        <time>2022-06-14T10:14:13.000Z</time>
      </trkpt>
      <trkpt lat="45.39148" lon="2.37246">
        <ele>568.6</ele>
        <time>2022-06-14T10:14:14.000Z</time>
      </trkpt>
      <trkpt lat="45.3915" lon="2.37246">
        <ele>568.5</ele>
        <time>2022-06-14T10:14:15.000Z</time>
      </trkpt>
      <trkpt lat="45.39151" lon="2.37247">
        <ele>568.5</ele>
        <time>2022-06-14T10:14:16.000Z</time>
      </trkpt>
      <trkpt lat="45.39153" lon="2.37247">
        <ele>568.4</ele>
        <time>2022-06-14T10:14:17.000Z</time>
      </trkpt>
      <trkpt lat="45.39154" lon="2.37247">
        <ele>568.4</ele>
        <time>2022-06-14T10:14:18.000Z</time>
      </trkpt>
      <trkpt lat="45.39156" lon="2.37248">
        <ele>568.4</ele>
        <time>2022-06-14T10:14:19.000Z</time>
      </trkpt>
      <trkpt lat="45.39157" lon="2.37247">
        <ele>568.3</ele>
        <time>2022-06-14T10:14:20.000Z</time>
      </trkpt>
      <trkpt lat="45.39158" lon="2.37247">
        <ele>568.2</ele>
        <time>2022-06-14T10:14:21.000Z</time>
      </trkpt>
      <trkpt lat="45.3916" lon="2.37246">
        <ele>568.2</ele>
        <time>2022-06-14T10:14:22.000Z</time>
      </trkpt>
      <trkpt lat="45.39161" lon="2.37244">
        <ele>568.1</ele>
        <time>2022-06-14T10:14:23.000Z</time>
      </trkpt>
      <trkpt lat="45.39162" lon="2.37243">
        <ele>568</ele>
        <time>2022-06-14T10:14:24.000Z</time>
      </trkpt>
      <trkpt lat="45.39162" lon="2.37242">
        <ele>568</ele>
        <time>2022-06-14T10:14:25.000Z</time>
      </trkpt>
      <trkpt lat="45.39163" lon="2.37241">
        <ele>567.9</ele>
        <time>2022-06-14T10:14:26.000Z</time>
      </trkpt>
      <trkpt lat="45.39163" lon="2.3724">
        <ele>567.9</ele>
        <time>2022-06-14T10:14:29.000Z</time>
      </trkpt>
      <trkpt lat="45.39163" lon="2.3724">
        <ele>567.9</ele>
        <time>2022-06-14T10:14:36.000Z</time>
      </trkpt>
      <trkpt lat="45.39163" lon="2.3724">
        <ele>567.9</ele>
        <time>2022-06-14T10:16:03.000Z</time>
      </trkpt>
      <trkpt lat="45.39163" lon="2.37239">
        <ele>567.9</ele>
        <time>2022-06-14T10:16:13.000Z</time>
      </trkpt>
      <trkpt lat="45.39164" lon="2.37239">
        <ele>567.9</ele>
        <time>2022-06-14T10:16:19.000Z</time>
      </trkpt>
      <trkpt lat="45.39164" lon="2.37239">
        <ele>567.9</ele>
        <time>2022-06-14T10:16:22.000Z</time>
      </trkpt>
      <trkpt lat="45.39164" lon="2.37238">
        <ele>567.8</ele>
        <time>2022-06-14T10:16:29.000Z</time>
      </trkpt>
      <trkpt lat="45.39164" lon="2.37238">
        <ele>567.8</ele>
        <time>2022-06-14T10:16:32.000Z</time>
      </trkpt>
      <trkpt lat="45.39165" lon="2.37236">
        <ele>567.7</ele>
        <time>2022-06-14T10:16:33.000Z</time>
      </trkpt>
      <trkpt lat="45.39166" lon="2.37234">
        <ele>567.7</ele>
        <time>2022-06-14T10:27:31.000Z</time>
      </trkpt>
      <trkpt lat="45.39167" lon="2.37233">
        <ele>567.6</ele>
        <time>2022-06-14T10:27:33.000Z</time>
      </trkpt>
      <trkpt lat="45.39167" lon="2.37232">
        <ele>567.6</ele>
        <time>2022-06-14T10:27:34.000Z</time>
      </trkpt>
      <trkpt lat="45.39168" lon="2.37232">
        <ele>567.5</ele>
        <time>2022-06-14T10:27:35.000Z</time>
      </trkpt>
      <trkpt lat="45.39168" lon="2.37231">
        <ele>567.5</ele>
        <time>2022-06-14T10:27:36.000Z</time>
      </trkpt>
      <trkpt lat="45.39168" lon="2.3723">
        <ele>567.4</ele>
        <time>2022-06-14T10:27:37.000Z</time>
      </trkpt>
      <trkpt lat="45.39169" lon="2.37228">
        <ele>567.4</ele>
        <time>2022-06-14T10:27:38.000Z</time>
      </trkpt>
      <trkpt lat="45.39169" lon="2.37227">
        <ele>567.3</ele>
        <time>2022-06-14T10:27:39.000Z</time>
      </trkpt>
      <trkpt lat="45.39169" lon="2.37226">
        <ele>567.3</ele>
        <time>2022-06-14T10:27:40.000Z</time>
      </trkpt>
      <trkpt lat="45.39169" lon="2.37225">
        <ele>567.3</ele>
        <time>2022-06-14T10:27:41.000Z</time>
      </trkpt>
      <trkpt lat="45.39169" lon="2.37224">
        <ele>567.3</ele>
        <time>2022-06-14T10:27:42.000Z</time>
      </trkpt>
      <trkpt lat="45.39169" lon="2.37223">
        <ele>567.2</ele>
        <time>2022-06-14T10:27:43.000Z</time>
      </trkpt>
      <trkpt lat="45.39169" lon="2.37222">
        <ele>567.2</ele>
        <time>2022-06-14T10:27:46.000Z</time>
      </trkpt>
      <trkpt lat="45.39168" lon="2.37221">
        <ele>567.2</ele>
        <time>2022-06-14T10:27:56.000Z</time>
      </trkpt>
      <trkpt lat="45.39168" lon="2.37221">
        <ele>567.2</ele>
        <time>2022-06-14T10:27:57.000Z</time>
      </trkpt>
      <trkpt lat="45.39168" lon="2.3722">
        <ele>567.2</ele>
        <time>2022-06-14T10:27:58.000Z</time>
      </trkpt>
      <trkpt lat="45.39168" lon="2.37219">
        <ele>567.2</ele>
        <time>2022-06-14T10:27:59.000Z</time>
      </trkpt>
      <trkpt lat="45.39168" lon="2.37218">
        <ele>567.1</ele>
        <time>2022-06-14T10:28:00.000Z</time>
      </trkpt>
      <trkpt lat="45.39168" lon="2.37216">
        <ele>567.1</ele>
        <time>2022-06-14T10:28:01.000Z</time>
      </trkpt>
      <trkpt lat="45.39169" lon="2.37215">
        <ele>567</ele>
        <time>2022-06-14T10:28:02.000Z</time>
      </trkpt>
      <trkpt lat="45.39169" lon="2.37213">
        <ele>567</ele>
        <time>2022-06-14T10:28:03.000Z</time>
      </trkpt>
      <trkpt lat="45.39169" lon="2.37211">
        <ele>566.9</ele>
        <time>2022-06-14T10:28:04.000Z</time>
      </trkpt>
      <trkpt lat="45.39169" lon="2.37209">
        <ele>566.8</ele>
        <time>2022-06-14T10:28:05.000Z</time>
      </trkpt>
      <trkpt lat="45.39169" lon="2.37207">
        <ele>566.8</ele>
        <time>2022-06-14T10:28:06.000Z</time>
      </trkpt>
      <trkpt lat="45.3917" lon="2.37205">
        <ele>566.7</ele>
        <time>2022-06-14T10:28:07.000Z</time>
      </trkpt>
      <trkpt lat="45.3917" lon="2.37203">
        <ele>566.6</ele>
        <time>2022-06-14T10:28:08.000Z</time>
      </trkpt>
      <trkpt lat="45.3917" lon="2.37201">
        <ele>566.5</ele>
        <time>2022-06-14T10:28:09.000Z</time>
      </trkpt>
      <trkpt lat="45.39171" lon="2.37199">
        <ele>566.4</ele>
        <time>2022-06-14T10:28:10.000Z</time>
      </trkpt>
      <trkpt lat="45.39171" lon="2.37197">
        <ele>566.4</ele>
        <time>2022-06-14T10:28:11.000Z</time>
      </trkpt>
      <trkpt lat="45.39171" lon="2.37195">
        <ele>566.3</ele>
        <time>2022-06-14T10:28:12.000Z</time>
      </trkpt>
      <trkpt lat="45.39172" lon="2.37193">
        <ele>566.2</ele>
        <time>2022-06-14T10:28:13.000Z</time>
      </trkpt>
      <trkpt lat="45.39172" lon="2.3719">
        <ele>566.1</ele>
        <time>2022-06-14T10:28:14.000Z</time>
      </trkpt>
      <trkpt lat="45.39172" lon="2.37188">
        <ele>566</ele>
        <time>2022-06-14T10:28:15.000Z</time>
      </trkpt>
      <trkpt lat="45.39172" lon="2.37186">
        <ele>565.9</ele>
        <time>2022-06-14T10:28:16.000Z</time>
      </trkpt>
      <trkpt lat="45.39172" lon="2.37184">
        <ele>565.9</ele>
        <time>2022-06-14T10:28:17.000Z</time>
      </trkpt>
      <trkpt lat="45.39172" lon="2.37182">
        <ele>565.8</ele>
        <time>2022-06-14T10:28:18.000Z</time>
      </trkpt>
      <trkpt lat="45.39172" lon="2.3718">
        <ele>565.8</ele>
        <time>2022-06-14T10:28:19.000Z</time>
      </trkpt>
      <trkpt lat="45.39171" lon="2.37178">
        <ele>565.8</ele>
        <time>2022-06-14T10:28:20.000Z</time>
      </trkpt>
      <trkpt lat="45.39171" lon="2.37176">
        <ele>565.8</ele>
        <time>2022-06-14T10:28:21.000Z</time>
      </trkpt>
      <trkpt lat="45.3917" lon="2.37174">
        <ele>565.8</ele>
        <time>2022-06-14T10:28:22.000Z</time>
      </trkpt>
      <trkpt lat="45.3917" lon="2.37173">
        <ele>565.8</ele>
        <time>2022-06-14T10:28:23.000Z</time>
      </trkpt>
      <trkpt lat="45.39169" lon="2.37171">
        <ele>565.8</ele>
        <time>2022-06-14T10:28:24.000Z</time>
      </trkpt>
      <trkpt lat="45.39169" lon="2.37169">
        <ele>565.8</ele>
        <time>2022-06-14T10:28:25.000Z</time>
      </trkpt>
      <trkpt lat="45.39168" lon="2.37168">
        <ele>565.8</ele>
        <time>2022-06-14T10:28:26.000Z</time>
      </trkpt>
      <trkpt lat="45.39168" lon="2.37166">
        <ele>565.8</ele>
        <time>2022-06-14T10:28:27.000Z</time>
      </trkpt>
      <trkpt lat="45.39167" lon="2.37164">
        <ele>565.7</ele>
        <time>2022-06-14T10:28:28.000Z</time>
      </trkpt>
      <trkpt lat="45.39167" lon="2.37163">
        <ele>565.5</ele>
        <time>2022-06-14T10:28:29.000Z</time>
      </trkpt>
      <trkpt lat="45.39167" lon="2.37161">
        <ele>565.3</ele>
        <time>2022-06-14T10:28:30.000Z</time>
      </trkpt>
      <trkpt lat="45.39166" lon="2.37159">
        <ele>565.1</ele>
        <time>2022-06-14T10:28:31.000Z</time>
      </trkpt>
      <trkpt lat="45.39166" lon="2.37157">
        <ele>564.9</ele>
        <time>2022-06-14T10:28:32.000Z</time>
      </trkpt>
      <trkpt lat="45.39166" lon="2.37155">
        <ele>564.7</ele>
        <time>2022-06-14T10:28:33.000Z</time>
      </trkpt>
      <trkpt lat="45.39166" lon="2.37154">
        <ele>564.5</ele>
        <time>2022-06-14T10:28:34.000Z</time>
      </trkpt>
      <trkpt lat="45.39166" lon="2.37152">
        <ele>564.2</ele>
        <time>2022-06-14T10:28:35.000Z</time>
      </trkpt>
      <trkpt lat="45.39166" lon="2.3715">
        <ele>564</ele>
        <time>2022-06-14T10:28:36.000Z</time>
      </trkpt>
      <trkpt lat="45.39166" lon="2.37148">
        <ele>563.8</ele>
        <time>2022-06-14T10:28:37.000Z</time>
      </trkpt>
      <trkpt lat="45.39165" lon="2.37145">
        <ele>563.6</ele>
        <time>2022-06-14T10:28:38.000Z</time>
      </trkpt>
      <trkpt lat="45.39165" lon="2.37143">
        <ele>563.3</ele>
        <time>2022-06-14T10:28:39.000Z</time>
      </trkpt>
      <trkpt lat="45.39164" lon="2.37141">
        <ele>563.1</ele>
        <time>2022-06-14T10:28:40.000Z</time>
      </trkpt>
      <trkpt lat="45.39163" lon="2.37139">
        <ele>562.9</ele>
        <time>2022-06-14T10:28:41.000Z</time>
      </trkpt>
      <trkpt lat="45.39163" lon="2.37137">
        <ele>562.7</ele>
        <time>2022-06-14T10:28:42.000Z</time>
      </trkpt>
      <trkpt lat="45.39162" lon="2.37135">
        <ele>562.5</ele>
        <time>2022-06-14T10:28:43.000Z</time>
      </trkpt>
      <trkpt lat="45.39162" lon="2.37133">
        <ele>562.3</ele>
        <time>2022-06-14T10:28:44.000Z</time>
      </trkpt>
      <trkpt lat="45.39161" lon="2.37131">
        <ele>562.2</ele>
        <time>2022-06-14T10:28:45.000Z</time>
      </trkpt>
      <trkpt lat="45.39161" lon="2.37129">
        <ele>562</ele>
        <time>2022-06-14T10:28:46.000Z</time>
      </trkpt>
      <trkpt lat="45.3916" lon="2.37127">
        <ele>561.8</ele>
        <time>2022-06-14T10:28:47.000Z</time>
      </trkpt>
      <trkpt lat="45.3916" lon="2.37126">
        <ele>561.6</ele>
        <time>2022-06-14T10:28:48.000Z</time>
      </trkpt>
      <trkpt lat="45.3916" lon="2.37124">
        <ele>561.4</ele>
        <time>2022-06-14T10:28:49.000Z</time>
      </trkpt>
      <trkpt lat="45.39159" lon="2.37122">
        <ele>561.2</ele>
        <time>2022-06-14T10:28:50.000Z</time>
      </trkpt>
      <trkpt lat="45.39159" lon="2.3712">
        <ele>561</ele>
        <time>2022-06-14T10:28:51.000Z</time>
      </trkpt>
      <trkpt lat="45.39159" lon="2.37118">
        <ele>560.8</ele>
        <time>2022-06-14T10:28:52.000Z</time>
      </trkpt>
      <trkpt lat="45.39159" lon="2.37116">
        <ele>560.5</ele>
        <time>2022-06-14T10:28:53.000Z</time>
      </trkpt>
      <trkpt lat="45.39159" lon="2.37114">
        <ele>560.3</ele>
        <time>2022-06-14T10:28:54.000Z</time>
      </trkpt>
      <trkpt lat="45.39159" lon="2.37112">
        <ele>560.1</ele>
        <time>2022-06-14T10:28:55.000Z</time>
      </trkpt>
      <trkpt lat="45.39159" lon="2.3711">
        <ele>559.8</ele>
        <time>2022-06-14T10:28:56.000Z</time>
      </trkpt>
      <trkpt lat="45.39159" lon="2.37107">
        <ele>559.5</ele>
        <time>2022-06-14T10:28:57.000Z</time>
      </trkpt>
      <trkpt lat="45.39159" lon="2.37105">
        <ele>559.3</ele>
        <time>2022-06-14T10:28:58.000Z</time>
      </trkpt>
      <trkpt lat="45.39159" lon="2.37103">
        <ele>559</ele>
        <time>2022-06-14T10:28:59.000Z</time>
      </trkpt>
      <trkpt lat="45.39159" lon="2.37101">
        <ele>558.8</ele>
        <time>2022-06-14T10:29:00.000Z</time>
      </trkpt>
      <trkpt lat="45.39159" lon="2.37099">
        <ele>558.5</ele>
        <time>2022-06-14T10:29:01.000Z</time>
      </trkpt>
      <trkpt lat="45.39159" lon="2.37097">
        <ele>558.4</ele>
        <time>2022-06-14T10:29:02.000Z</time>
      </trkpt>
      <trkpt lat="45.39159" lon="2.37096">
        <ele>558.2</ele>
        <time>2022-06-14T10:29:03.000Z</time>
      </trkpt>
      <trkpt lat="45.39159" lon="2.37095">
        <ele>558.1</ele>
        <time>2022-06-14T10:29:04.000Z</time>
      </trkpt>
      <trkpt lat="45.39159" lon="2.37094">
        <ele>558</ele>
        <time>2022-06-14T10:29:05.000Z</time>
      </trkpt>
      <trkpt lat="45.39159" lon="2.37093">
        <ele>558</ele>
        <time>2022-06-14T10:29:07.000Z</time>
      </trkpt>
      <trkpt lat="45.39158" lon="2.37093">
        <ele>557.9</ele>
        <time>2022-06-14T10:29:10.000Z</time>
      </trkpt>
      <trkpt lat="45.39159" lon="2.37093">
        <ele>557.9</ele>
        <time>2022-06-14T10:29:13.000Z</time>
      </trkpt>
      <trkpt lat="45.39159" lon="2.37092">
        <ele>557.8</ele>
        <time>2022-06-14T10:29:15.000Z</time>
      </trkpt>
      <trkpt lat="45.39158" lon="2.37092">
        <ele>557.8</ele>
        <time>2022-06-14T10:29:16.000Z</time>
      </trkpt>
      <trkpt lat="45.39158" lon="2.37091">
        <ele>557.6</ele>
        <time>2022-06-14T10:29:17.000Z</time>
      </trkpt>
      <trkpt lat="45.39158" lon="2.37089">
        <ele>557.5</ele>
        <time>2022-06-14T10:29:18.000Z</time>
      </trkpt>
      <trkpt lat="45.39159" lon="2.37087">
        <ele>557.2</ele>
        <time>2022-06-14T10:29:19.000Z</time>
      </trkpt>
      <trkpt lat="45.39159" lon="2.37085">
        <ele>557</ele>
        <time>2022-06-14T10:29:20.000Z</time>
      </trkpt>
      <trkpt lat="45.39159" lon="2.37083">
        <ele>556.7</ele>
        <time>2022-06-14T10:29:21.000Z</time>
      </trkpt>
      <trkpt lat="45.39158" lon="2.37082">
        <ele>556.5</ele>
        <time>2022-06-14T10:29:22.000Z</time>
      </trkpt>
      <trkpt lat="45.39158" lon="2.37081">
        <ele>556.3</ele>
        <time>2022-06-14T10:29:23.000Z</time>
      </trkpt>
      <trkpt lat="45.39158" lon="2.37079">
        <ele>555.9</ele>
        <time>2022-06-14T10:29:25.000Z</time>
      </trkpt>
      <trkpt lat="45.39158" lon="2.37078">
        <ele>555.6</ele>
        <time>2022-06-14T10:29:26.000Z</time>
      </trkpt>
      <trkpt lat="45.39158" lon="2.37077">
        <ele>555.3</ele>
        <time>2022-06-14T10:29:27.000Z</time>
      </trkpt>
      <trkpt lat="45.39158" lon="2.37076">
        <ele>555.1</ele>
        <time>2022-06-14T10:29:28.000Z</time>
      </trkpt>
      <trkpt lat="45.39158" lon="2.37075">
        <ele>554.9</ele>
        <time>2022-06-14T10:29:29.000Z</time>
      </trkpt>
      <trkpt lat="45.39158" lon="2.37074">
        <ele>554.8</ele>
        <time>2022-06-14T10:29:31.000Z</time>
      </trkpt>
      <trkpt lat="45.39158" lon="2.37073">
        <ele>554.6</ele>
        <time>2022-06-14T10:29:46.000Z</time>
      </trkpt>
      <trkpt lat="45.39158" lon="2.37073">
        <ele>554.5</ele>
        <time>2022-06-14T10:29:47.000Z</time>
      </trkpt>
      <trkpt lat="45.39159" lon="2.37073">
        <ele>554.4</ele>
        <time>2022-06-14T10:29:49.000Z</time>
      </trkpt>
      <trkpt lat="45.39159" lon="2.37072">
        <ele>554.3</ele>
        <time>2022-06-14T10:29:51.000Z</time>
      </trkpt>
      <trkpt lat="45.39159" lon="2.37071">
        <ele>554</ele>
        <time>2022-06-14T10:29:53.000Z</time>
      </trkpt>
      <trkpt lat="45.39159" lon="2.3707">
        <ele>553.8</ele>
        <time>2022-06-14T10:29:54.000Z</time>
      </trkpt>
      <trkpt lat="45.39159" lon="2.37069">
        <ele>553.5</ele>
        <time>2022-06-14T10:29:55.000Z</time>
      </trkpt>
      <trkpt lat="45.39159" lon="2.37068">
        <ele>553.3</ele>
        <time>2022-06-14T10:29:56.000Z</time>
      </trkpt>
      <trkpt lat="45.39159" lon="2.37067">
        <ele>553.1</ele>
        <time>2022-06-14T10:29:57.000Z</time>
      </trkpt>
      <trkpt lat="45.39159" lon="2.37066">
        <ele>552.9</ele>
        <time>2022-06-14T10:29:58.000Z</time>
      </trkpt>
      <trkpt lat="45.39159" lon="2.37065">
        <ele>552.7</ele>
        <time>2022-06-14T10:30:00.000Z</time>
      </trkpt>
      <trkpt lat="45.39158" lon="2.37065">
        <ele>552.6</ele>
        <time>2022-06-14T10:30:01.000Z</time>
      </trkpt>
      <trkpt lat="45.39158" lon="2.37064">
        <ele>552.4</ele>
        <time>2022-06-14T10:30:02.000Z</time>
      </trkpt>
      <trkpt lat="45.39158" lon="2.37062">
        <ele>552.1</ele>
        <time>2022-06-14T10:30:03.000Z</time>
      </trkpt>
      <trkpt lat="45.39157" lon="2.3706">
        <ele>551.7</ele>
        <time>2022-06-14T10:30:04.000Z</time>
      </trkpt>
      <trkpt lat="45.39157" lon="2.37058">
        <ele>551.3</ele>
        <time>2022-06-14T10:30:05.000Z</time>
      </trkpt>
      <trkpt lat="45.39156" lon="2.37057">
        <ele>551</ele>
        <time>2022-06-14T10:30:06.000Z</time>
      </trkpt>
      <trkpt lat="45.39155" lon="2.37055">
        <ele>550.7</ele>
        <time>2022-06-14T10:30:07.000Z</time>
      </trkpt>
      <trkpt lat="45.39155" lon="2.37054">
        <ele>550.5</ele>
        <time>2022-06-14T10:30:08.000Z</time>
      </trkpt>
      <trkpt lat="45.39155" lon="2.37053">
        <ele>550.3</ele>
        <time>2022-06-14T10:30:09.000Z</time>
      </trkpt>
      <trkpt lat="45.39154" lon="2.37052">
        <ele>550.1</ele>
        <time>2022-06-14T10:30:10.000Z</time>
      </trkpt>
      <trkpt lat="45.39154" lon="2.37051">
        <ele>549.8</ele>
        <time>2022-06-14T10:30:11.000Z</time>
      </trkpt>
      <trkpt lat="45.39154" lon="2.3705">
        <ele>549.5</ele>
        <time>2022-06-14T10:30:12.000Z</time>
      </trkpt>
      <trkpt lat="45.39154" lon="2.37048">
        <ele>549.2</ele>
        <time>2022-06-14T10:30:13.000Z</time>
      </trkpt>
      <trkpt lat="45.39154" lon="2.37047">
        <ele>548.8</ele>
        <time>2022-06-14T10:30:14.000Z</time>
      </trkpt>
      <trkpt lat="45.39153" lon="2.37045">
        <ele>548.4</ele>
        <time>2022-06-14T10:30:15.000Z</time>
      </trkpt>
      <trkpt lat="45.39153" lon="2.37043">
        <ele>548.1</ele>
        <time>2022-06-14T10:30:16.000Z</time>
      </trkpt>
      <trkpt lat="45.39153" lon="2.37042">
        <ele>547.8</ele>
        <time>2022-06-14T10:30:17.000Z</time>
      </trkpt>
      <trkpt lat="45.39152" lon="2.3704">
        <ele>547.5</ele>
        <time>2022-06-14T10:30:18.000Z</time>
      </trkpt>
      <trkpt lat="45.39152" lon="2.37039">
        <ele>547.3</ele>
        <time>2022-06-14T10:30:19.000Z</time>
      </trkpt>
      <trkpt lat="45.39151" lon="2.37038">
        <ele>547.1</ele>
        <time>2022-06-14T10:30:20.000Z</time>
      </trkpt>
      <trkpt lat="45.3915" lon="2.37038">
        <ele>546.9</ele>
        <time>2022-06-14T10:30:21.000Z</time>
      </trkpt>
      <trkpt lat="45.3915" lon="2.37037">
        <ele>546.8</ele>
        <time>2022-06-14T10:30:22.000Z</time>
      </trkpt>
      <trkpt lat="45.39149" lon="2.37036">
        <ele>546.7</ele>
        <time>2022-06-14T10:30:23.000Z</time>
      </trkpt>
      <trkpt lat="45.39148" lon="2.37035">
        <ele>546.5</ele>
        <time>2022-06-14T10:30:24.000Z</time>
      </trkpt>
      <trkpt lat="45.39147" lon="2.37035">
        <ele>546.4</ele>
        <time>2022-06-14T10:30:25.000Z</time>
      </trkpt>
      <trkpt lat="45.39146" lon="2.37034">
        <ele>546.3</ele>
        <time>2022-06-14T10:30:26.000Z</time>
      </trkpt>
      <trkpt lat="45.39145" lon="2.37033">
        <ele>546.1</ele>
        <time>2022-06-14T10:30:28.000Z</time>
      </trkpt>
      <trkpt lat="45.39145" lon="2.37032">
        <ele>546</ele>
        <time>2022-06-14T10:30:29.000Z</time>
      </trkpt>
      <trkpt lat="45.39145" lon="2.37031">
        <ele>545.7</ele>
        <time>2022-06-14T10:30:32.000Z</time>
      </trkpt>
      <trkpt lat="45.39146" lon="2.37031">
        <ele>545.5</ele>
        <time>2022-06-14T10:30:34.000Z</time>
      </trkpt>
      <trkpt lat="45.39146" lon="2.3703">
        <ele>545.5</ele>
        <time>2022-06-14T10:30:36.000Z</time>
      </trkpt>
      <trkpt lat="45.39147" lon="2.37029">
        <ele>545.2</ele>
        <time>2022-06-14T10:30:40.000Z</time>
      </trkpt>
      <trkpt lat="45.39148" lon="2.37029">
        <ele>545</ele>
        <time>2022-06-14T10:30:41.000Z</time>
      </trkpt>
      <trkpt lat="45.39148" lon="2.37028">
        <ele>544.8</ele>
        <time>2022-06-14T10:30:42.000Z</time>
      </trkpt>
      <trkpt lat="45.39149" lon="2.37028">
        <ele>544.7</ele>
        <time>2022-06-14T10:30:43.000Z</time>
      </trkpt>
      <trkpt lat="45.3915" lon="2.37028">
        <ele>544.7</ele>
        <time>2022-06-14T10:30:45.000Z</time>
      </trkpt>
      <trkpt lat="45.39151" lon="2.37027">
        <ele>544.5</ele>
        <time>2022-06-14T10:30:48.000Z</time>
      </trkpt>
      <trkpt lat="45.39152" lon="2.37027">
        <ele>544.4</ele>
        <time>2022-06-14T10:30:49.000Z</time>
      </trkpt>
      <trkpt lat="45.39153" lon="2.37027">
        <ele>544.3</ele>
        <time>2022-06-14T10:30:50.000Z</time>
      </trkpt>
      <trkpt lat="45.39154" lon="2.37027">
        <ele>544.3</ele>
        <time>2022-06-14T10:30:51.000Z</time>
      </trkpt>
      <trkpt lat="45.39155" lon="2.37027">
        <ele>544.3</ele>
        <time>2022-06-14T10:30:52.000Z</time>
      </trkpt>
      <trkpt lat="45.39156" lon="2.37027">
        <ele>544.3</ele>
        <time>2022-06-14T10:30:53.000Z</time>
      </trkpt>
      <trkpt lat="45.39157" lon="2.37028">
        <ele>544.3</ele>
        <time>2022-06-14T10:30:54.000Z</time>
      </trkpt>
      <trkpt lat="45.39158" lon="2.37028">
        <ele>544.4</ele>
        <time>2022-06-14T10:30:55.000Z</time>
      </trkpt>
      <trkpt lat="45.39159" lon="2.37028">
        <ele>544.4</ele>
        <time>2022-06-14T10:30:56.000Z</time>
      </trkpt>
      <trkpt lat="45.3916" lon="2.37028">
        <ele>544.4</ele>
        <time>2022-06-14T10:30:57.000Z</time>
      </trkpt>
      <trkpt lat="45.39161" lon="2.37029">
        <ele>544.4</ele>
        <time>2022-06-14T10:30:58.000Z</time>
      </trkpt>
      <trkpt lat="45.39162" lon="2.37029">
        <ele>544.4</ele>
        <time>2022-06-14T10:31:00.000Z</time>
      </trkpt>
      <trkpt lat="45.39163" lon="2.37029">
        <ele>544.5</ele>
        <time>2022-06-14T10:31:01.000Z</time>
      </trkpt>
      <trkpt lat="45.39164" lon="2.37029">
        <ele>544.5</ele>
        <time>2022-06-14T10:31:02.000Z</time>
      </trkpt>
      <trkpt lat="45.39165" lon="2.3703">
        <ele>544.5</ele>
        <time>2022-06-14T10:31:03.000Z</time>
      </trkpt>
      <trkpt lat="45.39166" lon="2.3703">
        <ele>544.5</ele>
        <time>2022-06-14T10:31:04.000Z</time>
      </trkpt>
      <trkpt lat="45.39167" lon="2.3703">
        <ele>544.5</ele>
        <time>2022-06-14T10:31:05.000Z</time>
      </trkpt>
      <trkpt lat="45.39168" lon="2.37031">
        <ele>544.5</ele>
        <time>2022-06-14T10:31:06.000Z</time>
      </trkpt>
      <trkpt lat="45.39169" lon="2.37031">
        <ele>544.4</ele>
        <time>2022-06-14T10:31:07.000Z</time>
      </trkpt>
      <trkpt lat="45.3917" lon="2.37032">
        <ele>544.4</ele>
        <time>2022-06-14T10:31:08.000Z</time>
      </trkpt>
      <trkpt lat="45.39171" lon="2.37032">
        <ele>544.4</ele>
        <time>2022-06-14T10:31:09.000Z</time>
      </trkpt>
      <trkpt lat="45.39172" lon="2.37033">
        <ele>544.4</ele>
        <time>2022-06-14T10:31:10.000Z</time>
      </trkpt>
      <trkpt lat="45.39173" lon="2.37033">
        <ele>544.3</ele>
        <time>2022-06-14T10:31:11.000Z</time>
      </trkpt>
      <trkpt lat="45.39174" lon="2.37034">
        <ele>544.3</ele>
        <time>2022-06-14T10:31:12.000Z</time>
      </trkpt>
      <trkpt lat="45.39175" lon="2.37034">
        <ele>544.3</ele>
        <time>2022-06-14T10:31:13.000Z</time>
      </trkpt>
      <trkpt lat="45.39175" lon="2.37035">
        <ele>544.3</ele>
        <time>2022-06-14T10:31:14.000Z</time>
      </trkpt>
      <trkpt lat="45.39176" lon="2.37035">
        <ele>544.4</ele>
        <time>2022-06-14T10:31:15.000Z</time>
      </trkpt>
      <trkpt lat="45.39177" lon="2.37036">
        <ele>544.4</ele>
        <time>2022-06-14T10:31:16.000Z</time>
      </trkpt>
      <trkpt lat="45.39178" lon="2.37036">
        <ele>544.4</ele>
        <time>2022-06-14T10:31:17.000Z</time>
      </trkpt>
      <trkpt lat="45.39178" lon="2.37037">
        <ele>544.4</ele>
        <time>2022-06-14T10:31:18.000Z</time>
      </trkpt>
      <trkpt lat="45.39179" lon="2.37037">
        <ele>544.4</ele>
        <time>2022-06-14T10:31:19.000Z</time>
      </trkpt>
      <trkpt lat="45.3918" lon="2.37038">
        <ele>544.4</ele>
        <time>2022-06-14T10:31:20.000Z</time>
      </trkpt>
      <trkpt lat="45.39181" lon="2.37038">
        <ele>544.4</ele>
        <time>2022-06-14T10:31:21.000Z</time>
      </trkpt>
      <trkpt lat="45.39182" lon="2.37038">
        <ele>544.2</ele>
        <time>2022-06-14T10:31:23.000Z</time>
      </trkpt>
      <trkpt lat="45.39183" lon="2.37038">
        <ele>544.1</ele>
        <time>2022-06-14T10:31:24.000Z</time>
      </trkpt>
      <trkpt lat="45.39184" lon="2.37038">
        <ele>544</ele>
        <time>2022-06-14T10:31:25.000Z</time>
      </trkpt>
      <trkpt lat="45.39185" lon="2.37038">
        <ele>543.8</ele>
        <time>2022-06-14T10:31:26.000Z</time>
      </trkpt>
      <trkpt lat="45.39186" lon="2.37038">
        <ele>543.7</ele>
        <time>2022-06-14T10:31:27.000Z</time>
      </trkpt>
      <trkpt lat="45.39187" lon="2.37038">
        <ele>543.5</ele>
        <time>2022-06-14T10:31:28.000Z</time>
      </trkpt>
      <trkpt lat="45.39188" lon="2.37037">
        <ele>543.2</ele>
        <time>2022-06-14T10:31:29.000Z</time>
      </trkpt>
      <trkpt lat="45.39188" lon="2.37036">
        <ele>543</ele>
        <time>2022-06-14T10:31:30.000Z</time>
      </trkpt>
      <trkpt lat="45.39189" lon="2.37035">
        <ele>542.7</ele>
        <time>2022-06-14T10:31:31.000Z</time>
      </trkpt>
      <trkpt lat="45.3919" lon="2.37034">
        <ele>542.5</ele>
        <time>2022-06-14T10:31:32.000Z</time>
      </trkpt>
      <trkpt lat="45.3919" lon="2.37033">
        <ele>542.1</ele>
        <time>2022-06-14T10:31:33.000Z</time>
      </trkpt>
      <trkpt lat="45.39191" lon="2.37032">
        <ele>541.8</ele>
        <time>2022-06-14T10:31:34.000Z</time>
      </trkpt>
      <trkpt lat="45.39191" lon="2.37031">
        <ele>541.5</ele>
        <time>2022-06-14T10:31:35.000Z</time>
      </trkpt>
      <trkpt lat="45.39191" lon="2.37029">
        <ele>541.2</ele>
        <time>2022-06-14T10:31:36.000Z</time>
      </trkpt>
      <trkpt lat="45.39192" lon="2.37028">
        <ele>540.8</ele>
        <time>2022-06-14T10:31:37.000Z</time>
      </trkpt>
      <trkpt lat="45.39192" lon="2.37026">
        <ele>540.5</ele>
        <time>2022-06-14T10:31:38.000Z</time>
      </trkpt>
      <trkpt lat="45.39192" lon="2.37025">
        <ele>540.1</ele>
        <time>2022-06-14T10:31:39.000Z</time>
      </trkpt>
      <trkpt lat="45.39192" lon="2.37023">
        <ele>539.8</ele>
        <time>2022-06-14T10:31:40.000Z</time>
      </trkpt>
      <trkpt lat="45.39192" lon="2.37021">
        <ele>539.5</ele>
        <time>2022-06-14T10:31:41.000Z</time>
      </trkpt>
      <trkpt lat="45.39192" lon="2.3702">
        <ele>539.3</ele>
        <time>2022-06-14T10:31:42.000Z</time>
      </trkpt>
      <trkpt lat="45.39191" lon="2.3702">
        <ele>539.1</ele>
        <time>2022-06-14T10:31:43.000Z</time>
      </trkpt>
      <trkpt lat="45.39191" lon="2.37019">
        <ele>539</ele>
        <time>2022-06-14T10:31:44.000Z</time>
      </trkpt>
      <trkpt lat="45.39191" lon="2.37018">
        <ele>538.9</ele>
        <time>2022-06-14T10:31:47.000Z</time>
      </trkpt>
      <trkpt lat="45.39191" lon="2.37017">
        <ele>538.6</ele>
        <time>2022-06-14T10:31:49.000Z</time>
      </trkpt>
      <trkpt lat="45.39192" lon="2.37017">
        <ele>538.5</ele>
        <time>2022-06-14T10:31:50.000Z</time>
      </trkpt>
      <trkpt lat="45.39192" lon="2.37016">
        <ele>538.3</ele>
        <time>2022-06-14T10:31:51.000Z</time>
      </trkpt>
      <trkpt lat="45.39193" lon="2.37016">
        <ele>538.2</ele>
        <time>2022-06-14T10:31:52.000Z</time>
      </trkpt>
      <trkpt lat="45.39194" lon="2.37017">
        <ele>538.2</ele>
        <time>2022-06-14T10:31:53.000Z</time>
      </trkpt>
      <trkpt lat="45.39195" lon="2.37018">
        <ele>538.2</ele>
        <time>2022-06-14T10:31:55.000Z</time>
      </trkpt>
      <trkpt lat="45.39196" lon="2.37019">
        <ele>538.3</ele>
        <time>2022-06-14T10:31:56.000Z</time>
      </trkpt>
      <trkpt lat="45.39197" lon="2.3702">
        <ele>538.4</ele>
        <time>2022-06-14T10:31:57.000Z</time>
      </trkpt>
      <trkpt lat="45.39198" lon="2.37021">
        <ele>538.5</ele>
        <time>2022-06-14T10:31:58.000Z</time>
      </trkpt>
      <trkpt lat="45.39199" lon="2.37022">
        <ele>538.6</ele>
        <time>2022-06-14T10:31:59.000Z</time>
      </trkpt>
      <trkpt lat="45.392" lon="2.37023">
        <ele>538.8</ele>
        <time>2022-06-14T10:32:00.000Z</time>
      </trkpt>
      <trkpt lat="45.39201" lon="2.37024">
        <ele>538.9</ele>
        <time>2022-06-14T10:32:01.000Z</time>
      </trkpt>
      <trkpt lat="45.39201" lon="2.37025">
        <ele>539</ele>
        <time>2022-06-14T10:32:02.000Z</time>
      </trkpt>
      <trkpt lat="45.39202" lon="2.37026">
        <ele>539</ele>
        <time>2022-06-14T10:32:03.000Z</time>
      </trkpt>
      <trkpt lat="45.39203" lon="2.37027">
        <ele>539.1</ele>
        <time>2022-06-14T10:32:04.000Z</time>
      </trkpt>
      <trkpt lat="45.39204" lon="2.37027">
        <ele>539.1</ele>
        <time>2022-06-14T10:32:05.000Z</time>
      </trkpt>
      <trkpt lat="45.39205" lon="2.37028">
        <ele>539</ele>
        <time>2022-06-14T10:32:06.000Z</time>
      </trkpt>
      <trkpt lat="45.39206" lon="2.37028">
        <ele>539</ele>
        <time>2022-06-14T10:32:07.000Z</time>
      </trkpt>
      <trkpt lat="45.39207" lon="2.37028">
        <ele>538.9</ele>
        <time>2022-06-14T10:32:08.000Z</time>
      </trkpt>
      <trkpt lat="45.39208" lon="2.37028">
        <ele>538.7</ele>
        <time>2022-06-14T10:32:09.000Z</time>
      </trkpt>
      <trkpt lat="45.39209" lon="2.37028">
        <ele>538.5</ele>
        <time>2022-06-14T10:32:10.000Z</time>
      </trkpt>
      <trkpt lat="45.39211" lon="2.37027">
        <ele>538.2</ele>
        <time>2022-06-14T10:32:11.000Z</time>
      </trkpt>
      <trkpt lat="45.39212" lon="2.37026">
        <ele>537.9</ele>
        <time>2022-06-14T10:32:12.000Z</time>
      </trkpt>
      <trkpt lat="45.39213" lon="2.37026">
        <ele>537.6</ele>
        <time>2022-06-14T10:32:13.000Z</time>
      </trkpt>
      <trkpt lat="45.39214" lon="2.37025">
        <ele>537.3</ele>
        <time>2022-06-14T10:32:14.000Z</time>
      </trkpt>
      <trkpt lat="45.39215" lon="2.37024">
        <ele>537</ele>
        <time>2022-06-14T10:32:15.000Z</time>
      </trkpt>
      <trkpt lat="45.39217" lon="2.37023">
        <ele>536.7</ele>
        <time>2022-06-14T10:32:16.000Z</time>
      </trkpt>
      <trkpt lat="45.39218" lon="2.37023">
        <ele>536.5</ele>
        <time>2022-06-14T10:32:17.000Z</time>
      </trkpt>
      <trkpt lat="45.39219" lon="2.37023">
        <ele>536.3</ele>
        <time>2022-06-14T10:32:18.000Z</time>
      </trkpt>
      <trkpt lat="45.3922" lon="2.37023">
        <ele>536.1</ele>
        <time>2022-06-14T10:32:19.000Z</time>
      </trkpt>
      <trkpt lat="45.39222" lon="2.37023">
        <ele>536</ele>
        <time>2022-06-14T10:32:20.000Z</time>
      </trkpt>
      <trkpt lat="45.39223" lon="2.37023">
        <ele>535.8</ele>
        <time>2022-06-14T10:32:21.000Z</time>
      </trkpt>
      <trkpt lat="45.39224" lon="2.37023">
        <ele>535.7</ele>
        <time>2022-06-14T10:32:22.000Z</time>
      </trkpt>
      <trkpt lat="45.39225" lon="2.37023">
        <ele>535.6</ele>
        <time>2022-06-14T10:32:23.000Z</time>
      </trkpt>
      <trkpt lat="45.39226" lon="2.37024">
        <ele>535.6</ele>
        <time>2022-06-14T10:32:24.000Z</time>
      </trkpt>
      <trkpt lat="45.39227" lon="2.37024">
        <ele>535.5</ele>
        <time>2022-06-14T10:32:25.000Z</time>
      </trkpt>
      <trkpt lat="45.39228" lon="2.37024">
        <ele>535.4</ele>
        <time>2022-06-14T10:32:26.000Z</time>
      </trkpt>
      <trkpt lat="45.39229" lon="2.37024">
        <ele>535.3</ele>
        <time>2022-06-14T10:32:28.000Z</time>
      </trkpt>
      <trkpt lat="45.3923" lon="2.37024">
        <ele>535.2</ele>
        <time>2022-06-14T10:32:30.000Z</time>
      </trkpt>
      <trkpt lat="45.39231" lon="2.37025">
        <ele>535.2</ele>
        <time>2022-06-14T10:32:32.000Z</time>
      </trkpt>
      <trkpt lat="45.39232" lon="2.37025">
        <ele>535.1</ele>
        <time>2022-06-14T10:32:33.000Z</time>
      </trkpt>
      <trkpt lat="45.39233" lon="2.37026">
        <ele>535.1</ele>
        <time>2022-06-14T10:32:34.000Z</time>
      </trkpt>
      <trkpt lat="45.39235" lon="2.37026">
        <ele>535</ele>
        <time>2022-06-14T10:32:35.000Z</time>
      </trkpt>
      <trkpt lat="45.39236" lon="2.37027">
        <ele>534.9</ele>
        <time>2022-06-14T10:32:36.000Z</time>
      </trkpt>
      <trkpt lat="45.39237" lon="2.37027">
        <ele>534.9</ele>
        <time>2022-06-14T10:32:37.000Z</time>
      </trkpt>
      <trkpt lat="45.39238" lon="2.37028">
        <ele>534.8</ele>
        <time>2022-06-14T10:32:38.000Z</time>
      </trkpt>
      <trkpt lat="45.39239" lon="2.37028">
        <ele>534.7</ele>
        <time>2022-06-14T10:32:39.000Z</time>
      </trkpt>
      <trkpt lat="45.39241" lon="2.37028">
        <ele>534.7</ele>
        <time>2022-06-14T10:32:40.000Z</time>
      </trkpt>
      <trkpt lat="45.39242" lon="2.37029">
        <ele>534.6</ele>
        <time>2022-06-14T10:32:41.000Z</time>
      </trkpt>
      <trkpt lat="45.39243" lon="2.3703">
        <ele>534.6</ele>
        <time>2022-06-14T10:32:42.000Z</time>
      </trkpt>
      <trkpt lat="45.39244" lon="2.37031">
        <ele>534.6</ele>
        <time>2022-06-14T10:32:43.000Z</time>
      </trkpt>
      <trkpt lat="45.39246" lon="2.37031">
        <ele>534.5</ele>
        <time>2022-06-14T10:32:44.000Z</time>
      </trkpt>
      <trkpt lat="45.39247" lon="2.37032">
        <ele>534.5</ele>
        <time>2022-06-14T10:32:45.000Z</time>
      </trkpt>
      <trkpt lat="45.39249" lon="2.37033">
        <ele>534.4</ele>
        <time>2022-06-14T10:32:46.000Z</time>
      </trkpt>
      <trkpt lat="45.3925" lon="2.37033">
        <ele>534.3</ele>
        <time>2022-06-14T10:32:47.000Z</time>
      </trkpt>
      <trkpt lat="45.39252" lon="2.37033">
        <ele>534.4</ele>
        <time>2022-06-14T10:32:48.000Z</time>
      </trkpt>
      <trkpt lat="45.39253" lon="2.37033">
        <ele>534.4</ele>
        <time>2022-06-14T10:32:49.000Z</time>
      </trkpt>
      <trkpt lat="45.39255" lon="2.37033">
        <ele>534.3</ele>
        <time>2022-06-14T10:32:50.000Z</time>
      </trkpt>
      <trkpt lat="45.39256" lon="2.37033">
        <ele>534.3</ele>
        <time>2022-06-14T10:32:51.000Z</time>
      </trkpt>
      <trkpt lat="45.39257" lon="2.37032">
        <ele>534.2</ele>
        <time>2022-06-14T10:32:52.000Z</time>
      </trkpt>
      <trkpt lat="45.39258" lon="2.37032">
        <ele>534.1</ele>
        <time>2022-06-14T10:32:53.000Z</time>
      </trkpt>
      <trkpt lat="45.39259" lon="2.37031">
        <ele>534</ele>
        <time>2022-06-14T10:32:54.000Z</time>
      </trkpt>
      <trkpt lat="45.3926" lon="2.37031">
        <ele>533.9</ele>
        <time>2022-06-14T10:32:55.000Z</time>
      </trkpt>
      <trkpt lat="45.39261" lon="2.3703">
        <ele>533.8</ele>
        <time>2022-06-14T10:32:56.000Z</time>
      </trkpt>
      <trkpt lat="45.39262" lon="2.37029">
        <ele>533.7</ele>
        <time>2022-06-14T10:32:57.000Z</time>
      </trkpt>
      <trkpt lat="45.39263" lon="2.37029">
        <ele>533.6</ele>
        <time>2022-06-14T10:32:58.000Z</time>
      </trkpt>
      <trkpt lat="45.39264" lon="2.37029">
        <ele>533.6</ele>
        <time>2022-06-14T10:32:59.000Z</time>
      </trkpt>
      <trkpt lat="45.39265" lon="2.37029">
        <ele>533.6</ele>
        <time>2022-06-14T10:33:00.000Z</time>
      </trkpt>
      <trkpt lat="45.39267" lon="2.37029">
        <ele>533.6</ele>
        <time>2022-06-14T10:33:01.000Z</time>
      </trkpt>
      <trkpt lat="45.39268" lon="2.37029">
        <ele>533.6</ele>
        <time>2022-06-14T10:33:02.000Z</time>
      </trkpt>
      <trkpt lat="45.3927" lon="2.37029">
        <ele>533.7</ele>
        <time>2022-06-14T10:33:03.000Z</time>
      </trkpt>
      <trkpt lat="45.39271" lon="2.37029">
        <ele>533.7</ele>
        <time>2022-06-14T10:33:04.000Z</time>
      </trkpt>
      <trkpt lat="45.39273" lon="2.3703">
        <ele>533.8</ele>
        <time>2022-06-14T10:33:05.000Z</time>
      </trkpt>
      <trkpt lat="45.39274" lon="2.3703">
        <ele>533.8</ele>
        <time>2022-06-14T10:33:06.000Z</time>
      </trkpt>
      <trkpt lat="45.39276" lon="2.3703">
        <ele>533.9</ele>
        <time>2022-06-14T10:33:07.000Z</time>
      </trkpt>
      <trkpt lat="45.39277" lon="2.3703">
        <ele>533.9</ele>
        <time>2022-06-14T10:33:08.000Z</time>
      </trkpt>
      <trkpt lat="45.39278" lon="2.3703">
        <ele>533.9</ele>
        <time>2022-06-14T10:33:09.000Z</time>
      </trkpt>
      <trkpt lat="45.3928" lon="2.3703">
        <ele>534</ele>
        <time>2022-06-14T10:33:10.000Z</time>
      </trkpt>
      <trkpt lat="45.39281" lon="2.37031">
        <ele>534</ele>
        <time>2022-06-14T10:33:11.000Z</time>
      </trkpt>
      <trkpt lat="45.39282" lon="2.37031">
        <ele>534</ele>
        <time>2022-06-14T10:33:12.000Z</time>
      </trkpt>
      <trkpt lat="45.39284" lon="2.37031">
        <ele>534</ele>
        <time>2022-06-14T10:33:13.000Z</time>
      </trkpt>
      <trkpt lat="45.39285" lon="2.37031">
        <ele>534</ele>
        <time>2022-06-14T10:33:14.000Z</time>
      </trkpt>
      <trkpt lat="45.39286" lon="2.37031">
        <ele>534.1</ele>
        <time>2022-06-14T10:33:15.000Z</time>
      </trkpt>
      <trkpt lat="45.39287" lon="2.37031">
        <ele>534.1</ele>
        <time>2022-06-14T10:33:16.000Z</time>
      </trkpt>
      <trkpt lat="45.39289" lon="2.37031">
        <ele>534.1</ele>
        <time>2022-06-14T10:33:17.000Z</time>
      </trkpt>
      <trkpt lat="45.3929" lon="2.37031">
        <ele>534.2</ele>
        <time>2022-06-14T10:33:18.000Z</time>
      </trkpt>
      <trkpt lat="45.39291" lon="2.37031">
        <ele>534.2</ele>
        <time>2022-06-14T10:33:19.000Z</time>
      </trkpt>
      <trkpt lat="45.39293" lon="2.37032">
        <ele>534.3</ele>
        <time>2022-06-14T10:33:20.000Z</time>
      </trkpt>
      <trkpt lat="45.39294" lon="2.37032">
        <ele>534.3</ele>
        <time>2022-06-14T10:33:21.000Z</time>
      </trkpt>
      <trkpt lat="45.39295" lon="2.37032">
        <ele>534.4</ele>
        <time>2022-06-14T10:33:22.000Z</time>
      </trkpt>
      <trkpt lat="45.39297" lon="2.37033">
        <ele>534.5</ele>
        <time>2022-06-14T10:33:23.000Z</time>
      </trkpt>
      <trkpt lat="45.39298" lon="2.37033">
        <ele>534.5</ele>
        <time>2022-06-14T10:33:24.000Z</time>
      </trkpt>
      <trkpt lat="45.39299" lon="2.37033">
        <ele>534.6</ele>
        <time>2022-06-14T10:33:25.000Z</time>
      </trkpt>
      <trkpt lat="45.39301" lon="2.37033">
        <ele>534.7</ele>
        <time>2022-06-14T10:33:26.000Z</time>
      </trkpt>
      <trkpt lat="45.39302" lon="2.37034">
        <ele>534.7</ele>
        <time>2022-06-14T10:33:27.000Z</time>
      </trkpt>
      <trkpt lat="45.39303" lon="2.37034">
        <ele>534.8</ele>
        <time>2022-06-14T10:33:28.000Z</time>
      </trkpt>
      <trkpt lat="45.39305" lon="2.37034">
        <ele>534.8</ele>
        <time>2022-06-14T10:33:29.000Z</time>
      </trkpt>
      <trkpt lat="45.39306" lon="2.37034">
        <ele>534.9</ele>
        <time>2022-06-14T10:33:30.000Z</time>
      </trkpt>
      <trkpt lat="45.39307" lon="2.37035">
        <ele>534.9</ele>
        <time>2022-06-14T10:33:31.000Z</time>
      </trkpt>
      <trkpt lat="45.39309" lon="2.37035">
        <ele>534.9</ele>
        <time>2022-06-14T10:33:32.000Z</time>
      </trkpt>
      <trkpt lat="45.3931" lon="2.37035">
        <ele>535</ele>
        <time>2022-06-14T10:33:33.000Z</time>
      </trkpt>
      <trkpt lat="45.39311" lon="2.37035">
        <ele>535</ele>
        <time>2022-06-14T10:33:34.000Z</time>
      </trkpt>
      <trkpt lat="45.39313" lon="2.37035">
        <ele>535</ele>
        <time>2022-06-14T10:33:35.000Z</time>
      </trkpt>
      <trkpt lat="45.39314" lon="2.37035">
        <ele>535</ele>
        <time>2022-06-14T10:33:36.000Z</time>
      </trkpt>
      <trkpt lat="45.39315" lon="2.37034">
        <ele>534.9</ele>
        <time>2022-06-14T10:33:37.000Z</time>
      </trkpt>
      <trkpt lat="45.39316" lon="2.37034">
        <ele>534.9</ele>
        <time>2022-06-14T10:33:38.000Z</time>
      </trkpt>
      <trkpt lat="45.39318" lon="2.37034">
        <ele>534.8</ele>
        <time>2022-06-14T10:33:39.000Z</time>
      </trkpt>
      <trkpt lat="45.39319" lon="2.37033">
        <ele>534.7</ele>
        <time>2022-06-14T10:33:40.000Z</time>
      </trkpt>
      <trkpt lat="45.3932" lon="2.37033">
        <ele>534.6</ele>
        <time>2022-06-14T10:33:41.000Z</time>
      </trkpt>
      <trkpt lat="45.39321" lon="2.37032">
        <ele>534.5</ele>
        <time>2022-06-14T10:33:42.000Z</time>
      </trkpt>
      <trkpt lat="45.39322" lon="2.37031">
        <ele>534.3</ele>
        <time>2022-06-14T10:33:43.000Z</time>
      </trkpt>
      <trkpt lat="45.39323" lon="2.3703">
        <ele>534.1</ele>
        <time>2022-06-14T10:33:44.000Z</time>
      </trkpt>
      <trkpt lat="45.39324" lon="2.37029">
        <ele>533.9</ele>
        <time>2022-06-14T10:33:45.000Z</time>
      </trkpt>
      <trkpt lat="45.39325" lon="2.37028">
        <ele>533.7</ele>
        <time>2022-06-14T10:33:46.000Z</time>
      </trkpt>
      <trkpt lat="45.39326" lon="2.37027">
        <ele>533.5</ele>
        <time>2022-06-14T10:33:47.000Z</time>
      </trkpt>
      <trkpt lat="45.39327" lon="2.37026">
        <ele>533.2</ele>
        <time>2022-06-14T10:33:48.000Z</time>
      </trkpt>
      <trkpt lat="45.39328" lon="2.37025">
        <ele>533</ele>
        <time>2022-06-14T10:33:49.000Z</time>
      </trkpt>
      <trkpt lat="45.39329" lon="2.37023">
        <ele>532.8</ele>
        <time>2022-06-14T10:33:50.000Z</time>
      </trkpt>
      <trkpt lat="45.3933" lon="2.37022">
        <ele>532.5</ele>
        <time>2022-06-14T10:33:51.000Z</time>
      </trkpt>
      <trkpt lat="45.39331" lon="2.37021">
        <ele>532.3</ele>
        <time>2022-06-14T10:33:52.000Z</time>
      </trkpt>
      <trkpt lat="45.39332" lon="2.3702">
        <ele>532</ele>
        <time>2022-06-14T10:33:53.000Z</time>
      </trkpt>
      <trkpt lat="45.39333" lon="2.37019">
        <ele>531.8</ele>
        <time>2022-06-14T10:33:54.000Z</time>
      </trkpt>
      <trkpt lat="45.39333" lon="2.37018">
        <ele>531.6</ele>
        <time>2022-06-14T10:33:55.000Z</time>
      </trkpt>
      <trkpt lat="45.39334" lon="2.37017">
        <ele>531.4</ele>
        <time>2022-06-14T10:33:56.000Z</time>
      </trkpt>
      <trkpt lat="45.39335" lon="2.37016">
        <ele>531.2</ele>
        <time>2022-06-14T10:33:57.000Z</time>
      </trkpt>
      <trkpt lat="45.39335" lon="2.37015">
        <ele>531.1</ele>
        <time>2022-06-14T10:33:58.000Z</time>
      </trkpt>
      <trkpt lat="45.39336" lon="2.37014">
        <ele>530.9</ele>
        <time>2022-06-14T10:33:59.000Z</time>
      </trkpt>
      <trkpt lat="45.39336" lon="2.37013">
        <ele>530.7</ele>
        <time>2022-06-14T10:34:00.000Z</time>
      </trkpt>
      <trkpt lat="45.39337" lon="2.37012">
        <ele>530.6</ele>
        <time>2022-06-14T10:34:01.000Z</time>
      </trkpt>
      <trkpt lat="45.39337" lon="2.37011">
        <ele>530.4</ele>
        <time>2022-06-14T10:34:02.000Z</time>
      </trkpt>
      <trkpt lat="45.39338" lon="2.3701">
        <ele>530.2</ele>
        <time>2022-06-14T10:34:03.000Z</time>
      </trkpt>
      <trkpt lat="45.39339" lon="2.3701">
        <ele>530.1</ele>
        <time>2022-06-14T10:34:04.000Z</time>
      </trkpt>
      <trkpt lat="45.39339" lon="2.37009">
        <ele>529.9</ele>
        <time>2022-06-14T10:34:05.000Z</time>
      </trkpt>
      <trkpt lat="45.3934" lon="2.37008">
        <ele>529.8</ele>
        <time>2022-06-14T10:34:06.000Z</time>
      </trkpt>
      <trkpt lat="45.39341" lon="2.37008">
        <ele>529.7</ele>
        <time>2022-06-14T10:34:07.000Z</time>
      </trkpt>
      <trkpt lat="45.39342" lon="2.37007">
        <ele>529.7</ele>
        <time>2022-06-14T10:34:08.000Z</time>
      </trkpt>
      <trkpt lat="45.39343" lon="2.37007">
        <ele>529.6</ele>
        <time>2022-06-14T10:34:09.000Z</time>
      </trkpt>
      <trkpt lat="45.39344" lon="2.37006">
        <ele>529.6</ele>
        <time>2022-06-14T10:34:11.000Z</time>
      </trkpt>
      <trkpt lat="45.39345" lon="2.37006">
        <ele>529.6</ele>
        <time>2022-06-14T10:34:12.000Z</time>
      </trkpt>
      <trkpt lat="45.39346" lon="2.37006">
        <ele>529.6</ele>
        <time>2022-06-14T10:34:13.000Z</time>
      </trkpt>
      <trkpt lat="45.39347" lon="2.37006">
        <ele>529.6</ele>
        <time>2022-06-14T10:34:14.000Z</time>
      </trkpt>
      <trkpt lat="45.39348" lon="2.37006">
        <ele>529.6</ele>
        <time>2022-06-14T10:34:15.000Z</time>
      </trkpt>
      <trkpt lat="45.39349" lon="2.37006">
        <ele>529.6</ele>
        <time>2022-06-14T10:34:16.000Z</time>
      </trkpt>
      <trkpt lat="45.3935" lon="2.37006">
        <ele>529.7</ele>
        <time>2022-06-14T10:34:18.000Z</time>
      </trkpt>
      <trkpt lat="45.39351" lon="2.37006">
        <ele>529.7</ele>
        <time>2022-06-14T10:34:19.000Z</time>
      </trkpt>
      <trkpt lat="45.39352" lon="2.37006">
        <ele>529.8</ele>
        <time>2022-06-14T10:34:21.000Z</time>
      </trkpt>
      <trkpt lat="45.39353" lon="2.37006">
        <ele>529.8</ele>
        <time>2022-06-14T10:34:23.000Z</time>
      </trkpt>
      <trkpt lat="45.39354" lon="2.37006">
        <ele>529.8</ele>
        <time>2022-06-14T10:34:27.000Z</time>
      </trkpt>
      <trkpt lat="45.39354" lon="2.37007">
        <ele>529.8</ele>
        <time>2022-06-14T10:34:29.000Z</time>
      </trkpt>
      <trkpt lat="45.39355" lon="2.37007">
        <ele>529.9</ele>
        <time>2022-06-14T10:34:32.000Z</time>
      </trkpt>
      <trkpt lat="45.39356" lon="2.37007">
        <ele>529.9</ele>
        <time>2022-06-14T10:34:34.000Z</time>
      </trkpt>
      <trkpt lat="45.39357" lon="2.37007">
        <ele>530</ele>
        <time>2022-06-14T10:34:35.000Z</time>
      </trkpt>
      <trkpt lat="45.39357" lon="2.37008">
        <ele>530.1</ele>
        <time>2022-06-14T10:34:36.000Z</time>
      </trkpt>
      <trkpt lat="45.39358" lon="2.37008">
        <ele>530.2</ele>
        <time>2022-06-14T10:34:37.000Z</time>
      </trkpt>
      <trkpt lat="45.39359" lon="2.37009">
        <ele>530.4</ele>
        <time>2022-06-14T10:34:39.000Z</time>
      </trkpt>
      <trkpt lat="45.39359" lon="2.3701">
        <ele>530.7</ele>
        <time>2022-06-14T10:34:41.000Z</time>
      </trkpt>
      <trkpt lat="45.3936" lon="2.37011">
        <ele>530.9</ele>
        <time>2022-06-14T10:34:42.000Z</time>
      </trkpt>
      <trkpt lat="45.3936" lon="2.37012">
        <ele>531</ele>
        <time>2022-06-14T10:34:43.000Z</time>
      </trkpt>
      <trkpt lat="45.39361" lon="2.37012">
        <ele>531.2</ele>
        <time>2022-06-14T10:34:44.000Z</time>
      </trkpt>
      <trkpt lat="45.39361" lon="2.37013">
        <ele>531.3</ele>
        <time>2022-06-14T10:34:45.000Z</time>
      </trkpt>
      <trkpt lat="45.39362" lon="2.37014">
        <ele>531.5</ele>
        <time>2022-06-14T10:34:47.000Z</time>
      </trkpt>
      <trkpt lat="45.39363" lon="2.37014">
        <ele>531.6</ele>
        <time>2022-06-14T10:34:52.000Z</time>
      </trkpt>
      <trkpt lat="45.39363" lon="2.37014">
        <ele>531.7</ele>
        <time>2022-06-14T10:34:55.000Z</time>
      </trkpt>
      <trkpt lat="45.39364" lon="2.37015">
        <ele>531.8</ele>
        <time>2022-06-14T10:34:56.000Z</time>
      </trkpt>
      <trkpt lat="45.39365" lon="2.37016">
        <ele>532.1</ele>
        <time>2022-06-14T10:34:59.000Z</time>
      </trkpt>
      <trkpt lat="45.39366" lon="2.37017">
        <ele>532.3</ele>
        <time>2022-06-14T10:35:01.000Z</time>
      </trkpt>
      <trkpt lat="45.39367" lon="2.37017">
        <ele>532.4</ele>
        <time>2022-06-14T10:35:04.000Z</time>
      </trkpt>
      <trkpt lat="45.39367" lon="2.37018">
        <ele>532.5</ele>
        <time>2022-06-14T10:35:06.000Z</time>
      </trkpt>
      <trkpt lat="45.39368" lon="2.37018">
        <ele>532.6</ele>
        <time>2022-06-14T10:35:07.000Z</time>
      </trkpt>
      <trkpt lat="45.39368" lon="2.37019">
        <ele>532.7</ele>
        <time>2022-06-14T10:35:08.000Z</time>
      </trkpt>
      <trkpt lat="45.39369" lon="2.37019">
        <ele>532.9</ele>
        <time>2022-06-14T10:35:09.000Z</time>
      </trkpt>
      <trkpt lat="45.3937" lon="2.3702">
        <ele>533</ele>
        <time>2022-06-14T10:35:10.000Z</time>
      </trkpt>
      <trkpt lat="45.39371" lon="2.3702">
        <ele>533.1</ele>
        <time>2022-06-14T10:35:12.000Z</time>
      </trkpt>
      <trkpt lat="45.39372" lon="2.37021">
        <ele>533.3</ele>
        <time>2022-06-14T10:35:15.000Z</time>
      </trkpt>
      <trkpt lat="45.39373" lon="2.37022">
        <ele>533.5</ele>
        <time>2022-06-14T10:35:16.000Z</time>
      </trkpt>
      <trkpt lat="45.39374" lon="2.37023">
        <ele>533.7</ele>
        <time>2022-06-14T10:35:18.000Z</time>
      </trkpt>
      <trkpt lat="45.39374" lon="2.37024">
        <ele>534</ele>
        <time>2022-06-14T10:35:20.000Z</time>
      </trkpt>
      <trkpt lat="45.39375" lon="2.37024">
        <ele>534.1</ele>
        <time>2022-06-14T10:35:21.000Z</time>
      </trkpt>
      <trkpt lat="45.39375" lon="2.37025">
        <ele>534.2</ele>
        <time>2022-06-14T10:35:22.000Z</time>
      </trkpt>
      <trkpt lat="45.39376" lon="2.37025">
        <ele>534.3</ele>
        <time>2022-06-14T10:35:23.000Z</time>
      </trkpt>
      <trkpt lat="45.39376" lon="2.37026">
        <ele>534.5</ele>
        <time>2022-06-14T10:35:24.000Z</time>
      </trkpt>
      <trkpt lat="45.39376" lon="2.37027">
        <ele>534.6</ele>
        <time>2022-06-14T10:35:25.000Z</time>
      </trkpt>
      <trkpt lat="45.39377" lon="2.37027">
        <ele>534.8</ele>
        <time>2022-06-14T10:35:26.000Z</time>
      </trkpt>
      <trkpt lat="45.39377" lon="2.37028">
        <ele>535</ele>
        <time>2022-06-14T10:35:27.000Z</time>
      </trkpt>
      <trkpt lat="45.39378" lon="2.37029">
        <ele>535.2</ele>
        <time>2022-06-14T10:35:28.000Z</time>
      </trkpt>
      <trkpt lat="45.39379" lon="2.3703">
        <ele>535.3</ele>
        <time>2022-06-14T10:35:29.000Z</time>
      </trkpt>
      <trkpt lat="45.39379" lon="2.37031">
        <ele>535.5</ele>
        <time>2022-06-14T10:35:30.000Z</time>
      </trkpt>
      <trkpt lat="45.3938" lon="2.37031">
        <ele>535.7</ele>
        <time>2022-06-14T10:35:31.000Z</time>
      </trkpt>
      <trkpt lat="45.39381" lon="2.37032">
        <ele>535.9</ele>
        <time>2022-06-14T10:35:32.000Z</time>
      </trkpt>
      <trkpt lat="45.39381" lon="2.37033">
        <ele>536.1</ele>
        <time>2022-06-14T10:35:33.000Z</time>
      </trkpt>
      <trkpt lat="45.39382" lon="2.37034">
        <ele>536.3</ele>
        <time>2022-06-14T10:35:34.000Z</time>
      </trkpt>
      <trkpt lat="45.39383" lon="2.37035">
        <ele>536.5</ele>
        <time>2022-06-14T10:35:35.000Z</time>
      </trkpt>
      <trkpt lat="45.39384" lon="2.37035">
        <ele>536.7</ele>
        <time>2022-06-14T10:35:36.000Z</time>
      </trkpt>
      <trkpt lat="45.39385" lon="2.37036">
        <ele>536.9</ele>
        <time>2022-06-14T10:35:37.000Z</time>
      </trkpt>
      <trkpt lat="45.39386" lon="2.37037">
        <ele>537.1</ele>
        <time>2022-06-14T10:35:38.000Z</time>
      </trkpt>
      <trkpt lat="45.39387" lon="2.37038">
        <ele>537.3</ele>
        <time>2022-06-14T10:35:39.000Z</time>
      </trkpt>
      <trkpt lat="45.39388" lon="2.37039">
        <ele>537.5</ele>
        <time>2022-06-14T10:35:40.000Z</time>
      </trkpt>
      <trkpt lat="45.39389" lon="2.37039">
        <ele>537.6</ele>
        <time>2022-06-14T10:35:41.000Z</time>
      </trkpt>
      <trkpt lat="45.3939" lon="2.3704">
        <ele>537.8</ele>
        <time>2022-06-14T10:35:42.000Z</time>
      </trkpt>
      <trkpt lat="45.39391" lon="2.37041">
        <ele>538</ele>
        <time>2022-06-14T10:35:43.000Z</time>
      </trkpt>
      <trkpt lat="45.39392" lon="2.37041">
        <ele>538.1</ele>
        <time>2022-06-14T10:35:44.000Z</time>
      </trkpt>
      <trkpt lat="45.39392" lon="2.37042">
        <ele>538.3</ele>
        <time>2022-06-14T10:35:45.000Z</time>
      </trkpt>
      <trkpt lat="45.39393" lon="2.37042">
        <ele>538.4</ele>
        <time>2022-06-14T10:35:46.000Z</time>
      </trkpt>
      <trkpt lat="45.39394" lon="2.37043">
        <ele>538.5</ele>
        <time>2022-06-14T10:35:47.000Z</time>
      </trkpt>
      <trkpt lat="45.39395" lon="2.37043">
        <ele>538.7</ele>
        <time>2022-06-14T10:35:49.000Z</time>
      </trkpt>
      <trkpt lat="45.39395" lon="2.37044">
        <ele>538.8</ele>
        <time>2022-06-14T10:35:51.000Z</time>
      </trkpt>
      <trkpt lat="45.39396" lon="2.37044">
        <ele>538.9</ele>
        <time>2022-06-14T10:35:53.000Z</time>
      </trkpt>
      <trkpt lat="45.39395" lon="2.37044">
        <ele>538.9</ele>
        <time>2022-06-14T10:35:58.000Z</time>
      </trkpt>
      <trkpt lat="45.39395" lon="2.37044">
        <ele>538.9</ele>
        <time>2022-06-14T10:36:02.000Z</time>
      </trkpt>
      <trkpt lat="45.39395" lon="2.37045">
        <ele>539</ele>
        <time>2022-06-14T10:37:44.000Z</time>
      </trkpt>
      <trkpt lat="45.39395" lon="2.37045">
        <ele>539</ele>
        <time>2022-06-14T10:37:52.000Z</time>
      </trkpt>
      <trkpt lat="45.39396" lon="2.37046">
        <ele>539.2</ele>
        <time>2022-06-14T10:37:54.000Z</time>
      </trkpt>
      <trkpt lat="45.39396" lon="2.37047">
        <ele>539.5</ele>
        <time>2022-06-14T10:37:55.000Z</time>
      </trkpt>
      <trkpt lat="45.39397" lon="2.37048">
        <ele>539.7</ele>
        <time>2022-06-14T10:37:56.000Z</time>
      </trkpt>
      <trkpt lat="45.39397" lon="2.37049">
        <ele>540</ele>
        <time>2022-06-14T10:37:57.000Z</time>
      </trkpt>
      <trkpt lat="45.39398" lon="2.37051">
        <ele>540.4</ele>
        <time>2022-06-14T10:37:58.000Z</time>
      </trkpt>
      <trkpt lat="45.39399" lon="2.37052">
        <ele>540.7</ele>
        <time>2022-06-14T10:37:59.000Z</time>
      </trkpt>
      <trkpt lat="45.39399" lon="2.37053">
        <ele>541</ele>
        <time>2022-06-14T10:38:00.000Z</time>
      </trkpt>
      <trkpt lat="45.394" lon="2.37055">
        <ele>541.2</ele>
        <time>2022-06-14T10:38:01.000Z</time>
      </trkpt>
      <trkpt lat="45.394" lon="2.37056">
        <ele>541.4</ele>
        <time>2022-06-14T10:38:02.000Z</time>
      </trkpt>
      <trkpt lat="45.394" lon="2.37057">
        <ele>541.7</ele>
        <time>2022-06-14T10:38:03.000Z</time>
      </trkpt>
      <trkpt lat="45.394" lon="2.37058">
        <ele>541.9</ele>
        <time>2022-06-14T10:38:04.000Z</time>
      </trkpt>
      <trkpt lat="45.394" lon="2.37059">
        <ele>542.1</ele>
        <time>2022-06-14T10:38:05.000Z</time>
      </trkpt>
      <trkpt lat="45.394" lon="2.3706">
        <ele>542.3</ele>
        <time>2022-06-14T10:38:06.000Z</time>
      </trkpt>
      <trkpt lat="45.394" lon="2.37061">
        <ele>542.6</ele>
        <time>2022-06-14T10:38:07.000Z</time>
      </trkpt>
      <trkpt lat="45.394" lon="2.37062">
        <ele>542.8</ele>
        <time>2022-06-14T10:38:08.000Z</time>
      </trkpt>
      <trkpt lat="45.394" lon="2.37063">
        <ele>543.1</ele>
        <time>2022-06-14T10:38:09.000Z</time>
      </trkpt>
      <trkpt lat="45.394" lon="2.37064">
        <ele>543.4</ele>
        <time>2022-06-14T10:38:10.000Z</time>
      </trkpt>
      <trkpt lat="45.394" lon="2.37066">
        <ele>543.6</ele>
        <time>2022-06-14T10:38:11.000Z</time>
      </trkpt>
      <trkpt lat="45.39401" lon="2.37067">
        <ele>544</ele>
        <time>2022-06-14T10:38:12.000Z</time>
      </trkpt>
      <trkpt lat="45.39401" lon="2.37069">
        <ele>544.3</ele>
        <time>2022-06-14T10:38:13.000Z</time>
      </trkpt>
      <trkpt lat="45.39401" lon="2.3707">
        <ele>544.6</ele>
        <time>2022-06-14T10:38:14.000Z</time>
      </trkpt>
      <trkpt lat="45.39401" lon="2.37072">
        <ele>545</ele>
        <time>2022-06-14T10:38:15.000Z</time>
      </trkpt>
      <trkpt lat="45.39402" lon="2.37073">
        <ele>545.3</ele>
        <time>2022-06-14T10:38:16.000Z</time>
      </trkpt>
      <trkpt lat="45.39402" lon="2.37075">
        <ele>545.7</ele>
        <time>2022-06-14T10:38:17.000Z</time>
      </trkpt>
      <trkpt lat="45.39403" lon="2.37077">
        <ele>546.2</ele>
        <time>2022-06-14T10:38:18.000Z</time>
      </trkpt>
      <trkpt lat="45.39403" lon="2.37079">
        <ele>546.6</ele>
        <time>2022-06-14T10:38:19.000Z</time>
      </trkpt>
      <trkpt lat="45.39403" lon="2.37081">
        <ele>547</ele>
        <time>2022-06-14T10:38:20.000Z</time>
      </trkpt>
      <trkpt lat="45.39404" lon="2.37083">
        <ele>547.4</ele>
        <time>2022-06-14T10:38:21.000Z</time>
      </trkpt>
      <trkpt lat="45.39404" lon="2.37084">
        <ele>547.8</ele>
        <time>2022-06-14T10:38:22.000Z</time>
      </trkpt>
      <trkpt lat="45.39405" lon="2.37086">
        <ele>548.1</ele>
        <time>2022-06-14T10:38:23.000Z</time>
      </trkpt>
      <trkpt lat="45.39406" lon="2.37088">
        <ele>548.5</ele>
        <time>2022-06-14T10:38:24.000Z</time>
      </trkpt>
      <trkpt lat="45.39406" lon="2.37089">
        <ele>548.8</ele>
        <time>2022-06-14T10:38:25.000Z</time>
      </trkpt>
      <trkpt lat="45.39407" lon="2.3709">
        <ele>549</ele>
        <time>2022-06-14T10:38:26.000Z</time>
      </trkpt>
      <trkpt lat="45.39407" lon="2.37091">
        <ele>549.3</ele>
        <time>2022-06-14T10:38:27.000Z</time>
      </trkpt>
      <trkpt lat="45.39408" lon="2.37092">
        <ele>549.6</ele>
        <time>2022-06-14T10:38:28.000Z</time>
      </trkpt>
      <trkpt lat="45.39409" lon="2.37094">
        <ele>549.8</ele>
        <time>2022-06-14T10:38:29.000Z</time>
      </trkpt>
      <trkpt lat="45.39409" lon="2.37095">
        <ele>550.1</ele>
        <time>2022-06-14T10:38:30.000Z</time>
      </trkpt>
      <trkpt lat="45.39409" lon="2.37096">
        <ele>550.4</ele>
        <time>2022-06-14T10:38:31.000Z</time>
      </trkpt>
      <trkpt lat="45.3941" lon="2.37097">
        <ele>550.7</ele>
        <time>2022-06-14T10:38:32.000Z</time>
      </trkpt>
      <trkpt lat="45.3941" lon="2.37098">
        <ele>550.9</ele>
        <time>2022-06-14T10:38:33.000Z</time>
      </trkpt>
      <trkpt lat="45.3941" lon="2.37099">
        <ele>551.2</ele>
        <time>2022-06-14T10:38:34.000Z</time>
      </trkpt>
      <trkpt lat="45.3941" lon="2.37101">
        <ele>551.4</ele>
        <time>2022-06-14T10:38:35.000Z</time>
      </trkpt>
      <trkpt lat="45.39411" lon="2.37102">
        <ele>551.7</ele>
        <time>2022-06-14T10:38:36.000Z</time>
      </trkpt>
      <trkpt lat="45.39411" lon="2.37103">
        <ele>551.9</ele>
        <time>2022-06-14T10:38:37.000Z</time>
      </trkpt>
      <trkpt lat="45.39411" lon="2.37104">
        <ele>552.1</ele>
        <time>2022-06-14T10:38:38.000Z</time>
      </trkpt>
      <trkpt lat="45.39411" lon="2.37105">
        <ele>552.3</ele>
        <time>2022-06-14T10:38:39.000Z</time>
      </trkpt>
      <trkpt lat="45.3941" lon="2.37105">
        <ele>552.4</ele>
        <time>2022-06-14T10:38:40.000Z</time>
      </trkpt>
      <trkpt lat="45.3941" lon="2.37106">
        <ele>552.5</ele>
        <time>2022-06-14T10:38:41.000Z</time>
      </trkpt>
      <trkpt lat="45.3941" lon="2.37107">
        <ele>552.8</ele>
        <time>2022-06-14T10:38:43.000Z</time>
      </trkpt>
      <trkpt lat="45.3941" lon="2.37108">
        <ele>553</ele>
        <time>2022-06-14T10:38:44.000Z</time>
      </trkpt>
      <trkpt lat="45.3941" lon="2.3711">
        <ele>553.3</ele>
        <time>2022-06-14T10:38:45.000Z</time>
      </trkpt>
      <trkpt lat="45.3941" lon="2.37111">
        <ele>553.6</ele>
        <time>2022-06-14T10:38:46.000Z</time>
      </trkpt>
      <trkpt lat="45.39409" lon="2.37113">
        <ele>554</ele>
        <time>2022-06-14T10:38:47.000Z</time>
      </trkpt>
      <trkpt lat="45.39409" lon="2.37115">
        <ele>554.4</ele>
        <time>2022-06-14T10:38:48.000Z</time>
      </trkpt>
      <trkpt lat="45.39409" lon="2.37117">
        <ele>554.7</ele>
        <time>2022-06-14T10:38:49.000Z</time>
      </trkpt>
      <trkpt lat="45.3941" lon="2.37118">
        <ele>555</ele>
        <time>2022-06-14T10:38:50.000Z</time>
      </trkpt>
      <trkpt lat="45.3941" lon="2.37119">
        <ele>555.3</ele>
        <time>2022-06-14T10:38:51.000Z</time>
      </trkpt>
      <trkpt lat="45.3941" lon="2.3712">
        <ele>555.5</ele>
        <time>2022-06-14T10:38:52.000Z</time>
      </trkpt>
      <trkpt lat="45.3941" lon="2.37121">
        <ele>555.6</ele>
        <time>2022-06-14T10:38:53.000Z</time>
      </trkpt>
      <trkpt lat="45.39411" lon="2.37121">
        <ele>555.8</ele>
        <time>2022-06-14T10:38:54.000Z</time>
      </trkpt>
      <trkpt lat="45.39411" lon="2.37122">
        <ele>555.9</ele>
        <time>2022-06-14T10:38:55.000Z</time>
      </trkpt>
      <trkpt lat="45.39411" lon="2.37123">
        <ele>556.1</ele>
        <time>2022-06-14T10:38:58.000Z</time>
      </trkpt>
      <trkpt lat="45.39411" lon="2.37123">
        <ele>556.2</ele>
        <time>2022-06-14T10:39:12.000Z</time>
      </trkpt>
      <trkpt lat="45.39411" lon="2.37124">
        <ele>556.3</ele>
        <time>2022-06-14T10:39:15.000Z</time>
      </trkpt>
      <trkpt lat="45.39411" lon="2.37125">
        <ele>556.6</ele>
        <time>2022-06-14T10:39:16.000Z</time>
      </trkpt>
      <trkpt lat="45.39411" lon="2.37127">
        <ele>556.9</ele>
        <time>2022-06-14T10:39:17.000Z</time>
      </trkpt>
      <trkpt lat="45.39411" lon="2.37128">
        <ele>557.3</ele>
        <time>2022-06-14T10:39:18.000Z</time>
      </trkpt>
      <trkpt lat="45.39411" lon="2.37129">
        <ele>557.4</ele>
        <time>2022-06-14T10:39:19.000Z</time>
      </trkpt>
      <trkpt lat="45.39411" lon="2.3713">
        <ele>557.6</ele>
        <time>2022-06-14T10:39:21.000Z</time>
      </trkpt>
      <trkpt lat="45.39411" lon="2.3713">
        <ele>557.8</ele>
        <time>2022-06-14T10:39:31.000Z</time>
      </trkpt>
      <trkpt lat="45.39411" lon="2.37131">
        <ele>557.8</ele>
        <time>2022-06-14T10:39:32.000Z</time>
      </trkpt>
      <trkpt lat="45.39412" lon="2.37131">
        <ele>557.8</ele>
        <time>2022-06-14T10:39:33.000Z</time>
      </trkpt>
      <trkpt lat="45.39412" lon="2.37131">
        <ele>558</ele>
        <time>2022-06-14T10:39:41.000Z</time>
      </trkpt>
      <trkpt lat="45.39412" lon="2.37132">
        <ele>558.1</ele>
        <time>2022-06-14T10:39:44.000Z</time>
      </trkpt>
      <trkpt lat="45.39412" lon="2.37131">
        <ele>558</ele>
        <time>2022-06-14T10:39:54.000Z</time>
      </trkpt>
      <trkpt lat="45.39411" lon="2.37131">
        <ele>557.9</ele>
        <time>2022-06-14T10:39:57.000Z</time>
      </trkpt>
      <trkpt lat="45.39411" lon="2.3713">
        <ele>557.7</ele>
        <time>2022-06-14T10:39:59.000Z</time>
      </trkpt>
      <trkpt lat="45.39411" lon="2.37129">
        <ele>557.4</ele>
        <time>2022-06-14T10:40:25.000Z</time>
      </trkpt>
      <trkpt lat="45.39411" lon="2.37128">
        <ele>557.3</ele>
        <time>2022-06-14T10:40:26.000Z</time>
      </trkpt>
      <trkpt lat="45.39411" lon="2.37127">
        <ele>557.2</ele>
        <time>2022-06-14T10:40:27.000Z</time>
      </trkpt>
      <trkpt lat="45.39412" lon="2.37127">
        <ele>557</ele>
        <time>2022-06-14T10:40:29.000Z</time>
      </trkpt>
      <trkpt lat="45.39412" lon="2.37126">
        <ele>557</ele>
        <time>2022-06-14T10:40:33.000Z</time>
      </trkpt>
      <trkpt lat="45.39411" lon="2.37125">
        <ele>556.7</ele>
        <time>2022-06-14T10:40:36.000Z</time>
      </trkpt>
      <trkpt lat="45.39411" lon="2.37124">
        <ele>556.5</ele>
        <time>2022-06-14T10:40:39.000Z</time>
      </trkpt>
      <trkpt lat="45.39411" lon="2.37126">
        <ele>556.8</ele>
        <time>2022-06-14T10:41:47.000Z</time>
      </trkpt>
      <trkpt lat="45.39411" lon="2.37127">
        <ele>557.1</ele>
        <time>2022-06-14T10:41:49.000Z</time>
      </trkpt>
      <trkpt lat="45.39411" lon="2.37129">
        <ele>557.5</ele>
        <time>2022-06-14T10:41:50.000Z</time>
      </trkpt>
      <trkpt lat="45.3941" lon="2.37132">
        <ele>558</ele>
        <time>2022-06-14T10:41:51.000Z</time>
      </trkpt>
      <trkpt lat="45.3941" lon="2.37134">
        <ele>558.4</ele>
        <time>2022-06-14T10:41:52.000Z</time>
      </trkpt>
      <trkpt lat="45.39409" lon="2.37135">
        <ele>558.7</ele>
        <time>2022-06-14T10:41:53.000Z</time>
      </trkpt>
      <trkpt lat="45.39408" lon="2.37137">
        <ele>558.9</ele>
        <time>2022-06-14T10:41:54.000Z</time>
      </trkpt>
      <trkpt lat="45.39408" lon="2.37138">
        <ele>559.2</ele>
        <time>2022-06-14T10:41:55.000Z</time>
      </trkpt>
      <trkpt lat="45.39407" lon="2.3714">
        <ele>559.4</ele>
        <time>2022-06-14T10:41:56.000Z</time>
      </trkpt>
      <trkpt lat="45.39406" lon="2.37141">
        <ele>559.7</ele>
        <time>2022-06-14T10:41:57.000Z</time>
      </trkpt>
      <trkpt lat="45.39405" lon="2.37143">
        <ele>559.9</ele>
        <time>2022-06-14T10:41:58.000Z</time>
      </trkpt>
      <trkpt lat="45.39405" lon="2.37144">
        <ele>560.2</ele>
        <time>2022-06-14T10:41:59.000Z</time>
      </trkpt>
      <trkpt lat="45.39404" lon="2.37146">
        <ele>560.5</ele>
        <time>2022-06-14T10:42:00.000Z</time>
      </trkpt>
      <trkpt lat="45.39404" lon="2.37148">
        <ele>560.8</ele>
        <time>2022-06-14T10:42:01.000Z</time>
      </trkpt>
      <trkpt lat="45.39403" lon="2.37149">
        <ele>561.1</ele>
        <time>2022-06-14T10:42:02.000Z</time>
      </trkpt>
      <trkpt lat="45.39402" lon="2.37151">
        <ele>561.3</ele>
        <time>2022-06-14T10:42:03.000Z</time>
      </trkpt>
      <trkpt lat="45.39402" lon="2.37152">
        <ele>561.6</ele>
        <time>2022-06-14T10:42:04.000Z</time>
      </trkpt>
      <trkpt lat="45.39401" lon="2.37154">
        <ele>561.9</ele>
        <time>2022-06-14T10:42:05.000Z</time>
      </trkpt>
      <trkpt lat="45.39401" lon="2.37156">
        <ele>562.2</ele>
        <time>2022-06-14T10:42:06.000Z</time>
      </trkpt>
      <trkpt lat="45.39401" lon="2.37157">
        <ele>562.5</ele>
        <time>2022-06-14T10:42:07.000Z</time>
      </trkpt>
      <trkpt lat="45.394" lon="2.37159">
        <ele>562.9</ele>
        <time>2022-06-14T10:42:08.000Z</time>
      </trkpt>
      <trkpt lat="45.394" lon="2.37161">
        <ele>563.2</ele>
        <time>2022-06-14T10:42:09.000Z</time>
      </trkpt>
      <trkpt lat="45.394" lon="2.37163">
        <ele>563.6</ele>
        <time>2022-06-14T10:42:10.000Z</time>
      </trkpt>
      <trkpt lat="45.394" lon="2.37165">
        <ele>563.9</ele>
        <time>2022-06-14T10:42:11.000Z</time>
      </trkpt>
      <trkpt lat="45.394" lon="2.37166">
        <ele>564.3</ele>
        <time>2022-06-14T10:42:12.000Z</time>
      </trkpt>
      <trkpt lat="45.394" lon="2.37168">
        <ele>564.5</ele>
        <time>2022-06-14T10:42:13.000Z</time>
      </trkpt>
      <trkpt lat="45.394" lon="2.3717">
        <ele>564.6</ele>
        <time>2022-06-14T10:42:14.000Z</time>
      </trkpt>
      <trkpt lat="45.394" lon="2.37172">
        <ele>564.8</ele>
        <time>2022-06-14T10:42:15.000Z</time>
      </trkpt>
      <trkpt lat="45.394" lon="2.37173">
        <ele>564.9</ele>
        <time>2022-06-14T10:42:16.000Z</time>
      </trkpt>
      <trkpt lat="45.394" lon="2.37175">
        <ele>565</ele>
        <time>2022-06-14T10:42:17.000Z</time>
      </trkpt>
      <trkpt lat="45.394" lon="2.37177">
        <ele>565.2</ele>
        <time>2022-06-14T10:42:18.000Z</time>
      </trkpt>
      <trkpt lat="45.39401" lon="2.37179">
        <ele>565.4</ele>
        <time>2022-06-14T10:42:19.000Z</time>
      </trkpt>
      <trkpt lat="45.39401" lon="2.3718">
        <ele>565.5</ele>
        <time>2022-06-14T10:42:20.000Z</time>
      </trkpt>
      <trkpt lat="45.39401" lon="2.37182">
        <ele>565.7</ele>
        <time>2022-06-14T10:42:21.000Z</time>
      </trkpt>
      <trkpt lat="45.39401" lon="2.37184">
        <ele>565.8</ele>
        <time>2022-06-14T10:42:22.000Z</time>
      </trkpt>
      <trkpt lat="45.39402" lon="2.37185">
        <ele>566</ele>
        <time>2022-06-14T10:42:23.000Z</time>
      </trkpt>
      <trkpt lat="45.39402" lon="2.37187">
        <ele>566.1</ele>
        <time>2022-06-14T10:42:24.000Z</time>
      </trkpt>
      <trkpt lat="45.39402" lon="2.37189">
        <ele>566.3</ele>
        <time>2022-06-14T10:42:25.000Z</time>
      </trkpt>
      <trkpt lat="45.39402" lon="2.37191">
        <ele>566.4</ele>
        <time>2022-06-14T10:42:26.000Z</time>
      </trkpt>
      <trkpt lat="45.39402" lon="2.37192">
        <ele>566.6</ele>
        <time>2022-06-14T10:42:27.000Z</time>
      </trkpt>
      <trkpt lat="45.39403" lon="2.37194">
        <ele>566.7</ele>
        <time>2022-06-14T10:42:28.000Z</time>
      </trkpt>
      <trkpt lat="45.39403" lon="2.37196">
        <ele>566.9</ele>
        <time>2022-06-14T10:42:29.000Z</time>
      </trkpt>
      <trkpt lat="45.39403" lon="2.37198">
        <ele>567</ele>
        <time>2022-06-14T10:42:30.000Z</time>
      </trkpt>
      <trkpt lat="45.39403" lon="2.37199">
        <ele>567.1</ele>
        <time>2022-06-14T10:42:31.000Z</time>
      </trkpt>
      <trkpt lat="45.39403" lon="2.37201">
        <ele>567.3</ele>
        <time>2022-06-14T10:42:32.000Z</time>
      </trkpt>
      <trkpt lat="45.39403" lon="2.37203">
        <ele>567.4</ele>
        <time>2022-06-14T10:42:33.000Z</time>
      </trkpt>
      <trkpt lat="45.39403" lon="2.37205">
        <ele>567.5</ele>
        <time>2022-06-14T10:42:34.000Z</time>
      </trkpt>
      <trkpt lat="45.39403" lon="2.37207">
        <ele>567.7</ele>
        <time>2022-06-14T10:42:35.000Z</time>
      </trkpt>
      <trkpt lat="45.39403" lon="2.37208">
        <ele>567.8</ele>
        <time>2022-06-14T10:42:36.000Z</time>
      </trkpt>
      <trkpt lat="45.39402" lon="2.3721">
        <ele>567.9</ele>
        <time>2022-06-14T10:42:37.000Z</time>
      </trkpt>
      <trkpt lat="45.39402" lon="2.37212">
        <ele>568</ele>
        <time>2022-06-14T10:42:38.000Z</time>
      </trkpt>
      <trkpt lat="45.39402" lon="2.37213">
        <ele>568.2</ele>
        <time>2022-06-14T10:42:39.000Z</time>
      </trkpt>
      <trkpt lat="45.39402" lon="2.37215">
        <ele>568.3</ele>
        <time>2022-06-14T10:42:40.000Z</time>
      </trkpt>
      <trkpt lat="45.39402" lon="2.37217">
        <ele>568.4</ele>
        <time>2022-06-14T10:42:41.000Z</time>
      </trkpt>
      <trkpt lat="45.39402" lon="2.37218">
        <ele>568.5</ele>
        <time>2022-06-14T10:42:42.000Z</time>
      </trkpt>
      <trkpt lat="45.39402" lon="2.3722">
        <ele>568.6</ele>
        <time>2022-06-14T10:42:43.000Z</time>
      </trkpt>
      <trkpt lat="45.39402" lon="2.37221">
        <ele>568.7</ele>
        <time>2022-06-14T10:42:44.000Z</time>
      </trkpt>
      <trkpt lat="45.39402" lon="2.37223">
        <ele>568.8</ele>
        <time>2022-06-14T10:42:45.000Z</time>
      </trkpt>
      <trkpt lat="45.39402" lon="2.37224">
        <ele>568.9</ele>
        <time>2022-06-14T10:42:46.000Z</time>
      </trkpt>
      <trkpt lat="45.39402" lon="2.37225">
        <ele>569.1</ele>
        <time>2022-06-14T10:42:47.000Z</time>
      </trkpt>
      <trkpt lat="45.39402" lon="2.37227">
        <ele>569.2</ele>
        <time>2022-06-14T10:42:48.000Z</time>
      </trkpt>
      <trkpt lat="45.39402" lon="2.37228">
        <ele>569.3</ele>
        <time>2022-06-14T10:42:49.000Z</time>
      </trkpt>
      <trkpt lat="45.39402" lon="2.3723">
        <ele>569.5</ele>
        <time>2022-06-14T10:42:50.000Z</time>
      </trkpt>
      <trkpt lat="45.39403" lon="2.37232">
        <ele>569.6</ele>
        <time>2022-06-14T10:42:51.000Z</time>
      </trkpt>
      <trkpt lat="45.39403" lon="2.37234">
        <ele>569.8</ele>
        <time>2022-06-14T10:42:52.000Z</time>
      </trkpt>
      <trkpt lat="45.39403" lon="2.37236">
        <ele>570</ele>
        <time>2022-06-14T10:42:53.000Z</time>
      </trkpt>
      <trkpt lat="45.39404" lon="2.37239">
        <ele>570.2</ele>
        <time>2022-06-14T10:42:54.000Z</time>
      </trkpt>
      <trkpt lat="45.39404" lon="2.37241">
        <ele>570.4</ele>
        <time>2022-06-14T10:42:55.000Z</time>
      </trkpt>
      <trkpt lat="45.39404" lon="2.37243">
        <ele>570.6</ele>
        <time>2022-06-14T10:42:56.000Z</time>
      </trkpt>
      <trkpt lat="45.39405" lon="2.37245">
        <ele>570.8</ele>
        <time>2022-06-14T10:42:57.000Z</time>
      </trkpt>
      <trkpt lat="45.39405" lon="2.37247">
        <ele>571</ele>
        <time>2022-06-14T10:42:58.000Z</time>
      </trkpt>
      <trkpt lat="45.39405" lon="2.37249">
        <ele>571.1</ele>
        <time>2022-06-14T10:42:59.000Z</time>
      </trkpt>
      <trkpt lat="45.39405" lon="2.37251">
        <ele>571.2</ele>
        <time>2022-06-14T10:43:00.000Z</time>
      </trkpt>
      <trkpt lat="45.39406" lon="2.37253">
        <ele>571.1</ele>
        <time>2022-06-14T10:43:01.000Z</time>
      </trkpt>
      <trkpt lat="45.39406" lon="2.37255">
        <ele>571.1</ele>
        <time>2022-06-14T10:43:02.000Z</time>
      </trkpt>
      <trkpt lat="45.39406" lon="2.37257">
        <ele>571.1</ele>
        <time>2022-06-14T10:43:03.000Z</time>
      </trkpt>
      <trkpt lat="45.39406" lon="2.37258">
        <ele>571.1</ele>
        <time>2022-06-14T10:43:04.000Z</time>
      </trkpt>
      <trkpt lat="45.39406" lon="2.3726">
        <ele>571</ele>
        <time>2022-06-14T10:43:05.000Z</time>
      </trkpt>
      <trkpt lat="45.39406" lon="2.37262">
        <ele>571</ele>
        <time>2022-06-14T10:43:06.000Z</time>
      </trkpt>
      <trkpt lat="45.39406" lon="2.37264">
        <ele>571</ele>
        <time>2022-06-14T10:43:07.000Z</time>
      </trkpt>
      <trkpt lat="45.39406" lon="2.37266">
        <ele>570.9</ele>
        <time>2022-06-14T10:43:08.000Z</time>
      </trkpt>
      <trkpt lat="45.39406" lon="2.37268">
        <ele>570.9</ele>
        <time>2022-06-14T10:43:09.000Z</time>
      </trkpt>
      <trkpt lat="45.39406" lon="2.3727">
        <ele>570.8</ele>
        <time>2022-06-14T10:43:10.000Z</time>
      </trkpt>
      <trkpt lat="45.39406" lon="2.37271">
        <ele>570.8</ele>
        <time>2022-06-14T10:43:11.000Z</time>
      </trkpt>
      <trkpt lat="45.39406" lon="2.37273">
        <ele>570.8</ele>
        <time>2022-06-14T10:43:12.000Z</time>
      </trkpt>
      <trkpt lat="45.39406" lon="2.37275">
        <ele>570.7</ele>
        <time>2022-06-14T10:43:13.000Z</time>
      </trkpt>
      <trkpt lat="45.39406" lon="2.37277">
        <ele>570.7</ele>
        <time>2022-06-14T10:43:14.000Z</time>
      </trkpt>
      <trkpt lat="45.39406" lon="2.37279">
        <ele>570.7</ele>
        <time>2022-06-14T10:43:15.000Z</time>
      </trkpt>
      <trkpt lat="45.39406" lon="2.37281">
        <ele>570.6</ele>
        <time>2022-06-14T10:43:16.000Z</time>
      </trkpt>
      <trkpt lat="45.39406" lon="2.37283">
        <ele>570.6</ele>
        <time>2022-06-14T10:43:17.000Z</time>
      </trkpt>
      <trkpt lat="45.39406" lon="2.37285">
        <ele>570.6</ele>
        <time>2022-06-14T10:43:18.000Z</time>
      </trkpt>
      <trkpt lat="45.39407" lon="2.37287">
        <ele>570.5</ele>
        <time>2022-06-14T10:43:19.000Z</time>
      </trkpt>
      <trkpt lat="45.39407" lon="2.37289">
        <ele>570.5</ele>
        <time>2022-06-14T10:43:20.000Z</time>
      </trkpt>
      <trkpt lat="45.39407" lon="2.37291">
        <ele>570.5</ele>
        <time>2022-06-14T10:43:21.000Z</time>
      </trkpt>
      <trkpt lat="45.39407" lon="2.37293">
        <ele>570.5</ele>
        <time>2022-06-14T10:43:22.000Z</time>
      </trkpt>
      <trkpt lat="45.39408" lon="2.37295">
        <ele>570.4</ele>
        <time>2022-06-14T10:43:23.000Z</time>
      </trkpt>
      <trkpt lat="45.39408" lon="2.37297">
        <ele>570.4</ele>
        <time>2022-06-14T10:43:24.000Z</time>
      </trkpt>
      <trkpt lat="45.39408" lon="2.37299">
        <ele>570.4</ele>
        <time>2022-06-14T10:43:25.000Z</time>
      </trkpt>
      <trkpt lat="45.39408" lon="2.37301">
        <ele>570.4</ele>
        <time>2022-06-14T10:43:26.000Z</time>
      </trkpt>
      <trkpt lat="45.39409" lon="2.37303">
        <ele>570.3</ele>
        <time>2022-06-14T10:43:27.000Z</time>
      </trkpt>
      <trkpt lat="45.39409" lon="2.37305">
        <ele>570.3</ele>
        <time>2022-06-14T10:43:28.000Z</time>
      </trkpt>
      <trkpt lat="45.39409" lon="2.37306">
        <ele>570.3</ele>
        <time>2022-06-14T10:43:29.000Z</time>
      </trkpt>
      <trkpt lat="45.3941" lon="2.37308">
        <ele>570.3</ele>
        <time>2022-06-14T10:43:30.000Z</time>
      </trkpt>
      <trkpt lat="45.3941" lon="2.3731">
        <ele>570.3</ele>
        <time>2022-06-14T10:43:31.000Z</time>
      </trkpt>
      <trkpt lat="45.3941" lon="2.37312">
        <ele>570.2</ele>
        <time>2022-06-14T10:43:32.000Z</time>
      </trkpt>
      <trkpt lat="45.39411" lon="2.37314">
        <ele>570.2</ele>
        <time>2022-06-14T10:43:33.000Z</time>
      </trkpt>
      <trkpt lat="45.39411" lon="2.37315">
        <ele>570.2</ele>
        <time>2022-06-14T10:43:34.000Z</time>
      </trkpt>
      <trkpt lat="45.39411" lon="2.37317">
        <ele>570.2</ele>
        <time>2022-06-14T10:43:35.000Z</time>
      </trkpt>
      <trkpt lat="45.39412" lon="2.37319">
        <ele>570.1</ele>
        <time>2022-06-14T10:43:36.000Z</time>
      </trkpt>
      <trkpt lat="45.39412" lon="2.37321">
        <ele>570.1</ele>
        <time>2022-06-14T10:43:37.000Z</time>
      </trkpt>
      <trkpt lat="45.39412" lon="2.37322">
        <ele>570.1</ele>
        <time>2022-06-14T10:43:38.000Z</time>
      </trkpt>
      <trkpt lat="45.39413" lon="2.37324">
        <ele>570.1</ele>
        <time>2022-06-14T10:43:39.000Z</time>
      </trkpt>
      <trkpt lat="45.39413" lon="2.37326">
        <ele>570</ele>
        <time>2022-06-14T10:43:40.000Z</time>
      </trkpt>
      <trkpt lat="45.39413" lon="2.37328">
        <ele>570</ele>
        <time>2022-06-14T10:43:41.000Z</time>
      </trkpt>
      <trkpt lat="45.39414" lon="2.37329">
        <ele>570</ele>
        <time>2022-06-14T10:43:42.000Z</time>
      </trkpt>
      <trkpt lat="45.39414" lon="2.37331">
        <ele>570</ele>
        <time>2022-06-14T10:43:43.000Z</time>
      </trkpt>
      <trkpt lat="45.39415" lon="2.37333">
        <ele>569.9</ele>
        <time>2022-06-14T10:43:44.000Z</time>
      </trkpt>
      <trkpt lat="45.39415" lon="2.37334">
        <ele>569.9</ele>
        <time>2022-06-14T10:43:45.000Z</time>
      </trkpt>
      <trkpt lat="45.39415" lon="2.37336">
        <ele>570</ele>
        <time>2022-06-14T10:43:46.000Z</time>
      </trkpt>
      <trkpt lat="45.39416" lon="2.37338">
        <ele>570</ele>
        <time>2022-06-14T10:43:47.000Z</time>
      </trkpt>
      <trkpt lat="45.39416" lon="2.3734">
        <ele>570.1</ele>
        <time>2022-06-14T10:43:48.000Z</time>
      </trkpt>
      <trkpt lat="45.39417" lon="2.37341">
        <ele>570.1</ele>
        <time>2022-06-14T10:43:49.000Z</time>
      </trkpt>
      <trkpt lat="45.39417" lon="2.37343">
        <ele>570.1</ele>
        <time>2022-06-14T10:43:50.000Z</time>
      </trkpt>
      <trkpt lat="45.39417" lon="2.37345">
        <ele>570.2</ele>
        <time>2022-06-14T10:43:51.000Z</time>
      </trkpt>
      <trkpt lat="45.39418" lon="2.37347">
        <ele>570.3</ele>
        <time>2022-06-14T10:43:52.000Z</time>
      </trkpt>
      <trkpt lat="45.39418" lon="2.37348">
        <ele>570.3</ele>
        <time>2022-06-14T10:43:53.000Z</time>
      </trkpt>
      <trkpt lat="45.39418" lon="2.3735">
        <ele>570.4</ele>
        <time>2022-06-14T10:43:54.000Z</time>
      </trkpt>
      <trkpt lat="45.39419" lon="2.37352">
        <ele>570.5</ele>
        <time>2022-06-14T10:43:55.000Z</time>
      </trkpt>
      <trkpt lat="45.39419" lon="2.37354">
        <ele>570.5</ele>
        <time>2022-06-14T10:43:56.000Z</time>
      </trkpt>
      <trkpt lat="45.3942" lon="2.37356">
        <ele>570.6</ele>
        <time>2022-06-14T10:43:57.000Z</time>
      </trkpt>
      <trkpt lat="45.3942" lon="2.37357">
        <ele>570.6</ele>
        <time>2022-06-14T10:43:58.000Z</time>
      </trkpt>
      <trkpt lat="45.3942" lon="2.37359">
        <ele>570.7</ele>
        <time>2022-06-14T10:43:59.000Z</time>
      </trkpt>
      <trkpt lat="45.39421" lon="2.37361">
        <ele>570.8</ele>
        <time>2022-06-14T10:44:00.000Z</time>
      </trkpt>
      <trkpt lat="45.39421" lon="2.37363">
        <ele>570.8</ele>
        <time>2022-06-14T10:44:01.000Z</time>
      </trkpt>
      <trkpt lat="45.39421" lon="2.37365">
        <ele>570.9</ele>
        <time>2022-06-14T10:44:02.000Z</time>
      </trkpt>
      <trkpt lat="45.39422" lon="2.37367">
        <ele>570.9</ele>
        <time>2022-06-14T10:44:03.000Z</time>
      </trkpt>
      <trkpt lat="45.39422" lon="2.37369">
        <ele>571</ele>
        <time>2022-06-14T10:44:04.000Z</time>
      </trkpt>
      <trkpt lat="45.39422" lon="2.3737">
        <ele>571</ele>
        <time>2022-06-14T10:44:05.000Z</time>
      </trkpt>
      <trkpt lat="45.39422" lon="2.37372">
        <ele>571.1</ele>
        <time>2022-06-14T10:44:06.000Z</time>
      </trkpt>
      <trkpt lat="45.39423" lon="2.37374">
        <ele>571.1</ele>
        <time>2022-06-14T10:44:07.000Z</time>
      </trkpt>
      <trkpt lat="45.39423" lon="2.37376">
        <ele>571.2</ele>
        <time>2022-06-14T10:44:08.000Z</time>
      </trkpt>
      <trkpt lat="45.39423" lon="2.37378">
        <ele>571.2</ele>
        <time>2022-06-14T10:44:09.000Z</time>
      </trkpt>
      <trkpt lat="45.39423" lon="2.3738">
        <ele>571.3</ele>
        <time>2022-06-14T10:44:10.000Z</time>
      </trkpt>
      <trkpt lat="45.39424" lon="2.37382">
        <ele>571.3</ele>
        <time>2022-06-14T10:44:11.000Z</time>
      </trkpt>
      <trkpt lat="45.39424" lon="2.37384">
        <ele>571.4</ele>
        <time>2022-06-14T10:44:12.000Z</time>
      </trkpt>
      <trkpt lat="45.39424" lon="2.37386">
        <ele>571.4</ele>
        <time>2022-06-14T10:44:13.000Z</time>
      </trkpt>
      <trkpt lat="45.39424" lon="2.37388">
        <ele>571.5</ele>
        <time>2022-06-14T10:44:14.000Z</time>
      </trkpt>
      <trkpt lat="45.39424" lon="2.3739">
        <ele>571.5</ele>
        <time>2022-06-14T10:44:15.000Z</time>
      </trkpt>
      <trkpt lat="45.39424" lon="2.37392">
        <ele>571.5</ele>
        <time>2022-06-14T10:44:16.000Z</time>
      </trkpt>
      <trkpt lat="45.39425" lon="2.37394">
        <ele>571.6</ele>
        <time>2022-06-14T10:44:17.000Z</time>
      </trkpt>
      <trkpt lat="45.39425" lon="2.37396">
        <ele>571.6</ele>
        <time>2022-06-14T10:44:18.000Z</time>
      </trkpt>
      <trkpt lat="45.39425" lon="2.37398">
        <ele>571.7</ele>
        <time>2022-06-14T10:44:19.000Z</time>
      </trkpt>
      <trkpt lat="45.39425" lon="2.374">
        <ele>571.7</ele>
        <time>2022-06-14T10:44:20.000Z</time>
      </trkpt>
      <trkpt lat="45.39425" lon="2.37402">
        <ele>571.7</ele>
        <time>2022-06-14T10:44:21.000Z</time>
      </trkpt>
      <trkpt lat="45.39425" lon="2.37404">
        <ele>571.8</ele>
        <time>2022-06-14T10:44:22.000Z</time>
      </trkpt>
      <trkpt lat="45.39425" lon="2.37406">
        <ele>571.8</ele>
        <time>2022-06-14T10:44:23.000Z</time>
      </trkpt>
      <trkpt lat="45.39425" lon="2.37408">
        <ele>571.8</ele>
        <time>2022-06-14T10:44:24.000Z</time>
      </trkpt>
      <trkpt lat="45.39426" lon="2.3741">
        <ele>571.9</ele>
        <time>2022-06-14T10:44:25.000Z</time>
      </trkpt>
      <trkpt lat="45.39426" lon="2.37412">
        <ele>571.9</ele>
        <time>2022-06-14T10:44:26.000Z</time>
      </trkpt>
      <trkpt lat="45.39426" lon="2.37414">
        <ele>572</ele>
        <time>2022-06-14T10:44:27.000Z</time>
      </trkpt>
      <trkpt lat="45.39426" lon="2.37416">
        <ele>572</ele>
        <time>2022-06-14T10:44:28.000Z</time>
      </trkpt>
      <trkpt lat="45.39426" lon="2.37418">
        <ele>572</ele>
        <time>2022-06-14T10:44:29.000Z</time>
      </trkpt>
      <trkpt lat="45.39426" lon="2.3742">
        <ele>572</ele>
        <time>2022-06-14T10:44:30.000Z</time>
      </trkpt>
      <trkpt lat="45.39426" lon="2.37422">
        <ele>572</ele>
        <time>2022-06-14T10:44:31.000Z</time>
      </trkpt>
      <trkpt lat="45.39427" lon="2.37423">
        <ele>572</ele>
        <time>2022-06-14T10:44:32.000Z</time>
      </trkpt>
      <trkpt lat="45.39427" lon="2.37425">
        <ele>572</ele>
        <time>2022-06-14T10:44:33.000Z</time>
      </trkpt>
      <trkpt lat="45.39427" lon="2.37427">
        <ele>572.1</ele>
        <time>2022-06-14T10:44:34.000Z</time>
      </trkpt>
      <trkpt lat="45.39427" lon="2.37429">
        <ele>572.1</ele>
        <time>2022-06-14T10:44:35.000Z</time>
      </trkpt>
      <trkpt lat="45.39427" lon="2.37431">
        <ele>572.1</ele>
        <time>2022-06-14T10:44:36.000Z</time>
      </trkpt>
      <trkpt lat="45.39427" lon="2.37432">
        <ele>572.1</ele>
        <time>2022-06-14T10:44:37.000Z</time>
      </trkpt>
      <trkpt lat="45.39427" lon="2.37434">
        <ele>572.1</ele>
        <time>2022-06-14T10:44:38.000Z</time>
      </trkpt>
      <trkpt lat="45.39427" lon="2.37436">
        <ele>572.1</ele>
        <time>2022-06-14T10:44:39.000Z</time>
      </trkpt>
      <trkpt lat="45.39428" lon="2.37438">
        <ele>572.1</ele>
        <time>2022-06-14T10:44:40.000Z</time>
      </trkpt>
      <trkpt lat="45.39428" lon="2.37439">
        <ele>572.1</ele>
        <time>2022-06-14T10:44:41.000Z</time>
      </trkpt>
      <trkpt lat="45.39428" lon="2.37441">
        <ele>572.1</ele>
        <time>2022-06-14T10:44:42.000Z</time>
      </trkpt>
      <trkpt lat="45.39428" lon="2.37443">
        <ele>572.1</ele>
        <time>2022-06-14T10:44:43.000Z</time>
      </trkpt>
      <trkpt lat="45.39428" lon="2.37445">
        <ele>572.1</ele>
        <time>2022-06-14T10:44:44.000Z</time>
      </trkpt>
      <trkpt lat="45.39428" lon="2.37447">
        <ele>572.1</ele>
        <time>2022-06-14T10:44:45.000Z</time>
      </trkpt>
      <trkpt lat="45.39428" lon="2.37449">
        <ele>572.1</ele>
        <time>2022-06-14T10:44:46.000Z</time>
      </trkpt>
      <trkpt lat="45.39428" lon="2.3745">
        <ele>572.1</ele>
        <time>2022-06-14T10:44:47.000Z</time>
      </trkpt>
      <trkpt lat="45.39428" lon="2.37451">
        <ele>572.1</ele>
        <time>2022-06-14T10:44:48.000Z</time>
      </trkpt>
      <trkpt lat="45.39428" lon="2.37452">
        <ele>572.1</ele>
        <time>2022-06-14T10:44:49.000Z</time>
      </trkpt>
      <trkpt lat="45.39428" lon="2.37453">
        <ele>572.1</ele>
        <time>2022-06-14T10:44:50.000Z</time>
      </trkpt>
      <trkpt lat="45.39428" lon="2.37454">
        <ele>572.1</ele>
        <time>2022-06-14T10:44:52.000Z</time>
      </trkpt>
      <trkpt lat="45.39428" lon="2.37453">
        <ele>572.1</ele>
        <time>2022-06-14T10:44:55.000Z</time>
      </trkpt>
      <trkpt lat="45.39428" lon="2.37453">
        <ele>572.1</ele>
        <time>2022-06-14T10:45:05.000Z</time>
      </trkpt>
      <trkpt lat="45.39428" lon="2.37454">
        <ele>572.1</ele>
        <time>2022-06-14T10:45:08.000Z</time>
      </trkpt>
      <trkpt lat="45.39428" lon="2.37455">
        <ele>572.1</ele>
        <time>2022-06-14T10:45:10.000Z</time>
      </trkpt>
      <trkpt lat="45.39428" lon="2.37456">
        <ele>572.1</ele>
        <time>2022-06-14T10:45:11.000Z</time>
      </trkpt>
      <trkpt lat="45.39428" lon="2.37457">
        <ele>572.1</ele>
        <time>2022-06-14T10:45:12.000Z</time>
      </trkpt>
      <trkpt lat="45.39428" lon="2.37459">
        <ele>572.1</ele>
        <time>2022-06-14T10:45:13.000Z</time>
      </trkpt>
      <trkpt lat="45.39429" lon="2.3746">
        <ele>572.1</ele>
        <time>2022-06-14T10:45:14.000Z</time>
      </trkpt>
      <trkpt lat="45.39429" lon="2.37462">
        <ele>572.1</ele>
        <time>2022-06-14T10:45:15.000Z</time>
      </trkpt>
      <trkpt lat="45.39429" lon="2.37464">
        <ele>572.1</ele>
        <time>2022-06-14T10:45:16.000Z</time>
      </trkpt>
      <trkpt lat="45.39429" lon="2.37465">
        <ele>572.1</ele>
        <time>2022-06-14T10:45:17.000Z</time>
      </trkpt>
      <trkpt lat="45.39429" lon="2.37467">
        <ele>572.2</ele>
        <time>2022-06-14T10:45:18.000Z</time>
      </trkpt>
      <trkpt lat="45.39429" lon="2.37469">
        <ele>572.2</ele>
        <time>2022-06-14T10:45:19.000Z</time>
      </trkpt>
      <trkpt lat="45.39429" lon="2.37471">
        <ele>572.2</ele>
        <time>2022-06-14T10:45:20.000Z</time>
      </trkpt>
      <trkpt lat="45.3943" lon="2.37473">
        <ele>572.2</ele>
        <time>2022-06-14T10:45:21.000Z</time>
      </trkpt>
      <trkpt lat="45.3943" lon="2.37474">
        <ele>572.2</ele>
        <time>2022-06-14T10:45:22.000Z</time>
      </trkpt>
      <trkpt lat="45.3943" lon="2.37476">
        <ele>572.2</ele>
        <time>2022-06-14T10:45:23.000Z</time>
      </trkpt>
      <trkpt lat="45.3943" lon="2.37478">
        <ele>572.2</ele>
        <time>2022-06-14T10:45:24.000Z</time>
      </trkpt>
      <trkpt lat="45.39431" lon="2.3748">
        <ele>572.2</ele>
        <time>2022-06-14T10:45:25.000Z</time>
      </trkpt>
      <trkpt lat="45.39431" lon="2.37481">
        <ele>572.3</ele>
        <time>2022-06-14T10:45:26.000Z</time>
      </trkpt>
      <trkpt lat="45.39431" lon="2.37483">
        <ele>572.3</ele>
        <time>2022-06-14T10:45:27.000Z</time>
      </trkpt>
      <trkpt lat="45.39432" lon="2.37485">
        <ele>572.3</ele>
        <time>2022-06-14T10:45:28.000Z</time>
      </trkpt>
      <trkpt lat="45.39432" lon="2.37486">
        <ele>572.3</ele>
        <time>2022-06-14T10:45:29.000Z</time>
      </trkpt>
      <trkpt lat="45.39432" lon="2.37488">
        <ele>572.4</ele>
        <time>2022-06-14T10:45:30.000Z</time>
      </trkpt>
      <trkpt lat="45.39433" lon="2.3749">
        <ele>572.4</ele>
        <time>2022-06-14T10:45:31.000Z</time>
      </trkpt>
      <trkpt lat="45.39433" lon="2.37491">
        <ele>572.4</ele>
        <time>2022-06-14T10:45:32.000Z</time>
      </trkpt>
      <trkpt lat="45.39434" lon="2.37493">
        <ele>572.5</ele>
        <time>2022-06-14T10:45:33.000Z</time>
      </trkpt>
      <trkpt lat="45.39434" lon="2.37495">
        <ele>572.5</ele>
        <time>2022-06-14T10:45:34.000Z</time>
      </trkpt>
      <trkpt lat="45.39435" lon="2.37497">
        <ele>572.5</ele>
        <time>2022-06-14T10:45:35.000Z</time>
      </trkpt>
      <trkpt lat="45.39435" lon="2.37498">
        <ele>572.6</ele>
        <time>2022-06-14T10:45:36.000Z</time>
      </trkpt>
      <trkpt lat="45.39436" lon="2.375">
        <ele>572.6</ele>
        <time>2022-06-14T10:45:37.000Z</time>
      </trkpt>
      <trkpt lat="45.39437" lon="2.37502">
        <ele>572.7</ele>
        <time>2022-06-14T10:45:38.000Z</time>
      </trkpt>
      <trkpt lat="45.39437" lon="2.37504">
        <ele>572.7</ele>
        <time>2022-06-14T10:45:39.000Z</time>
      </trkpt>
      <trkpt lat="45.39438" lon="2.37505">
        <ele>572.8</ele>
        <time>2022-06-14T10:45:40.000Z</time>
      </trkpt>
      <trkpt lat="45.39439" lon="2.37507">
        <ele>572.9</ele>
        <time>2022-06-14T10:45:41.000Z</time>
      </trkpt>
      <trkpt lat="45.39439" lon="2.37509">
        <ele>572.9</ele>
        <time>2022-06-14T10:45:42.000Z</time>
      </trkpt>
      <trkpt lat="45.3944" lon="2.37511">
        <ele>573</ele>
        <time>2022-06-14T10:45:43.000Z</time>
      </trkpt>
      <trkpt lat="45.39441" lon="2.37512">
        <ele>573.1</ele>
        <time>2022-06-14T10:45:44.000Z</time>
      </trkpt>
      <trkpt lat="45.39442" lon="2.37514">
        <ele>573.2</ele>
        <time>2022-06-14T10:45:45.000Z</time>
      </trkpt>
      <trkpt lat="45.39442" lon="2.37516">
        <ele>573.2</ele>
        <time>2022-06-14T10:45:46.000Z</time>
      </trkpt>
      <trkpt lat="45.39443" lon="2.37517">
        <ele>573.3</ele>
        <time>2022-06-14T10:45:47.000Z</time>
      </trkpt>
      <trkpt lat="45.39444" lon="2.37519">
        <ele>573.4</ele>
        <time>2022-06-14T10:45:48.000Z</time>
      </trkpt>
      <trkpt lat="45.39445" lon="2.3752">
        <ele>573.4</ele>
        <time>2022-06-14T10:45:49.000Z</time>
      </trkpt>
      <trkpt lat="45.39445" lon="2.37522">
        <ele>573.5</ele>
        <time>2022-06-14T10:45:50.000Z</time>
      </trkpt>
      <trkpt lat="45.39446" lon="2.37523">
        <ele>573.6</ele>
        <time>2022-06-14T10:45:51.000Z</time>
      </trkpt>
      <trkpt lat="45.39447" lon="2.37525">
        <ele>573.6</ele>
        <time>2022-06-14T10:45:52.000Z</time>
      </trkpt>
      <trkpt lat="45.39448" lon="2.37527">
        <ele>573.7</ele>
        <time>2022-06-14T10:45:53.000Z</time>
      </trkpt>
      <trkpt lat="45.39448" lon="2.37528">
        <ele>573.7</ele>
        <time>2022-06-14T10:45:54.000Z</time>
      </trkpt>
      <trkpt lat="45.39449" lon="2.3753">
        <ele>573.8</ele>
        <time>2022-06-14T10:45:55.000Z</time>
      </trkpt>
      <trkpt lat="45.3945" lon="2.37531">
        <ele>573.9</ele>
        <time>2022-06-14T10:45:56.000Z</time>
      </trkpt>
      <trkpt lat="45.39451" lon="2.37533">
        <ele>573.9</ele>
        <time>2022-06-14T10:45:57.000Z</time>
      </trkpt>
      <trkpt lat="45.39451" lon="2.37535">
        <ele>574</ele>
        <time>2022-06-14T10:45:58.000Z</time>
      </trkpt>
      <trkpt lat="45.39452" lon="2.37536">
        <ele>574</ele>
        <time>2022-06-14T10:45:59.000Z</time>
      </trkpt>
      <trkpt lat="45.39452" lon="2.37538">
        <ele>574.1</ele>
        <time>2022-06-14T10:46:00.000Z</time>
      </trkpt>
      <trkpt lat="45.39453" lon="2.3754">
        <ele>574.1</ele>
        <time>2022-06-14T10:46:01.000Z</time>
      </trkpt>
      <trkpt lat="45.39454" lon="2.37541">
        <ele>574.2</ele>
        <time>2022-06-14T10:46:02.000Z</time>
      </trkpt>
      <trkpt lat="45.39454" lon="2.37543">
        <ele>574.2</ele>
        <time>2022-06-14T10:46:03.000Z</time>
      </trkpt>
      <trkpt lat="45.39455" lon="2.37545">
        <ele>574.2</ele>
        <time>2022-06-14T10:46:04.000Z</time>
      </trkpt>
      <trkpt lat="45.39455" lon="2.37547">
        <ele>574.3</ele>
        <time>2022-06-14T10:46:05.000Z</time>
      </trkpt>
      <trkpt lat="45.39456" lon="2.37548">
        <ele>574.3</ele>
        <time>2022-06-14T10:46:06.000Z</time>
      </trkpt>
      <trkpt lat="45.39456" lon="2.3755">
        <ele>574.3</ele>
        <time>2022-06-14T10:46:07.000Z</time>
      </trkpt>
      <trkpt lat="45.39457" lon="2.37552">
        <ele>574.4</ele>
        <time>2022-06-14T10:46:08.000Z</time>
      </trkpt>
      <trkpt lat="45.39457" lon="2.37554">
        <ele>574.4</ele>
        <time>2022-06-14T10:46:09.000Z</time>
      </trkpt>
      <trkpt lat="45.39457" lon="2.37556">
        <ele>574.4</ele>
        <time>2022-06-14T10:46:10.000Z</time>
      </trkpt>
      <trkpt lat="45.39458" lon="2.37557">
        <ele>574.5</ele>
        <time>2022-06-14T10:46:11.000Z</time>
      </trkpt>
      <trkpt lat="45.39458" lon="2.37559">
        <ele>574.5</ele>
        <time>2022-06-14T10:46:12.000Z</time>
      </trkpt>
      <trkpt lat="45.39459" lon="2.37561">
        <ele>574.5</ele>
        <time>2022-06-14T10:46:13.000Z</time>
      </trkpt>
      <trkpt lat="45.39459" lon="2.37563">
        <ele>574.6</ele>
        <time>2022-06-14T10:46:14.000Z</time>
      </trkpt>
      <trkpt lat="45.3946" lon="2.37564">
        <ele>574.6</ele>
        <time>2022-06-14T10:46:15.000Z</time>
      </trkpt>
      <trkpt lat="45.3946" lon="2.37566">
        <ele>574.6</ele>
        <time>2022-06-14T10:46:16.000Z</time>
      </trkpt>
      <trkpt lat="45.39461" lon="2.37568">
        <ele>574.7</ele>
        <time>2022-06-14T10:46:17.000Z</time>
      </trkpt>
      <trkpt lat="45.39461" lon="2.3757">
        <ele>574.7</ele>
        <time>2022-06-14T10:46:18.000Z</time>
      </trkpt>
      <trkpt lat="45.39462" lon="2.37571">
        <ele>574.7</ele>
        <time>2022-06-14T10:46:19.000Z</time>
      </trkpt>
      <trkpt lat="45.39462" lon="2.37573">
        <ele>574.7</ele>
        <time>2022-06-14T10:46:20.000Z</time>
      </trkpt>
      <trkpt lat="45.39463" lon="2.37575">
        <ele>574.8</ele>
        <time>2022-06-14T10:46:21.000Z</time>
      </trkpt>
      <trkpt lat="45.39463" lon="2.37577">
        <ele>574.8</ele>
        <time>2022-06-14T10:46:22.000Z</time>
      </trkpt>
      <trkpt lat="45.39464" lon="2.37578">
        <ele>574.8</ele>
        <time>2022-06-14T10:46:23.000Z</time>
      </trkpt>
      <trkpt lat="45.39464" lon="2.3758">
        <ele>574.9</ele>
        <time>2022-06-14T10:46:24.000Z</time>
      </trkpt>
      <trkpt lat="45.39465" lon="2.37582">
        <ele>574.9</ele>
        <time>2022-06-14T10:46:25.000Z</time>
      </trkpt>
      <trkpt lat="45.39465" lon="2.37584">
        <ele>574.9</ele>
        <time>2022-06-14T10:46:26.000Z</time>
      </trkpt>
      <trkpt lat="45.39465" lon="2.37586">
        <ele>574.9</ele>
        <time>2022-06-14T10:46:27.000Z</time>
      </trkpt>
      <trkpt lat="45.39466" lon="2.37587">
        <ele>574.9</ele>
        <time>2022-06-14T10:46:28.000Z</time>
      </trkpt>
      <trkpt lat="45.39466" lon="2.37589">
        <ele>575</ele>
        <time>2022-06-14T10:46:29.000Z</time>
      </trkpt>
      <trkpt lat="45.39467" lon="2.37591">
        <ele>575</ele>
        <time>2022-06-14T10:46:30.000Z</time>
      </trkpt>
      <trkpt lat="45.39467" lon="2.37593">
        <ele>575</ele>
        <time>2022-06-14T10:46:31.000Z</time>
      </trkpt>
      <trkpt lat="45.39468" lon="2.37595">
        <ele>575</ele>
        <time>2022-06-14T10:46:32.000Z</time>
      </trkpt>
      <trkpt lat="45.39468" lon="2.37596">
        <ele>575</ele>
        <time>2022-06-14T10:46:33.000Z</time>
      </trkpt>
      <trkpt lat="45.39469" lon="2.37598">
        <ele>575.1</ele>
        <time>2022-06-14T10:46:34.000Z</time>
      </trkpt>
      <trkpt lat="45.39469" lon="2.376">
        <ele>575.1</ele>
        <time>2022-06-14T10:46:35.000Z</time>
      </trkpt>
      <trkpt lat="45.39469" lon="2.37602">
        <ele>575.1</ele>
        <time>2022-06-14T10:46:36.000Z</time>
      </trkpt>
      <trkpt lat="45.3947" lon="2.37603">
        <ele>575.1</ele>
        <time>2022-06-14T10:46:37.000Z</time>
      </trkpt>
      <trkpt lat="45.3947" lon="2.37605">
        <ele>575.1</ele>
        <time>2022-06-14T10:46:38.000Z</time>
      </trkpt>
      <trkpt lat="45.39471" lon="2.37607">
        <ele>575.2</ele>
        <time>2022-06-14T10:46:39.000Z</time>
      </trkpt>
      <trkpt lat="45.39471" lon="2.37609">
        <ele>575.2</ele>
        <time>2022-06-14T10:46:40.000Z</time>
      </trkpt>
      <trkpt lat="45.39472" lon="2.37611">
        <ele>575.2</ele>
        <time>2022-06-14T10:46:41.000Z</time>
      </trkpt>
      <trkpt lat="45.39472" lon="2.37612">
        <ele>575.2</ele>
        <time>2022-06-14T10:46:42.000Z</time>
      </trkpt>
      <trkpt lat="45.39473" lon="2.37614">
        <ele>575.2</ele>
        <time>2022-06-14T10:46:43.000Z</time>
      </trkpt>
      <trkpt lat="45.39473" lon="2.37616">
        <ele>575.3</ele>
        <time>2022-06-14T10:46:44.000Z</time>
      </trkpt>
      <trkpt lat="45.39474" lon="2.37618">
        <ele>575.3</ele>
        <time>2022-06-14T10:46:45.000Z</time>
      </trkpt>
      <trkpt lat="45.39474" lon="2.3762">
        <ele>575.3</ele>
        <time>2022-06-14T10:46:46.000Z</time>
      </trkpt>
      <trkpt lat="45.39475" lon="2.37621">
        <ele>575.3</ele>
        <time>2022-06-14T10:46:47.000Z</time>
      </trkpt>
      <trkpt lat="45.39475" lon="2.37623">
        <ele>575.3</ele>
        <time>2022-06-14T10:46:48.000Z</time>
      </trkpt>
      <trkpt lat="45.39476" lon="2.37625">
        <ele>575.3</ele>
        <time>2022-06-14T10:46:49.000Z</time>
      </trkpt>
      <trkpt lat="45.39476" lon="2.37627">
        <ele>575.3</ele>
        <time>2022-06-14T10:46:50.000Z</time>
      </trkpt>
      <trkpt lat="45.39477" lon="2.37629">
        <ele>575.4</ele>
        <time>2022-06-14T10:46:51.000Z</time>
      </trkpt>
      <trkpt lat="45.39477" lon="2.3763">
        <ele>575.4</ele>
        <time>2022-06-14T10:46:52.000Z</time>
      </trkpt>
      <trkpt lat="45.39478" lon="2.37632">
        <ele>575.4</ele>
        <time>2022-06-14T10:46:53.000Z</time>
      </trkpt>
      <trkpt lat="45.39478" lon="2.37634">
        <ele>575.4</ele>
        <time>2022-06-14T10:46:54.000Z</time>
      </trkpt>
      <trkpt lat="45.39479" lon="2.37636">
        <ele>575.4</ele>
        <time>2022-06-14T10:46:55.000Z</time>
      </trkpt>
      <trkpt lat="45.39479" lon="2.37638">
        <ele>575.4</ele>
        <time>2022-06-14T10:46:56.000Z</time>
      </trkpt>
      <trkpt lat="45.39479" lon="2.3764">
        <ele>575.4</ele>
        <time>2022-06-14T10:46:57.000Z</time>
      </trkpt>
      <trkpt lat="45.3948" lon="2.37641">
        <ele>575.4</ele>
        <time>2022-06-14T10:46:58.000Z</time>
      </trkpt>
      <trkpt lat="45.3948" lon="2.37643">
        <ele>575.4</ele>
        <time>2022-06-14T10:46:59.000Z</time>
      </trkpt>
      <trkpt lat="45.39481" lon="2.37645">
        <ele>575.4</ele>
        <time>2022-06-14T10:47:00.000Z</time>
      </trkpt>
      <trkpt lat="45.39481" lon="2.37647">
        <ele>575.5</ele>
        <time>2022-06-14T10:47:01.000Z</time>
      </trkpt>
      <trkpt lat="45.39482" lon="2.37649">
        <ele>575.5</ele>
        <time>2022-06-14T10:47:02.000Z</time>
      </trkpt>
      <trkpt lat="45.39482" lon="2.37651">
        <ele>575.5</ele>
        <time>2022-06-14T10:47:03.000Z</time>
      </trkpt>
      <trkpt lat="45.39483" lon="2.37653">
        <ele>575.5</ele>
        <time>2022-06-14T10:47:04.000Z</time>
      </trkpt>
      <trkpt lat="45.39483" lon="2.37655">
        <ele>575.5</ele>
        <time>2022-06-14T10:47:05.000Z</time>
      </trkpt>
      <trkpt lat="45.39483" lon="2.37657">
        <ele>575.5</ele>
        <time>2022-06-14T10:47:06.000Z</time>
      </trkpt>
      <trkpt lat="45.39484" lon="2.37659">
        <ele>575.5</ele>
        <time>2022-06-14T10:47:07.000Z</time>
      </trkpt>
      <trkpt lat="45.39484" lon="2.37661">
        <ele>575.5</ele>
        <time>2022-06-14T10:47:08.000Z</time>
      </trkpt>
      <trkpt lat="45.39484" lon="2.37663">
        <ele>575.5</ele>
        <time>2022-06-14T10:47:09.000Z</time>
      </trkpt>
      <trkpt lat="45.39485" lon="2.37665">
        <ele>575.5</ele>
        <time>2022-06-14T10:47:10.000Z</time>
      </trkpt>
      <trkpt lat="45.39485" lon="2.37667">
        <ele>575.5</ele>
        <time>2022-06-14T10:47:11.000Z</time>
      </trkpt>
      <trkpt lat="45.39485" lon="2.37669">
        <ele>575.5</ele>
        <time>2022-06-14T10:47:12.000Z</time>
      </trkpt>
      <trkpt lat="45.39486" lon="2.37671">
        <ele>575.5</ele>
        <time>2022-06-14T10:47:13.000Z</time>
      </trkpt>
      <trkpt lat="45.39486" lon="2.37673">
        <ele>575.5</ele>
        <time>2022-06-14T10:47:14.000Z</time>
      </trkpt>
      <trkpt lat="45.39486" lon="2.37675">
        <ele>575.5</ele>
        <time>2022-06-14T10:47:15.000Z</time>
      </trkpt>
      <trkpt lat="45.39486" lon="2.37677">
        <ele>575.5</ele>
        <time>2022-06-14T10:47:16.000Z</time>
      </trkpt>
      <trkpt lat="45.39486" lon="2.37679">
        <ele>575.6</ele>
        <time>2022-06-14T10:47:17.000Z</time>
      </trkpt>
      <trkpt lat="45.39486" lon="2.37681">
        <ele>575.6</ele>
        <time>2022-06-14T10:47:18.000Z</time>
      </trkpt>
      <trkpt lat="45.39487" lon="2.37683">
        <ele>575.6</ele>
        <time>2022-06-14T10:47:19.000Z</time>
      </trkpt>
      <trkpt lat="45.39487" lon="2.37685">
        <ele>575.6</ele>
        <time>2022-06-14T10:47:20.000Z</time>
      </trkpt>
      <trkpt lat="45.39487" lon="2.37687">
        <ele>575.6</ele>
        <time>2022-06-14T10:47:21.000Z</time>
      </trkpt>
      <trkpt lat="45.39487" lon="2.37689">
        <ele>575.6</ele>
        <time>2022-06-14T10:47:22.000Z</time>
      </trkpt>
      <trkpt lat="45.39487" lon="2.37691">
        <ele>575.6</ele>
        <time>2022-06-14T10:47:23.000Z</time>
      </trkpt>
      <trkpt lat="45.39487" lon="2.37693">
        <ele>575.6</ele>
        <time>2022-06-14T10:47:24.000Z</time>
      </trkpt>
      <trkpt lat="45.39487" lon="2.37695">
        <ele>575.6</ele>
        <time>2022-06-14T10:47:25.000Z</time>
      </trkpt>
      <trkpt lat="45.39487" lon="2.37697">
        <ele>575.6</ele>
        <time>2022-06-14T10:47:26.000Z</time>
      </trkpt>
      <trkpt lat="45.39487" lon="2.37699">
        <ele>575.6</ele>
        <time>2022-06-14T10:47:27.000Z</time>
      </trkpt>
      <trkpt lat="45.39486" lon="2.37701">
        <ele>575.6</ele>
        <time>2022-06-14T10:47:28.000Z</time>
      </trkpt>
      <trkpt lat="45.39486" lon="2.37703">
        <ele>575.6</ele>
        <time>2022-06-14T10:47:29.000Z</time>
      </trkpt>
      <trkpt lat="45.39486" lon="2.37705">
        <ele>575.7</ele>
        <time>2022-06-14T10:47:30.000Z</time>
      </trkpt>
      <trkpt lat="45.39486" lon="2.37707">
        <ele>575.7</ele>
        <time>2022-06-14T10:47:31.000Z</time>
      </trkpt>
      <trkpt lat="45.39486" lon="2.37709">
        <ele>575.7</ele>
        <time>2022-06-14T10:47:32.000Z</time>
      </trkpt>
      <trkpt lat="45.39486" lon="2.37711">
        <ele>575.7</ele>
        <time>2022-06-14T10:47:33.000Z</time>
      </trkpt>
      <trkpt lat="45.39486" lon="2.37713">
        <ele>575.7</ele>
        <time>2022-06-14T10:47:34.000Z</time>
      </trkpt>
      <trkpt lat="45.39486" lon="2.37715">
        <ele>575.7</ele>
        <time>2022-06-14T10:47:35.000Z</time>
      </trkpt>
      <trkpt lat="45.39486" lon="2.37717">
        <ele>575.7</ele>
        <time>2022-06-14T10:47:36.000Z</time>
      </trkpt>
      <trkpt lat="45.39486" lon="2.37719">
        <ele>575.7</ele>
        <time>2022-06-14T10:47:37.000Z</time>
      </trkpt>
      <trkpt lat="45.39486" lon="2.37721">
        <ele>575.7</ele>
        <time>2022-06-14T10:47:38.000Z</time>
      </trkpt>
      <trkpt lat="45.39486" lon="2.37723">
        <ele>575.7</ele>
        <time>2022-06-14T10:47:39.000Z</time>
      </trkpt>
      <trkpt lat="45.39486" lon="2.37725">
        <ele>575.7</ele>
        <time>2022-06-14T10:47:40.000Z</time>
      </trkpt>
      <trkpt lat="45.39486" lon="2.37727">
        <ele>575.7</ele>
        <time>2022-06-14T10:47:41.000Z</time>
      </trkpt>
      <trkpt lat="45.39485" lon="2.37729">
        <ele>575.7</ele>
        <time>2022-06-14T10:47:42.000Z</time>
      </trkpt>
      <trkpt lat="45.39485" lon="2.37731">
        <ele>575.7</ele>
        <time>2022-06-14T10:47:43.000Z</time>
      </trkpt>
      <trkpt lat="45.39485" lon="2.37733">
        <ele>575.7</ele>
        <time>2022-06-14T10:47:44.000Z</time>
      </trkpt>
      <trkpt lat="45.39485" lon="2.37734">
        <ele>575.7</ele>
        <time>2022-06-14T10:47:45.000Z</time>
      </trkpt>
      <trkpt lat="45.39484" lon="2.37736">
        <ele>575.8</ele>
        <time>2022-06-14T10:47:46.000Z</time>
      </trkpt>
      <trkpt lat="45.39484" lon="2.37738">
        <ele>575.8</ele>
        <time>2022-06-14T10:47:47.000Z</time>
      </trkpt>
      <trkpt lat="45.39484" lon="2.3774">
        <ele>575.8</ele>
        <time>2022-06-14T10:47:48.000Z</time>
      </trkpt>
      <trkpt lat="45.39483" lon="2.37741">
        <ele>575.8</ele>
        <time>2022-06-14T10:47:49.000Z</time>
      </trkpt>
      <trkpt lat="45.39483" lon="2.37743">
        <ele>575.8</ele>
        <time>2022-06-14T10:47:50.000Z</time>
      </trkpt>
      <trkpt lat="45.39483" lon="2.37744">
        <ele>575.8</ele>
        <time>2022-06-14T10:47:51.000Z</time>
      </trkpt>
      <trkpt lat="45.39482" lon="2.37746">
        <ele>575.8</ele>
        <time>2022-06-14T10:47:52.000Z</time>
      </trkpt>
      <trkpt lat="45.39482" lon="2.37747">
        <ele>575.8</ele>
        <time>2022-06-14T10:47:53.000Z</time>
      </trkpt>
      <trkpt lat="45.39481" lon="2.37749">
        <ele>575.8</ele>
        <time>2022-06-14T10:47:54.000Z</time>
      </trkpt>
      <trkpt lat="45.3948" lon="2.3775">
        <ele>575.8</ele>
        <time>2022-06-14T10:47:55.000Z</time>
      </trkpt>
      <trkpt lat="45.3948" lon="2.37752">
        <ele>575.8</ele>
        <time>2022-06-14T10:47:56.000Z</time>
      </trkpt>
      <trkpt lat="45.39479" lon="2.37754">
        <ele>575.8</ele>
        <time>2022-06-14T10:47:57.000Z</time>
      </trkpt>
      <trkpt lat="45.39479" lon="2.37755">
        <ele>575.7</ele>
        <time>2022-06-14T10:47:58.000Z</time>
      </trkpt>
      <trkpt lat="45.39478" lon="2.37757">
        <ele>575.7</ele>
        <time>2022-06-14T10:47:59.000Z</time>
      </trkpt>
      <trkpt lat="45.39477" lon="2.37759">
        <ele>575.7</ele>
        <time>2022-06-14T10:48:00.000Z</time>
      </trkpt>
      <trkpt lat="45.39477" lon="2.3776">
        <ele>575.7</ele>
        <time>2022-06-14T10:48:01.000Z</time>
      </trkpt>
      <trkpt lat="45.39476" lon="2.37761">
        <ele>575.7</ele>
        <time>2022-06-14T10:48:02.000Z</time>
      </trkpt>
      <trkpt lat="45.39476" lon="2.37762">
        <ele>575.7</ele>
        <time>2022-06-14T10:48:03.000Z</time>
      </trkpt>
      <trkpt lat="45.39476" lon="2.37763">
        <ele>575.7</ele>
        <time>2022-06-14T10:48:04.000Z</time>
      </trkpt>
      <trkpt lat="45.39475" lon="2.37763">
        <ele>575.7</ele>
        <time>2022-06-14T10:48:05.000Z</time>
      </trkpt>
      <trkpt lat="45.39475" lon="2.37764">
        <ele>575.7</ele>
        <time>2022-06-14T10:48:06.000Z</time>
      </trkpt>
      <trkpt lat="45.39475" lon="2.37764">
        <ele>575.7</ele>
        <time>2022-06-14T10:49:30.000Z</time>
      </trkpt>
      <trkpt lat="45.39475" lon="2.37765">
        <ele>575.7</ele>
        <time>2022-06-14T10:49:42.000Z</time>
      </trkpt>
      <trkpt lat="45.39476" lon="2.37767">
        <ele>575.7</ele>
        <time>2022-06-14T10:49:49.000Z</time>
      </trkpt>
      <trkpt lat="45.39476" lon="2.37768">
        <ele>575.7</ele>
        <time>2022-06-14T10:49:50.000Z</time>
      </trkpt>
      <trkpt lat="45.39476" lon="2.3777">
        <ele>575.7</ele>
        <time>2022-06-14T10:49:51.000Z</time>
      </trkpt>
      <trkpt lat="45.39477" lon="2.37771">
        <ele>575.7</ele>
        <time>2022-06-14T10:49:52.000Z</time>
      </trkpt>
      <trkpt lat="45.39478" lon="2.37773">
        <ele>575.7</ele>
        <time>2022-06-14T10:49:53.000Z</time>
      </trkpt>
      <trkpt lat="45.39479" lon="2.37775">
        <ele>575.7</ele>
        <time>2022-06-14T10:49:54.000Z</time>
      </trkpt>
      <trkpt lat="45.39479" lon="2.37776">
        <ele>575.8</ele>
        <time>2022-06-14T10:49:55.000Z</time>
      </trkpt>
      <trkpt lat="45.3948" lon="2.37778">
        <ele>575.8</ele>
        <time>2022-06-14T10:49:56.000Z</time>
      </trkpt>
      <trkpt lat="45.39481" lon="2.37779">
        <ele>575.8</ele>
        <time>2022-06-14T10:49:57.000Z</time>
      </trkpt>
      <trkpt lat="45.39481" lon="2.3778">
        <ele>575.8</ele>
        <time>2022-06-14T10:49:58.000Z</time>
      </trkpt>
      <trkpt lat="45.39482" lon="2.37781">
        <ele>575.8</ele>
        <time>2022-06-14T10:49:59.000Z</time>
      </trkpt>
      <trkpt lat="45.39483" lon="2.37782">
        <ele>575.8</ele>
        <time>2022-06-14T10:50:01.000Z</time>
      </trkpt>
      <trkpt lat="45.39483" lon="2.37784">
        <ele>575.8</ele>
        <time>2022-06-14T10:50:02.000Z</time>
      </trkpt>
      <trkpt lat="45.39484" lon="2.37785">
        <ele>575.8</ele>
        <time>2022-06-14T10:50:03.000Z</time>
      </trkpt>
      <trkpt lat="45.39485" lon="2.37787">
        <ele>575.8</ele>
        <time>2022-06-14T10:50:04.000Z</time>
      </trkpt>
      <trkpt lat="45.39486" lon="2.37789">
        <ele>575.8</ele>
        <time>2022-06-14T10:50:05.000Z</time>
      </trkpt>
      <trkpt lat="45.39486" lon="2.37791">
        <ele>575.8</ele>
        <time>2022-06-14T10:50:06.000Z</time>
      </trkpt>
      <trkpt lat="45.39487" lon="2.37792">
        <ele>575.8</ele>
        <time>2022-06-14T10:50:07.000Z</time>
      </trkpt>
      <trkpt lat="45.39488" lon="2.37794">
        <ele>575.9</ele>
        <time>2022-06-14T10:50:08.000Z</time>
      </trkpt>
      <trkpt lat="45.39489" lon="2.37795">
        <ele>575.9</ele>
        <time>2022-06-14T10:50:09.000Z</time>
      </trkpt>
      <trkpt lat="45.3949" lon="2.37797">
        <ele>575.9</ele>
        <time>2022-06-14T10:50:10.000Z</time>
      </trkpt>
      <trkpt lat="45.39491" lon="2.37798">
        <ele>575.9</ele>
        <time>2022-06-14T10:50:11.000Z</time>
      </trkpt>
      <trkpt lat="45.39492" lon="2.37799">
        <ele>575.9</ele>
        <time>2022-06-14T10:50:12.000Z</time>
      </trkpt>
      <trkpt lat="45.39493" lon="2.378">
        <ele>575.9</ele>
        <time>2022-06-14T10:50:13.000Z</time>
      </trkpt>
      <trkpt lat="45.39494" lon="2.37801">
        <ele>575.9</ele>
        <time>2022-06-14T10:50:14.000Z</time>
      </trkpt>
      <trkpt lat="45.39495" lon="2.37802">
        <ele>575.9</ele>
        <time>2022-06-14T10:50:15.000Z</time>
      </trkpt>
      <trkpt lat="45.39496" lon="2.37803">
        <ele>576</ele>
        <time>2022-06-14T10:50:16.000Z</time>
      </trkpt>
      <trkpt lat="45.39497" lon="2.37804">
        <ele>576</ele>
        <time>2022-06-14T10:50:17.000Z</time>
      </trkpt>
      <trkpt lat="45.39498" lon="2.37804">
        <ele>576</ele>
        <time>2022-06-14T10:50:18.000Z</time>
      </trkpt>
      <trkpt lat="45.395" lon="2.37805">
        <ele>576</ele>
        <time>2022-06-14T10:50:19.000Z</time>
      </trkpt>
      <trkpt lat="45.39501" lon="2.37805">
        <ele>576</ele>
        <time>2022-06-14T10:50:21.000Z</time>
      </trkpt>
      <trkpt lat="45.39503" lon="2.37803">
        <ele>575.9</ele>
        <time>2022-06-14T11:41:52.000Z</time>
      </trkpt>
      <trkpt lat="45.39504" lon="2.37802">
        <ele>575.9</ele>
        <time>2022-06-14T11:41:53.000Z</time>
      </trkpt>
      <trkpt lat="45.39504" lon="2.37801">
        <ele>575.9</ele>
        <time>2022-06-14T11:41:54.000Z</time>
      </trkpt>
      <trkpt lat="45.39505" lon="2.37799">
        <ele>575.9</ele>
        <time>2022-06-14T11:41:55.000Z</time>
      </trkpt>
      <trkpt lat="45.39505" lon="2.37798">
        <ele>575.9</ele>
        <time>2022-06-14T11:41:56.000Z</time>
      </trkpt>
      <trkpt lat="45.39506" lon="2.37796">
        <ele>575.9</ele>
        <time>2022-06-14T11:41:57.000Z</time>
      </trkpt>
      <trkpt lat="45.39506" lon="2.37795">
        <ele>575.8</ele>
        <time>2022-06-14T11:41:58.000Z</time>
      </trkpt>
      <trkpt lat="45.39507" lon="2.37793">
        <ele>575.8</ele>
        <time>2022-06-14T11:41:59.000Z</time>
      </trkpt>
      <trkpt lat="45.39507" lon="2.37791">
        <ele>575.8</ele>
        <time>2022-06-14T11:42:00.000Z</time>
      </trkpt>
      <trkpt lat="45.39508" lon="2.3779">
        <ele>575.8</ele>
        <time>2022-06-14T11:42:01.000Z</time>
      </trkpt>
      <trkpt lat="45.39508" lon="2.37788">
        <ele>575.8</ele>
        <time>2022-06-14T11:42:02.000Z</time>
      </trkpt>
      <trkpt lat="45.39509" lon="2.37787">
        <ele>575.8</ele>
        <time>2022-06-14T11:42:03.000Z</time>
      </trkpt>
      <trkpt lat="45.39509" lon="2.37785">
        <ele>575.8</ele>
        <time>2022-06-14T11:42:04.000Z</time>
      </trkpt>
      <trkpt lat="45.3951" lon="2.37784">
        <ele>575.8</ele>
        <time>2022-06-14T11:42:05.000Z</time>
      </trkpt>
      <trkpt lat="45.3951" lon="2.37782">
        <ele>575.8</ele>
        <time>2022-06-14T11:42:06.000Z</time>
      </trkpt>
      <trkpt lat="45.39511" lon="2.37781">
        <ele>575.8</ele>
        <time>2022-06-14T11:42:07.000Z</time>
      </trkpt>
      <trkpt lat="45.39511" lon="2.3778">
        <ele>575.8</ele>
        <time>2022-06-14T11:42:08.000Z</time>
      </trkpt>
      <trkpt lat="45.39512" lon="2.37778">
        <ele>575.8</ele>
        <time>2022-06-14T11:42:09.000Z</time>
      </trkpt>
      <trkpt lat="45.39512" lon="2.37777">
        <ele>575.8</ele>
        <time>2022-06-14T11:42:10.000Z</time>
      </trkpt>
      <trkpt lat="45.39513" lon="2.37775">
        <ele>575.7</ele>
        <time>2022-06-14T11:42:11.000Z</time>
      </trkpt>
      <trkpt lat="45.39514" lon="2.37774">
        <ele>575.7</ele>
        <time>2022-06-14T11:42:12.000Z</time>
      </trkpt>
      <trkpt lat="45.39514" lon="2.37772">
        <ele>575.7</ele>
        <time>2022-06-14T11:42:13.000Z</time>
      </trkpt>
      <trkpt lat="45.39515" lon="2.37771">
        <ele>575.7</ele>
        <time>2022-06-14T11:42:14.000Z</time>
      </trkpt>
      <trkpt lat="45.39515" lon="2.3777">
        <ele>575.7</ele>
        <time>2022-06-14T11:42:15.000Z</time>
      </trkpt>
      <trkpt lat="45.39516" lon="2.37768">
        <ele>575.7</ele>
        <time>2022-06-14T11:42:16.000Z</time>
      </trkpt>
      <trkpt lat="45.39516" lon="2.37767">
        <ele>575.7</ele>
        <time>2022-06-14T11:42:17.000Z</time>
      </trkpt>
      <trkpt lat="45.39517" lon="2.37765">
        <ele>575.7</ele>
        <time>2022-06-14T11:42:18.000Z</time>
      </trkpt>
      <trkpt lat="45.39517" lon="2.37764">
        <ele>575.7</ele>
        <time>2022-06-14T11:42:19.000Z</time>
      </trkpt>
      <trkpt lat="45.39518" lon="2.37762">
        <ele>575.7</ele>
        <time>2022-06-14T11:42:20.000Z</time>
      </trkpt>
      <trkpt lat="45.39518" lon="2.37761">
        <ele>575.7</ele>
        <time>2022-06-14T11:42:21.000Z</time>
      </trkpt>
      <trkpt lat="45.39519" lon="2.3776">
        <ele>575.7</ele>
        <time>2022-06-14T11:42:22.000Z</time>
      </trkpt>
      <trkpt lat="45.39519" lon="2.37758">
        <ele>575.7</ele>
        <time>2022-06-14T11:42:23.000Z</time>
      </trkpt>
      <trkpt lat="45.3952" lon="2.37757">
        <ele>575.7</ele>
        <time>2022-06-14T11:42:24.000Z</time>
      </trkpt>
      <trkpt lat="45.3952" lon="2.37755">
        <ele>575.7</ele>
        <time>2022-06-14T11:42:25.000Z</time>
      </trkpt>
      <trkpt lat="45.39521" lon="2.37754">
        <ele>575.7</ele>
        <time>2022-06-14T11:42:26.000Z</time>
      </trkpt>
      <trkpt lat="45.39522" lon="2.37753">
        <ele>575.7</ele>
        <time>2022-06-14T11:42:27.000Z</time>
      </trkpt>
      <trkpt lat="45.39522" lon="2.37751">
        <ele>575.7</ele>
        <time>2022-06-14T11:42:28.000Z</time>
      </trkpt>
      <trkpt lat="45.39523" lon="2.3775">
        <ele>575.7</ele>
        <time>2022-06-14T11:42:29.000Z</time>
      </trkpt>
      <trkpt lat="45.39523" lon="2.37748">
        <ele>575.8</ele>
        <time>2022-06-14T11:42:30.000Z</time>
      </trkpt>
      <trkpt lat="45.39523" lon="2.37747">
        <ele>575.8</ele>
        <time>2022-06-14T11:42:31.000Z</time>
      </trkpt>
      <trkpt lat="45.39524" lon="2.37745">
        <ele>575.8</ele>
        <time>2022-06-14T11:42:32.000Z</time>
      </trkpt>
      <trkpt lat="45.39524" lon="2.37744">
        <ele>575.9</ele>
        <time>2022-06-14T11:42:33.000Z</time>
      </trkpt>
      <trkpt lat="45.39525" lon="2.37743">
        <ele>575.9</ele>
        <time>2022-06-14T11:42:34.000Z</time>
      </trkpt>
      <trkpt lat="45.39525" lon="2.37741">
        <ele>575.9</ele>
        <time>2022-06-14T11:42:35.000Z</time>
      </trkpt>
      <trkpt lat="45.39526" lon="2.3774">
        <ele>576</ele>
        <time>2022-06-14T11:42:36.000Z</time>
      </trkpt>
      <trkpt lat="45.39526" lon="2.37738">
        <ele>576</ele>
        <time>2022-06-14T11:42:37.000Z</time>
      </trkpt>
      <trkpt lat="45.39527" lon="2.37737">
        <ele>576</ele>
        <time>2022-06-14T11:42:38.000Z</time>
      </trkpt>
      <trkpt lat="45.39527" lon="2.37736">
        <ele>576.1</ele>
        <time>2022-06-14T11:42:39.000Z</time>
      </trkpt>
      <trkpt lat="45.39527" lon="2.37735">
        <ele>576.1</ele>
        <time>2022-06-14T11:42:40.000Z</time>
      </trkpt>
      <trkpt lat="45.39528" lon="2.37734">
        <ele>576.1</ele>
        <time>2022-06-14T11:42:41.000Z</time>
      </trkpt>
      <trkpt lat="45.39528" lon="2.37733">
        <ele>576.1</ele>
        <time>2022-06-14T11:42:42.000Z</time>
      </trkpt>
      <trkpt lat="45.39528" lon="2.37732">
        <ele>576.2</ele>
        <time>2022-06-14T11:42:43.000Z</time>
      </trkpt>
      <trkpt lat="45.39528" lon="2.37731">
        <ele>576.2</ele>
        <time>2022-06-14T11:42:45.000Z</time>
      </trkpt>
      <trkpt lat="45.39529" lon="2.3773">
        <ele>576.2</ele>
        <time>2022-06-14T11:42:51.000Z</time>
      </trkpt>
      <trkpt lat="45.39529" lon="2.37729">
        <ele>576.3</ele>
        <time>2022-06-14T11:42:52.000Z</time>
      </trkpt>
      <trkpt lat="45.39529" lon="2.37728">
        <ele>576.3</ele>
        <time>2022-06-14T11:42:53.000Z</time>
      </trkpt>
      <trkpt lat="45.3953" lon="2.37726">
        <ele>576.3</ele>
        <time>2022-06-14T11:42:54.000Z</time>
      </trkpt>
      <trkpt lat="45.3953" lon="2.37725">
        <ele>576.4</ele>
        <time>2022-06-14T11:42:55.000Z</time>
      </trkpt>
      <trkpt lat="45.3953" lon="2.37724">
        <ele>576.4</ele>
        <time>2022-06-14T11:42:56.000Z</time>
      </trkpt>
      <trkpt lat="45.39531" lon="2.37722">
        <ele>576.5</ele>
        <time>2022-06-14T11:42:57.000Z</time>
      </trkpt>
      <trkpt lat="45.39531" lon="2.37721">
        <ele>576.6</ele>
        <time>2022-06-14T11:42:58.000Z</time>
      </trkpt>
      <trkpt lat="45.39532" lon="2.37719">
        <ele>576.6</ele>
        <time>2022-06-14T11:42:59.000Z</time>
      </trkpt>
      <trkpt lat="45.39532" lon="2.37718">
        <ele>576.7</ele>
        <time>2022-06-14T11:43:00.000Z</time>
      </trkpt>
      <trkpt lat="45.39533" lon="2.37716">
        <ele>576.7</ele>
        <time>2022-06-14T11:43:01.000Z</time>
      </trkpt>
      <trkpt lat="45.39533" lon="2.37714">
        <ele>576.8</ele>
        <time>2022-06-14T11:43:02.000Z</time>
      </trkpt>
      <trkpt lat="45.39533" lon="2.37713">
        <ele>576.9</ele>
        <time>2022-06-14T11:43:03.000Z</time>
      </trkpt>
      <trkpt lat="45.39534" lon="2.37711">
        <ele>576.9</ele>
        <time>2022-06-14T11:43:04.000Z</time>
      </trkpt>
      <trkpt lat="45.39534" lon="2.3771">
        <ele>577</ele>
        <time>2022-06-14T11:43:05.000Z</time>
      </trkpt>
      <trkpt lat="45.39535" lon="2.37708">
        <ele>577.1</ele>
        <time>2022-06-14T11:43:06.000Z</time>
      </trkpt>
      <trkpt lat="45.39535" lon="2.37706">
        <ele>577.1</ele>
        <time>2022-06-14T11:43:07.000Z</time>
      </trkpt>
      <trkpt lat="45.39536" lon="2.37705">
        <ele>577.2</ele>
        <time>2022-06-14T11:43:08.000Z</time>
      </trkpt>
      <trkpt lat="45.39536" lon="2.37703">
        <ele>577.3</ele>
        <time>2022-06-14T11:43:09.000Z</time>
      </trkpt>
      <trkpt lat="45.39537" lon="2.37702">
        <ele>577.3</ele>
        <time>2022-06-14T11:43:10.000Z</time>
      </trkpt>
      <trkpt lat="45.39537" lon="2.377">
        <ele>577.4</ele>
        <time>2022-06-14T11:43:11.000Z</time>
      </trkpt>
      <trkpt lat="45.39538" lon="2.37698">
        <ele>577.5</ele>
        <time>2022-06-14T11:43:12.000Z</time>
      </trkpt>
      <trkpt lat="45.39538" lon="2.37697">
        <ele>577.6</ele>
        <time>2022-06-14T11:43:13.000Z</time>
      </trkpt>
      <trkpt lat="45.39538" lon="2.37695">
        <ele>577.7</ele>
        <time>2022-06-14T11:43:14.000Z</time>
      </trkpt>
      <trkpt lat="45.39539" lon="2.37694">
        <ele>577.7</ele>
        <time>2022-06-14T11:43:15.000Z</time>
      </trkpt>
      <trkpt lat="45.39539" lon="2.37692">
        <ele>577.8</ele>
        <time>2022-06-14T11:43:16.000Z</time>
      </trkpt>
      <trkpt lat="45.3954" lon="2.3769">
        <ele>577.9</ele>
        <time>2022-06-14T11:43:17.000Z</time>
      </trkpt>
      <trkpt lat="45.3954" lon="2.37689">
        <ele>578</ele>
        <time>2022-06-14T11:43:18.000Z</time>
      </trkpt>
      <trkpt lat="45.39541" lon="2.37687">
        <ele>578.1</ele>
        <time>2022-06-14T11:43:19.000Z</time>
      </trkpt>
      <trkpt lat="45.39541" lon="2.37685">
        <ele>578.2</ele>
        <time>2022-06-14T11:43:20.000Z</time>
      </trkpt>
      <trkpt lat="45.39542" lon="2.37684">
        <ele>578.3</ele>
        <time>2022-06-14T11:43:21.000Z</time>
      </trkpt>
      <trkpt lat="45.39542" lon="2.37682">
        <ele>578.4</ele>
        <time>2022-06-14T11:43:22.000Z</time>
      </trkpt>
      <trkpt lat="45.39542" lon="2.37681">
        <ele>578.5</ele>
        <time>2022-06-14T11:43:23.000Z</time>
      </trkpt>
      <trkpt lat="45.39543" lon="2.37679">
        <ele>578.6</ele>
        <time>2022-06-14T11:43:24.000Z</time>
      </trkpt>
      <trkpt lat="45.39543" lon="2.37677">
        <ele>578.6</ele>
        <time>2022-06-14T11:43:25.000Z</time>
      </trkpt>
      <trkpt lat="45.39544" lon="2.37676">
        <ele>578.7</ele>
        <time>2022-06-14T11:43:26.000Z</time>
      </trkpt>
      <trkpt lat="45.39544" lon="2.37674">
        <ele>578.8</ele>
        <time>2022-06-14T11:43:27.000Z</time>
      </trkpt>
      <trkpt lat="45.39545" lon="2.37673">
        <ele>578.9</ele>
        <time>2022-06-14T11:43:28.000Z</time>
      </trkpt>
      <trkpt lat="45.39545" lon="2.37671">
        <ele>579</ele>
        <time>2022-06-14T11:43:29.000Z</time>
      </trkpt>
      <trkpt lat="45.39545" lon="2.37669">
        <ele>579.1</ele>
        <time>2022-06-14T11:43:30.000Z</time>
      </trkpt>
      <trkpt lat="45.39546" lon="2.37668">
        <ele>579.2</ele>
        <time>2022-06-14T11:43:31.000Z</time>
      </trkpt>
      <trkpt lat="45.39546" lon="2.37666">
        <ele>579.3</ele>
        <time>2022-06-14T11:43:32.000Z</time>
      </trkpt>
      <trkpt lat="45.39546" lon="2.37665">
        <ele>579.4</ele>
        <time>2022-06-14T11:43:33.000Z</time>
      </trkpt>
      <trkpt lat="45.39547" lon="2.37663">
        <ele>579.5</ele>
        <time>2022-06-14T11:43:34.000Z</time>
      </trkpt>
      <trkpt lat="45.39547" lon="2.37661">
        <ele>579.6</ele>
        <time>2022-06-14T11:43:35.000Z</time>
      </trkpt>
      <trkpt lat="45.39548" lon="2.3766">
        <ele>579.7</ele>
        <time>2022-06-14T11:43:36.000Z</time>
      </trkpt>
      <trkpt lat="45.39548" lon="2.37658">
        <ele>579.8</ele>
        <time>2022-06-14T11:43:37.000Z</time>
      </trkpt>
      <trkpt lat="45.39548" lon="2.37657">
        <ele>579.9</ele>
        <time>2022-06-14T11:43:38.000Z</time>
      </trkpt>
      <trkpt lat="45.39549" lon="2.37655">
        <ele>580</ele>
        <time>2022-06-14T11:43:39.000Z</time>
      </trkpt>
      <trkpt lat="45.39549" lon="2.37654">
        <ele>580.1</ele>
        <time>2022-06-14T11:43:40.000Z</time>
      </trkpt>
      <trkpt lat="45.3955" lon="2.37652">
        <ele>580.2</ele>
        <time>2022-06-14T11:43:41.000Z</time>
      </trkpt>
      <trkpt lat="45.3955" lon="2.3765">
        <ele>580.2</ele>
        <time>2022-06-14T11:43:42.000Z</time>
      </trkpt>
      <trkpt lat="45.3955" lon="2.37649">
        <ele>580.3</ele>
        <time>2022-06-14T11:43:43.000Z</time>
      </trkpt>
      <trkpt lat="45.39551" lon="2.37647">
        <ele>580.4</ele>
        <time>2022-06-14T11:43:44.000Z</time>
      </trkpt>
      <trkpt lat="45.39551" lon="2.37646">
        <ele>580.5</ele>
        <time>2022-06-14T11:43:45.000Z</time>
      </trkpt>
      <trkpt lat="45.39551" lon="2.37644">
        <ele>580.6</ele>
        <time>2022-06-14T11:43:46.000Z</time>
      </trkpt>
      <trkpt lat="45.39552" lon="2.37643">
        <ele>580.7</ele>
        <time>2022-06-14T11:43:47.000Z</time>
      </trkpt>
      <trkpt lat="45.39552" lon="2.37641">
        <ele>580.8</ele>
        <time>2022-06-14T11:43:48.000Z</time>
      </trkpt>
      <trkpt lat="45.39553" lon="2.37639">
        <ele>580.9</ele>
        <time>2022-06-14T11:43:49.000Z</time>
      </trkpt>
      <trkpt lat="45.39553" lon="2.37638">
        <ele>581</ele>
        <time>2022-06-14T11:43:50.000Z</time>
      </trkpt>
      <trkpt lat="45.39553" lon="2.37636">
        <ele>581.1</ele>
        <time>2022-06-14T11:43:51.000Z</time>
      </trkpt>
      <trkpt lat="45.39554" lon="2.37635">
        <ele>581.2</ele>
        <time>2022-06-14T11:43:52.000Z</time>
      </trkpt>
      <trkpt lat="45.39554" lon="2.37633">
        <ele>581.3</ele>
        <time>2022-06-14T11:43:53.000Z</time>
      </trkpt>
      <trkpt lat="45.39554" lon="2.37632">
        <ele>581.4</ele>
        <time>2022-06-14T11:43:54.000Z</time>
      </trkpt>
      <trkpt lat="45.39555" lon="2.3763">
        <ele>581.5</ele>
        <time>2022-06-14T11:43:55.000Z</time>
      </trkpt>
      <trkpt lat="45.39555" lon="2.37629">
        <ele>581.6</ele>
        <time>2022-06-14T11:43:56.000Z</time>
      </trkpt>
      <trkpt lat="45.39555" lon="2.37628">
        <ele>581.7</ele>
        <time>2022-06-14T11:43:57.000Z</time>
      </trkpt>
      <trkpt lat="45.39555" lon="2.37627">
        <ele>581.7</ele>
        <time>2022-06-14T11:43:58.000Z</time>
      </trkpt>
      <trkpt lat="45.39556" lon="2.37626">
        <ele>581.8</ele>
        <time>2022-06-14T11:43:59.000Z</time>
      </trkpt>
      <trkpt lat="45.39556" lon="2.37625">
        <ele>581.8</ele>
        <time>2022-06-14T11:44:01.000Z</time>
      </trkpt>
      <trkpt lat="45.39556" lon="2.37624">
        <ele>581.9</ele>
        <time>2022-06-14T11:44:03.000Z</time>
      </trkpt>
      <trkpt lat="45.39556" lon="2.37625">
        <ele>581.9</ele>
        <time>2022-06-14T11:44:07.000Z</time>
      </trkpt>
      <trkpt lat="45.39556" lon="2.37625">
        <ele>581.9</ele>
        <time>2022-06-14T11:44:14.000Z</time>
      </trkpt>
      <trkpt lat="45.39556" lon="2.37623">
        <ele>582</ele>
        <time>2022-06-14T11:44:19.000Z</time>
      </trkpt>
      <trkpt lat="45.39557" lon="2.37621">
        <ele>582.1</ele>
        <time>2022-06-14T11:44:20.000Z</time>
      </trkpt>
      <trkpt lat="45.39557" lon="2.3762">
        <ele>582.2</ele>
        <time>2022-06-14T11:44:21.000Z</time>
      </trkpt>
      <trkpt lat="45.39557" lon="2.37618">
        <ele>582.3</ele>
        <time>2022-06-14T11:44:22.000Z</time>
      </trkpt>
      <trkpt lat="45.39558" lon="2.37617">
        <ele>582.4</ele>
        <time>2022-06-14T11:44:23.000Z</time>
      </trkpt>
      <trkpt lat="45.39558" lon="2.37615">
        <ele>582.5</ele>
        <time>2022-06-14T11:44:24.000Z</time>
      </trkpt>
      <trkpt lat="45.39558" lon="2.37614">
        <ele>582.6</ele>
        <time>2022-06-14T11:44:25.000Z</time>
      </trkpt>
      <trkpt lat="45.39559" lon="2.37612">
        <ele>582.7</ele>
        <time>2022-06-14T11:44:26.000Z</time>
      </trkpt>
      <trkpt lat="45.39559" lon="2.3761">
        <ele>582.9</ele>
        <time>2022-06-14T11:44:27.000Z</time>
      </trkpt>
      <trkpt lat="45.3956" lon="2.37609">
        <ele>583</ele>
        <time>2022-06-14T11:44:28.000Z</time>
      </trkpt>
      <trkpt lat="45.3956" lon="2.37607">
        <ele>583.1</ele>
        <time>2022-06-14T11:44:29.000Z</time>
      </trkpt>
      <trkpt lat="45.3956" lon="2.37605">
        <ele>583.2</ele>
        <time>2022-06-14T11:44:30.000Z</time>
      </trkpt>
      <trkpt lat="45.39561" lon="2.37604">
        <ele>583.4</ele>
        <time>2022-06-14T11:44:31.000Z</time>
      </trkpt>
      <trkpt lat="45.39561" lon="2.37602">
        <ele>583.5</ele>
        <time>2022-06-14T11:44:32.000Z</time>
      </trkpt>
      <trkpt lat="45.39562" lon="2.376">
        <ele>583.6</ele>
        <time>2022-06-14T11:44:33.000Z</time>
      </trkpt>
      <trkpt lat="45.39562" lon="2.37599">
        <ele>583.7</ele>
        <time>2022-06-14T11:44:34.000Z</time>
      </trkpt>
      <trkpt lat="45.39563" lon="2.37597">
        <ele>583.9</ele>
        <time>2022-06-14T11:44:35.000Z</time>
      </trkpt>
      <trkpt lat="45.39563" lon="2.37596">
        <ele>584</ele>
        <time>2022-06-14T11:44:36.000Z</time>
      </trkpt>
      <trkpt lat="45.39564" lon="2.37594">
        <ele>584.1</ele>
        <time>2022-06-14T11:44:37.000Z</time>
      </trkpt>
      <trkpt lat="45.39564" lon="2.37592">
        <ele>584.2</ele>
        <time>2022-06-14T11:44:38.000Z</time>
      </trkpt>
      <trkpt lat="45.39565" lon="2.37591">
        <ele>584.4</ele>
        <time>2022-06-14T11:44:39.000Z</time>
      </trkpt>
      <trkpt lat="45.39565" lon="2.37589">
        <ele>584.5</ele>
        <time>2022-06-14T11:44:40.000Z</time>
      </trkpt>
      <trkpt lat="45.39565" lon="2.37588">
        <ele>584.6</ele>
        <time>2022-06-14T11:44:41.000Z</time>
      </trkpt>
      <trkpt lat="45.39566" lon="2.37586">
        <ele>584.8</ele>
        <time>2022-06-14T11:44:42.000Z</time>
      </trkpt>
      <trkpt lat="45.39566" lon="2.37584">
        <ele>584.9</ele>
        <time>2022-06-14T11:44:43.000Z</time>
      </trkpt>
      <trkpt lat="45.39567" lon="2.37583">
        <ele>585</ele>
        <time>2022-06-14T11:44:44.000Z</time>
      </trkpt>
      <trkpt lat="45.39567" lon="2.37581">
        <ele>585</ele>
        <time>2022-06-14T11:44:45.000Z</time>
      </trkpt>
      <trkpt lat="45.39567" lon="2.37579">
        <ele>585.1</ele>
        <time>2022-06-14T11:44:46.000Z</time>
      </trkpt>
      <trkpt lat="45.39568" lon="2.37578">
        <ele>585.2</ele>
        <time>2022-06-14T11:44:47.000Z</time>
      </trkpt>
      <trkpt lat="45.39568" lon="2.37576">
        <ele>585.2</ele>
        <time>2022-06-14T11:44:48.000Z</time>
      </trkpt>
      <trkpt lat="45.39569" lon="2.37574">
        <ele>585.3</ele>
        <time>2022-06-14T11:44:49.000Z</time>
      </trkpt>
      <trkpt lat="45.39569" lon="2.37573">
        <ele>585.3</ele>
        <time>2022-06-14T11:44:50.000Z</time>
      </trkpt>
      <trkpt lat="45.3957" lon="2.37571">
        <ele>585.4</ele>
        <time>2022-06-14T11:44:51.000Z</time>
      </trkpt>
      <trkpt lat="45.3957" lon="2.3757">
        <ele>585.4</ele>
        <time>2022-06-14T11:44:52.000Z</time>
      </trkpt>
      <trkpt lat="45.3957" lon="2.37568">
        <ele>585.5</ele>
        <time>2022-06-14T11:44:53.000Z</time>
      </trkpt>
      <trkpt lat="45.39571" lon="2.37566">
        <ele>585.5</ele>
        <time>2022-06-14T11:44:54.000Z</time>
      </trkpt>
      <trkpt lat="45.39571" lon="2.37565">
        <ele>585.6</ele>
        <time>2022-06-14T11:44:55.000Z</time>
      </trkpt>
      <trkpt lat="45.39572" lon="2.37563">
        <ele>585.6</ele>
        <time>2022-06-14T11:44:56.000Z</time>
      </trkpt>
      <trkpt lat="45.39572" lon="2.37561">
        <ele>585.7</ele>
        <time>2022-06-14T11:44:57.000Z</time>
      </trkpt>
      <trkpt lat="45.39572" lon="2.3756">
        <ele>585.7</ele>
        <time>2022-06-14T11:44:58.000Z</time>
      </trkpt>
      <trkpt lat="45.39573" lon="2.37558">
        <ele>585.8</ele>
        <time>2022-06-14T11:44:59.000Z</time>
      </trkpt>
      <trkpt lat="45.39573" lon="2.37556">
        <ele>585.8</ele>
        <time>2022-06-14T11:45:00.000Z</time>
      </trkpt>
      <trkpt lat="45.39574" lon="2.37555">
        <ele>585.9</ele>
        <time>2022-06-14T11:45:01.000Z</time>
      </trkpt>
      <trkpt lat="45.39574" lon="2.37553">
        <ele>585.9</ele>
        <time>2022-06-14T11:45:02.000Z</time>
      </trkpt>
      <trkpt lat="45.39575" lon="2.37551">
        <ele>586</ele>
        <time>2022-06-14T11:45:03.000Z</time>
      </trkpt>
      <trkpt lat="45.39575" lon="2.37549">
        <ele>586.1</ele>
        <time>2022-06-14T11:45:04.000Z</time>
      </trkpt>
      <trkpt lat="45.39576" lon="2.37548">
        <ele>586.1</ele>
        <time>2022-06-14T11:45:05.000Z</time>
      </trkpt>
      <trkpt lat="45.39576" lon="2.37546">
        <ele>586.2</ele>
        <time>2022-06-14T11:45:06.000Z</time>
      </trkpt>
      <trkpt lat="45.39577" lon="2.37544">
        <ele>586.2</ele>
        <time>2022-06-14T11:45:07.000Z</time>
      </trkpt>
      <trkpt lat="45.39577" lon="2.37543">
        <ele>586.3</ele>
        <time>2022-06-14T11:45:08.000Z</time>
      </trkpt>
      <trkpt lat="45.39578" lon="2.37541">
        <ele>586.3</ele>
        <time>2022-06-14T11:45:09.000Z</time>
      </trkpt>
      <trkpt lat="45.39578" lon="2.37539">
        <ele>586.4</ele>
        <time>2022-06-14T11:45:10.000Z</time>
      </trkpt>
      <trkpt lat="45.39578" lon="2.37538">
        <ele>586.4</ele>
        <time>2022-06-14T11:45:11.000Z</time>
      </trkpt>
      <trkpt lat="45.39579" lon="2.37536">
        <ele>586.5</ele>
        <time>2022-06-14T11:45:12.000Z</time>
      </trkpt>
      <trkpt lat="45.39579" lon="2.37534">
        <ele>586.5</ele>
        <time>2022-06-14T11:45:13.000Z</time>
      </trkpt>
      <trkpt lat="45.3958" lon="2.37532">
        <ele>586.6</ele>
        <time>2022-06-14T11:45:14.000Z</time>
      </trkpt>
      <trkpt lat="45.3958" lon="2.37531">
        <ele>586.6</ele>
        <time>2022-06-14T11:45:15.000Z</time>
      </trkpt>
      <trkpt lat="45.3958" lon="2.37529">
        <ele>586.7</ele>
        <time>2022-06-14T11:45:16.000Z</time>
      </trkpt>
      <trkpt lat="45.39581" lon="2.37527">
        <ele>586.7</ele>
        <time>2022-06-14T11:45:17.000Z</time>
      </trkpt>
      <trkpt lat="45.39581" lon="2.37525">
        <ele>586.8</ele>
        <time>2022-06-14T11:45:18.000Z</time>
      </trkpt>
      <trkpt lat="45.39582" lon="2.37523">
        <ele>586.8</ele>
        <time>2022-06-14T11:45:19.000Z</time>
      </trkpt>
      <trkpt lat="45.39582" lon="2.37522">
        <ele>586.8</ele>
        <time>2022-06-14T11:45:20.000Z</time>
      </trkpt>
      <trkpt lat="45.39582" lon="2.37521">
        <ele>586.9</ele>
        <time>2022-06-14T11:45:21.000Z</time>
      </trkpt>
      <trkpt lat="45.39582" lon="2.37519">
        <ele>586.9</ele>
        <time>2022-06-14T11:45:22.000Z</time>
      </trkpt>
      <trkpt lat="45.39583" lon="2.37519">
        <ele>586.9</ele>
        <time>2022-06-14T11:45:23.000Z</time>
      </trkpt>
      <trkpt lat="45.39583" lon="2.37518">
        <ele>586.9</ele>
        <time>2022-06-14T11:45:24.000Z</time>
      </trkpt>
      <trkpt lat="45.39583" lon="2.37518">
        <ele>587</ele>
        <time>2022-06-14T11:46:25.000Z</time>
      </trkpt>
      <trkpt lat="45.39584" lon="2.37518">
        <ele>587</ele>
        <time>2022-06-14T11:46:31.000Z</time>
      </trkpt>
      <trkpt lat="45.39584" lon="2.37517">
        <ele>587</ele>
        <time>2022-06-14T11:46:33.000Z</time>
      </trkpt>
      <trkpt lat="45.39585" lon="2.37517">
        <ele>587.1</ele>
        <time>2022-06-14T11:46:34.000Z</time>
      </trkpt>
      <trkpt lat="45.39586" lon="2.37516">
        <ele>587.1</ele>
        <time>2022-06-14T11:46:35.000Z</time>
      </trkpt>
      <trkpt lat="45.39587" lon="2.37516">
        <ele>587.2</ele>
        <time>2022-06-14T11:46:36.000Z</time>
      </trkpt>
      <trkpt lat="45.39588" lon="2.37516">
        <ele>587.2</ele>
        <time>2022-06-14T11:46:37.000Z</time>
      </trkpt>
      <trkpt lat="45.39589" lon="2.37516">
        <ele>587.3</ele>
        <time>2022-06-14T11:46:38.000Z</time>
      </trkpt>
      <trkpt lat="45.3959" lon="2.37516">
        <ele>587.4</ele>
        <time>2022-06-14T11:46:39.000Z</time>
      </trkpt>
      <trkpt lat="45.39591" lon="2.37516">
        <ele>587.4</ele>
        <time>2022-06-14T11:46:40.000Z</time>
      </trkpt>
      <trkpt lat="45.39592" lon="2.37516">
        <ele>587.5</ele>
        <time>2022-06-14T11:46:41.000Z</time>
      </trkpt>
      <trkpt lat="45.39594" lon="2.37515">
        <ele>587.5</ele>
        <time>2022-06-14T11:46:42.000Z</time>
      </trkpt>
      <trkpt lat="45.39595" lon="2.37515">
        <ele>587.6</ele>
        <time>2022-06-14T11:46:43.000Z</time>
      </trkpt>
      <trkpt lat="45.39596" lon="2.37515">
        <ele>587.7</ele>
        <time>2022-06-14T11:46:44.000Z</time>
      </trkpt>
      <trkpt lat="45.39597" lon="2.37515">
        <ele>587.7</ele>
        <time>2022-06-14T11:46:45.000Z</time>
      </trkpt>
      <trkpt lat="45.39598" lon="2.37515">
        <ele>587.8</ele>
        <time>2022-06-14T11:46:46.000Z</time>
      </trkpt>
      <trkpt lat="45.39599" lon="2.37514">
        <ele>587.8</ele>
        <time>2022-06-14T11:46:47.000Z</time>
      </trkpt>
      <trkpt lat="45.396" lon="2.37514">
        <ele>587.9</ele>
        <time>2022-06-14T11:46:48.000Z</time>
      </trkpt>
      <trkpt lat="45.39601" lon="2.37514">
        <ele>588</ele>
        <time>2022-06-14T11:46:49.000Z</time>
      </trkpt>
      <trkpt lat="45.39603" lon="2.37514">
        <ele>588</ele>
        <time>2022-06-14T11:46:50.000Z</time>
      </trkpt>
      <trkpt lat="45.39604" lon="2.37513">
        <ele>588.1</ele>
        <time>2022-06-14T11:46:51.000Z</time>
      </trkpt>
      <trkpt lat="45.39605" lon="2.37513">
        <ele>588.2</ele>
        <time>2022-06-14T11:46:52.000Z</time>
      </trkpt>
      <trkpt lat="45.39606" lon="2.37513">
        <ele>588.2</ele>
        <time>2022-06-14T11:46:53.000Z</time>
      </trkpt>
      <trkpt lat="45.39607" lon="2.37513">
        <ele>588.3</ele>
        <time>2022-06-14T11:46:54.000Z</time>
      </trkpt>
      <trkpt lat="45.39608" lon="2.37512">
        <ele>588.4</ele>
        <time>2022-06-14T11:46:55.000Z</time>
      </trkpt>
      <trkpt lat="45.39609" lon="2.37512">
        <ele>588.4</ele>
        <time>2022-06-14T11:46:56.000Z</time>
      </trkpt>
      <trkpt lat="45.39611" lon="2.37512">
        <ele>588.5</ele>
        <time>2022-06-14T11:46:57.000Z</time>
      </trkpt>
      <trkpt lat="45.39612" lon="2.37511">
        <ele>588.6</ele>
        <time>2022-06-14T11:46:58.000Z</time>
      </trkpt>
      <trkpt lat="45.39613" lon="2.37511">
        <ele>588.6</ele>
        <time>2022-06-14T11:46:59.000Z</time>
      </trkpt>
      <trkpt lat="45.39614" lon="2.37511">
        <ele>588.7</ele>
        <time>2022-06-14T11:47:00.000Z</time>
      </trkpt>
      <trkpt lat="45.39615" lon="2.3751">
        <ele>588.8</ele>
        <time>2022-06-14T11:47:01.000Z</time>
      </trkpt>
      <trkpt lat="45.39616" lon="2.3751">
        <ele>588.8</ele>
        <time>2022-06-14T11:47:02.000Z</time>
      </trkpt>
      <trkpt lat="45.39618" lon="2.3751">
        <ele>588.9</ele>
        <time>2022-06-14T11:47:03.000Z</time>
      </trkpt>
      <trkpt lat="45.39619" lon="2.3751">
        <ele>589</ele>
        <time>2022-06-14T11:47:04.000Z</time>
      </trkpt>
      <trkpt lat="45.3962" lon="2.37509">
        <ele>589</ele>
        <time>2022-06-14T11:47:05.000Z</time>
      </trkpt>
      <trkpt lat="45.39621" lon="2.37509">
        <ele>589.1</ele>
        <time>2022-06-14T11:47:06.000Z</time>
      </trkpt>
      <trkpt lat="45.39622" lon="2.37509">
        <ele>589.2</ele>
        <time>2022-06-14T11:47:07.000Z</time>
      </trkpt>
      <trkpt lat="45.39623" lon="2.37508">
        <ele>589.3</ele>
        <time>2022-06-14T11:47:08.000Z</time>
      </trkpt>
      <trkpt lat="45.39625" lon="2.37508">
        <ele>589.3</ele>
        <time>2022-06-14T11:47:09.000Z</time>
      </trkpt>
      <trkpt lat="45.39626" lon="2.37508">
        <ele>589.4</ele>
        <time>2022-06-14T11:47:10.000Z</time>
      </trkpt>
      <trkpt lat="45.39627" lon="2.37508">
        <ele>589.5</ele>
        <time>2022-06-14T11:47:11.000Z</time>
      </trkpt>
      <trkpt lat="45.39628" lon="2.37507">
        <ele>589.6</ele>
        <time>2022-06-14T11:47:12.000Z</time>
      </trkpt>
      <trkpt lat="45.39629" lon="2.37507">
        <ele>589.6</ele>
        <time>2022-06-14T11:47:13.000Z</time>
      </trkpt>
      <trkpt lat="45.39631" lon="2.37507">
        <ele>589.7</ele>
        <time>2022-06-14T11:47:14.000Z</time>
      </trkpt>
      <trkpt lat="45.39632" lon="2.37506">
        <ele>589.8</ele>
        <time>2022-06-14T11:47:15.000Z</time>
      </trkpt>
      <trkpt lat="45.39633" lon="2.37506">
        <ele>589.8</ele>
        <time>2022-06-14T11:47:16.000Z</time>
      </trkpt>
      <trkpt lat="45.39634" lon="2.37506">
        <ele>589.9</ele>
        <time>2022-06-14T11:47:17.000Z</time>
      </trkpt>
      <trkpt lat="45.39635" lon="2.37506">
        <ele>590</ele>
        <time>2022-06-14T11:47:18.000Z</time>
      </trkpt>
      <trkpt lat="45.39636" lon="2.37505">
        <ele>590.1</ele>
        <time>2022-06-14T11:47:19.000Z</time>
      </trkpt>
      <trkpt lat="45.39638" lon="2.37505">
        <ele>590.1</ele>
        <time>2022-06-14T11:47:20.000Z</time>
      </trkpt>
      <trkpt lat="45.39639" lon="2.37505">
        <ele>590.2</ele>
        <time>2022-06-14T11:47:21.000Z</time>
      </trkpt>
      <trkpt lat="45.3964" lon="2.37504">
        <ele>590.3</ele>
        <time>2022-06-14T11:47:22.000Z</time>
      </trkpt>
      <trkpt lat="45.39641" lon="2.37504">
        <ele>590.4</ele>
        <time>2022-06-14T11:47:23.000Z</time>
      </trkpt>
      <trkpt lat="45.39642" lon="2.37503">
        <ele>590.4</ele>
        <time>2022-06-14T11:47:24.000Z</time>
      </trkpt>
      <trkpt lat="45.39643" lon="2.37503">
        <ele>590.5</ele>
        <time>2022-06-14T11:47:25.000Z</time>
      </trkpt>
      <trkpt lat="45.39644" lon="2.37503">
        <ele>590.6</ele>
        <time>2022-06-14T11:47:26.000Z</time>
      </trkpt>
      <trkpt lat="45.39645" lon="2.37502">
        <ele>590.6</ele>
        <time>2022-06-14T11:47:27.000Z</time>
      </trkpt>
      <trkpt lat="45.39646" lon="2.37502">
        <ele>590.7</ele>
        <time>2022-06-14T11:47:28.000Z</time>
      </trkpt>
      <trkpt lat="45.39647" lon="2.37501">
        <ele>590.8</ele>
        <time>2022-06-14T11:47:29.000Z</time>
      </trkpt>
      <trkpt lat="45.39648" lon="2.37501">
        <ele>590.9</ele>
        <time>2022-06-14T11:47:30.000Z</time>
      </trkpt>
      <trkpt lat="45.39649" lon="2.375">
        <ele>590.9</ele>
        <time>2022-06-14T11:47:31.000Z</time>
      </trkpt>
      <trkpt lat="45.3965" lon="2.375">
        <ele>591</ele>
        <time>2022-06-14T11:47:32.000Z</time>
      </trkpt>
      <trkpt lat="45.39651" lon="2.375">
        <ele>591.1</ele>
        <time>2022-06-14T11:47:33.000Z</time>
      </trkpt>
      <trkpt lat="45.39652" lon="2.37499">
        <ele>591.1</ele>
        <time>2022-06-14T11:47:34.000Z</time>
      </trkpt>
      <trkpt lat="45.39653" lon="2.37499">
        <ele>591.2</ele>
        <time>2022-06-14T11:47:35.000Z</time>
      </trkpt>
      <trkpt lat="45.39654" lon="2.37499">
        <ele>591.2</ele>
        <time>2022-06-14T11:47:36.000Z</time>
      </trkpt>
      <trkpt lat="45.39655" lon="2.37499">
        <ele>591.3</ele>
        <time>2022-06-14T11:47:40.000Z</time>
      </trkpt>
      <trkpt lat="45.39656" lon="2.37498">
        <ele>591.3</ele>
        <time>2022-06-14T11:47:41.000Z</time>
      </trkpt>
      <trkpt lat="45.39657" lon="2.37498">
        <ele>591.4</ele>
        <time>2022-06-14T11:47:42.000Z</time>
      </trkpt>
      <trkpt lat="45.39658" lon="2.37498">
        <ele>591.4</ele>
        <time>2022-06-14T11:47:43.000Z</time>
      </trkpt>
      <trkpt lat="45.39659" lon="2.37498">
        <ele>591.5</ele>
        <time>2022-06-14T11:47:44.000Z</time>
      </trkpt>
      <trkpt lat="45.3966" lon="2.37498">
        <ele>591.5</ele>
        <time>2022-06-14T11:47:45.000Z</time>
      </trkpt>
      <trkpt lat="45.39661" lon="2.37497">
        <ele>591.6</ele>
        <time>2022-06-14T11:47:46.000Z</time>
      </trkpt>
      <trkpt lat="45.39662" lon="2.37497">
        <ele>591.7</ele>
        <time>2022-06-14T11:47:47.000Z</time>
      </trkpt>
      <trkpt lat="45.39663" lon="2.37497">
        <ele>591.7</ele>
        <time>2022-06-14T11:47:48.000Z</time>
      </trkpt>
      <trkpt lat="45.39664" lon="2.37497">
        <ele>591.8</ele>
        <time>2022-06-14T11:47:49.000Z</time>
      </trkpt>
      <trkpt lat="45.39665" lon="2.37497">
        <ele>591.8</ele>
        <time>2022-06-14T11:47:50.000Z</time>
      </trkpt>
      <trkpt lat="45.39666" lon="2.37496">
        <ele>591.9</ele>
        <time>2022-06-14T11:47:51.000Z</time>
      </trkpt>
      <trkpt lat="45.39667" lon="2.37496">
        <ele>592</ele>
        <time>2022-06-14T11:47:52.000Z</time>
      </trkpt>
      <trkpt lat="45.39668" lon="2.37496">
        <ele>592.1</ele>
        <time>2022-06-14T11:47:53.000Z</time>
      </trkpt>
      <trkpt lat="45.39669" lon="2.37496">
        <ele>592.2</ele>
        <time>2022-06-14T11:47:54.000Z</time>
      </trkpt>
      <trkpt lat="45.39671" lon="2.37495">
        <ele>592.3</ele>
        <time>2022-06-14T11:47:55.000Z</time>
      </trkpt>
      <trkpt lat="45.39672" lon="2.37495">
        <ele>592.4</ele>
        <time>2022-06-14T11:47:56.000Z</time>
      </trkpt>
      <trkpt lat="45.39673" lon="2.37495">
        <ele>592.5</ele>
        <time>2022-06-14T11:47:57.000Z</time>
      </trkpt>
      <trkpt lat="45.39674" lon="2.37495">
        <ele>592.6</ele>
        <time>2022-06-14T11:47:58.000Z</time>
      </trkpt>
      <trkpt lat="45.39675" lon="2.37494">
        <ele>592.7</ele>
        <time>2022-06-14T11:47:59.000Z</time>
      </trkpt>
      <trkpt lat="45.39676" lon="2.37494">
        <ele>592.8</ele>
        <time>2022-06-14T11:48:00.000Z</time>
      </trkpt>
      <trkpt lat="45.39677" lon="2.37494">
        <ele>592.9</ele>
        <time>2022-06-14T11:48:01.000Z</time>
      </trkpt>
      <trkpt lat="45.39678" lon="2.37494">
        <ele>593</ele>
        <time>2022-06-14T11:48:02.000Z</time>
      </trkpt>
      <trkpt lat="45.39679" lon="2.37493">
        <ele>593.1</ele>
        <time>2022-06-14T11:48:03.000Z</time>
      </trkpt>
      <trkpt lat="45.3968" lon="2.37493">
        <ele>593.1</ele>
        <time>2022-06-14T11:48:04.000Z</time>
      </trkpt>
      <trkpt lat="45.39681" lon="2.37493">
        <ele>593.2</ele>
        <time>2022-06-14T11:48:05.000Z</time>
      </trkpt>
      <trkpt lat="45.39682" lon="2.37493">
        <ele>593.3</ele>
        <time>2022-06-14T11:48:06.000Z</time>
      </trkpt>
      <trkpt lat="45.39684" lon="2.37492">
        <ele>593.4</ele>
        <time>2022-06-14T11:48:07.000Z</time>
      </trkpt>
      <trkpt lat="45.39685" lon="2.37492">
        <ele>593.5</ele>
        <time>2022-06-14T11:48:08.000Z</time>
      </trkpt>
      <trkpt lat="45.39686" lon="2.37492">
        <ele>593.6</ele>
        <time>2022-06-14T11:48:09.000Z</time>
      </trkpt>
      <trkpt lat="45.39687" lon="2.37492">
        <ele>593.7</ele>
        <time>2022-06-14T11:48:10.000Z</time>
      </trkpt>
      <trkpt lat="45.39688" lon="2.37492">
        <ele>593.8</ele>
        <time>2022-06-14T11:48:11.000Z</time>
      </trkpt>
      <trkpt lat="45.39689" lon="2.37492">
        <ele>593.9</ele>
        <time>2022-06-14T11:48:12.000Z</time>
      </trkpt>
      <trkpt lat="45.3969" lon="2.37492">
        <ele>594</ele>
        <time>2022-06-14T11:48:13.000Z</time>
      </trkpt>
      <trkpt lat="45.39691" lon="2.37492">
        <ele>594.1</ele>
        <time>2022-06-14T11:48:14.000Z</time>
      </trkpt>
      <trkpt lat="45.39692" lon="2.37492">
        <ele>594.2</ele>
        <time>2022-06-14T11:48:15.000Z</time>
      </trkpt>
      <trkpt lat="45.39693" lon="2.37492">
        <ele>594.3</ele>
        <time>2022-06-14T11:48:16.000Z</time>
      </trkpt>
      <trkpt lat="45.39694" lon="2.37492">
        <ele>594.4</ele>
        <time>2022-06-14T11:48:17.000Z</time>
      </trkpt>
      <trkpt lat="45.39695" lon="2.37492">
        <ele>594.5</ele>
        <time>2022-06-14T11:48:18.000Z</time>
      </trkpt>
      <trkpt lat="45.39696" lon="2.37492">
        <ele>594.6</ele>
        <time>2022-06-14T11:48:19.000Z</time>
      </trkpt>
      <trkpt lat="45.39697" lon="2.37492">
        <ele>594.7</ele>
        <time>2022-06-14T11:48:20.000Z</time>
      </trkpt>
      <trkpt lat="45.39698" lon="2.37492">
        <ele>594.8</ele>
        <time>2022-06-14T11:48:21.000Z</time>
      </trkpt>
      <trkpt lat="45.39699" lon="2.37492">
        <ele>594.9</ele>
        <time>2022-06-14T11:48:22.000Z</time>
      </trkpt>
      <trkpt lat="45.397" lon="2.37491">
        <ele>595</ele>
        <time>2022-06-14T11:48:23.000Z</time>
      </trkpt>
      <trkpt lat="45.39702" lon="2.37491">
        <ele>595.1</ele>
        <time>2022-06-14T11:48:24.000Z</time>
      </trkpt>
      <trkpt lat="45.39703" lon="2.3749">
        <ele>595.2</ele>
        <time>2022-06-14T11:48:25.000Z</time>
      </trkpt>
      <trkpt lat="45.39704" lon="2.37489">
        <ele>595.3</ele>
        <time>2022-06-14T11:48:26.000Z</time>
      </trkpt>
      <trkpt lat="45.39705" lon="2.37488">
        <ele>595.5</ele>
        <time>2022-06-14T11:48:27.000Z</time>
      </trkpt>
      <trkpt lat="45.39706" lon="2.37487">
        <ele>595.6</ele>
        <time>2022-06-14T11:48:28.000Z</time>
      </trkpt>
      <trkpt lat="45.39707" lon="2.37487">
        <ele>595.7</ele>
        <time>2022-06-14T11:48:29.000Z</time>
      </trkpt>
      <trkpt lat="45.39708" lon="2.37486">
        <ele>595.8</ele>
        <time>2022-06-14T11:48:30.000Z</time>
      </trkpt>
      <trkpt lat="45.39709" lon="2.37485">
        <ele>595.9</ele>
        <time>2022-06-14T11:48:31.000Z</time>
      </trkpt>
      <trkpt lat="45.3971" lon="2.37484">
        <ele>596</ele>
        <time>2022-06-14T11:48:32.000Z</time>
      </trkpt>
      <trkpt lat="45.39711" lon="2.37484">
        <ele>596.1</ele>
        <time>2022-06-14T11:48:33.000Z</time>
      </trkpt>
      <trkpt lat="45.39712" lon="2.37483">
        <ele>596.2</ele>
        <time>2022-06-14T11:48:34.000Z</time>
      </trkpt>
      <trkpt lat="45.39712" lon="2.37482">
        <ele>596.3</ele>
        <time>2022-06-14T11:48:35.000Z</time>
      </trkpt>
      <trkpt lat="45.39713" lon="2.37481">
        <ele>596.4</ele>
        <time>2022-06-14T11:48:36.000Z</time>
      </trkpt>
      <trkpt lat="45.39714" lon="2.37481">
        <ele>596.5</ele>
        <time>2022-06-14T11:48:37.000Z</time>
      </trkpt>
      <trkpt lat="45.39715" lon="2.3748">
        <ele>596.6</ele>
        <time>2022-06-14T11:48:38.000Z</time>
      </trkpt>
      <trkpt lat="45.39716" lon="2.37479">
        <ele>596.8</ele>
        <time>2022-06-14T11:48:39.000Z</time>
      </trkpt>
      <trkpt lat="45.39717" lon="2.37478">
        <ele>596.9</ele>
        <time>2022-06-14T11:48:40.000Z</time>
      </trkpt>
      <trkpt lat="45.39718" lon="2.37477">
        <ele>597.1</ele>
        <time>2022-06-14T11:48:42.000Z</time>
      </trkpt>
      <trkpt lat="45.39719" lon="2.37476">
        <ele>597.2</ele>
        <time>2022-06-14T11:48:43.000Z</time>
      </trkpt>
      <trkpt lat="45.3972" lon="2.37475">
        <ele>597.3</ele>
        <time>2022-06-14T11:48:44.000Z</time>
      </trkpt>
      <trkpt lat="45.39721" lon="2.37474">
        <ele>597.5</ele>
        <time>2022-06-14T11:48:45.000Z</time>
      </trkpt>
      <trkpt lat="45.39722" lon="2.37473">
        <ele>597.6</ele>
        <time>2022-06-14T11:48:46.000Z</time>
      </trkpt>
      <trkpt lat="45.39723" lon="2.37472">
        <ele>597.7</ele>
        <time>2022-06-14T11:48:47.000Z</time>
      </trkpt>
      <trkpt lat="45.39724" lon="2.37471">
        <ele>597.8</ele>
        <time>2022-06-14T11:48:48.000Z</time>
      </trkpt>
      <trkpt lat="45.39725" lon="2.3747">
        <ele>598</ele>
        <time>2022-06-14T11:48:49.000Z</time>
      </trkpt>
      <trkpt lat="45.39726" lon="2.37469">
        <ele>598.1</ele>
        <time>2022-06-14T11:48:50.000Z</time>
      </trkpt>
      <trkpt lat="45.39727" lon="2.37468">
        <ele>598.3</ele>
        <time>2022-06-14T11:48:51.000Z</time>
      </trkpt>
      <trkpt lat="45.39728" lon="2.37467">
        <ele>598.4</ele>
        <time>2022-06-14T11:48:52.000Z</time>
      </trkpt>
      <trkpt lat="45.39729" lon="2.37466">
        <ele>598.6</ele>
        <time>2022-06-14T11:48:53.000Z</time>
      </trkpt>
      <trkpt lat="45.39729" lon="2.37465">
        <ele>598.8</ele>
        <time>2022-06-14T11:48:54.000Z</time>
      </trkpt>
      <trkpt lat="45.3973" lon="2.37464">
        <ele>598.9</ele>
        <time>2022-06-14T11:48:55.000Z</time>
      </trkpt>
      <trkpt lat="45.39731" lon="2.37462">
        <ele>599.1</ele>
        <time>2022-06-14T11:48:56.000Z</time>
      </trkpt>
      <trkpt lat="45.39732" lon="2.37461">
        <ele>599.2</ele>
        <time>2022-06-14T11:48:57.000Z</time>
      </trkpt>
      <trkpt lat="45.39733" lon="2.3746">
        <ele>599.4</ele>
        <time>2022-06-14T11:48:58.000Z</time>
      </trkpt>
      <trkpt lat="45.39734" lon="2.37459">
        <ele>599.5</ele>
        <time>2022-06-14T11:48:59.000Z</time>
      </trkpt>
      <trkpt lat="45.39735" lon="2.37458">
        <ele>599.7</ele>
        <time>2022-06-14T11:49:00.000Z</time>
      </trkpt>
      <trkpt lat="45.39736" lon="2.37457">
        <ele>599.8</ele>
        <time>2022-06-14T11:49:01.000Z</time>
      </trkpt>
      <trkpt lat="45.39736" lon="2.37455">
        <ele>600</ele>
        <time>2022-06-14T11:49:02.000Z</time>
      </trkpt>
      <trkpt lat="45.39737" lon="2.37454">
        <ele>600.1</ele>
        <time>2022-06-14T11:49:03.000Z</time>
      </trkpt>
      <trkpt lat="45.39738" lon="2.37453">
        <ele>600.3</ele>
        <time>2022-06-14T11:49:04.000Z</time>
      </trkpt>
      <trkpt lat="45.39738" lon="2.37452">
        <ele>600.4</ele>
        <time>2022-06-14T11:49:05.000Z</time>
      </trkpt>
      <trkpt lat="45.39739" lon="2.37451">
        <ele>600.5</ele>
        <time>2022-06-14T11:49:06.000Z</time>
      </trkpt>
      <trkpt lat="45.39739" lon="2.3745">
        <ele>600.6</ele>
        <time>2022-06-14T11:49:07.000Z</time>
      </trkpt>
      <trkpt lat="45.3974" lon="2.37449">
        <ele>600.7</ele>
        <time>2022-06-14T11:49:08.000Z</time>
      </trkpt>
      <trkpt lat="45.39741" lon="2.37449">
        <ele>600.9</ele>
        <time>2022-06-14T11:49:09.000Z</time>
      </trkpt>
      <trkpt lat="45.39741" lon="2.37448">
        <ele>601</ele>
        <time>2022-06-14T11:49:10.000Z</time>
      </trkpt>
      <trkpt lat="45.39742" lon="2.37448">
        <ele>601.1</ele>
        <time>2022-06-14T11:49:11.000Z</time>
      </trkpt>
      <trkpt lat="45.39743" lon="2.37448">
        <ele>601.2</ele>
        <time>2022-06-14T11:49:13.000Z</time>
      </trkpt>
      <trkpt lat="45.39744" lon="2.37448">
        <ele>601.3</ele>
        <time>2022-06-14T11:49:14.000Z</time>
      </trkpt>
      <trkpt lat="45.39745" lon="2.37448">
        <ele>601.4</ele>
        <time>2022-06-14T11:49:15.000Z</time>
      </trkpt>
      <trkpt lat="45.39745" lon="2.37449">
        <ele>601.5</ele>
        <time>2022-06-14T11:49:16.000Z</time>
      </trkpt>
      <trkpt lat="45.39746" lon="2.37449">
        <ele>601.5</ele>
        <time>2022-06-14T11:49:17.000Z</time>
      </trkpt>
      <trkpt lat="45.39747" lon="2.3745">
        <ele>601.6</ele>
        <time>2022-06-14T11:49:18.000Z</time>
      </trkpt>
      <trkpt lat="45.39748" lon="2.3745">
        <ele>601.7</ele>
        <time>2022-06-14T11:49:19.000Z</time>
      </trkpt>
      <trkpt lat="45.39748" lon="2.37451">
        <ele>601.7</ele>
        <time>2022-06-14T11:49:20.000Z</time>
      </trkpt>
      <trkpt lat="45.39749" lon="2.37452">
        <ele>601.8</ele>
        <time>2022-06-14T11:49:21.000Z</time>
      </trkpt>
      <trkpt lat="45.3975" lon="2.37452">
        <ele>601.8</ele>
        <time>2022-06-14T11:49:22.000Z</time>
      </trkpt>
      <trkpt lat="45.39751" lon="2.37452">
        <ele>602</ele>
        <time>2022-06-14T11:49:23.000Z</time>
      </trkpt>
      <trkpt lat="45.39751" lon="2.37453">
        <ele>602.2</ele>
        <time>2022-06-14T11:49:24.000Z</time>
      </trkpt>
      <trkpt lat="45.39752" lon="2.37453">
        <ele>602.4</ele>
        <time>2022-06-14T11:49:25.000Z</time>
      </trkpt>
      <trkpt lat="45.39753" lon="2.37453">
        <ele>602.6</ele>
        <time>2022-06-14T11:49:26.000Z</time>
      </trkpt>
      <trkpt lat="45.39754" lon="2.37452">
        <ele>602.8</ele>
        <time>2022-06-14T11:49:27.000Z</time>
      </trkpt>
      <trkpt lat="45.39755" lon="2.37452">
        <ele>603.1</ele>
        <time>2022-06-14T11:49:28.000Z</time>
      </trkpt>
      <trkpt lat="45.39756" lon="2.37451">
        <ele>603.3</ele>
        <time>2022-06-14T11:49:29.000Z</time>
      </trkpt>
      <trkpt lat="45.39757" lon="2.3745">
        <ele>603.8</ele>
        <time>2022-06-14T11:49:31.000Z</time>
      </trkpt>
      <trkpt lat="45.39758" lon="2.3745">
        <ele>604</ele>
        <time>2022-06-14T11:49:32.000Z</time>
      </trkpt>
      <trkpt lat="45.39759" lon="2.3745">
        <ele>604.3</ele>
        <time>2022-06-14T11:49:33.000Z</time>
      </trkpt>
      <trkpt lat="45.3976" lon="2.3745">
        <ele>604.5</ele>
        <time>2022-06-14T11:49:34.000Z</time>
      </trkpt>
      <trkpt lat="45.39761" lon="2.3745">
        <ele>604.7</ele>
        <time>2022-06-14T11:49:35.000Z</time>
      </trkpt>
      <trkpt lat="45.39762" lon="2.3745">
        <ele>605</ele>
        <time>2022-06-14T11:49:36.000Z</time>
      </trkpt>
      <trkpt lat="45.39763" lon="2.3745">
        <ele>605.2</ele>
        <time>2022-06-14T11:49:37.000Z</time>
      </trkpt>
      <trkpt lat="45.39764" lon="2.37451">
        <ele>605.4</ele>
        <time>2022-06-14T11:49:38.000Z</time>
      </trkpt>
      <trkpt lat="45.39765" lon="2.37451">
        <ele>605.8</ele>
        <time>2022-06-14T11:49:40.000Z</time>
      </trkpt>
      <trkpt lat="45.39766" lon="2.37452">
        <ele>606</ele>
        <time>2022-06-14T11:49:41.000Z</time>
      </trkpt>
      <trkpt lat="45.39767" lon="2.37452">
        <ele>606.3</ele>
        <time>2022-06-14T11:49:42.000Z</time>
      </trkpt>
      <trkpt lat="45.39768" lon="2.37453">
        <ele>606.4</ele>
        <time>2022-06-14T11:49:43.000Z</time>
      </trkpt>
      <trkpt lat="45.39769" lon="2.37453">
        <ele>606.6</ele>
        <time>2022-06-14T11:49:44.000Z</time>
      </trkpt>
      <trkpt lat="45.3977" lon="2.37453">
        <ele>606.7</ele>
        <time>2022-06-14T11:49:45.000Z</time>
      </trkpt>
      <trkpt lat="45.39771" lon="2.37454">
        <ele>607</ele>
        <time>2022-06-14T11:49:47.000Z</time>
      </trkpt>
      <trkpt lat="45.39772" lon="2.37454">
        <ele>607.4</ele>
        <time>2022-06-14T11:49:49.000Z</time>
      </trkpt>
      <trkpt lat="45.39773" lon="2.37455">
        <ele>607.5</ele>
        <time>2022-06-14T11:49:50.000Z</time>
      </trkpt>
      <trkpt lat="45.39774" lon="2.37455">
        <ele>607.6</ele>
        <time>2022-06-14T11:49:51.000Z</time>
      </trkpt>
      <trkpt lat="45.39774" lon="2.37456">
        <ele>607.7</ele>
        <time>2022-06-14T11:49:52.000Z</time>
      </trkpt>
      <trkpt lat="45.39775" lon="2.37457">
        <ele>607.9</ele>
        <time>2022-06-14T11:49:53.000Z</time>
      </trkpt>
      <trkpt lat="45.39776" lon="2.37458">
        <ele>608</ele>
        <time>2022-06-14T11:49:54.000Z</time>
      </trkpt>
      <trkpt lat="45.39777" lon="2.37459">
        <ele>608.2</ele>
        <time>2022-06-14T11:49:55.000Z</time>
      </trkpt>
      <trkpt lat="45.39778" lon="2.3746">
        <ele>608.5</ele>
        <time>2022-06-14T11:49:57.000Z</time>
      </trkpt>
      <trkpt lat="45.39779" lon="2.37461">
        <ele>608.7</ele>
        <time>2022-06-14T11:49:58.000Z</time>
      </trkpt>
      <trkpt lat="45.3978" lon="2.37461">
        <ele>608.9</ele>
        <time>2022-06-14T11:49:59.000Z</time>
      </trkpt>
      <trkpt lat="45.39781" lon="2.37462">
        <ele>609.1</ele>
        <time>2022-06-14T11:50:00.000Z</time>
      </trkpt>
      <trkpt lat="45.39782" lon="2.37462">
        <ele>609.3</ele>
        <time>2022-06-14T11:50:01.000Z</time>
      </trkpt>
      <trkpt lat="45.39783" lon="2.37462">
        <ele>609.5</ele>
        <time>2022-06-14T11:50:02.000Z</time>
      </trkpt>
      <trkpt lat="45.39784" lon="2.37463">
        <ele>609.7</ele>
        <time>2022-06-14T11:50:03.000Z</time>
      </trkpt>
      <trkpt lat="45.39785" lon="2.37463">
        <ele>610</ele>
        <time>2022-06-14T11:50:04.000Z</time>
      </trkpt>
      <trkpt lat="45.39786" lon="2.37463">
        <ele>610.2</ele>
        <time>2022-06-14T11:50:05.000Z</time>
      </trkpt>
      <trkpt lat="45.39787" lon="2.37463">
        <ele>610.4</ele>
        <time>2022-06-14T11:50:06.000Z</time>
      </trkpt>
      <trkpt lat="45.39787" lon="2.37462">
        <ele>610.6</ele>
        <time>2022-06-14T11:50:07.000Z</time>
      </trkpt>
      <trkpt lat="45.39788" lon="2.37462">
        <ele>610.9</ele>
        <time>2022-06-14T11:50:08.000Z</time>
      </trkpt>
      <trkpt lat="45.39789" lon="2.37462">
        <ele>611.1</ele>
        <time>2022-06-14T11:50:09.000Z</time>
      </trkpt>
      <trkpt lat="45.3979" lon="2.37461">
        <ele>611.3</ele>
        <time>2022-06-14T11:50:10.000Z</time>
      </trkpt>
      <trkpt lat="45.39791" lon="2.37461">
        <ele>611.6</ele>
        <time>2022-06-14T11:50:11.000Z</time>
      </trkpt>
      <trkpt lat="45.39792" lon="2.37461">
        <ele>611.8</ele>
        <time>2022-06-14T11:50:12.000Z</time>
      </trkpt>
      <trkpt lat="45.39792" lon="2.3746">
        <ele>612</ele>
        <time>2022-06-14T11:50:13.000Z</time>
      </trkpt>
      <trkpt lat="45.39793" lon="2.3746">
        <ele>612.3</ele>
        <time>2022-06-14T11:50:14.000Z</time>
      </trkpt>
      <trkpt lat="45.39794" lon="2.3746">
        <ele>612.5</ele>
        <time>2022-06-14T11:50:15.000Z</time>
      </trkpt>
      <trkpt lat="45.39795" lon="2.3746">
        <ele>612.7</ele>
        <time>2022-06-14T11:50:16.000Z</time>
      </trkpt>
      <trkpt lat="45.39796" lon="2.3746">
        <ele>613</ele>
        <time>2022-06-14T11:50:17.000Z</time>
      </trkpt>
      <trkpt lat="45.39797" lon="2.3746">
        <ele>613.2</ele>
        <time>2022-06-14T11:50:18.000Z</time>
      </trkpt>
      <trkpt lat="45.39798" lon="2.3746">
        <ele>613.4</ele>
        <time>2022-06-14T11:50:19.000Z</time>
      </trkpt>
      <trkpt lat="45.39799" lon="2.3746">
        <ele>613.6</ele>
        <time>2022-06-14T11:50:20.000Z</time>
      </trkpt>
      <trkpt lat="45.398" lon="2.3746">
        <ele>614</ele>
        <time>2022-06-14T11:50:22.000Z</time>
      </trkpt>
      <trkpt lat="45.39801" lon="2.37461">
        <ele>614.2</ele>
        <time>2022-06-14T11:50:23.000Z</time>
      </trkpt>
      <trkpt lat="45.39802" lon="2.37461">
        <ele>614.3</ele>
        <time>2022-06-14T11:50:24.000Z</time>
      </trkpt>
      <trkpt lat="45.39803" lon="2.37462">
        <ele>614.6</ele>
        <time>2022-06-14T11:50:26.000Z</time>
      </trkpt>
      <trkpt lat="45.39804" lon="2.37462">
        <ele>614.8</ele>
        <time>2022-06-14T11:50:28.000Z</time>
      </trkpt>
      <trkpt lat="45.39804" lon="2.37463">
        <ele>614.8</ele>
        <time>2022-06-14T11:50:29.000Z</time>
      </trkpt>
      <trkpt lat="45.39805" lon="2.37463">
        <ele>614.9</ele>
        <time>2022-06-14T11:50:31.000Z</time>
      </trkpt>
      <trkpt lat="45.39806" lon="2.37464">
        <ele>615.2</ele>
        <time>2022-06-14T11:50:33.000Z</time>
      </trkpt>
      <trkpt lat="45.39807" lon="2.37464">
        <ele>615.4</ele>
        <time>2022-06-14T11:50:34.000Z</time>
      </trkpt>
      <trkpt lat="45.39808" lon="2.37464">
        <ele>615.6</ele>
        <time>2022-06-14T11:50:35.000Z</time>
      </trkpt>
      <trkpt lat="45.39809" lon="2.37464">
        <ele>615.8</ele>
        <time>2022-06-14T11:50:37.000Z</time>
      </trkpt>
      <trkpt lat="45.3981" lon="2.37464">
        <ele>616</ele>
        <time>2022-06-14T11:50:40.000Z</time>
      </trkpt>
      <trkpt lat="45.3981" lon="2.37465">
        <ele>616.1</ele>
        <time>2022-06-14T11:50:41.000Z</time>
      </trkpt>
      <trkpt lat="45.39811" lon="2.37465">
        <ele>616.3</ele>
        <time>2022-06-14T11:50:42.000Z</time>
      </trkpt>
      <trkpt lat="45.39812" lon="2.37465">
        <ele>616.5</ele>
        <time>2022-06-14T11:50:43.000Z</time>
      </trkpt>
      <trkpt lat="45.39812" lon="2.37466">
        <ele>616.6</ele>
        <time>2022-06-14T11:50:44.000Z</time>
      </trkpt>
      <trkpt lat="45.39813" lon="2.37466">
        <ele>616.7</ele>
        <time>2022-06-14T11:50:45.000Z</time>
      </trkpt>
      <trkpt lat="45.39814" lon="2.37467">
        <ele>617</ele>
        <time>2022-06-14T11:50:47.000Z</time>
      </trkpt>
      <trkpt lat="45.39815" lon="2.37467">
        <ele>617.1</ele>
        <time>2022-06-14T11:50:49.000Z</time>
      </trkpt>
      <trkpt lat="45.39817" lon="2.37468">
        <ele>617.5</ele>
        <time>2022-06-14T11:50:53.000Z</time>
      </trkpt>
      <trkpt lat="45.39818" lon="2.37468">
        <ele>617.8</ele>
        <time>2022-06-14T11:50:54.000Z</time>
      </trkpt>
      <trkpt lat="45.39819" lon="2.37468">
        <ele>618</ele>
        <time>2022-06-14T11:50:56.000Z</time>
      </trkpt>
      <trkpt lat="45.39819" lon="2.37469">
        <ele>618.2</ele>
        <time>2022-06-14T11:50:57.000Z</time>
      </trkpt>
      <trkpt lat="45.3982" lon="2.37469">
        <ele>618.3</ele>
        <time>2022-06-14T11:50:58.000Z</time>
      </trkpt>
      <trkpt lat="45.39821" lon="2.37469">
        <ele>618.5</ele>
        <time>2022-06-14T11:50:59.000Z</time>
      </trkpt>
      <trkpt lat="45.39822" lon="2.37469">
        <ele>618.7</ele>
        <time>2022-06-14T11:51:00.000Z</time>
      </trkpt>
      <trkpt lat="45.39823" lon="2.3747">
        <ele>618.9</ele>
        <time>2022-06-14T11:51:01.000Z</time>
      </trkpt>
      <trkpt lat="45.39824" lon="2.37471">
        <ele>619.1</ele>
        <time>2022-06-14T11:51:03.000Z</time>
      </trkpt>
      <trkpt lat="45.39825" lon="2.37472">
        <ele>619.2</ele>
        <time>2022-06-14T11:51:04.000Z</time>
      </trkpt>
      <trkpt lat="45.39826" lon="2.37473">
        <ele>619.3</ele>
        <time>2022-06-14T11:51:05.000Z</time>
      </trkpt>
      <trkpt lat="45.39826" lon="2.37474">
        <ele>619.4</ele>
        <time>2022-06-14T11:51:06.000Z</time>
      </trkpt>
      <trkpt lat="45.39827" lon="2.37476">
        <ele>619.5</ele>
        <time>2022-06-14T11:51:07.000Z</time>
      </trkpt>
      <trkpt lat="45.39828" lon="2.37477">
        <ele>619.6</ele>
        <time>2022-06-14T11:51:08.000Z</time>
      </trkpt>
      <trkpt lat="45.39828" lon="2.37478">
        <ele>619.6</ele>
        <time>2022-06-14T11:51:09.000Z</time>
      </trkpt>
      <trkpt lat="45.39829" lon="2.37479">
        <ele>619.7</ele>
        <time>2022-06-14T11:51:10.000Z</time>
      </trkpt>
      <trkpt lat="45.3983" lon="2.37481">
        <ele>619.7</ele>
        <time>2022-06-14T11:51:11.000Z</time>
      </trkpt>
      <trkpt lat="45.3983" lon="2.37482">
        <ele>619.8</ele>
        <time>2022-06-14T11:51:12.000Z</time>
      </trkpt>
      <trkpt lat="45.39831" lon="2.37483">
        <ele>619.8</ele>
        <time>2022-06-14T11:51:13.000Z</time>
      </trkpt>
      <trkpt lat="45.39831" lon="2.37485">
        <ele>619.8</ele>
        <time>2022-06-14T11:51:14.000Z</time>
      </trkpt>
      <trkpt lat="45.39832" lon="2.37486">
        <ele>619.8</ele>
        <time>2022-06-14T11:51:15.000Z</time>
      </trkpt>
      <trkpt lat="45.39832" lon="2.37487">
        <ele>619.8</ele>
        <time>2022-06-14T11:51:16.000Z</time>
      </trkpt>
      <trkpt lat="45.39833" lon="2.37489">
        <ele>619.8</ele>
        <time>2022-06-14T11:51:17.000Z</time>
      </trkpt>
      <trkpt lat="45.39833" lon="2.3749">
        <ele>619.8</ele>
        <time>2022-06-14T11:51:18.000Z</time>
      </trkpt>
      <trkpt lat="45.39834" lon="2.37492">
        <ele>619.9</ele>
        <time>2022-06-14T11:51:19.000Z</time>
      </trkpt>
      <trkpt lat="45.39834" lon="2.37493">
        <ele>619.9</ele>
        <time>2022-06-14T11:51:20.000Z</time>
      </trkpt>
      <trkpt lat="45.39835" lon="2.37495">
        <ele>619.9</ele>
        <time>2022-06-14T11:51:21.000Z</time>
      </trkpt>
      <trkpt lat="45.39835" lon="2.37496">
        <ele>620</ele>
        <time>2022-06-14T11:51:22.000Z</time>
      </trkpt>
      <trkpt lat="45.39836" lon="2.37498">
        <ele>620</ele>
        <time>2022-06-14T11:51:23.000Z</time>
      </trkpt>
      <trkpt lat="45.39836" lon="2.37499">
        <ele>620</ele>
        <time>2022-06-14T11:51:24.000Z</time>
      </trkpt>
      <trkpt lat="45.39837" lon="2.37501">
        <ele>620</ele>
        <time>2022-06-14T11:51:25.000Z</time>
      </trkpt>
      <trkpt lat="45.39837" lon="2.37502">
        <ele>620.1</ele>
        <time>2022-06-14T11:51:26.000Z</time>
      </trkpt>
      <trkpt lat="45.39838" lon="2.37503">
        <ele>620.1</ele>
        <time>2022-06-14T11:51:27.000Z</time>
      </trkpt>
      <trkpt lat="45.39838" lon="2.37505">
        <ele>620.2</ele>
        <time>2022-06-14T11:51:28.000Z</time>
      </trkpt>
      <trkpt lat="45.39838" lon="2.37506">
        <ele>620.2</ele>
        <time>2022-06-14T11:51:29.000Z</time>
      </trkpt>
      <trkpt lat="45.39839" lon="2.37508">
        <ele>620.2</ele>
        <time>2022-06-14T11:51:30.000Z</time>
      </trkpt>
      <trkpt lat="45.39839" lon="2.37509">
        <ele>620.2</ele>
        <time>2022-06-14T11:51:31.000Z</time>
      </trkpt>
      <trkpt lat="45.3984" lon="2.37511">
        <ele>620.3</ele>
        <time>2022-06-14T11:51:32.000Z</time>
      </trkpt>
      <trkpt lat="45.3984" lon="2.37512">
        <ele>620.3</ele>
        <time>2022-06-14T11:51:33.000Z</time>
      </trkpt>
      <trkpt lat="45.3984" lon="2.37514">
        <ele>620.3</ele>
        <time>2022-06-14T11:51:34.000Z</time>
      </trkpt>
      <trkpt lat="45.39841" lon="2.37515">
        <ele>620.3</ele>
        <time>2022-06-14T11:51:35.000Z</time>
      </trkpt>
      <trkpt lat="45.39841" lon="2.37517">
        <ele>620.3</ele>
        <time>2022-06-14T11:51:36.000Z</time>
      </trkpt>
      <trkpt lat="45.39841" lon="2.37518">
        <ele>620.3</ele>
        <time>2022-06-14T11:51:37.000Z</time>
      </trkpt>
      <trkpt lat="45.39842" lon="2.3752">
        <ele>620.3</ele>
        <time>2022-06-14T11:51:38.000Z</time>
      </trkpt>
      <trkpt lat="45.39842" lon="2.37521">
        <ele>620.3</ele>
        <time>2022-06-14T11:51:39.000Z</time>
      </trkpt>
      <trkpt lat="45.39842" lon="2.37523">
        <ele>620.2</ele>
        <time>2022-06-14T11:51:40.000Z</time>
      </trkpt>
      <trkpt lat="45.39842" lon="2.37525">
        <ele>620.2</ele>
        <time>2022-06-14T11:51:41.000Z</time>
      </trkpt>
      <trkpt lat="45.39842" lon="2.37526">
        <ele>620.1</ele>
        <time>2022-06-14T11:51:42.000Z</time>
      </trkpt>
      <trkpt lat="45.39843" lon="2.37528">
        <ele>620</ele>
        <time>2022-06-14T11:51:43.000Z</time>
      </trkpt>
      <trkpt lat="45.39843" lon="2.3753">
        <ele>619.9</ele>
        <time>2022-06-14T11:51:44.000Z</time>
      </trkpt>
      <trkpt lat="45.39843" lon="2.37531">
        <ele>619.8</ele>
        <time>2022-06-14T11:51:45.000Z</time>
      </trkpt>
      <trkpt lat="45.39843" lon="2.37533">
        <ele>619.7</ele>
        <time>2022-06-14T11:51:46.000Z</time>
      </trkpt>
      <trkpt lat="45.39843" lon="2.37534">
        <ele>619.7</ele>
        <time>2022-06-14T11:51:47.000Z</time>
      </trkpt>
      <trkpt lat="45.39843" lon="2.37535">
        <ele>619.6</ele>
        <time>2022-06-14T11:51:48.000Z</time>
      </trkpt>
      <trkpt lat="45.39843" lon="2.37536">
        <ele>619.6</ele>
        <time>2022-06-14T11:51:49.000Z</time>
      </trkpt>
      <trkpt lat="45.39843" lon="2.37537">
        <ele>619.6</ele>
        <time>2022-06-14T11:52:07.000Z</time>
      </trkpt>
      <trkpt lat="45.39843" lon="2.37538">
        <ele>619.5</ele>
        <time>2022-06-14T11:52:09.000Z</time>
      </trkpt>
      <trkpt lat="45.39843" lon="2.3754">
        <ele>619.4</ele>
        <time>2022-06-14T11:52:10.000Z</time>
      </trkpt>
      <trkpt lat="45.39843" lon="2.37541">
        <ele>619.3</ele>
        <time>2022-06-14T11:52:11.000Z</time>
      </trkpt>
      <trkpt lat="45.39843" lon="2.37542">
        <ele>619.2</ele>
        <time>2022-06-14T11:52:12.000Z</time>
      </trkpt>
      <trkpt lat="45.39843" lon="2.37544">
        <ele>619.1</ele>
        <time>2022-06-14T11:52:13.000Z</time>
      </trkpt>
      <trkpt lat="45.39843" lon="2.37545">
        <ele>619</ele>
        <time>2022-06-14T11:52:14.000Z</time>
      </trkpt>
      <trkpt lat="45.39843" lon="2.37547">
        <ele>618.8</ele>
        <time>2022-06-14T11:52:15.000Z</time>
      </trkpt>
      <trkpt lat="45.39842" lon="2.37548">
        <ele>618.7</ele>
        <time>2022-06-14T11:52:16.000Z</time>
      </trkpt>
      <trkpt lat="45.39842" lon="2.3755">
        <ele>618.6</ele>
        <time>2022-06-14T11:52:17.000Z</time>
      </trkpt>
      <trkpt lat="45.39842" lon="2.37551">
        <ele>618.5</ele>
        <time>2022-06-14T11:52:18.000Z</time>
      </trkpt>
      <trkpt lat="45.39842" lon="2.37553">
        <ele>618.4</ele>
        <time>2022-06-14T11:52:19.000Z</time>
      </trkpt>
      <trkpt lat="45.39843" lon="2.37555">
        <ele>618.3</ele>
        <time>2022-06-14T11:52:20.000Z</time>
      </trkpt>
      <trkpt lat="45.39843" lon="2.37557">
        <ele>618.2</ele>
        <time>2022-06-14T11:52:21.000Z</time>
      </trkpt>
      <trkpt lat="45.39843" lon="2.37559">
        <ele>618.1</ele>
        <time>2022-06-14T11:52:22.000Z</time>
      </trkpt>
      <trkpt lat="45.39843" lon="2.3756">
        <ele>618</ele>
        <time>2022-06-14T11:52:23.000Z</time>
      </trkpt>
      <trkpt lat="45.39843" lon="2.37562">
        <ele>617.9</ele>
        <time>2022-06-14T11:52:24.000Z</time>
      </trkpt>
      <trkpt lat="45.39843" lon="2.37564">
        <ele>617.9</ele>
        <time>2022-06-14T11:52:25.000Z</time>
      </trkpt>
      <trkpt lat="45.39843" lon="2.37566">
        <ele>617.8</ele>
        <time>2022-06-14T11:52:26.000Z</time>
      </trkpt>
      <trkpt lat="45.39844" lon="2.37568">
        <ele>617.8</ele>
        <time>2022-06-14T11:52:27.000Z</time>
      </trkpt>
      <trkpt lat="45.39844" lon="2.3757">
        <ele>617.7</ele>
        <time>2022-06-14T11:52:28.000Z</time>
      </trkpt>
      <trkpt lat="45.39844" lon="2.37572">
        <ele>617.7</ele>
        <time>2022-06-14T11:52:29.000Z</time>
      </trkpt>
      <trkpt lat="45.39845" lon="2.37574">
        <ele>617.6</ele>
        <time>2022-06-14T11:52:30.000Z</time>
      </trkpt>
      <trkpt lat="45.39845" lon="2.37575">
        <ele>617.6</ele>
        <time>2022-06-14T11:52:31.000Z</time>
      </trkpt>
      <trkpt lat="45.39845" lon="2.37577">
        <ele>617.6</ele>
        <time>2022-06-14T11:52:32.000Z</time>
      </trkpt>
      <trkpt lat="45.39846" lon="2.37579">
        <ele>617.6</ele>
        <time>2022-06-14T11:52:33.000Z</time>
      </trkpt>
      <trkpt lat="45.39846" lon="2.37581">
        <ele>617.6</ele>
        <time>2022-06-14T11:52:34.000Z</time>
      </trkpt>
      <trkpt lat="45.39847" lon="2.37583">
        <ele>617.6</ele>
        <time>2022-06-14T11:52:35.000Z</time>
      </trkpt>
      <trkpt lat="45.39847" lon="2.37584">
        <ele>617.5</ele>
        <time>2022-06-14T11:52:36.000Z</time>
      </trkpt>
      <trkpt lat="45.39848" lon="2.37586">
        <ele>617.4</ele>
        <time>2022-06-14T11:52:37.000Z</time>
      </trkpt>
      <trkpt lat="45.39848" lon="2.37588">
        <ele>617.4</ele>
        <time>2022-06-14T11:52:38.000Z</time>
      </trkpt>
      <trkpt lat="45.39849" lon="2.37589">
        <ele>617.3</ele>
        <time>2022-06-14T11:52:39.000Z</time>
      </trkpt>
      <trkpt lat="45.39849" lon="2.37591">
        <ele>617.2</ele>
        <time>2022-06-14T11:52:40.000Z</time>
      </trkpt>
      <trkpt lat="45.3985" lon="2.37593">
        <ele>617.1</ele>
        <time>2022-06-14T11:52:41.000Z</time>
      </trkpt>
      <trkpt lat="45.3985" lon="2.37594">
        <ele>617</ele>
        <time>2022-06-14T11:52:42.000Z</time>
      </trkpt>
      <trkpt lat="45.39851" lon="2.37596">
        <ele>616.9</ele>
        <time>2022-06-14T11:52:43.000Z</time>
      </trkpt>
      <trkpt lat="45.39851" lon="2.37598">
        <ele>616.9</ele>
        <time>2022-06-14T11:52:44.000Z</time>
      </trkpt>
      <trkpt lat="45.39852" lon="2.37599">
        <ele>616.8</ele>
        <time>2022-06-14T11:52:45.000Z</time>
      </trkpt>
      <trkpt lat="45.39852" lon="2.37601">
        <ele>616.7</ele>
        <time>2022-06-14T11:52:46.000Z</time>
      </trkpt>
      <trkpt lat="45.39853" lon="2.37602">
        <ele>616.6</ele>
        <time>2022-06-14T11:52:47.000Z</time>
      </trkpt>
      <trkpt lat="45.39853" lon="2.37604">
        <ele>616.5</ele>
        <time>2022-06-14T11:52:48.000Z</time>
      </trkpt>
      <trkpt lat="45.39854" lon="2.37605">
        <ele>616.4</ele>
        <time>2022-06-14T11:52:49.000Z</time>
      </trkpt>
      <trkpt lat="45.39854" lon="2.37607">
        <ele>616.3</ele>
        <time>2022-06-14T11:52:50.000Z</time>
      </trkpt>
      <trkpt lat="45.39855" lon="2.37609">
        <ele>616.3</ele>
        <time>2022-06-14T11:52:51.000Z</time>
      </trkpt>
      <trkpt lat="45.39855" lon="2.3761">
        <ele>616.2</ele>
        <time>2022-06-14T11:52:52.000Z</time>
      </trkpt>
      <trkpt lat="45.39856" lon="2.37612">
        <ele>616.1</ele>
        <time>2022-06-14T11:52:53.000Z</time>
      </trkpt>
      <trkpt lat="45.39856" lon="2.37613">
        <ele>616</ele>
        <time>2022-06-14T11:52:54.000Z</time>
      </trkpt>
      <trkpt lat="45.39857" lon="2.37615">
        <ele>616</ele>
        <time>2022-06-14T11:52:55.000Z</time>
      </trkpt>
      <trkpt lat="45.39858" lon="2.37616">
        <ele>615.9</ele>
        <time>2022-06-14T11:52:56.000Z</time>
      </trkpt>
      <trkpt lat="45.39858" lon="2.37618">
        <ele>615.9</ele>
        <time>2022-06-14T11:52:57.000Z</time>
      </trkpt>
      <trkpt lat="45.39859" lon="2.37619">
        <ele>615.8</ele>
        <time>2022-06-14T11:52:58.000Z</time>
      </trkpt>
      <trkpt lat="45.3986" lon="2.3762">
        <ele>615.8</ele>
        <time>2022-06-14T11:52:59.000Z</time>
      </trkpt>
      <trkpt lat="45.3986" lon="2.37622">
        <ele>615.8</ele>
        <time>2022-06-14T11:53:00.000Z</time>
      </trkpt>
      <trkpt lat="45.39861" lon="2.37623">
        <ele>615.8</ele>
        <time>2022-06-14T11:53:01.000Z</time>
      </trkpt>
      <trkpt lat="45.39862" lon="2.37623">
        <ele>615.8</ele>
        <time>2022-06-14T11:53:02.000Z</time>
      </trkpt>
      <trkpt lat="45.39862" lon="2.37624">
        <ele>615.9</ele>
        <time>2022-06-14T11:53:03.000Z</time>
      </trkpt>
      <trkpt lat="45.39863" lon="2.37624">
        <ele>616</ele>
        <time>2022-06-14T11:53:04.000Z</time>
      </trkpt>
      <trkpt lat="45.39864" lon="2.37624">
        <ele>616.3</ele>
        <time>2022-06-14T11:53:06.000Z</time>
      </trkpt>
      <trkpt lat="45.39864" lon="2.37623">
        <ele>616.4</ele>
        <time>2022-06-14T11:53:07.000Z</time>
      </trkpt>
      <trkpt lat="45.39864" lon="2.37622">
        <ele>616.6</ele>
        <time>2022-06-14T11:53:08.000Z</time>
      </trkpt>
      <trkpt lat="45.39864" lon="2.37621">
        <ele>616.8</ele>
        <time>2022-06-14T11:53:09.000Z</time>
      </trkpt>
      <trkpt lat="45.39864" lon="2.3762">
        <ele>617</ele>
        <time>2022-06-14T11:53:10.000Z</time>
      </trkpt>
      <trkpt lat="45.39865" lon="2.37618">
        <ele>617.2</ele>
        <time>2022-06-14T11:53:11.000Z</time>
      </trkpt>
      <trkpt lat="45.39865" lon="2.37617">
        <ele>617.4</ele>
        <time>2022-06-14T11:53:12.000Z</time>
      </trkpt>
      <trkpt lat="45.39865" lon="2.37616">
        <ele>617.6</ele>
        <time>2022-06-14T11:53:13.000Z</time>
      </trkpt>
      <trkpt lat="45.39865" lon="2.37615">
        <ele>617.8</ele>
        <time>2022-06-14T11:53:14.000Z</time>
      </trkpt>
      <trkpt lat="45.39865" lon="2.37614">
        <ele>617.9</ele>
        <time>2022-06-14T11:53:15.000Z</time>
      </trkpt>
      <trkpt lat="45.39865" lon="2.37613">
        <ele>618.1</ele>
        <time>2022-06-14T11:53:16.000Z</time>
      </trkpt>
      <trkpt lat="45.39865" lon="2.37611">
        <ele>618.2</ele>
        <time>2022-06-14T11:53:17.000Z</time>
      </trkpt>
      <trkpt lat="45.39865" lon="2.3761">
        <ele>618.4</ele>
        <time>2022-06-14T11:53:18.000Z</time>
      </trkpt>
      <trkpt lat="45.39865" lon="2.37609">
        <ele>618.5</ele>
        <time>2022-06-14T11:53:19.000Z</time>
      </trkpt>
      <trkpt lat="45.39865" lon="2.37608">
        <ele>618.7</ele>
        <time>2022-06-14T11:53:20.000Z</time>
      </trkpt>
      <trkpt lat="45.39865" lon="2.37607">
        <ele>618.8</ele>
        <time>2022-06-14T11:53:21.000Z</time>
      </trkpt>
      <trkpt lat="45.39865" lon="2.37606">
        <ele>619</ele>
        <time>2022-06-14T11:53:22.000Z</time>
      </trkpt>
      <trkpt lat="45.39865" lon="2.37605">
        <ele>619.1</ele>
        <time>2022-06-14T11:53:23.000Z</time>
      </trkpt>
      <trkpt lat="45.39865" lon="2.37604">
        <ele>619.3</ele>
        <time>2022-06-14T11:53:24.000Z</time>
      </trkpt>
      <trkpt lat="45.39864" lon="2.37603">
        <ele>619.4</ele>
        <time>2022-06-14T11:53:25.000Z</time>
      </trkpt>
      <trkpt lat="45.39864" lon="2.37602">
        <ele>619.6</ele>
        <time>2022-06-14T11:53:26.000Z</time>
      </trkpt>
      <trkpt lat="45.39864" lon="2.376">
        <ele>619.8</ele>
        <time>2022-06-14T11:53:27.000Z</time>
      </trkpt>
      <trkpt lat="45.39864" lon="2.37599">
        <ele>619.9</ele>
        <time>2022-06-14T11:53:28.000Z</time>
      </trkpt>
      <trkpt lat="45.39864" lon="2.37598">
        <ele>620.1</ele>
        <time>2022-06-14T11:53:29.000Z</time>
      </trkpt>
      <trkpt lat="45.39864" lon="2.37597">
        <ele>620.2</ele>
        <time>2022-06-14T11:53:30.000Z</time>
      </trkpt>
      <trkpt lat="45.39864" lon="2.37596">
        <ele>620.3</ele>
        <time>2022-06-14T11:53:31.000Z</time>
      </trkpt>
      <trkpt lat="45.39864" lon="2.37595">
        <ele>620.5</ele>
        <time>2022-06-14T11:53:32.000Z</time>
      </trkpt>
      <trkpt lat="45.39864" lon="2.37594">
        <ele>620.6</ele>
        <time>2022-06-14T11:53:33.000Z</time>
      </trkpt>
      <trkpt lat="45.39864" lon="2.37593">
        <ele>620.7</ele>
        <time>2022-06-14T11:53:34.000Z</time>
      </trkpt>
      <trkpt lat="45.39864" lon="2.37592">
        <ele>620.8</ele>
        <time>2022-06-14T11:53:35.000Z</time>
      </trkpt>
      <trkpt lat="45.39864" lon="2.37591">
        <ele>620.9</ele>
        <time>2022-06-14T11:53:36.000Z</time>
      </trkpt>
      <trkpt lat="45.39864" lon="2.3759">
        <ele>621</ele>
        <time>2022-06-14T11:53:37.000Z</time>
      </trkpt>
      <trkpt lat="45.39864" lon="2.37589">
        <ele>621.2</ele>
        <time>2022-06-14T11:53:39.000Z</time>
      </trkpt>
      <trkpt lat="45.39863" lon="2.37589">
        <ele>621.2</ele>
        <time>2022-06-14T11:53:40.000Z</time>
      </trkpt>
      <trkpt lat="45.39863" lon="2.37588">
        <ele>621.2</ele>
        <time>2022-06-14T11:53:41.000Z</time>
      </trkpt>
      <trkpt lat="45.39863" lon="2.37587">
        <ele>621.4</ele>
        <time>2022-06-14T11:53:47.000Z</time>
      </trkpt>
      <trkpt lat="45.39863" lon="2.37586">
        <ele>621.5</ele>
        <time>2022-06-14T11:53:48.000Z</time>
      </trkpt>
      <trkpt lat="45.39863" lon="2.37585">
        <ele>621.7</ele>
        <time>2022-06-14T11:53:49.000Z</time>
      </trkpt>
      <trkpt lat="45.39863" lon="2.37583">
        <ele>621.9</ele>
        <time>2022-06-14T11:53:50.000Z</time>
      </trkpt>
      <trkpt lat="45.39863" lon="2.37581">
        <ele>622</ele>
        <time>2022-06-14T11:53:51.000Z</time>
      </trkpt>
      <trkpt lat="45.39863" lon="2.3758">
        <ele>622</ele>
        <time>2022-06-14T11:53:52.000Z</time>
      </trkpt>
      <trkpt lat="45.39862" lon="2.37578">
        <ele>622.1</ele>
        <time>2022-06-14T11:53:53.000Z</time>
      </trkpt>
      <trkpt lat="45.39862" lon="2.37577">
        <ele>622.1</ele>
        <time>2022-06-14T11:53:55.000Z</time>
      </trkpt>
      <trkpt lat="45.39862" lon="2.37576">
        <ele>622.1</ele>
        <time>2022-06-14T11:53:57.000Z</time>
      </trkpt>
      <trkpt lat="45.39862" lon="2.37575">
        <ele>622.2</ele>
        <time>2022-06-14T11:53:58.000Z</time>
      </trkpt>
      <trkpt lat="45.39862" lon="2.37574">
        <ele>622.3</ele>
        <time>2022-06-14T11:53:59.000Z</time>
      </trkpt>
      <trkpt lat="45.39862" lon="2.37573">
        <ele>622.5</ele>
        <time>2022-06-14T11:54:00.000Z</time>
      </trkpt>
      <trkpt lat="45.39863" lon="2.37571">
        <ele>622.7</ele>
        <time>2022-06-14T11:54:01.000Z</time>
      </trkpt>
      <trkpt lat="45.39863" lon="2.37569">
        <ele>622.8</ele>
        <time>2022-06-14T11:54:02.000Z</time>
      </trkpt>
      <trkpt lat="45.39863" lon="2.37568">
        <ele>623</ele>
        <time>2022-06-14T11:54:03.000Z</time>
      </trkpt>
      <trkpt lat="45.39863" lon="2.37566">
        <ele>623.1</ele>
        <time>2022-06-14T11:54:04.000Z</time>
      </trkpt>
      <trkpt lat="45.39863" lon="2.37564">
        <ele>623.2</ele>
        <time>2022-06-14T11:54:05.000Z</time>
      </trkpt>
      <trkpt lat="45.39863" lon="2.37563">
        <ele>623.3</ele>
        <time>2022-06-14T11:54:06.000Z</time>
      </trkpt>
      <trkpt lat="45.39863" lon="2.37561">
        <ele>623.4</ele>
        <time>2022-06-14T11:54:07.000Z</time>
      </trkpt>
      <trkpt lat="45.39862" lon="2.3756">
        <ele>623.5</ele>
        <time>2022-06-14T11:54:08.000Z</time>
      </trkpt>
      <trkpt lat="45.39862" lon="2.37558">
        <ele>623.6</ele>
        <time>2022-06-14T11:54:09.000Z</time>
      </trkpt>
      <trkpt lat="45.39862" lon="2.37557">
        <ele>623.6</ele>
        <time>2022-06-14T11:54:10.000Z</time>
      </trkpt>
      <trkpt lat="45.39862" lon="2.37555">
        <ele>623.7</ele>
        <time>2022-06-14T11:54:11.000Z</time>
      </trkpt>
      <trkpt lat="45.39862" lon="2.37554">
        <ele>623.8</ele>
        <time>2022-06-14T11:54:12.000Z</time>
      </trkpt>
      <trkpt lat="45.39862" lon="2.37552">
        <ele>623.9</ele>
        <time>2022-06-14T11:54:13.000Z</time>
      </trkpt>
      <trkpt lat="45.39862" lon="2.37551">
        <ele>624</ele>
        <time>2022-06-14T11:54:14.000Z</time>
      </trkpt>
      <trkpt lat="45.39862" lon="2.37549">
        <ele>624.1</ele>
        <time>2022-06-14T11:54:15.000Z</time>
      </trkpt>
      <trkpt lat="45.39862" lon="2.37548">
        <ele>624.3</ele>
        <time>2022-06-14T11:54:16.000Z</time>
      </trkpt>
      <trkpt lat="45.39862" lon="2.37547">
        <ele>624.3</ele>
        <time>2022-06-14T11:54:17.000Z</time>
      </trkpt>
      <trkpt lat="45.39862" lon="2.37546">
        <ele>624.5</ele>
        <time>2022-06-14T11:54:23.000Z</time>
      </trkpt>
      <trkpt lat="45.39862" lon="2.37544">
        <ele>624.5</ele>
        <time>2022-06-14T11:54:24.000Z</time>
      </trkpt>
      <trkpt lat="45.39862" lon="2.37543">
        <ele>624.6</ele>
        <time>2022-06-14T11:54:25.000Z</time>
      </trkpt>
      <trkpt lat="45.39862" lon="2.37542">
        <ele>624.8</ele>
        <time>2022-06-14T11:54:26.000Z</time>
      </trkpt>
      <trkpt lat="45.39862" lon="2.3754">
        <ele>624.9</ele>
        <time>2022-06-14T11:54:27.000Z</time>
      </trkpt>
      <trkpt lat="45.39862" lon="2.37539">
        <ele>625</ele>
        <time>2022-06-14T11:54:28.000Z</time>
      </trkpt>
      <trkpt lat="45.39862" lon="2.37537">
        <ele>625.1</ele>
        <time>2022-06-14T11:54:29.000Z</time>
      </trkpt>
      <trkpt lat="45.39862" lon="2.37536">
        <ele>625.3</ele>
        <time>2022-06-14T11:54:30.000Z</time>
      </trkpt>
      <trkpt lat="45.39863" lon="2.37534">
        <ele>625.5</ele>
        <time>2022-06-14T11:54:31.000Z</time>
      </trkpt>
      <trkpt lat="45.39863" lon="2.37533">
        <ele>625.7</ele>
        <time>2022-06-14T11:54:32.000Z</time>
      </trkpt>
      <trkpt lat="45.39863" lon="2.37531">
        <ele>625.9</ele>
        <time>2022-06-14T11:54:33.000Z</time>
      </trkpt>
      <trkpt lat="45.39864" lon="2.3753">
        <ele>626.1</ele>
        <time>2022-06-14T11:54:34.000Z</time>
      </trkpt>
      <trkpt lat="45.39864" lon="2.37528">
        <ele>626.4</ele>
        <time>2022-06-14T11:54:35.000Z</time>
      </trkpt>
      <trkpt lat="45.39864" lon="2.37526">
        <ele>626.6</ele>
        <time>2022-06-14T11:54:36.000Z</time>
      </trkpt>
      <trkpt lat="45.39865" lon="2.37525">
        <ele>626.9</ele>
        <time>2022-06-14T11:54:37.000Z</time>
      </trkpt>
      <trkpt lat="45.39865" lon="2.37524">
        <ele>627.1</ele>
        <time>2022-06-14T11:54:38.000Z</time>
      </trkpt>
      <trkpt lat="45.39866" lon="2.37522">
        <ele>627.4</ele>
        <time>2022-06-14T11:54:39.000Z</time>
      </trkpt>
      <trkpt lat="45.39866" lon="2.37521">
        <ele>627.6</ele>
        <time>2022-06-14T11:54:40.000Z</time>
      </trkpt>
      <trkpt lat="45.39867" lon="2.37519">
        <ele>627.9</ele>
        <time>2022-06-14T11:54:41.000Z</time>
      </trkpt>
      <trkpt lat="45.39867" lon="2.37518">
        <ele>628.1</ele>
        <time>2022-06-14T11:54:42.000Z</time>
      </trkpt>
      <trkpt lat="45.39868" lon="2.37517">
        <ele>628.3</ele>
        <time>2022-06-14T11:54:43.000Z</time>
      </trkpt>
      <trkpt lat="45.39868" lon="2.37515">
        <ele>628.6</ele>
        <time>2022-06-14T11:54:44.000Z</time>
      </trkpt>
      <trkpt lat="45.39868" lon="2.37514">
        <ele>628.8</ele>
        <time>2022-06-14T11:54:45.000Z</time>
      </trkpt>
      <trkpt lat="45.39869" lon="2.37513">
        <ele>629</ele>
        <time>2022-06-14T11:54:46.000Z</time>
      </trkpt>
      <trkpt lat="45.39869" lon="2.37511">
        <ele>629.2</ele>
        <time>2022-06-14T11:54:47.000Z</time>
      </trkpt>
      <trkpt lat="45.39869" lon="2.3751">
        <ele>629.4</ele>
        <time>2022-06-14T11:54:48.000Z</time>
      </trkpt>
      <trkpt lat="45.3987" lon="2.37509">
        <ele>629.6</ele>
        <time>2022-06-14T11:54:49.000Z</time>
      </trkpt>
      <trkpt lat="45.3987" lon="2.37508">
        <ele>629.8</ele>
        <time>2022-06-14T11:54:50.000Z</time>
      </trkpt>
      <trkpt lat="45.3987" lon="2.37506">
        <ele>630</ele>
        <time>2022-06-14T11:54:51.000Z</time>
      </trkpt>
      <trkpt lat="45.3987" lon="2.37505">
        <ele>630.1</ele>
        <time>2022-06-14T11:54:52.000Z</time>
      </trkpt>
      <trkpt lat="45.39871" lon="2.37504">
        <ele>630.3</ele>
        <time>2022-06-14T11:54:53.000Z</time>
      </trkpt>
      <trkpt lat="45.39871" lon="2.37503">
        <ele>630.4</ele>
        <time>2022-06-14T11:54:54.000Z</time>
      </trkpt>
      <trkpt lat="45.39871" lon="2.37502">
        <ele>630.6</ele>
        <time>2022-06-14T11:54:55.000Z</time>
      </trkpt>
      <trkpt lat="45.39871" lon="2.375">
        <ele>630.7</ele>
        <time>2022-06-14T11:54:56.000Z</time>
      </trkpt>
      <trkpt lat="45.39871" lon="2.37499">
        <ele>630.8</ele>
        <time>2022-06-14T11:54:57.000Z</time>
      </trkpt>
      <trkpt lat="45.39871" lon="2.37498">
        <ele>630.9</ele>
        <time>2022-06-14T11:54:58.000Z</time>
      </trkpt>
      <trkpt lat="45.39871" lon="2.37497">
        <ele>631</ele>
        <time>2022-06-14T11:54:59.000Z</time>
      </trkpt>
      <trkpt lat="45.39871" lon="2.37496">
        <ele>631.1</ele>
        <time>2022-06-14T11:55:00.000Z</time>
      </trkpt>
      <trkpt lat="45.39871" lon="2.37495">
        <ele>631.2</ele>
        <time>2022-06-14T11:55:01.000Z</time>
      </trkpt>
      <trkpt lat="45.39871" lon="2.37493">
        <ele>631.4</ele>
        <time>2022-06-14T11:55:02.000Z</time>
      </trkpt>
      <trkpt lat="45.39872" lon="2.37492">
        <ele>631.5</ele>
        <time>2022-06-14T11:55:03.000Z</time>
      </trkpt>
      <trkpt lat="45.39872" lon="2.37491">
        <ele>631.6</ele>
        <time>2022-06-14T11:55:04.000Z</time>
      </trkpt>
      <trkpt lat="45.39872" lon="2.3749">
        <ele>631.7</ele>
        <time>2022-06-14T11:55:05.000Z</time>
      </trkpt>
      <trkpt lat="45.39872" lon="2.37489">
        <ele>631.9</ele>
        <time>2022-06-14T11:55:06.000Z</time>
      </trkpt>
      <trkpt lat="45.39872" lon="2.37488">
        <ele>632</ele>
        <time>2022-06-14T11:55:07.000Z</time>
      </trkpt>
      <trkpt lat="45.39872" lon="2.37486">
        <ele>632.1</ele>
        <time>2022-06-14T11:55:08.000Z</time>
      </trkpt>
      <trkpt lat="45.39872" lon="2.37485">
        <ele>632.2</ele>
        <time>2022-06-14T11:55:09.000Z</time>
      </trkpt>
      <trkpt lat="45.39872" lon="2.37484">
        <ele>632.3</ele>
        <time>2022-06-14T11:55:10.000Z</time>
      </trkpt>
      <trkpt lat="45.39872" lon="2.37483">
        <ele>632.4</ele>
        <time>2022-06-14T11:55:11.000Z</time>
      </trkpt>
      <trkpt lat="45.39872" lon="2.37482">
        <ele>632.4</ele>
        <time>2022-06-14T11:55:12.000Z</time>
      </trkpt>
      <trkpt lat="45.39872" lon="2.3748">
        <ele>632.5</ele>
        <time>2022-06-14T11:55:13.000Z</time>
      </trkpt>
      <trkpt lat="45.39872" lon="2.37479">
        <ele>632.6</ele>
        <time>2022-06-14T11:55:14.000Z</time>
      </trkpt>
      <trkpt lat="45.39872" lon="2.37478">
        <ele>632.7</ele>
        <time>2022-06-14T11:55:15.000Z</time>
      </trkpt>
      <trkpt lat="45.39872" lon="2.37476">
        <ele>632.8</ele>
        <time>2022-06-14T11:55:16.000Z</time>
      </trkpt>
      <trkpt lat="45.39872" lon="2.37475">
        <ele>632.9</ele>
        <time>2022-06-14T11:55:17.000Z</time>
      </trkpt>
      <trkpt lat="45.39872" lon="2.37474">
        <ele>633</ele>
        <time>2022-06-14T11:55:18.000Z</time>
      </trkpt>
      <trkpt lat="45.39872" lon="2.37472">
        <ele>633.2</ele>
        <time>2022-06-14T11:55:19.000Z</time>
      </trkpt>
      <trkpt lat="45.39872" lon="2.37471">
        <ele>633.3</ele>
        <time>2022-06-14T11:55:20.000Z</time>
      </trkpt>
      <trkpt lat="45.39872" lon="2.3747">
        <ele>633.4</ele>
        <time>2022-06-14T11:55:21.000Z</time>
      </trkpt>
      <trkpt lat="45.39873" lon="2.37468">
        <ele>633.5</ele>
        <time>2022-06-14T11:55:22.000Z</time>
      </trkpt>
      <trkpt lat="45.39873" lon="2.37467">
        <ele>633.7</ele>
        <time>2022-06-14T11:55:23.000Z</time>
      </trkpt>
      <trkpt lat="45.39873" lon="2.37465">
        <ele>633.8</ele>
        <time>2022-06-14T11:55:24.000Z</time>
      </trkpt>
      <trkpt lat="45.39873" lon="2.37464">
        <ele>633.9</ele>
        <time>2022-06-14T11:55:25.000Z</time>
      </trkpt>
      <trkpt lat="45.39873" lon="2.37463">
        <ele>634</ele>
        <time>2022-06-14T11:55:26.000Z</time>
      </trkpt>
      <trkpt lat="45.39873" lon="2.37461">
        <ele>634.2</ele>
        <time>2022-06-14T11:55:27.000Z</time>
      </trkpt>
      <trkpt lat="45.39873" lon="2.3746">
        <ele>634.3</ele>
        <time>2022-06-14T11:55:28.000Z</time>
      </trkpt>
      <trkpt lat="45.39873" lon="2.37459">
        <ele>634.4</ele>
        <time>2022-06-14T11:55:29.000Z</time>
      </trkpt>
      <trkpt lat="45.39873" lon="2.37458">
        <ele>634.5</ele>
        <time>2022-06-14T11:55:30.000Z</time>
      </trkpt>
      <trkpt lat="45.39873" lon="2.37456">
        <ele>634.6</ele>
        <time>2022-06-14T11:55:31.000Z</time>
      </trkpt>
      <trkpt lat="45.39873" lon="2.37455">
        <ele>634.8</ele>
        <time>2022-06-14T11:55:32.000Z</time>
      </trkpt>
      <trkpt lat="45.39874" lon="2.37454">
        <ele>634.9</ele>
        <time>2022-06-14T11:55:33.000Z</time>
      </trkpt>
      <trkpt lat="45.39874" lon="2.37453">
        <ele>635</ele>
        <time>2022-06-14T11:55:34.000Z</time>
      </trkpt>
      <trkpt lat="45.39874" lon="2.37452">
        <ele>635.1</ele>
        <time>2022-06-14T11:55:35.000Z</time>
      </trkpt>
      <trkpt lat="45.39874" lon="2.3745">
        <ele>635.2</ele>
        <time>2022-06-14T11:55:36.000Z</time>
      </trkpt>
      <trkpt lat="45.39874" lon="2.37449">
        <ele>635.3</ele>
        <time>2022-06-14T11:55:37.000Z</time>
      </trkpt>
      <trkpt lat="45.39874" lon="2.37448">
        <ele>635.4</ele>
        <time>2022-06-14T11:55:38.000Z</time>
      </trkpt>
      <trkpt lat="45.39874" lon="2.37447">
        <ele>635.6</ele>
        <time>2022-06-14T11:55:39.000Z</time>
      </trkpt>
      <trkpt lat="45.39874" lon="2.37446">
        <ele>635.7</ele>
        <time>2022-06-14T11:55:40.000Z</time>
      </trkpt>
      <trkpt lat="45.39874" lon="2.37445">
        <ele>635.8</ele>
        <time>2022-06-14T11:55:41.000Z</time>
      </trkpt>
      <trkpt lat="45.39874" lon="2.37444">
        <ele>635.9</ele>
        <time>2022-06-14T11:55:42.000Z</time>
      </trkpt>
      <trkpt lat="45.39875" lon="2.37442">
        <ele>636</ele>
        <time>2022-06-14T11:55:43.000Z</time>
      </trkpt>
      <trkpt lat="45.39875" lon="2.37441">
        <ele>636.1</ele>
        <time>2022-06-14T11:55:44.000Z</time>
      </trkpt>
      <trkpt lat="45.39875" lon="2.3744">
        <ele>636.2</ele>
        <time>2022-06-14T11:55:45.000Z</time>
      </trkpt>
      <trkpt lat="45.39875" lon="2.37439">
        <ele>636.3</ele>
        <time>2022-06-14T11:55:46.000Z</time>
      </trkpt>
      <trkpt lat="45.39875" lon="2.37438">
        <ele>636.4</ele>
        <time>2022-06-14T11:55:47.000Z</time>
      </trkpt>
      <trkpt lat="45.39875" lon="2.37437">
        <ele>636.6</ele>
        <time>2022-06-14T11:55:48.000Z</time>
      </trkpt>
      <trkpt lat="45.39875" lon="2.37436">
        <ele>636.7</ele>
        <time>2022-06-14T11:55:49.000Z</time>
      </trkpt>
      <trkpt lat="45.39875" lon="2.37434">
        <ele>636.8</ele>
        <time>2022-06-14T11:55:50.000Z</time>
      </trkpt>
      <trkpt lat="45.39876" lon="2.37433">
        <ele>637</ele>
        <time>2022-06-14T11:55:51.000Z</time>
      </trkpt>
      <trkpt lat="45.39876" lon="2.37432">
        <ele>637.2</ele>
        <time>2022-06-14T11:55:52.000Z</time>
      </trkpt>
      <trkpt lat="45.39876" lon="2.37431">
        <ele>637.3</ele>
        <time>2022-06-14T11:55:53.000Z</time>
      </trkpt>
      <trkpt lat="45.39877" lon="2.3743">
        <ele>637.5</ele>
        <time>2022-06-14T11:55:54.000Z</time>
      </trkpt>
      <trkpt lat="45.39877" lon="2.37429">
        <ele>637.7</ele>
        <time>2022-06-14T11:55:55.000Z</time>
      </trkpt>
      <trkpt lat="45.39878" lon="2.37428">
        <ele>637.9</ele>
        <time>2022-06-14T11:55:56.000Z</time>
      </trkpt>
      <trkpt lat="45.39878" lon="2.37427">
        <ele>638.1</ele>
        <time>2022-06-14T11:55:57.000Z</time>
      </trkpt>
      <trkpt lat="45.39879" lon="2.37427">
        <ele>638.3</ele>
        <time>2022-06-14T11:55:58.000Z</time>
      </trkpt>
      <trkpt lat="45.39879" lon="2.37426">
        <ele>638.4</ele>
        <time>2022-06-14T11:55:59.000Z</time>
      </trkpt>
      <trkpt lat="45.39879" lon="2.37426">
        <ele>638.5</ele>
        <time>2022-06-14T11:57:01.000Z</time>
      </trkpt>
      <trkpt lat="45.39879" lon="2.37427">
        <ele>638.5</ele>
        <time>2022-06-14T11:57:13.000Z</time>
      </trkpt>
      <trkpt lat="45.3988" lon="2.37427">
        <ele>638.6</ele>
        <time>2022-06-14T11:57:14.000Z</time>
      </trkpt>
      <trkpt lat="45.3988" lon="2.37428">
        <ele>638.7</ele>
        <time>2022-06-14T11:57:15.000Z</time>
      </trkpt>
      <trkpt lat="45.39881" lon="2.37429">
        <ele>638.7</ele>
        <time>2022-06-14T11:57:16.000Z</time>
      </trkpt>
      <trkpt lat="45.39881" lon="2.3743">
        <ele>638.8</ele>
        <time>2022-06-14T11:57:17.000Z</time>
      </trkpt>
      <trkpt lat="45.39882" lon="2.37432">
        <ele>638.9</ele>
        <time>2022-06-14T11:57:18.000Z</time>
      </trkpt>
      <trkpt lat="45.39883" lon="2.37433">
        <ele>639</ele>
        <time>2022-06-14T11:57:19.000Z</time>
      </trkpt>
      <trkpt lat="45.39883" lon="2.37434">
        <ele>639.1</ele>
        <time>2022-06-14T11:57:20.000Z</time>
      </trkpt>
      <trkpt lat="45.39884" lon="2.37436">
        <ele>639.1</ele>
        <time>2022-06-14T11:57:21.000Z</time>
      </trkpt>
      <trkpt lat="45.39884" lon="2.37437">
        <ele>639.2</ele>
        <time>2022-06-14T11:57:22.000Z</time>
      </trkpt>
      <trkpt lat="45.39885" lon="2.37439">
        <ele>639.2</ele>
        <time>2022-06-14T11:57:23.000Z</time>
      </trkpt>
      <trkpt lat="45.39885" lon="2.3744">
        <ele>639.3</ele>
        <time>2022-06-14T11:57:24.000Z</time>
      </trkpt>
      <trkpt lat="45.39886" lon="2.37442">
        <ele>639.4</ele>
        <time>2022-06-14T11:57:25.000Z</time>
      </trkpt>
      <trkpt lat="45.39887" lon="2.37443">
        <ele>639.5</ele>
        <time>2022-06-14T11:57:26.000Z</time>
      </trkpt>
      <trkpt lat="45.39887" lon="2.37445">
        <ele>639.7</ele>
        <time>2022-06-14T11:57:27.000Z</time>
      </trkpt>
      <trkpt lat="45.39888" lon="2.37446">
        <ele>639.8</ele>
        <time>2022-06-14T11:57:28.000Z</time>
      </trkpt>
      <trkpt lat="45.39889" lon="2.37448">
        <ele>640</ele>
        <time>2022-06-14T11:57:29.000Z</time>
      </trkpt>
      <trkpt lat="45.3989" lon="2.37449">
        <ele>640.1</ele>
        <time>2022-06-14T11:57:30.000Z</time>
      </trkpt>
      <trkpt lat="45.39891" lon="2.3745">
        <ele>640.3</ele>
        <time>2022-06-14T11:57:31.000Z</time>
      </trkpt>
      <trkpt lat="45.39892" lon="2.37452">
        <ele>640.5</ele>
        <time>2022-06-14T11:57:32.000Z</time>
      </trkpt>
      <trkpt lat="45.39893" lon="2.37453">
        <ele>640.6</ele>
        <time>2022-06-14T11:57:33.000Z</time>
      </trkpt>
      <trkpt lat="45.39894" lon="2.37455">
        <ele>640.8</ele>
        <time>2022-06-14T11:57:34.000Z</time>
      </trkpt>
      <trkpt lat="45.39894" lon="2.37456">
        <ele>640.9</ele>
        <time>2022-06-14T11:57:35.000Z</time>
      </trkpt>
      <trkpt lat="45.39895" lon="2.37458">
        <ele>641.1</ele>
        <time>2022-06-14T11:57:36.000Z</time>
      </trkpt>
      <trkpt lat="45.39896" lon="2.37459">
        <ele>641.2</ele>
        <time>2022-06-14T11:57:37.000Z</time>
      </trkpt>
      <trkpt lat="45.39897" lon="2.37461">
        <ele>641.3</ele>
        <time>2022-06-14T11:57:38.000Z</time>
      </trkpt>
      <trkpt lat="45.39898" lon="2.37462">
        <ele>641.5</ele>
        <time>2022-06-14T11:57:39.000Z</time>
      </trkpt>
      <trkpt lat="45.39898" lon="2.37464">
        <ele>641.6</ele>
        <time>2022-06-14T11:57:40.000Z</time>
      </trkpt>
      <trkpt lat="45.39899" lon="2.37465">
        <ele>641.7</ele>
        <time>2022-06-14T11:57:41.000Z</time>
      </trkpt>
      <trkpt lat="45.399" lon="2.37467">
        <ele>641.8</ele>
        <time>2022-06-14T11:57:42.000Z</time>
      </trkpt>
      <trkpt lat="45.39901" lon="2.37469">
        <ele>642</ele>
        <time>2022-06-14T11:57:43.000Z</time>
      </trkpt>
      <trkpt lat="45.39901" lon="2.3747">
        <ele>642.1</ele>
        <time>2022-06-14T11:57:44.000Z</time>
      </trkpt>
      <trkpt lat="45.39902" lon="2.37472">
        <ele>642.2</ele>
        <time>2022-06-14T11:57:45.000Z</time>
      </trkpt>
      <trkpt lat="45.39903" lon="2.37474">
        <ele>642.3</ele>
        <time>2022-06-14T11:57:46.000Z</time>
      </trkpt>
      <trkpt lat="45.39903" lon="2.37475">
        <ele>642.4</ele>
        <time>2022-06-14T11:57:47.000Z</time>
      </trkpt>
      <trkpt lat="45.39904" lon="2.37477">
        <ele>642.5</ele>
        <time>2022-06-14T11:57:48.000Z</time>
      </trkpt>
      <trkpt lat="45.39905" lon="2.37479">
        <ele>642.6</ele>
        <time>2022-06-14T11:57:49.000Z</time>
      </trkpt>
      <trkpt lat="45.39905" lon="2.3748">
        <ele>642.7</ele>
        <time>2022-06-14T11:57:50.000Z</time>
      </trkpt>
      <trkpt lat="45.39906" lon="2.37482">
        <ele>642.8</ele>
        <time>2022-06-14T11:57:51.000Z</time>
      </trkpt>
      <trkpt lat="45.39907" lon="2.37484">
        <ele>643</ele>
        <time>2022-06-14T11:57:52.000Z</time>
      </trkpt>
      <trkpt lat="45.39907" lon="2.37485">
        <ele>643</ele>
        <time>2022-06-14T11:57:53.000Z</time>
      </trkpt>
      <trkpt lat="45.39908" lon="2.37487">
        <ele>643.1</ele>
        <time>2022-06-14T11:57:54.000Z</time>
      </trkpt>
      <trkpt lat="45.39909" lon="2.37489">
        <ele>643.2</ele>
        <time>2022-06-14T11:57:55.000Z</time>
      </trkpt>
      <trkpt lat="45.3991" lon="2.37491">
        <ele>643.4</ele>
        <time>2022-06-14T11:57:56.000Z</time>
      </trkpt>
      <trkpt lat="45.3991" lon="2.37492">
        <ele>643.5</ele>
        <time>2022-06-14T11:57:57.000Z</time>
      </trkpt>
      <trkpt lat="45.39911" lon="2.37494">
        <ele>643.6</ele>
        <time>2022-06-14T11:57:58.000Z</time>
      </trkpt>
      <trkpt lat="45.39912" lon="2.37496">
        <ele>643.6</ele>
        <time>2022-06-14T11:57:59.000Z</time>
      </trkpt>
      <trkpt lat="45.39912" lon="2.37498">
        <ele>643.8</ele>
        <time>2022-06-14T11:58:00.000Z</time>
      </trkpt>
      <trkpt lat="45.39913" lon="2.37499">
        <ele>643.8</ele>
        <time>2022-06-14T11:58:01.000Z</time>
      </trkpt>
      <trkpt lat="45.39913" lon="2.37501">
        <ele>643.9</ele>
        <time>2022-06-14T11:58:02.000Z</time>
      </trkpt>
      <trkpt lat="45.39914" lon="2.37503">
        <ele>643.8</ele>
        <time>2022-06-14T11:58:03.000Z</time>
      </trkpt>
      <trkpt lat="45.39914" lon="2.37504">
        <ele>643.8</ele>
        <time>2022-06-14T11:58:04.000Z</time>
      </trkpt>
      <trkpt lat="45.39915" lon="2.37506">
        <ele>643.8</ele>
        <time>2022-06-14T11:58:05.000Z</time>
      </trkpt>
      <trkpt lat="45.39916" lon="2.37508">
        <ele>643.8</ele>
        <time>2022-06-14T11:58:06.000Z</time>
      </trkpt>
      <trkpt lat="45.39916" lon="2.37509">
        <ele>643.8</ele>
        <time>2022-06-14T11:58:07.000Z</time>
      </trkpt>
      <trkpt lat="45.39917" lon="2.37511">
        <ele>643.8</ele>
        <time>2022-06-14T11:58:08.000Z</time>
      </trkpt>
      <trkpt lat="45.39917" lon="2.37512">
        <ele>643.7</ele>
        <time>2022-06-14T11:58:09.000Z</time>
      </trkpt>
      <trkpt lat="45.39918" lon="2.37514">
        <ele>643.7</ele>
        <time>2022-06-14T11:58:10.000Z</time>
      </trkpt>
      <trkpt lat="45.39918" lon="2.37516">
        <ele>643.7</ele>
        <time>2022-06-14T11:58:11.000Z</time>
      </trkpt>
      <trkpt lat="45.39919" lon="2.37517">
        <ele>643.6</ele>
        <time>2022-06-14T11:58:12.000Z</time>
      </trkpt>
      <trkpt lat="45.39919" lon="2.37519">
        <ele>643.6</ele>
        <time>2022-06-14T11:58:13.000Z</time>
      </trkpt>
      <trkpt lat="45.3992" lon="2.3752">
        <ele>643.6</ele>
        <time>2022-06-14T11:58:14.000Z</time>
      </trkpt>
      <trkpt lat="45.3992" lon="2.37522">
        <ele>643.5</ele>
        <time>2022-06-14T11:58:15.000Z</time>
      </trkpt>
      <trkpt lat="45.39921" lon="2.37523">
        <ele>643.5</ele>
        <time>2022-06-14T11:58:16.000Z</time>
      </trkpt>
      <trkpt lat="45.39922" lon="2.37525">
        <ele>643.5</ele>
        <time>2022-06-14T11:58:17.000Z</time>
      </trkpt>
      <trkpt lat="45.39922" lon="2.37527">
        <ele>643.4</ele>
        <time>2022-06-14T11:58:18.000Z</time>
      </trkpt>
      <trkpt lat="45.39923" lon="2.37528">
        <ele>643.4</ele>
        <time>2022-06-14T11:58:19.000Z</time>
      </trkpt>
      <trkpt lat="45.39923" lon="2.3753">
        <ele>643.3</ele>
        <time>2022-06-14T11:58:20.000Z</time>
      </trkpt>
      <trkpt lat="45.39924" lon="2.37531">
        <ele>643.2</ele>
        <time>2022-06-14T11:58:21.000Z</time>
      </trkpt>
      <trkpt lat="45.39924" lon="2.37533">
        <ele>643.2</ele>
        <time>2022-06-14T11:58:22.000Z</time>
      </trkpt>
      <trkpt lat="45.39925" lon="2.37535">
        <ele>643.1</ele>
        <time>2022-06-14T11:58:23.000Z</time>
      </trkpt>
      <trkpt lat="45.39925" lon="2.37536">
        <ele>643.1</ele>
        <time>2022-06-14T11:58:24.000Z</time>
      </trkpt>
      <trkpt lat="45.39926" lon="2.37538">
        <ele>643</ele>
        <time>2022-06-14T11:58:25.000Z</time>
      </trkpt>
      <trkpt lat="45.39926" lon="2.37539">
        <ele>642.9</ele>
        <time>2022-06-14T11:58:26.000Z</time>
      </trkpt>
      <trkpt lat="45.39927" lon="2.37541">
        <ele>642.8</ele>
        <time>2022-06-14T11:58:27.000Z</time>
      </trkpt>
      <trkpt lat="45.39927" lon="2.37543">
        <ele>642.7</ele>
        <time>2022-06-14T11:58:28.000Z</time>
      </trkpt>
      <trkpt lat="45.39927" lon="2.37544">
        <ele>642.6</ele>
        <time>2022-06-14T11:58:29.000Z</time>
      </trkpt>
      <trkpt lat="45.39928" lon="2.37546">
        <ele>642.6</ele>
        <time>2022-06-14T11:58:30.000Z</time>
      </trkpt>
      <trkpt lat="45.39928" lon="2.37548">
        <ele>642.5</ele>
        <time>2022-06-14T11:58:31.000Z</time>
      </trkpt>
      <trkpt lat="45.39929" lon="2.37549">
        <ele>642.4</ele>
        <time>2022-06-14T11:58:32.000Z</time>
      </trkpt>
      <trkpt lat="45.39929" lon="2.37551">
        <ele>642.3</ele>
        <time>2022-06-14T11:58:33.000Z</time>
      </trkpt>
      <trkpt lat="45.3993" lon="2.37553">
        <ele>642.3</ele>
        <time>2022-06-14T11:58:34.000Z</time>
      </trkpt>
      <trkpt lat="45.39931" lon="2.37554">
        <ele>642.2</ele>
        <time>2022-06-14T11:58:35.000Z</time>
      </trkpt>
      <trkpt lat="45.39931" lon="2.37556">
        <ele>642.1</ele>
        <time>2022-06-14T11:58:36.000Z</time>
      </trkpt>
      <trkpt lat="45.39932" lon="2.37558">
        <ele>642</ele>
        <time>2022-06-14T11:58:37.000Z</time>
      </trkpt>
      <trkpt lat="45.39932" lon="2.37559">
        <ele>642</ele>
        <time>2022-06-14T11:58:38.000Z</time>
      </trkpt>
      <trkpt lat="45.39933" lon="2.37561">
        <ele>641.9</ele>
        <time>2022-06-14T11:58:39.000Z</time>
      </trkpt>
      <trkpt lat="45.39933" lon="2.37563">
        <ele>641.8</ele>
        <time>2022-06-14T11:58:40.000Z</time>
      </trkpt>
      <trkpt lat="45.39934" lon="2.37564">
        <ele>641.8</ele>
        <time>2022-06-14T11:58:41.000Z</time>
      </trkpt>
      <trkpt lat="45.39935" lon="2.37566">
        <ele>641.7</ele>
        <time>2022-06-14T11:58:42.000Z</time>
      </trkpt>
      <trkpt lat="45.39935" lon="2.37568">
        <ele>641.6</ele>
        <time>2022-06-14T11:58:43.000Z</time>
      </trkpt>
      <trkpt lat="45.39936" lon="2.37569">
        <ele>641.6</ele>
        <time>2022-06-14T11:58:44.000Z</time>
      </trkpt>
      <trkpt lat="45.39936" lon="2.37571">
        <ele>641.5</ele>
        <time>2022-06-14T11:58:45.000Z</time>
      </trkpt>
      <trkpt lat="45.39937" lon="2.37573">
        <ele>641.4</ele>
        <time>2022-06-14T11:58:46.000Z</time>
      </trkpt>
      <trkpt lat="45.39938" lon="2.37574">
        <ele>641.4</ele>
        <time>2022-06-14T11:58:47.000Z</time>
      </trkpt>
      <trkpt lat="45.39938" lon="2.37576">
        <ele>641.3</ele>
        <time>2022-06-14T11:58:48.000Z</time>
      </trkpt>
      <trkpt lat="45.39939" lon="2.37577">
        <ele>641.3</ele>
        <time>2022-06-14T11:58:49.000Z</time>
      </trkpt>
      <trkpt lat="45.3994" lon="2.37578">
        <ele>641.4</ele>
        <time>2022-06-14T11:58:50.000Z</time>
      </trkpt>
      <trkpt lat="45.39941" lon="2.37579">
        <ele>641.6</ele>
        <time>2022-06-14T11:58:51.000Z</time>
      </trkpt>
      <trkpt lat="45.39942" lon="2.37579">
        <ele>641.7</ele>
        <time>2022-06-14T11:58:52.000Z</time>
      </trkpt>
      <trkpt lat="45.39943" lon="2.37579">
        <ele>641.9</ele>
        <time>2022-06-14T11:58:53.000Z</time>
      </trkpt>
      <trkpt lat="45.39944" lon="2.37579">
        <ele>642.2</ele>
        <time>2022-06-14T11:58:54.000Z</time>
      </trkpt>
      <trkpt lat="45.39945" lon="2.37579">
        <ele>642.4</ele>
        <time>2022-06-14T11:58:55.000Z</time>
      </trkpt>
      <trkpt lat="45.39946" lon="2.37578">
        <ele>642.7</ele>
        <time>2022-06-14T11:58:56.000Z</time>
      </trkpt>
      <trkpt lat="45.39947" lon="2.37577">
        <ele>643</ele>
        <time>2022-06-14T11:58:57.000Z</time>
      </trkpt>
      <trkpt lat="45.39948" lon="2.37576">
        <ele>643.2</ele>
        <time>2022-06-14T11:58:58.000Z</time>
      </trkpt>
      <trkpt lat="45.39949" lon="2.37576">
        <ele>643.5</ele>
        <time>2022-06-14T11:58:59.000Z</time>
      </trkpt>
      <trkpt lat="45.39949" lon="2.37575">
        <ele>643.7</ele>
        <time>2022-06-14T11:59:00.000Z</time>
      </trkpt>
      <trkpt lat="45.3995" lon="2.37574">
        <ele>643.9</ele>
        <time>2022-06-14T11:59:01.000Z</time>
      </trkpt>
      <trkpt lat="45.39951" lon="2.37573">
        <ele>644.3</ele>
        <time>2022-06-14T11:59:03.000Z</time>
      </trkpt>
      <trkpt lat="45.39952" lon="2.37573">
        <ele>644.5</ele>
        <time>2022-06-14T11:59:04.000Z</time>
      </trkpt>
      <trkpt lat="45.39953" lon="2.37573">
        <ele>644.6</ele>
        <time>2022-06-14T11:59:05.000Z</time>
      </trkpt>
      <trkpt lat="45.39954" lon="2.37574">
        <ele>644.9</ele>
        <time>2022-06-14T11:59:07.000Z</time>
      </trkpt>
      <trkpt lat="45.39955" lon="2.37574">
        <ele>645.1</ele>
        <time>2022-06-14T11:59:08.000Z</time>
      </trkpt>
      <trkpt lat="45.39956" lon="2.37574">
        <ele>645.2</ele>
        <time>2022-06-14T11:59:09.000Z</time>
      </trkpt>
      <trkpt lat="45.39957" lon="2.37574">
        <ele>645.4</ele>
        <time>2022-06-14T11:59:10.000Z</time>
      </trkpt>
      <trkpt lat="45.39958" lon="2.37574">
        <ele>645.6</ele>
        <time>2022-06-14T11:59:11.000Z</time>
      </trkpt>
      <trkpt lat="45.39959" lon="2.37574">
        <ele>646</ele>
        <time>2022-06-14T11:59:13.000Z</time>
      </trkpt>
      <trkpt lat="45.3996" lon="2.37573">
        <ele>646.2</ele>
        <time>2022-06-14T11:59:14.000Z</time>
      </trkpt>
      <trkpt lat="45.39961" lon="2.37573">
        <ele>646.4</ele>
        <time>2022-06-14T11:59:15.000Z</time>
      </trkpt>
      <trkpt lat="45.39961" lon="2.37572">
        <ele>646.7</ele>
        <time>2022-06-14T11:59:16.000Z</time>
      </trkpt>
      <trkpt lat="45.39962" lon="2.37571">
        <ele>647</ele>
        <time>2022-06-14T11:59:17.000Z</time>
      </trkpt>
      <trkpt lat="45.39963" lon="2.3757">
        <ele>647.3</ele>
        <time>2022-06-14T11:59:18.000Z</time>
      </trkpt>
      <trkpt lat="45.39964" lon="2.37569">
        <ele>647.6</ele>
        <time>2022-06-14T11:59:19.000Z</time>
      </trkpt>
      <trkpt lat="45.39965" lon="2.37568">
        <ele>647.9</ele>
        <time>2022-06-14T11:59:20.000Z</time>
      </trkpt>
      <trkpt lat="45.39965" lon="2.37567">
        <ele>648.2</ele>
        <time>2022-06-14T11:59:21.000Z</time>
      </trkpt>
      <trkpt lat="45.39966" lon="2.37566">
        <ele>648.5</ele>
        <time>2022-06-14T11:59:22.000Z</time>
      </trkpt>
      <trkpt lat="45.39967" lon="2.37565">
        <ele>648.9</ele>
        <time>2022-06-14T11:59:23.000Z</time>
      </trkpt>
      <trkpt lat="45.39968" lon="2.37564">
        <ele>649.2</ele>
        <time>2022-06-14T11:59:24.000Z</time>
      </trkpt>
      <trkpt lat="45.39969" lon="2.37563">
        <ele>649.5</ele>
        <time>2022-06-14T11:59:25.000Z</time>
      </trkpt>
      <trkpt lat="45.3997" lon="2.37562">
        <ele>649.8</ele>
        <time>2022-06-14T11:59:26.000Z</time>
      </trkpt>
      <trkpt lat="45.39971" lon="2.37562">
        <ele>650</ele>
        <time>2022-06-14T11:59:27.000Z</time>
      </trkpt>
      <trkpt lat="45.39972" lon="2.37561">
        <ele>650.3</ele>
        <time>2022-06-14T11:59:28.000Z</time>
      </trkpt>
      <trkpt lat="45.39973" lon="2.37561">
        <ele>650.6</ele>
        <time>2022-06-14T11:59:29.000Z</time>
      </trkpt>
      <trkpt lat="45.39973" lon="2.3756">
        <ele>650.8</ele>
        <time>2022-06-14T11:59:30.000Z</time>
      </trkpt>
      <trkpt lat="45.39974" lon="2.3756">
        <ele>651</ele>
        <time>2022-06-14T11:59:31.000Z</time>
      </trkpt>
      <trkpt lat="45.39975" lon="2.3756">
        <ele>651.3</ele>
        <time>2022-06-14T11:59:32.000Z</time>
      </trkpt>
      <trkpt lat="45.39976" lon="2.3756">
        <ele>651.5</ele>
        <time>2022-06-14T11:59:33.000Z</time>
      </trkpt>
      <trkpt lat="45.39977" lon="2.3756">
        <ele>651.8</ele>
        <time>2022-06-14T11:59:34.000Z</time>
      </trkpt>
      <trkpt lat="45.39978" lon="2.3756">
        <ele>652</ele>
        <time>2022-06-14T11:59:35.000Z</time>
      </trkpt>
      <trkpt lat="45.39979" lon="2.37559">
        <ele>652.3</ele>
        <time>2022-06-14T11:59:36.000Z</time>
      </trkpt>
      <trkpt lat="45.3998" lon="2.37559">
        <ele>652.6</ele>
        <time>2022-06-14T11:59:37.000Z</time>
      </trkpt>
      <trkpt lat="45.39981" lon="2.37558">
        <ele>652.9</ele>
        <time>2022-06-14T11:59:38.000Z</time>
      </trkpt>
      <trkpt lat="45.39982" lon="2.37557">
        <ele>653.2</ele>
        <time>2022-06-14T11:59:39.000Z</time>
      </trkpt>
      <trkpt lat="45.39983" lon="2.37557">
        <ele>653.5</ele>
        <time>2022-06-14T11:59:40.000Z</time>
      </trkpt>
      <trkpt lat="45.39984" lon="2.37556">
        <ele>653.8</ele>
        <time>2022-06-14T11:59:41.000Z</time>
      </trkpt>
      <trkpt lat="45.39985" lon="2.37555">
        <ele>654.2</ele>
        <time>2022-06-14T11:59:42.000Z</time>
      </trkpt>
      <trkpt lat="45.39986" lon="2.37554">
        <ele>654.5</ele>
        <time>2022-06-14T11:59:43.000Z</time>
      </trkpt>
      <trkpt lat="45.39987" lon="2.37553">
        <ele>654.9</ele>
        <time>2022-06-14T11:59:44.000Z</time>
      </trkpt>
      <trkpt lat="45.39988" lon="2.37552">
        <ele>655.3</ele>
        <time>2022-06-14T11:59:45.000Z</time>
      </trkpt>
      <trkpt lat="45.39989" lon="2.37551">
        <ele>655.6</ele>
        <time>2022-06-14T11:59:46.000Z</time>
      </trkpt>
      <trkpt lat="45.3999" lon="2.3755">
        <ele>656</ele>
        <time>2022-06-14T11:59:47.000Z</time>
      </trkpt>
      <trkpt lat="45.39991" lon="2.37549">
        <ele>656.4</ele>
        <time>2022-06-14T11:59:48.000Z</time>
      </trkpt>
      <trkpt lat="45.39992" lon="2.37548">
        <ele>656.7</ele>
        <time>2022-06-14T11:59:49.000Z</time>
      </trkpt>
      <trkpt lat="45.39993" lon="2.37547">
        <ele>657</ele>
        <time>2022-06-14T11:59:50.000Z</time>
      </trkpt>
      <trkpt lat="45.39994" lon="2.37546">
        <ele>657.3</ele>
        <time>2022-06-14T11:59:51.000Z</time>
      </trkpt>
      <trkpt lat="45.39995" lon="2.37545">
        <ele>657.9</ele>
        <time>2022-06-14T11:59:53.000Z</time>
      </trkpt>
      <trkpt lat="45.39996" lon="2.37545">
        <ele>658.1</ele>
        <time>2022-06-14T11:59:54.000Z</time>
      </trkpt>
      <trkpt lat="45.39997" lon="2.37545">
        <ele>658.4</ele>
        <time>2022-06-14T11:59:55.000Z</time>
      </trkpt>
      <trkpt lat="45.39998" lon="2.37545">
        <ele>658.6</ele>
        <time>2022-06-14T11:59:56.000Z</time>
      </trkpt>
      <trkpt lat="45.39999" lon="2.37545">
        <ele>658.9</ele>
        <time>2022-06-14T11:59:57.000Z</time>
      </trkpt>
      <trkpt lat="45.4" lon="2.37545">
        <ele>659.1</ele>
        <time>2022-06-14T11:59:58.000Z</time>
      </trkpt>
      <trkpt lat="45.40001" lon="2.37545">
        <ele>659.1</ele>
        <time>2022-06-14T11:59:59.000Z</time>
      </trkpt>
      <trkpt lat="45.40002" lon="2.37545">
        <ele>659.2</ele>
        <time>2022-06-14T12:00:00.000Z</time>
      </trkpt>
      <trkpt lat="45.40003" lon="2.37545">
        <ele>659.2</ele>
        <time>2022-06-14T12:00:01.000Z</time>
      </trkpt>
      <trkpt lat="45.40004" lon="2.37545">
        <ele>659.3</ele>
        <time>2022-06-14T12:00:02.000Z</time>
      </trkpt>
      <trkpt lat="45.40005" lon="2.37546">
        <ele>659.3</ele>
        <time>2022-06-14T12:00:03.000Z</time>
      </trkpt>
      <trkpt lat="45.40006" lon="2.37546">
        <ele>659.3</ele>
        <time>2022-06-14T12:00:04.000Z</time>
      </trkpt>
      <trkpt lat="45.40008" lon="2.37546">
        <ele>659.4</ele>
        <time>2022-06-14T12:00:05.000Z</time>
      </trkpt>
      <trkpt lat="45.40009" lon="2.37547">
        <ele>659.4</ele>
        <time>2022-06-14T12:00:06.000Z</time>
      </trkpt>
      <trkpt lat="45.4001" lon="2.37547">
        <ele>659.5</ele>
        <time>2022-06-14T12:00:07.000Z</time>
      </trkpt>
      <trkpt lat="45.40011" lon="2.37547">
        <ele>659.5</ele>
        <time>2022-06-14T12:00:08.000Z</time>
      </trkpt>
      <trkpt lat="45.40012" lon="2.37547">
        <ele>659.6</ele>
        <time>2022-06-14T12:00:09.000Z</time>
      </trkpt>
      <trkpt lat="45.40013" lon="2.37547">
        <ele>659.7</ele>
        <time>2022-06-14T12:00:11.000Z</time>
      </trkpt>
      <trkpt lat="45.40014" lon="2.37547">
        <ele>659.8</ele>
        <time>2022-06-14T12:00:12.000Z</time>
      </trkpt>
      <trkpt lat="45.40015" lon="2.37547">
        <ele>659.9</ele>
        <time>2022-06-14T12:00:14.000Z</time>
      </trkpt>
      <trkpt lat="45.40015" lon="2.37547">
        <ele>659.9</ele>
        <time>2022-06-14T12:00:23.000Z</time>
      </trkpt>
      <trkpt lat="45.40016" lon="2.37546">
        <ele>660</ele>
        <time>2022-06-14T12:00:24.000Z</time>
      </trkpt>
      <trkpt lat="45.40017" lon="2.37546">
        <ele>660.1</ele>
        <time>2022-06-14T12:00:25.000Z</time>
      </trkpt>
      <trkpt lat="45.40018" lon="2.37546">
        <ele>660.3</ele>
        <time>2022-06-14T12:00:26.000Z</time>
      </trkpt>
      <trkpt lat="45.40019" lon="2.37545">
        <ele>660.4</ele>
        <time>2022-06-14T12:00:27.000Z</time>
      </trkpt>
      <trkpt lat="45.4002" lon="2.37545">
        <ele>660.6</ele>
        <time>2022-06-14T12:00:28.000Z</time>
      </trkpt>
      <trkpt lat="45.40021" lon="2.37545">
        <ele>660.7</ele>
        <time>2022-06-14T12:00:29.000Z</time>
      </trkpt>
      <trkpt lat="45.40022" lon="2.37544">
        <ele>660.8</ele>
        <time>2022-06-14T12:00:30.000Z</time>
      </trkpt>
      <trkpt lat="45.40023" lon="2.37543">
        <ele>661</ele>
        <time>2022-06-14T12:00:31.000Z</time>
      </trkpt>
      <trkpt lat="45.40024" lon="2.37543">
        <ele>661.2</ele>
        <time>2022-06-14T12:00:32.000Z</time>
      </trkpt>
      <trkpt lat="45.40025" lon="2.37542">
        <ele>661.4</ele>
        <time>2022-06-14T12:00:33.000Z</time>
      </trkpt>
      <trkpt lat="45.40026" lon="2.37541">
        <ele>661.7</ele>
        <time>2022-06-14T12:00:34.000Z</time>
      </trkpt>
      <trkpt lat="45.40027" lon="2.3754">
        <ele>661.9</ele>
        <time>2022-06-14T12:00:35.000Z</time>
      </trkpt>
      <trkpt lat="45.40028" lon="2.37538">
        <ele>662.2</ele>
        <time>2022-06-14T12:00:36.000Z</time>
      </trkpt>
      <trkpt lat="45.40029" lon="2.37537">
        <ele>662.5</ele>
        <time>2022-06-14T12:00:37.000Z</time>
      </trkpt>
      <trkpt lat="45.40029" lon="2.37535">
        <ele>662.8</ele>
        <time>2022-06-14T12:00:38.000Z</time>
      </trkpt>
      <trkpt lat="45.4003" lon="2.37534">
        <ele>663.1</ele>
        <time>2022-06-14T12:00:39.000Z</time>
      </trkpt>
      <trkpt lat="45.40031" lon="2.37532">
        <ele>663.4</ele>
        <time>2022-06-14T12:00:40.000Z</time>
      </trkpt>
      <trkpt lat="45.40031" lon="2.37531">
        <ele>663.6</ele>
        <time>2022-06-14T12:00:41.000Z</time>
      </trkpt>
      <trkpt lat="45.40031" lon="2.3753">
        <ele>663.9</ele>
        <time>2022-06-14T12:00:42.000Z</time>
      </trkpt>
      <trkpt lat="45.40032" lon="2.37529">
        <ele>664.1</ele>
        <time>2022-06-14T12:00:43.000Z</time>
      </trkpt>
      <trkpt lat="45.40032" lon="2.37528">
        <ele>664.3</ele>
        <time>2022-06-14T12:00:44.000Z</time>
      </trkpt>
      <trkpt lat="45.40032" lon="2.37527">
        <ele>664.4</ele>
        <time>2022-06-14T12:00:45.000Z</time>
      </trkpt>
      <trkpt lat="45.40032" lon="2.37526">
        <ele>664.6</ele>
        <time>2022-06-14T12:00:46.000Z</time>
      </trkpt>
      <trkpt lat="45.40033" lon="2.37524">
        <ele>664.9</ele>
        <time>2022-06-14T12:00:47.000Z</time>
      </trkpt>
      <trkpt lat="45.40033" lon="2.37523">
        <ele>665.1</ele>
        <time>2022-06-14T12:00:48.000Z</time>
      </trkpt>
      <trkpt lat="45.40033" lon="2.37521">
        <ele>665.3</ele>
        <time>2022-06-14T12:00:49.000Z</time>
      </trkpt>
      <trkpt lat="45.40033" lon="2.3752">
        <ele>665.6</ele>
        <time>2022-06-14T12:00:50.000Z</time>
      </trkpt>
      <trkpt lat="45.40033" lon="2.37518">
        <ele>665.8</ele>
        <time>2022-06-14T12:00:51.000Z</time>
      </trkpt>
      <trkpt lat="45.40033" lon="2.37517">
        <ele>666</ele>
        <time>2022-06-14T12:00:52.000Z</time>
      </trkpt>
      <trkpt lat="45.40033" lon="2.37516">
        <ele>666.3</ele>
        <time>2022-06-14T12:00:53.000Z</time>
      </trkpt>
      <trkpt lat="45.40034" lon="2.37515">
        <ele>666.5</ele>
        <time>2022-06-14T12:00:54.000Z</time>
      </trkpt>
      <trkpt lat="45.40034" lon="2.37513">
        <ele>666.7</ele>
        <time>2022-06-14T12:00:55.000Z</time>
      </trkpt>
      <trkpt lat="45.40034" lon="2.37512">
        <ele>666.9</ele>
        <time>2022-06-14T12:00:56.000Z</time>
      </trkpt>
      <trkpt lat="45.40034" lon="2.37511">
        <ele>667.1</ele>
        <time>2022-06-14T12:00:57.000Z</time>
      </trkpt>
      <trkpt lat="45.40034" lon="2.3751">
        <ele>667.3</ele>
        <time>2022-06-14T12:00:58.000Z</time>
      </trkpt>
      <trkpt lat="45.40035" lon="2.37509">
        <ele>667.5</ele>
        <time>2022-06-14T12:00:59.000Z</time>
      </trkpt>
      <trkpt lat="45.40035" lon="2.37507">
        <ele>667.7</ele>
        <time>2022-06-14T12:01:00.000Z</time>
      </trkpt>
      <trkpt lat="45.40035" lon="2.37506">
        <ele>667.9</ele>
        <time>2022-06-14T12:01:01.000Z</time>
      </trkpt>
      <trkpt lat="45.40035" lon="2.37505">
        <ele>668.1</ele>
        <time>2022-06-14T12:01:02.000Z</time>
      </trkpt>
      <trkpt lat="45.40036" lon="2.37504">
        <ele>668.4</ele>
        <time>2022-06-14T12:01:04.000Z</time>
      </trkpt>
      <trkpt lat="45.40036" lon="2.37503">
        <ele>668.5</ele>
        <time>2022-06-14T12:01:05.000Z</time>
      </trkpt>
      <trkpt lat="45.40036" lon="2.37502">
        <ele>668.7</ele>
        <time>2022-06-14T12:01:06.000Z</time>
      </trkpt>
      <trkpt lat="45.40036" lon="2.37501">
        <ele>668.8</ele>
        <time>2022-06-14T12:01:07.000Z</time>
      </trkpt>
      <trkpt lat="45.40037" lon="2.375">
        <ele>669</ele>
        <time>2022-06-14T12:01:09.000Z</time>
      </trkpt>
      <trkpt lat="45.40037" lon="2.37499">
        <ele>669.2</ele>
        <time>2022-06-14T12:01:11.000Z</time>
      </trkpt>
      <trkpt lat="45.40037" lon="2.37498">
        <ele>669.2</ele>
        <time>2022-06-14T12:01:12.000Z</time>
      </trkpt>
      <trkpt lat="45.40037" lon="2.37497">
        <ele>669.3</ele>
        <time>2022-06-14T12:01:13.000Z</time>
      </trkpt>
      <trkpt lat="45.40038" lon="2.37496">
        <ele>669.4</ele>
        <time>2022-06-14T12:01:14.000Z</time>
      </trkpt>
      <trkpt lat="45.40038" lon="2.37495">
        <ele>669.4</ele>
        <time>2022-06-14T12:01:15.000Z</time>
      </trkpt>
      <trkpt lat="45.40038" lon="2.37493">
        <ele>669.5</ele>
        <time>2022-06-14T12:01:16.000Z</time>
      </trkpt>
      <trkpt lat="45.40038" lon="2.37492">
        <ele>669.6</ele>
        <time>2022-06-14T12:01:17.000Z</time>
      </trkpt>
      <trkpt lat="45.40038" lon="2.37491">
        <ele>669.6</ele>
        <time>2022-06-14T12:01:18.000Z</time>
      </trkpt>
      <trkpt lat="45.40037" lon="2.37489">
        <ele>669.7</ele>
        <time>2022-06-14T12:01:19.000Z</time>
      </trkpt>
      <trkpt lat="45.40037" lon="2.37488">
        <ele>669.8</ele>
        <time>2022-06-14T12:01:20.000Z</time>
      </trkpt>
      <trkpt lat="45.40037" lon="2.37486">
        <ele>669.8</ele>
        <time>2022-06-14T12:01:21.000Z</time>
      </trkpt>
      <trkpt lat="45.40037" lon="2.37485">
        <ele>669.9</ele>
        <time>2022-06-14T12:01:22.000Z</time>
      </trkpt>
      <trkpt lat="45.40037" lon="2.37483">
        <ele>670</ele>
        <time>2022-06-14T12:01:23.000Z</time>
      </trkpt>
      <trkpt lat="45.40036" lon="2.37481">
        <ele>670</ele>
        <time>2022-06-14T12:01:24.000Z</time>
      </trkpt>
      <trkpt lat="45.40036" lon="2.3748">
        <ele>670.1</ele>
        <time>2022-06-14T12:01:25.000Z</time>
      </trkpt>
      <trkpt lat="45.40036" lon="2.37478">
        <ele>670.1</ele>
        <time>2022-06-14T12:01:26.000Z</time>
      </trkpt>
      <trkpt lat="45.40036" lon="2.37477">
        <ele>670.2</ele>
        <time>2022-06-14T12:01:27.000Z</time>
      </trkpt>
      <trkpt lat="45.40036" lon="2.37475">
        <ele>670.3</ele>
        <time>2022-06-14T12:01:28.000Z</time>
      </trkpt>
      <trkpt lat="45.40036" lon="2.37474">
        <ele>670.4</ele>
        <time>2022-06-14T12:01:29.000Z</time>
      </trkpt>
      <trkpt lat="45.40036" lon="2.37472">
        <ele>670.5</ele>
        <time>2022-06-14T12:01:30.000Z</time>
      </trkpt>
      <trkpt lat="45.40036" lon="2.37471">
        <ele>670.5</ele>
        <time>2022-06-14T12:01:31.000Z</time>
      </trkpt>
      <trkpt lat="45.40036" lon="2.37469">
        <ele>670.6</ele>
        <time>2022-06-14T12:01:32.000Z</time>
      </trkpt>
      <trkpt lat="45.40036" lon="2.37468">
        <ele>670.7</ele>
        <time>2022-06-14T12:01:33.000Z</time>
      </trkpt>
      <trkpt lat="45.40037" lon="2.37467">
        <ele>670.8</ele>
        <time>2022-06-14T12:01:34.000Z</time>
      </trkpt>
      <trkpt lat="45.40037" lon="2.37465">
        <ele>670.9</ele>
        <time>2022-06-14T12:01:35.000Z</time>
      </trkpt>
      <trkpt lat="45.40037" lon="2.37464">
        <ele>671</ele>
        <time>2022-06-14T12:01:36.000Z</time>
      </trkpt>
      <trkpt lat="45.40037" lon="2.37463">
        <ele>671.1</ele>
        <time>2022-06-14T12:01:37.000Z</time>
      </trkpt>
      <trkpt lat="45.40038" lon="2.37462">
        <ele>671.2</ele>
        <time>2022-06-14T12:01:38.000Z</time>
      </trkpt>
      <trkpt lat="45.40038" lon="2.37461">
        <ele>671.3</ele>
        <time>2022-06-14T12:01:39.000Z</time>
      </trkpt>
      <trkpt lat="45.40039" lon="2.3746">
        <ele>671.4</ele>
        <time>2022-06-14T12:01:40.000Z</time>
      </trkpt>
      <trkpt lat="45.40039" lon="2.37459">
        <ele>671.5</ele>
        <time>2022-06-14T12:01:41.000Z</time>
      </trkpt>
      <trkpt lat="45.4004" lon="2.37458">
        <ele>671.6</ele>
        <time>2022-06-14T12:01:42.000Z</time>
      </trkpt>
      <trkpt lat="45.4004" lon="2.37457">
        <ele>671.6</ele>
        <time>2022-06-14T12:01:43.000Z</time>
      </trkpt>
      <trkpt lat="45.40041" lon="2.37457">
        <ele>671.7</ele>
        <time>2022-06-14T12:01:44.000Z</time>
      </trkpt>
      <trkpt lat="45.40041" lon="2.37456">
        <ele>671.8</ele>
        <time>2022-06-14T12:01:45.000Z</time>
      </trkpt>
      <trkpt lat="45.40042" lon="2.37455">
        <ele>671.9</ele>
        <time>2022-06-14T12:01:46.000Z</time>
      </trkpt>
      <trkpt lat="45.40043" lon="2.37454">
        <ele>672.1</ele>
        <time>2022-06-14T12:01:48.000Z</time>
      </trkpt>
      <trkpt lat="45.40044" lon="2.37453">
        <ele>672.2</ele>
        <time>2022-06-14T12:01:49.000Z</time>
      </trkpt>
      <trkpt lat="45.40044" lon="2.37452">
        <ele>672.3</ele>
        <time>2022-06-14T12:01:50.000Z</time>
      </trkpt>
      <trkpt lat="45.40045" lon="2.37452">
        <ele>672.4</ele>
        <time>2022-06-14T12:01:51.000Z</time>
      </trkpt>
      <trkpt lat="45.40045" lon="2.37451">
        <ele>672.5</ele>
        <time>2022-06-14T12:01:52.000Z</time>
      </trkpt>
      <trkpt lat="45.40046" lon="2.3745">
        <ele>672.6</ele>
        <time>2022-06-14T12:01:53.000Z</time>
      </trkpt>
      <trkpt lat="45.40047" lon="2.37449">
        <ele>672.8</ele>
        <time>2022-06-14T12:01:54.000Z</time>
      </trkpt>
      <trkpt lat="45.40047" lon="2.37448">
        <ele>672.9</ele>
        <time>2022-06-14T12:01:55.000Z</time>
      </trkpt>
      <trkpt lat="45.40048" lon="2.37448">
        <ele>673</ele>
        <time>2022-06-14T12:01:56.000Z</time>
      </trkpt>
      <trkpt lat="45.40048" lon="2.37447">
        <ele>673.1</ele>
        <time>2022-06-14T12:01:57.000Z</time>
      </trkpt>
      <trkpt lat="45.40049" lon="2.37446">
        <ele>673.2</ele>
        <time>2022-06-14T12:01:58.000Z</time>
      </trkpt>
      <trkpt lat="45.4005" lon="2.37446">
        <ele>673.3</ele>
        <time>2022-06-14T12:01:59.000Z</time>
      </trkpt>
      <trkpt lat="45.40051" lon="2.37446">
        <ele>673.4</ele>
        <time>2022-06-14T12:02:00.000Z</time>
      </trkpt>
      <trkpt lat="45.40051" lon="2.37445">
        <ele>673.5</ele>
        <time>2022-06-14T12:02:01.000Z</time>
      </trkpt>
      <trkpt lat="45.40052" lon="2.37445">
        <ele>673.6</ele>
        <time>2022-06-14T12:02:02.000Z</time>
      </trkpt>
      <trkpt lat="45.40053" lon="2.37445">
        <ele>673.7</ele>
        <time>2022-06-14T12:02:03.000Z</time>
      </trkpt>
      <trkpt lat="45.40054" lon="2.37445">
        <ele>673.8</ele>
        <time>2022-06-14T12:02:04.000Z</time>
      </trkpt>
      <trkpt lat="45.40055" lon="2.37444">
        <ele>673.9</ele>
        <time>2022-06-14T12:02:05.000Z</time>
      </trkpt>
      <trkpt lat="45.40056" lon="2.37444">
        <ele>674.1</ele>
        <time>2022-06-14T12:02:07.000Z</time>
      </trkpt>
      <trkpt lat="45.40057" lon="2.37444">
        <ele>674.2</ele>
        <time>2022-06-14T12:02:08.000Z</time>
      </trkpt>
      <trkpt lat="45.40058" lon="2.37443">
        <ele>674.3</ele>
        <time>2022-06-14T12:02:09.000Z</time>
      </trkpt>
      <trkpt lat="45.40059" lon="2.37443">
        <ele>674.4</ele>
        <time>2022-06-14T12:02:11.000Z</time>
      </trkpt>
      <trkpt lat="45.4006" lon="2.37443">
        <ele>674.6</ele>
        <time>2022-06-14T12:02:13.000Z</time>
      </trkpt>
      <trkpt lat="45.40061" lon="2.37442">
        <ele>674.8</ele>
        <time>2022-06-14T12:02:14.000Z</time>
      </trkpt>
      <trkpt lat="45.40062" lon="2.37441">
        <ele>674.9</ele>
        <time>2022-06-14T12:02:15.000Z</time>
      </trkpt>
      <trkpt lat="45.40063" lon="2.3744">
        <ele>675</ele>
        <time>2022-06-14T12:02:16.000Z</time>
      </trkpt>
      <trkpt lat="45.40064" lon="2.3744">
        <ele>675.1</ele>
        <time>2022-06-14T12:02:17.000Z</time>
      </trkpt>
      <trkpt lat="45.40065" lon="2.3744">
        <ele>675.3</ele>
        <time>2022-06-14T12:02:19.000Z</time>
      </trkpt>
      <trkpt lat="45.40065" lon="2.37439">
        <ele>675.4</ele>
        <time>2022-06-14T12:02:20.000Z</time>
      </trkpt>
      <trkpt lat="45.40066" lon="2.37439">
        <ele>675.5</ele>
        <time>2022-06-14T12:02:21.000Z</time>
      </trkpt>
      <trkpt lat="45.40067" lon="2.37439">
        <ele>675.6</ele>
        <time>2022-06-14T12:02:23.000Z</time>
      </trkpt>
      <trkpt lat="45.40067" lon="2.37438">
        <ele>675.6</ele>
        <time>2022-06-14T12:02:24.000Z</time>
      </trkpt>
      <trkpt lat="45.40068" lon="2.37438">
        <ele>675.8</ele>
        <time>2022-06-14T12:02:26.000Z</time>
      </trkpt>
      <trkpt lat="45.40069" lon="2.37437">
        <ele>675.9</ele>
        <time>2022-06-14T12:02:27.000Z</time>
      </trkpt>
      <trkpt lat="45.4007" lon="2.37436">
        <ele>676</ele>
        <time>2022-06-14T12:02:28.000Z</time>
      </trkpt>
      <trkpt lat="45.40071" lon="2.37436">
        <ele>676.2</ele>
        <time>2022-06-14T12:02:29.000Z</time>
      </trkpt>
      <trkpt lat="45.40071" lon="2.37435">
        <ele>676.3</ele>
        <time>2022-06-14T12:02:30.000Z</time>
      </trkpt>
      <trkpt lat="45.40072" lon="2.37434">
        <ele>676.4</ele>
        <time>2022-06-14T12:02:31.000Z</time>
      </trkpt>
      <trkpt lat="45.40073" lon="2.37434">
        <ele>676.6</ele>
        <time>2022-06-14T12:02:33.000Z</time>
      </trkpt>
      <trkpt lat="45.40073" lon="2.37433">
        <ele>676.6</ele>
        <time>2022-06-14T12:02:34.000Z</time>
      </trkpt>
      <trkpt lat="45.40074" lon="2.37433">
        <ele>676.7</ele>
        <time>2022-06-14T12:02:37.000Z</time>
      </trkpt>
      <trkpt lat="45.40074" lon="2.37432">
        <ele>676.8</ele>
        <time>2022-06-14T12:02:39.000Z</time>
      </trkpt>
      <trkpt lat="45.40074" lon="2.37431">
        <ele>676.9</ele>
        <time>2022-06-14T12:02:43.000Z</time>
      </trkpt>
      <trkpt lat="45.40075" lon="2.37431">
        <ele>677</ele>
        <time>2022-06-14T12:02:44.000Z</time>
      </trkpt>
      <trkpt lat="45.40075" lon="2.3743">
        <ele>677.1</ele>
        <time>2022-06-14T12:02:46.000Z</time>
      </trkpt>
      <trkpt lat="45.40075" lon="2.37429">
        <ele>677.2</ele>
        <time>2022-06-14T12:02:47.000Z</time>
      </trkpt>
      <trkpt lat="45.40076" lon="2.37428">
        <ele>677.3</ele>
        <time>2022-06-14T12:02:48.000Z</time>
      </trkpt>
      <trkpt lat="45.40076" lon="2.37427">
        <ele>677.4</ele>
        <time>2022-06-14T12:02:50.000Z</time>
      </trkpt>
      <trkpt lat="45.40076" lon="2.37427">
        <ele>677.4</ele>
        <time>2022-06-14T12:03:58.000Z</time>
      </trkpt>
      <trkpt lat="45.40076" lon="2.37428">
        <ele>677.3</ele>
        <time>2022-06-14T12:04:48.000Z</time>
      </trkpt>
      <trkpt lat="45.40076" lon="2.37429">
        <ele>677.3</ele>
        <time>2022-06-14T12:04:51.000Z</time>
      </trkpt>
      <trkpt lat="45.40077" lon="2.3743">
        <ele>677.3</ele>
        <time>2022-06-14T12:04:53.000Z</time>
      </trkpt>
      <trkpt lat="45.40078" lon="2.37431">
        <ele>677.3</ele>
        <time>2022-06-14T12:04:55.000Z</time>
      </trkpt>
      <trkpt lat="45.40078" lon="2.37433">
        <ele>677.2</ele>
        <time>2022-06-14T12:04:56.000Z</time>
      </trkpt>
      <trkpt lat="45.40078" lon="2.37434">
        <ele>677.1</ele>
        <time>2022-06-14T12:04:57.000Z</time>
      </trkpt>
      <trkpt lat="45.40078" lon="2.37435">
        <ele>677</ele>
        <time>2022-06-14T12:04:58.000Z</time>
      </trkpt>
      <trkpt lat="45.40077" lon="2.37436">
        <ele>676.9</ele>
        <time>2022-06-14T12:04:59.000Z</time>
      </trkpt>
      <trkpt lat="45.40077" lon="2.37438">
        <ele>676.8</ele>
        <time>2022-06-14T12:05:00.000Z</time>
      </trkpt>
      <trkpt lat="45.40077" lon="2.3744">
        <ele>676.6</ele>
        <time>2022-06-14T12:05:01.000Z</time>
      </trkpt>
      <trkpt lat="45.40077" lon="2.37443">
        <ele>676.4</ele>
        <time>2022-06-14T12:05:02.000Z</time>
      </trkpt>
      <trkpt lat="45.40078" lon="2.37448">
        <ele>676.1</ele>
        <time>2022-06-14T12:05:03.000Z</time>
      </trkpt>
      <trkpt lat="45.40079" lon="2.37456">
        <ele>675.7</ele>
        <time>2022-06-14T12:05:04.000Z</time>
      </trkpt>
      <trkpt lat="45.40081" lon="2.37466">
        <ele>675.2</ele>
        <time>2022-06-14T12:05:05.000Z</time>
      </trkpt>
      <trkpt lat="45.40083" lon="2.37481">
        <ele>674.4</ele>
        <time>2022-06-14T12:05:06.000Z</time>
      </trkpt>
      <trkpt lat="45.40088" lon="2.37506">
        <ele>671.6</ele>
        <time>2022-06-14T12:05:07.000Z</time>
      </trkpt>
      <trkpt lat="45.40096" lon="2.37543">
        <ele>664.6</ele>
        <time>2022-06-14T12:05:08.000Z</time>
      </trkpt>
      <trkpt lat="45.40103" lon="2.3758">
        <ele>657.5</ele>
        <time>2022-06-14T12:05:09.000Z</time>
      </trkpt>
      <trkpt lat="45.40111" lon="2.37616">
        <ele>649.7</ele>
        <time>2022-06-14T12:05:10.000Z</time>
      </trkpt>
      <trkpt lat="45.40119" lon="2.37652">
        <ele>641.6</ele>
        <time>2022-06-14T12:05:11.000Z</time>
      </trkpt>
      <trkpt lat="45.40126" lon="2.37688">
        <ele>633</ele>
        <time>2022-06-14T12:05:12.000Z</time>
      </trkpt>
      <trkpt lat="45.40134" lon="2.37724">
        <ele>623.9</ele>
        <time>2022-06-14T12:52:04.000Z</time>
      </trkpt>
    </trkseg>
  </trk>
</gpx>